<?xml version="1.0" encoding="UTF-8" standalone="no" ?>
<gpx xmlns="http://www.topografix.com/GPX/1/1" xmlns:xsi="http://www.w3.org/2001/XMLSchema-instance" xsi:schemaLocation="http://www.topografix.com/GPX/1/1 http://www.topografix.com/GPX/1/1/gpx.xsd" version="1.1" creator="VisuGPX - https://www.visugpx.com">
  <metadata>
    <name>Autour du col de la Pra</name>
    <desc><![CDATA[Triptyque classique autour du col de la Pra: 
Grand Colon
Grande Lauzière
Grande Lance de Domène]]></desc>
  </metadata>
  <trk>
    <name><![CDATA[La Pra, triptyque classique w/Ren | Backcountry Ski | Strava]]></name>
    <trkseg>
      <trkpt lat="45.18698" lon="5.9">
        <ele>1150</ele>
        <time>2019-01-20T07:56:00.000Z</time>
      </trkpt>
      <trkpt lat="45.18698" lon="5.9">
        <ele>1151</ele>
        <time>2019-01-20T07:56:02.000Z</time>
      </trkpt>
      <trkpt lat="45.18698" lon="5.9">
        <ele>1151</ele>
        <time>2019-01-20T07:56:03.000Z</time>
      </trkpt>
      <trkpt lat="45.18697" lon="5.90003">
        <ele>1152</ele>
        <time>2019-01-20T07:56:04.000Z</time>
      </trkpt>
      <trkpt lat="45.18697" lon="5.90003">
        <ele>1152</ele>
        <time>2019-01-20T07:56:05.000Z</time>
      </trkpt>
      <trkpt lat="45.18695" lon="5.90006">
        <ele>1152</ele>
        <time>2019-01-20T07:56:06.000Z</time>
      </trkpt>
      <trkpt lat="45.18695" lon="5.90006">
        <ele>1152</ele>
        <time>2019-01-20T07:56:07.000Z</time>
      </trkpt>
      <trkpt lat="45.18693" lon="5.9001">
        <ele>1152</ele>
        <time>2019-01-20T07:56:08.000Z</time>
      </trkpt>
      <trkpt lat="45.18693" lon="5.9001">
        <ele>1152</ele>
        <time>2019-01-20T07:56:09.000Z</time>
      </trkpt>
      <trkpt lat="45.18692" lon="5.90013">
        <ele>1152</ele>
        <time>2019-01-20T07:56:10.000Z</time>
      </trkpt>
      <trkpt lat="45.18692" lon="5.90013">
        <ele>1152</ele>
        <time>2019-01-20T07:56:11.000Z</time>
      </trkpt>
      <trkpt lat="45.18691" lon="5.90015">
        <ele>1152</ele>
        <time>2019-01-20T07:56:12.000Z</time>
      </trkpt>
      <trkpt lat="45.18691" lon="5.90015">
        <ele>1152</ele>
        <time>2019-01-20T07:56:13.000Z</time>
      </trkpt>
      <trkpt lat="45.1869" lon="5.90018">
        <ele>1153</ele>
        <time>2019-01-20T07:56:14.000Z</time>
      </trkpt>
      <trkpt lat="45.1869" lon="5.90018">
        <ele>1153</ele>
        <time>2019-01-20T07:56:15.000Z</time>
      </trkpt>
      <trkpt lat="45.18689" lon="5.90021">
        <ele>1153</ele>
        <time>2019-01-20T07:56:16.000Z</time>
      </trkpt>
      <trkpt lat="45.18688" lon="5.90026">
        <ele>1153</ele>
        <time>2019-01-20T07:56:18.000Z</time>
      </trkpt>
      <trkpt lat="45.18688" lon="5.90026">
        <ele>1153</ele>
        <time>2019-01-20T07:56:19.000Z</time>
      </trkpt>
      <trkpt lat="45.18688" lon="5.90029">
        <ele>1154</ele>
        <time>2019-01-20T07:56:20.000Z</time>
      </trkpt>
      <trkpt lat="45.18688" lon="5.90029">
        <ele>1154</ele>
        <time>2019-01-20T07:56:21.000Z</time>
      </trkpt>
      <trkpt lat="45.18688" lon="5.90033">
        <ele>1154</ele>
        <time>2019-01-20T07:56:22.000Z</time>
      </trkpt>
      <trkpt lat="45.18688" lon="5.90036">
        <ele>1154</ele>
        <time>2019-01-20T07:56:23.000Z</time>
      </trkpt>
      <trkpt lat="45.18688" lon="5.90036">
        <ele>1154</ele>
        <time>2019-01-20T07:56:24.000Z</time>
      </trkpt>
      <trkpt lat="45.18689" lon="5.90041">
        <ele>1154</ele>
        <time>2019-01-20T07:56:25.000Z</time>
      </trkpt>
      <trkpt lat="45.18689" lon="5.90043">
        <ele>1154</ele>
        <time>2019-01-20T07:56:26.000Z</time>
      </trkpt>
      <trkpt lat="45.18689" lon="5.90043">
        <ele>1155</ele>
        <time>2019-01-20T07:56:27.000Z</time>
      </trkpt>
      <trkpt lat="45.1869" lon="5.90048">
        <ele>1155</ele>
        <time>2019-01-20T07:56:28.000Z</time>
      </trkpt>
      <trkpt lat="45.1869" lon="5.90048">
        <ele>1155</ele>
        <time>2019-01-20T07:56:29.000Z</time>
      </trkpt>
      <trkpt lat="45.18689" lon="5.90052">
        <ele>1155</ele>
        <time>2019-01-20T07:56:30.000Z</time>
      </trkpt>
      <trkpt lat="45.18689" lon="5.90052">
        <ele>1155</ele>
        <time>2019-01-20T07:56:31.000Z</time>
      </trkpt>
      <trkpt lat="45.18689" lon="5.90056">
        <ele>1155</ele>
        <time>2019-01-20T07:56:32.000Z</time>
      </trkpt>
      <trkpt lat="45.18689" lon="5.90056">
        <ele>1155</ele>
        <time>2019-01-20T07:56:33.000Z</time>
      </trkpt>
      <trkpt lat="45.18687" lon="5.90059">
        <ele>1155</ele>
        <time>2019-01-20T07:56:34.000Z</time>
      </trkpt>
      <trkpt lat="45.18687" lon="5.90059">
        <ele>1155</ele>
        <time>2019-01-20T07:56:35.000Z</time>
      </trkpt>
      <trkpt lat="45.18685" lon="5.90063">
        <ele>1155</ele>
        <time>2019-01-20T07:56:36.000Z</time>
      </trkpt>
      <trkpt lat="45.18685" lon="5.90063">
        <ele>1156</ele>
        <time>2019-01-20T07:56:37.000Z</time>
      </trkpt>
      <trkpt lat="45.18683" lon="5.90066">
        <ele>1156</ele>
        <time>2019-01-20T07:56:38.000Z</time>
      </trkpt>
      <trkpt lat="45.18682" lon="5.90067">
        <ele>1156</ele>
        <time>2019-01-20T07:56:39.000Z</time>
      </trkpt>
      <trkpt lat="45.18681" lon="5.90068">
        <ele>1156</ele>
        <time>2019-01-20T07:56:40.000Z</time>
      </trkpt>
      <trkpt lat="45.1868" lon="5.90068">
        <ele>1156</ele>
        <time>2019-01-20T07:56:41.000Z</time>
      </trkpt>
      <trkpt lat="45.1868" lon="5.90069">
        <ele>1156</ele>
        <time>2019-01-20T07:56:42.000Z</time>
      </trkpt>
      <trkpt lat="45.1868" lon="5.90069">
        <ele>1157</ele>
        <time>2019-01-20T07:56:43.000Z</time>
      </trkpt>
      <trkpt lat="45.18674" lon="5.90075">
        <ele>1157</ele>
        <time>2019-01-20T07:56:44.000Z</time>
      </trkpt>
      <trkpt lat="45.18674" lon="5.90075">
        <ele>1157</ele>
        <time>2019-01-20T07:56:45.000Z</time>
      </trkpt>
      <trkpt lat="45.18671" lon="5.90078">
        <ele>1158</ele>
        <time>2019-01-20T07:56:46.000Z</time>
      </trkpt>
      <trkpt lat="45.1867" lon="5.90079">
        <ele>1158</ele>
        <time>2019-01-20T07:56:47.000Z</time>
      </trkpt>
      <trkpt lat="45.18667" lon="5.9008">
        <ele>1158</ele>
        <time>2019-01-20T07:56:48.000Z</time>
      </trkpt>
      <trkpt lat="45.18667" lon="5.9008">
        <ele>1158</ele>
        <time>2019-01-20T07:56:49.000Z</time>
      </trkpt>
      <trkpt lat="45.18665" lon="5.90081">
        <ele>1158</ele>
        <time>2019-01-20T07:56:50.000Z</time>
      </trkpt>
      <trkpt lat="45.18665" lon="5.90081">
        <ele>1158</ele>
        <time>2019-01-20T07:56:51.000Z</time>
      </trkpt>
      <trkpt lat="45.18663" lon="5.90083">
        <ele>1158</ele>
        <time>2019-01-20T07:56:52.000Z</time>
      </trkpt>
      <trkpt lat="45.18663" lon="5.90083">
        <ele>1158</ele>
        <time>2019-01-20T07:56:53.000Z</time>
      </trkpt>
      <trkpt lat="45.18662" lon="5.90085">
        <ele>1158</ele>
        <time>2019-01-20T07:56:54.000Z</time>
      </trkpt>
      <trkpt lat="45.18659" lon="5.90086">
        <ele>1158</ele>
        <time>2019-01-20T07:56:56.000Z</time>
      </trkpt>
      <trkpt lat="45.18659" lon="5.90086">
        <ele>1158</ele>
        <time>2019-01-20T07:56:57.000Z</time>
      </trkpt>
      <trkpt lat="45.18657" lon="5.90089">
        <ele>1159</ele>
        <time>2019-01-20T07:56:58.000Z</time>
      </trkpt>
      <trkpt lat="45.18656" lon="5.90091">
        <ele>1159</ele>
        <time>2019-01-20T07:56:59.000Z</time>
      </trkpt>
      <trkpt lat="45.18654" lon="5.90093">
        <ele>1159</ele>
        <time>2019-01-20T07:57:00.000Z</time>
      </trkpt>
      <trkpt lat="45.18652" lon="5.90094">
        <ele>1159</ele>
        <time>2019-01-20T07:57:01.000Z</time>
      </trkpt>
      <trkpt lat="45.1865" lon="5.90096">
        <ele>1160</ele>
        <time>2019-01-20T07:57:02.000Z</time>
      </trkpt>
      <trkpt lat="45.18648" lon="5.90098">
        <ele>1160</ele>
        <time>2019-01-20T07:57:03.000Z</time>
      </trkpt>
      <trkpt lat="45.18647" lon="5.901">
        <ele>1160</ele>
        <time>2019-01-20T07:57:04.000Z</time>
      </trkpt>
      <trkpt lat="45.18647" lon="5.901">
        <ele>1160</ele>
        <time>2019-01-20T07:57:05.000Z</time>
      </trkpt>
      <trkpt lat="45.18647" lon="5.901">
        <ele>1160</ele>
        <time>2019-01-20T07:57:07.000Z</time>
      </trkpt>
      <trkpt lat="45.18642" lon="5.90109">
        <ele>1161</ele>
        <time>2019-01-20T07:57:08.000Z</time>
      </trkpt>
      <trkpt lat="45.18642" lon="5.90111">
        <ele>1161</ele>
        <time>2019-01-20T07:57:09.000Z</time>
      </trkpt>
      <trkpt lat="45.18642" lon="5.90111">
        <ele>1161</ele>
        <time>2019-01-20T07:57:10.000Z</time>
      </trkpt>
      <trkpt lat="45.18641" lon="5.90115">
        <ele>1162</ele>
        <time>2019-01-20T07:57:11.000Z</time>
      </trkpt>
      <trkpt lat="45.18641" lon="5.90115">
        <ele>1162</ele>
        <time>2019-01-20T07:57:12.000Z</time>
      </trkpt>
      <trkpt lat="45.1864" lon="5.90119">
        <ele>1163</ele>
        <time>2019-01-20T07:57:13.000Z</time>
      </trkpt>
      <trkpt lat="45.1864" lon="5.90123">
        <ele>1163</ele>
        <time>2019-01-20T07:57:15.000Z</time>
      </trkpt>
      <trkpt lat="45.1864" lon="5.90123">
        <ele>1163</ele>
        <time>2019-01-20T07:57:16.000Z</time>
      </trkpt>
      <trkpt lat="45.1864" lon="5.90126">
        <ele>1163</ele>
        <time>2019-01-20T07:57:17.000Z</time>
      </trkpt>
      <trkpt lat="45.1864" lon="5.90126">
        <ele>1163</ele>
        <time>2019-01-20T07:57:18.000Z</time>
      </trkpt>
      <trkpt lat="45.18639" lon="5.9013">
        <ele>1163</ele>
        <time>2019-01-20T07:57:19.000Z</time>
      </trkpt>
      <trkpt lat="45.18639" lon="5.9013">
        <ele>1163</ele>
        <time>2019-01-20T07:57:20.000Z</time>
      </trkpt>
      <trkpt lat="45.18639" lon="5.90135">
        <ele>1163</ele>
        <time>2019-01-20T07:57:21.000Z</time>
      </trkpt>
      <trkpt lat="45.18639" lon="5.90135">
        <ele>1164</ele>
        <time>2019-01-20T07:57:22.000Z</time>
      </trkpt>
      <trkpt lat="45.18639" lon="5.90139">
        <ele>1164</ele>
        <time>2019-01-20T07:57:23.000Z</time>
      </trkpt>
      <trkpt lat="45.18639" lon="5.90139">
        <ele>1164</ele>
        <time>2019-01-20T07:57:24.000Z</time>
      </trkpt>
      <trkpt lat="45.18638" lon="5.90142">
        <ele>1164</ele>
        <time>2019-01-20T07:57:25.000Z</time>
      </trkpt>
      <trkpt lat="45.18638" lon="5.90142">
        <ele>1164</ele>
        <time>2019-01-20T07:57:26.000Z</time>
      </trkpt>
      <trkpt lat="45.18638" lon="5.90146">
        <ele>1164</ele>
        <time>2019-01-20T07:57:27.000Z</time>
      </trkpt>
      <trkpt lat="45.18638" lon="5.90146">
        <ele>1164</ele>
        <time>2019-01-20T07:57:28.000Z</time>
      </trkpt>
      <trkpt lat="45.18639" lon="5.9015">
        <ele>1165</ele>
        <time>2019-01-20T07:57:29.000Z</time>
      </trkpt>
      <trkpt lat="45.18639" lon="5.9015">
        <ele>1165</ele>
        <time>2019-01-20T07:57:30.000Z</time>
      </trkpt>
      <trkpt lat="45.18639" lon="5.90154">
        <ele>1165</ele>
        <time>2019-01-20T07:57:31.000Z</time>
      </trkpt>
      <trkpt lat="45.18639" lon="5.90154">
        <ele>1165</ele>
        <time>2019-01-20T07:57:32.000Z</time>
      </trkpt>
      <trkpt lat="45.18639" lon="5.90158">
        <ele>1165</ele>
        <time>2019-01-20T07:57:33.000Z</time>
      </trkpt>
      <trkpt lat="45.18639" lon="5.90158">
        <ele>1165</ele>
        <time>2019-01-20T07:57:34.000Z</time>
      </trkpt>
      <trkpt lat="45.1864" lon="5.90162">
        <ele>1166</ele>
        <time>2019-01-20T07:57:35.000Z</time>
      </trkpt>
      <trkpt lat="45.1864" lon="5.90162">
        <ele>1166</ele>
        <time>2019-01-20T07:57:36.000Z</time>
      </trkpt>
      <trkpt lat="45.18641" lon="5.90167">
        <ele>1166</ele>
        <time>2019-01-20T07:57:37.000Z</time>
      </trkpt>
      <trkpt lat="45.18641" lon="5.90167">
        <ele>1166</ele>
        <time>2019-01-20T07:57:38.000Z</time>
      </trkpt>
      <trkpt lat="45.18641" lon="5.9017">
        <ele>1166</ele>
        <time>2019-01-20T07:57:39.000Z</time>
      </trkpt>
      <trkpt lat="45.18641" lon="5.9017">
        <ele>1166</ele>
        <time>2019-01-20T07:57:40.000Z</time>
      </trkpt>
      <trkpt lat="45.18642" lon="5.90175">
        <ele>1166</ele>
        <time>2019-01-20T07:57:41.000Z</time>
      </trkpt>
      <trkpt lat="45.18642" lon="5.90175">
        <ele>1167</ele>
        <time>2019-01-20T07:57:42.000Z</time>
      </trkpt>
      <trkpt lat="45.18643" lon="5.90179">
        <ele>1167</ele>
        <time>2019-01-20T07:57:43.000Z</time>
      </trkpt>
      <trkpt lat="45.18643" lon="5.90179">
        <ele>1167</ele>
        <time>2019-01-20T07:57:44.000Z</time>
      </trkpt>
      <trkpt lat="45.18645" lon="5.90182">
        <ele>1167</ele>
        <time>2019-01-20T07:57:45.000Z</time>
      </trkpt>
      <trkpt lat="45.18645" lon="5.90182">
        <ele>1167</ele>
        <time>2019-01-20T07:57:46.000Z</time>
      </trkpt>
      <trkpt lat="45.18646" lon="5.90186">
        <ele>1167</ele>
        <time>2019-01-20T07:57:47.000Z</time>
      </trkpt>
      <trkpt lat="45.18646" lon="5.90186">
        <ele>1168</ele>
        <time>2019-01-20T07:57:48.000Z</time>
      </trkpt>
      <trkpt lat="45.18647" lon="5.9019">
        <ele>1168</ele>
        <time>2019-01-20T07:57:49.000Z</time>
      </trkpt>
      <trkpt lat="45.18647" lon="5.9019">
        <ele>1168</ele>
        <time>2019-01-20T07:57:50.000Z</time>
      </trkpt>
      <trkpt lat="45.18648" lon="5.90194">
        <ele>1168</ele>
        <time>2019-01-20T07:57:51.000Z</time>
      </trkpt>
      <trkpt lat="45.18649" lon="5.90198">
        <ele>1168</ele>
        <time>2019-01-20T07:57:53.000Z</time>
      </trkpt>
      <trkpt lat="45.18649" lon="5.90198">
        <ele>1168</ele>
        <time>2019-01-20T07:57:54.000Z</time>
      </trkpt>
      <trkpt lat="45.18649" lon="5.90202">
        <ele>1168</ele>
        <time>2019-01-20T07:57:55.000Z</time>
      </trkpt>
      <trkpt lat="45.18649" lon="5.90202">
        <ele>1169</ele>
        <time>2019-01-20T07:57:56.000Z</time>
      </trkpt>
      <trkpt lat="45.1865" lon="5.90206">
        <ele>1169</ele>
        <time>2019-01-20T07:57:57.000Z</time>
      </trkpt>
      <trkpt lat="45.1865" lon="5.90206">
        <ele>1169</ele>
        <time>2019-01-20T07:57:58.000Z</time>
      </trkpt>
      <trkpt lat="45.18651" lon="5.9021">
        <ele>1169</ele>
        <time>2019-01-20T07:57:59.000Z</time>
      </trkpt>
      <trkpt lat="45.18651" lon="5.9021">
        <ele>1169</ele>
        <time>2019-01-20T07:58:00.000Z</time>
      </trkpt>
      <trkpt lat="45.18653" lon="5.90213">
        <ele>1170</ele>
        <time>2019-01-20T07:58:01.000Z</time>
      </trkpt>
      <trkpt lat="45.18654" lon="5.90215">
        <ele>1170</ele>
        <time>2019-01-20T07:58:02.000Z</time>
      </trkpt>
      <trkpt lat="45.18654" lon="5.90215">
        <ele>1171</ele>
        <time>2019-01-20T07:58:03.000Z</time>
      </trkpt>
      <trkpt lat="45.18656" lon="5.90219">
        <ele>1171</ele>
        <time>2019-01-20T07:58:04.000Z</time>
      </trkpt>
      <trkpt lat="45.18657" lon="5.90221">
        <ele>1171</ele>
        <time>2019-01-20T07:58:05.000Z</time>
      </trkpt>
      <trkpt lat="45.18657" lon="5.90221">
        <ele>1171</ele>
        <time>2019-01-20T07:58:06.000Z</time>
      </trkpt>
      <trkpt lat="45.18658" lon="5.90226">
        <ele>1171</ele>
        <time>2019-01-20T07:58:07.000Z</time>
      </trkpt>
      <trkpt lat="45.18658" lon="5.90229">
        <ele>1172</ele>
        <time>2019-01-20T07:58:08.000Z</time>
      </trkpt>
      <trkpt lat="45.18658" lon="5.90229">
        <ele>1172</ele>
        <time>2019-01-20T07:58:09.000Z</time>
      </trkpt>
      <trkpt lat="45.18659" lon="5.90233">
        <ele>1172</ele>
        <time>2019-01-20T07:58:10.000Z</time>
      </trkpt>
      <trkpt lat="45.18659" lon="5.90233">
        <ele>1172</ele>
        <time>2019-01-20T07:58:11.000Z</time>
      </trkpt>
      <trkpt lat="45.1866" lon="5.90237">
        <ele>1172</ele>
        <time>2019-01-20T07:58:12.000Z</time>
      </trkpt>
      <trkpt lat="45.1866" lon="5.90237">
        <ele>1172</ele>
        <time>2019-01-20T07:58:13.000Z</time>
      </trkpt>
      <trkpt lat="45.1866" lon="5.90242">
        <ele>1172</ele>
        <time>2019-01-20T07:58:14.000Z</time>
      </trkpt>
      <trkpt lat="45.1866" lon="5.90242">
        <ele>1172</ele>
        <time>2019-01-20T07:58:15.000Z</time>
      </trkpt>
      <trkpt lat="45.18661" lon="5.90246">
        <ele>1172</ele>
        <time>2019-01-20T07:58:16.000Z</time>
      </trkpt>
      <trkpt lat="45.18661" lon="5.90246">
        <ele>1172</ele>
        <time>2019-01-20T07:58:17.000Z</time>
      </trkpt>
      <trkpt lat="45.18662" lon="5.9025">
        <ele>1172</ele>
        <time>2019-01-20T07:58:18.000Z</time>
      </trkpt>
      <trkpt lat="45.18662" lon="5.9025">
        <ele>1172</ele>
        <time>2019-01-20T07:58:19.000Z</time>
      </trkpt>
      <trkpt lat="45.18661" lon="5.90253">
        <ele>1172</ele>
        <time>2019-01-20T07:58:20.000Z</time>
      </trkpt>
      <trkpt lat="45.18662" lon="5.90256">
        <ele>1172</ele>
        <time>2019-01-20T07:58:21.000Z</time>
      </trkpt>
      <trkpt lat="45.18662" lon="5.90256">
        <ele>1173</ele>
        <time>2019-01-20T07:58:22.000Z</time>
      </trkpt>
      <trkpt lat="45.18662" lon="5.90259">
        <ele>1173</ele>
        <time>2019-01-20T07:58:23.000Z</time>
      </trkpt>
      <trkpt lat="45.18662" lon="5.90259">
        <ele>1173</ele>
        <time>2019-01-20T07:58:24.000Z</time>
      </trkpt>
      <trkpt lat="45.18662" lon="5.90262">
        <ele>1173</ele>
        <time>2019-01-20T07:58:25.000Z</time>
      </trkpt>
      <trkpt lat="45.18662" lon="5.90262">
        <ele>1173</ele>
        <time>2019-01-20T07:58:26.000Z</time>
      </trkpt>
      <trkpt lat="45.18662" lon="5.90262">
        <ele>1174</ele>
        <time>2019-01-20T07:58:27.000Z</time>
      </trkpt>
      <trkpt lat="45.18663" lon="5.90266">
        <ele>1174</ele>
        <time>2019-01-20T07:58:28.000Z</time>
      </trkpt>
      <trkpt lat="45.18663" lon="5.90266">
        <ele>1174</ele>
        <time>2019-01-20T07:58:29.000Z</time>
      </trkpt>
      <trkpt lat="45.18663" lon="5.90269">
        <ele>1174</ele>
        <time>2019-01-20T07:58:31.000Z</time>
      </trkpt>
      <trkpt lat="45.18663" lon="5.90269">
        <ele>1174</ele>
        <time>2019-01-20T07:58:32.000Z</time>
      </trkpt>
      <trkpt lat="45.18663" lon="5.90271">
        <ele>1175</ele>
        <time>2019-01-20T07:58:33.000Z</time>
      </trkpt>
      <trkpt lat="45.18663" lon="5.90271">
        <ele>1175</ele>
        <time>2019-01-20T07:58:34.000Z</time>
      </trkpt>
      <trkpt lat="45.18663" lon="5.90271">
        <ele>1175</ele>
        <time>2019-01-20T07:58:35.000Z</time>
      </trkpt>
      <trkpt lat="45.18665" lon="5.90275">
        <ele>1176</ele>
        <time>2019-01-20T07:58:36.000Z</time>
      </trkpt>
      <trkpt lat="45.18665" lon="5.90275">
        <ele>1176</ele>
        <time>2019-01-20T07:58:37.000Z</time>
      </trkpt>
      <trkpt lat="45.18665" lon="5.90275">
        <ele>1176</ele>
        <time>2019-01-20T07:58:38.000Z</time>
      </trkpt>
      <trkpt lat="45.18667" lon="5.90277">
        <ele>1176</ele>
        <time>2019-01-20T07:58:39.000Z</time>
      </trkpt>
      <trkpt lat="45.18667" lon="5.90277">
        <ele>1176</ele>
        <time>2019-01-20T07:58:40.000Z</time>
      </trkpt>
      <trkpt lat="45.18669" lon="5.9028">
        <ele>1177</ele>
        <time>2019-01-20T07:58:41.000Z</time>
      </trkpt>
      <trkpt lat="45.18669" lon="5.9028">
        <ele>1177</ele>
        <time>2019-01-20T07:58:42.000Z</time>
      </trkpt>
      <trkpt lat="45.18671" lon="5.90283">
        <ele>1177</ele>
        <time>2019-01-20T07:58:43.000Z</time>
      </trkpt>
      <trkpt lat="45.18671" lon="5.90283">
        <ele>1177</ele>
        <time>2019-01-20T07:58:44.000Z</time>
      </trkpt>
      <trkpt lat="45.18673" lon="5.90286">
        <ele>1177</ele>
        <time>2019-01-20T07:58:45.000Z</time>
      </trkpt>
      <trkpt lat="45.18673" lon="5.90286">
        <ele>1177</ele>
        <time>2019-01-20T07:58:46.000Z</time>
      </trkpt>
      <trkpt lat="45.18674" lon="5.90289">
        <ele>1177</ele>
        <time>2019-01-20T07:58:47.000Z</time>
      </trkpt>
      <trkpt lat="45.18674" lon="5.90289">
        <ele>1178</ele>
        <time>2019-01-20T07:58:48.000Z</time>
      </trkpt>
      <trkpt lat="45.18676" lon="5.90292">
        <ele>1178</ele>
        <time>2019-01-20T07:58:49.000Z</time>
      </trkpt>
      <trkpt lat="45.18676" lon="5.90292">
        <ele>1178</ele>
        <time>2019-01-20T07:58:50.000Z</time>
      </trkpt>
      <trkpt lat="45.18677" lon="5.90294">
        <ele>1178</ele>
        <time>2019-01-20T07:58:51.000Z</time>
      </trkpt>
      <trkpt lat="45.18677" lon="5.90294">
        <ele>1179</ele>
        <time>2019-01-20T07:58:52.000Z</time>
      </trkpt>
      <trkpt lat="45.18679" lon="5.90297">
        <ele>1179</ele>
        <time>2019-01-20T07:58:53.000Z</time>
      </trkpt>
      <trkpt lat="45.18679" lon="5.90297">
        <ele>1179</ele>
        <time>2019-01-20T07:58:54.000Z</time>
      </trkpt>
      <trkpt lat="45.18679" lon="5.90297">
        <ele>1179</ele>
        <time>2019-01-20T07:58:55.000Z</time>
      </trkpt>
      <trkpt lat="45.1868" lon="5.903">
        <ele>1179</ele>
        <time>2019-01-20T07:58:56.000Z</time>
      </trkpt>
      <trkpt lat="45.1868" lon="5.903">
        <ele>1180</ele>
        <time>2019-01-20T07:58:57.000Z</time>
      </trkpt>
      <trkpt lat="45.18681" lon="5.90303">
        <ele>1180</ele>
        <time>2019-01-20T07:58:58.000Z</time>
      </trkpt>
      <trkpt lat="45.18681" lon="5.90303">
        <ele>1181</ele>
        <time>2019-01-20T07:58:59.000Z</time>
      </trkpt>
      <trkpt lat="45.18683" lon="5.90306">
        <ele>1181</ele>
        <time>2019-01-20T07:59:00.000Z</time>
      </trkpt>
      <trkpt lat="45.18683" lon="5.90306">
        <ele>1181</ele>
        <time>2019-01-20T07:59:01.000Z</time>
      </trkpt>
      <trkpt lat="45.18684" lon="5.90308">
        <ele>1181</ele>
        <time>2019-01-20T07:59:02.000Z</time>
      </trkpt>
      <trkpt lat="45.18684" lon="5.90308">
        <ele>1182</ele>
        <time>2019-01-20T07:59:03.000Z</time>
      </trkpt>
      <trkpt lat="45.18686" lon="5.90311">
        <ele>1182</ele>
        <time>2019-01-20T07:59:04.000Z</time>
      </trkpt>
      <trkpt lat="45.18686" lon="5.90311">
        <ele>1182</ele>
        <time>2019-01-20T07:59:05.000Z</time>
      </trkpt>
      <trkpt lat="45.18687" lon="5.90313">
        <ele>1182</ele>
        <time>2019-01-20T07:59:06.000Z</time>
      </trkpt>
      <trkpt lat="45.18687" lon="5.90313">
        <ele>1182</ele>
        <time>2019-01-20T07:59:07.000Z</time>
      </trkpt>
      <trkpt lat="45.18688" lon="5.90317">
        <ele>1182</ele>
        <time>2019-01-20T07:59:08.000Z</time>
      </trkpt>
      <trkpt lat="45.18688" lon="5.90317">
        <ele>1182</ele>
        <time>2019-01-20T07:59:09.000Z</time>
      </trkpt>
      <trkpt lat="45.1869" lon="5.9032">
        <ele>1182</ele>
        <time>2019-01-20T07:59:10.000Z</time>
      </trkpt>
      <trkpt lat="45.1869" lon="5.9032">
        <ele>1182</ele>
        <time>2019-01-20T07:59:11.000Z</time>
      </trkpt>
      <trkpt lat="45.18691" lon="5.90323">
        <ele>1182</ele>
        <time>2019-01-20T07:59:12.000Z</time>
      </trkpt>
      <trkpt lat="45.18691" lon="5.90323">
        <ele>1183</ele>
        <time>2019-01-20T07:59:13.000Z</time>
      </trkpt>
      <trkpt lat="45.18693" lon="5.90326">
        <ele>1184</ele>
        <time>2019-01-20T07:59:14.000Z</time>
      </trkpt>
      <trkpt lat="45.18693" lon="5.90326">
        <ele>1184</ele>
        <time>2019-01-20T07:59:15.000Z</time>
      </trkpt>
      <trkpt lat="45.18694" lon="5.90329">
        <ele>1184</ele>
        <time>2019-01-20T07:59:16.000Z</time>
      </trkpt>
      <trkpt lat="45.18694" lon="5.90329">
        <ele>1184</ele>
        <time>2019-01-20T07:59:17.000Z</time>
      </trkpt>
      <trkpt lat="45.18695" lon="5.90331">
        <ele>1184</ele>
        <time>2019-01-20T07:59:18.000Z</time>
      </trkpt>
      <trkpt lat="45.18695" lon="5.90331">
        <ele>1184</ele>
        <time>2019-01-20T07:59:19.000Z</time>
      </trkpt>
      <trkpt lat="45.18696" lon="5.90333">
        <ele>1184</ele>
        <time>2019-01-20T07:59:20.000Z</time>
      </trkpt>
      <trkpt lat="45.18696" lon="5.90333">
        <ele>1185</ele>
        <time>2019-01-20T07:59:21.000Z</time>
      </trkpt>
      <trkpt lat="45.18698" lon="5.90336">
        <ele>1186</ele>
        <time>2019-01-20T07:59:22.000Z</time>
      </trkpt>
      <trkpt lat="45.18698" lon="5.90336">
        <ele>1186</ele>
        <time>2019-01-20T07:59:23.000Z</time>
      </trkpt>
      <trkpt lat="45.187" lon="5.90338">
        <ele>1186</ele>
        <time>2019-01-20T07:59:24.000Z</time>
      </trkpt>
      <trkpt lat="45.187" lon="5.90338">
        <ele>1186</ele>
        <time>2019-01-20T07:59:25.000Z</time>
      </trkpt>
      <trkpt lat="45.18701" lon="5.90341">
        <ele>1186</ele>
        <time>2019-01-20T07:59:26.000Z</time>
      </trkpt>
      <trkpt lat="45.18702" lon="5.90345">
        <ele>1187</ele>
        <time>2019-01-20T07:59:28.000Z</time>
      </trkpt>
      <trkpt lat="45.18702" lon="5.90345">
        <ele>1187</ele>
        <time>2019-01-20T07:59:29.000Z</time>
      </trkpt>
      <trkpt lat="45.18702" lon="5.90348">
        <ele>1187</ele>
        <time>2019-01-20T07:59:30.000Z</time>
      </trkpt>
      <trkpt lat="45.18703" lon="5.9035">
        <ele>1187</ele>
        <time>2019-01-20T07:59:31.000Z</time>
      </trkpt>
      <trkpt lat="45.18703" lon="5.9035">
        <ele>1187</ele>
        <time>2019-01-20T07:59:32.000Z</time>
      </trkpt>
      <trkpt lat="45.18702" lon="5.90354">
        <ele>1187</ele>
        <time>2019-01-20T07:59:33.000Z</time>
      </trkpt>
      <trkpt lat="45.18702" lon="5.90354">
        <ele>1187</ele>
        <time>2019-01-20T07:59:34.000Z</time>
      </trkpt>
      <trkpt lat="45.18701" lon="5.90356">
        <ele>1187</ele>
        <time>2019-01-20T07:59:35.000Z</time>
      </trkpt>
      <trkpt lat="45.18701" lon="5.90356">
        <ele>1187</ele>
        <time>2019-01-20T07:59:36.000Z</time>
      </trkpt>
      <trkpt lat="45.18699" lon="5.90358">
        <ele>1187</ele>
        <time>2019-01-20T07:59:37.000Z</time>
      </trkpt>
      <trkpt lat="45.18699" lon="5.90358">
        <ele>1187</ele>
        <time>2019-01-20T07:59:38.000Z</time>
      </trkpt>
      <trkpt lat="45.18698" lon="5.9036">
        <ele>1187</ele>
        <time>2019-01-20T07:59:39.000Z</time>
      </trkpt>
      <trkpt lat="45.18698" lon="5.9036">
        <ele>1188</ele>
        <time>2019-01-20T07:59:40.000Z</time>
      </trkpt>
      <trkpt lat="45.18697" lon="5.90363">
        <ele>1188</ele>
        <time>2019-01-20T07:59:41.000Z</time>
      </trkpt>
      <trkpt lat="45.18697" lon="5.90363">
        <ele>1188</ele>
        <time>2019-01-20T07:59:42.000Z</time>
      </trkpt>
      <trkpt lat="45.18695" lon="5.90366">
        <ele>1189</ele>
        <time>2019-01-20T07:59:43.000Z</time>
      </trkpt>
      <trkpt lat="45.18695" lon="5.90366">
        <ele>1189</ele>
        <time>2019-01-20T07:59:44.000Z</time>
      </trkpt>
      <trkpt lat="45.18693" lon="5.90369">
        <ele>1189</ele>
        <time>2019-01-20T07:59:45.000Z</time>
      </trkpt>
      <trkpt lat="45.18692" lon="5.90371">
        <ele>1189</ele>
        <time>2019-01-20T07:59:47.000Z</time>
      </trkpt>
      <trkpt lat="45.18692" lon="5.90371">
        <ele>1189</ele>
        <time>2019-01-20T07:59:48.000Z</time>
      </trkpt>
      <trkpt lat="45.18689" lon="5.90371">
        <ele>1189</ele>
        <time>2019-01-20T07:59:49.000Z</time>
      </trkpt>
      <trkpt lat="45.18689" lon="5.90371">
        <ele>1189</ele>
        <time>2019-01-20T07:59:50.000Z</time>
      </trkpt>
      <trkpt lat="45.18686" lon="5.90373">
        <ele>1190</ele>
        <time>2019-01-20T07:59:51.000Z</time>
      </trkpt>
      <trkpt lat="45.18685" lon="5.90374">
        <ele>1190</ele>
        <time>2019-01-20T07:59:52.000Z</time>
      </trkpt>
      <trkpt lat="45.18685" lon="5.90374">
        <ele>1190</ele>
        <time>2019-01-20T07:59:53.000Z</time>
      </trkpt>
      <trkpt lat="45.18682" lon="5.90375">
        <ele>1191</ele>
        <time>2019-01-20T07:59:54.000Z</time>
      </trkpt>
      <trkpt lat="45.18682" lon="5.90375">
        <ele>1191</ele>
        <time>2019-01-20T07:59:55.000Z</time>
      </trkpt>
      <trkpt lat="45.1868" lon="5.90376">
        <ele>1191</ele>
        <time>2019-01-20T07:59:56.000Z</time>
      </trkpt>
      <trkpt lat="45.1868" lon="5.90376">
        <ele>1191</ele>
        <time>2019-01-20T07:59:57.000Z</time>
      </trkpt>
      <trkpt lat="45.18677" lon="5.90376">
        <ele>1191</ele>
        <time>2019-01-20T07:59:58.000Z</time>
      </trkpt>
      <trkpt lat="45.18677" lon="5.90376">
        <ele>1191</ele>
        <time>2019-01-20T07:59:59.000Z</time>
      </trkpt>
      <trkpt lat="45.18675" lon="5.90378">
        <ele>1192</ele>
        <time>2019-01-20T08:00:00.000Z</time>
      </trkpt>
      <trkpt lat="45.18675" lon="5.90378">
        <ele>1192</ele>
        <time>2019-01-20T08:00:01.000Z</time>
      </trkpt>
      <trkpt lat="45.18672" lon="5.90379">
        <ele>1193</ele>
        <time>2019-01-20T08:00:02.000Z</time>
      </trkpt>
      <trkpt lat="45.18672" lon="5.90379">
        <ele>1193</ele>
        <time>2019-01-20T08:00:03.000Z</time>
      </trkpt>
      <trkpt lat="45.18671" lon="5.90382">
        <ele>1193</ele>
        <time>2019-01-20T08:00:04.000Z</time>
      </trkpt>
      <trkpt lat="45.18669" lon="5.90384">
        <ele>1193</ele>
        <time>2019-01-20T08:00:06.000Z</time>
      </trkpt>
      <trkpt lat="45.18669" lon="5.90384">
        <ele>1193</ele>
        <time>2019-01-20T08:00:07.000Z</time>
      </trkpt>
      <trkpt lat="45.18668" lon="5.90385">
        <ele>1193</ele>
        <time>2019-01-20T08:00:08.000Z</time>
      </trkpt>
      <trkpt lat="45.18668" lon="5.90385">
        <ele>1193</ele>
        <time>2019-01-20T08:00:09.000Z</time>
      </trkpt>
      <trkpt lat="45.18667" lon="5.90387">
        <ele>1193</ele>
        <time>2019-01-20T08:00:10.000Z</time>
      </trkpt>
      <trkpt lat="45.18667" lon="5.90387">
        <ele>1194</ele>
        <time>2019-01-20T08:00:11.000Z</time>
      </trkpt>
      <trkpt lat="45.18666" lon="5.9039">
        <ele>1194</ele>
        <time>2019-01-20T08:00:12.000Z</time>
      </trkpt>
      <trkpt lat="45.18666" lon="5.9039">
        <ele>1195</ele>
        <time>2019-01-20T08:00:13.000Z</time>
      </trkpt>
      <trkpt lat="45.18665" lon="5.90394">
        <ele>1195</ele>
        <time>2019-01-20T08:00:14.000Z</time>
      </trkpt>
      <trkpt lat="45.18665" lon="5.90394">
        <ele>1195</ele>
        <time>2019-01-20T08:00:15.000Z</time>
      </trkpt>
      <trkpt lat="45.18665" lon="5.90398">
        <ele>1195</ele>
        <time>2019-01-20T08:00:16.000Z</time>
      </trkpt>
      <trkpt lat="45.18665" lon="5.90398">
        <ele>1195</ele>
        <time>2019-01-20T08:00:17.000Z</time>
      </trkpt>
      <trkpt lat="45.18665" lon="5.90401">
        <ele>1195</ele>
        <time>2019-01-20T08:00:18.000Z</time>
      </trkpt>
      <trkpt lat="45.18665" lon="5.90401">
        <ele>1196</ele>
        <time>2019-01-20T08:00:19.000Z</time>
      </trkpt>
      <trkpt lat="45.18665" lon="5.90405">
        <ele>1196</ele>
        <time>2019-01-20T08:00:20.000Z</time>
      </trkpt>
      <trkpt lat="45.18665" lon="5.90405">
        <ele>1196</ele>
        <time>2019-01-20T08:00:21.000Z</time>
      </trkpt>
      <trkpt lat="45.18665" lon="5.90409">
        <ele>1196</ele>
        <time>2019-01-20T08:00:22.000Z</time>
      </trkpt>
      <trkpt lat="45.18665" lon="5.90409">
        <ele>1196</ele>
        <time>2019-01-20T08:00:23.000Z</time>
      </trkpt>
      <trkpt lat="45.18665" lon="5.90412">
        <ele>1196</ele>
        <time>2019-01-20T08:00:24.000Z</time>
      </trkpt>
      <trkpt lat="45.18665" lon="5.90412">
        <ele>1197</ele>
        <time>2019-01-20T08:00:25.000Z</time>
      </trkpt>
      <trkpt lat="45.18664" lon="5.90415">
        <ele>1197</ele>
        <time>2019-01-20T08:00:26.000Z</time>
      </trkpt>
      <trkpt lat="45.18664" lon="5.90415">
        <ele>1197</ele>
        <time>2019-01-20T08:00:27.000Z</time>
      </trkpt>
      <trkpt lat="45.18663" lon="5.90418">
        <ele>1197</ele>
        <time>2019-01-20T08:00:28.000Z</time>
      </trkpt>
      <trkpt lat="45.18663" lon="5.90418">
        <ele>1197</ele>
        <time>2019-01-20T08:00:29.000Z</time>
      </trkpt>
      <trkpt lat="45.18662" lon="5.9042">
        <ele>1197</ele>
        <time>2019-01-20T08:00:30.000Z</time>
      </trkpt>
      <trkpt lat="45.18662" lon="5.9042">
        <ele>1197</ele>
        <time>2019-01-20T08:00:31.000Z</time>
      </trkpt>
      <trkpt lat="45.1866" lon="5.90423">
        <ele>1197</ele>
        <time>2019-01-20T08:00:32.000Z</time>
      </trkpt>
      <trkpt lat="45.1866" lon="5.90423">
        <ele>1197</ele>
        <time>2019-01-20T08:00:33.000Z</time>
      </trkpt>
      <trkpt lat="45.18658" lon="5.90425">
        <ele>1197</ele>
        <time>2019-01-20T08:00:34.000Z</time>
      </trkpt>
      <trkpt lat="45.18658" lon="5.90425">
        <ele>1198</ele>
        <time>2019-01-20T08:00:35.000Z</time>
      </trkpt>
      <trkpt lat="45.18656" lon="5.90428">
        <ele>1198</ele>
        <time>2019-01-20T08:00:36.000Z</time>
      </trkpt>
      <trkpt lat="45.18656" lon="5.90428">
        <ele>1198</ele>
        <time>2019-01-20T08:00:37.000Z</time>
      </trkpt>
      <trkpt lat="45.18654" lon="5.9043">
        <ele>1199</ele>
        <time>2019-01-20T08:00:38.000Z</time>
      </trkpt>
      <trkpt lat="45.18654" lon="5.9043">
        <ele>1199</ele>
        <time>2019-01-20T08:00:39.000Z</time>
      </trkpt>
      <trkpt lat="45.18652" lon="5.90432">
        <ele>1199</ele>
        <time>2019-01-20T08:00:40.000Z</time>
      </trkpt>
      <trkpt lat="45.18652" lon="5.90432">
        <ele>1199</ele>
        <time>2019-01-20T08:00:41.000Z</time>
      </trkpt>
      <trkpt lat="45.18649" lon="5.90434">
        <ele>1199</ele>
        <time>2019-01-20T08:00:42.000Z</time>
      </trkpt>
      <trkpt lat="45.18646" lon="5.90436">
        <ele>1199</ele>
        <time>2019-01-20T08:00:44.000Z</time>
      </trkpt>
      <trkpt lat="45.18646" lon="5.90436">
        <ele>1199</ele>
        <time>2019-01-20T08:00:45.000Z</time>
      </trkpt>
      <trkpt lat="45.18644" lon="5.90437">
        <ele>1199</ele>
        <time>2019-01-20T08:00:46.000Z</time>
      </trkpt>
      <trkpt lat="45.18644" lon="5.90437">
        <ele>1200</ele>
        <time>2019-01-20T08:00:47.000Z</time>
      </trkpt>
      <trkpt lat="45.18641" lon="5.90439">
        <ele>1200</ele>
        <time>2019-01-20T08:00:48.000Z</time>
      </trkpt>
      <trkpt lat="45.18641" lon="5.90439">
        <ele>1201</ele>
        <time>2019-01-20T08:00:49.000Z</time>
      </trkpt>
      <trkpt lat="45.18639" lon="5.9044">
        <ele>1201</ele>
        <time>2019-01-20T08:00:50.000Z</time>
      </trkpt>
      <trkpt lat="45.18639" lon="5.9044">
        <ele>1201</ele>
        <time>2019-01-20T08:00:51.000Z</time>
      </trkpt>
      <trkpt lat="45.18637" lon="5.90441">
        <ele>1201</ele>
        <time>2019-01-20T08:00:52.000Z</time>
      </trkpt>
      <trkpt lat="45.18637" lon="5.90441">
        <ele>1201</ele>
        <time>2019-01-20T08:00:53.000Z</time>
      </trkpt>
      <trkpt lat="45.18634" lon="5.90442">
        <ele>1201</ele>
        <time>2019-01-20T08:00:54.000Z</time>
      </trkpt>
      <trkpt lat="45.18634" lon="5.90442">
        <ele>1201</ele>
        <time>2019-01-20T08:00:55.000Z</time>
      </trkpt>
      <trkpt lat="45.18632" lon="5.90444">
        <ele>1201</ele>
        <time>2019-01-20T08:00:56.000Z</time>
      </trkpt>
      <trkpt lat="45.18632" lon="5.90444">
        <ele>1202</ele>
        <time>2019-01-20T08:00:57.000Z</time>
      </trkpt>
      <trkpt lat="45.18629" lon="5.90445">
        <ele>1202</ele>
        <time>2019-01-20T08:00:58.000Z</time>
      </trkpt>
      <trkpt lat="45.18629" lon="5.90445">
        <ele>1202</ele>
        <time>2019-01-20T08:00:59.000Z</time>
      </trkpt>
      <trkpt lat="45.18627" lon="5.90446">
        <ele>1202</ele>
        <time>2019-01-20T08:01:00.000Z</time>
      </trkpt>
      <trkpt lat="45.18627" lon="5.90446">
        <ele>1203</ele>
        <time>2019-01-20T08:01:01.000Z</time>
      </trkpt>
      <trkpt lat="45.18625" lon="5.90448">
        <ele>1203</ele>
        <time>2019-01-20T08:01:02.000Z</time>
      </trkpt>
      <trkpt lat="45.18625" lon="5.90448">
        <ele>1203</ele>
        <time>2019-01-20T08:01:03.000Z</time>
      </trkpt>
      <trkpt lat="45.18623" lon="5.90448">
        <ele>1203</ele>
        <time>2019-01-20T08:01:04.000Z</time>
      </trkpt>
      <trkpt lat="45.18623" lon="5.90448">
        <ele>1203</ele>
        <time>2019-01-20T08:01:05.000Z</time>
      </trkpt>
      <trkpt lat="45.1862" lon="5.90449">
        <ele>1203</ele>
        <time>2019-01-20T08:01:06.000Z</time>
      </trkpt>
      <trkpt lat="45.1862" lon="5.90449">
        <ele>1203</ele>
        <time>2019-01-20T08:01:07.000Z</time>
      </trkpt>
      <trkpt lat="45.18618" lon="5.90449">
        <ele>1203</ele>
        <time>2019-01-20T08:01:08.000Z</time>
      </trkpt>
      <trkpt lat="45.18618" lon="5.90449">
        <ele>1203</ele>
        <time>2019-01-20T08:01:09.000Z</time>
      </trkpt>
      <trkpt lat="45.18617" lon="5.90451">
        <ele>1203</ele>
        <time>2019-01-20T08:01:10.000Z</time>
      </trkpt>
      <trkpt lat="45.18617" lon="5.90451">
        <ele>1203</ele>
        <time>2019-01-20T08:01:11.000Z</time>
      </trkpt>
      <trkpt lat="45.18617" lon="5.90451">
        <ele>1203</ele>
        <time>2019-01-20T08:01:12.000Z</time>
      </trkpt>
      <trkpt lat="45.18614" lon="5.90451">
        <ele>1204</ele>
        <time>2019-01-20T08:01:13.000Z</time>
      </trkpt>
      <trkpt lat="45.18614" lon="5.90451">
        <ele>1204</ele>
        <time>2019-01-20T08:01:14.000Z</time>
      </trkpt>
      <trkpt lat="45.18614" lon="5.90451">
        <ele>1204</ele>
        <time>2019-01-20T08:01:15.000Z</time>
      </trkpt>
      <trkpt lat="45.18611" lon="5.90453">
        <ele>1205</ele>
        <time>2019-01-20T08:01:16.000Z</time>
      </trkpt>
      <trkpt lat="45.18611" lon="5.90453">
        <ele>1205</ele>
        <time>2019-01-20T08:01:17.000Z</time>
      </trkpt>
      <trkpt lat="45.1861" lon="5.90454">
        <ele>1205</ele>
        <time>2019-01-20T08:01:18.000Z</time>
      </trkpt>
      <trkpt lat="45.1861" lon="5.90454">
        <ele>1205</ele>
        <time>2019-01-20T08:01:19.000Z</time>
      </trkpt>
      <trkpt lat="45.1861" lon="5.90454">
        <ele>1205</ele>
        <time>2019-01-20T08:01:20.000Z</time>
      </trkpt>
      <trkpt lat="45.18608" lon="5.90457">
        <ele>1205</ele>
        <time>2019-01-20T08:01:21.000Z</time>
      </trkpt>
      <trkpt lat="45.18608" lon="5.90457">
        <ele>1205</ele>
        <time>2019-01-20T08:01:22.000Z</time>
      </trkpt>
      <trkpt lat="45.18607" lon="5.9046">
        <ele>1205</ele>
        <time>2019-01-20T08:01:23.000Z</time>
      </trkpt>
      <trkpt lat="45.18607" lon="5.9046">
        <ele>1206</ele>
        <time>2019-01-20T08:01:24.000Z</time>
      </trkpt>
      <trkpt lat="45.18606" lon="5.90463">
        <ele>1206</ele>
        <time>2019-01-20T08:01:25.000Z</time>
      </trkpt>
      <trkpt lat="45.18606" lon="5.90463">
        <ele>1206</ele>
        <time>2019-01-20T08:01:26.000Z</time>
      </trkpt>
      <trkpt lat="45.18604" lon="5.90466">
        <ele>1207</ele>
        <time>2019-01-20T08:01:27.000Z</time>
      </trkpt>
      <trkpt lat="45.18604" lon="5.90466">
        <ele>1207</ele>
        <time>2019-01-20T08:01:28.000Z</time>
      </trkpt>
      <trkpt lat="45.18603" lon="5.90469">
        <ele>1207</ele>
        <time>2019-01-20T08:01:29.000Z</time>
      </trkpt>
      <trkpt lat="45.18603" lon="5.90469">
        <ele>1207</ele>
        <time>2019-01-20T08:01:30.000Z</time>
      </trkpt>
      <trkpt lat="45.18603" lon="5.90472">
        <ele>1207</ele>
        <time>2019-01-20T08:01:31.000Z</time>
      </trkpt>
      <trkpt lat="45.18603" lon="5.90472">
        <ele>1207</ele>
        <time>2019-01-20T08:01:32.000Z</time>
      </trkpt>
      <trkpt lat="45.18602" lon="5.90476">
        <ele>1207</ele>
        <time>2019-01-20T08:01:33.000Z</time>
      </trkpt>
      <trkpt lat="45.18602" lon="5.90476">
        <ele>1207</ele>
        <time>2019-01-20T08:01:34.000Z</time>
      </trkpt>
      <trkpt lat="45.18602" lon="5.90479">
        <ele>1208</ele>
        <time>2019-01-20T08:01:35.000Z</time>
      </trkpt>
      <trkpt lat="45.18602" lon="5.90479">
        <ele>1208</ele>
        <time>2019-01-20T08:01:36.000Z</time>
      </trkpt>
      <trkpt lat="45.18603" lon="5.90482">
        <ele>1208</ele>
        <time>2019-01-20T08:01:37.000Z</time>
      </trkpt>
      <trkpt lat="45.18603" lon="5.90482">
        <ele>1208</ele>
        <time>2019-01-20T08:01:38.000Z</time>
      </trkpt>
      <trkpt lat="45.18603" lon="5.90486">
        <ele>1208</ele>
        <time>2019-01-20T08:01:39.000Z</time>
      </trkpt>
      <trkpt lat="45.18601" lon="5.90489">
        <ele>1209</ele>
        <time>2019-01-20T08:01:41.000Z</time>
      </trkpt>
      <trkpt lat="45.18601" lon="5.90489">
        <ele>1209</ele>
        <time>2019-01-20T08:01:42.000Z</time>
      </trkpt>
      <trkpt lat="45.18601" lon="5.90493">
        <ele>1209</ele>
        <time>2019-01-20T08:01:43.000Z</time>
      </trkpt>
      <trkpt lat="45.18601" lon="5.90493">
        <ele>1209</ele>
        <time>2019-01-20T08:01:44.000Z</time>
      </trkpt>
      <trkpt lat="45.186" lon="5.90496">
        <ele>1209</ele>
        <time>2019-01-20T08:01:45.000Z</time>
      </trkpt>
      <trkpt lat="45.186" lon="5.90496">
        <ele>1209</ele>
        <time>2019-01-20T08:01:46.000Z</time>
      </trkpt>
      <trkpt lat="45.18599" lon="5.90499">
        <ele>1209</ele>
        <time>2019-01-20T08:01:47.000Z</time>
      </trkpt>
      <trkpt lat="45.18599" lon="5.90499">
        <ele>1210</ele>
        <time>2019-01-20T08:01:48.000Z</time>
      </trkpt>
      <trkpt lat="45.18599" lon="5.90502">
        <ele>1210</ele>
        <time>2019-01-20T08:01:49.000Z</time>
      </trkpt>
      <trkpt lat="45.18599" lon="5.90502">
        <ele>1210</ele>
        <time>2019-01-20T08:01:50.000Z</time>
      </trkpt>
      <trkpt lat="45.18598" lon="5.90505">
        <ele>1210</ele>
        <time>2019-01-20T08:01:51.000Z</time>
      </trkpt>
      <trkpt lat="45.18598" lon="5.90505">
        <ele>1211</ele>
        <time>2019-01-20T08:01:52.000Z</time>
      </trkpt>
      <trkpt lat="45.18597" lon="5.90508">
        <ele>1211</ele>
        <time>2019-01-20T08:01:53.000Z</time>
      </trkpt>
      <trkpt lat="45.18597" lon="5.90508">
        <ele>1211</ele>
        <time>2019-01-20T08:01:54.000Z</time>
      </trkpt>
      <trkpt lat="45.18596" lon="5.90512">
        <ele>1211</ele>
        <time>2019-01-20T08:01:55.000Z</time>
      </trkpt>
      <trkpt lat="45.18596" lon="5.90512">
        <ele>1211</ele>
        <time>2019-01-20T08:01:56.000Z</time>
      </trkpt>
      <trkpt lat="45.18595" lon="5.90515">
        <ele>1211</ele>
        <time>2019-01-20T08:01:57.000Z</time>
      </trkpt>
      <trkpt lat="45.18595" lon="5.90515">
        <ele>1212</ele>
        <time>2019-01-20T08:01:58.000Z</time>
      </trkpt>
      <trkpt lat="45.18593" lon="5.90518">
        <ele>1212</ele>
        <time>2019-01-20T08:01:59.000Z</time>
      </trkpt>
      <trkpt lat="45.18593" lon="5.90518">
        <ele>1212</ele>
        <time>2019-01-20T08:02:00.000Z</time>
      </trkpt>
      <trkpt lat="45.18592" lon="5.9052">
        <ele>1212</ele>
        <time>2019-01-20T08:02:01.000Z</time>
      </trkpt>
      <trkpt lat="45.18592" lon="5.9052">
        <ele>1212</ele>
        <time>2019-01-20T08:02:02.000Z</time>
      </trkpt>
      <trkpt lat="45.1859" lon="5.90522">
        <ele>1213</ele>
        <time>2019-01-20T08:02:03.000Z</time>
      </trkpt>
      <trkpt lat="45.1859" lon="5.90522">
        <ele>1213</ele>
        <time>2019-01-20T08:02:04.000Z</time>
      </trkpt>
      <trkpt lat="45.18588" lon="5.90523">
        <ele>1213</ele>
        <time>2019-01-20T08:02:05.000Z</time>
      </trkpt>
      <trkpt lat="45.18588" lon="5.90523">
        <ele>1213</ele>
        <time>2019-01-20T08:02:06.000Z</time>
      </trkpt>
      <trkpt lat="45.18586" lon="5.90526">
        <ele>1213</ele>
        <time>2019-01-20T08:02:07.000Z</time>
      </trkpt>
      <trkpt lat="45.18586" lon="5.90526">
        <ele>1213</ele>
        <time>2019-01-20T08:02:08.000Z</time>
      </trkpt>
      <trkpt lat="45.18584" lon="5.90528">
        <ele>1213</ele>
        <time>2019-01-20T08:02:09.000Z</time>
      </trkpt>
      <trkpt lat="45.18584" lon="5.90528">
        <ele>1214</ele>
        <time>2019-01-20T08:02:10.000Z</time>
      </trkpt>
      <trkpt lat="45.18582" lon="5.90529">
        <ele>1214</ele>
        <time>2019-01-20T08:02:11.000Z</time>
      </trkpt>
      <trkpt lat="45.18582" lon="5.90529">
        <ele>1215</ele>
        <time>2019-01-20T08:02:12.000Z</time>
      </trkpt>
      <trkpt lat="45.1858" lon="5.90531">
        <ele>1215</ele>
        <time>2019-01-20T08:02:13.000Z</time>
      </trkpt>
      <trkpt lat="45.1858" lon="5.90531">
        <ele>1215</ele>
        <time>2019-01-20T08:02:14.000Z</time>
      </trkpt>
      <trkpt lat="45.18578" lon="5.90533">
        <ele>1215</ele>
        <time>2019-01-20T08:02:15.000Z</time>
      </trkpt>
      <trkpt lat="45.18578" lon="5.90533">
        <ele>1215</ele>
        <time>2019-01-20T08:02:16.000Z</time>
      </trkpt>
      <trkpt lat="45.18576" lon="5.90535">
        <ele>1215</ele>
        <time>2019-01-20T08:02:17.000Z</time>
      </trkpt>
      <trkpt lat="45.18572" lon="5.90537">
        <ele>1215</ele>
        <time>2019-01-20T08:02:19.000Z</time>
      </trkpt>
      <trkpt lat="45.18572" lon="5.90538">
        <ele>1215</ele>
        <time>2019-01-20T08:02:20.000Z</time>
      </trkpt>
      <trkpt lat="45.18571" lon="5.90539">
        <ele>1215</ele>
        <time>2019-01-20T08:02:21.000Z</time>
      </trkpt>
      <trkpt lat="45.18571" lon="5.90539">
        <ele>1215</ele>
        <time>2019-01-20T08:02:22.000Z</time>
      </trkpt>
      <trkpt lat="45.18569" lon="5.90541">
        <ele>1216</ele>
        <time>2019-01-20T08:02:23.000Z</time>
      </trkpt>
      <trkpt lat="45.18568" lon="5.90542">
        <ele>1216</ele>
        <time>2019-01-20T08:02:24.000Z</time>
      </trkpt>
      <trkpt lat="45.18568" lon="5.90542">
        <ele>1216</ele>
        <time>2019-01-20T08:02:25.000Z</time>
      </trkpt>
      <trkpt lat="45.18566" lon="5.90545">
        <ele>1217</ele>
        <time>2019-01-20T08:02:26.000Z</time>
      </trkpt>
      <trkpt lat="45.18566" lon="5.90545">
        <ele>1217</ele>
        <time>2019-01-20T08:02:27.000Z</time>
      </trkpt>
      <trkpt lat="45.18563" lon="5.90546">
        <ele>1217</ele>
        <time>2019-01-20T08:02:28.000Z</time>
      </trkpt>
      <trkpt lat="45.18563" lon="5.90546">
        <ele>1217</ele>
        <time>2019-01-20T08:02:29.000Z</time>
      </trkpt>
      <trkpt lat="45.18561" lon="5.90548">
        <ele>1217</ele>
        <time>2019-01-20T08:02:30.000Z</time>
      </trkpt>
      <trkpt lat="45.18561" lon="5.90548">
        <ele>1217</ele>
        <time>2019-01-20T08:02:31.000Z</time>
      </trkpt>
      <trkpt lat="45.18557" lon="5.9055">
        <ele>1217</ele>
        <time>2019-01-20T08:02:32.000Z</time>
      </trkpt>
      <trkpt lat="45.18557" lon="5.9055">
        <ele>1218</ele>
        <time>2019-01-20T08:02:33.000Z</time>
      </trkpt>
      <trkpt lat="45.18555" lon="5.90551">
        <ele>1218</ele>
        <time>2019-01-20T08:02:34.000Z</time>
      </trkpt>
      <trkpt lat="45.18553" lon="5.90552">
        <ele>1218</ele>
        <time>2019-01-20T08:02:35.000Z</time>
      </trkpt>
      <trkpt lat="45.18553" lon="5.90552">
        <ele>1218</ele>
        <time>2019-01-20T08:02:36.000Z</time>
      </trkpt>
      <trkpt lat="45.1855" lon="5.90554">
        <ele>1218</ele>
        <time>2019-01-20T08:02:37.000Z</time>
      </trkpt>
      <trkpt lat="45.1855" lon="5.90554">
        <ele>1218</ele>
        <time>2019-01-20T08:02:38.000Z</time>
      </trkpt>
      <trkpt lat="45.18547" lon="5.90556">
        <ele>1219</ele>
        <time>2019-01-20T08:02:39.000Z</time>
      </trkpt>
      <trkpt lat="45.18547" lon="5.90556">
        <ele>1219</ele>
        <time>2019-01-20T08:02:40.000Z</time>
      </trkpt>
      <trkpt lat="45.18544" lon="5.90557">
        <ele>1219</ele>
        <time>2019-01-20T08:02:41.000Z</time>
      </trkpt>
      <trkpt lat="45.18544" lon="5.90557">
        <ele>1219</ele>
        <time>2019-01-20T08:02:42.000Z</time>
      </trkpt>
      <trkpt lat="45.18542" lon="5.90559">
        <ele>1219</ele>
        <time>2019-01-20T08:02:43.000Z</time>
      </trkpt>
      <trkpt lat="45.18542" lon="5.90559">
        <ele>1219</ele>
        <time>2019-01-20T08:02:44.000Z</time>
      </trkpt>
      <trkpt lat="45.18539" lon="5.90561">
        <ele>1219</ele>
        <time>2019-01-20T08:02:45.000Z</time>
      </trkpt>
      <trkpt lat="45.18539" lon="5.90561">
        <ele>1219</ele>
        <time>2019-01-20T08:02:46.000Z</time>
      </trkpt>
      <trkpt lat="45.18537" lon="5.90562">
        <ele>1219</ele>
        <time>2019-01-20T08:02:47.000Z</time>
      </trkpt>
      <trkpt lat="45.18537" lon="5.90562">
        <ele>1219</ele>
        <time>2019-01-20T08:02:48.000Z</time>
      </trkpt>
      <trkpt lat="45.18534" lon="5.90563">
        <ele>1219</ele>
        <time>2019-01-20T08:02:49.000Z</time>
      </trkpt>
      <trkpt lat="45.18534" lon="5.90563">
        <ele>1219</ele>
        <time>2019-01-20T08:02:50.000Z</time>
      </trkpt>
      <trkpt lat="45.18531" lon="5.90565">
        <ele>1219</ele>
        <time>2019-01-20T08:02:51.000Z</time>
      </trkpt>
      <trkpt lat="45.18531" lon="5.90565">
        <ele>1220</ele>
        <time>2019-01-20T08:02:52.000Z</time>
      </trkpt>
      <trkpt lat="45.18528" lon="5.90566">
        <ele>1220</ele>
        <time>2019-01-20T08:02:53.000Z</time>
      </trkpt>
      <trkpt lat="45.18528" lon="5.90566">
        <ele>1220</ele>
        <time>2019-01-20T08:02:54.000Z</time>
      </trkpt>
      <trkpt lat="45.18526" lon="5.90567">
        <ele>1220</ele>
        <time>2019-01-20T08:02:55.000Z</time>
      </trkpt>
      <trkpt lat="45.18523" lon="5.90568">
        <ele>1220</ele>
        <time>2019-01-20T08:02:57.000Z</time>
      </trkpt>
      <trkpt lat="45.18523" lon="5.90568">
        <ele>1221</ele>
        <time>2019-01-20T08:02:58.000Z</time>
      </trkpt>
      <trkpt lat="45.18521" lon="5.9057">
        <ele>1221</ele>
        <time>2019-01-20T08:02:59.000Z</time>
      </trkpt>
      <trkpt lat="45.18521" lon="5.9057">
        <ele>1221</ele>
        <time>2019-01-20T08:03:00.000Z</time>
      </trkpt>
      <trkpt lat="45.18519" lon="5.90572">
        <ele>1221</ele>
        <time>2019-01-20T08:03:01.000Z</time>
      </trkpt>
      <trkpt lat="45.18519" lon="5.90572">
        <ele>1221</ele>
        <time>2019-01-20T08:03:02.000Z</time>
      </trkpt>
      <trkpt lat="45.18516" lon="5.90573">
        <ele>1221</ele>
        <time>2019-01-20T08:03:03.000Z</time>
      </trkpt>
      <trkpt lat="45.18516" lon="5.90573">
        <ele>1221</ele>
        <time>2019-01-20T08:03:04.000Z</time>
      </trkpt>
      <trkpt lat="45.18513" lon="5.90573">
        <ele>1222</ele>
        <time>2019-01-20T08:03:05.000Z</time>
      </trkpt>
      <trkpt lat="45.18513" lon="5.90573">
        <ele>1222</ele>
        <time>2019-01-20T08:03:06.000Z</time>
      </trkpt>
      <trkpt lat="45.18511" lon="5.90574">
        <ele>1222</ele>
        <time>2019-01-20T08:03:07.000Z</time>
      </trkpt>
      <trkpt lat="45.18511" lon="5.90574">
        <ele>1222</ele>
        <time>2019-01-20T08:03:08.000Z</time>
      </trkpt>
      <trkpt lat="45.18509" lon="5.90575">
        <ele>1222</ele>
        <time>2019-01-20T08:03:09.000Z</time>
      </trkpt>
      <trkpt lat="45.18509" lon="5.90575">
        <ele>1222</ele>
        <time>2019-01-20T08:03:10.000Z</time>
      </trkpt>
      <trkpt lat="45.18506" lon="5.90576">
        <ele>1222</ele>
        <time>2019-01-20T08:03:11.000Z</time>
      </trkpt>
      <trkpt lat="45.18506" lon="5.90576">
        <ele>1223</ele>
        <time>2019-01-20T08:03:12.000Z</time>
      </trkpt>
      <trkpt lat="45.18504" lon="5.90577">
        <ele>1223</ele>
        <time>2019-01-20T08:03:13.000Z</time>
      </trkpt>
      <trkpt lat="45.18504" lon="5.90577">
        <ele>1223</ele>
        <time>2019-01-20T08:03:14.000Z</time>
      </trkpt>
      <trkpt lat="45.18501" lon="5.90577">
        <ele>1223</ele>
        <time>2019-01-20T08:03:15.000Z</time>
      </trkpt>
      <trkpt lat="45.18501" lon="5.90577">
        <ele>1224</ele>
        <time>2019-01-20T08:03:16.000Z</time>
      </trkpt>
      <trkpt lat="45.18499" lon="5.90578">
        <ele>1224</ele>
        <time>2019-01-20T08:03:17.000Z</time>
      </trkpt>
      <trkpt lat="45.18499" lon="5.90578">
        <ele>1224</ele>
        <time>2019-01-20T08:03:18.000Z</time>
      </trkpt>
      <trkpt lat="45.18496" lon="5.90579">
        <ele>1224</ele>
        <time>2019-01-20T08:03:19.000Z</time>
      </trkpt>
      <trkpt lat="45.18496" lon="5.90579">
        <ele>1224</ele>
        <time>2019-01-20T08:03:20.000Z</time>
      </trkpt>
      <trkpt lat="45.18494" lon="5.9058">
        <ele>1224</ele>
        <time>2019-01-20T08:03:21.000Z</time>
      </trkpt>
      <trkpt lat="45.18494" lon="5.9058">
        <ele>1224</ele>
        <time>2019-01-20T08:03:22.000Z</time>
      </trkpt>
      <trkpt lat="45.18491" lon="5.9058">
        <ele>1225</ele>
        <time>2019-01-20T08:03:23.000Z</time>
      </trkpt>
      <trkpt lat="45.18491" lon="5.9058">
        <ele>1225</ele>
        <time>2019-01-20T08:03:24.000Z</time>
      </trkpt>
      <trkpt lat="45.18489" lon="5.90581">
        <ele>1225</ele>
        <time>2019-01-20T08:03:25.000Z</time>
      </trkpt>
      <trkpt lat="45.18489" lon="5.90581">
        <ele>1225</ele>
        <time>2019-01-20T08:03:26.000Z</time>
      </trkpt>
      <trkpt lat="45.18486" lon="5.90582">
        <ele>1225</ele>
        <time>2019-01-20T08:03:27.000Z</time>
      </trkpt>
      <trkpt lat="45.18486" lon="5.90582">
        <ele>1225</ele>
        <time>2019-01-20T08:03:28.000Z</time>
      </trkpt>
      <trkpt lat="45.18483" lon="5.90583">
        <ele>1225</ele>
        <time>2019-01-20T08:03:29.000Z</time>
      </trkpt>
      <trkpt lat="45.18483" lon="5.90583">
        <ele>1225</ele>
        <time>2019-01-20T08:03:30.000Z</time>
      </trkpt>
      <trkpt lat="45.1848" lon="5.90584">
        <ele>1225</ele>
        <time>2019-01-20T08:03:31.000Z</time>
      </trkpt>
      <trkpt lat="45.1848" lon="5.90584">
        <ele>1225.6</ele>
        <time>2019-01-20T08:03:32.000Z</time>
      </trkpt>
      <trkpt lat="45.18478" lon="5.90584">
        <ele>1226</ele>
        <time>2019-01-20T08:03:33.000Z</time>
      </trkpt>
      <trkpt lat="45.18474" lon="5.90585">
        <ele>1226</ele>
        <time>2019-01-20T08:03:35.000Z</time>
      </trkpt>
      <trkpt lat="45.18474" lon="5.90585">
        <ele>1227</ele>
        <time>2019-01-20T08:03:36.000Z</time>
      </trkpt>
      <trkpt lat="45.18472" lon="5.90585">
        <ele>1227</ele>
        <time>2019-01-20T08:03:37.000Z</time>
      </trkpt>
      <trkpt lat="45.18472" lon="5.90585">
        <ele>1227</ele>
        <time>2019-01-20T08:03:38.000Z</time>
      </trkpt>
      <trkpt lat="45.1847" lon="5.90586">
        <ele>1227</ele>
        <time>2019-01-20T08:03:39.000Z</time>
      </trkpt>
      <trkpt lat="45.1847" lon="5.90586">
        <ele>1227</ele>
        <time>2019-01-20T08:03:40.000Z</time>
      </trkpt>
      <trkpt lat="45.18468" lon="5.90588">
        <ele>1227</ele>
        <time>2019-01-20T08:03:41.000Z</time>
      </trkpt>
      <trkpt lat="45.18468" lon="5.90588">
        <ele>1227</ele>
        <time>2019-01-20T08:03:42.000Z</time>
      </trkpt>
      <trkpt lat="45.18465" lon="5.90589">
        <ele>1227</ele>
        <time>2019-01-20T08:03:43.000Z</time>
      </trkpt>
      <trkpt lat="45.18465" lon="5.90589">
        <ele>1227</ele>
        <time>2019-01-20T08:03:44.000Z</time>
      </trkpt>
      <trkpt lat="45.18463" lon="5.90591">
        <ele>1228</ele>
        <time>2019-01-20T08:03:45.000Z</time>
      </trkpt>
      <trkpt lat="45.18463" lon="5.90591">
        <ele>1228</ele>
        <time>2019-01-20T08:03:46.000Z</time>
      </trkpt>
      <trkpt lat="45.18461" lon="5.90591">
        <ele>1228</ele>
        <time>2019-01-20T08:03:47.000Z</time>
      </trkpt>
      <trkpt lat="45.18461" lon="5.90591">
        <ele>1228</ele>
        <time>2019-01-20T08:03:48.000Z</time>
      </trkpt>
      <trkpt lat="45.18461" lon="5.90591">
        <ele>1229</ele>
        <time>2019-01-20T08:03:49.000Z</time>
      </trkpt>
      <trkpt lat="45.18459" lon="5.90593">
        <ele>1229</ele>
        <time>2019-01-20T08:03:50.000Z</time>
      </trkpt>
      <trkpt lat="45.18459" lon="5.90593">
        <ele>1229</ele>
        <time>2019-01-20T08:03:51.000Z</time>
      </trkpt>
      <trkpt lat="45.18456" lon="5.90594">
        <ele>1229</ele>
        <time>2019-01-20T08:03:52.000Z</time>
      </trkpt>
      <trkpt lat="45.18453" lon="5.90595">
        <ele>1229</ele>
        <time>2019-01-20T08:03:54.000Z</time>
      </trkpt>
      <trkpt lat="45.18453" lon="5.90595">
        <ele>1229</ele>
        <time>2019-01-20T08:03:55.000Z</time>
      </trkpt>
      <trkpt lat="45.18453" lon="5.90595">
        <ele>1229</ele>
        <time>2019-01-20T08:03:56.000Z</time>
      </trkpt>
      <trkpt lat="45.18451" lon="5.90596">
        <ele>1229</ele>
        <time>2019-01-20T08:03:57.000Z</time>
      </trkpt>
      <trkpt lat="45.18451" lon="5.90596">
        <ele>1230</ele>
        <time>2019-01-20T08:03:58.000Z</time>
      </trkpt>
      <trkpt lat="45.18448" lon="5.90597">
        <ele>1230</ele>
        <time>2019-01-20T08:03:59.000Z</time>
      </trkpt>
      <trkpt lat="45.18448" lon="5.90597">
        <ele>1230</ele>
        <time>2019-01-20T08:04:00.000Z</time>
      </trkpt>
      <trkpt lat="45.18446" lon="5.90597">
        <ele>1231</ele>
        <time>2019-01-20T08:04:01.000Z</time>
      </trkpt>
      <trkpt lat="45.18446" lon="5.90597">
        <ele>1231</ele>
        <time>2019-01-20T08:04:02.000Z</time>
      </trkpt>
      <trkpt lat="45.18443" lon="5.90597">
        <ele>1231</ele>
        <time>2019-01-20T08:04:03.000Z</time>
      </trkpt>
      <trkpt lat="45.18443" lon="5.90597">
        <ele>1231</ele>
        <time>2019-01-20T08:04:04.000Z</time>
      </trkpt>
      <trkpt lat="45.1844" lon="5.90598">
        <ele>1231</ele>
        <time>2019-01-20T08:04:05.000Z</time>
      </trkpt>
      <trkpt lat="45.1844" lon="5.90598">
        <ele>1231</ele>
        <time>2019-01-20T08:04:06.000Z</time>
      </trkpt>
      <trkpt lat="45.18437" lon="5.90597">
        <ele>1231</ele>
        <time>2019-01-20T08:04:07.000Z</time>
      </trkpt>
      <trkpt lat="45.18437" lon="5.90597">
        <ele>1231</ele>
        <time>2019-01-20T08:04:08.000Z</time>
      </trkpt>
      <trkpt lat="45.18435" lon="5.90597">
        <ele>1231</ele>
        <time>2019-01-20T08:04:09.000Z</time>
      </trkpt>
      <trkpt lat="45.18435" lon="5.90597">
        <ele>1232</ele>
        <time>2019-01-20T08:04:10.000Z</time>
      </trkpt>
      <trkpt lat="45.18432" lon="5.90597">
        <ele>1232</ele>
        <time>2019-01-20T08:04:11.000Z</time>
      </trkpt>
      <trkpt lat="45.18432" lon="5.90597">
        <ele>1233</ele>
        <time>2019-01-20T08:04:12.000Z</time>
      </trkpt>
      <trkpt lat="45.18428" lon="5.90596">
        <ele>1233</ele>
        <time>2019-01-20T08:04:13.000Z</time>
      </trkpt>
      <trkpt lat="45.18428" lon="5.90596">
        <ele>1233</ele>
        <time>2019-01-20T08:04:14.000Z</time>
      </trkpt>
      <trkpt lat="45.18425" lon="5.90595">
        <ele>1233</ele>
        <time>2019-01-20T08:04:15.000Z</time>
      </trkpt>
      <trkpt lat="45.18425" lon="5.90595">
        <ele>1233</ele>
        <time>2019-01-20T08:04:16.000Z</time>
      </trkpt>
      <trkpt lat="45.18422" lon="5.90594">
        <ele>1233</ele>
        <time>2019-01-20T08:04:17.000Z</time>
      </trkpt>
      <trkpt lat="45.18422" lon="5.90594">
        <ele>1234</ele>
        <time>2019-01-20T08:04:18.000Z</time>
      </trkpt>
      <trkpt lat="45.18419" lon="5.90593">
        <ele>1234</ele>
        <time>2019-01-20T08:04:19.000Z</time>
      </trkpt>
      <trkpt lat="45.18419" lon="5.90593">
        <ele>1234</ele>
        <time>2019-01-20T08:04:20.000Z</time>
      </trkpt>
      <trkpt lat="45.18416" lon="5.90593">
        <ele>1234</ele>
        <time>2019-01-20T08:04:21.000Z</time>
      </trkpt>
      <trkpt lat="45.18416" lon="5.90593">
        <ele>1234</ele>
        <time>2019-01-20T08:04:22.000Z</time>
      </trkpt>
      <trkpt lat="45.18413" lon="5.90592">
        <ele>1234</ele>
        <time>2019-01-20T08:04:23.000Z</time>
      </trkpt>
      <trkpt lat="45.18411" lon="5.90592">
        <ele>1234</ele>
        <time>2019-01-20T08:04:24.000Z</time>
      </trkpt>
      <trkpt lat="45.18409" lon="5.90591">
        <ele>1234</ele>
        <time>2019-01-20T08:04:25.000Z</time>
      </trkpt>
      <trkpt lat="45.18409" lon="5.90591">
        <ele>1234</ele>
        <time>2019-01-20T08:04:26.000Z</time>
      </trkpt>
      <trkpt lat="45.18406" lon="5.9059">
        <ele>1234</ele>
        <time>2019-01-20T08:04:27.000Z</time>
      </trkpt>
      <trkpt lat="45.18406" lon="5.9059">
        <ele>1234</ele>
        <time>2019-01-20T08:04:28.000Z</time>
      </trkpt>
      <trkpt lat="45.18403" lon="5.9059">
        <ele>1234</ele>
        <time>2019-01-20T08:04:29.000Z</time>
      </trkpt>
      <trkpt lat="45.18403" lon="5.9059">
        <ele>1234</ele>
        <time>2019-01-20T08:04:30.000Z</time>
      </trkpt>
      <trkpt lat="45.184" lon="5.9059">
        <ele>1234</ele>
        <time>2019-01-20T08:04:31.000Z</time>
      </trkpt>
      <trkpt lat="45.184" lon="5.9059">
        <ele>1234</ele>
        <time>2019-01-20T08:04:32.000Z</time>
      </trkpt>
      <trkpt lat="45.18397" lon="5.9059">
        <ele>1235</ele>
        <time>2019-01-20T08:04:33.000Z</time>
      </trkpt>
      <trkpt lat="45.18397" lon="5.9059">
        <ele>1235</ele>
        <time>2019-01-20T08:04:34.000Z</time>
      </trkpt>
      <trkpt lat="45.18394" lon="5.9059">
        <ele>1235</ele>
        <time>2019-01-20T08:04:35.000Z</time>
      </trkpt>
      <trkpt lat="45.18394" lon="5.9059">
        <ele>1235</ele>
        <time>2019-01-20T08:04:36.000Z</time>
      </trkpt>
      <trkpt lat="45.18392" lon="5.9059">
        <ele>1235</ele>
        <time>2019-01-20T08:04:37.000Z</time>
      </trkpt>
      <trkpt lat="45.18392" lon="5.9059">
        <ele>1235</ele>
        <time>2019-01-20T08:04:38.000Z</time>
      </trkpt>
      <trkpt lat="45.1839" lon="5.90591">
        <ele>1236</ele>
        <time>2019-01-20T08:04:39.000Z</time>
      </trkpt>
      <trkpt lat="45.1839" lon="5.90591">
        <ele>1237</ele>
        <time>2019-01-20T08:04:40.000Z</time>
      </trkpt>
      <trkpt lat="45.1839" lon="5.90591">
        <ele>1237</ele>
        <time>2019-01-20T08:04:41.000Z</time>
      </trkpt>
      <trkpt lat="45.18387" lon="5.90592">
        <ele>1237</ele>
        <time>2019-01-20T08:04:42.000Z</time>
      </trkpt>
      <trkpt lat="45.18387" lon="5.90592">
        <ele>1237</ele>
        <time>2019-01-20T08:04:43.000Z</time>
      </trkpt>
      <trkpt lat="45.18386" lon="5.90593">
        <ele>1237</ele>
        <time>2019-01-20T08:04:44.000Z</time>
      </trkpt>
      <trkpt lat="45.18386" lon="5.90593">
        <ele>1237</ele>
        <time>2019-01-20T08:04:45.000Z</time>
      </trkpt>
      <trkpt lat="45.18383" lon="5.90594">
        <ele>1237</ele>
        <time>2019-01-20T08:04:46.000Z</time>
      </trkpt>
      <trkpt lat="45.18383" lon="5.90594">
        <ele>1238</ele>
        <time>2019-01-20T08:04:47.000Z</time>
      </trkpt>
      <trkpt lat="45.18382" lon="5.90596">
        <ele>1238</ele>
        <time>2019-01-20T08:04:48.000Z</time>
      </trkpt>
      <trkpt lat="45.18382" lon="5.90596">
        <ele>1238</ele>
        <time>2019-01-20T08:04:49.000Z</time>
      </trkpt>
      <trkpt lat="45.18379" lon="5.90599">
        <ele>1238</ele>
        <time>2019-01-20T08:04:50.000Z</time>
      </trkpt>
      <trkpt lat="45.18379" lon="5.90599">
        <ele>1239</ele>
        <time>2019-01-20T08:04:51.000Z</time>
      </trkpt>
      <trkpt lat="45.18378" lon="5.90602">
        <ele>1239</ele>
        <time>2019-01-20T08:04:52.000Z</time>
      </trkpt>
      <trkpt lat="45.18378" lon="5.90602">
        <ele>1239</ele>
        <time>2019-01-20T08:04:53.000Z</time>
      </trkpt>
      <trkpt lat="45.18376" lon="5.90606">
        <ele>1239</ele>
        <time>2019-01-20T08:04:54.000Z</time>
      </trkpt>
      <trkpt lat="45.18376" lon="5.90606">
        <ele>1239</ele>
        <time>2019-01-20T08:04:55.000Z</time>
      </trkpt>
      <trkpt lat="45.18376" lon="5.90609">
        <ele>1239</ele>
        <time>2019-01-20T08:04:56.000Z</time>
      </trkpt>
      <trkpt lat="45.18376" lon="5.90609">
        <ele>1239</ele>
        <time>2019-01-20T08:04:57.000Z</time>
      </trkpt>
      <trkpt lat="45.18377" lon="5.90612">
        <ele>1239</ele>
        <time>2019-01-20T08:04:58.000Z</time>
      </trkpt>
      <trkpt lat="45.18377" lon="5.90612">
        <ele>1239</ele>
        <time>2019-01-20T08:04:59.000Z</time>
      </trkpt>
      <trkpt lat="45.18376" lon="5.90615">
        <ele>1239</ele>
        <time>2019-01-20T08:05:00.000Z</time>
      </trkpt>
      <trkpt lat="45.18376" lon="5.90615">
        <ele>1239</ele>
        <time>2019-01-20T08:05:01.000Z</time>
      </trkpt>
      <trkpt lat="45.18376" lon="5.90619">
        <ele>1239</ele>
        <time>2019-01-20T08:05:02.000Z</time>
      </trkpt>
      <trkpt lat="45.18376" lon="5.9062">
        <ele>1240</ele>
        <time>2019-01-20T08:05:03.000Z</time>
      </trkpt>
      <trkpt lat="45.18376" lon="5.9062">
        <ele>1240</ele>
        <time>2019-01-20T08:05:04.000Z</time>
      </trkpt>
      <trkpt lat="45.18376" lon="5.90621">
        <ele>1240</ele>
        <time>2019-01-20T08:05:05.000Z</time>
      </trkpt>
      <trkpt lat="45.18376" lon="5.90622">
        <ele>1241</ele>
        <time>2019-01-20T08:05:06.000Z</time>
      </trkpt>
      <trkpt lat="45.18376" lon="5.90622">
        <ele>1241</ele>
        <time>2019-01-20T08:05:07.000Z</time>
      </trkpt>
      <trkpt lat="45.18375" lon="5.90628">
        <ele>1241</ele>
        <time>2019-01-20T08:05:08.000Z</time>
      </trkpt>
      <trkpt lat="45.18375" lon="5.90632">
        <ele>1241</ele>
        <time>2019-01-20T08:05:10.000Z</time>
      </trkpt>
      <trkpt lat="45.18375" lon="5.90632">
        <ele>1241</ele>
        <time>2019-01-20T08:05:11.000Z</time>
      </trkpt>
      <trkpt lat="45.18376" lon="5.90635">
        <ele>1241</ele>
        <time>2019-01-20T08:05:12.000Z</time>
      </trkpt>
      <trkpt lat="45.18376" lon="5.90635">
        <ele>1241</ele>
        <time>2019-01-20T08:05:13.000Z</time>
      </trkpt>
      <trkpt lat="45.18376" lon="5.90639">
        <ele>1241</ele>
        <time>2019-01-20T08:05:14.000Z</time>
      </trkpt>
      <trkpt lat="45.18376" lon="5.90639">
        <ele>1241</ele>
        <time>2019-01-20T08:05:15.000Z</time>
      </trkpt>
      <trkpt lat="45.18376" lon="5.90643">
        <ele>1241</ele>
        <time>2019-01-20T08:05:16.000Z</time>
      </trkpt>
      <trkpt lat="45.18376" lon="5.90643">
        <ele>1242</ele>
        <time>2019-01-20T08:05:17.000Z</time>
      </trkpt>
      <trkpt lat="45.18376" lon="5.90647">
        <ele>1242</ele>
        <time>2019-01-20T08:05:18.000Z</time>
      </trkpt>
      <trkpt lat="45.18376" lon="5.90647">
        <ele>1242</ele>
        <time>2019-01-20T08:05:19.000Z</time>
      </trkpt>
      <trkpt lat="45.18375" lon="5.90651">
        <ele>1243</ele>
        <time>2019-01-20T08:05:20.000Z</time>
      </trkpt>
      <trkpt lat="45.18375" lon="5.90651">
        <ele>1243</ele>
        <time>2019-01-20T08:05:21.000Z</time>
      </trkpt>
      <trkpt lat="45.18375" lon="5.90654">
        <ele>1243</ele>
        <time>2019-01-20T08:05:22.000Z</time>
      </trkpt>
      <trkpt lat="45.18375" lon="5.90654">
        <ele>1243</ele>
        <time>2019-01-20T08:05:23.000Z</time>
      </trkpt>
      <trkpt lat="45.18373" lon="5.90657">
        <ele>1243</ele>
        <time>2019-01-20T08:05:24.000Z</time>
      </trkpt>
      <trkpt lat="45.18373" lon="5.90657">
        <ele>1243</ele>
        <time>2019-01-20T08:05:25.000Z</time>
      </trkpt>
      <trkpt lat="45.18371" lon="5.9066">
        <ele>1243</ele>
        <time>2019-01-20T08:05:26.000Z</time>
      </trkpt>
      <trkpt lat="45.18371" lon="5.9066">
        <ele>1243</ele>
        <time>2019-01-20T08:05:27.000Z</time>
      </trkpt>
      <trkpt lat="45.18369" lon="5.90663">
        <ele>1243</ele>
        <time>2019-01-20T08:05:28.000Z</time>
      </trkpt>
      <trkpt lat="45.18369" lon="5.90663">
        <ele>1243</ele>
        <time>2019-01-20T08:05:29.000Z</time>
      </trkpt>
      <trkpt lat="45.18366" lon="5.90665">
        <ele>1244</ele>
        <time>2019-01-20T08:05:30.000Z</time>
      </trkpt>
      <trkpt lat="45.18366" lon="5.90665">
        <ele>1244</ele>
        <time>2019-01-20T08:05:31.000Z</time>
      </trkpt>
      <trkpt lat="45.18364" lon="5.90667">
        <ele>1244</ele>
        <time>2019-01-20T08:05:32.000Z</time>
      </trkpt>
      <trkpt lat="45.18364" lon="5.90667">
        <ele>1244</ele>
        <time>2019-01-20T08:05:33.000Z</time>
      </trkpt>
      <trkpt lat="45.18361" lon="5.90668">
        <ele>1244</ele>
        <time>2019-01-20T08:05:34.000Z</time>
      </trkpt>
      <trkpt lat="45.18361" lon="5.90668">
        <ele>1244</ele>
        <time>2019-01-20T08:05:35.000Z</time>
      </trkpt>
      <trkpt lat="45.1836" lon="5.90669">
        <ele>1244</ele>
        <time>2019-01-20T08:05:36.000Z</time>
      </trkpt>
      <trkpt lat="45.1836" lon="5.90669">
        <ele>1244</ele>
        <time>2019-01-20T08:05:37.000Z</time>
      </trkpt>
      <trkpt lat="45.18357" lon="5.9067">
        <ele>1244</ele>
        <time>2019-01-20T08:05:38.000Z</time>
      </trkpt>
      <trkpt lat="45.18357" lon="5.9067">
        <ele>1245</ele>
        <time>2019-01-20T08:05:39.000Z</time>
      </trkpt>
      <trkpt lat="45.18354" lon="5.90671">
        <ele>1246</ele>
        <time>2019-01-20T08:05:40.000Z</time>
      </trkpt>
      <trkpt lat="45.18354" lon="5.90671">
        <ele>1246</ele>
        <time>2019-01-20T08:05:41.000Z</time>
      </trkpt>
      <trkpt lat="45.18352" lon="5.90671">
        <ele>1246</ele>
        <time>2019-01-20T08:05:42.000Z</time>
      </trkpt>
      <trkpt lat="45.18352" lon="5.90671">
        <ele>1246</ele>
        <time>2019-01-20T08:05:43.000Z</time>
      </trkpt>
      <trkpt lat="45.1835" lon="5.90672">
        <ele>1246</ele>
        <time>2019-01-20T08:05:44.000Z</time>
      </trkpt>
      <trkpt lat="45.1835" lon="5.90672">
        <ele>1246</ele>
        <time>2019-01-20T08:05:45.000Z</time>
      </trkpt>
      <trkpt lat="45.18347" lon="5.90673">
        <ele>1247</ele>
        <time>2019-01-20T08:05:46.000Z</time>
      </trkpt>
      <trkpt lat="45.18345" lon="5.90673">
        <ele>1247</ele>
        <time>2019-01-20T08:05:48.000Z</time>
      </trkpt>
      <trkpt lat="45.18345" lon="5.90673">
        <ele>1247</ele>
        <time>2019-01-20T08:05:49.000Z</time>
      </trkpt>
      <trkpt lat="45.18342" lon="5.90674">
        <ele>1247</ele>
        <time>2019-01-20T08:05:50.000Z</time>
      </trkpt>
      <trkpt lat="45.18342" lon="5.90674">
        <ele>1247</ele>
        <time>2019-01-20T08:05:51.000Z</time>
      </trkpt>
      <trkpt lat="45.1834" lon="5.90674">
        <ele>1247</ele>
        <time>2019-01-20T08:05:52.000Z</time>
      </trkpt>
      <trkpt lat="45.1834" lon="5.90674">
        <ele>1248</ele>
        <time>2019-01-20T08:05:53.000Z</time>
      </trkpt>
      <trkpt lat="45.1834" lon="5.90674">
        <ele>1248</ele>
        <time>2019-01-20T08:05:54.000Z</time>
      </trkpt>
      <trkpt lat="45.18337" lon="5.90674">
        <ele>1248</ele>
        <time>2019-01-20T08:05:55.000Z</time>
      </trkpt>
      <trkpt lat="45.18337" lon="5.90674">
        <ele>1248</ele>
        <time>2019-01-20T08:05:56.000Z</time>
      </trkpt>
      <trkpt lat="45.18334" lon="5.90674">
        <ele>1248</ele>
        <time>2019-01-20T08:05:57.000Z</time>
      </trkpt>
      <trkpt lat="45.18334" lon="5.90674">
        <ele>1248</ele>
        <time>2019-01-20T08:05:58.000Z</time>
      </trkpt>
      <trkpt lat="45.18331" lon="5.90674">
        <ele>1248</ele>
        <time>2019-01-20T08:05:59.000Z</time>
      </trkpt>
      <trkpt lat="45.18331" lon="5.90674">
        <ele>1248</ele>
        <time>2019-01-20T08:06:00.000Z</time>
      </trkpt>
      <trkpt lat="45.18328" lon="5.90674">
        <ele>1249</ele>
        <time>2019-01-20T08:06:01.000Z</time>
      </trkpt>
      <trkpt lat="45.18328" lon="5.90674">
        <ele>1249</ele>
        <time>2019-01-20T08:06:02.000Z</time>
      </trkpt>
      <trkpt lat="45.18325" lon="5.90674">
        <ele>1249</ele>
        <time>2019-01-20T08:06:03.000Z</time>
      </trkpt>
      <trkpt lat="45.18323" lon="5.90674">
        <ele>1249</ele>
        <time>2019-01-20T08:06:04.000Z</time>
      </trkpt>
      <trkpt lat="45.18323" lon="5.90674">
        <ele>1249</ele>
        <time>2019-01-20T08:06:05.000Z</time>
      </trkpt>
      <trkpt lat="45.1832" lon="5.90675">
        <ele>1249</ele>
        <time>2019-01-20T08:06:06.000Z</time>
      </trkpt>
      <trkpt lat="45.1832" lon="5.90675">
        <ele>1249</ele>
        <time>2019-01-20T08:06:07.000Z</time>
      </trkpt>
      <trkpt lat="45.18316" lon="5.90675">
        <ele>1249</ele>
        <time>2019-01-20T08:06:08.000Z</time>
      </trkpt>
      <trkpt lat="45.18314" lon="5.90675">
        <ele>1250</ele>
        <time>2019-01-20T08:06:09.000Z</time>
      </trkpt>
      <trkpt lat="45.18314" lon="5.90675">
        <ele>1250</ele>
        <time>2019-01-20T08:06:10.000Z</time>
      </trkpt>
      <trkpt lat="45.18312" lon="5.90675">
        <ele>1250</ele>
        <time>2019-01-20T08:06:11.000Z</time>
      </trkpt>
      <trkpt lat="45.18312" lon="5.90675">
        <ele>1250</ele>
        <time>2019-01-20T08:06:12.000Z</time>
      </trkpt>
      <trkpt lat="45.18312" lon="5.90675">
        <ele>1250</ele>
        <time>2019-01-20T08:06:13.000Z</time>
      </trkpt>
      <trkpt lat="45.18309" lon="5.90675">
        <ele>1250</ele>
        <time>2019-01-20T08:06:14.000Z</time>
      </trkpt>
      <trkpt lat="45.18309" lon="5.90675">
        <ele>1250</ele>
        <time>2019-01-20T08:06:15.000Z</time>
      </trkpt>
      <trkpt lat="45.18306" lon="5.90675">
        <ele>1250</ele>
        <time>2019-01-20T08:06:16.000Z</time>
      </trkpt>
      <trkpt lat="45.18306" lon="5.90675">
        <ele>1250</ele>
        <time>2019-01-20T08:06:17.000Z</time>
      </trkpt>
      <trkpt lat="45.18304" lon="5.90676">
        <ele>1250</ele>
        <time>2019-01-20T08:06:18.000Z</time>
      </trkpt>
      <trkpt lat="45.18304" lon="5.90676">
        <ele>1250</ele>
        <time>2019-01-20T08:06:19.000Z</time>
      </trkpt>
      <trkpt lat="45.18301" lon="5.90676">
        <ele>1250</ele>
        <time>2019-01-20T08:06:20.000Z</time>
      </trkpt>
      <trkpt lat="45.18301" lon="5.90676">
        <ele>1251</ele>
        <time>2019-01-20T08:06:21.000Z</time>
      </trkpt>
      <trkpt lat="45.18297" lon="5.90677">
        <ele>1252</ele>
        <time>2019-01-20T08:06:22.000Z</time>
      </trkpt>
      <trkpt lat="45.18297" lon="5.90677">
        <ele>1252</ele>
        <time>2019-01-20T08:06:23.000Z</time>
      </trkpt>
      <trkpt lat="45.18295" lon="5.90676">
        <ele>1252</ele>
        <time>2019-01-20T08:06:24.000Z</time>
      </trkpt>
      <trkpt lat="45.18292" lon="5.90677">
        <ele>1252</ele>
        <time>2019-01-20T08:06:26.000Z</time>
      </trkpt>
      <trkpt lat="45.18292" lon="5.90677">
        <ele>1252</ele>
        <time>2019-01-20T08:06:27.000Z</time>
      </trkpt>
      <trkpt lat="45.1829" lon="5.90677">
        <ele>1252</ele>
        <time>2019-01-20T08:06:28.000Z</time>
      </trkpt>
      <trkpt lat="45.1829" lon="5.90677">
        <ele>1252</ele>
        <time>2019-01-20T08:06:29.000Z</time>
      </trkpt>
      <trkpt lat="45.18287" lon="5.90677">
        <ele>1252</ele>
        <time>2019-01-20T08:06:30.000Z</time>
      </trkpt>
      <trkpt lat="45.18287" lon="5.90677">
        <ele>1252</ele>
        <time>2019-01-20T08:06:31.000Z</time>
      </trkpt>
      <trkpt lat="45.18284" lon="5.90677">
        <ele>1252</ele>
        <time>2019-01-20T08:06:32.000Z</time>
      </trkpt>
      <trkpt lat="45.18282" lon="5.90677">
        <ele>1252</ele>
        <time>2019-01-20T08:06:33.000Z</time>
      </trkpt>
      <trkpt lat="45.18282" lon="5.90677">
        <ele>1252</ele>
        <time>2019-01-20T08:06:34.000Z</time>
      </trkpt>
      <trkpt lat="45.18279" lon="5.90677">
        <ele>1252</ele>
        <time>2019-01-20T08:06:35.000Z</time>
      </trkpt>
      <trkpt lat="45.18278" lon="5.90678">
        <ele>1253</ele>
        <time>2019-01-20T08:06:36.000Z</time>
      </trkpt>
      <trkpt lat="45.18277" lon="5.90678">
        <ele>1253</ele>
        <time>2019-01-20T08:06:37.000Z</time>
      </trkpt>
      <trkpt lat="45.18276" lon="5.90678">
        <ele>1253.6</ele>
        <time>2019-01-20T08:06:38.000Z</time>
      </trkpt>
      <trkpt lat="45.18273" lon="5.90678">
        <ele>1254</ele>
        <time>2019-01-20T08:06:39.000Z</time>
      </trkpt>
      <trkpt lat="45.18271" lon="5.90678">
        <ele>1254</ele>
        <time>2019-01-20T08:06:40.000Z</time>
      </trkpt>
      <trkpt lat="45.18269" lon="5.90678">
        <ele>1254</ele>
        <time>2019-01-20T08:06:41.000Z</time>
      </trkpt>
      <trkpt lat="45.18267" lon="5.90679">
        <ele>1254</ele>
        <time>2019-01-20T08:06:42.000Z</time>
      </trkpt>
      <trkpt lat="45.18267" lon="5.90679">
        <ele>1255</ele>
        <time>2019-01-20T08:06:43.000Z</time>
      </trkpt>
      <trkpt lat="45.18263" lon="5.90679">
        <ele>1255</ele>
        <time>2019-01-20T08:06:44.000Z</time>
      </trkpt>
      <trkpt lat="45.18263" lon="5.90679">
        <ele>1255</ele>
        <time>2019-01-20T08:06:45.000Z</time>
      </trkpt>
      <trkpt lat="45.1826" lon="5.9068">
        <ele>1256</ele>
        <time>2019-01-20T08:06:46.000Z</time>
      </trkpt>
      <trkpt lat="45.1826" lon="5.9068">
        <ele>1256</ele>
        <time>2019-01-20T08:06:47.000Z</time>
      </trkpt>
      <trkpt lat="45.18257" lon="5.9068">
        <ele>1256</ele>
        <time>2019-01-20T08:06:48.000Z</time>
      </trkpt>
      <trkpt lat="45.18257" lon="5.9068">
        <ele>1256</ele>
        <time>2019-01-20T08:06:49.000Z</time>
      </trkpt>
      <trkpt lat="45.18254" lon="5.90681">
        <ele>1256</ele>
        <time>2019-01-20T08:06:50.000Z</time>
      </trkpt>
      <trkpt lat="45.18254" lon="5.90681">
        <ele>1256</ele>
        <time>2019-01-20T08:06:51.000Z</time>
      </trkpt>
      <trkpt lat="45.18251" lon="5.90681">
        <ele>1257</ele>
        <time>2019-01-20T08:06:52.000Z</time>
      </trkpt>
      <trkpt lat="45.18251" lon="5.90681">
        <ele>1257</ele>
        <time>2019-01-20T08:06:53.000Z</time>
      </trkpt>
      <trkpt lat="45.18248" lon="5.90681">
        <ele>1257</ele>
        <time>2019-01-20T08:06:54.000Z</time>
      </trkpt>
      <trkpt lat="45.18248" lon="5.90681">
        <ele>1258</ele>
        <time>2019-01-20T08:06:55.000Z</time>
      </trkpt>
      <trkpt lat="45.18245" lon="5.90682">
        <ele>1258</ele>
        <time>2019-01-20T08:06:56.000Z</time>
      </trkpt>
      <trkpt lat="45.18245" lon="5.90682">
        <ele>1258</ele>
        <time>2019-01-20T08:06:57.000Z</time>
      </trkpt>
      <trkpt lat="45.18242" lon="5.90682">
        <ele>1258</ele>
        <time>2019-01-20T08:06:58.000Z</time>
      </trkpt>
      <trkpt lat="45.18242" lon="5.90682">
        <ele>1258</ele>
        <time>2019-01-20T08:06:59.000Z</time>
      </trkpt>
      <trkpt lat="45.18239" lon="5.90683">
        <ele>1258</ele>
        <time>2019-01-20T08:07:00.000Z</time>
      </trkpt>
      <trkpt lat="45.18239" lon="5.90683">
        <ele>1258</ele>
        <time>2019-01-20T08:07:01.000Z</time>
      </trkpt>
      <trkpt lat="45.18237" lon="5.90684">
        <ele>1258</ele>
        <time>2019-01-20T08:07:02.000Z</time>
      </trkpt>
      <trkpt lat="45.18233" lon="5.90685">
        <ele>1258</ele>
        <time>2019-01-20T08:07:04.000Z</time>
      </trkpt>
      <trkpt lat="45.18233" lon="5.90685">
        <ele>1258</ele>
        <time>2019-01-20T08:07:05.000Z</time>
      </trkpt>
      <trkpt lat="45.18231" lon="5.90686">
        <ele>1259</ele>
        <time>2019-01-20T08:07:06.000Z</time>
      </trkpt>
      <trkpt lat="45.18231" lon="5.90686">
        <ele>1259</ele>
        <time>2019-01-20T08:07:07.000Z</time>
      </trkpt>
      <trkpt lat="45.18228" lon="5.90687">
        <ele>1259</ele>
        <time>2019-01-20T08:07:08.000Z</time>
      </trkpt>
      <trkpt lat="45.18224" lon="5.90688">
        <ele>1259</ele>
        <time>2019-01-20T08:07:10.000Z</time>
      </trkpt>
      <trkpt lat="45.18223" lon="5.90688">
        <ele>1259</ele>
        <time>2019-01-20T08:07:11.000Z</time>
      </trkpt>
      <trkpt lat="45.18222" lon="5.90689">
        <ele>1259</ele>
        <time>2019-01-20T08:07:12.000Z</time>
      </trkpt>
      <trkpt lat="45.1822" lon="5.90689">
        <ele>1260</ele>
        <time>2019-01-20T08:07:13.000Z</time>
      </trkpt>
      <trkpt lat="45.18219" lon="5.90689">
        <ele>1260</ele>
        <time>2019-01-20T08:07:14.000Z</time>
      </trkpt>
      <trkpt lat="45.18219" lon="5.90689">
        <ele>1260</ele>
        <time>2019-01-20T08:07:15.000Z</time>
      </trkpt>
      <trkpt lat="45.18215" lon="5.9069">
        <ele>1261</ele>
        <time>2019-01-20T08:07:16.000Z</time>
      </trkpt>
      <trkpt lat="45.18215" lon="5.9069">
        <ele>1261</ele>
        <time>2019-01-20T08:07:17.000Z</time>
      </trkpt>
      <trkpt lat="45.18212" lon="5.90692">
        <ele>1261</ele>
        <time>2019-01-20T08:07:18.000Z</time>
      </trkpt>
      <trkpt lat="45.18212" lon="5.90692">
        <ele>1261</ele>
        <time>2019-01-20T08:07:19.000Z</time>
      </trkpt>
      <trkpt lat="45.1821" lon="5.90694">
        <ele>1261</ele>
        <time>2019-01-20T08:07:20.000Z</time>
      </trkpt>
      <trkpt lat="45.1821" lon="5.90694">
        <ele>1261</ele>
        <time>2019-01-20T08:07:21.000Z</time>
      </trkpt>
      <trkpt lat="45.18207" lon="5.90696">
        <ele>1261</ele>
        <time>2019-01-20T08:07:22.000Z</time>
      </trkpt>
      <trkpt lat="45.18206" lon="5.90697">
        <ele>1261.6</ele>
        <time>2019-01-20T08:07:23.000Z</time>
      </trkpt>
      <trkpt lat="45.18204" lon="5.90698">
        <ele>1262</ele>
        <time>2019-01-20T08:07:24.000Z</time>
      </trkpt>
      <trkpt lat="45.18202" lon="5.90699">
        <ele>1262</ele>
        <time>2019-01-20T08:07:25.000Z</time>
      </trkpt>
      <trkpt lat="45.182" lon="5.907">
        <ele>1262</ele>
        <time>2019-01-20T08:07:26.000Z</time>
      </trkpt>
      <trkpt lat="45.182" lon="5.907">
        <ele>1262</ele>
        <time>2019-01-20T08:07:27.000Z</time>
      </trkpt>
      <trkpt lat="45.18196" lon="5.907">
        <ele>1263</ele>
        <time>2019-01-20T08:07:28.000Z</time>
      </trkpt>
      <trkpt lat="45.18196" lon="5.907">
        <ele>1263</ele>
        <time>2019-01-20T08:07:29.000Z</time>
      </trkpt>
      <trkpt lat="45.18193" lon="5.90701">
        <ele>1263</ele>
        <time>2019-01-20T08:07:30.000Z</time>
      </trkpt>
      <trkpt lat="45.18193" lon="5.90701">
        <ele>1263</ele>
        <time>2019-01-20T08:07:31.000Z</time>
      </trkpt>
      <trkpt lat="45.1819" lon="5.90703">
        <ele>1263</ele>
        <time>2019-01-20T08:07:32.000Z</time>
      </trkpt>
      <trkpt lat="45.1819" lon="5.90703">
        <ele>1263</ele>
        <time>2019-01-20T08:07:33.000Z</time>
      </trkpt>
      <trkpt lat="45.18187" lon="5.90703">
        <ele>1263</ele>
        <time>2019-01-20T08:07:34.000Z</time>
      </trkpt>
      <trkpt lat="45.18187" lon="5.90703">
        <ele>1263</ele>
        <time>2019-01-20T08:07:35.000Z</time>
      </trkpt>
      <trkpt lat="45.18185" lon="5.90704">
        <ele>1264</ele>
        <time>2019-01-20T08:07:36.000Z</time>
      </trkpt>
      <trkpt lat="45.18185" lon="5.90704">
        <ele>1264</ele>
        <time>2019-01-20T08:07:37.000Z</time>
      </trkpt>
      <trkpt lat="45.18182" lon="5.90705">
        <ele>1264</ele>
        <time>2019-01-20T08:07:38.000Z</time>
      </trkpt>
      <trkpt lat="45.18182" lon="5.90705">
        <ele>1264</ele>
        <time>2019-01-20T08:07:39.000Z</time>
      </trkpt>
      <trkpt lat="45.1818" lon="5.90706">
        <ele>1264</ele>
        <time>2019-01-20T08:07:40.000Z</time>
      </trkpt>
      <trkpt lat="45.18177" lon="5.90707">
        <ele>1265</ele>
        <time>2019-01-20T08:07:42.000Z</time>
      </trkpt>
      <trkpt lat="45.18177" lon="5.90707">
        <ele>1265</ele>
        <time>2019-01-20T08:07:43.000Z</time>
      </trkpt>
      <trkpt lat="45.18175" lon="5.90707">
        <ele>1265</ele>
        <time>2019-01-20T08:07:44.000Z</time>
      </trkpt>
      <trkpt lat="45.18175" lon="5.90707">
        <ele>1266</ele>
        <time>2019-01-20T08:07:45.000Z</time>
      </trkpt>
      <trkpt lat="45.18173" lon="5.90709">
        <ele>1266</ele>
        <time>2019-01-20T08:07:46.000Z</time>
      </trkpt>
      <trkpt lat="45.18173" lon="5.90709">
        <ele>1266</ele>
        <time>2019-01-20T08:07:47.000Z</time>
      </trkpt>
      <trkpt lat="45.18173" lon="5.90709">
        <ele>1266</ele>
        <time>2019-01-20T08:07:48.000Z</time>
      </trkpt>
      <trkpt lat="45.18172" lon="5.9071">
        <ele>1266</ele>
        <time>2019-01-20T08:07:49.000Z</time>
      </trkpt>
      <trkpt lat="45.18172" lon="5.9071">
        <ele>1266</ele>
        <time>2019-01-20T08:07:50.000Z</time>
      </trkpt>
      <trkpt lat="45.18172" lon="5.9071">
        <ele>1266</ele>
        <time>2019-01-20T08:07:51.000Z</time>
      </trkpt>
      <trkpt lat="45.18172" lon="5.9071">
        <ele>1266</ele>
        <time>2019-01-20T08:07:52.000Z</time>
      </trkpt>
      <trkpt lat="45.1817" lon="5.90712">
        <ele>1266</ele>
        <time>2019-01-20T08:07:53.000Z</time>
      </trkpt>
      <trkpt lat="45.1817" lon="5.90712">
        <ele>1266</ele>
        <time>2019-01-20T08:07:54.000Z</time>
      </trkpt>
      <trkpt lat="45.18167" lon="5.90714">
        <ele>1266</ele>
        <time>2019-01-20T08:07:55.000Z</time>
      </trkpt>
      <trkpt lat="45.18167" lon="5.90714">
        <ele>1267</ele>
        <time>2019-01-20T08:07:56.000Z</time>
      </trkpt>
      <trkpt lat="45.18164" lon="5.90716">
        <ele>1267</ele>
        <time>2019-01-20T08:07:57.000Z</time>
      </trkpt>
      <trkpt lat="45.18164" lon="5.90716">
        <ele>1267</ele>
        <time>2019-01-20T08:07:58.000Z</time>
      </trkpt>
      <trkpt lat="45.18162" lon="5.90717">
        <ele>1267</ele>
        <time>2019-01-20T08:07:59.000Z</time>
      </trkpt>
      <trkpt lat="45.18159" lon="5.90719">
        <ele>1267</ele>
        <time>2019-01-20T08:08:01.000Z</time>
      </trkpt>
      <trkpt lat="45.18159" lon="5.90719">
        <ele>1267</ele>
        <time>2019-01-20T08:08:02.000Z</time>
      </trkpt>
      <trkpt lat="45.18157" lon="5.90721">
        <ele>1268</ele>
        <time>2019-01-20T08:08:03.000Z</time>
      </trkpt>
      <trkpt lat="45.18157" lon="5.90721">
        <ele>1268</ele>
        <time>2019-01-20T08:08:04.000Z</time>
      </trkpt>
      <trkpt lat="45.18154" lon="5.90722">
        <ele>1268</ele>
        <time>2019-01-20T08:08:05.000Z</time>
      </trkpt>
      <trkpt lat="45.18154" lon="5.90722">
        <ele>1268</ele>
        <time>2019-01-20T08:08:06.000Z</time>
      </trkpt>
      <trkpt lat="45.18152" lon="5.90724">
        <ele>1268</ele>
        <time>2019-01-20T08:08:07.000Z</time>
      </trkpt>
      <trkpt lat="45.18152" lon="5.90724">
        <ele>1269</ele>
        <time>2019-01-20T08:08:08.000Z</time>
      </trkpt>
      <trkpt lat="45.18152" lon="5.90724">
        <ele>1269</ele>
        <time>2019-01-20T08:08:09.000Z</time>
      </trkpt>
      <trkpt lat="45.1815" lon="5.90727">
        <ele>1269</ele>
        <time>2019-01-20T08:08:10.000Z</time>
      </trkpt>
      <trkpt lat="45.1815" lon="5.90727">
        <ele>1269</ele>
        <time>2019-01-20T08:08:11.000Z</time>
      </trkpt>
      <trkpt lat="45.1815" lon="5.90727">
        <ele>1269</ele>
        <time>2019-01-20T08:08:12.000Z</time>
      </trkpt>
      <trkpt lat="45.18148" lon="5.90728">
        <ele>1269</ele>
        <time>2019-01-20T08:08:13.000Z</time>
      </trkpt>
      <trkpt lat="45.18148" lon="5.90728">
        <ele>1269</ele>
        <time>2019-01-20T08:08:14.000Z</time>
      </trkpt>
      <trkpt lat="45.18148" lon="5.90728">
        <ele>1269</ele>
        <time>2019-01-20T08:08:15.000Z</time>
      </trkpt>
      <trkpt lat="45.18148" lon="5.90728">
        <ele>1269</ele>
        <time>2019-01-20T08:08:16.000Z</time>
      </trkpt>
      <trkpt lat="45.18148" lon="5.90728">
        <ele>1269</ele>
        <time>2019-01-20T08:08:17.000Z</time>
      </trkpt>
      <trkpt lat="45.18148" lon="5.90728">
        <ele>1269</ele>
        <time>2019-01-20T08:08:18.000Z</time>
      </trkpt>
      <trkpt lat="45.18147" lon="5.9073">
        <ele>1269</ele>
        <time>2019-01-20T08:08:19.000Z</time>
      </trkpt>
      <trkpt lat="45.18147" lon="5.9073">
        <ele>1270</ele>
        <time>2019-01-20T08:08:20.000Z</time>
      </trkpt>
      <trkpt lat="45.18147" lon="5.9073">
        <ele>1270</ele>
        <time>2019-01-20T08:08:21.000Z</time>
      </trkpt>
      <trkpt lat="45.18145" lon="5.90732">
        <ele>1270</ele>
        <time>2019-01-20T08:08:22.000Z</time>
      </trkpt>
      <trkpt lat="45.18145" lon="5.90732">
        <ele>1270</ele>
        <time>2019-01-20T08:08:23.000Z</time>
      </trkpt>
      <trkpt lat="45.18143" lon="5.90735">
        <ele>1270</ele>
        <time>2019-01-20T08:08:24.000Z</time>
      </trkpt>
      <trkpt lat="45.18143" lon="5.90735">
        <ele>1270</ele>
        <time>2019-01-20T08:08:25.000Z</time>
      </trkpt>
      <trkpt lat="45.18141" lon="5.90736">
        <ele>1270</ele>
        <time>2019-01-20T08:08:26.000Z</time>
      </trkpt>
      <trkpt lat="45.18141" lon="5.90736">
        <ele>1270</ele>
        <time>2019-01-20T08:08:27.000Z</time>
      </trkpt>
      <trkpt lat="45.18139" lon="5.90739">
        <ele>1270</ele>
        <time>2019-01-20T08:08:28.000Z</time>
      </trkpt>
      <trkpt lat="45.18139" lon="5.90739">
        <ele>1270</ele>
        <time>2019-01-20T08:08:29.000Z</time>
      </trkpt>
      <trkpt lat="45.18136" lon="5.90741">
        <ele>1271</ele>
        <time>2019-01-20T08:08:30.000Z</time>
      </trkpt>
      <trkpt lat="45.18136" lon="5.90741">
        <ele>1271</ele>
        <time>2019-01-20T08:08:31.000Z</time>
      </trkpt>
      <trkpt lat="45.18134" lon="5.90743">
        <ele>1271</ele>
        <time>2019-01-20T08:08:32.000Z</time>
      </trkpt>
      <trkpt lat="45.18134" lon="5.90743">
        <ele>1271</ele>
        <time>2019-01-20T08:08:33.000Z</time>
      </trkpt>
      <trkpt lat="45.18131" lon="5.90745">
        <ele>1271</ele>
        <time>2019-01-20T08:08:34.000Z</time>
      </trkpt>
      <trkpt lat="45.18131" lon="5.90745">
        <ele>1271</ele>
        <time>2019-01-20T08:08:35.000Z</time>
      </trkpt>
      <trkpt lat="45.18129" lon="5.90747">
        <ele>1271</ele>
        <time>2019-01-20T08:08:36.000Z</time>
      </trkpt>
      <trkpt lat="45.18128" lon="5.90748">
        <ele>1271</ele>
        <time>2019-01-20T08:08:37.000Z</time>
      </trkpt>
      <trkpt lat="45.18127" lon="5.90749">
        <ele>1271</ele>
        <time>2019-01-20T08:08:38.000Z</time>
      </trkpt>
      <trkpt lat="45.18126" lon="5.90749">
        <ele>1271</ele>
        <time>2019-01-20T08:08:39.000Z</time>
      </trkpt>
      <trkpt lat="45.18123" lon="5.90752">
        <ele>1271</ele>
        <time>2019-01-20T08:08:40.000Z</time>
      </trkpt>
      <trkpt lat="45.18121" lon="5.90754">
        <ele>1272</ele>
        <time>2019-01-20T08:08:41.000Z</time>
      </trkpt>
      <trkpt lat="45.18119" lon="5.90756">
        <ele>1272</ele>
        <time>2019-01-20T08:08:42.000Z</time>
      </trkpt>
      <trkpt lat="45.18119" lon="5.90756">
        <ele>1272</ele>
        <time>2019-01-20T08:08:43.000Z</time>
      </trkpt>
      <trkpt lat="45.18118" lon="5.90757">
        <ele>1272</ele>
        <time>2019-01-20T08:08:44.000Z</time>
      </trkpt>
      <trkpt lat="45.18118" lon="5.90757">
        <ele>1273</ele>
        <time>2019-01-20T08:08:45.000Z</time>
      </trkpt>
      <trkpt lat="45.18118" lon="5.90757">
        <ele>1273</ele>
        <time>2019-01-20T08:08:46.000Z</time>
      </trkpt>
      <trkpt lat="45.18116" lon="5.90759">
        <ele>1273</ele>
        <time>2019-01-20T08:08:47.000Z</time>
      </trkpt>
      <trkpt lat="45.18114" lon="5.90761">
        <ele>1273</ele>
        <time>2019-01-20T08:08:48.000Z</time>
      </trkpt>
      <trkpt lat="45.18112" lon="5.90763">
        <ele>1273</ele>
        <time>2019-01-20T08:08:49.000Z</time>
      </trkpt>
      <trkpt lat="45.1811" lon="5.90765">
        <ele>1273</ele>
        <time>2019-01-20T08:08:50.000Z</time>
      </trkpt>
      <trkpt lat="45.1811" lon="5.90765">
        <ele>1273</ele>
        <time>2019-01-20T08:08:51.000Z</time>
      </trkpt>
      <trkpt lat="45.18102" lon="5.90772">
        <ele>1274</ele>
        <time>2019-01-20T08:08:52.000Z</time>
      </trkpt>
      <trkpt lat="45.18102" lon="5.90772">
        <ele>1274</ele>
        <time>2019-01-20T08:08:53.000Z</time>
      </trkpt>
      <trkpt lat="45.18098" lon="5.90774">
        <ele>1274</ele>
        <time>2019-01-20T08:08:54.000Z</time>
      </trkpt>
      <trkpt lat="45.18098" lon="5.90774">
        <ele>1274</ele>
        <time>2019-01-20T08:08:55.000Z</time>
      </trkpt>
      <trkpt lat="45.18095" lon="5.90775">
        <ele>1275</ele>
        <time>2019-01-20T08:08:56.000Z</time>
      </trkpt>
      <trkpt lat="45.18093" lon="5.90777">
        <ele>1275</ele>
        <time>2019-01-20T08:08:58.000Z</time>
      </trkpt>
      <trkpt lat="45.18093" lon="5.90777">
        <ele>1275</ele>
        <time>2019-01-20T08:08:59.000Z</time>
      </trkpt>
      <trkpt lat="45.18091" lon="5.90779">
        <ele>1276</ele>
        <time>2019-01-20T08:09:00.000Z</time>
      </trkpt>
      <trkpt lat="45.18091" lon="5.90779">
        <ele>1276</ele>
        <time>2019-01-20T08:09:01.000Z</time>
      </trkpt>
      <trkpt lat="45.18089" lon="5.90781">
        <ele>1276</ele>
        <time>2019-01-20T08:09:02.000Z</time>
      </trkpt>
      <trkpt lat="45.18089" lon="5.90781">
        <ele>1276</ele>
        <time>2019-01-20T08:09:03.000Z</time>
      </trkpt>
      <trkpt lat="45.18087" lon="5.90782">
        <ele>1276</ele>
        <time>2019-01-20T08:09:04.000Z</time>
      </trkpt>
      <trkpt lat="45.18087" lon="5.90782">
        <ele>1276</ele>
        <time>2019-01-20T08:09:05.000Z</time>
      </trkpt>
      <trkpt lat="45.18085" lon="5.90782">
        <ele>1276</ele>
        <time>2019-01-20T08:09:06.000Z</time>
      </trkpt>
      <trkpt lat="45.18085" lon="5.90782">
        <ele>1276</ele>
        <time>2019-01-20T08:09:07.000Z</time>
      </trkpt>
      <trkpt lat="45.18083" lon="5.90784">
        <ele>1277</ele>
        <time>2019-01-20T08:09:08.000Z</time>
      </trkpt>
      <trkpt lat="45.18083" lon="5.90784">
        <ele>1277</ele>
        <time>2019-01-20T08:09:09.000Z</time>
      </trkpt>
      <trkpt lat="45.1808" lon="5.90785">
        <ele>1277</ele>
        <time>2019-01-20T08:09:10.000Z</time>
      </trkpt>
      <trkpt lat="45.1808" lon="5.90785">
        <ele>1277</ele>
        <time>2019-01-20T08:09:11.000Z</time>
      </trkpt>
      <trkpt lat="45.1808" lon="5.90785">
        <ele>1277</ele>
        <time>2019-01-20T08:09:12.000Z</time>
      </trkpt>
      <trkpt lat="45.18078" lon="5.90787">
        <ele>1277</ele>
        <time>2019-01-20T08:09:13.000Z</time>
      </trkpt>
      <trkpt lat="45.18078" lon="5.90787">
        <ele>1277</ele>
        <time>2019-01-20T08:09:14.000Z</time>
      </trkpt>
      <trkpt lat="45.18076" lon="5.90789">
        <ele>1277</ele>
        <time>2019-01-20T08:09:15.000Z</time>
      </trkpt>
      <trkpt lat="45.18075" lon="5.9079">
        <ele>1277</ele>
        <time>2019-01-20T08:09:17.000Z</time>
      </trkpt>
      <trkpt lat="45.18075" lon="5.9079">
        <ele>1277</ele>
        <time>2019-01-20T08:09:18.000Z</time>
      </trkpt>
      <trkpt lat="45.18072" lon="5.90792">
        <ele>1277</ele>
        <time>2019-01-20T08:09:19.000Z</time>
      </trkpt>
      <trkpt lat="45.18072" lon="5.90792">
        <ele>1277</ele>
        <time>2019-01-20T08:09:20.000Z</time>
      </trkpt>
      <trkpt lat="45.18069" lon="5.90794">
        <ele>1278</ele>
        <time>2019-01-20T08:09:21.000Z</time>
      </trkpt>
      <trkpt lat="45.18069" lon="5.90794">
        <ele>1279</ele>
        <time>2019-01-20T08:09:22.000Z</time>
      </trkpt>
      <trkpt lat="45.18066" lon="5.90796">
        <ele>1279</ele>
        <time>2019-01-20T08:09:23.000Z</time>
      </trkpt>
      <trkpt lat="45.18066" lon="5.90796">
        <ele>1279</ele>
        <time>2019-01-20T08:09:24.000Z</time>
      </trkpt>
      <trkpt lat="45.18064" lon="5.90798">
        <ele>1279</ele>
        <time>2019-01-20T08:09:25.000Z</time>
      </trkpt>
      <trkpt lat="45.18062" lon="5.908">
        <ele>1279</ele>
        <time>2019-01-20T08:09:26.000Z</time>
      </trkpt>
      <trkpt lat="45.1806" lon="5.90801">
        <ele>1279</ele>
        <time>2019-01-20T08:09:27.000Z</time>
      </trkpt>
      <trkpt lat="45.1806" lon="5.90801">
        <ele>1279</ele>
        <time>2019-01-20T08:09:28.000Z</time>
      </trkpt>
      <trkpt lat="45.18057" lon="5.90803">
        <ele>1280</ele>
        <time>2019-01-20T08:09:29.000Z</time>
      </trkpt>
      <trkpt lat="45.18056" lon="5.90804">
        <ele>1280</ele>
        <time>2019-01-20T08:09:30.000Z</time>
      </trkpt>
      <trkpt lat="45.18054" lon="5.90805">
        <ele>1281</ele>
        <time>2019-01-20T08:09:31.000Z</time>
      </trkpt>
      <trkpt lat="45.18052" lon="5.90806">
        <ele>1281</ele>
        <time>2019-01-20T08:09:32.000Z</time>
      </trkpt>
      <trkpt lat="45.18052" lon="5.90806">
        <ele>1281</ele>
        <time>2019-01-20T08:09:33.000Z</time>
      </trkpt>
      <trkpt lat="45.1805" lon="5.90808">
        <ele>1281</ele>
        <time>2019-01-20T08:09:34.000Z</time>
      </trkpt>
      <trkpt lat="45.18046" lon="5.90808">
        <ele>1281</ele>
        <time>2019-01-20T08:09:36.000Z</time>
      </trkpt>
      <trkpt lat="45.18046" lon="5.90808">
        <ele>1281</ele>
        <time>2019-01-20T08:09:37.000Z</time>
      </trkpt>
      <trkpt lat="45.18043" lon="5.9081">
        <ele>1281</ele>
        <time>2019-01-20T08:09:38.000Z</time>
      </trkpt>
      <trkpt lat="45.18043" lon="5.9081">
        <ele>1281</ele>
        <time>2019-01-20T08:09:39.000Z</time>
      </trkpt>
      <trkpt lat="45.18041" lon="5.90811">
        <ele>1281</ele>
        <time>2019-01-20T08:09:40.000Z</time>
      </trkpt>
      <trkpt lat="45.18041" lon="5.90811">
        <ele>1282</ele>
        <time>2019-01-20T08:09:41.000Z</time>
      </trkpt>
      <trkpt lat="45.18037" lon="5.90812">
        <ele>1282</ele>
        <time>2019-01-20T08:09:42.000Z</time>
      </trkpt>
      <trkpt lat="45.18037" lon="5.90812">
        <ele>1282</ele>
        <time>2019-01-20T08:09:43.000Z</time>
      </trkpt>
      <trkpt lat="45.18035" lon="5.90812">
        <ele>1282</ele>
        <time>2019-01-20T08:09:44.000Z</time>
      </trkpt>
      <trkpt lat="45.18035" lon="5.90812">
        <ele>1282</ele>
        <time>2019-01-20T08:09:45.000Z</time>
      </trkpt>
      <trkpt lat="45.18031" lon="5.90812">
        <ele>1283</ele>
        <time>2019-01-20T08:09:46.000Z</time>
      </trkpt>
      <trkpt lat="45.18031" lon="5.90812">
        <ele>1283</ele>
        <time>2019-01-20T08:09:47.000Z</time>
      </trkpt>
      <trkpt lat="45.18028" lon="5.90814">
        <ele>1283</ele>
        <time>2019-01-20T08:09:48.000Z</time>
      </trkpt>
      <trkpt lat="45.18027" lon="5.90815">
        <ele>1283</ele>
        <time>2019-01-20T08:09:49.000Z</time>
      </trkpt>
      <trkpt lat="45.18027" lon="5.90815">
        <ele>1283</ele>
        <time>2019-01-20T08:09:50.000Z</time>
      </trkpt>
      <trkpt lat="45.18024" lon="5.90817">
        <ele>1283</ele>
        <time>2019-01-20T08:09:51.000Z</time>
      </trkpt>
      <trkpt lat="45.18024" lon="5.90817">
        <ele>1283</ele>
        <time>2019-01-20T08:09:52.000Z</time>
      </trkpt>
      <trkpt lat="45.18021" lon="5.90818">
        <ele>1284</ele>
        <time>2019-01-20T08:09:53.000Z</time>
      </trkpt>
      <trkpt lat="45.18019" lon="5.90819">
        <ele>1284</ele>
        <time>2019-01-20T08:09:55.000Z</time>
      </trkpt>
      <trkpt lat="45.18019" lon="5.90819">
        <ele>1284</ele>
        <time>2019-01-20T08:09:56.000Z</time>
      </trkpt>
      <trkpt lat="45.18015" lon="5.9082">
        <ele>1284</ele>
        <time>2019-01-20T08:09:57.000Z</time>
      </trkpt>
      <trkpt lat="45.18015" lon="5.9082">
        <ele>1284</ele>
        <time>2019-01-20T08:09:58.000Z</time>
      </trkpt>
      <trkpt lat="45.18013" lon="5.90822">
        <ele>1284</ele>
        <time>2019-01-20T08:09:59.000Z</time>
      </trkpt>
      <trkpt lat="45.18013" lon="5.90822">
        <ele>1284</ele>
        <time>2019-01-20T08:10:00.000Z</time>
      </trkpt>
      <trkpt lat="45.1801" lon="5.90823">
        <ele>1285</ele>
        <time>2019-01-20T08:10:01.000Z</time>
      </trkpt>
      <trkpt lat="45.1801" lon="5.90823">
        <ele>1285</ele>
        <time>2019-01-20T08:10:02.000Z</time>
      </trkpt>
      <trkpt lat="45.18007" lon="5.90825">
        <ele>1285</ele>
        <time>2019-01-20T08:10:03.000Z</time>
      </trkpt>
      <trkpt lat="45.18007" lon="5.90825">
        <ele>1285</ele>
        <time>2019-01-20T08:10:04.000Z</time>
      </trkpt>
      <trkpt lat="45.18005" lon="5.90826">
        <ele>1285</ele>
        <time>2019-01-20T08:10:05.000Z</time>
      </trkpt>
      <trkpt lat="45.18005" lon="5.90826">
        <ele>1285</ele>
        <time>2019-01-20T08:10:06.000Z</time>
      </trkpt>
      <trkpt lat="45.18002" lon="5.90827">
        <ele>1285</ele>
        <time>2019-01-20T08:10:07.000Z</time>
      </trkpt>
      <trkpt lat="45.18002" lon="5.90827">
        <ele>1285</ele>
        <time>2019-01-20T08:10:08.000Z</time>
      </trkpt>
      <trkpt lat="45.18" lon="5.90827">
        <ele>1285</ele>
        <time>2019-01-20T08:10:09.000Z</time>
      </trkpt>
      <trkpt lat="45.18" lon="5.90827">
        <ele>1286</ele>
        <time>2019-01-20T08:10:10.000Z</time>
      </trkpt>
      <trkpt lat="45.17998" lon="5.90828">
        <ele>1286</ele>
        <time>2019-01-20T08:10:11.000Z</time>
      </trkpt>
      <trkpt lat="45.17998" lon="5.90828">
        <ele>1286</ele>
        <time>2019-01-20T08:10:12.000Z</time>
      </trkpt>
      <trkpt lat="45.17996" lon="5.90829">
        <ele>1286</ele>
        <time>2019-01-20T08:10:13.000Z</time>
      </trkpt>
      <trkpt lat="45.17996" lon="5.90829">
        <ele>1286</ele>
        <time>2019-01-20T08:10:14.000Z</time>
      </trkpt>
      <trkpt lat="45.17994" lon="5.90831">
        <ele>1286</ele>
        <time>2019-01-20T08:10:15.000Z</time>
      </trkpt>
      <trkpt lat="45.17994" lon="5.90831">
        <ele>1286</ele>
        <time>2019-01-20T08:10:16.000Z</time>
      </trkpt>
      <trkpt lat="45.17992" lon="5.90832">
        <ele>1286</ele>
        <time>2019-01-20T08:10:17.000Z</time>
      </trkpt>
      <trkpt lat="45.17992" lon="5.90832">
        <ele>1286</ele>
        <time>2019-01-20T08:10:18.000Z</time>
      </trkpt>
      <trkpt lat="45.17989" lon="5.90833">
        <ele>1287</ele>
        <time>2019-01-20T08:10:19.000Z</time>
      </trkpt>
      <trkpt lat="45.17989" lon="5.90833">
        <ele>1287</ele>
        <time>2019-01-20T08:10:20.000Z</time>
      </trkpt>
      <trkpt lat="45.17987" lon="5.90834">
        <ele>1287</ele>
        <time>2019-01-20T08:10:21.000Z</time>
      </trkpt>
      <trkpt lat="45.17987" lon="5.90834">
        <ele>1288</ele>
        <time>2019-01-20T08:10:22.000Z</time>
      </trkpt>
      <trkpt lat="45.17984" lon="5.90834">
        <ele>1288</ele>
        <time>2019-01-20T08:10:23.000Z</time>
      </trkpt>
      <trkpt lat="45.17984" lon="5.90834">
        <ele>1288</ele>
        <time>2019-01-20T08:10:24.000Z</time>
      </trkpt>
      <trkpt lat="45.17981" lon="5.90836">
        <ele>1288</ele>
        <time>2019-01-20T08:10:25.000Z</time>
      </trkpt>
      <trkpt lat="45.17981" lon="5.90836">
        <ele>1288</ele>
        <time>2019-01-20T08:10:26.000Z</time>
      </trkpt>
      <trkpt lat="45.17979" lon="5.90838">
        <ele>1288</ele>
        <time>2019-01-20T08:10:27.000Z</time>
      </trkpt>
      <trkpt lat="45.17979" lon="5.90838">
        <ele>1288</ele>
        <time>2019-01-20T08:10:28.000Z</time>
      </trkpt>
      <trkpt lat="45.17976" lon="5.9084">
        <ele>1288</ele>
        <time>2019-01-20T08:10:29.000Z</time>
      </trkpt>
      <trkpt lat="45.17974" lon="5.90842">
        <ele>1288</ele>
        <time>2019-01-20T08:10:30.000Z</time>
      </trkpt>
      <trkpt lat="45.17972" lon="5.90843">
        <ele>1289</ele>
        <time>2019-01-20T08:10:31.000Z</time>
      </trkpt>
      <trkpt lat="45.17969" lon="5.90843">
        <ele>1289</ele>
        <time>2019-01-20T08:10:33.000Z</time>
      </trkpt>
      <trkpt lat="45.17969" lon="5.90843">
        <ele>1289</ele>
        <time>2019-01-20T08:10:34.000Z</time>
      </trkpt>
      <trkpt lat="45.17967" lon="5.90845">
        <ele>1290</ele>
        <time>2019-01-20T08:10:35.000Z</time>
      </trkpt>
      <trkpt lat="45.17967" lon="5.90845">
        <ele>1290</ele>
        <time>2019-01-20T08:10:36.000Z</time>
      </trkpt>
      <trkpt lat="45.17964" lon="5.90846">
        <ele>1290</ele>
        <time>2019-01-20T08:10:37.000Z</time>
      </trkpt>
      <trkpt lat="45.17964" lon="5.90846">
        <ele>1291</ele>
        <time>2019-01-20T08:10:38.000Z</time>
      </trkpt>
      <trkpt lat="45.17962" lon="5.90847">
        <ele>1291</ele>
        <time>2019-01-20T08:10:39.000Z</time>
      </trkpt>
      <trkpt lat="45.17962" lon="5.90847">
        <ele>1292</ele>
        <time>2019-01-20T08:10:40.000Z</time>
      </trkpt>
      <trkpt lat="45.17962" lon="5.90847">
        <ele>1292</ele>
        <time>2019-01-20T08:10:41.000Z</time>
      </trkpt>
      <trkpt lat="45.1796" lon="5.90849">
        <ele>1292</ele>
        <time>2019-01-20T08:10:42.000Z</time>
      </trkpt>
      <trkpt lat="45.1796" lon="5.90849">
        <ele>1292</ele>
        <time>2019-01-20T08:10:43.000Z</time>
      </trkpt>
      <trkpt lat="45.1796" lon="5.90849">
        <ele>1292</ele>
        <time>2019-01-20T08:10:44.000Z</time>
      </trkpt>
      <trkpt lat="45.17958" lon="5.9085">
        <ele>1292</ele>
        <time>2019-01-20T08:10:45.000Z</time>
      </trkpt>
      <trkpt lat="45.17958" lon="5.9085">
        <ele>1292</ele>
        <time>2019-01-20T08:10:46.000Z</time>
      </trkpt>
      <trkpt lat="45.17956" lon="5.9085">
        <ele>1292</ele>
        <time>2019-01-20T08:10:47.000Z</time>
      </trkpt>
      <trkpt lat="45.17956" lon="5.9085">
        <ele>1292</ele>
        <time>2019-01-20T08:10:48.000Z</time>
      </trkpt>
      <trkpt lat="45.17954" lon="5.90851">
        <ele>1292</ele>
        <time>2019-01-20T08:10:49.000Z</time>
      </trkpt>
      <trkpt lat="45.17954" lon="5.90851">
        <ele>1292.4</ele>
        <time>2019-01-20T08:10:50.000Z</time>
      </trkpt>
      <trkpt lat="45.17952" lon="5.90853">
        <ele>1292.4</ele>
        <time>2019-01-20T08:10:51.000Z</time>
      </trkpt>
      <trkpt lat="45.17952" lon="5.90853">
        <ele>1293</ele>
        <time>2019-01-20T08:10:52.000Z</time>
      </trkpt>
      <trkpt lat="45.17949" lon="5.90855">
        <ele>1293</ele>
        <time>2019-01-20T08:10:53.000Z</time>
      </trkpt>
      <trkpt lat="45.17949" lon="5.90855">
        <ele>1293</ele>
        <time>2019-01-20T08:10:54.000Z</time>
      </trkpt>
      <trkpt lat="45.17947" lon="5.90856">
        <ele>1293</ele>
        <time>2019-01-20T08:10:55.000Z</time>
      </trkpt>
      <trkpt lat="45.17947" lon="5.90856">
        <ele>1293</ele>
        <time>2019-01-20T08:10:56.000Z</time>
      </trkpt>
      <trkpt lat="45.17945" lon="5.90858">
        <ele>1293</ele>
        <time>2019-01-20T08:10:57.000Z</time>
      </trkpt>
      <trkpt lat="45.17945" lon="5.90858">
        <ele>1294</ele>
        <time>2019-01-20T08:10:58.000Z</time>
      </trkpt>
      <trkpt lat="45.17942" lon="5.9086">
        <ele>1294</ele>
        <time>2019-01-20T08:10:59.000Z</time>
      </trkpt>
      <trkpt lat="45.17942" lon="5.9086">
        <ele>1294</ele>
        <time>2019-01-20T08:11:00.000Z</time>
      </trkpt>
      <trkpt lat="45.1794" lon="5.90862">
        <ele>1294</ele>
        <time>2019-01-20T08:11:01.000Z</time>
      </trkpt>
      <trkpt lat="45.1794" lon="5.90862">
        <ele>1294</ele>
        <time>2019-01-20T08:11:02.000Z</time>
      </trkpt>
      <trkpt lat="45.17938" lon="5.90863">
        <ele>1294</ele>
        <time>2019-01-20T08:11:03.000Z</time>
      </trkpt>
      <trkpt lat="45.17938" lon="5.90863">
        <ele>1294</ele>
        <time>2019-01-20T08:11:04.000Z</time>
      </trkpt>
      <trkpt lat="45.17937" lon="5.90865">
        <ele>1295</ele>
        <time>2019-01-20T08:11:05.000Z</time>
      </trkpt>
      <trkpt lat="45.17937" lon="5.90865">
        <ele>1295</ele>
        <time>2019-01-20T08:11:06.000Z</time>
      </trkpt>
      <trkpt lat="45.17934" lon="5.90867">
        <ele>1295</ele>
        <time>2019-01-20T08:11:07.000Z</time>
      </trkpt>
      <trkpt lat="45.17934" lon="5.90867">
        <ele>1296</ele>
        <time>2019-01-20T08:11:08.000Z</time>
      </trkpt>
      <trkpt lat="45.17933" lon="5.9087">
        <ele>1296</ele>
        <time>2019-01-20T08:11:09.000Z</time>
      </trkpt>
      <trkpt lat="45.17931" lon="5.90871">
        <ele>1296</ele>
        <time>2019-01-20T08:11:11.000Z</time>
      </trkpt>
      <trkpt lat="45.17931" lon="5.90871">
        <ele>1296</ele>
        <time>2019-01-20T08:11:12.000Z</time>
      </trkpt>
      <trkpt lat="45.17929" lon="5.90874">
        <ele>1296</ele>
        <time>2019-01-20T08:11:13.000Z</time>
      </trkpt>
      <trkpt lat="45.17929" lon="5.90874">
        <ele>1296</ele>
        <time>2019-01-20T08:11:14.000Z</time>
      </trkpt>
      <trkpt lat="45.17927" lon="5.90876">
        <ele>1296</ele>
        <time>2019-01-20T08:11:15.000Z</time>
      </trkpt>
      <trkpt lat="45.17927" lon="5.90876">
        <ele>1296</ele>
        <time>2019-01-20T08:11:16.000Z</time>
      </trkpt>
      <trkpt lat="45.17926" lon="5.90878">
        <ele>1296</ele>
        <time>2019-01-20T08:11:17.000Z</time>
      </trkpt>
      <trkpt lat="45.17926" lon="5.90878">
        <ele>1297</ele>
        <time>2019-01-20T08:11:18.000Z</time>
      </trkpt>
      <trkpt lat="45.17925" lon="5.90881">
        <ele>1297</ele>
        <time>2019-01-20T08:11:19.000Z</time>
      </trkpt>
      <trkpt lat="45.17925" lon="5.90881">
        <ele>1297</ele>
        <time>2019-01-20T08:11:20.000Z</time>
      </trkpt>
      <trkpt lat="45.17923" lon="5.90883">
        <ele>1297</ele>
        <time>2019-01-20T08:11:21.000Z</time>
      </trkpt>
      <trkpt lat="45.17923" lon="5.90883">
        <ele>1298</ele>
        <time>2019-01-20T08:11:22.000Z</time>
      </trkpt>
      <trkpt lat="45.17922" lon="5.90886">
        <ele>1298</ele>
        <time>2019-01-20T08:11:23.000Z</time>
      </trkpt>
      <trkpt lat="45.17922" lon="5.90886">
        <ele>1298</ele>
        <time>2019-01-20T08:11:24.000Z</time>
      </trkpt>
      <trkpt lat="45.1792" lon="5.90888">
        <ele>1298</ele>
        <time>2019-01-20T08:11:25.000Z</time>
      </trkpt>
      <trkpt lat="45.1792" lon="5.90888">
        <ele>1299</ele>
        <time>2019-01-20T08:11:26.000Z</time>
      </trkpt>
      <trkpt lat="45.17918" lon="5.90891">
        <ele>1299</ele>
        <time>2019-01-20T08:11:27.000Z</time>
      </trkpt>
      <trkpt lat="45.17918" lon="5.90891">
        <ele>1299</ele>
        <time>2019-01-20T08:11:28.000Z</time>
      </trkpt>
      <trkpt lat="45.17916" lon="5.90893">
        <ele>1299</ele>
        <time>2019-01-20T08:11:29.000Z</time>
      </trkpt>
      <trkpt lat="45.17916" lon="5.90893">
        <ele>1299</ele>
        <time>2019-01-20T08:11:30.000Z</time>
      </trkpt>
      <trkpt lat="45.17914" lon="5.90896">
        <ele>1299</ele>
        <time>2019-01-20T08:11:31.000Z</time>
      </trkpt>
      <trkpt lat="45.17914" lon="5.90896">
        <ele>1299</ele>
        <time>2019-01-20T08:11:32.000Z</time>
      </trkpt>
      <trkpt lat="45.17912" lon="5.90899">
        <ele>1299</ele>
        <time>2019-01-20T08:11:33.000Z</time>
      </trkpt>
      <trkpt lat="45.17912" lon="5.90899">
        <ele>1299</ele>
        <time>2019-01-20T08:11:34.000Z</time>
      </trkpt>
      <trkpt lat="45.1791" lon="5.90902">
        <ele>1300</ele>
        <time>2019-01-20T08:11:35.000Z</time>
      </trkpt>
      <trkpt lat="45.1791" lon="5.90902">
        <ele>1300</ele>
        <time>2019-01-20T08:11:36.000Z</time>
      </trkpt>
      <trkpt lat="45.17909" lon="5.90905">
        <ele>1300</ele>
        <time>2019-01-20T08:11:37.000Z</time>
      </trkpt>
      <trkpt lat="45.17909" lon="5.90905">
        <ele>1300</ele>
        <time>2019-01-20T08:11:38.000Z</time>
      </trkpt>
      <trkpt lat="45.17907" lon="5.90907">
        <ele>1300</ele>
        <time>2019-01-20T08:11:39.000Z</time>
      </trkpt>
      <trkpt lat="45.17907" lon="5.90907">
        <ele>1301</ele>
        <time>2019-01-20T08:11:40.000Z</time>
      </trkpt>
      <trkpt lat="45.17906" lon="5.90909">
        <ele>1301</ele>
        <time>2019-01-20T08:11:41.000Z</time>
      </trkpt>
      <trkpt lat="45.17906" lon="5.90909">
        <ele>1301</ele>
        <time>2019-01-20T08:11:42.000Z</time>
      </trkpt>
      <trkpt lat="45.17905" lon="5.90912">
        <ele>1301</ele>
        <time>2019-01-20T08:11:43.000Z</time>
      </trkpt>
      <trkpt lat="45.17905" lon="5.90912">
        <ele>1301</ele>
        <time>2019-01-20T08:11:44.000Z</time>
      </trkpt>
      <trkpt lat="45.17903" lon="5.90915">
        <ele>1301</ele>
        <time>2019-01-20T08:11:45.000Z</time>
      </trkpt>
      <trkpt lat="45.17903" lon="5.90915">
        <ele>1301</ele>
        <time>2019-01-20T08:11:46.000Z</time>
      </trkpt>
      <trkpt lat="45.17902" lon="5.90919">
        <ele>1301</ele>
        <time>2019-01-20T08:11:47.000Z</time>
      </trkpt>
      <trkpt lat="45.17901" lon="5.90922">
        <ele>1301</ele>
        <time>2019-01-20T08:11:49.000Z</time>
      </trkpt>
      <trkpt lat="45.17901" lon="5.90922">
        <ele>1301</ele>
        <time>2019-01-20T08:11:50.000Z</time>
      </trkpt>
      <trkpt lat="45.179" lon="5.90925">
        <ele>1301</ele>
        <time>2019-01-20T08:11:51.000Z</time>
      </trkpt>
      <trkpt lat="45.179" lon="5.90925">
        <ele>1302</ele>
        <time>2019-01-20T08:11:52.000Z</time>
      </trkpt>
      <trkpt lat="45.17898" lon="5.90928">
        <ele>1302</ele>
        <time>2019-01-20T08:11:53.000Z</time>
      </trkpt>
      <trkpt lat="45.17898" lon="5.90928">
        <ele>1302</ele>
        <time>2019-01-20T08:11:54.000Z</time>
      </trkpt>
      <trkpt lat="45.17896" lon="5.90931">
        <ele>1302</ele>
        <time>2019-01-20T08:11:55.000Z</time>
      </trkpt>
      <trkpt lat="45.17896" lon="5.90931">
        <ele>1302</ele>
        <time>2019-01-20T08:11:56.000Z</time>
      </trkpt>
      <trkpt lat="45.17895" lon="5.90934">
        <ele>1302</ele>
        <time>2019-01-20T08:11:57.000Z</time>
      </trkpt>
      <trkpt lat="45.17895" lon="5.90934">
        <ele>1302</ele>
        <time>2019-01-20T08:11:58.000Z</time>
      </trkpt>
      <trkpt lat="45.17893" lon="5.90938">
        <ele>1302</ele>
        <time>2019-01-20T08:11:59.000Z</time>
      </trkpt>
      <trkpt lat="45.17893" lon="5.90938">
        <ele>1302</ele>
        <time>2019-01-20T08:12:00.000Z</time>
      </trkpt>
      <trkpt lat="45.17892" lon="5.90942">
        <ele>1302</ele>
        <time>2019-01-20T08:12:01.000Z</time>
      </trkpt>
      <trkpt lat="45.17892" lon="5.90942">
        <ele>1302</ele>
        <time>2019-01-20T08:12:02.000Z</time>
      </trkpt>
      <trkpt lat="45.17891" lon="5.90946">
        <ele>1303</ele>
        <time>2019-01-20T08:12:03.000Z</time>
      </trkpt>
      <trkpt lat="45.17891" lon="5.90946">
        <ele>1303</ele>
        <time>2019-01-20T08:12:04.000Z</time>
      </trkpt>
      <trkpt lat="45.1789" lon="5.9095">
        <ele>1303</ele>
        <time>2019-01-20T08:12:05.000Z</time>
      </trkpt>
      <trkpt lat="45.1789" lon="5.9095">
        <ele>1303</ele>
        <time>2019-01-20T08:12:06.000Z</time>
      </trkpt>
      <trkpt lat="45.17887" lon="5.90954">
        <ele>1303</ele>
        <time>2019-01-20T08:12:07.000Z</time>
      </trkpt>
      <trkpt lat="45.17887" lon="5.90954">
        <ele>1304</ele>
        <time>2019-01-20T08:12:08.000Z</time>
      </trkpt>
      <trkpt lat="45.17886" lon="5.90958">
        <ele>1304</ele>
        <time>2019-01-20T08:12:09.000Z</time>
      </trkpt>
      <trkpt lat="45.17886" lon="5.90958">
        <ele>1304</ele>
        <time>2019-01-20T08:12:10.000Z</time>
      </trkpt>
      <trkpt lat="45.17884" lon="5.90961">
        <ele>1304</ele>
        <time>2019-01-20T08:12:11.000Z</time>
      </trkpt>
      <trkpt lat="45.17884" lon="5.90961">
        <ele>1304</ele>
        <time>2019-01-20T08:12:12.000Z</time>
      </trkpt>
      <trkpt lat="45.17884" lon="5.90964">
        <ele>1304</ele>
        <time>2019-01-20T08:12:13.000Z</time>
      </trkpt>
      <trkpt lat="45.17884" lon="5.90964">
        <ele>1304</ele>
        <time>2019-01-20T08:12:14.000Z</time>
      </trkpt>
      <trkpt lat="45.17883" lon="5.90967">
        <ele>1305</ele>
        <time>2019-01-20T08:12:15.000Z</time>
      </trkpt>
      <trkpt lat="45.17883" lon="5.90967">
        <ele>1305</ele>
        <time>2019-01-20T08:12:16.000Z</time>
      </trkpt>
      <trkpt lat="45.1788" lon="5.90971">
        <ele>1305</ele>
        <time>2019-01-20T08:12:17.000Z</time>
      </trkpt>
      <trkpt lat="45.1788" lon="5.90971">
        <ele>1305</ele>
        <time>2019-01-20T08:12:18.000Z</time>
      </trkpt>
      <trkpt lat="45.17878" lon="5.90974">
        <ele>1305</ele>
        <time>2019-01-20T08:12:19.000Z</time>
      </trkpt>
      <trkpt lat="45.17877" lon="5.90975">
        <ele>1305</ele>
        <time>2019-01-20T08:12:20.000Z</time>
      </trkpt>
      <trkpt lat="45.17876" lon="5.90976">
        <ele>1305</ele>
        <time>2019-01-20T08:12:21.000Z</time>
      </trkpt>
      <trkpt lat="45.17875" lon="5.90977">
        <ele>1305</ele>
        <time>2019-01-20T08:12:22.000Z</time>
      </trkpt>
      <trkpt lat="45.17875" lon="5.90977">
        <ele>1305</ele>
        <time>2019-01-20T08:12:23.000Z</time>
      </trkpt>
      <trkpt lat="45.1787" lon="5.90982">
        <ele>1305</ele>
        <time>2019-01-20T08:12:24.000Z</time>
      </trkpt>
      <trkpt lat="45.17869" lon="5.90985">
        <ele>1305</ele>
        <time>2019-01-20T08:12:25.000Z</time>
      </trkpt>
      <trkpt lat="45.17866" lon="5.90987">
        <ele>1305.6</ele>
        <time>2019-01-20T08:12:27.000Z</time>
      </trkpt>
      <trkpt lat="45.17866" lon="5.90987">
        <ele>1306</ele>
        <time>2019-01-20T08:12:28.000Z</time>
      </trkpt>
      <trkpt lat="45.17863" lon="5.9099">
        <ele>1306</ele>
        <time>2019-01-20T08:12:29.000Z</time>
      </trkpt>
      <trkpt lat="45.17863" lon="5.9099">
        <ele>1306</ele>
        <time>2019-01-20T08:12:30.000Z</time>
      </trkpt>
      <trkpt lat="45.17861" lon="5.90992">
        <ele>1306</ele>
        <time>2019-01-20T08:12:31.000Z</time>
      </trkpt>
      <trkpt lat="45.17861" lon="5.90992">
        <ele>1306</ele>
        <time>2019-01-20T08:12:32.000Z</time>
      </trkpt>
      <trkpt lat="45.17858" lon="5.90994">
        <ele>1306</ele>
        <time>2019-01-20T08:12:33.000Z</time>
      </trkpt>
      <trkpt lat="45.17858" lon="5.90994">
        <ele>1306</ele>
        <time>2019-01-20T08:12:34.000Z</time>
      </trkpt>
      <trkpt lat="45.17856" lon="5.90995">
        <ele>1306</ele>
        <time>2019-01-20T08:12:35.000Z</time>
      </trkpt>
      <trkpt lat="45.17856" lon="5.90995">
        <ele>1306</ele>
        <time>2019-01-20T08:12:36.000Z</time>
      </trkpt>
      <trkpt lat="45.17853" lon="5.90994">
        <ele>1306</ele>
        <time>2019-01-20T08:12:37.000Z</time>
      </trkpt>
      <trkpt lat="45.17853" lon="5.90994">
        <ele>1307</ele>
        <time>2019-01-20T08:12:38.000Z</time>
      </trkpt>
      <trkpt lat="45.1785" lon="5.90994">
        <ele>1307</ele>
        <time>2019-01-20T08:12:39.000Z</time>
      </trkpt>
      <trkpt lat="45.1785" lon="5.90994">
        <ele>1307</ele>
        <time>2019-01-20T08:12:40.000Z</time>
      </trkpt>
      <trkpt lat="45.17847" lon="5.90994">
        <ele>1307</ele>
        <time>2019-01-20T08:12:41.000Z</time>
      </trkpt>
      <trkpt lat="45.17847" lon="5.90994">
        <ele>1307</ele>
        <time>2019-01-20T08:12:42.000Z</time>
      </trkpt>
      <trkpt lat="45.17844" lon="5.90994">
        <ele>1307</ele>
        <time>2019-01-20T08:12:43.000Z</time>
      </trkpt>
      <trkpt lat="45.17844" lon="5.90994">
        <ele>1307</ele>
        <time>2019-01-20T08:12:44.000Z</time>
      </trkpt>
      <trkpt lat="45.17842" lon="5.90994">
        <ele>1307</ele>
        <time>2019-01-20T08:12:45.000Z</time>
      </trkpt>
      <trkpt lat="45.17842" lon="5.90994">
        <ele>1307</ele>
        <time>2019-01-20T08:12:46.000Z</time>
      </trkpt>
      <trkpt lat="45.17839" lon="5.90994">
        <ele>1307</ele>
        <time>2019-01-20T08:12:47.000Z</time>
      </trkpt>
      <trkpt lat="45.17839" lon="5.90994">
        <ele>1308</ele>
        <time>2019-01-20T08:12:48.000Z</time>
      </trkpt>
      <trkpt lat="45.17836" lon="5.90994">
        <ele>1308</ele>
        <time>2019-01-20T08:12:49.000Z</time>
      </trkpt>
      <trkpt lat="45.17836" lon="5.90994">
        <ele>1308</ele>
        <time>2019-01-20T08:12:50.000Z</time>
      </trkpt>
      <trkpt lat="45.17834" lon="5.90994">
        <ele>1308</ele>
        <time>2019-01-20T08:12:51.000Z</time>
      </trkpt>
      <trkpt lat="45.17834" lon="5.90994">
        <ele>1308</ele>
        <time>2019-01-20T08:12:52.000Z</time>
      </trkpt>
      <trkpt lat="45.17831" lon="5.90993">
        <ele>1308</ele>
        <time>2019-01-20T08:12:53.000Z</time>
      </trkpt>
      <trkpt lat="45.17831" lon="5.90993">
        <ele>1308</ele>
        <time>2019-01-20T08:12:54.000Z</time>
      </trkpt>
      <trkpt lat="45.17829" lon="5.90993">
        <ele>1309</ele>
        <time>2019-01-20T08:12:55.000Z</time>
      </trkpt>
      <trkpt lat="45.17829" lon="5.90993">
        <ele>1309</ele>
        <time>2019-01-20T08:12:56.000Z</time>
      </trkpt>
      <trkpt lat="45.17827" lon="5.90991">
        <ele>1309</ele>
        <time>2019-01-20T08:12:57.000Z</time>
      </trkpt>
      <trkpt lat="45.17827" lon="5.90991">
        <ele>1309</ele>
        <time>2019-01-20T08:12:58.000Z</time>
      </trkpt>
      <trkpt lat="45.17825" lon="5.9099">
        <ele>1309</ele>
        <time>2019-01-20T08:12:59.000Z</time>
      </trkpt>
      <trkpt lat="45.17825" lon="5.9099">
        <ele>1309</ele>
        <time>2019-01-20T08:13:00.000Z</time>
      </trkpt>
      <trkpt lat="45.17823" lon="5.90989">
        <ele>1310</ele>
        <time>2019-01-20T08:13:01.000Z</time>
      </trkpt>
      <trkpt lat="45.17823" lon="5.90989">
        <ele>1310</ele>
        <time>2019-01-20T08:13:02.000Z</time>
      </trkpt>
      <trkpt lat="45.17821" lon="5.90988">
        <ele>1310</ele>
        <time>2019-01-20T08:13:03.000Z</time>
      </trkpt>
      <trkpt lat="45.17821" lon="5.90988">
        <ele>1310.4</ele>
        <time>2019-01-20T08:13:05.000Z</time>
      </trkpt>
      <trkpt lat="45.17818" lon="5.90986">
        <ele>1311</ele>
        <time>2019-01-20T08:13:06.000Z</time>
      </trkpt>
      <trkpt lat="45.17818" lon="5.90986">
        <ele>1311</ele>
        <time>2019-01-20T08:13:07.000Z</time>
      </trkpt>
      <trkpt lat="45.17816" lon="5.90986">
        <ele>1311</ele>
        <time>2019-01-20T08:13:08.000Z</time>
      </trkpt>
      <trkpt lat="45.17816" lon="5.90986">
        <ele>1311</ele>
        <time>2019-01-20T08:13:09.000Z</time>
      </trkpt>
      <trkpt lat="45.17814" lon="5.90985">
        <ele>1311</ele>
        <time>2019-01-20T08:13:10.000Z</time>
      </trkpt>
      <trkpt lat="45.17814" lon="5.90985">
        <ele>1311</ele>
        <time>2019-01-20T08:13:11.000Z</time>
      </trkpt>
      <trkpt lat="45.17811" lon="5.90984">
        <ele>1311</ele>
        <time>2019-01-20T08:13:12.000Z</time>
      </trkpt>
      <trkpt lat="45.17811" lon="5.90984">
        <ele>1311</ele>
        <time>2019-01-20T08:13:13.000Z</time>
      </trkpt>
      <trkpt lat="45.17808" lon="5.90983">
        <ele>1311</ele>
        <time>2019-01-20T08:13:14.000Z</time>
      </trkpt>
      <trkpt lat="45.17808" lon="5.90983">
        <ele>1312</ele>
        <time>2019-01-20T08:13:15.000Z</time>
      </trkpt>
      <trkpt lat="45.17806" lon="5.90981">
        <ele>1312</ele>
        <time>2019-01-20T08:13:16.000Z</time>
      </trkpt>
      <trkpt lat="45.17806" lon="5.90981">
        <ele>1312</ele>
        <time>2019-01-20T08:13:17.000Z</time>
      </trkpt>
      <trkpt lat="45.17804" lon="5.9098">
        <ele>1312</ele>
        <time>2019-01-20T08:13:18.000Z</time>
      </trkpt>
      <trkpt lat="45.17804" lon="5.9098">
        <ele>1313</ele>
        <time>2019-01-20T08:13:19.000Z</time>
      </trkpt>
      <trkpt lat="45.17801" lon="5.90979">
        <ele>1313</ele>
        <time>2019-01-20T08:13:20.000Z</time>
      </trkpt>
      <trkpt lat="45.17801" lon="5.90979">
        <ele>1313</ele>
        <time>2019-01-20T08:13:21.000Z</time>
      </trkpt>
      <trkpt lat="45.17801" lon="5.90979">
        <ele>1313</ele>
        <time>2019-01-20T08:13:22.000Z</time>
      </trkpt>
      <trkpt lat="45.17801" lon="5.90979">
        <ele>1313</ele>
        <time>2019-01-20T08:13:24.000Z</time>
      </trkpt>
      <trkpt lat="45.17794" lon="5.90975">
        <ele>1313</ele>
        <time>2019-01-20T08:13:25.000Z</time>
      </trkpt>
      <trkpt lat="45.17794" lon="5.90975">
        <ele>1314</ele>
        <time>2019-01-20T08:13:26.000Z</time>
      </trkpt>
      <trkpt lat="45.17793" lon="5.90973">
        <ele>1314</ele>
        <time>2019-01-20T08:13:27.000Z</time>
      </trkpt>
      <trkpt lat="45.17793" lon="5.90973">
        <ele>1315</ele>
        <time>2019-01-20T08:13:28.000Z</time>
      </trkpt>
      <trkpt lat="45.17791" lon="5.90973">
        <ele>1315</ele>
        <time>2019-01-20T08:13:29.000Z</time>
      </trkpt>
      <trkpt lat="45.17791" lon="5.90973">
        <ele>1315</ele>
        <time>2019-01-20T08:13:30.000Z</time>
      </trkpt>
      <trkpt lat="45.17789" lon="5.90972">
        <ele>1315</ele>
        <time>2019-01-20T08:13:31.000Z</time>
      </trkpt>
      <trkpt lat="45.17789" lon="5.90972">
        <ele>1315</ele>
        <time>2019-01-20T08:13:32.000Z</time>
      </trkpt>
      <trkpt lat="45.17786" lon="5.9097">
        <ele>1315</ele>
        <time>2019-01-20T08:13:33.000Z</time>
      </trkpt>
      <trkpt lat="45.17786" lon="5.9097">
        <ele>1315</ele>
        <time>2019-01-20T08:13:34.000Z</time>
      </trkpt>
      <trkpt lat="45.17784" lon="5.90968">
        <ele>1315</ele>
        <time>2019-01-20T08:13:35.000Z</time>
      </trkpt>
      <trkpt lat="45.17784" lon="5.90968">
        <ele>1315</ele>
        <time>2019-01-20T08:13:36.000Z</time>
      </trkpt>
      <trkpt lat="45.17782" lon="5.90966">
        <ele>1315</ele>
        <time>2019-01-20T08:13:37.000Z</time>
      </trkpt>
      <trkpt lat="45.17782" lon="5.90966">
        <ele>1315</ele>
        <time>2019-01-20T08:13:38.000Z</time>
      </trkpt>
      <trkpt lat="45.17779" lon="5.90965">
        <ele>1315</ele>
        <time>2019-01-20T08:13:39.000Z</time>
      </trkpt>
      <trkpt lat="45.17779" lon="5.90965">
        <ele>1316</ele>
        <time>2019-01-20T08:13:40.000Z</time>
      </trkpt>
      <trkpt lat="45.17778" lon="5.90963">
        <ele>1316</ele>
        <time>2019-01-20T08:13:41.000Z</time>
      </trkpt>
      <trkpt lat="45.17776" lon="5.90961">
        <ele>1316</ele>
        <time>2019-01-20T08:13:43.000Z</time>
      </trkpt>
      <trkpt lat="45.17776" lon="5.90961">
        <ele>1316</ele>
        <time>2019-01-20T08:13:44.000Z</time>
      </trkpt>
      <trkpt lat="45.17772" lon="5.9096">
        <ele>1316</ele>
        <time>2019-01-20T08:13:45.000Z</time>
      </trkpt>
      <trkpt lat="45.17772" lon="5.9096">
        <ele>1316</ele>
        <time>2019-01-20T08:13:46.000Z</time>
      </trkpt>
      <trkpt lat="45.1777" lon="5.90958">
        <ele>1317</ele>
        <time>2019-01-20T08:13:47.000Z</time>
      </trkpt>
      <trkpt lat="45.1777" lon="5.90958">
        <ele>1317</ele>
        <time>2019-01-20T08:13:48.000Z</time>
      </trkpt>
      <trkpt lat="45.17768" lon="5.90956">
        <ele>1317</ele>
        <time>2019-01-20T08:13:49.000Z</time>
      </trkpt>
      <trkpt lat="45.17768" lon="5.90956">
        <ele>1317</ele>
        <time>2019-01-20T08:13:50.000Z</time>
      </trkpt>
      <trkpt lat="45.17766" lon="5.90954">
        <ele>1317</ele>
        <time>2019-01-20T08:13:51.000Z</time>
      </trkpt>
      <trkpt lat="45.17766" lon="5.90954">
        <ele>1318</ele>
        <time>2019-01-20T08:13:52.000Z</time>
      </trkpt>
      <trkpt lat="45.17763" lon="5.90953">
        <ele>1318</ele>
        <time>2019-01-20T08:13:53.000Z</time>
      </trkpt>
      <trkpt lat="45.17763" lon="5.90953">
        <ele>1318</ele>
        <time>2019-01-20T08:13:54.000Z</time>
      </trkpt>
      <trkpt lat="45.17761" lon="5.90951">
        <ele>1318</ele>
        <time>2019-01-20T08:13:55.000Z</time>
      </trkpt>
      <trkpt lat="45.17761" lon="5.90951">
        <ele>1318</ele>
        <time>2019-01-20T08:13:56.000Z</time>
      </trkpt>
      <trkpt lat="45.17759" lon="5.9095">
        <ele>1318</ele>
        <time>2019-01-20T08:13:57.000Z</time>
      </trkpt>
      <trkpt lat="45.17759" lon="5.9095">
        <ele>1318</ele>
        <time>2019-01-20T08:13:58.000Z</time>
      </trkpt>
      <trkpt lat="45.17757" lon="5.90948">
        <ele>1318</ele>
        <time>2019-01-20T08:13:59.000Z</time>
      </trkpt>
      <trkpt lat="45.17757" lon="5.90948">
        <ele>1319</ele>
        <time>2019-01-20T08:14:00.000Z</time>
      </trkpt>
      <trkpt lat="45.17755" lon="5.90946">
        <ele>1319</ele>
        <time>2019-01-20T08:14:01.000Z</time>
      </trkpt>
      <trkpt lat="45.17755" lon="5.90946">
        <ele>1319</ele>
        <time>2019-01-20T08:14:02.000Z</time>
      </trkpt>
      <trkpt lat="45.17752" lon="5.90944">
        <ele>1319</ele>
        <time>2019-01-20T08:14:03.000Z</time>
      </trkpt>
      <trkpt lat="45.17752" lon="5.90944">
        <ele>1319</ele>
        <time>2019-01-20T08:14:04.000Z</time>
      </trkpt>
      <trkpt lat="45.1775" lon="5.90942">
        <ele>1319</ele>
        <time>2019-01-20T08:14:05.000Z</time>
      </trkpt>
      <trkpt lat="45.1775" lon="5.90942">
        <ele>1320</ele>
        <time>2019-01-20T08:14:06.000Z</time>
      </trkpt>
      <trkpt lat="45.17748" lon="5.9094">
        <ele>1320</ele>
        <time>2019-01-20T08:14:07.000Z</time>
      </trkpt>
      <trkpt lat="45.17748" lon="5.9094">
        <ele>1320</ele>
        <time>2019-01-20T08:14:08.000Z</time>
      </trkpt>
      <trkpt lat="45.17745" lon="5.90938">
        <ele>1320</ele>
        <time>2019-01-20T08:14:09.000Z</time>
      </trkpt>
      <trkpt lat="45.17745" lon="5.90938">
        <ele>1320</ele>
        <time>2019-01-20T08:14:10.000Z</time>
      </trkpt>
      <trkpt lat="45.17743" lon="5.90937">
        <ele>1321</ele>
        <time>2019-01-20T08:14:11.000Z</time>
      </trkpt>
      <trkpt lat="45.17743" lon="5.90937">
        <ele>1321</ele>
        <time>2019-01-20T08:14:12.000Z</time>
      </trkpt>
      <trkpt lat="45.1774" lon="5.90935">
        <ele>1321</ele>
        <time>2019-01-20T08:14:13.000Z</time>
      </trkpt>
      <trkpt lat="45.1774" lon="5.90935">
        <ele>1321</ele>
        <time>2019-01-20T08:14:14.000Z</time>
      </trkpt>
      <trkpt lat="45.17738" lon="5.90933">
        <ele>1321</ele>
        <time>2019-01-20T08:14:15.000Z</time>
      </trkpt>
      <trkpt lat="45.17738" lon="5.90933">
        <ele>1321</ele>
        <time>2019-01-20T08:14:16.000Z</time>
      </trkpt>
      <trkpt lat="45.17736" lon="5.90931">
        <ele>1322</ele>
        <time>2019-01-20T08:14:17.000Z</time>
      </trkpt>
      <trkpt lat="45.17736" lon="5.90931">
        <ele>1322</ele>
        <time>2019-01-20T08:14:18.000Z</time>
      </trkpt>
      <trkpt lat="45.17733" lon="5.90929">
        <ele>1322</ele>
        <time>2019-01-20T08:14:19.000Z</time>
      </trkpt>
      <trkpt lat="45.17733" lon="5.90929">
        <ele>1322</ele>
        <time>2019-01-20T08:14:20.000Z</time>
      </trkpt>
      <trkpt lat="45.17731" lon="5.90928">
        <ele>1322</ele>
        <time>2019-01-20T08:14:21.000Z</time>
      </trkpt>
      <trkpt lat="45.17731" lon="5.90928">
        <ele>1322</ele>
        <time>2019-01-20T08:14:22.000Z</time>
      </trkpt>
      <trkpt lat="45.17729" lon="5.90926">
        <ele>1322</ele>
        <time>2019-01-20T08:14:23.000Z</time>
      </trkpt>
      <trkpt lat="45.17729" lon="5.90926">
        <ele>1323</ele>
        <time>2019-01-20T08:14:24.000Z</time>
      </trkpt>
      <trkpt lat="45.17727" lon="5.90924">
        <ele>1323</ele>
        <time>2019-01-20T08:14:25.000Z</time>
      </trkpt>
      <trkpt lat="45.17727" lon="5.90924">
        <ele>1323</ele>
        <time>2019-01-20T08:14:26.000Z</time>
      </trkpt>
      <trkpt lat="45.17725" lon="5.90922">
        <ele>1323</ele>
        <time>2019-01-20T08:14:27.000Z</time>
      </trkpt>
      <trkpt lat="45.17725" lon="5.90922">
        <ele>1323</ele>
        <time>2019-01-20T08:14:28.000Z</time>
      </trkpt>
      <trkpt lat="45.17723" lon="5.9092">
        <ele>1323</ele>
        <time>2019-01-20T08:14:29.000Z</time>
      </trkpt>
      <trkpt lat="45.17723" lon="5.9092">
        <ele>1323</ele>
        <time>2019-01-20T08:14:30.000Z</time>
      </trkpt>
      <trkpt lat="45.17721" lon="5.90918">
        <ele>1324</ele>
        <time>2019-01-20T08:14:31.000Z</time>
      </trkpt>
      <trkpt lat="45.17721" lon="5.90918">
        <ele>1324</ele>
        <time>2019-01-20T08:14:32.000Z</time>
      </trkpt>
      <trkpt lat="45.17718" lon="5.90916">
        <ele>1324</ele>
        <time>2019-01-20T08:14:33.000Z</time>
      </trkpt>
      <trkpt lat="45.17718" lon="5.90916">
        <ele>1324</ele>
        <time>2019-01-20T08:14:34.000Z</time>
      </trkpt>
      <trkpt lat="45.17715" lon="5.90914">
        <ele>1324</ele>
        <time>2019-01-20T08:14:35.000Z</time>
      </trkpt>
      <trkpt lat="45.17715" lon="5.90914">
        <ele>1324</ele>
        <time>2019-01-20T08:14:36.000Z</time>
      </trkpt>
      <trkpt lat="45.17713" lon="5.90912">
        <ele>1324</ele>
        <time>2019-01-20T08:14:37.000Z</time>
      </trkpt>
      <trkpt lat="45.17713" lon="5.90912">
        <ele>1325</ele>
        <time>2019-01-20T08:14:38.000Z</time>
      </trkpt>
      <trkpt lat="45.1771" lon="5.9091">
        <ele>1325</ele>
        <time>2019-01-20T08:14:39.000Z</time>
      </trkpt>
      <trkpt lat="45.1771" lon="5.9091">
        <ele>1325</ele>
        <time>2019-01-20T08:14:40.000Z</time>
      </trkpt>
      <trkpt lat="45.17708" lon="5.90909">
        <ele>1325</ele>
        <time>2019-01-20T08:14:41.000Z</time>
      </trkpt>
      <trkpt lat="45.17708" lon="5.90909">
        <ele>1325</ele>
        <time>2019-01-20T08:14:42.000Z</time>
      </trkpt>
      <trkpt lat="45.17705" lon="5.90907">
        <ele>1325</ele>
        <time>2019-01-20T08:14:43.000Z</time>
      </trkpt>
      <trkpt lat="45.17705" lon="5.90907">
        <ele>1325</ele>
        <time>2019-01-20T08:14:44.000Z</time>
      </trkpt>
      <trkpt lat="45.17703" lon="5.90904">
        <ele>1325</ele>
        <time>2019-01-20T08:14:45.000Z</time>
      </trkpt>
      <trkpt lat="45.17703" lon="5.90904">
        <ele>1325</ele>
        <time>2019-01-20T08:14:46.000Z</time>
      </trkpt>
      <trkpt lat="45.17701" lon="5.90902">
        <ele>1325</ele>
        <time>2019-01-20T08:14:47.000Z</time>
      </trkpt>
      <trkpt lat="45.17701" lon="5.90902">
        <ele>1326</ele>
        <time>2019-01-20T08:14:48.000Z</time>
      </trkpt>
      <trkpt lat="45.17699" lon="5.909">
        <ele>1326</ele>
        <time>2019-01-20T08:14:49.000Z</time>
      </trkpt>
      <trkpt lat="45.17699" lon="5.909">
        <ele>1326</ele>
        <time>2019-01-20T08:14:50.000Z</time>
      </trkpt>
      <trkpt lat="45.17697" lon="5.90898">
        <ele>1326</ele>
        <time>2019-01-20T08:14:51.000Z</time>
      </trkpt>
      <trkpt lat="45.17697" lon="5.90898">
        <ele>1326</ele>
        <time>2019-01-20T08:14:52.000Z</time>
      </trkpt>
      <trkpt lat="45.17695" lon="5.90895">
        <ele>1327</ele>
        <time>2019-01-20T08:14:53.000Z</time>
      </trkpt>
      <trkpt lat="45.17695" lon="5.90895">
        <ele>1327</ele>
        <time>2019-01-20T08:14:54.000Z</time>
      </trkpt>
      <trkpt lat="45.17693" lon="5.90893">
        <ele>1327</ele>
        <time>2019-01-20T08:14:55.000Z</time>
      </trkpt>
      <trkpt lat="45.17693" lon="5.90893">
        <ele>1327</ele>
        <time>2019-01-20T08:14:56.000Z</time>
      </trkpt>
      <trkpt lat="45.17691" lon="5.9089">
        <ele>1328</ele>
        <time>2019-01-20T08:14:57.000Z</time>
      </trkpt>
      <trkpt lat="45.1769" lon="5.90888">
        <ele>1328</ele>
        <time>2019-01-20T08:14:59.000Z</time>
      </trkpt>
      <trkpt lat="45.1769" lon="5.90888">
        <ele>1328</ele>
        <time>2019-01-20T08:15:00.000Z</time>
      </trkpt>
      <trkpt lat="45.17688" lon="5.90885">
        <ele>1328</ele>
        <time>2019-01-20T08:15:01.000Z</time>
      </trkpt>
      <trkpt lat="45.17688" lon="5.90885">
        <ele>1328</ele>
        <time>2019-01-20T08:15:02.000Z</time>
      </trkpt>
      <trkpt lat="45.17687" lon="5.90883">
        <ele>1328</ele>
        <time>2019-01-20T08:15:03.000Z</time>
      </trkpt>
      <trkpt lat="45.17687" lon="5.90883">
        <ele>1329</ele>
        <time>2019-01-20T08:15:04.000Z</time>
      </trkpt>
      <trkpt lat="45.17686" lon="5.9088">
        <ele>1329</ele>
        <time>2019-01-20T08:15:05.000Z</time>
      </trkpt>
      <trkpt lat="45.17686" lon="5.9088">
        <ele>1329</ele>
        <time>2019-01-20T08:15:06.000Z</time>
      </trkpt>
      <trkpt lat="45.17684" lon="5.90877">
        <ele>1329</ele>
        <time>2019-01-20T08:15:07.000Z</time>
      </trkpt>
      <trkpt lat="45.17684" lon="5.90877">
        <ele>1329</ele>
        <time>2019-01-20T08:15:08.000Z</time>
      </trkpt>
      <trkpt lat="45.17682" lon="5.90874">
        <ele>1330</ele>
        <time>2019-01-20T08:15:09.000Z</time>
      </trkpt>
      <trkpt lat="45.17682" lon="5.90874">
        <ele>1330</ele>
        <time>2019-01-20T08:15:10.000Z</time>
      </trkpt>
      <trkpt lat="45.1768" lon="5.90872">
        <ele>1330</ele>
        <time>2019-01-20T08:15:11.000Z</time>
      </trkpt>
      <trkpt lat="45.1768" lon="5.90872">
        <ele>1330</ele>
        <time>2019-01-20T08:15:12.000Z</time>
      </trkpt>
      <trkpt lat="45.17678" lon="5.90869">
        <ele>1330</ele>
        <time>2019-01-20T08:15:13.000Z</time>
      </trkpt>
      <trkpt lat="45.17678" lon="5.90869">
        <ele>1330</ele>
        <time>2019-01-20T08:15:14.000Z</time>
      </trkpt>
      <trkpt lat="45.17675" lon="5.90868">
        <ele>1330</ele>
        <time>2019-01-20T08:15:15.000Z</time>
      </trkpt>
      <trkpt lat="45.17675" lon="5.90868">
        <ele>1331</ele>
        <time>2019-01-20T08:15:16.000Z</time>
      </trkpt>
      <trkpt lat="45.17673" lon="5.90865">
        <ele>1331</ele>
        <time>2019-01-20T08:15:17.000Z</time>
      </trkpt>
      <trkpt lat="45.17673" lon="5.90865">
        <ele>1331</ele>
        <time>2019-01-20T08:15:18.000Z</time>
      </trkpt>
      <trkpt lat="45.1767" lon="5.90863">
        <ele>1331</ele>
        <time>2019-01-20T08:15:19.000Z</time>
      </trkpt>
      <trkpt lat="45.1767" lon="5.90863">
        <ele>1331</ele>
        <time>2019-01-20T08:15:20.000Z</time>
      </trkpt>
      <trkpt lat="45.17667" lon="5.90861">
        <ele>1332</ele>
        <time>2019-01-20T08:15:21.000Z</time>
      </trkpt>
      <trkpt lat="45.17667" lon="5.90861">
        <ele>1332</ele>
        <time>2019-01-20T08:15:22.000Z</time>
      </trkpt>
      <trkpt lat="45.17663" lon="5.90861">
        <ele>1332</ele>
        <time>2019-01-20T08:15:23.000Z</time>
      </trkpt>
      <trkpt lat="45.17663" lon="5.90861">
        <ele>1332</ele>
        <time>2019-01-20T08:15:24.000Z</time>
      </trkpt>
      <trkpt lat="45.1766" lon="5.9086">
        <ele>1332</ele>
        <time>2019-01-20T08:15:25.000Z</time>
      </trkpt>
      <trkpt lat="45.1766" lon="5.9086">
        <ele>1332</ele>
        <time>2019-01-20T08:15:26.000Z</time>
      </trkpt>
      <trkpt lat="45.17658" lon="5.9086">
        <ele>1332</ele>
        <time>2019-01-20T08:15:27.000Z</time>
      </trkpt>
      <trkpt lat="45.17658" lon="5.9086">
        <ele>1332</ele>
        <time>2019-01-20T08:15:28.000Z</time>
      </trkpt>
      <trkpt lat="45.17655" lon="5.9086">
        <ele>1332</ele>
        <time>2019-01-20T08:15:29.000Z</time>
      </trkpt>
      <trkpt lat="45.17655" lon="5.9086">
        <ele>1332</ele>
        <time>2019-01-20T08:15:30.000Z</time>
      </trkpt>
      <trkpt lat="45.17652" lon="5.9086">
        <ele>1332</ele>
        <time>2019-01-20T08:15:31.000Z</time>
      </trkpt>
      <trkpt lat="45.17652" lon="5.9086">
        <ele>1332</ele>
        <time>2019-01-20T08:15:32.000Z</time>
      </trkpt>
      <trkpt lat="45.17649" lon="5.90859">
        <ele>1332</ele>
        <time>2019-01-20T08:15:33.000Z</time>
      </trkpt>
      <trkpt lat="45.17649" lon="5.90859">
        <ele>1332</ele>
        <time>2019-01-20T08:15:34.000Z</time>
      </trkpt>
      <trkpt lat="45.17646" lon="5.90858">
        <ele>1332</ele>
        <time>2019-01-20T08:15:35.000Z</time>
      </trkpt>
      <trkpt lat="45.17643" lon="5.90859">
        <ele>1333</ele>
        <time>2019-01-20T08:15:37.000Z</time>
      </trkpt>
      <trkpt lat="45.17643" lon="5.90859">
        <ele>1333</ele>
        <time>2019-01-20T08:15:38.000Z</time>
      </trkpt>
      <trkpt lat="45.17641" lon="5.90858">
        <ele>1333</ele>
        <time>2019-01-20T08:15:39.000Z</time>
      </trkpt>
      <trkpt lat="45.17641" lon="5.90858">
        <ele>1333</ele>
        <time>2019-01-20T08:15:40.000Z</time>
      </trkpt>
      <trkpt lat="45.17638" lon="5.90857">
        <ele>1333</ele>
        <time>2019-01-20T08:15:41.000Z</time>
      </trkpt>
      <trkpt lat="45.17638" lon="5.90857">
        <ele>1334</ele>
        <time>2019-01-20T08:15:42.000Z</time>
      </trkpt>
      <trkpt lat="45.17636" lon="5.90857">
        <ele>1335</ele>
        <time>2019-01-20T08:15:43.000Z</time>
      </trkpt>
      <trkpt lat="45.17636" lon="5.90857">
        <ele>1335</ele>
        <time>2019-01-20T08:15:44.000Z</time>
      </trkpt>
      <trkpt lat="45.17636" lon="5.90857">
        <ele>1335</ele>
        <time>2019-01-20T08:15:45.000Z</time>
      </trkpt>
      <trkpt lat="45.17633" lon="5.90855">
        <ele>1335</ele>
        <time>2019-01-20T08:15:46.000Z</time>
      </trkpt>
      <trkpt lat="45.17633" lon="5.90855">
        <ele>1335</ele>
        <time>2019-01-20T08:15:47.000Z</time>
      </trkpt>
      <trkpt lat="45.17633" lon="5.90855">
        <ele>1335</ele>
        <time>2019-01-20T08:15:48.000Z</time>
      </trkpt>
      <trkpt lat="45.17631" lon="5.90854">
        <ele>1336</ele>
        <time>2019-01-20T08:15:49.000Z</time>
      </trkpt>
      <trkpt lat="45.17631" lon="5.90854">
        <ele>1336</ele>
        <time>2019-01-20T08:15:50.000Z</time>
      </trkpt>
      <trkpt lat="45.17629" lon="5.90853">
        <ele>1336</ele>
        <time>2019-01-20T08:15:51.000Z</time>
      </trkpt>
      <trkpt lat="45.17629" lon="5.90853">
        <ele>1336</ele>
        <time>2019-01-20T08:15:52.000Z</time>
      </trkpt>
      <trkpt lat="45.17626" lon="5.9085">
        <ele>1336</ele>
        <time>2019-01-20T08:15:53.000Z</time>
      </trkpt>
      <trkpt lat="45.17626" lon="5.9085">
        <ele>1336</ele>
        <time>2019-01-20T08:15:54.000Z</time>
      </trkpt>
      <trkpt lat="45.17623" lon="5.90849">
        <ele>1336</ele>
        <time>2019-01-20T08:15:55.000Z</time>
      </trkpt>
      <trkpt lat="45.17623" lon="5.90849">
        <ele>1336</ele>
        <time>2019-01-20T08:15:56.000Z</time>
      </trkpt>
      <trkpt lat="45.17621" lon="5.90846">
        <ele>1336</ele>
        <time>2019-01-20T08:15:57.000Z</time>
      </trkpt>
      <trkpt lat="45.17621" lon="5.90846">
        <ele>1337</ele>
        <time>2019-01-20T08:15:58.000Z</time>
      </trkpt>
      <trkpt lat="45.17619" lon="5.90844">
        <ele>1337</ele>
        <time>2019-01-20T08:15:59.000Z</time>
      </trkpt>
      <trkpt lat="45.17619" lon="5.90844">
        <ele>1337</ele>
        <time>2019-01-20T08:16:00.000Z</time>
      </trkpt>
      <trkpt lat="45.17616" lon="5.90842">
        <ele>1337</ele>
        <time>2019-01-20T08:16:01.000Z</time>
      </trkpt>
      <trkpt lat="45.17616" lon="5.90842">
        <ele>1338</ele>
        <time>2019-01-20T08:16:02.000Z</time>
      </trkpt>
      <trkpt lat="45.17614" lon="5.9084">
        <ele>1338</ele>
        <time>2019-01-20T08:16:03.000Z</time>
      </trkpt>
      <trkpt lat="45.17614" lon="5.9084">
        <ele>1338</ele>
        <time>2019-01-20T08:16:04.000Z</time>
      </trkpt>
      <trkpt lat="45.17613" lon="5.90838">
        <ele>1338</ele>
        <time>2019-01-20T08:16:05.000Z</time>
      </trkpt>
      <trkpt lat="45.17613" lon="5.90838">
        <ele>1338</ele>
        <time>2019-01-20T08:16:06.000Z</time>
      </trkpt>
      <trkpt lat="45.17611" lon="5.90834">
        <ele>1338</ele>
        <time>2019-01-20T08:16:07.000Z</time>
      </trkpt>
      <trkpt lat="45.17611" lon="5.90834">
        <ele>1339</ele>
        <time>2019-01-20T08:16:08.000Z</time>
      </trkpt>
      <trkpt lat="45.17609" lon="5.90831">
        <ele>1339</ele>
        <time>2019-01-20T08:16:09.000Z</time>
      </trkpt>
      <trkpt lat="45.17609" lon="5.90831">
        <ele>1339</ele>
        <time>2019-01-20T08:16:10.000Z</time>
      </trkpt>
      <trkpt lat="45.17607" lon="5.90828">
        <ele>1339</ele>
        <time>2019-01-20T08:16:11.000Z</time>
      </trkpt>
      <trkpt lat="45.17607" lon="5.90828">
        <ele>1339</ele>
        <time>2019-01-20T08:16:12.000Z</time>
      </trkpt>
      <trkpt lat="45.17606" lon="5.90826">
        <ele>1340</ele>
        <time>2019-01-20T08:16:13.000Z</time>
      </trkpt>
      <trkpt lat="45.17605" lon="5.90822">
        <ele>1340</ele>
        <time>2019-01-20T08:16:15.000Z</time>
      </trkpt>
      <trkpt lat="45.17605" lon="5.90822">
        <ele>1340</ele>
        <time>2019-01-20T08:16:16.000Z</time>
      </trkpt>
      <trkpt lat="45.17604" lon="5.90819">
        <ele>1340</ele>
        <time>2019-01-20T08:16:17.000Z</time>
      </trkpt>
      <trkpt lat="45.17604" lon="5.90819">
        <ele>1340</ele>
        <time>2019-01-20T08:16:18.000Z</time>
      </trkpt>
      <trkpt lat="45.17603" lon="5.90815">
        <ele>1340</ele>
        <time>2019-01-20T08:16:19.000Z</time>
      </trkpt>
      <trkpt lat="45.17603" lon="5.90814">
        <ele>1340</ele>
        <time>2019-01-20T08:16:20.000Z</time>
      </trkpt>
      <trkpt lat="45.17602" lon="5.90814">
        <ele>1340</ele>
        <time>2019-01-20T08:16:21.000Z</time>
      </trkpt>
      <trkpt lat="45.17602" lon="5.90813">
        <ele>1341</ele>
        <time>2019-01-20T08:16:22.000Z</time>
      </trkpt>
      <trkpt lat="45.17602" lon="5.90813">
        <ele>1341</ele>
        <time>2019-01-20T08:16:23.000Z</time>
      </trkpt>
      <trkpt lat="45.17602" lon="5.90813">
        <ele>1341</ele>
        <time>2019-01-20T08:16:24.000Z</time>
      </trkpt>
      <trkpt lat="45.17601" lon="5.90812">
        <ele>1342</ele>
        <time>2019-01-20T08:16:25.000Z</time>
      </trkpt>
      <trkpt lat="45.17601" lon="5.90812">
        <ele>1342</ele>
        <time>2019-01-20T08:16:26.000Z</time>
      </trkpt>
      <trkpt lat="45.17601" lon="5.90812">
        <ele>1342</ele>
        <time>2019-01-20T08:16:27.000Z</time>
      </trkpt>
      <trkpt lat="45.17599" lon="5.90799">
        <ele>1342</ele>
        <time>2019-01-20T08:16:28.000Z</time>
      </trkpt>
      <trkpt lat="45.17599" lon="5.90799">
        <ele>1342</ele>
        <time>2019-01-20T08:16:29.000Z</time>
      </trkpt>
      <trkpt lat="45.17597" lon="5.90795">
        <ele>1342</ele>
        <time>2019-01-20T08:16:30.000Z</time>
      </trkpt>
      <trkpt lat="45.17597" lon="5.90795">
        <ele>1342</ele>
        <time>2019-01-20T08:16:31.000Z</time>
      </trkpt>
      <trkpt lat="45.17597" lon="5.90792">
        <ele>1342</ele>
        <time>2019-01-20T08:16:32.000Z</time>
      </trkpt>
      <trkpt lat="45.17596" lon="5.90788">
        <ele>1342.4</ele>
        <time>2019-01-20T08:16:34.000Z</time>
      </trkpt>
      <trkpt lat="45.17596" lon="5.90788">
        <ele>1343</ele>
        <time>2019-01-20T08:16:35.000Z</time>
      </trkpt>
      <trkpt lat="45.17596" lon="5.90784">
        <ele>1343</ele>
        <time>2019-01-20T08:16:36.000Z</time>
      </trkpt>
      <trkpt lat="45.17596" lon="5.90781">
        <ele>1343</ele>
        <time>2019-01-20T08:16:37.000Z</time>
      </trkpt>
      <trkpt lat="45.17596" lon="5.90781">
        <ele>1344</ele>
        <time>2019-01-20T08:16:38.000Z</time>
      </trkpt>
      <trkpt lat="45.17596" lon="5.90781">
        <ele>1344</ele>
        <time>2019-01-20T08:16:39.000Z</time>
      </trkpt>
      <trkpt lat="45.17596" lon="5.90776">
        <ele>1345</ele>
        <time>2019-01-20T08:16:40.000Z</time>
      </trkpt>
      <trkpt lat="45.17596" lon="5.90776">
        <ele>1345</ele>
        <time>2019-01-20T08:16:41.000Z</time>
      </trkpt>
      <trkpt lat="45.17593" lon="5.90772">
        <ele>1345</ele>
        <time>2019-01-20T08:16:42.000Z</time>
      </trkpt>
      <trkpt lat="45.17593" lon="5.90772">
        <ele>1345</ele>
        <time>2019-01-20T08:16:43.000Z</time>
      </trkpt>
      <trkpt lat="45.17592" lon="5.90768">
        <ele>1345</ele>
        <time>2019-01-20T08:16:44.000Z</time>
      </trkpt>
      <trkpt lat="45.17592" lon="5.90768">
        <ele>1345</ele>
        <time>2019-01-20T08:16:45.000Z</time>
      </trkpt>
      <trkpt lat="45.17591" lon="5.90765">
        <ele>1345</ele>
        <time>2019-01-20T08:16:46.000Z</time>
      </trkpt>
      <trkpt lat="45.17591" lon="5.90765">
        <ele>1346</ele>
        <time>2019-01-20T08:16:47.000Z</time>
      </trkpt>
      <trkpt lat="45.1759" lon="5.90762">
        <ele>1346</ele>
        <time>2019-01-20T08:16:48.000Z</time>
      </trkpt>
      <trkpt lat="45.1759" lon="5.90762">
        <ele>1346</ele>
        <time>2019-01-20T08:16:49.000Z</time>
      </trkpt>
      <trkpt lat="45.17589" lon="5.9076">
        <ele>1346</ele>
        <time>2019-01-20T08:16:50.000Z</time>
      </trkpt>
      <trkpt lat="45.17589" lon="5.9076">
        <ele>1346</ele>
        <time>2019-01-20T08:16:51.000Z</time>
      </trkpt>
      <trkpt lat="45.17588" lon="5.90757">
        <ele>1346</ele>
        <time>2019-01-20T08:16:52.000Z</time>
      </trkpt>
      <trkpt lat="45.17588" lon="5.90757">
        <ele>1346</ele>
        <time>2019-01-20T08:16:53.000Z</time>
      </trkpt>
      <trkpt lat="45.17586" lon="5.90755">
        <ele>1346</ele>
        <time>2019-01-20T08:16:54.000Z</time>
      </trkpt>
      <trkpt lat="45.17586" lon="5.90755">
        <ele>1346</ele>
        <time>2019-01-20T08:16:55.000Z</time>
      </trkpt>
      <trkpt lat="45.17584" lon="5.90753">
        <ele>1346</ele>
        <time>2019-01-20T08:16:56.000Z</time>
      </trkpt>
      <trkpt lat="45.17584" lon="5.90753">
        <ele>1347</ele>
        <time>2019-01-20T08:16:57.000Z</time>
      </trkpt>
      <trkpt lat="45.17581" lon="5.9075">
        <ele>1347</ele>
        <time>2019-01-20T08:16:58.000Z</time>
      </trkpt>
      <trkpt lat="45.17581" lon="5.9075">
        <ele>1347</ele>
        <time>2019-01-20T08:16:59.000Z</time>
      </trkpt>
      <trkpt lat="45.17579" lon="5.90748">
        <ele>1347</ele>
        <time>2019-01-20T08:17:00.000Z</time>
      </trkpt>
      <trkpt lat="45.17579" lon="5.90748">
        <ele>1348</ele>
        <time>2019-01-20T08:17:01.000Z</time>
      </trkpt>
      <trkpt lat="45.17577" lon="5.90746">
        <ele>1348</ele>
        <time>2019-01-20T08:17:02.000Z</time>
      </trkpt>
      <trkpt lat="45.17577" lon="5.90746">
        <ele>1348</ele>
        <time>2019-01-20T08:17:03.000Z</time>
      </trkpt>
      <trkpt lat="45.17574" lon="5.90744">
        <ele>1348</ele>
        <time>2019-01-20T08:17:04.000Z</time>
      </trkpt>
      <trkpt lat="45.17574" lon="5.90744">
        <ele>1348</ele>
        <time>2019-01-20T08:17:05.000Z</time>
      </trkpt>
      <trkpt lat="45.17572" lon="5.90742">
        <ele>1348</ele>
        <time>2019-01-20T08:17:06.000Z</time>
      </trkpt>
      <trkpt lat="45.17572" lon="5.90742">
        <ele>1348</ele>
        <time>2019-01-20T08:17:07.000Z</time>
      </trkpt>
      <trkpt lat="45.1757" lon="5.9074">
        <ele>1348</ele>
        <time>2019-01-20T08:17:08.000Z</time>
      </trkpt>
      <trkpt lat="45.1757" lon="5.9074">
        <ele>1348</ele>
        <time>2019-01-20T08:17:09.000Z</time>
      </trkpt>
      <trkpt lat="45.17568" lon="5.90738">
        <ele>1348</ele>
        <time>2019-01-20T08:17:10.000Z</time>
      </trkpt>
      <trkpt lat="45.17565" lon="5.90737">
        <ele>1348</ele>
        <time>2019-01-20T08:17:12.000Z</time>
      </trkpt>
      <trkpt lat="45.17565" lon="5.90737">
        <ele>1348</ele>
        <time>2019-01-20T08:17:13.000Z</time>
      </trkpt>
      <trkpt lat="45.17563" lon="5.90734">
        <ele>1348</ele>
        <time>2019-01-20T08:17:14.000Z</time>
      </trkpt>
      <trkpt lat="45.17563" lon="5.90734">
        <ele>1349</ele>
        <time>2019-01-20T08:17:15.000Z</time>
      </trkpt>
      <trkpt lat="45.17561" lon="5.90732">
        <ele>1349</ele>
        <time>2019-01-20T08:17:16.000Z</time>
      </trkpt>
      <trkpt lat="45.17561" lon="5.90732">
        <ele>1349</ele>
        <time>2019-01-20T08:17:17.000Z</time>
      </trkpt>
      <trkpt lat="45.17558" lon="5.90731">
        <ele>1349</ele>
        <time>2019-01-20T08:17:18.000Z</time>
      </trkpt>
      <trkpt lat="45.17558" lon="5.90731">
        <ele>1349</ele>
        <time>2019-01-20T08:17:19.000Z</time>
      </trkpt>
      <trkpt lat="45.17555" lon="5.90729">
        <ele>1350</ele>
        <time>2019-01-20T08:17:20.000Z</time>
      </trkpt>
      <trkpt lat="45.17555" lon="5.90729">
        <ele>1350</ele>
        <time>2019-01-20T08:17:21.000Z</time>
      </trkpt>
      <trkpt lat="45.17553" lon="5.90727">
        <ele>1350</ele>
        <time>2019-01-20T08:17:22.000Z</time>
      </trkpt>
      <trkpt lat="45.17553" lon="5.90727">
        <ele>1350</ele>
        <time>2019-01-20T08:17:23.000Z</time>
      </trkpt>
      <trkpt lat="45.1755" lon="5.90725">
        <ele>1350</ele>
        <time>2019-01-20T08:17:24.000Z</time>
      </trkpt>
      <trkpt lat="45.1755" lon="5.90725">
        <ele>1350</ele>
        <time>2019-01-20T08:17:25.000Z</time>
      </trkpt>
      <trkpt lat="45.17547" lon="5.90724">
        <ele>1350</ele>
        <time>2019-01-20T08:17:26.000Z</time>
      </trkpt>
      <trkpt lat="45.17547" lon="5.90724">
        <ele>1350</ele>
        <time>2019-01-20T08:17:27.000Z</time>
      </trkpt>
      <trkpt lat="45.17544" lon="5.90722">
        <ele>1350</ele>
        <time>2019-01-20T08:17:28.000Z</time>
      </trkpt>
      <trkpt lat="45.17544" lon="5.90722">
        <ele>1350</ele>
        <time>2019-01-20T08:17:29.000Z</time>
      </trkpt>
      <trkpt lat="45.17541" lon="5.90721">
        <ele>1350</ele>
        <time>2019-01-20T08:17:30.000Z</time>
      </trkpt>
      <trkpt lat="45.17541" lon="5.90721">
        <ele>1351</ele>
        <time>2019-01-20T08:17:31.000Z</time>
      </trkpt>
      <trkpt lat="45.17539" lon="5.9072">
        <ele>1351</ele>
        <time>2019-01-20T08:17:32.000Z</time>
      </trkpt>
      <trkpt lat="45.17539" lon="5.9072">
        <ele>1351</ele>
        <time>2019-01-20T08:17:33.000Z</time>
      </trkpt>
      <trkpt lat="45.17537" lon="5.90717">
        <ele>1352</ele>
        <time>2019-01-20T08:17:34.000Z</time>
      </trkpt>
      <trkpt lat="45.17537" lon="5.90717">
        <ele>1352</ele>
        <time>2019-01-20T08:17:35.000Z</time>
      </trkpt>
      <trkpt lat="45.17534" lon="5.90716">
        <ele>1352</ele>
        <time>2019-01-20T08:17:36.000Z</time>
      </trkpt>
      <trkpt lat="45.17534" lon="5.90716">
        <ele>1352</ele>
        <time>2019-01-20T08:17:37.000Z</time>
      </trkpt>
      <trkpt lat="45.17532" lon="5.90715">
        <ele>1352</ele>
        <time>2019-01-20T08:17:38.000Z</time>
      </trkpt>
      <trkpt lat="45.1753" lon="5.90715">
        <ele>1352</ele>
        <time>2019-01-20T08:17:39.000Z</time>
      </trkpt>
      <trkpt lat="45.1753" lon="5.90715">
        <ele>1352</ele>
        <time>2019-01-20T08:17:40.000Z</time>
      </trkpt>
      <trkpt lat="45.17527" lon="5.90713">
        <ele>1352</ele>
        <time>2019-01-20T08:17:41.000Z</time>
      </trkpt>
      <trkpt lat="45.17525" lon="5.90713">
        <ele>1353</ele>
        <time>2019-01-20T08:17:42.000Z</time>
      </trkpt>
      <trkpt lat="45.17523" lon="5.90713">
        <ele>1354</ele>
        <time>2019-01-20T08:17:43.000Z</time>
      </trkpt>
      <trkpt lat="45.17523" lon="5.90713">
        <ele>1354</ele>
        <time>2019-01-20T08:17:44.000Z</time>
      </trkpt>
      <trkpt lat="45.1752" lon="5.90713">
        <ele>1355</ele>
        <time>2019-01-20T08:17:45.000Z</time>
      </trkpt>
      <trkpt lat="45.1752" lon="5.90713">
        <ele>1355</ele>
        <time>2019-01-20T08:17:46.000Z</time>
      </trkpt>
      <trkpt lat="45.17517" lon="5.90713">
        <ele>1355</ele>
        <time>2019-01-20T08:17:47.000Z</time>
      </trkpt>
      <trkpt lat="45.17517" lon="5.90713">
        <ele>1355</ele>
        <time>2019-01-20T08:17:48.000Z</time>
      </trkpt>
      <trkpt lat="45.17514" lon="5.90713">
        <ele>1355</ele>
        <time>2019-01-20T08:17:49.000Z</time>
      </trkpt>
      <trkpt lat="45.17514" lon="5.90713">
        <ele>1355.6</ele>
        <time>2019-01-20T08:17:50.000Z</time>
      </trkpt>
      <trkpt lat="45.1751" lon="5.90712">
        <ele>1356</ele>
        <time>2019-01-20T08:17:51.000Z</time>
      </trkpt>
      <trkpt lat="45.1751" lon="5.90712">
        <ele>1356</ele>
        <time>2019-01-20T08:17:52.000Z</time>
      </trkpt>
      <trkpt lat="45.17508" lon="5.90713">
        <ele>1356</ele>
        <time>2019-01-20T08:17:53.000Z</time>
      </trkpt>
      <trkpt lat="45.17508" lon="5.90713">
        <ele>1356</ele>
        <time>2019-01-20T08:17:54.000Z</time>
      </trkpt>
      <trkpt lat="45.17506" lon="5.90713">
        <ele>1356</ele>
        <time>2019-01-20T08:17:55.000Z</time>
      </trkpt>
      <trkpt lat="45.17506" lon="5.90713">
        <ele>1356</ele>
        <time>2019-01-20T08:17:56.000Z</time>
      </trkpt>
      <trkpt lat="45.17503" lon="5.90713">
        <ele>1356</ele>
        <time>2019-01-20T08:17:57.000Z</time>
      </trkpt>
      <trkpt lat="45.17503" lon="5.90713">
        <ele>1356</ele>
        <time>2019-01-20T08:17:58.000Z</time>
      </trkpt>
      <trkpt lat="45.175" lon="5.90714">
        <ele>1357</ele>
        <time>2019-01-20T08:17:59.000Z</time>
      </trkpt>
      <trkpt lat="45.175" lon="5.90714">
        <ele>1357</ele>
        <time>2019-01-20T08:18:00.000Z</time>
      </trkpt>
      <trkpt lat="45.17498" lon="5.90715">
        <ele>1357</ele>
        <time>2019-01-20T08:18:01.000Z</time>
      </trkpt>
      <trkpt lat="45.17498" lon="5.90715">
        <ele>1357</ele>
        <time>2019-01-20T08:18:02.000Z</time>
      </trkpt>
      <trkpt lat="45.17495" lon="5.90715">
        <ele>1357</ele>
        <time>2019-01-20T08:18:03.000Z</time>
      </trkpt>
      <trkpt lat="45.17495" lon="5.90715">
        <ele>1357</ele>
        <time>2019-01-20T08:18:04.000Z</time>
      </trkpt>
      <trkpt lat="45.17493" lon="5.90717">
        <ele>1357</ele>
        <time>2019-01-20T08:18:05.000Z</time>
      </trkpt>
      <trkpt lat="45.17493" lon="5.90717">
        <ele>1357</ele>
        <time>2019-01-20T08:18:06.000Z</time>
      </trkpt>
      <trkpt lat="45.17493" lon="5.90717">
        <ele>1358</ele>
        <time>2019-01-20T08:18:07.000Z</time>
      </trkpt>
      <trkpt lat="45.17492" lon="5.90719">
        <ele>1358</ele>
        <time>2019-01-20T08:18:08.000Z</time>
      </trkpt>
      <trkpt lat="45.17492" lon="5.90719">
        <ele>1359</ele>
        <time>2019-01-20T08:18:09.000Z</time>
      </trkpt>
      <trkpt lat="45.1749" lon="5.90721">
        <ele>1359</ele>
        <time>2019-01-20T08:18:10.000Z</time>
      </trkpt>
      <trkpt lat="45.1749" lon="5.90721">
        <ele>1359</ele>
        <time>2019-01-20T08:18:11.000Z</time>
      </trkpt>
      <trkpt lat="45.1749" lon="5.90721">
        <ele>1359</ele>
        <time>2019-01-20T08:18:12.000Z</time>
      </trkpt>
      <trkpt lat="45.17489" lon="5.90723">
        <ele>1359</ele>
        <time>2019-01-20T08:18:13.000Z</time>
      </trkpt>
      <trkpt lat="45.17489" lon="5.90723">
        <ele>1360</ele>
        <time>2019-01-20T08:18:14.000Z</time>
      </trkpt>
      <trkpt lat="45.17489" lon="5.90723">
        <ele>1360</ele>
        <time>2019-01-20T08:18:15.000Z</time>
      </trkpt>
      <trkpt lat="45.17488" lon="5.90726">
        <ele>1361</ele>
        <time>2019-01-20T08:18:16.000Z</time>
      </trkpt>
      <trkpt lat="45.17488" lon="5.90726">
        <ele>1361</ele>
        <time>2019-01-20T08:18:17.000Z</time>
      </trkpt>
      <trkpt lat="45.17488" lon="5.90726">
        <ele>1361</ele>
        <time>2019-01-20T08:18:18.000Z</time>
      </trkpt>
      <trkpt lat="45.17487" lon="5.90728">
        <ele>1361</ele>
        <time>2019-01-20T08:18:19.000Z</time>
      </trkpt>
      <trkpt lat="45.17487" lon="5.90728">
        <ele>1362</ele>
        <time>2019-01-20T08:18:20.000Z</time>
      </trkpt>
      <trkpt lat="45.17487" lon="5.90728">
        <ele>1362</ele>
        <time>2019-01-20T08:18:21.000Z</time>
      </trkpt>
      <trkpt lat="45.17487" lon="5.90728">
        <ele>1362</ele>
        <time>2019-01-20T08:18:22.000Z</time>
      </trkpt>
      <trkpt lat="45.17486" lon="5.9073">
        <ele>1363</ele>
        <time>2019-01-20T08:18:23.000Z</time>
      </trkpt>
      <trkpt lat="45.17486" lon="5.9073">
        <ele>1364</ele>
        <time>2019-01-20T08:18:25.000Z</time>
      </trkpt>
      <trkpt lat="45.17484" lon="5.90731">
        <ele>1364</ele>
        <time>2019-01-20T08:18:26.000Z</time>
      </trkpt>
      <trkpt lat="45.17484" lon="5.90731">
        <ele>1364</ele>
        <time>2019-01-20T08:18:28.000Z</time>
      </trkpt>
      <trkpt lat="45.17482" lon="5.90732">
        <ele>1364</ele>
        <time>2019-01-20T08:18:29.000Z</time>
      </trkpt>
      <trkpt lat="45.17482" lon="5.90732">
        <ele>1364</ele>
        <time>2019-01-20T08:18:30.000Z</time>
      </trkpt>
      <trkpt lat="45.17481" lon="5.90735">
        <ele>1364</ele>
        <time>2019-01-20T08:18:31.000Z</time>
      </trkpt>
      <trkpt lat="45.17481" lon="5.90735">
        <ele>1365</ele>
        <time>2019-01-20T08:18:32.000Z</time>
      </trkpt>
      <trkpt lat="45.17481" lon="5.90735">
        <ele>1365</ele>
        <time>2019-01-20T08:18:33.000Z</time>
      </trkpt>
      <trkpt lat="45.17478" lon="5.90736">
        <ele>1365</ele>
        <time>2019-01-20T08:18:34.000Z</time>
      </trkpt>
      <trkpt lat="45.17478" lon="5.90736">
        <ele>1365</ele>
        <time>2019-01-20T08:18:35.000Z</time>
      </trkpt>
      <trkpt lat="45.17478" lon="5.90736">
        <ele>1365</ele>
        <time>2019-01-20T08:18:36.000Z</time>
      </trkpt>
      <trkpt lat="45.17478" lon="5.90736">
        <ele>1366</ele>
        <time>2019-01-20T08:18:37.000Z</time>
      </trkpt>
      <trkpt lat="45.17477" lon="5.90738">
        <ele>1367</ele>
        <time>2019-01-20T08:18:38.000Z</time>
      </trkpt>
      <trkpt lat="45.17477" lon="5.90738">
        <ele>1367</ele>
        <time>2019-01-20T08:18:39.000Z</time>
      </trkpt>
      <trkpt lat="45.17477" lon="5.90738">
        <ele>1367</ele>
        <time>2019-01-20T08:18:40.000Z</time>
      </trkpt>
      <trkpt lat="45.17476" lon="5.9074">
        <ele>1367</ele>
        <time>2019-01-20T08:18:41.000Z</time>
      </trkpt>
      <trkpt lat="45.17476" lon="5.9074">
        <ele>1367</ele>
        <time>2019-01-20T08:18:42.000Z</time>
      </trkpt>
      <trkpt lat="45.17476" lon="5.9074">
        <ele>1367</ele>
        <time>2019-01-20T08:18:43.000Z</time>
      </trkpt>
      <trkpt lat="45.17476" lon="5.90741">
        <ele>1368</ele>
        <time>2019-01-20T08:18:44.000Z</time>
      </trkpt>
      <trkpt lat="45.17475" lon="5.90742">
        <ele>1368</ele>
        <time>2019-01-20T08:18:45.000Z</time>
      </trkpt>
      <trkpt lat="45.17475" lon="5.90743">
        <ele>1368</ele>
        <time>2019-01-20T08:18:47.000Z</time>
      </trkpt>
      <trkpt lat="45.17474" lon="5.90743">
        <ele>1368</ele>
        <time>2019-01-20T08:18:48.000Z</time>
      </trkpt>
      <trkpt lat="45.17474" lon="5.90744">
        <ele>1369</ele>
        <time>2019-01-20T08:18:49.000Z</time>
      </trkpt>
      <trkpt lat="45.17473" lon="5.90745">
        <ele>1369</ele>
        <time>2019-01-20T08:18:50.000Z</time>
      </trkpt>
      <trkpt lat="45.17473" lon="5.90746">
        <ele>1369</ele>
        <time>2019-01-20T08:18:51.000Z</time>
      </trkpt>
      <trkpt lat="45.17473" lon="5.90746">
        <ele>1370</ele>
        <time>2019-01-20T08:18:52.000Z</time>
      </trkpt>
      <trkpt lat="45.17473" lon="5.90746">
        <ele>1370</ele>
        <time>2019-01-20T08:18:53.000Z</time>
      </trkpt>
      <trkpt lat="45.1747" lon="5.90752">
        <ele>1371</ele>
        <time>2019-01-20T08:18:54.000Z</time>
      </trkpt>
      <trkpt lat="45.1747" lon="5.90752">
        <ele>1371</ele>
        <time>2019-01-20T08:18:55.000Z</time>
      </trkpt>
      <trkpt lat="45.17468" lon="5.90754">
        <ele>1371</ele>
        <time>2019-01-20T08:18:56.000Z</time>
      </trkpt>
      <trkpt lat="45.17468" lon="5.90754">
        <ele>1372</ele>
        <time>2019-01-20T08:18:57.000Z</time>
      </trkpt>
      <trkpt lat="45.17468" lon="5.90754">
        <ele>1372</ele>
        <time>2019-01-20T08:18:58.000Z</time>
      </trkpt>
      <trkpt lat="45.17467" lon="5.90757">
        <ele>1372</ele>
        <time>2019-01-20T08:18:59.000Z</time>
      </trkpt>
      <trkpt lat="45.17467" lon="5.90757">
        <ele>1372</ele>
        <time>2019-01-20T08:19:00.000Z</time>
      </trkpt>
      <trkpt lat="45.17467" lon="5.90757">
        <ele>1372</ele>
        <time>2019-01-20T08:19:01.000Z</time>
      </trkpt>
      <trkpt lat="45.17466" lon="5.90759">
        <ele>1373</ele>
        <time>2019-01-20T08:19:02.000Z</time>
      </trkpt>
      <trkpt lat="45.17466" lon="5.90759">
        <ele>1373</ele>
        <time>2019-01-20T08:19:03.000Z</time>
      </trkpt>
      <trkpt lat="45.17466" lon="5.9076">
        <ele>1373</ele>
        <time>2019-01-20T08:19:04.000Z</time>
      </trkpt>
      <trkpt lat="45.17466" lon="5.9076">
        <ele>1374</ele>
        <time>2019-01-20T08:19:06.000Z</time>
      </trkpt>
      <trkpt lat="45.17466" lon="5.9076">
        <ele>1374</ele>
        <time>2019-01-20T08:19:07.000Z</time>
      </trkpt>
      <trkpt lat="45.17466" lon="5.90761">
        <ele>1375</ele>
        <time>2019-01-20T08:19:08.000Z</time>
      </trkpt>
      <trkpt lat="45.17466" lon="5.90761">
        <ele>1375</ele>
        <time>2019-01-20T08:19:09.000Z</time>
      </trkpt>
      <trkpt lat="45.17466" lon="5.90761">
        <ele>1375</ele>
        <time>2019-01-20T08:19:10.000Z</time>
      </trkpt>
      <trkpt lat="45.17466" lon="5.90762">
        <ele>1375</ele>
        <time>2019-01-20T08:19:11.000Z</time>
      </trkpt>
      <trkpt lat="45.17466" lon="5.90762">
        <ele>1375</ele>
        <time>2019-01-20T08:19:12.000Z</time>
      </trkpt>
      <trkpt lat="45.17464" lon="5.90771">
        <ele>1375</ele>
        <time>2019-01-20T08:19:13.000Z</time>
      </trkpt>
      <trkpt lat="45.17464" lon="5.90771">
        <ele>1376</ele>
        <time>2019-01-20T08:19:14.000Z</time>
      </trkpt>
      <trkpt lat="45.17464" lon="5.90771">
        <ele>1376</ele>
        <time>2019-01-20T08:19:15.000Z</time>
      </trkpt>
      <trkpt lat="45.17465" lon="5.90772">
        <ele>1377</ele>
        <time>2019-01-20T08:19:16.000Z</time>
      </trkpt>
      <trkpt lat="45.17465" lon="5.90772">
        <ele>1377</ele>
        <time>2019-01-20T08:19:17.000Z</time>
      </trkpt>
      <trkpt lat="45.17465" lon="5.90773">
        <ele>1377</ele>
        <time>2019-01-20T08:19:18.000Z</time>
      </trkpt>
      <trkpt lat="45.17465" lon="5.90773">
        <ele>1377</ele>
        <time>2019-01-20T08:19:19.000Z</time>
      </trkpt>
      <trkpt lat="45.17468" lon="5.90779">
        <ele>1377</ele>
        <time>2019-01-20T08:19:20.000Z</time>
      </trkpt>
      <trkpt lat="45.17468" lon="5.90779">
        <ele>1377</ele>
        <time>2019-01-20T08:19:21.000Z</time>
      </trkpt>
      <trkpt lat="45.17469" lon="5.90781">
        <ele>1377</ele>
        <time>2019-01-20T08:19:22.000Z</time>
      </trkpt>
      <trkpt lat="45.17469" lon="5.90781">
        <ele>1377</ele>
        <time>2019-01-20T08:19:23.000Z</time>
      </trkpt>
      <trkpt lat="45.1747" lon="5.90783">
        <ele>1377</ele>
        <time>2019-01-20T08:19:25.000Z</time>
      </trkpt>
      <trkpt lat="45.1747" lon="5.90783">
        <ele>1377</ele>
        <time>2019-01-20T08:19:26.000Z</time>
      </trkpt>
      <trkpt lat="45.17472" lon="5.90785">
        <ele>1377</ele>
        <time>2019-01-20T08:19:27.000Z</time>
      </trkpt>
      <trkpt lat="45.17472" lon="5.90785">
        <ele>1377</ele>
        <time>2019-01-20T08:19:28.000Z</time>
      </trkpt>
      <trkpt lat="45.17472" lon="5.90785">
        <ele>1377</ele>
        <time>2019-01-20T08:19:29.000Z</time>
      </trkpt>
      <trkpt lat="45.17473" lon="5.90786">
        <ele>1378</ele>
        <time>2019-01-20T08:19:30.000Z</time>
      </trkpt>
      <trkpt lat="45.17473" lon="5.90786">
        <ele>1378</ele>
        <time>2019-01-20T08:19:32.000Z</time>
      </trkpt>
      <trkpt lat="45.17474" lon="5.90789">
        <ele>1378</ele>
        <time>2019-01-20T08:19:33.000Z</time>
      </trkpt>
      <trkpt lat="45.17474" lon="5.90789">
        <ele>1378</ele>
        <time>2019-01-20T08:19:34.000Z</time>
      </trkpt>
      <trkpt lat="45.17474" lon="5.90789">
        <ele>1379</ele>
        <time>2019-01-20T08:19:35.000Z</time>
      </trkpt>
      <trkpt lat="45.17475" lon="5.90791">
        <ele>1379</ele>
        <time>2019-01-20T08:19:36.000Z</time>
      </trkpt>
      <trkpt lat="45.17475" lon="5.90791">
        <ele>1379</ele>
        <time>2019-01-20T08:19:37.000Z</time>
      </trkpt>
      <trkpt lat="45.17475" lon="5.90791">
        <ele>1379</ele>
        <time>2019-01-20T08:19:38.000Z</time>
      </trkpt>
      <trkpt lat="45.17475" lon="5.90791">
        <ele>1379</ele>
        <time>2019-01-20T08:19:39.000Z</time>
      </trkpt>
      <trkpt lat="45.17475" lon="5.90791">
        <ele>1379</ele>
        <time>2019-01-20T08:19:40.000Z</time>
      </trkpt>
      <trkpt lat="45.17476" lon="5.90793">
        <ele>1379</ele>
        <time>2019-01-20T08:19:41.000Z</time>
      </trkpt>
      <trkpt lat="45.17476" lon="5.90793">
        <ele>1379</ele>
        <time>2019-01-20T08:19:42.000Z</time>
      </trkpt>
      <trkpt lat="45.17476" lon="5.90793">
        <ele>1379</ele>
        <time>2019-01-20T08:19:44.000Z</time>
      </trkpt>
      <trkpt lat="45.17478" lon="5.90796">
        <ele>1379</ele>
        <time>2019-01-20T08:19:45.000Z</time>
      </trkpt>
      <trkpt lat="45.17478" lon="5.90796">
        <ele>1379</ele>
        <time>2019-01-20T08:19:46.000Z</time>
      </trkpt>
      <trkpt lat="45.17478" lon="5.90796">
        <ele>1380</ele>
        <time>2019-01-20T08:19:47.000Z</time>
      </trkpt>
      <trkpt lat="45.17479" lon="5.90798">
        <ele>1380</ele>
        <time>2019-01-20T08:19:48.000Z</time>
      </trkpt>
      <trkpt lat="45.17479" lon="5.90798">
        <ele>1380</ele>
        <time>2019-01-20T08:19:49.000Z</time>
      </trkpt>
      <trkpt lat="45.17479" lon="5.90798">
        <ele>1380</ele>
        <time>2019-01-20T08:19:50.000Z</time>
      </trkpt>
      <trkpt lat="45.17481" lon="5.90799">
        <ele>1381</ele>
        <time>2019-01-20T08:19:51.000Z</time>
      </trkpt>
      <trkpt lat="45.17481" lon="5.90799">
        <ele>1381</ele>
        <time>2019-01-20T08:19:52.000Z</time>
      </trkpt>
      <trkpt lat="45.17483" lon="5.90801">
        <ele>1382</ele>
        <time>2019-01-20T08:19:53.000Z</time>
      </trkpt>
      <trkpt lat="45.17483" lon="5.90801">
        <ele>1382</ele>
        <time>2019-01-20T08:19:54.000Z</time>
      </trkpt>
      <trkpt lat="45.17484" lon="5.90803">
        <ele>1383</ele>
        <time>2019-01-20T08:19:55.000Z</time>
      </trkpt>
      <trkpt lat="45.17484" lon="5.90803">
        <ele>1383</ele>
        <time>2019-01-20T08:19:56.000Z</time>
      </trkpt>
      <trkpt lat="45.17484" lon="5.90803">
        <ele>1383</ele>
        <time>2019-01-20T08:19:57.000Z</time>
      </trkpt>
      <trkpt lat="45.17486" lon="5.90806">
        <ele>1383</ele>
        <time>2019-01-20T08:19:58.000Z</time>
      </trkpt>
      <trkpt lat="45.17486" lon="5.90806">
        <ele>1383</ele>
        <time>2019-01-20T08:19:59.000Z</time>
      </trkpt>
      <trkpt lat="45.17487" lon="5.90808">
        <ele>1384</ele>
        <time>2019-01-20T08:20:00.000Z</time>
      </trkpt>
      <trkpt lat="45.17487" lon="5.90808">
        <ele>1384</ele>
        <time>2019-01-20T08:20:01.000Z</time>
      </trkpt>
      <trkpt lat="45.17488" lon="5.9081">
        <ele>1384</ele>
        <time>2019-01-20T08:20:02.000Z</time>
      </trkpt>
      <trkpt lat="45.17488" lon="5.9081">
        <ele>1384</ele>
        <time>2019-01-20T08:20:03.000Z</time>
      </trkpt>
      <trkpt lat="45.17488" lon="5.90814">
        <ele>1384</ele>
        <time>2019-01-20T08:20:04.000Z</time>
      </trkpt>
      <trkpt lat="45.17488" lon="5.90814">
        <ele>1384</ele>
        <time>2019-01-20T08:20:05.000Z</time>
      </trkpt>
      <trkpt lat="45.17488" lon="5.90814">
        <ele>1385</ele>
        <time>2019-01-20T08:20:06.000Z</time>
      </trkpt>
      <trkpt lat="45.17489" lon="5.90817">
        <ele>1385</ele>
        <time>2019-01-20T08:20:07.000Z</time>
      </trkpt>
      <trkpt lat="45.17489" lon="5.90817">
        <ele>1386</ele>
        <time>2019-01-20T08:20:08.000Z</time>
      </trkpt>
      <trkpt lat="45.17489" lon="5.90821">
        <ele>1386</ele>
        <time>2019-01-20T08:20:10.000Z</time>
      </trkpt>
      <trkpt lat="45.17489" lon="5.90821">
        <ele>1386</ele>
        <time>2019-01-20T08:20:11.000Z</time>
      </trkpt>
      <trkpt lat="45.17489" lon="5.90821">
        <ele>1387</ele>
        <time>2019-01-20T08:20:12.000Z</time>
      </trkpt>
      <trkpt lat="45.17491" lon="5.90824">
        <ele>1387</ele>
        <time>2019-01-20T08:20:13.000Z</time>
      </trkpt>
      <trkpt lat="45.17491" lon="5.90824">
        <ele>1387</ele>
        <time>2019-01-20T08:20:14.000Z</time>
      </trkpt>
      <trkpt lat="45.17491" lon="5.90827">
        <ele>1388</ele>
        <time>2019-01-20T08:20:15.000Z</time>
      </trkpt>
      <trkpt lat="45.17491" lon="5.90827">
        <ele>1388</ele>
        <time>2019-01-20T08:20:16.000Z</time>
      </trkpt>
      <trkpt lat="45.17491" lon="5.90828">
        <ele>1388</ele>
        <time>2019-01-20T08:20:17.000Z</time>
      </trkpt>
      <trkpt lat="45.17491" lon="5.90829">
        <ele>1389</ele>
        <time>2019-01-20T08:20:18.000Z</time>
      </trkpt>
      <trkpt lat="45.1749" lon="5.90829">
        <ele>1389</ele>
        <time>2019-01-20T08:20:19.000Z</time>
      </trkpt>
      <trkpt lat="45.1749" lon="5.9083">
        <ele>1389</ele>
        <time>2019-01-20T08:20:20.000Z</time>
      </trkpt>
      <trkpt lat="45.17486" lon="5.90835">
        <ele>1389</ele>
        <time>2019-01-20T08:20:22.000Z</time>
      </trkpt>
      <trkpt lat="45.17485" lon="5.90836">
        <ele>1389</ele>
        <time>2019-01-20T08:20:23.000Z</time>
      </trkpt>
      <trkpt lat="45.17483" lon="5.90837">
        <ele>1389</ele>
        <time>2019-01-20T08:20:24.000Z</time>
      </trkpt>
      <trkpt lat="45.17483" lon="5.90837">
        <ele>1390</ele>
        <time>2019-01-20T08:20:25.000Z</time>
      </trkpt>
      <trkpt lat="45.17481" lon="5.90838">
        <ele>1390</ele>
        <time>2019-01-20T08:20:26.000Z</time>
      </trkpt>
      <trkpt lat="45.17481" lon="5.90838">
        <ele>1390</ele>
        <time>2019-01-20T08:20:27.000Z</time>
      </trkpt>
      <trkpt lat="45.17478" lon="5.9084">
        <ele>1390</ele>
        <time>2019-01-20T08:20:28.000Z</time>
      </trkpt>
      <trkpt lat="45.17478" lon="5.9084">
        <ele>1390</ele>
        <time>2019-01-20T08:20:29.000Z</time>
      </trkpt>
      <trkpt lat="45.17476" lon="5.90842">
        <ele>1391</ele>
        <time>2019-01-20T08:20:30.000Z</time>
      </trkpt>
      <trkpt lat="45.17476" lon="5.90842">
        <ele>1391</ele>
        <time>2019-01-20T08:20:31.000Z</time>
      </trkpt>
      <trkpt lat="45.17474" lon="5.90842">
        <ele>1391</ele>
        <time>2019-01-20T08:20:32.000Z</time>
      </trkpt>
      <trkpt lat="45.17474" lon="5.90842">
        <ele>1392</ele>
        <time>2019-01-20T08:20:33.000Z</time>
      </trkpt>
      <trkpt lat="45.17474" lon="5.90842">
        <ele>1392</ele>
        <time>2019-01-20T08:20:34.000Z</time>
      </trkpt>
      <trkpt lat="45.17472" lon="5.90843">
        <ele>1392</ele>
        <time>2019-01-20T08:20:35.000Z</time>
      </trkpt>
      <trkpt lat="45.17472" lon="5.90843">
        <ele>1392</ele>
        <time>2019-01-20T08:20:36.000Z</time>
      </trkpt>
      <trkpt lat="45.17469" lon="5.90844">
        <ele>1392</ele>
        <time>2019-01-20T08:20:37.000Z</time>
      </trkpt>
      <trkpt lat="45.17469" lon="5.90844">
        <ele>1392</ele>
        <time>2019-01-20T08:20:38.000Z</time>
      </trkpt>
      <trkpt lat="45.17469" lon="5.90844">
        <ele>1393</ele>
        <time>2019-01-20T08:20:39.000Z</time>
      </trkpt>
      <trkpt lat="45.17468" lon="5.90845">
        <ele>1393</ele>
        <time>2019-01-20T08:20:40.000Z</time>
      </trkpt>
      <trkpt lat="45.17468" lon="5.90845">
        <ele>1393</ele>
        <time>2019-01-20T08:20:41.000Z</time>
      </trkpt>
      <trkpt lat="45.17468" lon="5.90845">
        <ele>1393</ele>
        <time>2019-01-20T08:20:42.000Z</time>
      </trkpt>
      <trkpt lat="45.17468" lon="5.90845">
        <ele>1394</ele>
        <time>2019-01-20T08:20:43.000Z</time>
      </trkpt>
      <trkpt lat="45.17468" lon="5.90845">
        <ele>1394</ele>
        <time>2019-01-20T08:20:44.000Z</time>
      </trkpt>
      <trkpt lat="45.17466" lon="5.90848">
        <ele>1394</ele>
        <time>2019-01-20T08:20:45.000Z</time>
      </trkpt>
      <trkpt lat="45.17466" lon="5.90848">
        <ele>1394</ele>
        <time>2019-01-20T08:20:46.000Z</time>
      </trkpt>
      <trkpt lat="45.17466" lon="5.90848">
        <ele>1395</ele>
        <time>2019-01-20T08:20:47.000Z</time>
      </trkpt>
      <trkpt lat="45.17466" lon="5.90848">
        <ele>1395</ele>
        <time>2019-01-20T08:20:48.000Z</time>
      </trkpt>
      <trkpt lat="45.17463" lon="5.90849">
        <ele>1395</ele>
        <time>2019-01-20T08:20:49.000Z</time>
      </trkpt>
      <trkpt lat="45.17463" lon="5.90849">
        <ele>1395</ele>
        <time>2019-01-20T08:20:50.000Z</time>
      </trkpt>
      <trkpt lat="45.17463" lon="5.90849">
        <ele>1396</ele>
        <time>2019-01-20T08:20:51.000Z</time>
      </trkpt>
      <trkpt lat="45.1746" lon="5.9085">
        <ele>1396</ele>
        <time>2019-01-20T08:20:52.000Z</time>
      </trkpt>
      <trkpt lat="45.1746" lon="5.9085">
        <ele>1396</ele>
        <time>2019-01-20T08:20:53.000Z</time>
      </trkpt>
      <trkpt lat="45.17458" lon="5.90852">
        <ele>1396</ele>
        <time>2019-01-20T08:20:54.000Z</time>
      </trkpt>
      <trkpt lat="45.17458" lon="5.90852">
        <ele>1396</ele>
        <time>2019-01-20T08:20:55.000Z</time>
      </trkpt>
      <trkpt lat="45.17458" lon="5.90852">
        <ele>1396</ele>
        <time>2019-01-20T08:20:56.000Z</time>
      </trkpt>
      <trkpt lat="45.17458" lon="5.90852">
        <ele>1397</ele>
        <time>2019-01-20T08:20:57.000Z</time>
      </trkpt>
      <trkpt lat="45.17458" lon="5.90852">
        <ele>1397</ele>
        <time>2019-01-20T08:20:58.000Z</time>
      </trkpt>
      <trkpt lat="45.17456" lon="5.90854">
        <ele>1397</ele>
        <time>2019-01-20T08:20:59.000Z</time>
      </trkpt>
      <trkpt lat="45.17456" lon="5.90854">
        <ele>1397</ele>
        <time>2019-01-20T08:21:00.000Z</time>
      </trkpt>
      <trkpt lat="45.17454" lon="5.90856">
        <ele>1397</ele>
        <time>2019-01-20T08:21:01.000Z</time>
      </trkpt>
      <trkpt lat="45.17454" lon="5.90856">
        <ele>1397</ele>
        <time>2019-01-20T08:21:02.000Z</time>
      </trkpt>
      <trkpt lat="45.17452" lon="5.90858">
        <ele>1398</ele>
        <time>2019-01-20T08:21:03.000Z</time>
      </trkpt>
      <trkpt lat="45.1745" lon="5.90859">
        <ele>1398</ele>
        <time>2019-01-20T08:21:04.000Z</time>
      </trkpt>
      <trkpt lat="45.1745" lon="5.90859">
        <ele>1398</ele>
        <time>2019-01-20T08:21:05.000Z</time>
      </trkpt>
      <trkpt lat="45.17447" lon="5.9086">
        <ele>1398</ele>
        <time>2019-01-20T08:21:06.000Z</time>
      </trkpt>
      <trkpt lat="45.17447" lon="5.9086">
        <ele>1398</ele>
        <time>2019-01-20T08:21:07.000Z</time>
      </trkpt>
      <trkpt lat="45.17445" lon="5.90861">
        <ele>1399</ele>
        <time>2019-01-20T08:21:08.000Z</time>
      </trkpt>
      <trkpt lat="45.17445" lon="5.90861">
        <ele>1399</ele>
        <time>2019-01-20T08:21:09.000Z</time>
      </trkpt>
      <trkpt lat="45.17445" lon="5.90861">
        <ele>1399</ele>
        <time>2019-01-20T08:21:10.000Z</time>
      </trkpt>
      <trkpt lat="45.17443" lon="5.90863">
        <ele>1400</ele>
        <time>2019-01-20T08:21:11.000Z</time>
      </trkpt>
      <trkpt lat="45.17443" lon="5.90863">
        <ele>1401</ele>
        <time>2019-01-20T08:21:12.000Z</time>
      </trkpt>
      <trkpt lat="45.17441" lon="5.90864">
        <ele>1401</ele>
        <time>2019-01-20T08:21:13.000Z</time>
      </trkpt>
      <trkpt lat="45.17441" lon="5.90864">
        <ele>1401</ele>
        <time>2019-01-20T08:21:14.000Z</time>
      </trkpt>
      <trkpt lat="45.17439" lon="5.90865">
        <ele>1401</ele>
        <time>2019-01-20T08:21:15.000Z</time>
      </trkpt>
      <trkpt lat="45.17439" lon="5.90865">
        <ele>1401</ele>
        <time>2019-01-20T08:21:16.000Z</time>
      </trkpt>
      <trkpt lat="45.17439" lon="5.90865">
        <ele>1401</ele>
        <time>2019-01-20T08:21:17.000Z</time>
      </trkpt>
      <trkpt lat="45.17436" lon="5.90866">
        <ele>1401</ele>
        <time>2019-01-20T08:21:18.000Z</time>
      </trkpt>
      <trkpt lat="45.17436" lon="5.90866">
        <ele>1402</ele>
        <time>2019-01-20T08:21:19.000Z</time>
      </trkpt>
      <trkpt lat="45.17436" lon="5.90866">
        <ele>1402</ele>
        <time>2019-01-20T08:21:20.000Z</time>
      </trkpt>
      <trkpt lat="45.17433" lon="5.90867">
        <ele>1402</ele>
        <time>2019-01-20T08:21:21.000Z</time>
      </trkpt>
      <trkpt lat="45.17433" lon="5.90867">
        <ele>1402</ele>
        <time>2019-01-20T08:21:22.000Z</time>
      </trkpt>
      <trkpt lat="45.17432" lon="5.90868">
        <ele>1403</ele>
        <time>2019-01-20T08:21:23.000Z</time>
      </trkpt>
      <trkpt lat="45.17432" lon="5.90868">
        <ele>1403</ele>
        <time>2019-01-20T08:21:24.000Z</time>
      </trkpt>
      <trkpt lat="45.1743" lon="5.9087">
        <ele>1403</ele>
        <time>2019-01-20T08:21:25.000Z</time>
      </trkpt>
      <trkpt lat="45.1743" lon="5.9087">
        <ele>1403</ele>
        <time>2019-01-20T08:21:26.000Z</time>
      </trkpt>
      <trkpt lat="45.17428" lon="5.90871">
        <ele>1403</ele>
        <time>2019-01-20T08:21:27.000Z</time>
      </trkpt>
      <trkpt lat="45.17428" lon="5.90871">
        <ele>1403</ele>
        <time>2019-01-20T08:21:28.000Z</time>
      </trkpt>
      <trkpt lat="45.17426" lon="5.90873">
        <ele>1404</ele>
        <time>2019-01-20T08:21:29.000Z</time>
      </trkpt>
      <trkpt lat="45.17426" lon="5.90873">
        <ele>1404</ele>
        <time>2019-01-20T08:21:30.000Z</time>
      </trkpt>
      <trkpt lat="45.17424" lon="5.90874">
        <ele>1404</ele>
        <time>2019-01-20T08:21:31.000Z</time>
      </trkpt>
      <trkpt lat="45.17424" lon="5.90874">
        <ele>1404</ele>
        <time>2019-01-20T08:21:32.000Z</time>
      </trkpt>
      <trkpt lat="45.1742" lon="5.90876">
        <ele>1404</ele>
        <time>2019-01-20T08:21:33.000Z</time>
      </trkpt>
      <trkpt lat="45.17418" lon="5.90877">
        <ele>1404</ele>
        <time>2019-01-20T08:21:34.000Z</time>
      </trkpt>
      <trkpt lat="45.17418" lon="5.90877">
        <ele>1404</ele>
        <time>2019-01-20T08:21:35.000Z</time>
      </trkpt>
      <trkpt lat="45.17415" lon="5.90877">
        <ele>1404</ele>
        <time>2019-01-20T08:21:36.000Z</time>
      </trkpt>
      <trkpt lat="45.17415" lon="5.90877">
        <ele>1404</ele>
        <time>2019-01-20T08:21:38.000Z</time>
      </trkpt>
      <trkpt lat="45.17411" lon="5.90879">
        <ele>1404</ele>
        <time>2019-01-20T08:21:39.000Z</time>
      </trkpt>
      <trkpt lat="45.17411" lon="5.90879">
        <ele>1404</ele>
        <time>2019-01-20T08:21:40.000Z</time>
      </trkpt>
      <trkpt lat="45.17409" lon="5.90877">
        <ele>1404</ele>
        <time>2019-01-20T08:21:41.000Z</time>
      </trkpt>
      <trkpt lat="45.17409" lon="5.90877">
        <ele>1405</ele>
        <time>2019-01-20T08:21:42.000Z</time>
      </trkpt>
      <trkpt lat="45.17407" lon="5.90875">
        <ele>1405</ele>
        <time>2019-01-20T08:21:43.000Z</time>
      </trkpt>
      <trkpt lat="45.17407" lon="5.90875">
        <ele>1405</ele>
        <time>2019-01-20T08:21:44.000Z</time>
      </trkpt>
      <trkpt lat="45.17405" lon="5.90876">
        <ele>1405</ele>
        <time>2019-01-20T08:21:45.000Z</time>
      </trkpt>
      <trkpt lat="45.17405" lon="5.90876">
        <ele>1406</ele>
        <time>2019-01-20T08:21:46.000Z</time>
      </trkpt>
      <trkpt lat="45.17403" lon="5.90875">
        <ele>1407</ele>
        <time>2019-01-20T08:21:47.000Z</time>
      </trkpt>
      <trkpt lat="45.17403" lon="5.90875">
        <ele>1407</ele>
        <time>2019-01-20T08:21:48.000Z</time>
      </trkpt>
      <trkpt lat="45.174" lon="5.90875">
        <ele>1407</ele>
        <time>2019-01-20T08:21:49.000Z</time>
      </trkpt>
      <trkpt lat="45.174" lon="5.90875">
        <ele>1407</ele>
        <time>2019-01-20T08:21:50.000Z</time>
      </trkpt>
      <trkpt lat="45.17398" lon="5.90875">
        <ele>1407</ele>
        <time>2019-01-20T08:21:51.000Z</time>
      </trkpt>
      <trkpt lat="45.17398" lon="5.90875">
        <ele>1407</ele>
        <time>2019-01-20T08:21:52.000Z</time>
      </trkpt>
      <trkpt lat="45.17395" lon="5.90876">
        <ele>1407</ele>
        <time>2019-01-20T08:21:53.000Z</time>
      </trkpt>
      <trkpt lat="45.17395" lon="5.90876">
        <ele>1407</ele>
        <time>2019-01-20T08:21:54.000Z</time>
      </trkpt>
      <trkpt lat="45.17393" lon="5.90876">
        <ele>1407</ele>
        <time>2019-01-20T08:21:55.000Z</time>
      </trkpt>
      <trkpt lat="45.17393" lon="5.90876">
        <ele>1407</ele>
        <time>2019-01-20T08:21:57.000Z</time>
      </trkpt>
      <trkpt lat="45.17391" lon="5.90877">
        <ele>1407</ele>
        <time>2019-01-20T08:21:58.000Z</time>
      </trkpt>
      <trkpt lat="45.17391" lon="5.90877">
        <ele>1407</ele>
        <time>2019-01-20T08:21:59.000Z</time>
      </trkpt>
      <trkpt lat="45.17389" lon="5.90876">
        <ele>1407</ele>
        <time>2019-01-20T08:22:00.000Z</time>
      </trkpt>
      <trkpt lat="45.17389" lon="5.90876">
        <ele>1407</ele>
        <time>2019-01-20T08:22:01.000Z</time>
      </trkpt>
      <trkpt lat="45.17387" lon="5.90875">
        <ele>1407</ele>
        <time>2019-01-20T08:22:02.000Z</time>
      </trkpt>
      <trkpt lat="45.17387" lon="5.90875">
        <ele>1407</ele>
        <time>2019-01-20T08:22:03.000Z</time>
      </trkpt>
      <trkpt lat="45.17387" lon="5.90875">
        <ele>1408</ele>
        <time>2019-01-20T08:22:04.000Z</time>
      </trkpt>
      <trkpt lat="45.17385" lon="5.90874">
        <ele>1408</ele>
        <time>2019-01-20T08:22:05.000Z</time>
      </trkpt>
      <trkpt lat="45.17385" lon="5.90874">
        <ele>1408</ele>
        <time>2019-01-20T08:22:06.000Z</time>
      </trkpt>
      <trkpt lat="45.17385" lon="5.90874">
        <ele>1408</ele>
        <time>2019-01-20T08:22:07.000Z</time>
      </trkpt>
      <trkpt lat="45.17382" lon="5.90874">
        <ele>1408</ele>
        <time>2019-01-20T08:22:08.000Z</time>
      </trkpt>
      <trkpt lat="45.17382" lon="5.90874">
        <ele>1408</ele>
        <time>2019-01-20T08:22:09.000Z</time>
      </trkpt>
      <trkpt lat="45.17379" lon="5.90875">
        <ele>1408</ele>
        <time>2019-01-20T08:22:10.000Z</time>
      </trkpt>
      <trkpt lat="45.17379" lon="5.90875">
        <ele>1408</ele>
        <time>2019-01-20T08:22:11.000Z</time>
      </trkpt>
      <trkpt lat="45.17376" lon="5.90876">
        <ele>1409</ele>
        <time>2019-01-20T08:22:12.000Z</time>
      </trkpt>
      <trkpt lat="45.17376" lon="5.90876">
        <ele>1409</ele>
        <time>2019-01-20T08:22:13.000Z</time>
      </trkpt>
      <trkpt lat="45.17373" lon="5.90876">
        <ele>1409</ele>
        <time>2019-01-20T08:22:14.000Z</time>
      </trkpt>
      <trkpt lat="45.17373" lon="5.90876">
        <ele>1409</ele>
        <time>2019-01-20T08:22:16.000Z</time>
      </trkpt>
      <trkpt lat="45.1737" lon="5.90876">
        <ele>1409</ele>
        <time>2019-01-20T08:22:17.000Z</time>
      </trkpt>
      <trkpt lat="45.1737" lon="5.90876">
        <ele>1410</ele>
        <time>2019-01-20T08:22:18.000Z</time>
      </trkpt>
      <trkpt lat="45.17368" lon="5.90876">
        <ele>1410</ele>
        <time>2019-01-20T08:22:19.000Z</time>
      </trkpt>
      <trkpt lat="45.17368" lon="5.90876">
        <ele>1411</ele>
        <time>2019-01-20T08:22:20.000Z</time>
      </trkpt>
      <trkpt lat="45.17368" lon="5.90876">
        <ele>1411</ele>
        <time>2019-01-20T08:22:21.000Z</time>
      </trkpt>
      <trkpt lat="45.17366" lon="5.90876">
        <ele>1412</ele>
        <time>2019-01-20T08:22:22.000Z</time>
      </trkpt>
      <trkpt lat="45.17366" lon="5.90876">
        <ele>1412</ele>
        <time>2019-01-20T08:22:23.000Z</time>
      </trkpt>
      <trkpt lat="45.17366" lon="5.90876">
        <ele>1412</ele>
        <time>2019-01-20T08:22:24.000Z</time>
      </trkpt>
      <trkpt lat="45.17363" lon="5.90876">
        <ele>1412</ele>
        <time>2019-01-20T08:22:25.000Z</time>
      </trkpt>
      <trkpt lat="45.17363" lon="5.90876">
        <ele>1412</ele>
        <time>2019-01-20T08:22:26.000Z</time>
      </trkpt>
      <trkpt lat="45.17361" lon="5.90878">
        <ele>1413</ele>
        <time>2019-01-20T08:22:27.000Z</time>
      </trkpt>
      <trkpt lat="45.17361" lon="5.90878">
        <ele>1414</ele>
        <time>2019-01-20T08:22:28.000Z</time>
      </trkpt>
      <trkpt lat="45.17361" lon="5.90878">
        <ele>1414</ele>
        <time>2019-01-20T08:22:29.000Z</time>
      </trkpt>
      <trkpt lat="45.17358" lon="5.90879">
        <ele>1414</ele>
        <time>2019-01-20T08:22:30.000Z</time>
      </trkpt>
      <trkpt lat="45.17358" lon="5.90879">
        <ele>1414</ele>
        <time>2019-01-20T08:22:31.000Z</time>
      </trkpt>
      <trkpt lat="45.17356" lon="5.90881">
        <ele>1415</ele>
        <time>2019-01-20T08:22:32.000Z</time>
      </trkpt>
      <trkpt lat="45.17356" lon="5.90881">
        <ele>1415</ele>
        <time>2019-01-20T08:22:33.000Z</time>
      </trkpt>
      <trkpt lat="45.17354" lon="5.90882">
        <ele>1415</ele>
        <time>2019-01-20T08:22:35.000Z</time>
      </trkpt>
      <trkpt lat="45.17354" lon="5.90882">
        <ele>1415</ele>
        <time>2019-01-20T08:22:36.000Z</time>
      </trkpt>
      <trkpt lat="45.17352" lon="5.90884">
        <ele>1415</ele>
        <time>2019-01-20T08:22:37.000Z</time>
      </trkpt>
      <trkpt lat="45.17352" lon="5.90884">
        <ele>1416</ele>
        <time>2019-01-20T08:22:38.000Z</time>
      </trkpt>
      <trkpt lat="45.17352" lon="5.90884">
        <ele>1417</ele>
        <time>2019-01-20T08:22:39.000Z</time>
      </trkpt>
      <trkpt lat="45.1735" lon="5.90885">
        <ele>1417</ele>
        <time>2019-01-20T08:22:40.000Z</time>
      </trkpt>
      <trkpt lat="45.1735" lon="5.90885">
        <ele>1417</ele>
        <time>2019-01-20T08:22:41.000Z</time>
      </trkpt>
      <trkpt lat="45.1735" lon="5.90885">
        <ele>1418</ele>
        <time>2019-01-20T08:22:42.000Z</time>
      </trkpt>
      <trkpt lat="45.1735" lon="5.90885">
        <ele>1418</ele>
        <time>2019-01-20T08:22:43.000Z</time>
      </trkpt>
      <trkpt lat="45.17349" lon="5.90887">
        <ele>1418</ele>
        <time>2019-01-20T08:22:44.000Z</time>
      </trkpt>
      <trkpt lat="45.17349" lon="5.90887">
        <ele>1418</ele>
        <time>2019-01-20T08:22:45.000Z</time>
      </trkpt>
      <trkpt lat="45.17349" lon="5.90887">
        <ele>1418</ele>
        <time>2019-01-20T08:22:46.000Z</time>
      </trkpt>
      <trkpt lat="45.17348" lon="5.9089">
        <ele>1418</ele>
        <time>2019-01-20T08:22:47.000Z</time>
      </trkpt>
      <trkpt lat="45.17348" lon="5.9089">
        <ele>1419</ele>
        <time>2019-01-20T08:22:48.000Z</time>
      </trkpt>
      <trkpt lat="45.17348" lon="5.90893">
        <ele>1419</ele>
        <time>2019-01-20T08:22:49.000Z</time>
      </trkpt>
      <trkpt lat="45.17348" lon="5.90893">
        <ele>1419</ele>
        <time>2019-01-20T08:22:50.000Z</time>
      </trkpt>
      <trkpt lat="45.17348" lon="5.90893">
        <ele>1419</ele>
        <time>2019-01-20T08:22:51.000Z</time>
      </trkpt>
      <trkpt lat="45.17346" lon="5.90896">
        <ele>1419</ele>
        <time>2019-01-20T08:22:52.000Z</time>
      </trkpt>
      <trkpt lat="45.17346" lon="5.90896">
        <ele>1419.6</ele>
        <time>2019-01-20T08:22:54.000Z</time>
      </trkpt>
      <trkpt lat="45.17345" lon="5.90898">
        <ele>1420</ele>
        <time>2019-01-20T08:22:55.000Z</time>
      </trkpt>
      <trkpt lat="45.17345" lon="5.90898">
        <ele>1420</ele>
        <time>2019-01-20T08:22:56.000Z</time>
      </trkpt>
      <trkpt lat="45.17345" lon="5.90898">
        <ele>1420</ele>
        <time>2019-01-20T08:22:57.000Z</time>
      </trkpt>
      <trkpt lat="45.17343" lon="5.90901">
        <ele>1421</ele>
        <time>2019-01-20T08:22:58.000Z</time>
      </trkpt>
      <trkpt lat="45.17343" lon="5.90901">
        <ele>1421</ele>
        <time>2019-01-20T08:22:59.000Z</time>
      </trkpt>
      <trkpt lat="45.17343" lon="5.90901">
        <ele>1421</ele>
        <time>2019-01-20T08:23:00.000Z</time>
      </trkpt>
      <trkpt lat="45.17342" lon="5.90903">
        <ele>1421</ele>
        <time>2019-01-20T08:23:01.000Z</time>
      </trkpt>
      <trkpt lat="45.17342" lon="5.90903">
        <ele>1422</ele>
        <time>2019-01-20T08:23:02.000Z</time>
      </trkpt>
      <trkpt lat="45.17341" lon="5.90905">
        <ele>1422</ele>
        <time>2019-01-20T08:23:03.000Z</time>
      </trkpt>
      <trkpt lat="45.17341" lon="5.90905">
        <ele>1422</ele>
        <time>2019-01-20T08:23:04.000Z</time>
      </trkpt>
      <trkpt lat="45.17339" lon="5.90907">
        <ele>1422</ele>
        <time>2019-01-20T08:23:05.000Z</time>
      </trkpt>
      <trkpt lat="45.17339" lon="5.90907">
        <ele>1422</ele>
        <time>2019-01-20T08:23:06.000Z</time>
      </trkpt>
      <trkpt lat="45.17338" lon="5.90909">
        <ele>1422</ele>
        <time>2019-01-20T08:23:07.000Z</time>
      </trkpt>
      <trkpt lat="45.17338" lon="5.90909">
        <ele>1422</ele>
        <time>2019-01-20T08:23:08.000Z</time>
      </trkpt>
      <trkpt lat="45.17338" lon="5.90909">
        <ele>1422</ele>
        <time>2019-01-20T08:23:09.000Z</time>
      </trkpt>
      <trkpt lat="45.17336" lon="5.90911">
        <ele>1422</ele>
        <time>2019-01-20T08:23:10.000Z</time>
      </trkpt>
      <trkpt lat="45.17336" lon="5.90911">
        <ele>1423</ele>
        <time>2019-01-20T08:23:11.000Z</time>
      </trkpt>
      <trkpt lat="45.17336" lon="5.90911">
        <ele>1423</ele>
        <time>2019-01-20T08:23:13.000Z</time>
      </trkpt>
      <trkpt lat="45.17336" lon="5.90911">
        <ele>1423</ele>
        <time>2019-01-20T08:23:14.000Z</time>
      </trkpt>
      <trkpt lat="45.17335" lon="5.90914">
        <ele>1423</ele>
        <time>2019-01-20T08:23:15.000Z</time>
      </trkpt>
      <trkpt lat="45.17335" lon="5.90914">
        <ele>1423</ele>
        <time>2019-01-20T08:23:16.000Z</time>
      </trkpt>
      <trkpt lat="45.17335" lon="5.90914">
        <ele>1423</ele>
        <time>2019-01-20T08:23:17.000Z</time>
      </trkpt>
      <trkpt lat="45.17335" lon="5.90914">
        <ele>1424</ele>
        <time>2019-01-20T08:23:18.000Z</time>
      </trkpt>
      <trkpt lat="45.17335" lon="5.90917">
        <ele>1424</ele>
        <time>2019-01-20T08:23:19.000Z</time>
      </trkpt>
      <trkpt lat="45.17335" lon="5.90917">
        <ele>1424</ele>
        <time>2019-01-20T08:23:20.000Z</time>
      </trkpt>
      <trkpt lat="45.17334" lon="5.9092">
        <ele>1424</ele>
        <time>2019-01-20T08:23:21.000Z</time>
      </trkpt>
      <trkpt lat="45.17334" lon="5.9092">
        <ele>1424</ele>
        <time>2019-01-20T08:23:22.000Z</time>
      </trkpt>
      <trkpt lat="45.17334" lon="5.9092">
        <ele>1424</ele>
        <time>2019-01-20T08:23:23.000Z</time>
      </trkpt>
      <trkpt lat="45.17333" lon="5.90924">
        <ele>1425</ele>
        <time>2019-01-20T08:23:24.000Z</time>
      </trkpt>
      <trkpt lat="45.17333" lon="5.90924">
        <ele>1426</ele>
        <time>2019-01-20T08:23:25.000Z</time>
      </trkpt>
      <trkpt lat="45.17333" lon="5.90924">
        <ele>1426</ele>
        <time>2019-01-20T08:23:26.000Z</time>
      </trkpt>
      <trkpt lat="45.17332" lon="5.90927">
        <ele>1427</ele>
        <time>2019-01-20T08:23:27.000Z</time>
      </trkpt>
      <trkpt lat="45.17332" lon="5.90927">
        <ele>1427</ele>
        <time>2019-01-20T08:23:28.000Z</time>
      </trkpt>
      <trkpt lat="45.17332" lon="5.90927">
        <ele>1427</ele>
        <time>2019-01-20T08:23:29.000Z</time>
      </trkpt>
      <trkpt lat="45.17332" lon="5.90927">
        <ele>1427</ele>
        <time>2019-01-20T08:23:30.000Z</time>
      </trkpt>
      <trkpt lat="45.17332" lon="5.90928">
        <ele>1427</ele>
        <time>2019-01-20T08:23:31.000Z</time>
      </trkpt>
      <trkpt lat="45.17332" lon="5.90928">
        <ele>1427</ele>
        <time>2019-01-20T08:23:32.000Z</time>
      </trkpt>
      <trkpt lat="45.17332" lon="5.90929">
        <ele>1427</ele>
        <time>2019-01-20T08:23:33.000Z</time>
      </trkpt>
      <trkpt lat="45.17332" lon="5.90929">
        <ele>1427</ele>
        <time>2019-01-20T08:23:34.000Z</time>
      </trkpt>
      <trkpt lat="45.17331" lon="5.90929">
        <ele>1428</ele>
        <time>2019-01-20T08:23:35.000Z</time>
      </trkpt>
      <trkpt lat="45.17331" lon="5.9093">
        <ele>1429</ele>
        <time>2019-01-20T08:23:36.000Z</time>
      </trkpt>
      <trkpt lat="45.17331" lon="5.9093">
        <ele>1429</ele>
        <time>2019-01-20T08:23:37.000Z</time>
      </trkpt>
      <trkpt lat="45.17331" lon="5.90931">
        <ele>1429</ele>
        <time>2019-01-20T08:23:38.000Z</time>
      </trkpt>
      <trkpt lat="45.17331" lon="5.90931">
        <ele>1429</ele>
        <time>2019-01-20T08:23:39.000Z</time>
      </trkpt>
      <trkpt lat="45.17331" lon="5.90932">
        <ele>1430</ele>
        <time>2019-01-20T08:23:40.000Z</time>
      </trkpt>
      <trkpt lat="45.17331" lon="5.90934">
        <ele>1430</ele>
        <time>2019-01-20T08:23:41.000Z</time>
      </trkpt>
      <trkpt lat="45.17332" lon="5.90935">
        <ele>1430</ele>
        <time>2019-01-20T08:23:42.000Z</time>
      </trkpt>
      <trkpt lat="45.17332" lon="5.90937">
        <ele>1430</ele>
        <time>2019-01-20T08:23:43.000Z</time>
      </trkpt>
      <trkpt lat="45.17332" lon="5.90938">
        <ele>1430</ele>
        <time>2019-01-20T08:23:44.000Z</time>
      </trkpt>
      <trkpt lat="45.17332" lon="5.90939">
        <ele>1431</ele>
        <time>2019-01-20T08:23:45.000Z</time>
      </trkpt>
      <trkpt lat="45.17332" lon="5.90941">
        <ele>1431</ele>
        <time>2019-01-20T08:23:46.000Z</time>
      </trkpt>
      <trkpt lat="45.17332" lon="5.90942">
        <ele>1431</ele>
        <time>2019-01-20T08:23:47.000Z</time>
      </trkpt>
      <trkpt lat="45.17332" lon="5.90942">
        <ele>1432</ele>
        <time>2019-01-20T08:23:48.000Z</time>
      </trkpt>
      <trkpt lat="45.17331" lon="5.90949">
        <ele>1432</ele>
        <time>2019-01-20T08:23:49.000Z</time>
      </trkpt>
      <trkpt lat="45.17331" lon="5.90949">
        <ele>1432</ele>
        <time>2019-01-20T08:23:51.000Z</time>
      </trkpt>
      <trkpt lat="45.17331" lon="5.90949">
        <ele>1432</ele>
        <time>2019-01-20T08:23:52.000Z</time>
      </trkpt>
      <trkpt lat="45.17331" lon="5.90949">
        <ele>1432</ele>
        <time>2019-01-20T08:23:53.000Z</time>
      </trkpt>
      <trkpt lat="45.17331" lon="5.90949">
        <ele>1433</ele>
        <time>2019-01-20T08:23:54.000Z</time>
      </trkpt>
      <trkpt lat="45.17331" lon="5.90952">
        <ele>1433</ele>
        <time>2019-01-20T08:23:55.000Z</time>
      </trkpt>
      <trkpt lat="45.17331" lon="5.90952">
        <ele>1433</ele>
        <time>2019-01-20T08:23:56.000Z</time>
      </trkpt>
      <trkpt lat="45.17331" lon="5.90952">
        <ele>1433</ele>
        <time>2019-01-20T08:23:57.000Z</time>
      </trkpt>
      <trkpt lat="45.17331" lon="5.90955">
        <ele>1433</ele>
        <time>2019-01-20T08:23:58.000Z</time>
      </trkpt>
      <trkpt lat="45.17331" lon="5.90955">
        <ele>1434</ele>
        <time>2019-01-20T08:23:59.000Z</time>
      </trkpt>
      <trkpt lat="45.17331" lon="5.90955">
        <ele>1434</ele>
        <time>2019-01-20T08:24:00.000Z</time>
      </trkpt>
      <trkpt lat="45.17329" lon="5.90957">
        <ele>1435</ele>
        <time>2019-01-20T08:24:01.000Z</time>
      </trkpt>
      <trkpt lat="45.17329" lon="5.90957">
        <ele>1435</ele>
        <time>2019-01-20T08:24:02.000Z</time>
      </trkpt>
      <trkpt lat="45.17329" lon="5.90957">
        <ele>1435</ele>
        <time>2019-01-20T08:24:03.000Z</time>
      </trkpt>
      <trkpt lat="45.17329" lon="5.90957">
        <ele>1435</ele>
        <time>2019-01-20T08:24:04.000Z</time>
      </trkpt>
      <trkpt lat="45.17329" lon="5.9096">
        <ele>1436</ele>
        <time>2019-01-20T08:24:05.000Z</time>
      </trkpt>
      <trkpt lat="45.17329" lon="5.9096">
        <ele>1436</ele>
        <time>2019-01-20T08:24:06.000Z</time>
      </trkpt>
      <trkpt lat="45.17329" lon="5.9096">
        <ele>1436.4</ele>
        <time>2019-01-20T08:24:08.000Z</time>
      </trkpt>
      <trkpt lat="45.17328" lon="5.90962">
        <ele>1436.4</ele>
        <time>2019-01-20T08:24:09.000Z</time>
      </trkpt>
      <trkpt lat="45.17328" lon="5.90962">
        <ele>1437</ele>
        <time>2019-01-20T08:24:10.000Z</time>
      </trkpt>
      <trkpt lat="45.17328" lon="5.90962">
        <ele>1437</ele>
        <time>2019-01-20T08:24:11.000Z</time>
      </trkpt>
      <trkpt lat="45.17327" lon="5.90965">
        <ele>1437</ele>
        <time>2019-01-20T08:24:12.000Z</time>
      </trkpt>
      <trkpt lat="45.17327" lon="5.90965">
        <ele>1437</ele>
        <time>2019-01-20T08:24:13.000Z</time>
      </trkpt>
      <trkpt lat="45.17326" lon="5.90968">
        <ele>1438</ele>
        <time>2019-01-20T08:24:14.000Z</time>
      </trkpt>
      <trkpt lat="45.17326" lon="5.90968">
        <ele>1438</ele>
        <time>2019-01-20T08:24:15.000Z</time>
      </trkpt>
      <trkpt lat="45.17325" lon="5.9097">
        <ele>1438</ele>
        <time>2019-01-20T08:24:16.000Z</time>
      </trkpt>
      <trkpt lat="45.17325" lon="5.9097">
        <ele>1438</ele>
        <time>2019-01-20T08:24:17.000Z</time>
      </trkpt>
      <trkpt lat="45.17325" lon="5.9097">
        <ele>1438</ele>
        <time>2019-01-20T08:24:18.000Z</time>
      </trkpt>
      <trkpt lat="45.17323" lon="5.90972">
        <ele>1438</ele>
        <time>2019-01-20T08:24:19.000Z</time>
      </trkpt>
      <trkpt lat="45.17323" lon="5.90972">
        <ele>1439</ele>
        <time>2019-01-20T08:24:20.000Z</time>
      </trkpt>
      <trkpt lat="45.17323" lon="5.90972">
        <ele>1439</ele>
        <time>2019-01-20T08:24:21.000Z</time>
      </trkpt>
      <trkpt lat="45.17321" lon="5.90973">
        <ele>1439</ele>
        <time>2019-01-20T08:24:22.000Z</time>
      </trkpt>
      <trkpt lat="45.17321" lon="5.90973">
        <ele>1439</ele>
        <time>2019-01-20T08:24:23.000Z</time>
      </trkpt>
      <trkpt lat="45.17321" lon="5.90973">
        <ele>1439</ele>
        <time>2019-01-20T08:24:24.000Z</time>
      </trkpt>
      <trkpt lat="45.17321" lon="5.90973">
        <ele>1439</ele>
        <time>2019-01-20T08:24:25.000Z</time>
      </trkpt>
      <trkpt lat="45.17321" lon="5.90974">
        <ele>1440</ele>
        <time>2019-01-20T08:24:26.000Z</time>
      </trkpt>
      <trkpt lat="45.17321" lon="5.90974">
        <ele>1440</ele>
        <time>2019-01-20T08:24:27.000Z</time>
      </trkpt>
      <trkpt lat="45.1732" lon="5.90974">
        <ele>1440</ele>
        <time>2019-01-20T08:24:29.000Z</time>
      </trkpt>
      <trkpt lat="45.1732" lon="5.90975">
        <ele>1440</ele>
        <time>2019-01-20T08:24:30.000Z</time>
      </trkpt>
      <trkpt lat="45.1732" lon="5.90975">
        <ele>1441</ele>
        <time>2019-01-20T08:24:31.000Z</time>
      </trkpt>
      <trkpt lat="45.1732" lon="5.90975">
        <ele>1442</ele>
        <time>2019-01-20T08:24:32.000Z</time>
      </trkpt>
      <trkpt lat="45.17319" lon="5.90982">
        <ele>1442</ele>
        <time>2019-01-20T08:24:33.000Z</time>
      </trkpt>
      <trkpt lat="45.17319" lon="5.90982">
        <ele>1442</ele>
        <time>2019-01-20T08:24:34.000Z</time>
      </trkpt>
      <trkpt lat="45.17319" lon="5.90982">
        <ele>1442</ele>
        <time>2019-01-20T08:24:35.000Z</time>
      </trkpt>
      <trkpt lat="45.17317" lon="5.90985">
        <ele>1443</ele>
        <time>2019-01-20T08:24:36.000Z</time>
      </trkpt>
      <trkpt lat="45.17317" lon="5.90985">
        <ele>1443</ele>
        <time>2019-01-20T08:24:37.000Z</time>
      </trkpt>
      <trkpt lat="45.17317" lon="5.90985">
        <ele>1443</ele>
        <time>2019-01-20T08:24:38.000Z</time>
      </trkpt>
      <trkpt lat="45.17316" lon="5.90987">
        <ele>1443</ele>
        <time>2019-01-20T08:24:39.000Z</time>
      </trkpt>
      <trkpt lat="45.17316" lon="5.90987">
        <ele>1443</ele>
        <time>2019-01-20T08:24:40.000Z</time>
      </trkpt>
      <trkpt lat="45.17316" lon="5.90987">
        <ele>1443</ele>
        <time>2019-01-20T08:24:41.000Z</time>
      </trkpt>
      <trkpt lat="45.17315" lon="5.90989">
        <ele>1443</ele>
        <time>2019-01-20T08:24:42.000Z</time>
      </trkpt>
      <trkpt lat="45.17315" lon="5.90989">
        <ele>1444</ele>
        <time>2019-01-20T08:24:43.000Z</time>
      </trkpt>
      <trkpt lat="45.17313" lon="5.90991">
        <ele>1444</ele>
        <time>2019-01-20T08:24:44.000Z</time>
      </trkpt>
      <trkpt lat="45.17313" lon="5.90991">
        <ele>1444</ele>
        <time>2019-01-20T08:24:45.000Z</time>
      </trkpt>
      <trkpt lat="45.17312" lon="5.90991">
        <ele>1445</ele>
        <time>2019-01-20T08:24:46.000Z</time>
      </trkpt>
      <trkpt lat="45.17312" lon="5.90992">
        <ele>1445</ele>
        <time>2019-01-20T08:24:47.000Z</time>
      </trkpt>
      <trkpt lat="45.17312" lon="5.90993">
        <ele>1445</ele>
        <time>2019-01-20T08:24:48.000Z</time>
      </trkpt>
      <trkpt lat="45.17311" lon="5.90993">
        <ele>1445</ele>
        <time>2019-01-20T08:24:49.000Z</time>
      </trkpt>
      <trkpt lat="45.17311" lon="5.90993">
        <ele>1445</ele>
        <time>2019-01-20T08:24:50.000Z</time>
      </trkpt>
      <trkpt lat="45.17309" lon="5.90999">
        <ele>1446</ele>
        <time>2019-01-20T08:24:51.000Z</time>
      </trkpt>
      <trkpt lat="45.17309" lon="5.90999">
        <ele>1447</ele>
        <time>2019-01-20T08:24:52.000Z</time>
      </trkpt>
      <trkpt lat="45.17309" lon="5.90999">
        <ele>1447</ele>
        <time>2019-01-20T08:24:53.000Z</time>
      </trkpt>
      <trkpt lat="45.17309" lon="5.91002">
        <ele>1448</ele>
        <time>2019-01-20T08:24:54.000Z</time>
      </trkpt>
      <trkpt lat="45.17309" lon="5.91002">
        <ele>1448</ele>
        <time>2019-01-20T08:24:55.000Z</time>
      </trkpt>
      <trkpt lat="45.1731" lon="5.91004">
        <ele>1448</ele>
        <time>2019-01-20T08:24:56.000Z</time>
      </trkpt>
      <trkpt lat="45.1731" lon="5.91004">
        <ele>1448</ele>
        <time>2019-01-20T08:24:57.000Z</time>
      </trkpt>
      <trkpt lat="45.1731" lon="5.91004">
        <ele>1448</ele>
        <time>2019-01-20T08:24:58.000Z</time>
      </trkpt>
      <trkpt lat="45.17309" lon="5.91007">
        <ele>1448</ele>
        <time>2019-01-20T08:24:59.000Z</time>
      </trkpt>
      <trkpt lat="45.17309" lon="5.91007">
        <ele>1448</ele>
        <time>2019-01-20T08:25:00.000Z</time>
      </trkpt>
      <trkpt lat="45.17309" lon="5.91007">
        <ele>1448</ele>
        <time>2019-01-20T08:25:01.000Z</time>
      </trkpt>
      <trkpt lat="45.17309" lon="5.91011">
        <ele>1449</ele>
        <time>2019-01-20T08:25:02.000Z</time>
      </trkpt>
      <trkpt lat="45.17309" lon="5.91011">
        <ele>1449</ele>
        <time>2019-01-20T08:25:03.000Z</time>
      </trkpt>
      <trkpt lat="45.1731" lon="5.91014">
        <ele>1449</ele>
        <time>2019-01-20T08:25:04.000Z</time>
      </trkpt>
      <trkpt lat="45.1731" lon="5.91014">
        <ele>1450</ele>
        <time>2019-01-20T08:25:05.000Z</time>
      </trkpt>
      <trkpt lat="45.17311" lon="5.91016">
        <ele>1450</ele>
        <time>2019-01-20T08:25:06.000Z</time>
      </trkpt>
      <trkpt lat="45.17311" lon="5.91016">
        <ele>1450</ele>
        <time>2019-01-20T08:25:07.000Z</time>
      </trkpt>
      <trkpt lat="45.17311" lon="5.91016">
        <ele>1450</ele>
        <time>2019-01-20T08:25:08.000Z</time>
      </trkpt>
      <trkpt lat="45.17311" lon="5.91019">
        <ele>1451</ele>
        <time>2019-01-20T08:25:09.000Z</time>
      </trkpt>
      <trkpt lat="45.17311" lon="5.91019">
        <ele>1451</ele>
        <time>2019-01-20T08:25:10.000Z</time>
      </trkpt>
      <trkpt lat="45.17311" lon="5.91019">
        <ele>1451</ele>
        <time>2019-01-20T08:25:12.000Z</time>
      </trkpt>
      <trkpt lat="45.17311" lon="5.91022">
        <ele>1451</ele>
        <time>2019-01-20T08:25:13.000Z</time>
      </trkpt>
      <trkpt lat="45.17311" lon="5.91022">
        <ele>1451</ele>
        <time>2019-01-20T08:25:14.000Z</time>
      </trkpt>
      <trkpt lat="45.17311" lon="5.91022">
        <ele>1451</ele>
        <time>2019-01-20T08:25:15.000Z</time>
      </trkpt>
      <trkpt lat="45.17311" lon="5.91025">
        <ele>1452</ele>
        <time>2019-01-20T08:25:16.000Z</time>
      </trkpt>
      <trkpt lat="45.17311" lon="5.91025">
        <ele>1452</ele>
        <time>2019-01-20T08:25:17.000Z</time>
      </trkpt>
      <trkpt lat="45.17311" lon="5.91025">
        <ele>1453</ele>
        <time>2019-01-20T08:25:18.000Z</time>
      </trkpt>
      <trkpt lat="45.1731" lon="5.91029">
        <ele>1453</ele>
        <time>2019-01-20T08:25:19.000Z</time>
      </trkpt>
      <trkpt lat="45.1731" lon="5.91029">
        <ele>1453</ele>
        <time>2019-01-20T08:25:20.000Z</time>
      </trkpt>
      <trkpt lat="45.1731" lon="5.91029">
        <ele>1453</ele>
        <time>2019-01-20T08:25:21.000Z</time>
      </trkpt>
      <trkpt lat="45.17309" lon="5.91032">
        <ele>1454</ele>
        <time>2019-01-20T08:25:22.000Z</time>
      </trkpt>
      <trkpt lat="45.17309" lon="5.91032">
        <ele>1454</ele>
        <time>2019-01-20T08:25:23.000Z</time>
      </trkpt>
      <trkpt lat="45.17309" lon="5.91032">
        <ele>1454</ele>
        <time>2019-01-20T08:25:24.000Z</time>
      </trkpt>
      <trkpt lat="45.17308" lon="5.91035">
        <ele>1454</ele>
        <time>2019-01-20T08:25:25.000Z</time>
      </trkpt>
      <trkpt lat="45.17308" lon="5.91035">
        <ele>1454.4</ele>
        <time>2019-01-20T08:25:26.000Z</time>
      </trkpt>
      <trkpt lat="45.17308" lon="5.91035">
        <ele>1455</ele>
        <time>2019-01-20T08:25:27.000Z</time>
      </trkpt>
      <trkpt lat="45.17308" lon="5.91038">
        <ele>1455</ele>
        <time>2019-01-20T08:25:28.000Z</time>
      </trkpt>
      <trkpt lat="45.17308" lon="5.91038">
        <ele>1455</ele>
        <time>2019-01-20T08:25:29.000Z</time>
      </trkpt>
      <trkpt lat="45.17308" lon="5.91038">
        <ele>1455</ele>
        <time>2019-01-20T08:25:30.000Z</time>
      </trkpt>
      <trkpt lat="45.17306" lon="5.9104">
        <ele>1456</ele>
        <time>2019-01-20T08:25:31.000Z</time>
      </trkpt>
      <trkpt lat="45.17306" lon="5.9104">
        <ele>1456</ele>
        <time>2019-01-20T08:25:32.000Z</time>
      </trkpt>
      <trkpt lat="45.17306" lon="5.9104">
        <ele>1456</ele>
        <time>2019-01-20T08:25:33.000Z</time>
      </trkpt>
      <trkpt lat="45.17304" lon="5.91041">
        <ele>1456</ele>
        <time>2019-01-20T08:25:34.000Z</time>
      </trkpt>
      <trkpt lat="45.17304" lon="5.91041">
        <ele>1457</ele>
        <time>2019-01-20T08:25:35.000Z</time>
      </trkpt>
      <trkpt lat="45.17303" lon="5.91043">
        <ele>1457</ele>
        <time>2019-01-20T08:25:36.000Z</time>
      </trkpt>
      <trkpt lat="45.17303" lon="5.91043">
        <ele>1457</ele>
        <time>2019-01-20T08:25:37.000Z</time>
      </trkpt>
      <trkpt lat="45.17301" lon="5.91045">
        <ele>1457</ele>
        <time>2019-01-20T08:25:38.000Z</time>
      </trkpt>
      <trkpt lat="45.17301" lon="5.91045">
        <ele>1458</ele>
        <time>2019-01-20T08:25:39.000Z</time>
      </trkpt>
      <trkpt lat="45.17301" lon="5.91045">
        <ele>1458</ele>
        <time>2019-01-20T08:25:40.000Z</time>
      </trkpt>
      <trkpt lat="45.17301" lon="5.91045">
        <ele>1458</ele>
        <time>2019-01-20T08:25:41.000Z</time>
      </trkpt>
      <trkpt lat="45.17299" lon="5.91048">
        <ele>1458</ele>
        <time>2019-01-20T08:25:42.000Z</time>
      </trkpt>
      <trkpt lat="45.17299" lon="5.91048">
        <ele>1459</ele>
        <time>2019-01-20T08:25:43.000Z</time>
      </trkpt>
      <trkpt lat="45.17298" lon="5.9105">
        <ele>1459</ele>
        <time>2019-01-20T08:25:45.000Z</time>
      </trkpt>
      <trkpt lat="45.17298" lon="5.9105">
        <ele>1459</ele>
        <time>2019-01-20T08:25:46.000Z</time>
      </trkpt>
      <trkpt lat="45.17298" lon="5.9105">
        <ele>1459</ele>
        <time>2019-01-20T08:25:47.000Z</time>
      </trkpt>
      <trkpt lat="45.17296" lon="5.91052">
        <ele>1460</ele>
        <time>2019-01-20T08:25:48.000Z</time>
      </trkpt>
      <trkpt lat="45.17296" lon="5.91052">
        <ele>1460</ele>
        <time>2019-01-20T08:25:49.000Z</time>
      </trkpt>
      <trkpt lat="45.17294" lon="5.91054">
        <ele>1461</ele>
        <time>2019-01-20T08:25:50.000Z</time>
      </trkpt>
      <trkpt lat="45.17294" lon="5.91054">
        <ele>1461</ele>
        <time>2019-01-20T08:25:51.000Z</time>
      </trkpt>
      <trkpt lat="45.17294" lon="5.91054">
        <ele>1461</ele>
        <time>2019-01-20T08:25:52.000Z</time>
      </trkpt>
      <trkpt lat="45.17294" lon="5.91054">
        <ele>1462</ele>
        <time>2019-01-20T08:25:53.000Z</time>
      </trkpt>
      <trkpt lat="45.17293" lon="5.91056">
        <ele>1462</ele>
        <time>2019-01-20T08:25:54.000Z</time>
      </trkpt>
      <trkpt lat="45.17293" lon="5.91056">
        <ele>1462</ele>
        <time>2019-01-20T08:25:55.000Z</time>
      </trkpt>
      <trkpt lat="45.17293" lon="5.91056">
        <ele>1462</ele>
        <time>2019-01-20T08:25:56.000Z</time>
      </trkpt>
      <trkpt lat="45.17292" lon="5.91058">
        <ele>1462</ele>
        <time>2019-01-20T08:25:57.000Z</time>
      </trkpt>
      <trkpt lat="45.17292" lon="5.91058">
        <ele>1462</ele>
        <time>2019-01-20T08:25:58.000Z</time>
      </trkpt>
      <trkpt lat="45.17292" lon="5.91058">
        <ele>1463</ele>
        <time>2019-01-20T08:25:59.000Z</time>
      </trkpt>
      <trkpt lat="45.17292" lon="5.91058">
        <ele>1463</ele>
        <time>2019-01-20T08:26:00.000Z</time>
      </trkpt>
      <trkpt lat="45.17291" lon="5.91061">
        <ele>1463</ele>
        <time>2019-01-20T08:26:01.000Z</time>
      </trkpt>
      <trkpt lat="45.17291" lon="5.91061">
        <ele>1464</ele>
        <time>2019-01-20T08:26:02.000Z</time>
      </trkpt>
      <trkpt lat="45.17289" lon="5.91064">
        <ele>1464</ele>
        <time>2019-01-20T08:26:04.000Z</time>
      </trkpt>
      <trkpt lat="45.17289" lon="5.91064">
        <ele>1464</ele>
        <time>2019-01-20T08:26:05.000Z</time>
      </trkpt>
      <trkpt lat="45.17288" lon="5.91066">
        <ele>1464</ele>
        <time>2019-01-20T08:26:06.000Z</time>
      </trkpt>
      <trkpt lat="45.17288" lon="5.91066">
        <ele>1465</ele>
        <time>2019-01-20T08:26:07.000Z</time>
      </trkpt>
      <trkpt lat="45.17288" lon="5.91066">
        <ele>1465</ele>
        <time>2019-01-20T08:26:08.000Z</time>
      </trkpt>
      <trkpt lat="45.17286" lon="5.91066">
        <ele>1465</ele>
        <time>2019-01-20T08:26:09.000Z</time>
      </trkpt>
      <trkpt lat="45.17286" lon="5.91066">
        <ele>1465</ele>
        <time>2019-01-20T08:26:10.000Z</time>
      </trkpt>
      <trkpt lat="45.17286" lon="5.91066">
        <ele>1466</ele>
        <time>2019-01-20T08:26:11.000Z</time>
      </trkpt>
      <trkpt lat="45.17286" lon="5.91066">
        <ele>1466</ele>
        <time>2019-01-20T08:26:12.000Z</time>
      </trkpt>
      <trkpt lat="45.17283" lon="5.91069">
        <ele>1467</ele>
        <time>2019-01-20T08:26:13.000Z</time>
      </trkpt>
      <trkpt lat="45.17283" lon="5.91069">
        <ele>1467</ele>
        <time>2019-01-20T08:26:14.000Z</time>
      </trkpt>
      <trkpt lat="45.17283" lon="5.91069">
        <ele>1467</ele>
        <time>2019-01-20T08:26:15.000Z</time>
      </trkpt>
      <trkpt lat="45.17281" lon="5.9107">
        <ele>1467</ele>
        <time>2019-01-20T08:26:16.000Z</time>
      </trkpt>
      <trkpt lat="45.17281" lon="5.9107">
        <ele>1467</ele>
        <time>2019-01-20T08:26:17.000Z</time>
      </trkpt>
      <trkpt lat="45.17279" lon="5.9107">
        <ele>1468</ele>
        <time>2019-01-20T08:26:18.000Z</time>
      </trkpt>
      <trkpt lat="45.17279" lon="5.9107">
        <ele>1468</ele>
        <time>2019-01-20T08:26:19.000Z</time>
      </trkpt>
      <trkpt lat="45.17278" lon="5.91071">
        <ele>1468</ele>
        <time>2019-01-20T08:26:20.000Z</time>
      </trkpt>
      <trkpt lat="45.17278" lon="5.91071">
        <ele>1468</ele>
        <time>2019-01-20T08:26:21.000Z</time>
      </trkpt>
      <trkpt lat="45.17275" lon="5.9107">
        <ele>1468</ele>
        <time>2019-01-20T08:26:23.000Z</time>
      </trkpt>
      <trkpt lat="45.17275" lon="5.9107">
        <ele>1468</ele>
        <time>2019-01-20T08:26:24.000Z</time>
      </trkpt>
      <trkpt lat="45.17275" lon="5.9107">
        <ele>1469</ele>
        <time>2019-01-20T08:26:25.000Z</time>
      </trkpt>
      <trkpt lat="45.17273" lon="5.91071">
        <ele>1469</ele>
        <time>2019-01-20T08:26:26.000Z</time>
      </trkpt>
      <trkpt lat="45.17273" lon="5.91071">
        <ele>1469</ele>
        <time>2019-01-20T08:26:27.000Z</time>
      </trkpt>
      <trkpt lat="45.17271" lon="5.9107">
        <ele>1469</ele>
        <time>2019-01-20T08:26:28.000Z</time>
      </trkpt>
      <trkpt lat="45.17271" lon="5.9107">
        <ele>1469</ele>
        <time>2019-01-20T08:26:29.000Z</time>
      </trkpt>
      <trkpt lat="45.17271" lon="5.9107">
        <ele>1469</ele>
        <time>2019-01-20T08:26:30.000Z</time>
      </trkpt>
      <trkpt lat="45.1727" lon="5.9107">
        <ele>1470</ele>
        <time>2019-01-20T08:26:31.000Z</time>
      </trkpt>
      <trkpt lat="45.1727" lon="5.91071">
        <ele>1470</ele>
        <time>2019-01-20T08:26:32.000Z</time>
      </trkpt>
      <trkpt lat="45.1727" lon="5.91071">
        <ele>1470</ele>
        <time>2019-01-20T08:26:33.000Z</time>
      </trkpt>
      <trkpt lat="45.17269" lon="5.91071">
        <ele>1470</ele>
        <time>2019-01-20T08:26:34.000Z</time>
      </trkpt>
      <trkpt lat="45.17269" lon="5.91071">
        <ele>1470</ele>
        <time>2019-01-20T08:26:35.000Z</time>
      </trkpt>
      <trkpt lat="45.17269" lon="5.91071">
        <ele>1470</ele>
        <time>2019-01-20T08:26:36.000Z</time>
      </trkpt>
      <trkpt lat="45.17269" lon="5.91071">
        <ele>1470</ele>
        <time>2019-01-20T08:26:37.000Z</time>
      </trkpt>
      <trkpt lat="45.17268" lon="5.91071">
        <ele>1470</ele>
        <time>2019-01-20T08:26:38.000Z</time>
      </trkpt>
      <trkpt lat="45.17268" lon="5.91071">
        <ele>1471</ele>
        <time>2019-01-20T08:26:39.000Z</time>
      </trkpt>
      <trkpt lat="45.17266" lon="5.91073">
        <ele>1471</ele>
        <time>2019-01-20T08:26:40.000Z</time>
      </trkpt>
      <trkpt lat="45.17264" lon="5.91075">
        <ele>1471</ele>
        <time>2019-01-20T08:26:41.000Z</time>
      </trkpt>
      <trkpt lat="45.17263" lon="5.91077">
        <ele>1471.6</ele>
        <time>2019-01-20T08:26:42.000Z</time>
      </trkpt>
      <trkpt lat="45.17261" lon="5.91079">
        <ele>1472</ele>
        <time>2019-01-20T08:26:43.000Z</time>
      </trkpt>
      <trkpt lat="45.17261" lon="5.91079">
        <ele>1472</ele>
        <time>2019-01-20T08:26:44.000Z</time>
      </trkpt>
      <trkpt lat="45.17257" lon="5.91079">
        <ele>1472</ele>
        <time>2019-01-20T08:26:45.000Z</time>
      </trkpt>
      <trkpt lat="45.17257" lon="5.91079">
        <ele>1472</ele>
        <time>2019-01-20T08:26:46.000Z</time>
      </trkpt>
      <trkpt lat="45.17255" lon="5.91079">
        <ele>1472</ele>
        <time>2019-01-20T08:26:47.000Z</time>
      </trkpt>
      <trkpt lat="45.17255" lon="5.91079">
        <ele>1473</ele>
        <time>2019-01-20T08:26:48.000Z</time>
      </trkpt>
      <trkpt lat="45.17255" lon="5.91079">
        <ele>1473</ele>
        <time>2019-01-20T08:26:49.000Z</time>
      </trkpt>
      <trkpt lat="45.17255" lon="5.91079">
        <ele>1474</ele>
        <time>2019-01-20T08:26:50.000Z</time>
      </trkpt>
      <trkpt lat="45.17253" lon="5.91078">
        <ele>1474</ele>
        <time>2019-01-20T08:26:51.000Z</time>
      </trkpt>
      <trkpt lat="45.17253" lon="5.91078">
        <ele>1474</ele>
        <time>2019-01-20T08:26:52.000Z</time>
      </trkpt>
      <trkpt lat="45.17253" lon="5.91078">
        <ele>1474</ele>
        <time>2019-01-20T08:26:53.000Z</time>
      </trkpt>
      <trkpt lat="45.17252" lon="5.91075">
        <ele>1474</ele>
        <time>2019-01-20T08:26:54.000Z</time>
      </trkpt>
      <trkpt lat="45.17252" lon="5.91075">
        <ele>1474</ele>
        <time>2019-01-20T08:26:55.000Z</time>
      </trkpt>
      <trkpt lat="45.17252" lon="5.91075">
        <ele>1474</ele>
        <time>2019-01-20T08:26:56.000Z</time>
      </trkpt>
      <trkpt lat="45.17252" lon="5.91075">
        <ele>1475</ele>
        <time>2019-01-20T08:26:57.000Z</time>
      </trkpt>
      <trkpt lat="45.1725" lon="5.91075">
        <ele>1475</ele>
        <time>2019-01-20T08:26:58.000Z</time>
      </trkpt>
      <trkpt lat="45.1725" lon="5.91075">
        <ele>1476</ele>
        <time>2019-01-20T08:26:59.000Z</time>
      </trkpt>
      <trkpt lat="45.17248" lon="5.91075">
        <ele>1476</ele>
        <time>2019-01-20T08:27:00.000Z</time>
      </trkpt>
      <trkpt lat="45.17248" lon="5.91075">
        <ele>1476</ele>
        <time>2019-01-20T08:27:01.000Z</time>
      </trkpt>
      <trkpt lat="45.17246" lon="5.91076">
        <ele>1476</ele>
        <time>2019-01-20T08:27:02.000Z</time>
      </trkpt>
      <trkpt lat="45.17246" lon="5.91076">
        <ele>1476</ele>
        <time>2019-01-20T08:27:03.000Z</time>
      </trkpt>
      <trkpt lat="45.17246" lon="5.91076">
        <ele>1477</ele>
        <time>2019-01-20T08:27:04.000Z</time>
      </trkpt>
      <trkpt lat="45.17245" lon="5.91076">
        <ele>1477</ele>
        <time>2019-01-20T08:27:05.000Z</time>
      </trkpt>
      <trkpt lat="45.17245" lon="5.91076">
        <ele>1477</ele>
        <time>2019-01-20T08:27:06.000Z</time>
      </trkpt>
      <trkpt lat="45.17244" lon="5.91075">
        <ele>1477</ele>
        <time>2019-01-20T08:27:07.000Z</time>
      </trkpt>
      <trkpt lat="45.17244" lon="5.91075">
        <ele>1478</ele>
        <time>2019-01-20T08:27:08.000Z</time>
      </trkpt>
      <trkpt lat="45.17244" lon="5.91075">
        <ele>1478</ele>
        <time>2019-01-20T08:27:09.000Z</time>
      </trkpt>
      <trkpt lat="45.17243" lon="5.91075">
        <ele>1479</ele>
        <time>2019-01-20T08:27:10.000Z</time>
      </trkpt>
      <trkpt lat="45.17243" lon="5.91075">
        <ele>1479</ele>
        <time>2019-01-20T08:27:11.000Z</time>
      </trkpt>
      <trkpt lat="45.17243" lon="5.91075">
        <ele>1479</ele>
        <time>2019-01-20T08:27:12.000Z</time>
      </trkpt>
      <trkpt lat="45.17238" lon="5.91075">
        <ele>1479</ele>
        <time>2019-01-20T08:27:13.000Z</time>
      </trkpt>
      <trkpt lat="45.17238" lon="5.91075">
        <ele>1480</ele>
        <time>2019-01-20T08:27:14.000Z</time>
      </trkpt>
      <trkpt lat="45.17238" lon="5.91075">
        <ele>1480</ele>
        <time>2019-01-20T08:27:15.000Z</time>
      </trkpt>
      <trkpt lat="45.17236" lon="5.91075">
        <ele>1480</ele>
        <time>2019-01-20T08:27:16.000Z</time>
      </trkpt>
      <trkpt lat="45.17236" lon="5.91075">
        <ele>1480.4</ele>
        <time>2019-01-20T08:27:17.000Z</time>
      </trkpt>
      <trkpt lat="45.17233" lon="5.91075">
        <ele>1481</ele>
        <time>2019-01-20T08:27:18.000Z</time>
      </trkpt>
      <trkpt lat="45.17233" lon="5.91075">
        <ele>1481.6</ele>
        <time>2019-01-20T08:27:20.000Z</time>
      </trkpt>
      <trkpt lat="45.17233" lon="5.91075">
        <ele>1482</ele>
        <time>2019-01-20T08:27:21.000Z</time>
      </trkpt>
      <trkpt lat="45.17231" lon="5.91074">
        <ele>1482</ele>
        <time>2019-01-20T08:27:22.000Z</time>
      </trkpt>
      <trkpt lat="45.17231" lon="5.91074">
        <ele>1482</ele>
        <time>2019-01-20T08:27:23.000Z</time>
      </trkpt>
      <trkpt lat="45.17231" lon="5.91074">
        <ele>1483</ele>
        <time>2019-01-20T08:27:24.000Z</time>
      </trkpt>
      <trkpt lat="45.17229" lon="5.91074">
        <ele>1483</ele>
        <time>2019-01-20T08:27:25.000Z</time>
      </trkpt>
      <trkpt lat="45.17229" lon="5.91074">
        <ele>1483</ele>
        <time>2019-01-20T08:27:26.000Z</time>
      </trkpt>
      <trkpt lat="45.17229" lon="5.91074">
        <ele>1483</ele>
        <time>2019-01-20T08:27:27.000Z</time>
      </trkpt>
      <trkpt lat="45.17227" lon="5.91074">
        <ele>1484</ele>
        <time>2019-01-20T08:27:28.000Z</time>
      </trkpt>
      <trkpt lat="45.17227" lon="5.91074">
        <ele>1484</ele>
        <time>2019-01-20T08:27:29.000Z</time>
      </trkpt>
      <trkpt lat="45.17225" lon="5.91073">
        <ele>1484</ele>
        <time>2019-01-20T08:27:30.000Z</time>
      </trkpt>
      <trkpt lat="45.17225" lon="5.91073">
        <ele>1484</ele>
        <time>2019-01-20T08:27:31.000Z</time>
      </trkpt>
      <trkpt lat="45.17225" lon="5.91073">
        <ele>1484</ele>
        <time>2019-01-20T08:27:32.000Z</time>
      </trkpt>
      <trkpt lat="45.17222" lon="5.91073">
        <ele>1484</ele>
        <time>2019-01-20T08:27:33.000Z</time>
      </trkpt>
      <trkpt lat="45.17222" lon="5.91073">
        <ele>1484</ele>
        <time>2019-01-20T08:27:34.000Z</time>
      </trkpt>
      <trkpt lat="45.17222" lon="5.91073">
        <ele>1485</ele>
        <time>2019-01-20T08:27:35.000Z</time>
      </trkpt>
      <trkpt lat="45.1722" lon="5.91073">
        <ele>1485</ele>
        <time>2019-01-20T08:27:36.000Z</time>
      </trkpt>
      <trkpt lat="45.1722" lon="5.91073">
        <ele>1485</ele>
        <time>2019-01-20T08:27:37.000Z</time>
      </trkpt>
      <trkpt lat="45.17218" lon="5.91075">
        <ele>1486</ele>
        <time>2019-01-20T08:27:39.000Z</time>
      </trkpt>
      <trkpt lat="45.17218" lon="5.91075">
        <ele>1486</ele>
        <time>2019-01-20T08:27:40.000Z</time>
      </trkpt>
      <trkpt lat="45.17218" lon="5.91075">
        <ele>1486</ele>
        <time>2019-01-20T08:27:41.000Z</time>
      </trkpt>
      <trkpt lat="45.17215" lon="5.91075">
        <ele>1486</ele>
        <time>2019-01-20T08:27:42.000Z</time>
      </trkpt>
      <trkpt lat="45.17215" lon="5.91075">
        <ele>1486</ele>
        <time>2019-01-20T08:27:43.000Z</time>
      </trkpt>
      <trkpt lat="45.17215" lon="5.91075">
        <ele>1487</ele>
        <time>2019-01-20T08:27:44.000Z</time>
      </trkpt>
      <trkpt lat="45.17213" lon="5.91075">
        <ele>1488</ele>
        <time>2019-01-20T08:27:45.000Z</time>
      </trkpt>
      <trkpt lat="45.17213" lon="5.91075">
        <ele>1488</ele>
        <time>2019-01-20T08:27:46.000Z</time>
      </trkpt>
      <trkpt lat="45.17213" lon="5.91075">
        <ele>1488</ele>
        <time>2019-01-20T08:27:47.000Z</time>
      </trkpt>
      <trkpt lat="45.17213" lon="5.91075">
        <ele>1488</ele>
        <time>2019-01-20T08:27:48.000Z</time>
      </trkpt>
      <trkpt lat="45.17211" lon="5.91074">
        <ele>1489</ele>
        <time>2019-01-20T08:27:49.000Z</time>
      </trkpt>
      <trkpt lat="45.17211" lon="5.91074">
        <ele>1489</ele>
        <time>2019-01-20T08:27:50.000Z</time>
      </trkpt>
      <trkpt lat="45.17211" lon="5.91074">
        <ele>1489</ele>
        <time>2019-01-20T08:27:51.000Z</time>
      </trkpt>
      <trkpt lat="45.17209" lon="5.91075">
        <ele>1490</ele>
        <time>2019-01-20T08:27:52.000Z</time>
      </trkpt>
      <trkpt lat="45.17209" lon="5.91075">
        <ele>1490</ele>
        <time>2019-01-20T08:27:53.000Z</time>
      </trkpt>
      <trkpt lat="45.17209" lon="5.91075">
        <ele>1490</ele>
        <time>2019-01-20T08:27:54.000Z</time>
      </trkpt>
      <trkpt lat="45.17206" lon="5.91076">
        <ele>1491</ele>
        <time>2019-01-20T08:27:55.000Z</time>
      </trkpt>
      <trkpt lat="45.17206" lon="5.91076">
        <ele>1491</ele>
        <time>2019-01-20T08:27:56.000Z</time>
      </trkpt>
      <trkpt lat="45.17205" lon="5.91077">
        <ele>1491</ele>
        <time>2019-01-20T08:27:57.000Z</time>
      </trkpt>
      <trkpt lat="45.17205" lon="5.91077">
        <ele>1492</ele>
        <time>2019-01-20T08:27:58.000Z</time>
      </trkpt>
      <trkpt lat="45.17205" lon="5.91077">
        <ele>1492</ele>
        <time>2019-01-20T08:27:59.000Z</time>
      </trkpt>
      <trkpt lat="45.17203" lon="5.91079">
        <ele>1491</ele>
        <time>2019-01-20T08:28:00.000Z</time>
      </trkpt>
      <trkpt lat="45.17203" lon="5.91079">
        <ele>1492</ele>
        <time>2019-01-20T08:28:01.000Z</time>
      </trkpt>
      <trkpt lat="45.17203" lon="5.91079">
        <ele>1492</ele>
        <time>2019-01-20T08:28:02.000Z</time>
      </trkpt>
      <trkpt lat="45.172" lon="5.91078">
        <ele>1493</ele>
        <time>2019-01-20T08:28:03.000Z</time>
      </trkpt>
      <trkpt lat="45.172" lon="5.91078">
        <ele>1493</ele>
        <time>2019-01-20T08:28:04.000Z</time>
      </trkpt>
      <trkpt lat="45.172" lon="5.91078">
        <ele>1493</ele>
        <time>2019-01-20T08:28:05.000Z</time>
      </trkpt>
      <trkpt lat="45.17197" lon="5.91078">
        <ele>1493</ele>
        <time>2019-01-20T08:28:06.000Z</time>
      </trkpt>
      <trkpt lat="45.17197" lon="5.91078">
        <ele>1493</ele>
        <time>2019-01-20T08:28:07.000Z</time>
      </trkpt>
      <trkpt lat="45.17197" lon="5.91078">
        <ele>1493</ele>
        <time>2019-01-20T08:28:08.000Z</time>
      </trkpt>
      <trkpt lat="45.17195" lon="5.91079">
        <ele>1494</ele>
        <time>2019-01-20T08:28:09.000Z</time>
      </trkpt>
      <trkpt lat="45.17195" lon="5.91079">
        <ele>1494</ele>
        <time>2019-01-20T08:28:10.000Z</time>
      </trkpt>
      <trkpt lat="45.17195" lon="5.91079">
        <ele>1494</ele>
        <time>2019-01-20T08:28:11.000Z</time>
      </trkpt>
      <trkpt lat="45.17193" lon="5.9108">
        <ele>1495</ele>
        <time>2019-01-20T08:28:12.000Z</time>
      </trkpt>
      <trkpt lat="45.17193" lon="5.9108">
        <ele>1495</ele>
        <time>2019-01-20T08:28:13.000Z</time>
      </trkpt>
      <trkpt lat="45.17191" lon="5.91081">
        <ele>1496</ele>
        <time>2019-01-20T08:28:14.000Z</time>
      </trkpt>
      <trkpt lat="45.17191" lon="5.91081">
        <ele>1496</ele>
        <time>2019-01-20T08:28:15.000Z</time>
      </trkpt>
      <trkpt lat="45.17189" lon="5.91081">
        <ele>1496</ele>
        <time>2019-01-20T08:28:16.000Z</time>
      </trkpt>
      <trkpt lat="45.17189" lon="5.91081">
        <ele>1496.4</ele>
        <time>2019-01-20T08:28:17.000Z</time>
      </trkpt>
      <trkpt lat="45.17187" lon="5.91081">
        <ele>1497</ele>
        <time>2019-01-20T08:28:18.000Z</time>
      </trkpt>
      <trkpt lat="45.17187" lon="5.91081">
        <ele>1497</ele>
        <time>2019-01-20T08:28:20.000Z</time>
      </trkpt>
      <trkpt lat="45.17184" lon="5.91082">
        <ele>1497</ele>
        <time>2019-01-20T08:28:21.000Z</time>
      </trkpt>
      <trkpt lat="45.17184" lon="5.91082">
        <ele>1497</ele>
        <time>2019-01-20T08:28:22.000Z</time>
      </trkpt>
      <trkpt lat="45.17181" lon="5.91082">
        <ele>1497</ele>
        <time>2019-01-20T08:28:23.000Z</time>
      </trkpt>
      <trkpt lat="45.17181" lon="5.91082">
        <ele>1497</ele>
        <time>2019-01-20T08:28:24.000Z</time>
      </trkpt>
      <trkpt lat="45.17179" lon="5.91083">
        <ele>1497</ele>
        <time>2019-01-20T08:28:25.000Z</time>
      </trkpt>
      <trkpt lat="45.17179" lon="5.91083">
        <ele>1498</ele>
        <time>2019-01-20T08:28:26.000Z</time>
      </trkpt>
      <trkpt lat="45.17176" lon="5.91084">
        <ele>1498</ele>
        <time>2019-01-20T08:28:27.000Z</time>
      </trkpt>
      <trkpt lat="45.17174" lon="5.91085">
        <ele>1498</ele>
        <time>2019-01-20T08:28:28.000Z</time>
      </trkpt>
      <trkpt lat="45.17172" lon="5.91086">
        <ele>1498</ele>
        <time>2019-01-20T08:28:29.000Z</time>
      </trkpt>
      <trkpt lat="45.1717" lon="5.91086">
        <ele>1498</ele>
        <time>2019-01-20T08:28:30.000Z</time>
      </trkpt>
      <trkpt lat="45.17168" lon="5.91087">
        <ele>1498</ele>
        <time>2019-01-20T08:28:31.000Z</time>
      </trkpt>
      <trkpt lat="45.17166" lon="5.91087">
        <ele>1498</ele>
        <time>2019-01-20T08:28:32.000Z</time>
      </trkpt>
      <trkpt lat="45.17165" lon="5.91087">
        <ele>1498</ele>
        <time>2019-01-20T08:28:33.000Z</time>
      </trkpt>
      <trkpt lat="45.17165" lon="5.91087">
        <ele>1498</ele>
        <time>2019-01-20T08:28:34.000Z</time>
      </trkpt>
      <trkpt lat="45.17162" lon="5.91087">
        <ele>1498</ele>
        <time>2019-01-20T08:28:35.000Z</time>
      </trkpt>
      <trkpt lat="45.17162" lon="5.91087">
        <ele>1498</ele>
        <time>2019-01-20T08:28:36.000Z</time>
      </trkpt>
      <trkpt lat="45.17159" lon="5.91086">
        <ele>1498</ele>
        <time>2019-01-20T08:28:37.000Z</time>
      </trkpt>
      <trkpt lat="45.17159" lon="5.91086">
        <ele>1498</ele>
        <time>2019-01-20T08:28:38.000Z</time>
      </trkpt>
      <trkpt lat="45.17156" lon="5.91085">
        <ele>1498</ele>
        <time>2019-01-20T08:28:39.000Z</time>
      </trkpt>
      <trkpt lat="45.17156" lon="5.91085">
        <ele>1498</ele>
        <time>2019-01-20T08:28:40.000Z</time>
      </trkpt>
      <trkpt lat="45.17154" lon="5.91084">
        <ele>1498</ele>
        <time>2019-01-20T08:28:41.000Z</time>
      </trkpt>
      <trkpt lat="45.17154" lon="5.91084">
        <ele>1498</ele>
        <time>2019-01-20T08:28:42.000Z</time>
      </trkpt>
      <trkpt lat="45.17152" lon="5.91083">
        <ele>1499</ele>
        <time>2019-01-20T08:28:43.000Z</time>
      </trkpt>
      <trkpt lat="45.17152" lon="5.91083">
        <ele>1499</ele>
        <time>2019-01-20T08:28:44.000Z</time>
      </trkpt>
      <trkpt lat="45.1715" lon="5.91082">
        <ele>1499</ele>
        <time>2019-01-20T08:28:45.000Z</time>
      </trkpt>
      <trkpt lat="45.1715" lon="5.91082">
        <ele>1499</ele>
        <time>2019-01-20T08:28:46.000Z</time>
      </trkpt>
      <trkpt lat="45.17147" lon="5.9108">
        <ele>1499</ele>
        <time>2019-01-20T08:28:47.000Z</time>
      </trkpt>
      <trkpt lat="45.17147" lon="5.9108">
        <ele>1499</ele>
        <time>2019-01-20T08:28:48.000Z</time>
      </trkpt>
      <trkpt lat="45.17144" lon="5.91079">
        <ele>1499</ele>
        <time>2019-01-20T08:28:49.000Z</time>
      </trkpt>
      <trkpt lat="45.17144" lon="5.91079">
        <ele>1499</ele>
        <time>2019-01-20T08:28:50.000Z</time>
      </trkpt>
      <trkpt lat="45.17141" lon="5.91079">
        <ele>1499</ele>
        <time>2019-01-20T08:28:51.000Z</time>
      </trkpt>
      <trkpt lat="45.17141" lon="5.91079">
        <ele>1500</ele>
        <time>2019-01-20T08:28:52.000Z</time>
      </trkpt>
      <trkpt lat="45.17139" lon="5.91078">
        <ele>1500</ele>
        <time>2019-01-20T08:28:53.000Z</time>
      </trkpt>
      <trkpt lat="45.17139" lon="5.91078">
        <ele>1500</ele>
        <time>2019-01-20T08:28:54.000Z</time>
      </trkpt>
      <trkpt lat="45.17136" lon="5.91078">
        <ele>1500</ele>
        <time>2019-01-20T08:28:55.000Z</time>
      </trkpt>
      <trkpt lat="45.17136" lon="5.91078">
        <ele>1500</ele>
        <time>2019-01-20T08:28:56.000Z</time>
      </trkpt>
      <trkpt lat="45.17134" lon="5.91077">
        <ele>1501</ele>
        <time>2019-01-20T08:28:57.000Z</time>
      </trkpt>
      <trkpt lat="45.17134" lon="5.91077">
        <ele>1501</ele>
        <time>2019-01-20T08:28:58.000Z</time>
      </trkpt>
      <trkpt lat="45.17132" lon="5.91076">
        <ele>1501</ele>
        <time>2019-01-20T08:28:59.000Z</time>
      </trkpt>
      <trkpt lat="45.17132" lon="5.91076">
        <ele>1501</ele>
        <time>2019-01-20T08:29:00.000Z</time>
      </trkpt>
      <trkpt lat="45.17129" lon="5.91074">
        <ele>1501</ele>
        <time>2019-01-20T08:29:01.000Z</time>
      </trkpt>
      <trkpt lat="45.17129" lon="5.91074">
        <ele>1501</ele>
        <time>2019-01-20T08:29:02.000Z</time>
      </trkpt>
      <trkpt lat="45.17127" lon="5.91073">
        <ele>1501</ele>
        <time>2019-01-20T08:29:03.000Z</time>
      </trkpt>
      <trkpt lat="45.17127" lon="5.91073">
        <ele>1501</ele>
        <time>2019-01-20T08:29:04.000Z</time>
      </trkpt>
      <trkpt lat="45.17124" lon="5.91072">
        <ele>1501</ele>
        <time>2019-01-20T08:29:05.000Z</time>
      </trkpt>
      <trkpt lat="45.17124" lon="5.91072">
        <ele>1501</ele>
        <time>2019-01-20T08:29:06.000Z</time>
      </trkpt>
      <trkpt lat="45.17121" lon="5.91071">
        <ele>1501</ele>
        <time>2019-01-20T08:29:07.000Z</time>
      </trkpt>
      <trkpt lat="45.17121" lon="5.91071">
        <ele>1501</ele>
        <time>2019-01-20T08:29:08.000Z</time>
      </trkpt>
      <trkpt lat="45.17119" lon="5.9107">
        <ele>1501</ele>
        <time>2019-01-20T08:29:09.000Z</time>
      </trkpt>
      <trkpt lat="45.17119" lon="5.9107">
        <ele>1501</ele>
        <time>2019-01-20T08:29:10.000Z</time>
      </trkpt>
      <trkpt lat="45.17117" lon="5.91069">
        <ele>1501</ele>
        <time>2019-01-20T08:29:11.000Z</time>
      </trkpt>
      <trkpt lat="45.17117" lon="5.91069">
        <ele>1501</ele>
        <time>2019-01-20T08:29:12.000Z</time>
      </trkpt>
      <trkpt lat="45.17114" lon="5.91068">
        <ele>1501</ele>
        <time>2019-01-20T08:29:13.000Z</time>
      </trkpt>
      <trkpt lat="45.17114" lon="5.91068">
        <ele>1501</ele>
        <time>2019-01-20T08:29:14.000Z</time>
      </trkpt>
      <trkpt lat="45.17112" lon="5.91067">
        <ele>1501</ele>
        <time>2019-01-20T08:29:15.000Z</time>
      </trkpt>
      <trkpt lat="45.17112" lon="5.91067">
        <ele>1501</ele>
        <time>2019-01-20T08:29:16.000Z</time>
      </trkpt>
      <trkpt lat="45.1711" lon="5.91065">
        <ele>1501</ele>
        <time>2019-01-20T08:29:17.000Z</time>
      </trkpt>
      <trkpt lat="45.1711" lon="5.91065">
        <ele>1502</ele>
        <time>2019-01-20T08:29:18.000Z</time>
      </trkpt>
      <trkpt lat="45.17108" lon="5.91065">
        <ele>1502</ele>
        <time>2019-01-20T08:29:19.000Z</time>
      </trkpt>
      <trkpt lat="45.17108" lon="5.91065">
        <ele>1502</ele>
        <time>2019-01-20T08:29:20.000Z</time>
      </trkpt>
      <trkpt lat="45.17108" lon="5.91065">
        <ele>1502</ele>
        <time>2019-01-20T08:29:21.000Z</time>
      </trkpt>
      <trkpt lat="45.17105" lon="5.91064">
        <ele>1503</ele>
        <time>2019-01-20T08:29:22.000Z</time>
      </trkpt>
      <trkpt lat="45.17105" lon="5.91064">
        <ele>1503</ele>
        <time>2019-01-20T08:29:23.000Z</time>
      </trkpt>
      <trkpt lat="45.17103" lon="5.91063">
        <ele>1503</ele>
        <time>2019-01-20T08:29:24.000Z</time>
      </trkpt>
      <trkpt lat="45.17103" lon="5.91063">
        <ele>1503</ele>
        <time>2019-01-20T08:29:25.000Z</time>
      </trkpt>
      <trkpt lat="45.17101" lon="5.91064">
        <ele>1504</ele>
        <time>2019-01-20T08:29:26.000Z</time>
      </trkpt>
      <trkpt lat="45.17101" lon="5.91064">
        <ele>1504</ele>
        <time>2019-01-20T08:29:27.000Z</time>
      </trkpt>
      <trkpt lat="45.17101" lon="5.91064">
        <ele>1505</ele>
        <time>2019-01-20T08:29:28.000Z</time>
      </trkpt>
      <trkpt lat="45.17099" lon="5.91064">
        <ele>1505</ele>
        <time>2019-01-20T08:29:29.000Z</time>
      </trkpt>
      <trkpt lat="45.17099" lon="5.91064">
        <ele>1506</ele>
        <time>2019-01-20T08:29:30.000Z</time>
      </trkpt>
      <trkpt lat="45.17099" lon="5.91064">
        <ele>1506</ele>
        <time>2019-01-20T08:29:31.000Z</time>
      </trkpt>
      <trkpt lat="45.17096" lon="5.91066">
        <ele>1506</ele>
        <time>2019-01-20T08:29:32.000Z</time>
      </trkpt>
      <trkpt lat="45.17096" lon="5.91066">
        <ele>1506</ele>
        <time>2019-01-20T08:29:33.000Z</time>
      </trkpt>
      <trkpt lat="45.17094" lon="5.91066">
        <ele>1506</ele>
        <time>2019-01-20T08:29:34.000Z</time>
      </trkpt>
      <trkpt lat="45.17094" lon="5.91066">
        <ele>1506</ele>
        <time>2019-01-20T08:29:35.000Z</time>
      </trkpt>
      <trkpt lat="45.17092" lon="5.91067">
        <ele>1506</ele>
        <time>2019-01-20T08:29:36.000Z</time>
      </trkpt>
      <trkpt lat="45.17092" lon="5.91067">
        <ele>1507</ele>
        <time>2019-01-20T08:29:37.000Z</time>
      </trkpt>
      <trkpt lat="45.1709" lon="5.91066">
        <ele>1507</ele>
        <time>2019-01-20T08:29:38.000Z</time>
      </trkpt>
      <trkpt lat="45.1709" lon="5.91066">
        <ele>1507</ele>
        <time>2019-01-20T08:29:39.000Z</time>
      </trkpt>
      <trkpt lat="45.17088" lon="5.91066">
        <ele>1508</ele>
        <time>2019-01-20T08:29:40.000Z</time>
      </trkpt>
      <trkpt lat="45.17088" lon="5.91066">
        <ele>1508</ele>
        <time>2019-01-20T08:29:41.000Z</time>
      </trkpt>
      <trkpt lat="45.17085" lon="5.91066">
        <ele>1508</ele>
        <time>2019-01-20T08:29:42.000Z</time>
      </trkpt>
      <trkpt lat="45.17085" lon="5.91066">
        <ele>1508</ele>
        <time>2019-01-20T08:29:43.000Z</time>
      </trkpt>
      <trkpt lat="45.17083" lon="5.91066">
        <ele>1508</ele>
        <time>2019-01-20T08:29:44.000Z</time>
      </trkpt>
      <trkpt lat="45.17083" lon="5.91066">
        <ele>1509</ele>
        <time>2019-01-20T08:29:45.000Z</time>
      </trkpt>
      <trkpt lat="45.17081" lon="5.91066">
        <ele>1509</ele>
        <time>2019-01-20T08:29:46.000Z</time>
      </trkpt>
      <trkpt lat="45.17081" lon="5.91066">
        <ele>1509</ele>
        <time>2019-01-20T08:29:47.000Z</time>
      </trkpt>
      <trkpt lat="45.17079" lon="5.91066">
        <ele>1509</ele>
        <time>2019-01-20T08:29:48.000Z</time>
      </trkpt>
      <trkpt lat="45.17079" lon="5.91066">
        <ele>1509</ele>
        <time>2019-01-20T08:29:49.000Z</time>
      </trkpt>
      <trkpt lat="45.17077" lon="5.91068">
        <ele>1509</ele>
        <time>2019-01-20T08:29:50.000Z</time>
      </trkpt>
      <trkpt lat="45.17074" lon="5.91069">
        <ele>1509</ele>
        <time>2019-01-20T08:29:52.000Z</time>
      </trkpt>
      <trkpt lat="45.17074" lon="5.91069">
        <ele>1509</ele>
        <time>2019-01-20T08:29:53.000Z</time>
      </trkpt>
      <trkpt lat="45.17071" lon="5.91071">
        <ele>1509</ele>
        <time>2019-01-20T08:29:54.000Z</time>
      </trkpt>
      <trkpt lat="45.17071" lon="5.91071">
        <ele>1509</ele>
        <time>2019-01-20T08:29:55.000Z</time>
      </trkpt>
      <trkpt lat="45.17069" lon="5.91072">
        <ele>1509</ele>
        <time>2019-01-20T08:29:56.000Z</time>
      </trkpt>
      <trkpt lat="45.17067" lon="5.91073">
        <ele>1509</ele>
        <time>2019-01-20T08:29:57.000Z</time>
      </trkpt>
      <trkpt lat="45.17065" lon="5.91074">
        <ele>1509</ele>
        <time>2019-01-20T08:29:58.000Z</time>
      </trkpt>
      <trkpt lat="45.17062" lon="5.91075">
        <ele>1508</ele>
        <time>2019-01-20T08:29:59.000Z</time>
      </trkpt>
      <trkpt lat="45.1706" lon="5.91075">
        <ele>1508</ele>
        <time>2019-01-20T08:30:00.000Z</time>
      </trkpt>
      <trkpt lat="45.17057" lon="5.91076">
        <ele>1508</ele>
        <time>2019-01-20T08:30:01.000Z</time>
      </trkpt>
      <trkpt lat="45.17054" lon="5.91076">
        <ele>1507</ele>
        <time>2019-01-20T08:30:02.000Z</time>
      </trkpt>
      <trkpt lat="45.17052" lon="5.91077">
        <ele>1507</ele>
        <time>2019-01-20T08:30:03.000Z</time>
      </trkpt>
      <trkpt lat="45.1705" lon="5.91077">
        <ele>1507</ele>
        <time>2019-01-20T08:30:04.000Z</time>
      </trkpt>
      <trkpt lat="45.17048" lon="5.91077">
        <ele>1507</ele>
        <time>2019-01-20T08:30:05.000Z</time>
      </trkpt>
      <trkpt lat="45.17048" lon="5.91077">
        <ele>1507</ele>
        <time>2019-01-20T08:30:06.000Z</time>
      </trkpt>
      <trkpt lat="45.17044" lon="5.91077">
        <ele>1507</ele>
        <time>2019-01-20T08:30:07.000Z</time>
      </trkpt>
      <trkpt lat="45.17044" lon="5.91077">
        <ele>1507</ele>
        <time>2019-01-20T08:30:08.000Z</time>
      </trkpt>
      <trkpt lat="45.17042" lon="5.91077">
        <ele>1507</ele>
        <time>2019-01-20T08:30:09.000Z</time>
      </trkpt>
      <trkpt lat="45.17042" lon="5.91077">
        <ele>1507</ele>
        <time>2019-01-20T08:30:10.000Z</time>
      </trkpt>
      <trkpt lat="45.17039" lon="5.91077">
        <ele>1507</ele>
        <time>2019-01-20T08:30:11.000Z</time>
      </trkpt>
      <trkpt lat="45.17039" lon="5.91077">
        <ele>1507</ele>
        <time>2019-01-20T08:30:12.000Z</time>
      </trkpt>
      <trkpt lat="45.17037" lon="5.91078">
        <ele>1507</ele>
        <time>2019-01-20T08:30:13.000Z</time>
      </trkpt>
      <trkpt lat="45.17037" lon="5.91078">
        <ele>1507</ele>
        <time>2019-01-20T08:30:14.000Z</time>
      </trkpt>
      <trkpt lat="45.17037" lon="5.91078">
        <ele>1508</ele>
        <time>2019-01-20T08:30:15.000Z</time>
      </trkpt>
      <trkpt lat="45.17034" lon="5.91076">
        <ele>1508</ele>
        <time>2019-01-20T08:30:16.000Z</time>
      </trkpt>
      <trkpt lat="45.17034" lon="5.91076">
        <ele>1508</ele>
        <time>2019-01-20T08:30:17.000Z</time>
      </trkpt>
      <trkpt lat="45.17031" lon="5.91075">
        <ele>1508</ele>
        <time>2019-01-20T08:30:18.000Z</time>
      </trkpt>
      <trkpt lat="45.17031" lon="5.91075">
        <ele>1508</ele>
        <time>2019-01-20T08:30:19.000Z</time>
      </trkpt>
      <trkpt lat="45.17031" lon="5.91075">
        <ele>1508</ele>
        <time>2019-01-20T08:30:20.000Z</time>
      </trkpt>
      <trkpt lat="45.17031" lon="5.91075">
        <ele>1509</ele>
        <time>2019-01-20T08:30:21.000Z</time>
      </trkpt>
      <trkpt lat="45.17028" lon="5.91073">
        <ele>1509</ele>
        <time>2019-01-20T08:30:22.000Z</time>
      </trkpt>
      <trkpt lat="45.17028" lon="5.91073">
        <ele>1509</ele>
        <time>2019-01-20T08:30:23.000Z</time>
      </trkpt>
      <trkpt lat="45.17028" lon="5.91073">
        <ele>1509</ele>
        <time>2019-01-20T08:30:24.000Z</time>
      </trkpt>
      <trkpt lat="45.17026" lon="5.91073">
        <ele>1510</ele>
        <time>2019-01-20T08:30:25.000Z</time>
      </trkpt>
      <trkpt lat="45.17026" lon="5.91073">
        <ele>1510</ele>
        <time>2019-01-20T08:30:26.000Z</time>
      </trkpt>
      <trkpt lat="45.17026" lon="5.91073">
        <ele>1510</ele>
        <time>2019-01-20T08:30:27.000Z</time>
      </trkpt>
      <trkpt lat="45.17024" lon="5.91073">
        <ele>1510</ele>
        <time>2019-01-20T08:30:28.000Z</time>
      </trkpt>
      <trkpt lat="45.17022" lon="5.91072">
        <ele>1510</ele>
        <time>2019-01-20T08:30:30.000Z</time>
      </trkpt>
      <trkpt lat="45.17022" lon="5.91072">
        <ele>1510</ele>
        <time>2019-01-20T08:30:31.000Z</time>
      </trkpt>
      <trkpt lat="45.1702" lon="5.91072">
        <ele>1510</ele>
        <time>2019-01-20T08:30:32.000Z</time>
      </trkpt>
      <trkpt lat="45.1702" lon="5.91072">
        <ele>1510</ele>
        <time>2019-01-20T08:30:33.000Z</time>
      </trkpt>
      <trkpt lat="45.17018" lon="5.91072">
        <ele>1510</ele>
        <time>2019-01-20T08:30:34.000Z</time>
      </trkpt>
      <trkpt lat="45.17018" lon="5.91072">
        <ele>1511</ele>
        <time>2019-01-20T08:30:35.000Z</time>
      </trkpt>
      <trkpt lat="45.17015" lon="5.91072">
        <ele>1511</ele>
        <time>2019-01-20T08:30:36.000Z</time>
      </trkpt>
      <trkpt lat="45.17015" lon="5.91072">
        <ele>1511</ele>
        <time>2019-01-20T08:30:37.000Z</time>
      </trkpt>
      <trkpt lat="45.17013" lon="5.91072">
        <ele>1512</ele>
        <time>2019-01-20T08:30:38.000Z</time>
      </trkpt>
      <trkpt lat="45.17013" lon="5.91072">
        <ele>1512</ele>
        <time>2019-01-20T08:30:39.000Z</time>
      </trkpt>
      <trkpt lat="45.17013" lon="5.91072">
        <ele>1512</ele>
        <time>2019-01-20T08:30:40.000Z</time>
      </trkpt>
      <trkpt lat="45.1701" lon="5.91072">
        <ele>1513</ele>
        <time>2019-01-20T08:30:41.000Z</time>
      </trkpt>
      <trkpt lat="45.1701" lon="5.91072">
        <ele>1513</ele>
        <time>2019-01-20T08:30:42.000Z</time>
      </trkpt>
      <trkpt lat="45.1701" lon="5.91072">
        <ele>1513</ele>
        <time>2019-01-20T08:30:43.000Z</time>
      </trkpt>
      <trkpt lat="45.17007" lon="5.91072">
        <ele>1514</ele>
        <time>2019-01-20T08:30:44.000Z</time>
      </trkpt>
      <trkpt lat="45.17007" lon="5.91072">
        <ele>1514</ele>
        <time>2019-01-20T08:30:45.000Z</time>
      </trkpt>
      <trkpt lat="45.17007" lon="5.91072">
        <ele>1514</ele>
        <time>2019-01-20T08:30:46.000Z</time>
      </trkpt>
      <trkpt lat="45.17005" lon="5.9107">
        <ele>1514</ele>
        <time>2019-01-20T08:30:47.000Z</time>
      </trkpt>
      <trkpt lat="45.17002" lon="5.9107">
        <ele>1514</ele>
        <time>2019-01-20T08:30:49.000Z</time>
      </trkpt>
      <trkpt lat="45.17002" lon="5.9107">
        <ele>1514</ele>
        <time>2019-01-20T08:30:50.000Z</time>
      </trkpt>
      <trkpt lat="45.17" lon="5.91069">
        <ele>1514</ele>
        <time>2019-01-20T08:30:51.000Z</time>
      </trkpt>
      <trkpt lat="45.17" lon="5.91069">
        <ele>1514</ele>
        <time>2019-01-20T08:30:52.000Z</time>
      </trkpt>
      <trkpt lat="45.16998" lon="5.91069">
        <ele>1515</ele>
        <time>2019-01-20T08:30:53.000Z</time>
      </trkpt>
      <trkpt lat="45.16998" lon="5.91069">
        <ele>1515</ele>
        <time>2019-01-20T08:30:54.000Z</time>
      </trkpt>
      <trkpt lat="45.16998" lon="5.91069">
        <ele>1515</ele>
        <time>2019-01-20T08:30:55.000Z</time>
      </trkpt>
      <trkpt lat="45.16995" lon="5.9107">
        <ele>1515</ele>
        <time>2019-01-20T08:30:56.000Z</time>
      </trkpt>
      <trkpt lat="45.16995" lon="5.9107">
        <ele>1515</ele>
        <time>2019-01-20T08:30:57.000Z</time>
      </trkpt>
      <trkpt lat="45.16993" lon="5.9107">
        <ele>1515</ele>
        <time>2019-01-20T08:30:58.000Z</time>
      </trkpt>
      <trkpt lat="45.16993" lon="5.9107">
        <ele>1515</ele>
        <time>2019-01-20T08:30:59.000Z</time>
      </trkpt>
      <trkpt lat="45.16991" lon="5.9107">
        <ele>1515</ele>
        <time>2019-01-20T08:31:00.000Z</time>
      </trkpt>
      <trkpt lat="45.16991" lon="5.9107">
        <ele>1516</ele>
        <time>2019-01-20T08:31:01.000Z</time>
      </trkpt>
      <trkpt lat="45.16991" lon="5.9107">
        <ele>1516</ele>
        <time>2019-01-20T08:31:02.000Z</time>
      </trkpt>
      <trkpt lat="45.16988" lon="5.91072">
        <ele>1516</ele>
        <time>2019-01-20T08:31:03.000Z</time>
      </trkpt>
      <trkpt lat="45.16988" lon="5.91072">
        <ele>1517</ele>
        <time>2019-01-20T08:31:04.000Z</time>
      </trkpt>
      <trkpt lat="45.16987" lon="5.91072">
        <ele>1517</ele>
        <time>2019-01-20T08:31:05.000Z</time>
      </trkpt>
      <trkpt lat="45.16987" lon="5.91072">
        <ele>1517</ele>
        <time>2019-01-20T08:31:06.000Z</time>
      </trkpt>
      <trkpt lat="45.16985" lon="5.91072">
        <ele>1517</ele>
        <time>2019-01-20T08:31:07.000Z</time>
      </trkpt>
      <trkpt lat="45.16985" lon="5.91072">
        <ele>1517</ele>
        <time>2019-01-20T08:31:08.000Z</time>
      </trkpt>
      <trkpt lat="45.16982" lon="5.91072">
        <ele>1517</ele>
        <time>2019-01-20T08:31:09.000Z</time>
      </trkpt>
      <trkpt lat="45.16982" lon="5.91072">
        <ele>1517</ele>
        <time>2019-01-20T08:31:10.000Z</time>
      </trkpt>
      <trkpt lat="45.1698" lon="5.91072">
        <ele>1518</ele>
        <time>2019-01-20T08:31:11.000Z</time>
      </trkpt>
      <trkpt lat="45.1698" lon="5.91072">
        <ele>1518</ele>
        <time>2019-01-20T08:31:12.000Z</time>
      </trkpt>
      <trkpt lat="45.16978" lon="5.91073">
        <ele>1519</ele>
        <time>2019-01-20T08:31:13.000Z</time>
      </trkpt>
      <trkpt lat="45.16978" lon="5.91073">
        <ele>1519</ele>
        <time>2019-01-20T08:31:14.000Z</time>
      </trkpt>
      <trkpt lat="45.16976" lon="5.91073">
        <ele>1519</ele>
        <time>2019-01-20T08:31:15.000Z</time>
      </trkpt>
      <trkpt lat="45.16976" lon="5.91073">
        <ele>1519</ele>
        <time>2019-01-20T08:31:16.000Z</time>
      </trkpt>
      <trkpt lat="45.16974" lon="5.91073">
        <ele>1519</ele>
        <time>2019-01-20T08:31:17.000Z</time>
      </trkpt>
      <trkpt lat="45.16974" lon="5.91073">
        <ele>1519</ele>
        <time>2019-01-20T08:31:18.000Z</time>
      </trkpt>
      <trkpt lat="45.16974" lon="5.91073">
        <ele>1520</ele>
        <time>2019-01-20T08:31:19.000Z</time>
      </trkpt>
      <trkpt lat="45.16971" lon="5.91072">
        <ele>1520</ele>
        <time>2019-01-20T08:31:20.000Z</time>
      </trkpt>
      <trkpt lat="45.16971" lon="5.91072">
        <ele>1520</ele>
        <time>2019-01-20T08:31:21.000Z</time>
      </trkpt>
      <trkpt lat="45.16971" lon="5.91072">
        <ele>1520</ele>
        <time>2019-01-20T08:31:22.000Z</time>
      </trkpt>
      <trkpt lat="45.16968" lon="5.91072">
        <ele>1520</ele>
        <time>2019-01-20T08:31:23.000Z</time>
      </trkpt>
      <trkpt lat="45.16968" lon="5.91072">
        <ele>1520</ele>
        <time>2019-01-20T08:31:24.000Z</time>
      </trkpt>
      <trkpt lat="45.16968" lon="5.91072">
        <ele>1520</ele>
        <time>2019-01-20T08:31:25.000Z</time>
      </trkpt>
      <trkpt lat="45.16966" lon="5.91074">
        <ele>1521</ele>
        <time>2019-01-20T08:31:27.000Z</time>
      </trkpt>
      <trkpt lat="45.16966" lon="5.91074">
        <ele>1521</ele>
        <time>2019-01-20T08:31:28.000Z</time>
      </trkpt>
      <trkpt lat="45.16966" lon="5.91074">
        <ele>1521</ele>
        <time>2019-01-20T08:31:29.000Z</time>
      </trkpt>
      <trkpt lat="45.16963" lon="5.91075">
        <ele>1521</ele>
        <time>2019-01-20T08:31:30.000Z</time>
      </trkpt>
      <trkpt lat="45.16963" lon="5.91075">
        <ele>1522</ele>
        <time>2019-01-20T08:31:31.000Z</time>
      </trkpt>
      <trkpt lat="45.1696" lon="5.91075">
        <ele>1522</ele>
        <time>2019-01-20T08:31:32.000Z</time>
      </trkpt>
      <trkpt lat="45.1696" lon="5.91075">
        <ele>1522</ele>
        <time>2019-01-20T08:31:33.000Z</time>
      </trkpt>
      <trkpt lat="45.16958" lon="5.91076">
        <ele>1522</ele>
        <time>2019-01-20T08:31:34.000Z</time>
      </trkpt>
      <trkpt lat="45.16958" lon="5.91076">
        <ele>1522</ele>
        <time>2019-01-20T08:31:35.000Z</time>
      </trkpt>
      <trkpt lat="45.16958" lon="5.91076">
        <ele>1523</ele>
        <time>2019-01-20T08:31:36.000Z</time>
      </trkpt>
      <trkpt lat="45.16955" lon="5.91077">
        <ele>1523</ele>
        <time>2019-01-20T08:31:37.000Z</time>
      </trkpt>
      <trkpt lat="45.16955" lon="5.91077">
        <ele>1523</ele>
        <time>2019-01-20T08:31:38.000Z</time>
      </trkpt>
      <trkpt lat="45.16952" lon="5.91076">
        <ele>1524</ele>
        <time>2019-01-20T08:31:39.000Z</time>
      </trkpt>
      <trkpt lat="45.16952" lon="5.91076">
        <ele>1524</ele>
        <time>2019-01-20T08:31:40.000Z</time>
      </trkpt>
      <trkpt lat="45.1695" lon="5.91077">
        <ele>1524</ele>
        <time>2019-01-20T08:31:41.000Z</time>
      </trkpt>
      <trkpt lat="45.1695" lon="5.91077">
        <ele>1524</ele>
        <time>2019-01-20T08:31:42.000Z</time>
      </trkpt>
      <trkpt lat="45.16948" lon="5.91076">
        <ele>1524</ele>
        <time>2019-01-20T08:31:43.000Z</time>
      </trkpt>
      <trkpt lat="45.16948" lon="5.91076">
        <ele>1524</ele>
        <time>2019-01-20T08:31:44.000Z</time>
      </trkpt>
      <trkpt lat="45.16945" lon="5.91076">
        <ele>1524</ele>
        <time>2019-01-20T08:31:45.000Z</time>
      </trkpt>
      <trkpt lat="45.16945" lon="5.91076">
        <ele>1524</ele>
        <time>2019-01-20T08:31:46.000Z</time>
      </trkpt>
      <trkpt lat="45.16943" lon="5.91076">
        <ele>1524</ele>
        <time>2019-01-20T08:31:47.000Z</time>
      </trkpt>
      <trkpt lat="45.16943" lon="5.91076">
        <ele>1524.4</ele>
        <time>2019-01-20T08:31:48.000Z</time>
      </trkpt>
      <trkpt lat="45.16939" lon="5.91076">
        <ele>1525</ele>
        <time>2019-01-20T08:31:49.000Z</time>
      </trkpt>
      <trkpt lat="45.16939" lon="5.91076">
        <ele>1525</ele>
        <time>2019-01-20T08:31:50.000Z</time>
      </trkpt>
      <trkpt lat="45.16936" lon="5.91076">
        <ele>1525</ele>
        <time>2019-01-20T08:31:51.000Z</time>
      </trkpt>
      <trkpt lat="45.16936" lon="5.91076">
        <ele>1525</ele>
        <time>2019-01-20T08:31:52.000Z</time>
      </trkpt>
      <trkpt lat="45.16933" lon="5.91077">
        <ele>1525</ele>
        <time>2019-01-20T08:31:53.000Z</time>
      </trkpt>
      <trkpt lat="45.16933" lon="5.91077">
        <ele>1525</ele>
        <time>2019-01-20T08:31:54.000Z</time>
      </trkpt>
      <trkpt lat="45.16931" lon="5.91077">
        <ele>1525</ele>
        <time>2019-01-20T08:31:55.000Z</time>
      </trkpt>
      <trkpt lat="45.16931" lon="5.91077">
        <ele>1525</ele>
        <time>2019-01-20T08:31:56.000Z</time>
      </trkpt>
      <trkpt lat="45.16929" lon="5.91077">
        <ele>1525</ele>
        <time>2019-01-20T08:31:57.000Z</time>
      </trkpt>
      <trkpt lat="45.16929" lon="5.91077">
        <ele>1525</ele>
        <time>2019-01-20T08:31:58.000Z</time>
      </trkpt>
      <trkpt lat="45.16927" lon="5.91077">
        <ele>1525</ele>
        <time>2019-01-20T08:31:59.000Z</time>
      </trkpt>
      <trkpt lat="45.16927" lon="5.91077">
        <ele>1525</ele>
        <time>2019-01-20T08:32:00.000Z</time>
      </trkpt>
      <trkpt lat="45.16924" lon="5.91077">
        <ele>1525</ele>
        <time>2019-01-20T08:32:01.000Z</time>
      </trkpt>
      <trkpt lat="45.16924" lon="5.91077">
        <ele>1525</ele>
        <time>2019-01-20T08:32:02.000Z</time>
      </trkpt>
      <trkpt lat="45.16921" lon="5.91077">
        <ele>1525</ele>
        <time>2019-01-20T08:32:03.000Z</time>
      </trkpt>
      <trkpt lat="45.16921" lon="5.91077">
        <ele>1525</ele>
        <time>2019-01-20T08:32:05.000Z</time>
      </trkpt>
      <trkpt lat="45.16918" lon="5.91075">
        <ele>1525</ele>
        <time>2019-01-20T08:32:06.000Z</time>
      </trkpt>
      <trkpt lat="45.16918" lon="5.91075">
        <ele>1526</ele>
        <time>2019-01-20T08:32:07.000Z</time>
      </trkpt>
      <trkpt lat="45.16917" lon="5.91073">
        <ele>1526</ele>
        <time>2019-01-20T08:32:08.000Z</time>
      </trkpt>
      <trkpt lat="45.16917" lon="5.91073">
        <ele>1526</ele>
        <time>2019-01-20T08:32:09.000Z</time>
      </trkpt>
      <trkpt lat="45.16914" lon="5.91072">
        <ele>1526</ele>
        <time>2019-01-20T08:32:10.000Z</time>
      </trkpt>
      <trkpt lat="45.16914" lon="5.91072">
        <ele>1526</ele>
        <time>2019-01-20T08:32:11.000Z</time>
      </trkpt>
      <trkpt lat="45.16912" lon="5.91071">
        <ele>1526</ele>
        <time>2019-01-20T08:32:12.000Z</time>
      </trkpt>
      <trkpt lat="45.16912" lon="5.91071">
        <ele>1527</ele>
        <time>2019-01-20T08:32:13.000Z</time>
      </trkpt>
      <trkpt lat="45.16912" lon="5.91071">
        <ele>1527</ele>
        <time>2019-01-20T08:32:14.000Z</time>
      </trkpt>
      <trkpt lat="45.16912" lon="5.91071">
        <ele>1527</ele>
        <time>2019-01-20T08:32:15.000Z</time>
      </trkpt>
      <trkpt lat="45.16908" lon="5.9107">
        <ele>1528</ele>
        <time>2019-01-20T08:32:16.000Z</time>
      </trkpt>
      <trkpt lat="45.16908" lon="5.9107">
        <ele>1528</ele>
        <time>2019-01-20T08:32:17.000Z</time>
      </trkpt>
      <trkpt lat="45.16906" lon="5.91069">
        <ele>1528</ele>
        <time>2019-01-20T08:32:18.000Z</time>
      </trkpt>
      <trkpt lat="45.16906" lon="5.91069">
        <ele>1528</ele>
        <time>2019-01-20T08:32:19.000Z</time>
      </trkpt>
      <trkpt lat="45.16904" lon="5.91068">
        <ele>1528</ele>
        <time>2019-01-20T08:32:20.000Z</time>
      </trkpt>
      <trkpt lat="45.16904" lon="5.91068">
        <ele>1528</ele>
        <time>2019-01-20T08:32:21.000Z</time>
      </trkpt>
      <trkpt lat="45.16902" lon="5.91066">
        <ele>1528</ele>
        <time>2019-01-20T08:32:22.000Z</time>
      </trkpt>
      <trkpt lat="45.16899" lon="5.91065">
        <ele>1528</ele>
        <time>2019-01-20T08:32:24.000Z</time>
      </trkpt>
      <trkpt lat="45.16899" lon="5.91065">
        <ele>1528</ele>
        <time>2019-01-20T08:32:25.000Z</time>
      </trkpt>
      <trkpt lat="45.16896" lon="5.91065">
        <ele>1528</ele>
        <time>2019-01-20T08:32:26.000Z</time>
      </trkpt>
      <trkpt lat="45.16896" lon="5.91065">
        <ele>1528</ele>
        <time>2019-01-20T08:32:27.000Z</time>
      </trkpt>
      <trkpt lat="45.16893" lon="5.91064">
        <ele>1528</ele>
        <time>2019-01-20T08:32:28.000Z</time>
      </trkpt>
      <trkpt lat="45.16893" lon="5.91064">
        <ele>1528</ele>
        <time>2019-01-20T08:32:29.000Z</time>
      </trkpt>
      <trkpt lat="45.1689" lon="5.91064">
        <ele>1528</ele>
        <time>2019-01-20T08:32:30.000Z</time>
      </trkpt>
      <trkpt lat="45.1689" lon="5.91064">
        <ele>1528</ele>
        <time>2019-01-20T08:32:31.000Z</time>
      </trkpt>
      <trkpt lat="45.16887" lon="5.91064">
        <ele>1528</ele>
        <time>2019-01-20T08:32:32.000Z</time>
      </trkpt>
      <trkpt lat="45.16885" lon="5.91064">
        <ele>1528</ele>
        <time>2019-01-20T08:32:33.000Z</time>
      </trkpt>
      <trkpt lat="45.16883" lon="5.91065">
        <ele>1528</ele>
        <time>2019-01-20T08:32:34.000Z</time>
      </trkpt>
      <trkpt lat="45.16881" lon="5.91065">
        <ele>1528</ele>
        <time>2019-01-20T08:32:35.000Z</time>
      </trkpt>
      <trkpt lat="45.16878" lon="5.91066">
        <ele>1528</ele>
        <time>2019-01-20T08:32:36.000Z</time>
      </trkpt>
      <trkpt lat="45.16878" lon="5.91066">
        <ele>1528</ele>
        <time>2019-01-20T08:32:37.000Z</time>
      </trkpt>
      <trkpt lat="45.16877" lon="5.91067">
        <ele>1528</ele>
        <time>2019-01-20T08:32:38.000Z</time>
      </trkpt>
      <trkpt lat="45.16876" lon="5.91067">
        <ele>1528</ele>
        <time>2019-01-20T08:32:39.000Z</time>
      </trkpt>
      <trkpt lat="45.16875" lon="5.91067">
        <ele>1528</ele>
        <time>2019-01-20T08:32:40.000Z</time>
      </trkpt>
      <trkpt lat="45.16873" lon="5.91067">
        <ele>1527</ele>
        <time>2019-01-20T08:32:41.000Z</time>
      </trkpt>
      <trkpt lat="45.16872" lon="5.91067">
        <ele>1527</ele>
        <time>2019-01-20T08:32:43.000Z</time>
      </trkpt>
      <trkpt lat="45.1687" lon="5.91068">
        <ele>1527</ele>
        <time>2019-01-20T08:32:44.000Z</time>
      </trkpt>
      <trkpt lat="45.16868" lon="5.91068">
        <ele>1527</ele>
        <time>2019-01-20T08:32:45.000Z</time>
      </trkpt>
      <trkpt lat="45.16867" lon="5.91068">
        <ele>1527</ele>
        <time>2019-01-20T08:32:46.000Z</time>
      </trkpt>
      <trkpt lat="45.16866" lon="5.91068">
        <ele>1527</ele>
        <time>2019-01-20T08:32:47.000Z</time>
      </trkpt>
      <trkpt lat="45.16865" lon="5.91069">
        <ele>1528</ele>
        <time>2019-01-20T08:32:48.000Z</time>
      </trkpt>
      <trkpt lat="45.16864" lon="5.91069">
        <ele>1528</ele>
        <time>2019-01-20T08:32:49.000Z</time>
      </trkpt>
      <trkpt lat="45.16863" lon="5.91069">
        <ele>1527</ele>
        <time>2019-01-20T08:32:50.000Z</time>
      </trkpt>
      <trkpt lat="45.16862" lon="5.91069">
        <ele>1527</ele>
        <time>2019-01-20T08:32:51.000Z</time>
      </trkpt>
      <trkpt lat="45.16861" lon="5.91069">
        <ele>1527</ele>
        <time>2019-01-20T08:32:52.000Z</time>
      </trkpt>
      <trkpt lat="45.1686" lon="5.9107">
        <ele>1527</ele>
        <time>2019-01-20T08:32:53.000Z</time>
      </trkpt>
      <trkpt lat="45.16859" lon="5.9107">
        <ele>1528</ele>
        <time>2019-01-20T08:32:54.000Z</time>
      </trkpt>
      <trkpt lat="45.16859" lon="5.9107">
        <ele>1528</ele>
        <time>2019-01-20T08:32:55.000Z</time>
      </trkpt>
      <trkpt lat="45.1685" lon="5.9107">
        <ele>1528</ele>
        <time>2019-01-20T08:32:56.000Z</time>
      </trkpt>
      <trkpt lat="45.1685" lon="5.9107">
        <ele>1528</ele>
        <time>2019-01-20T08:32:57.000Z</time>
      </trkpt>
      <trkpt lat="45.1685" lon="5.9107">
        <ele>1528</ele>
        <time>2019-01-20T08:32:58.000Z</time>
      </trkpt>
      <trkpt lat="45.1685" lon="5.9107">
        <ele>1528</ele>
        <time>2019-01-20T08:32:59.000Z</time>
      </trkpt>
      <trkpt lat="45.1685" lon="5.9107">
        <ele>1529</ele>
        <time>2019-01-20T08:33:01.000Z</time>
      </trkpt>
      <trkpt lat="45.16842" lon="5.91063">
        <ele>1529</ele>
        <time>2019-01-20T08:33:02.000Z</time>
      </trkpt>
      <trkpt lat="45.16842" lon="5.91063">
        <ele>1529</ele>
        <time>2019-01-20T08:33:03.000Z</time>
      </trkpt>
      <trkpt lat="45.16842" lon="5.91063">
        <ele>1529</ele>
        <time>2019-01-20T08:33:04.000Z</time>
      </trkpt>
      <trkpt lat="45.16842" lon="5.91063">
        <ele>1529</ele>
        <time>2019-01-20T08:33:05.000Z</time>
      </trkpt>
      <trkpt lat="45.16842" lon="5.91063">
        <ele>1529</ele>
        <time>2019-01-20T08:33:06.000Z</time>
      </trkpt>
      <trkpt lat="45.16833" lon="5.91057">
        <ele>1529</ele>
        <time>2019-01-20T08:33:07.000Z</time>
      </trkpt>
      <trkpt lat="45.16832" lon="5.91055">
        <ele>1529</ele>
        <time>2019-01-20T08:33:08.000Z</time>
      </trkpt>
      <trkpt lat="45.1683" lon="5.91052">
        <ele>1529</ele>
        <time>2019-01-20T08:33:09.000Z</time>
      </trkpt>
      <trkpt lat="45.16828" lon="5.91051">
        <ele>1529</ele>
        <time>2019-01-20T08:33:10.000Z</time>
      </trkpt>
      <trkpt lat="45.16827" lon="5.91049">
        <ele>1529</ele>
        <time>2019-01-20T08:33:11.000Z</time>
      </trkpt>
      <trkpt lat="45.16825" lon="5.91047">
        <ele>1529</ele>
        <time>2019-01-20T08:33:12.000Z</time>
      </trkpt>
      <trkpt lat="45.16824" lon="5.91045">
        <ele>1529</ele>
        <time>2019-01-20T08:33:13.000Z</time>
      </trkpt>
      <trkpt lat="45.16823" lon="5.91043">
        <ele>1529</ele>
        <time>2019-01-20T08:33:14.000Z</time>
      </trkpt>
      <trkpt lat="45.16821" lon="5.91041">
        <ele>1528</ele>
        <time>2019-01-20T08:33:15.000Z</time>
      </trkpt>
      <trkpt lat="45.16821" lon="5.91041">
        <ele>1527</ele>
        <time>2019-01-20T08:33:16.000Z</time>
      </trkpt>
      <trkpt lat="45.16819" lon="5.91038">
        <ele>1527</ele>
        <time>2019-01-20T08:33:17.000Z</time>
      </trkpt>
      <trkpt lat="45.16819" lon="5.91038">
        <ele>1527</ele>
        <time>2019-01-20T08:33:18.000Z</time>
      </trkpt>
      <trkpt lat="45.16817" lon="5.91035">
        <ele>1527</ele>
        <time>2019-01-20T08:33:19.000Z</time>
      </trkpt>
      <trkpt lat="45.16815" lon="5.91032">
        <ele>1527</ele>
        <time>2019-01-20T08:33:21.000Z</time>
      </trkpt>
      <trkpt lat="45.16815" lon="5.91032">
        <ele>1527</ele>
        <time>2019-01-20T08:33:22.000Z</time>
      </trkpt>
      <trkpt lat="45.16812" lon="5.91028">
        <ele>1527</ele>
        <time>2019-01-20T08:33:23.000Z</time>
      </trkpt>
      <trkpt lat="45.16811" lon="5.91026">
        <ele>1527</ele>
        <time>2019-01-20T08:33:24.000Z</time>
      </trkpt>
      <trkpt lat="45.16811" lon="5.91026">
        <ele>1527</ele>
        <time>2019-01-20T08:33:25.000Z</time>
      </trkpt>
      <trkpt lat="45.16809" lon="5.91022">
        <ele>1527</ele>
        <time>2019-01-20T08:33:26.000Z</time>
      </trkpt>
      <trkpt lat="45.16809" lon="5.91022">
        <ele>1527</ele>
        <time>2019-01-20T08:33:27.000Z</time>
      </trkpt>
      <trkpt lat="45.16806" lon="5.9102">
        <ele>1527</ele>
        <time>2019-01-20T08:33:28.000Z</time>
      </trkpt>
      <trkpt lat="45.16806" lon="5.9102">
        <ele>1527</ele>
        <time>2019-01-20T08:33:29.000Z</time>
      </trkpt>
      <trkpt lat="45.16804" lon="5.91017">
        <ele>1527</ele>
        <time>2019-01-20T08:33:30.000Z</time>
      </trkpt>
      <trkpt lat="45.16803" lon="5.91014">
        <ele>1527</ele>
        <time>2019-01-20T08:33:31.000Z</time>
      </trkpt>
      <trkpt lat="45.16803" lon="5.91014">
        <ele>1527</ele>
        <time>2019-01-20T08:33:32.000Z</time>
      </trkpt>
      <trkpt lat="45.16801" lon="5.9101">
        <ele>1527</ele>
        <time>2019-01-20T08:33:33.000Z</time>
      </trkpt>
      <trkpt lat="45.16799" lon="5.91006">
        <ele>1527</ele>
        <time>2019-01-20T08:33:34.000Z</time>
      </trkpt>
      <trkpt lat="45.16798" lon="5.91005">
        <ele>1527</ele>
        <time>2019-01-20T08:33:35.000Z</time>
      </trkpt>
      <trkpt lat="45.16798" lon="5.91005">
        <ele>1527</ele>
        <time>2019-01-20T08:33:36.000Z</time>
      </trkpt>
      <trkpt lat="45.16796" lon="5.91001">
        <ele>1527</ele>
        <time>2019-01-20T08:33:37.000Z</time>
      </trkpt>
      <trkpt lat="45.16795" lon="5.91">
        <ele>1527</ele>
        <time>2019-01-20T08:33:38.000Z</time>
      </trkpt>
      <trkpt lat="45.16794" lon="5.90999">
        <ele>1527</ele>
        <time>2019-01-20T08:33:39.000Z</time>
      </trkpt>
      <trkpt lat="45.16793" lon="5.90999">
        <ele>1527</ele>
        <time>2019-01-20T08:33:40.000Z</time>
      </trkpt>
      <trkpt lat="45.1679" lon="5.90996">
        <ele>1527</ele>
        <time>2019-01-20T08:33:41.000Z</time>
      </trkpt>
      <trkpt lat="45.16788" lon="5.90993">
        <ele>1526</ele>
        <time>2019-01-20T08:33:42.000Z</time>
      </trkpt>
      <trkpt lat="45.16787" lon="5.90992">
        <ele>1526</ele>
        <time>2019-01-20T08:33:43.000Z</time>
      </trkpt>
      <trkpt lat="45.16785" lon="5.9099">
        <ele>1525</ele>
        <time>2019-01-20T08:33:44.000Z</time>
      </trkpt>
      <trkpt lat="45.16784" lon="5.90988">
        <ele>1525</ele>
        <time>2019-01-20T08:33:45.000Z</time>
      </trkpt>
      <trkpt lat="45.16782" lon="5.90985">
        <ele>1525</ele>
        <time>2019-01-20T08:33:46.000Z</time>
      </trkpt>
      <trkpt lat="45.1678" lon="5.90983">
        <ele>1525</ele>
        <time>2019-01-20T08:33:47.000Z</time>
      </trkpt>
      <trkpt lat="45.16778" lon="5.9098">
        <ele>1525</ele>
        <time>2019-01-20T08:33:48.000Z</time>
      </trkpt>
      <trkpt lat="45.16776" lon="5.90978">
        <ele>1525</ele>
        <time>2019-01-20T08:33:49.000Z</time>
      </trkpt>
      <trkpt lat="45.16773" lon="5.90975">
        <ele>1524</ele>
        <time>2019-01-20T08:33:50.000Z</time>
      </trkpt>
      <trkpt lat="45.16772" lon="5.90973">
        <ele>1523</ele>
        <time>2019-01-20T08:33:51.000Z</time>
      </trkpt>
      <trkpt lat="45.1677" lon="5.9097">
        <ele>1523</ele>
        <time>2019-01-20T08:33:52.000Z</time>
      </trkpt>
      <trkpt lat="45.16768" lon="5.90968">
        <ele>1523</ele>
        <time>2019-01-20T08:33:53.000Z</time>
      </trkpt>
      <trkpt lat="45.16766" lon="5.90965">
        <ele>1523</ele>
        <time>2019-01-20T08:33:54.000Z</time>
      </trkpt>
      <trkpt lat="45.16765" lon="5.90963">
        <ele>1523</ele>
        <time>2019-01-20T08:33:55.000Z</time>
      </trkpt>
      <trkpt lat="45.16763" lon="5.90961">
        <ele>1523</ele>
        <time>2019-01-20T08:33:56.000Z</time>
      </trkpt>
      <trkpt lat="45.16762" lon="5.90959">
        <ele>1523</ele>
        <time>2019-01-20T08:33:57.000Z</time>
      </trkpt>
      <trkpt lat="45.1676" lon="5.90955">
        <ele>1523</ele>
        <time>2019-01-20T08:33:59.000Z</time>
      </trkpt>
      <trkpt lat="45.16759" lon="5.90953">
        <ele>1523</ele>
        <time>2019-01-20T08:34:00.000Z</time>
      </trkpt>
      <trkpt lat="45.16758" lon="5.90951">
        <ele>1523</ele>
        <time>2019-01-20T08:34:01.000Z</time>
      </trkpt>
      <trkpt lat="45.16757" lon="5.90949">
        <ele>1523</ele>
        <time>2019-01-20T08:34:02.000Z</time>
      </trkpt>
      <trkpt lat="45.16755" lon="5.90947">
        <ele>1523</ele>
        <time>2019-01-20T08:34:03.000Z</time>
      </trkpt>
      <trkpt lat="45.16754" lon="5.90945">
        <ele>1523</ele>
        <time>2019-01-20T08:34:04.000Z</time>
      </trkpt>
      <trkpt lat="45.16754" lon="5.90945">
        <ele>1522</ele>
        <time>2019-01-20T08:34:05.000Z</time>
      </trkpt>
      <trkpt lat="45.16752" lon="5.90941">
        <ele>1522</ele>
        <time>2019-01-20T08:34:06.000Z</time>
      </trkpt>
      <trkpt lat="45.16751" lon="5.90939">
        <ele>1522</ele>
        <time>2019-01-20T08:34:07.000Z</time>
      </trkpt>
      <trkpt lat="45.1675" lon="5.90936">
        <ele>1522</ele>
        <time>2019-01-20T08:34:08.000Z</time>
      </trkpt>
      <trkpt lat="45.16749" lon="5.90934">
        <ele>1521</ele>
        <time>2019-01-20T08:34:09.000Z</time>
      </trkpt>
      <trkpt lat="45.16748" lon="5.90932">
        <ele>1521</ele>
        <time>2019-01-20T08:34:10.000Z</time>
      </trkpt>
      <trkpt lat="45.16747" lon="5.90929">
        <ele>1521</ele>
        <time>2019-01-20T08:34:11.000Z</time>
      </trkpt>
      <trkpt lat="45.16747" lon="5.90929">
        <ele>1521</ele>
        <time>2019-01-20T08:34:12.000Z</time>
      </trkpt>
      <trkpt lat="45.16745" lon="5.90925">
        <ele>1521</ele>
        <time>2019-01-20T08:34:13.000Z</time>
      </trkpt>
      <trkpt lat="45.16744" lon="5.90923">
        <ele>1521</ele>
        <time>2019-01-20T08:34:14.000Z</time>
      </trkpt>
      <trkpt lat="45.16743" lon="5.90921">
        <ele>1521</ele>
        <time>2019-01-20T08:34:15.000Z</time>
      </trkpt>
      <trkpt lat="45.16743" lon="5.90921">
        <ele>1521</ele>
        <time>2019-01-20T08:34:16.000Z</time>
      </trkpt>
      <trkpt lat="45.16741" lon="5.90918">
        <ele>1521</ele>
        <time>2019-01-20T08:34:17.000Z</time>
      </trkpt>
      <trkpt lat="45.16741" lon="5.90918">
        <ele>1521</ele>
        <time>2019-01-20T08:34:18.000Z</time>
      </trkpt>
      <trkpt lat="45.16739" lon="5.90915">
        <ele>1521</ele>
        <time>2019-01-20T08:34:19.000Z</time>
      </trkpt>
      <trkpt lat="45.16739" lon="5.90915">
        <ele>1520</ele>
        <time>2019-01-20T08:34:20.000Z</time>
      </trkpt>
      <trkpt lat="45.16737" lon="5.90912">
        <ele>1520</ele>
        <time>2019-01-20T08:34:21.000Z</time>
      </trkpt>
      <trkpt lat="45.16737" lon="5.90912">
        <ele>1521</ele>
        <time>2019-01-20T08:34:22.000Z</time>
      </trkpt>
      <trkpt lat="45.16735" lon="5.9091">
        <ele>1521</ele>
        <time>2019-01-20T08:34:23.000Z</time>
      </trkpt>
      <trkpt lat="45.16735" lon="5.9091">
        <ele>1521</ele>
        <time>2019-01-20T08:34:24.000Z</time>
      </trkpt>
      <trkpt lat="45.16734" lon="5.90908">
        <ele>1521</ele>
        <time>2019-01-20T08:34:25.000Z</time>
      </trkpt>
      <trkpt lat="45.16734" lon="5.90908">
        <ele>1521</ele>
        <time>2019-01-20T08:34:26.000Z</time>
      </trkpt>
      <trkpt lat="45.16732" lon="5.90906">
        <ele>1521</ele>
        <time>2019-01-20T08:34:27.000Z</time>
      </trkpt>
      <trkpt lat="45.16732" lon="5.90906">
        <ele>1522</ele>
        <time>2019-01-20T08:34:28.000Z</time>
      </trkpt>
      <trkpt lat="45.1673" lon="5.90904">
        <ele>1522</ele>
        <time>2019-01-20T08:34:29.000Z</time>
      </trkpt>
      <trkpt lat="45.1673" lon="5.90904">
        <ele>1522</ele>
        <time>2019-01-20T08:34:30.000Z</time>
      </trkpt>
      <trkpt lat="45.16728" lon="5.90902">
        <ele>1522</ele>
        <time>2019-01-20T08:34:31.000Z</time>
      </trkpt>
      <trkpt lat="45.16728" lon="5.90902">
        <ele>1523</ele>
        <time>2019-01-20T08:34:32.000Z</time>
      </trkpt>
      <trkpt lat="45.16728" lon="5.90902">
        <ele>1523</ele>
        <time>2019-01-20T08:34:33.000Z</time>
      </trkpt>
      <trkpt lat="45.16728" lon="5.90902">
        <ele>1523</ele>
        <time>2019-01-20T08:34:34.000Z</time>
      </trkpt>
      <trkpt lat="45.16728" lon="5.90902">
        <ele>1523</ele>
        <time>2019-01-20T08:34:35.000Z</time>
      </trkpt>
      <trkpt lat="45.16728" lon="5.90902">
        <ele>1522.4</ele>
        <time>2019-01-20T08:34:37.000Z</time>
      </trkpt>
      <trkpt lat="45.16726" lon="5.90901">
        <ele>1522</ele>
        <time>2019-01-20T08:34:38.000Z</time>
      </trkpt>
      <trkpt lat="45.16726" lon="5.90901">
        <ele>1522</ele>
        <time>2019-01-20T08:34:39.000Z</time>
      </trkpt>
      <trkpt lat="45.16724" lon="5.909">
        <ele>1522</ele>
        <time>2019-01-20T08:34:40.000Z</time>
      </trkpt>
      <trkpt lat="45.16724" lon="5.909">
        <ele>1522</ele>
        <time>2019-01-20T08:34:41.000Z</time>
      </trkpt>
      <trkpt lat="45.16721" lon="5.90898">
        <ele>1522</ele>
        <time>2019-01-20T08:34:42.000Z</time>
      </trkpt>
      <trkpt lat="45.16721" lon="5.90898">
        <ele>1523</ele>
        <time>2019-01-20T08:34:43.000Z</time>
      </trkpt>
      <trkpt lat="45.16719" lon="5.90898">
        <ele>1523</ele>
        <time>2019-01-20T08:34:44.000Z</time>
      </trkpt>
      <trkpt lat="45.16719" lon="5.90898">
        <ele>1523</ele>
        <time>2019-01-20T08:34:45.000Z</time>
      </trkpt>
      <trkpt lat="45.16716" lon="5.90898">
        <ele>1523</ele>
        <time>2019-01-20T08:34:46.000Z</time>
      </trkpt>
      <trkpt lat="45.16716" lon="5.90898">
        <ele>1523</ele>
        <time>2019-01-20T08:34:47.000Z</time>
      </trkpt>
      <trkpt lat="45.16714" lon="5.90898">
        <ele>1524</ele>
        <time>2019-01-20T08:34:48.000Z</time>
      </trkpt>
      <trkpt lat="45.16714" lon="5.90898">
        <ele>1524</ele>
        <time>2019-01-20T08:34:49.000Z</time>
      </trkpt>
      <trkpt lat="45.16712" lon="5.90899">
        <ele>1524</ele>
        <time>2019-01-20T08:34:50.000Z</time>
      </trkpt>
      <trkpt lat="45.16712" lon="5.90899">
        <ele>1525</ele>
        <time>2019-01-20T08:34:51.000Z</time>
      </trkpt>
      <trkpt lat="45.1671" lon="5.909">
        <ele>1525</ele>
        <time>2019-01-20T08:34:52.000Z</time>
      </trkpt>
      <trkpt lat="45.1671" lon="5.909">
        <ele>1525</ele>
        <time>2019-01-20T08:34:53.000Z</time>
      </trkpt>
      <trkpt lat="45.16708" lon="5.90901">
        <ele>1525</ele>
        <time>2019-01-20T08:34:54.000Z</time>
      </trkpt>
      <trkpt lat="45.16706" lon="5.90901">
        <ele>1525</ele>
        <time>2019-01-20T08:34:56.000Z</time>
      </trkpt>
      <trkpt lat="45.16706" lon="5.90901">
        <ele>1525</ele>
        <time>2019-01-20T08:34:57.000Z</time>
      </trkpt>
      <trkpt lat="45.16703" lon="5.90902">
        <ele>1525</ele>
        <time>2019-01-20T08:34:58.000Z</time>
      </trkpt>
      <trkpt lat="45.16703" lon="5.90902">
        <ele>1526</ele>
        <time>2019-01-20T08:34:59.000Z</time>
      </trkpt>
      <trkpt lat="45.16701" lon="5.90903">
        <ele>1526</ele>
        <time>2019-01-20T08:35:00.000Z</time>
      </trkpt>
      <trkpt lat="45.16701" lon="5.90903">
        <ele>1526</ele>
        <time>2019-01-20T08:35:01.000Z</time>
      </trkpt>
      <trkpt lat="45.16699" lon="5.90903">
        <ele>1527</ele>
        <time>2019-01-20T08:35:02.000Z</time>
      </trkpt>
      <trkpt lat="45.16699" lon="5.90903">
        <ele>1527</ele>
        <time>2019-01-20T08:35:03.000Z</time>
      </trkpt>
      <trkpt lat="45.16697" lon="5.90903">
        <ele>1527</ele>
        <time>2019-01-20T08:35:04.000Z</time>
      </trkpt>
      <trkpt lat="45.16697" lon="5.90903">
        <ele>1527.6</ele>
        <time>2019-01-20T08:35:06.000Z</time>
      </trkpt>
      <trkpt lat="45.16694" lon="5.90903">
        <ele>1528</ele>
        <time>2019-01-20T08:35:07.000Z</time>
      </trkpt>
      <trkpt lat="45.16694" lon="5.90903">
        <ele>1528</ele>
        <time>2019-01-20T08:35:08.000Z</time>
      </trkpt>
      <trkpt lat="45.16692" lon="5.909">
        <ele>1528</ele>
        <time>2019-01-20T08:35:09.000Z</time>
      </trkpt>
      <trkpt lat="45.16692" lon="5.909">
        <ele>1528</ele>
        <time>2019-01-20T08:35:10.000Z</time>
      </trkpt>
      <trkpt lat="45.1669" lon="5.90898">
        <ele>1528</ele>
        <time>2019-01-20T08:35:11.000Z</time>
      </trkpt>
      <trkpt lat="45.1669" lon="5.90898">
        <ele>1528</ele>
        <time>2019-01-20T08:35:12.000Z</time>
      </trkpt>
      <trkpt lat="45.1669" lon="5.90898">
        <ele>1528</ele>
        <time>2019-01-20T08:35:13.000Z</time>
      </trkpt>
      <trkpt lat="45.16689" lon="5.90892">
        <ele>1528</ele>
        <time>2019-01-20T08:35:15.000Z</time>
      </trkpt>
      <trkpt lat="45.16689" lon="5.90892">
        <ele>1528</ele>
        <time>2019-01-20T08:35:16.000Z</time>
      </trkpt>
      <trkpt lat="45.16689" lon="5.90888">
        <ele>1528</ele>
        <time>2019-01-20T08:35:17.000Z</time>
      </trkpt>
      <trkpt lat="45.16689" lon="5.90888">
        <ele>1528</ele>
        <time>2019-01-20T08:35:18.000Z</time>
      </trkpt>
      <trkpt lat="45.16688" lon="5.90884">
        <ele>1528</ele>
        <time>2019-01-20T08:35:19.000Z</time>
      </trkpt>
      <trkpt lat="45.16688" lon="5.90884">
        <ele>1528</ele>
        <time>2019-01-20T08:35:20.000Z</time>
      </trkpt>
      <trkpt lat="45.16687" lon="5.9088">
        <ele>1528</ele>
        <time>2019-01-20T08:35:21.000Z</time>
      </trkpt>
      <trkpt lat="45.16686" lon="5.90879">
        <ele>1528</ele>
        <time>2019-01-20T08:35:22.000Z</time>
      </trkpt>
      <trkpt lat="45.16686" lon="5.90878">
        <ele>1528</ele>
        <time>2019-01-20T08:35:23.000Z</time>
      </trkpt>
      <trkpt lat="45.16686" lon="5.90877">
        <ele>1528</ele>
        <time>2019-01-20T08:35:24.000Z</time>
      </trkpt>
      <trkpt lat="45.16686" lon="5.90876">
        <ele>1528</ele>
        <time>2019-01-20T08:35:25.000Z</time>
      </trkpt>
      <trkpt lat="45.16686" lon="5.90876">
        <ele>1528</ele>
        <time>2019-01-20T08:35:26.000Z</time>
      </trkpt>
      <trkpt lat="45.16683" lon="5.9087">
        <ele>1528</ele>
        <time>2019-01-20T08:35:27.000Z</time>
      </trkpt>
      <trkpt lat="45.16683" lon="5.9087">
        <ele>1528</ele>
        <time>2019-01-20T08:35:28.000Z</time>
      </trkpt>
      <trkpt lat="45.16682" lon="5.90867">
        <ele>1528</ele>
        <time>2019-01-20T08:35:29.000Z</time>
      </trkpt>
      <trkpt lat="45.16682" lon="5.90867">
        <ele>1528</ele>
        <time>2019-01-20T08:35:30.000Z</time>
      </trkpt>
      <trkpt lat="45.1668" lon="5.90865">
        <ele>1529</ele>
        <time>2019-01-20T08:35:31.000Z</time>
      </trkpt>
      <trkpt lat="45.1668" lon="5.90864">
        <ele>1529</ele>
        <time>2019-01-20T08:35:32.000Z</time>
      </trkpt>
      <trkpt lat="45.16679" lon="5.90864">
        <ele>1529</ele>
        <time>2019-01-20T08:35:33.000Z</time>
      </trkpt>
      <trkpt lat="45.16679" lon="5.90863">
        <ele>1529</ele>
        <time>2019-01-20T08:35:34.000Z</time>
      </trkpt>
      <trkpt lat="45.16679" lon="5.90863">
        <ele>1529</ele>
        <time>2019-01-20T08:35:35.000Z</time>
      </trkpt>
      <trkpt lat="45.16675" lon="5.90863">
        <ele>1529</ele>
        <time>2019-01-20T08:35:36.000Z</time>
      </trkpt>
      <trkpt lat="45.16675" lon="5.90863">
        <ele>1530</ele>
        <time>2019-01-20T08:35:37.000Z</time>
      </trkpt>
      <trkpt lat="45.16674" lon="5.90863">
        <ele>1530</ele>
        <time>2019-01-20T08:35:38.000Z</time>
      </trkpt>
      <trkpt lat="45.16674" lon="5.90862">
        <ele>1531</ele>
        <time>2019-01-20T08:35:39.000Z</time>
      </trkpt>
      <trkpt lat="45.16674" lon="5.90862">
        <ele>1531</ele>
        <time>2019-01-20T08:35:40.000Z</time>
      </trkpt>
      <trkpt lat="45.16673" lon="5.90862">
        <ele>1531</ele>
        <time>2019-01-20T08:35:41.000Z</time>
      </trkpt>
      <trkpt lat="45.16673" lon="5.90862">
        <ele>1532</ele>
        <time>2019-01-20T08:35:42.000Z</time>
      </trkpt>
      <trkpt lat="45.16673" lon="5.90862">
        <ele>1533</ele>
        <time>2019-01-20T08:35:43.000Z</time>
      </trkpt>
      <trkpt lat="45.16667" lon="5.90861">
        <ele>1533</ele>
        <time>2019-01-20T08:35:44.000Z</time>
      </trkpt>
      <trkpt lat="45.16667" lon="5.90861">
        <ele>1533</ele>
        <time>2019-01-20T08:35:45.000Z</time>
      </trkpt>
      <trkpt lat="45.16667" lon="5.90861">
        <ele>1533</ele>
        <time>2019-01-20T08:35:46.000Z</time>
      </trkpt>
      <trkpt lat="45.16664" lon="5.9086">
        <ele>1533</ele>
        <time>2019-01-20T08:35:47.000Z</time>
      </trkpt>
      <trkpt lat="45.16664" lon="5.9086">
        <ele>1533</ele>
        <time>2019-01-20T08:35:48.000Z</time>
      </trkpt>
      <trkpt lat="45.16663" lon="5.9086">
        <ele>1534</ele>
        <time>2019-01-20T08:35:49.000Z</time>
      </trkpt>
      <trkpt lat="45.16663" lon="5.9086">
        <ele>1534</ele>
        <time>2019-01-20T08:35:50.000Z</time>
      </trkpt>
      <trkpt lat="45.16661" lon="5.9086">
        <ele>1534</ele>
        <time>2019-01-20T08:35:51.000Z</time>
      </trkpt>
      <trkpt lat="45.16658" lon="5.90859">
        <ele>1534</ele>
        <time>2019-01-20T08:35:53.000Z</time>
      </trkpt>
      <trkpt lat="45.16658" lon="5.90859">
        <ele>1534</ele>
        <time>2019-01-20T08:35:54.000Z</time>
      </trkpt>
      <trkpt lat="45.16656" lon="5.90858">
        <ele>1534</ele>
        <time>2019-01-20T08:35:55.000Z</time>
      </trkpt>
      <trkpt lat="45.16656" lon="5.90858">
        <ele>1534</ele>
        <time>2019-01-20T08:35:56.000Z</time>
      </trkpt>
      <trkpt lat="45.16656" lon="5.90858">
        <ele>1535</ele>
        <time>2019-01-20T08:35:57.000Z</time>
      </trkpt>
      <trkpt lat="45.16654" lon="5.90857">
        <ele>1535</ele>
        <time>2019-01-20T08:35:58.000Z</time>
      </trkpt>
      <trkpt lat="45.16654" lon="5.90857">
        <ele>1535</ele>
        <time>2019-01-20T08:35:59.000Z</time>
      </trkpt>
      <trkpt lat="45.16652" lon="5.90857">
        <ele>1535</ele>
        <time>2019-01-20T08:36:00.000Z</time>
      </trkpt>
      <trkpt lat="45.16652" lon="5.90857">
        <ele>1535</ele>
        <time>2019-01-20T08:36:01.000Z</time>
      </trkpt>
      <trkpt lat="45.1665" lon="5.90856">
        <ele>1536</ele>
        <time>2019-01-20T08:36:02.000Z</time>
      </trkpt>
      <trkpt lat="45.1665" lon="5.90856">
        <ele>1536</ele>
        <time>2019-01-20T08:36:03.000Z</time>
      </trkpt>
      <trkpt lat="45.16649" lon="5.90856">
        <ele>1536</ele>
        <time>2019-01-20T08:36:04.000Z</time>
      </trkpt>
      <trkpt lat="45.16648" lon="5.90856">
        <ele>1536</ele>
        <time>2019-01-20T08:36:05.000Z</time>
      </trkpt>
      <trkpt lat="45.16648" lon="5.90856">
        <ele>1536</ele>
        <time>2019-01-20T08:36:06.000Z</time>
      </trkpt>
      <trkpt lat="45.16647" lon="5.90856">
        <ele>1536</ele>
        <time>2019-01-20T08:36:07.000Z</time>
      </trkpt>
      <trkpt lat="45.16647" lon="5.90856">
        <ele>1537</ele>
        <time>2019-01-20T08:36:08.000Z</time>
      </trkpt>
      <trkpt lat="45.16643" lon="5.90855">
        <ele>1537</ele>
        <time>2019-01-20T08:36:09.000Z</time>
      </trkpt>
      <trkpt lat="45.16643" lon="5.90855">
        <ele>1537</ele>
        <time>2019-01-20T08:36:10.000Z</time>
      </trkpt>
      <trkpt lat="45.1664" lon="5.90854">
        <ele>1537</ele>
        <time>2019-01-20T08:36:11.000Z</time>
      </trkpt>
      <trkpt lat="45.1664" lon="5.90854">
        <ele>1537</ele>
        <time>2019-01-20T08:36:12.000Z</time>
      </trkpt>
      <trkpt lat="45.16638" lon="5.90853">
        <ele>1537</ele>
        <time>2019-01-20T08:36:13.000Z</time>
      </trkpt>
      <trkpt lat="45.16638" lon="5.90853">
        <ele>1538</ele>
        <time>2019-01-20T08:36:14.000Z</time>
      </trkpt>
      <trkpt lat="45.16638" lon="5.90853">
        <ele>1539</ele>
        <time>2019-01-20T08:36:15.000Z</time>
      </trkpt>
      <trkpt lat="45.16635" lon="5.90851">
        <ele>1539</ele>
        <time>2019-01-20T08:36:16.000Z</time>
      </trkpt>
      <trkpt lat="45.16635" lon="5.90851">
        <ele>1539</ele>
        <time>2019-01-20T08:36:17.000Z</time>
      </trkpt>
      <trkpt lat="45.16633" lon="5.9085">
        <ele>1539</ele>
        <time>2019-01-20T08:36:18.000Z</time>
      </trkpt>
      <trkpt lat="45.16633" lon="5.9085">
        <ele>1539</ele>
        <time>2019-01-20T08:36:19.000Z</time>
      </trkpt>
      <trkpt lat="45.1663" lon="5.9085">
        <ele>1540</ele>
        <time>2019-01-20T08:36:20.000Z</time>
      </trkpt>
      <trkpt lat="45.1663" lon="5.9085">
        <ele>1540</ele>
        <time>2019-01-20T08:36:21.000Z</time>
      </trkpt>
      <trkpt lat="45.16627" lon="5.9085">
        <ele>1540</ele>
        <time>2019-01-20T08:36:22.000Z</time>
      </trkpt>
      <trkpt lat="45.16627" lon="5.9085">
        <ele>1540</ele>
        <time>2019-01-20T08:36:23.000Z</time>
      </trkpt>
      <trkpt lat="45.16625" lon="5.9085">
        <ele>1540</ele>
        <time>2019-01-20T08:36:24.000Z</time>
      </trkpt>
      <trkpt lat="45.16625" lon="5.9085">
        <ele>1540</ele>
        <time>2019-01-20T08:36:25.000Z</time>
      </trkpt>
      <trkpt lat="45.16623" lon="5.90849">
        <ele>1540</ele>
        <time>2019-01-20T08:36:26.000Z</time>
      </trkpt>
      <trkpt lat="45.16623" lon="5.90849">
        <ele>1541</ele>
        <time>2019-01-20T08:36:27.000Z</time>
      </trkpt>
      <trkpt lat="45.1662" lon="5.90848">
        <ele>1542</ele>
        <time>2019-01-20T08:36:28.000Z</time>
      </trkpt>
      <trkpt lat="45.1662" lon="5.90848">
        <ele>1542</ele>
        <time>2019-01-20T08:36:29.000Z</time>
      </trkpt>
      <trkpt lat="45.16618" lon="5.90848">
        <ele>1542</ele>
        <time>2019-01-20T08:36:30.000Z</time>
      </trkpt>
      <trkpt lat="45.16618" lon="5.90848">
        <ele>1542</ele>
        <time>2019-01-20T08:36:31.000Z</time>
      </trkpt>
      <trkpt lat="45.16616" lon="5.90847">
        <ele>1542</ele>
        <time>2019-01-20T08:36:32.000Z</time>
      </trkpt>
      <trkpt lat="45.16616" lon="5.90847">
        <ele>1542</ele>
        <time>2019-01-20T08:36:33.000Z</time>
      </trkpt>
      <trkpt lat="45.16613" lon="5.90847">
        <ele>1542</ele>
        <time>2019-01-20T08:36:34.000Z</time>
      </trkpt>
      <trkpt lat="45.16613" lon="5.90847">
        <ele>1543</ele>
        <time>2019-01-20T08:36:35.000Z</time>
      </trkpt>
      <trkpt lat="45.16611" lon="5.90847">
        <ele>1543</ele>
        <time>2019-01-20T08:36:36.000Z</time>
      </trkpt>
      <trkpt lat="45.1661" lon="5.90847">
        <ele>1543</ele>
        <time>2019-01-20T08:36:37.000Z</time>
      </trkpt>
      <trkpt lat="45.1661" lon="5.90847">
        <ele>1543</ele>
        <time>2019-01-20T08:36:38.000Z</time>
      </trkpt>
      <trkpt lat="45.1661" lon="5.90847">
        <ele>1543</ele>
        <time>2019-01-20T08:36:39.000Z</time>
      </trkpt>
      <trkpt lat="45.1661" lon="5.90847">
        <ele>1543</ele>
        <time>2019-01-20T08:36:40.000Z</time>
      </trkpt>
      <trkpt lat="45.16609" lon="5.90847">
        <ele>1544</ele>
        <time>2019-01-20T08:36:41.000Z</time>
      </trkpt>
      <trkpt lat="45.16609" lon="5.90846">
        <ele>1544</ele>
        <time>2019-01-20T08:36:42.000Z</time>
      </trkpt>
      <trkpt lat="45.16609" lon="5.90846">
        <ele>1544</ele>
        <time>2019-01-20T08:36:43.000Z</time>
      </trkpt>
      <trkpt lat="45.16609" lon="5.90846">
        <ele>1544</ele>
        <time>2019-01-20T08:36:44.000Z</time>
      </trkpt>
      <trkpt lat="45.166" lon="5.90844">
        <ele>1545</ele>
        <time>2019-01-20T08:36:45.000Z</time>
      </trkpt>
      <trkpt lat="45.166" lon="5.90844">
        <ele>1545</ele>
        <time>2019-01-20T08:36:46.000Z</time>
      </trkpt>
      <trkpt lat="45.16599" lon="5.90842">
        <ele>1545</ele>
        <time>2019-01-20T08:36:47.000Z</time>
      </trkpt>
      <trkpt lat="45.16599" lon="5.90842">
        <ele>1545</ele>
        <time>2019-01-20T08:36:48.000Z</time>
      </trkpt>
      <trkpt lat="45.16597" lon="5.90842">
        <ele>1545</ele>
        <time>2019-01-20T08:36:49.000Z</time>
      </trkpt>
      <trkpt lat="45.16597" lon="5.90842">
        <ele>1545.6</ele>
        <time>2019-01-20T08:36:50.000Z</time>
      </trkpt>
      <trkpt lat="45.16595" lon="5.90842">
        <ele>1546</ele>
        <time>2019-01-20T08:36:51.000Z</time>
      </trkpt>
      <trkpt lat="45.16595" lon="5.90842">
        <ele>1546</ele>
        <time>2019-01-20T08:36:52.000Z</time>
      </trkpt>
      <trkpt lat="45.16595" lon="5.90842">
        <ele>1547</ele>
        <time>2019-01-20T08:36:53.000Z</time>
      </trkpt>
      <trkpt lat="45.16595" lon="5.90842">
        <ele>1547</ele>
        <time>2019-01-20T08:36:54.000Z</time>
      </trkpt>
      <trkpt lat="45.16595" lon="5.90842">
        <ele>1547</ele>
        <time>2019-01-20T08:36:55.000Z</time>
      </trkpt>
      <trkpt lat="45.16595" lon="5.90842">
        <ele>1547</ele>
        <time>2019-01-20T08:36:56.000Z</time>
      </trkpt>
      <trkpt lat="45.16595" lon="5.90842">
        <ele>1548</ele>
        <time>2019-01-20T08:36:57.000Z</time>
      </trkpt>
      <trkpt lat="45.16589" lon="5.90837">
        <ele>1548</ele>
        <time>2019-01-20T08:36:58.000Z</time>
      </trkpt>
      <trkpt lat="45.16589" lon="5.90837">
        <ele>1549</ele>
        <time>2019-01-20T08:36:59.000Z</time>
      </trkpt>
      <trkpt lat="45.16587" lon="5.90837">
        <ele>1549</ele>
        <time>2019-01-20T08:37:00.000Z</time>
      </trkpt>
      <trkpt lat="45.16587" lon="5.90837">
        <ele>1548</ele>
        <time>2019-01-20T08:37:01.000Z</time>
      </trkpt>
      <trkpt lat="45.16587" lon="5.90837">
        <ele>1548</ele>
        <time>2019-01-20T08:37:02.000Z</time>
      </trkpt>
      <trkpt lat="45.16587" lon="5.90837">
        <ele>1548</ele>
        <time>2019-01-20T08:37:03.000Z</time>
      </trkpt>
      <trkpt lat="45.16583" lon="5.90836">
        <ele>1549</ele>
        <time>2019-01-20T08:37:04.000Z</time>
      </trkpt>
      <trkpt lat="45.16583" lon="5.90836">
        <ele>1549</ele>
        <time>2019-01-20T08:37:05.000Z</time>
      </trkpt>
      <trkpt lat="45.16583" lon="5.90836">
        <ele>1549</ele>
        <time>2019-01-20T08:37:06.000Z</time>
      </trkpt>
      <trkpt lat="45.16583" lon="5.90836">
        <ele>1549</ele>
        <time>2019-01-20T08:37:07.000Z</time>
      </trkpt>
      <trkpt lat="45.16581" lon="5.90834">
        <ele>1549</ele>
        <time>2019-01-20T08:37:08.000Z</time>
      </trkpt>
      <trkpt lat="45.16581" lon="5.90834">
        <ele>1550</ele>
        <time>2019-01-20T08:37:09.000Z</time>
      </trkpt>
      <trkpt lat="45.16581" lon="5.90834">
        <ele>1550</ele>
        <time>2019-01-20T08:37:10.000Z</time>
      </trkpt>
      <trkpt lat="45.1658" lon="5.90832">
        <ele>1550</ele>
        <time>2019-01-20T08:37:11.000Z</time>
      </trkpt>
      <trkpt lat="45.1658" lon="5.90832">
        <ele>1550</ele>
        <time>2019-01-20T08:37:12.000Z</time>
      </trkpt>
      <trkpt lat="45.16578" lon="5.90832">
        <ele>1551</ele>
        <time>2019-01-20T08:37:13.000Z</time>
      </trkpt>
      <trkpt lat="45.16578" lon="5.90832">
        <ele>1551</ele>
        <time>2019-01-20T08:37:14.000Z</time>
      </trkpt>
      <trkpt lat="45.16575" lon="5.90831">
        <ele>1551</ele>
        <time>2019-01-20T08:37:15.000Z</time>
      </trkpt>
      <trkpt lat="45.16575" lon="5.90831">
        <ele>1551</ele>
        <time>2019-01-20T08:37:16.000Z</time>
      </trkpt>
      <trkpt lat="45.16573" lon="5.9083">
        <ele>1551</ele>
        <time>2019-01-20T08:37:17.000Z</time>
      </trkpt>
      <trkpt lat="45.16573" lon="5.9083">
        <ele>1551</ele>
        <time>2019-01-20T08:37:18.000Z</time>
      </trkpt>
      <trkpt lat="45.16571" lon="5.9083">
        <ele>1552</ele>
        <time>2019-01-20T08:37:19.000Z</time>
      </trkpt>
      <trkpt lat="45.16571" lon="5.9083">
        <ele>1552</ele>
        <time>2019-01-20T08:37:20.000Z</time>
      </trkpt>
      <trkpt lat="45.16571" lon="5.9083">
        <ele>1553</ele>
        <time>2019-01-20T08:37:21.000Z</time>
      </trkpt>
      <trkpt lat="45.16568" lon="5.9083">
        <ele>1553</ele>
        <time>2019-01-20T08:37:22.000Z</time>
      </trkpt>
      <trkpt lat="45.16568" lon="5.9083">
        <ele>1553</ele>
        <time>2019-01-20T08:37:24.000Z</time>
      </trkpt>
      <trkpt lat="45.16565" lon="5.9083">
        <ele>1553</ele>
        <time>2019-01-20T08:37:25.000Z</time>
      </trkpt>
      <trkpt lat="45.16565" lon="5.9083">
        <ele>1554</ele>
        <time>2019-01-20T08:37:26.000Z</time>
      </trkpt>
      <trkpt lat="45.16564" lon="5.90829">
        <ele>1554</ele>
        <time>2019-01-20T08:37:27.000Z</time>
      </trkpt>
      <trkpt lat="45.16564" lon="5.90829">
        <ele>1554</ele>
        <time>2019-01-20T08:37:28.000Z</time>
      </trkpt>
      <trkpt lat="45.16564" lon="5.90829">
        <ele>1554</ele>
        <time>2019-01-20T08:37:29.000Z</time>
      </trkpt>
      <trkpt lat="45.16561" lon="5.90828">
        <ele>1554</ele>
        <time>2019-01-20T08:37:30.000Z</time>
      </trkpt>
      <trkpt lat="45.16561" lon="5.90828">
        <ele>1555</ele>
        <time>2019-01-20T08:37:31.000Z</time>
      </trkpt>
      <trkpt lat="45.16561" lon="5.90828">
        <ele>1556</ele>
        <time>2019-01-20T08:37:32.000Z</time>
      </trkpt>
      <trkpt lat="45.16559" lon="5.90828">
        <ele>1556</ele>
        <time>2019-01-20T08:37:33.000Z</time>
      </trkpt>
      <trkpt lat="45.16559" lon="5.90828">
        <ele>1556</ele>
        <time>2019-01-20T08:37:34.000Z</time>
      </trkpt>
      <trkpt lat="45.16559" lon="5.90828">
        <ele>1556</ele>
        <time>2019-01-20T08:37:35.000Z</time>
      </trkpt>
      <trkpt lat="45.16557" lon="5.90827">
        <ele>1556</ele>
        <time>2019-01-20T08:37:36.000Z</time>
      </trkpt>
      <trkpt lat="45.16557" lon="5.90827">
        <ele>1556</ele>
        <time>2019-01-20T08:37:37.000Z</time>
      </trkpt>
      <trkpt lat="45.16557" lon="5.90827">
        <ele>1557</ele>
        <time>2019-01-20T08:37:38.000Z</time>
      </trkpt>
      <trkpt lat="45.16554" lon="5.90826">
        <ele>1557</ele>
        <time>2019-01-20T08:37:39.000Z</time>
      </trkpt>
      <trkpt lat="45.16554" lon="5.90826">
        <ele>1558</ele>
        <time>2019-01-20T08:37:40.000Z</time>
      </trkpt>
      <trkpt lat="45.16554" lon="5.90826">
        <ele>1558</ele>
        <time>2019-01-20T08:37:41.000Z</time>
      </trkpt>
      <trkpt lat="45.16552" lon="5.90826">
        <ele>1558</ele>
        <time>2019-01-20T08:37:42.000Z</time>
      </trkpt>
      <trkpt lat="45.16552" lon="5.90826">
        <ele>1559</ele>
        <time>2019-01-20T08:37:43.000Z</time>
      </trkpt>
      <trkpt lat="45.1655" lon="5.90825">
        <ele>1559</ele>
        <time>2019-01-20T08:37:44.000Z</time>
      </trkpt>
      <trkpt lat="45.1655" lon="5.90825">
        <ele>1559</ele>
        <time>2019-01-20T08:37:45.000Z</time>
      </trkpt>
      <trkpt lat="45.16547" lon="5.90825">
        <ele>1559.6</ele>
        <time>2019-01-20T08:37:47.000Z</time>
      </trkpt>
      <trkpt lat="45.16547" lon="5.90825">
        <ele>1560</ele>
        <time>2019-01-20T08:37:48.000Z</time>
      </trkpt>
      <trkpt lat="45.16547" lon="5.90825">
        <ele>1560</ele>
        <time>2019-01-20T08:37:49.000Z</time>
      </trkpt>
      <trkpt lat="45.16545" lon="5.90824">
        <ele>1560</ele>
        <time>2019-01-20T08:37:50.000Z</time>
      </trkpt>
      <trkpt lat="45.16545" lon="5.90824">
        <ele>1560</ele>
        <time>2019-01-20T08:37:51.000Z</time>
      </trkpt>
      <trkpt lat="45.16545" lon="5.90824">
        <ele>1561</ele>
        <time>2019-01-20T08:37:52.000Z</time>
      </trkpt>
      <trkpt lat="45.16543" lon="5.90822">
        <ele>1561</ele>
        <time>2019-01-20T08:37:53.000Z</time>
      </trkpt>
      <trkpt lat="45.16543" lon="5.90822">
        <ele>1561</ele>
        <time>2019-01-20T08:37:54.000Z</time>
      </trkpt>
      <trkpt lat="45.16543" lon="5.90822">
        <ele>1562</ele>
        <time>2019-01-20T08:37:55.000Z</time>
      </trkpt>
      <trkpt lat="45.16541" lon="5.90821">
        <ele>1562</ele>
        <time>2019-01-20T08:37:56.000Z</time>
      </trkpt>
      <trkpt lat="45.16541" lon="5.90821">
        <ele>1562</ele>
        <time>2019-01-20T08:37:57.000Z</time>
      </trkpt>
      <trkpt lat="45.16541" lon="5.90821">
        <ele>1562</ele>
        <time>2019-01-20T08:37:58.000Z</time>
      </trkpt>
      <trkpt lat="45.16538" lon="5.9082">
        <ele>1563</ele>
        <time>2019-01-20T08:37:59.000Z</time>
      </trkpt>
      <trkpt lat="45.16538" lon="5.9082">
        <ele>1563</ele>
        <time>2019-01-20T08:38:00.000Z</time>
      </trkpt>
      <trkpt lat="45.16538" lon="5.9082">
        <ele>1563</ele>
        <time>2019-01-20T08:38:01.000Z</time>
      </trkpt>
      <trkpt lat="45.16536" lon="5.90818">
        <ele>1564</ele>
        <time>2019-01-20T08:38:02.000Z</time>
      </trkpt>
      <trkpt lat="45.16536" lon="5.90818">
        <ele>1564</ele>
        <time>2019-01-20T08:38:03.000Z</time>
      </trkpt>
      <trkpt lat="45.16536" lon="5.90818">
        <ele>1564</ele>
        <time>2019-01-20T08:38:04.000Z</time>
      </trkpt>
      <trkpt lat="45.16534" lon="5.90817">
        <ele>1564</ele>
        <time>2019-01-20T08:38:05.000Z</time>
      </trkpt>
      <trkpt lat="45.16534" lon="5.90817">
        <ele>1565</ele>
        <time>2019-01-20T08:38:06.000Z</time>
      </trkpt>
      <trkpt lat="45.16532" lon="5.90816">
        <ele>1564</ele>
        <time>2019-01-20T08:38:07.000Z</time>
      </trkpt>
      <trkpt lat="45.16532" lon="5.90816">
        <ele>1564</ele>
        <time>2019-01-20T08:38:08.000Z</time>
      </trkpt>
      <trkpt lat="45.1653" lon="5.90815">
        <ele>1564</ele>
        <time>2019-01-20T08:38:09.000Z</time>
      </trkpt>
      <trkpt lat="45.1653" lon="5.90815">
        <ele>1564</ele>
        <time>2019-01-20T08:38:10.000Z</time>
      </trkpt>
      <trkpt lat="45.16527" lon="5.90814">
        <ele>1565</ele>
        <time>2019-01-20T08:38:11.000Z</time>
      </trkpt>
      <trkpt lat="45.16527" lon="5.90814">
        <ele>1565</ele>
        <time>2019-01-20T08:38:12.000Z</time>
      </trkpt>
      <trkpt lat="45.16527" lon="5.90814">
        <ele>1565</ele>
        <time>2019-01-20T08:38:13.000Z</time>
      </trkpt>
      <trkpt lat="45.16525" lon="5.90812">
        <ele>1565</ele>
        <time>2019-01-20T08:38:14.000Z</time>
      </trkpt>
      <trkpt lat="45.16525" lon="5.90812">
        <ele>1565</ele>
        <time>2019-01-20T08:38:15.000Z</time>
      </trkpt>
      <trkpt lat="45.16523" lon="5.9081">
        <ele>1565</ele>
        <time>2019-01-20T08:38:16.000Z</time>
      </trkpt>
      <trkpt lat="45.16523" lon="5.9081">
        <ele>1565</ele>
        <time>2019-01-20T08:38:17.000Z</time>
      </trkpt>
      <trkpt lat="45.16521" lon="5.90808">
        <ele>1565</ele>
        <time>2019-01-20T08:38:18.000Z</time>
      </trkpt>
      <trkpt lat="45.16521" lon="5.90808">
        <ele>1565</ele>
        <time>2019-01-20T08:38:19.000Z</time>
      </trkpt>
      <trkpt lat="45.16519" lon="5.90807">
        <ele>1565</ele>
        <time>2019-01-20T08:38:20.000Z</time>
      </trkpt>
      <trkpt lat="45.16519" lon="5.90807">
        <ele>1566</ele>
        <time>2019-01-20T08:38:21.000Z</time>
      </trkpt>
      <trkpt lat="45.16517" lon="5.90805">
        <ele>1566</ele>
        <time>2019-01-20T08:38:22.000Z</time>
      </trkpt>
      <trkpt lat="45.16517" lon="5.90805">
        <ele>1566</ele>
        <time>2019-01-20T08:38:23.000Z</time>
      </trkpt>
      <trkpt lat="45.16515" lon="5.90803">
        <ele>1566</ele>
        <time>2019-01-20T08:38:24.000Z</time>
      </trkpt>
      <trkpt lat="45.16515" lon="5.90803">
        <ele>1566</ele>
        <time>2019-01-20T08:38:25.000Z</time>
      </trkpt>
      <trkpt lat="45.16513" lon="5.90801">
        <ele>1566</ele>
        <time>2019-01-20T08:38:26.000Z</time>
      </trkpt>
      <trkpt lat="45.16513" lon="5.90801">
        <ele>1567</ele>
        <time>2019-01-20T08:38:27.000Z</time>
      </trkpt>
      <trkpt lat="45.16511" lon="5.908">
        <ele>1567</ele>
        <time>2019-01-20T08:38:28.000Z</time>
      </trkpt>
      <trkpt lat="45.16511" lon="5.908">
        <ele>1567</ele>
        <time>2019-01-20T08:38:29.000Z</time>
      </trkpt>
      <trkpt lat="45.16509" lon="5.908">
        <ele>1567</ele>
        <time>2019-01-20T08:38:30.000Z</time>
      </trkpt>
      <trkpt lat="45.16509" lon="5.908">
        <ele>1567</ele>
        <time>2019-01-20T08:38:31.000Z</time>
      </trkpt>
      <trkpt lat="45.16506" lon="5.90799">
        <ele>1568</ele>
        <time>2019-01-20T08:38:32.000Z</time>
      </trkpt>
      <trkpt lat="45.16506" lon="5.90799">
        <ele>1568</ele>
        <time>2019-01-20T08:38:33.000Z</time>
      </trkpt>
      <trkpt lat="45.16504" lon="5.90798">
        <ele>1568</ele>
        <time>2019-01-20T08:38:34.000Z</time>
      </trkpt>
      <trkpt lat="45.16504" lon="5.90798">
        <ele>1568</ele>
        <time>2019-01-20T08:38:35.000Z</time>
      </trkpt>
      <trkpt lat="45.16502" lon="5.90797">
        <ele>1568</ele>
        <time>2019-01-20T08:38:36.000Z</time>
      </trkpt>
      <trkpt lat="45.16502" lon="5.90797">
        <ele>1568</ele>
        <time>2019-01-20T08:38:37.000Z</time>
      </trkpt>
      <trkpt lat="45.165" lon="5.90795">
        <ele>1568</ele>
        <time>2019-01-20T08:38:38.000Z</time>
      </trkpt>
      <trkpt lat="45.165" lon="5.90795">
        <ele>1568</ele>
        <time>2019-01-20T08:38:39.000Z</time>
      </trkpt>
      <trkpt lat="45.16497" lon="5.90794">
        <ele>1569</ele>
        <time>2019-01-20T08:38:40.000Z</time>
      </trkpt>
      <trkpt lat="45.16497" lon="5.90794">
        <ele>1569</ele>
        <time>2019-01-20T08:38:41.000Z</time>
      </trkpt>
      <trkpt lat="45.16495" lon="5.90793">
        <ele>1569</ele>
        <time>2019-01-20T08:38:42.000Z</time>
      </trkpt>
      <trkpt lat="45.16493" lon="5.90792">
        <ele>1569</ele>
        <time>2019-01-20T08:38:44.000Z</time>
      </trkpt>
      <trkpt lat="45.16493" lon="5.90792">
        <ele>1569</ele>
        <time>2019-01-20T08:38:45.000Z</time>
      </trkpt>
      <trkpt lat="45.16491" lon="5.9079">
        <ele>1570</ele>
        <time>2019-01-20T08:38:46.000Z</time>
      </trkpt>
      <trkpt lat="45.16491" lon="5.9079">
        <ele>1570</ele>
        <time>2019-01-20T08:38:47.000Z</time>
      </trkpt>
      <trkpt lat="45.16489" lon="5.90788">
        <ele>1570</ele>
        <time>2019-01-20T08:38:48.000Z</time>
      </trkpt>
      <trkpt lat="45.16489" lon="5.90788">
        <ele>1570</ele>
        <time>2019-01-20T08:38:49.000Z</time>
      </trkpt>
      <trkpt lat="45.16487" lon="5.90787">
        <ele>1570</ele>
        <time>2019-01-20T08:38:50.000Z</time>
      </trkpt>
      <trkpt lat="45.16487" lon="5.90787">
        <ele>1571</ele>
        <time>2019-01-20T08:38:51.000Z</time>
      </trkpt>
      <trkpt lat="45.16485" lon="5.90788">
        <ele>1571</ele>
        <time>2019-01-20T08:38:52.000Z</time>
      </trkpt>
      <trkpt lat="45.16485" lon="5.90788">
        <ele>1571</ele>
        <time>2019-01-20T08:38:53.000Z</time>
      </trkpt>
      <trkpt lat="45.16482" lon="5.90787">
        <ele>1571</ele>
        <time>2019-01-20T08:38:54.000Z</time>
      </trkpt>
      <trkpt lat="45.16482" lon="5.90787">
        <ele>1571</ele>
        <time>2019-01-20T08:38:55.000Z</time>
      </trkpt>
      <trkpt lat="45.16479" lon="5.90786">
        <ele>1571</ele>
        <time>2019-01-20T08:38:56.000Z</time>
      </trkpt>
      <trkpt lat="45.16479" lon="5.90786">
        <ele>1572</ele>
        <time>2019-01-20T08:38:57.000Z</time>
      </trkpt>
      <trkpt lat="45.16478" lon="5.90785">
        <ele>1572</ele>
        <time>2019-01-20T08:38:58.000Z</time>
      </trkpt>
      <trkpt lat="45.16478" lon="5.90785">
        <ele>1572</ele>
        <time>2019-01-20T08:38:59.000Z</time>
      </trkpt>
      <trkpt lat="45.16475" lon="5.90785">
        <ele>1573</ele>
        <time>2019-01-20T08:39:00.000Z</time>
      </trkpt>
      <trkpt lat="45.16475" lon="5.90785">
        <ele>1573</ele>
        <time>2019-01-20T08:39:02.000Z</time>
      </trkpt>
      <trkpt lat="45.16472" lon="5.90785">
        <ele>1573.6</ele>
        <time>2019-01-20T08:39:03.000Z</time>
      </trkpt>
      <trkpt lat="45.16472" lon="5.90785">
        <ele>1574</ele>
        <time>2019-01-20T08:39:04.000Z</time>
      </trkpt>
      <trkpt lat="45.1647" lon="5.90783">
        <ele>1574</ele>
        <time>2019-01-20T08:39:05.000Z</time>
      </trkpt>
      <trkpt lat="45.1647" lon="5.90783">
        <ele>1574</ele>
        <time>2019-01-20T08:39:06.000Z</time>
      </trkpt>
      <trkpt lat="45.16468" lon="5.90782">
        <ele>1574</ele>
        <time>2019-01-20T08:39:07.000Z</time>
      </trkpt>
      <trkpt lat="45.16468" lon="5.90782">
        <ele>1574</ele>
        <time>2019-01-20T08:39:08.000Z</time>
      </trkpt>
      <trkpt lat="45.16466" lon="5.90782">
        <ele>1574</ele>
        <time>2019-01-20T08:39:09.000Z</time>
      </trkpt>
      <trkpt lat="45.16466" lon="5.90782">
        <ele>1574</ele>
        <time>2019-01-20T08:39:10.000Z</time>
      </trkpt>
      <trkpt lat="45.16466" lon="5.90782">
        <ele>1574</ele>
        <time>2019-01-20T08:39:11.000Z</time>
      </trkpt>
      <trkpt lat="45.16464" lon="5.90779">
        <ele>1575</ele>
        <time>2019-01-20T08:39:12.000Z</time>
      </trkpt>
      <trkpt lat="45.16464" lon="5.90779">
        <ele>1575</ele>
        <time>2019-01-20T08:39:13.000Z</time>
      </trkpt>
      <trkpt lat="45.16464" lon="5.90779">
        <ele>1575</ele>
        <time>2019-01-20T08:39:14.000Z</time>
      </trkpt>
      <trkpt lat="45.16462" lon="5.90776">
        <ele>1576</ele>
        <time>2019-01-20T08:39:15.000Z</time>
      </trkpt>
      <trkpt lat="45.16462" lon="5.90776">
        <ele>1576</ele>
        <time>2019-01-20T08:39:16.000Z</time>
      </trkpt>
      <trkpt lat="45.1646" lon="5.90777">
        <ele>1576</ele>
        <time>2019-01-20T08:39:17.000Z</time>
      </trkpt>
      <trkpt lat="45.1646" lon="5.90777">
        <ele>1576</ele>
        <time>2019-01-20T08:39:18.000Z</time>
      </trkpt>
      <trkpt lat="45.16457" lon="5.90775">
        <ele>1576</ele>
        <time>2019-01-20T08:39:19.000Z</time>
      </trkpt>
      <trkpt lat="45.16457" lon="5.90775">
        <ele>1576</ele>
        <time>2019-01-20T08:39:20.000Z</time>
      </trkpt>
      <trkpt lat="45.16455" lon="5.90774">
        <ele>1576</ele>
        <time>2019-01-20T08:39:21.000Z</time>
      </trkpt>
      <trkpt lat="45.16455" lon="5.90774">
        <ele>1576</ele>
        <time>2019-01-20T08:39:22.000Z</time>
      </trkpt>
      <trkpt lat="45.16455" lon="5.90774">
        <ele>1575</ele>
        <time>2019-01-20T08:39:23.000Z</time>
      </trkpt>
      <trkpt lat="45.16453" lon="5.90773">
        <ele>1576</ele>
        <time>2019-01-20T08:39:24.000Z</time>
      </trkpt>
      <trkpt lat="45.16453" lon="5.90773">
        <ele>1576</ele>
        <time>2019-01-20T08:39:25.000Z</time>
      </trkpt>
      <trkpt lat="45.16451" lon="5.90771">
        <ele>1577</ele>
        <time>2019-01-20T08:39:26.000Z</time>
      </trkpt>
      <trkpt lat="45.16451" lon="5.90771">
        <ele>1577</ele>
        <time>2019-01-20T08:39:27.000Z</time>
      </trkpt>
      <trkpt lat="45.16449" lon="5.90769">
        <ele>1577</ele>
        <time>2019-01-20T08:39:28.000Z</time>
      </trkpt>
      <trkpt lat="45.16449" lon="5.90769">
        <ele>1578</ele>
        <time>2019-01-20T08:39:29.000Z</time>
      </trkpt>
      <trkpt lat="45.16448" lon="5.90767">
        <ele>1578</ele>
        <time>2019-01-20T08:39:30.000Z</time>
      </trkpt>
      <trkpt lat="45.16448" lon="5.90767">
        <ele>1578</ele>
        <time>2019-01-20T08:39:31.000Z</time>
      </trkpt>
      <trkpt lat="45.16445" lon="5.90765">
        <ele>1578</ele>
        <time>2019-01-20T08:39:32.000Z</time>
      </trkpt>
      <trkpt lat="45.16445" lon="5.90765">
        <ele>1578</ele>
        <time>2019-01-20T08:39:33.000Z</time>
      </trkpt>
      <trkpt lat="45.16443" lon="5.90764">
        <ele>1578</ele>
        <time>2019-01-20T08:39:34.000Z</time>
      </trkpt>
      <trkpt lat="45.16443" lon="5.90764">
        <ele>1578</ele>
        <time>2019-01-20T08:39:35.000Z</time>
      </trkpt>
      <trkpt lat="45.16441" lon="5.90763">
        <ele>1578</ele>
        <time>2019-01-20T08:39:36.000Z</time>
      </trkpt>
      <trkpt lat="45.16441" lon="5.90763">
        <ele>1578</ele>
        <time>2019-01-20T08:39:37.000Z</time>
      </trkpt>
      <trkpt lat="45.16438" lon="5.90764">
        <ele>1579</ele>
        <time>2019-01-20T08:39:38.000Z</time>
      </trkpt>
      <trkpt lat="45.16438" lon="5.90764">
        <ele>1579</ele>
        <time>2019-01-20T08:39:39.000Z</time>
      </trkpt>
      <trkpt lat="45.16436" lon="5.90764">
        <ele>1579</ele>
        <time>2019-01-20T08:39:40.000Z</time>
      </trkpt>
      <trkpt lat="45.16436" lon="5.90764">
        <ele>1579.6</ele>
        <time>2019-01-20T08:39:41.000Z</time>
      </trkpt>
      <trkpt lat="45.16433" lon="5.90763">
        <ele>1580</ele>
        <time>2019-01-20T08:39:42.000Z</time>
      </trkpt>
      <trkpt lat="45.16433" lon="5.90763">
        <ele>1580</ele>
        <time>2019-01-20T08:39:43.000Z</time>
      </trkpt>
      <trkpt lat="45.16431" lon="5.90762">
        <ele>1580</ele>
        <time>2019-01-20T08:39:44.000Z</time>
      </trkpt>
      <trkpt lat="45.16431" lon="5.90762">
        <ele>1581</ele>
        <time>2019-01-20T08:39:45.000Z</time>
      </trkpt>
      <trkpt lat="45.16429" lon="5.90763">
        <ele>1581</ele>
        <time>2019-01-20T08:39:46.000Z</time>
      </trkpt>
      <trkpt lat="45.16429" lon="5.90763">
        <ele>1581</ele>
        <time>2019-01-20T08:39:47.000Z</time>
      </trkpt>
      <trkpt lat="45.16426" lon="5.90763">
        <ele>1581</ele>
        <time>2019-01-20T08:39:48.000Z</time>
      </trkpt>
      <trkpt lat="45.16426" lon="5.90763">
        <ele>1582</ele>
        <time>2019-01-20T08:39:49.000Z</time>
      </trkpt>
      <trkpt lat="45.16424" lon="5.90763">
        <ele>1582</ele>
        <time>2019-01-20T08:39:50.000Z</time>
      </trkpt>
      <trkpt lat="45.16424" lon="5.90763">
        <ele>1583</ele>
        <time>2019-01-20T08:39:51.000Z</time>
      </trkpt>
      <trkpt lat="45.16423" lon="5.90763">
        <ele>1583</ele>
        <time>2019-01-20T08:39:52.000Z</time>
      </trkpt>
      <trkpt lat="45.16423" lon="5.90763">
        <ele>1583</ele>
        <time>2019-01-20T08:39:53.000Z</time>
      </trkpt>
      <trkpt lat="45.16423" lon="5.90763">
        <ele>1583</ele>
        <time>2019-01-20T08:39:54.000Z</time>
      </trkpt>
      <trkpt lat="45.16423" lon="5.90763">
        <ele>1583</ele>
        <time>2019-01-20T08:39:55.000Z</time>
      </trkpt>
      <trkpt lat="45.16421" lon="5.90764">
        <ele>1583</ele>
        <time>2019-01-20T08:39:56.000Z</time>
      </trkpt>
      <trkpt lat="45.16421" lon="5.90764">
        <ele>1583</ele>
        <time>2019-01-20T08:39:57.000Z</time>
      </trkpt>
      <trkpt lat="45.1642" lon="5.90766">
        <ele>1584</ele>
        <time>2019-01-20T08:39:58.000Z</time>
      </trkpt>
      <trkpt lat="45.16419" lon="5.90768">
        <ele>1584</ele>
        <time>2019-01-20T08:40:00.000Z</time>
      </trkpt>
      <trkpt lat="45.16419" lon="5.90768">
        <ele>1584</ele>
        <time>2019-01-20T08:40:01.000Z</time>
      </trkpt>
      <trkpt lat="45.16418" lon="5.9077">
        <ele>1584</ele>
        <time>2019-01-20T08:40:02.000Z</time>
      </trkpt>
      <trkpt lat="45.16418" lon="5.9077">
        <ele>1585</ele>
        <time>2019-01-20T08:40:03.000Z</time>
      </trkpt>
      <trkpt lat="45.16418" lon="5.9077">
        <ele>1584</ele>
        <time>2019-01-20T08:40:04.000Z</time>
      </trkpt>
      <trkpt lat="45.16418" lon="5.90773">
        <ele>1584</ele>
        <time>2019-01-20T08:40:05.000Z</time>
      </trkpt>
      <trkpt lat="45.16418" lon="5.90773">
        <ele>1584</ele>
        <time>2019-01-20T08:40:06.000Z</time>
      </trkpt>
      <trkpt lat="45.16418" lon="5.90773">
        <ele>1585</ele>
        <time>2019-01-20T08:40:07.000Z</time>
      </trkpt>
      <trkpt lat="45.16418" lon="5.90777">
        <ele>1585</ele>
        <time>2019-01-20T08:40:08.000Z</time>
      </trkpt>
      <trkpt lat="45.16418" lon="5.90777">
        <ele>1586</ele>
        <time>2019-01-20T08:40:09.000Z</time>
      </trkpt>
      <trkpt lat="45.16418" lon="5.90777">
        <ele>1586</ele>
        <time>2019-01-20T08:40:10.000Z</time>
      </trkpt>
      <trkpt lat="45.16417" lon="5.90781">
        <ele>1586</ele>
        <time>2019-01-20T08:40:11.000Z</time>
      </trkpt>
      <trkpt lat="45.16417" lon="5.90781">
        <ele>1587</ele>
        <time>2019-01-20T08:40:12.000Z</time>
      </trkpt>
      <trkpt lat="45.16417" lon="5.90781">
        <ele>1587</ele>
        <time>2019-01-20T08:40:13.000Z</time>
      </trkpt>
      <trkpt lat="45.16418" lon="5.90784">
        <ele>1587</ele>
        <time>2019-01-20T08:40:14.000Z</time>
      </trkpt>
      <trkpt lat="45.16418" lon="5.90784">
        <ele>1587</ele>
        <time>2019-01-20T08:40:15.000Z</time>
      </trkpt>
      <trkpt lat="45.16418" lon="5.90784">
        <ele>1587</ele>
        <time>2019-01-20T08:40:16.000Z</time>
      </trkpt>
      <trkpt lat="45.1642" lon="5.90786">
        <ele>1588</ele>
        <time>2019-01-20T08:40:17.000Z</time>
      </trkpt>
      <trkpt lat="45.1642" lon="5.90786">
        <ele>1588</ele>
        <time>2019-01-20T08:40:19.000Z</time>
      </trkpt>
      <trkpt lat="45.1642" lon="5.90786">
        <ele>1588</ele>
        <time>2019-01-20T08:40:20.000Z</time>
      </trkpt>
      <trkpt lat="45.16421" lon="5.90788">
        <ele>1589</ele>
        <time>2019-01-20T08:40:21.000Z</time>
      </trkpt>
      <trkpt lat="45.16421" lon="5.90788">
        <ele>1589</ele>
        <time>2019-01-20T08:40:22.000Z</time>
      </trkpt>
      <trkpt lat="45.16422" lon="5.9079">
        <ele>1590</ele>
        <time>2019-01-20T08:40:23.000Z</time>
      </trkpt>
      <trkpt lat="45.16422" lon="5.9079">
        <ele>1590</ele>
        <time>2019-01-20T08:40:24.000Z</time>
      </trkpt>
      <trkpt lat="45.16422" lon="5.9079">
        <ele>1590</ele>
        <time>2019-01-20T08:40:25.000Z</time>
      </trkpt>
      <trkpt lat="45.16423" lon="5.90793">
        <ele>1590</ele>
        <time>2019-01-20T08:40:26.000Z</time>
      </trkpt>
      <trkpt lat="45.16423" lon="5.90793">
        <ele>1590</ele>
        <time>2019-01-20T08:40:27.000Z</time>
      </trkpt>
      <trkpt lat="45.16423" lon="5.90793">
        <ele>1590</ele>
        <time>2019-01-20T08:40:28.000Z</time>
      </trkpt>
      <trkpt lat="45.16424" lon="5.90795">
        <ele>1590</ele>
        <time>2019-01-20T08:40:29.000Z</time>
      </trkpt>
      <trkpt lat="45.16424" lon="5.90795">
        <ele>1590</ele>
        <time>2019-01-20T08:40:30.000Z</time>
      </trkpt>
      <trkpt lat="45.16426" lon="5.90796">
        <ele>1590</ele>
        <time>2019-01-20T08:40:31.000Z</time>
      </trkpt>
      <trkpt lat="45.16426" lon="5.90796">
        <ele>1591</ele>
        <time>2019-01-20T08:40:32.000Z</time>
      </trkpt>
      <trkpt lat="45.16426" lon="5.90796">
        <ele>1591</ele>
        <time>2019-01-20T08:40:33.000Z</time>
      </trkpt>
      <trkpt lat="45.16426" lon="5.90796">
        <ele>1591</ele>
        <time>2019-01-20T08:40:34.000Z</time>
      </trkpt>
      <trkpt lat="45.16426" lon="5.90796">
        <ele>1591</ele>
        <time>2019-01-20T08:40:35.000Z</time>
      </trkpt>
      <trkpt lat="45.16428" lon="5.90798">
        <ele>1591</ele>
        <time>2019-01-20T08:40:36.000Z</time>
      </trkpt>
      <trkpt lat="45.16428" lon="5.90798">
        <ele>1592</ele>
        <time>2019-01-20T08:40:38.000Z</time>
      </trkpt>
      <trkpt lat="45.1643" lon="5.90801">
        <ele>1592</ele>
        <time>2019-01-20T08:40:39.000Z</time>
      </trkpt>
      <trkpt lat="45.1643" lon="5.90801">
        <ele>1593</ele>
        <time>2019-01-20T08:40:40.000Z</time>
      </trkpt>
      <trkpt lat="45.16431" lon="5.90803">
        <ele>1594</ele>
        <time>2019-01-20T08:40:41.000Z</time>
      </trkpt>
      <trkpt lat="45.16431" lon="5.90803">
        <ele>1594</ele>
        <time>2019-01-20T08:40:42.000Z</time>
      </trkpt>
      <trkpt lat="45.16432" lon="5.90806">
        <ele>1594</ele>
        <time>2019-01-20T08:40:43.000Z</time>
      </trkpt>
      <trkpt lat="45.16432" lon="5.90806">
        <ele>1593</ele>
        <time>2019-01-20T08:40:44.000Z</time>
      </trkpt>
      <trkpt lat="45.16433" lon="5.90808">
        <ele>1593</ele>
        <time>2019-01-20T08:40:45.000Z</time>
      </trkpt>
      <trkpt lat="45.16433" lon="5.90808">
        <ele>1594</ele>
        <time>2019-01-20T08:40:46.000Z</time>
      </trkpt>
      <trkpt lat="45.16433" lon="5.90808">
        <ele>1595</ele>
        <time>2019-01-20T08:40:47.000Z</time>
      </trkpt>
      <trkpt lat="45.16435" lon="5.9081">
        <ele>1595</ele>
        <time>2019-01-20T08:40:48.000Z</time>
      </trkpt>
      <trkpt lat="45.16435" lon="5.9081">
        <ele>1595</ele>
        <time>2019-01-20T08:40:49.000Z</time>
      </trkpt>
      <trkpt lat="45.16436" lon="5.90813">
        <ele>1595</ele>
        <time>2019-01-20T08:40:50.000Z</time>
      </trkpt>
      <trkpt lat="45.16436" lon="5.90813">
        <ele>1595</ele>
        <time>2019-01-20T08:40:51.000Z</time>
      </trkpt>
      <trkpt lat="45.16437" lon="5.90815">
        <ele>1595</ele>
        <time>2019-01-20T08:40:52.000Z</time>
      </trkpt>
      <trkpt lat="45.16437" lon="5.90815">
        <ele>1595</ele>
        <time>2019-01-20T08:40:53.000Z</time>
      </trkpt>
      <trkpt lat="45.16439" lon="5.90816">
        <ele>1596</ele>
        <time>2019-01-20T08:40:54.000Z</time>
      </trkpt>
      <trkpt lat="45.16439" lon="5.90816">
        <ele>1596</ele>
        <time>2019-01-20T08:40:55.000Z</time>
      </trkpt>
      <trkpt lat="45.1644" lon="5.90819">
        <ele>1596</ele>
        <time>2019-01-20T08:40:56.000Z</time>
      </trkpt>
      <trkpt lat="45.1644" lon="5.90819">
        <ele>1596</ele>
        <time>2019-01-20T08:40:57.000Z</time>
      </trkpt>
      <trkpt lat="45.16441" lon="5.90821">
        <ele>1596</ele>
        <time>2019-01-20T08:40:58.000Z</time>
      </trkpt>
      <trkpt lat="45.16441" lon="5.90821">
        <ele>1597</ele>
        <time>2019-01-20T08:40:59.000Z</time>
      </trkpt>
      <trkpt lat="45.16442" lon="5.90823">
        <ele>1597</ele>
        <time>2019-01-20T08:41:00.000Z</time>
      </trkpt>
      <trkpt lat="45.16442" lon="5.90823">
        <ele>1597</ele>
        <time>2019-01-20T08:41:01.000Z</time>
      </trkpt>
      <trkpt lat="45.16443" lon="5.90826">
        <ele>1597</ele>
        <time>2019-01-20T08:41:02.000Z</time>
      </trkpt>
      <trkpt lat="45.16443" lon="5.90826">
        <ele>1597</ele>
        <time>2019-01-20T08:41:03.000Z</time>
      </trkpt>
      <trkpt lat="45.16443" lon="5.90829">
        <ele>1598</ele>
        <time>2019-01-20T08:41:04.000Z</time>
      </trkpt>
      <trkpt lat="45.16443" lon="5.90829">
        <ele>1599</ele>
        <time>2019-01-20T08:41:05.000Z</time>
      </trkpt>
      <trkpt lat="45.16443" lon="5.90829">
        <ele>1599</ele>
        <time>2019-01-20T08:41:06.000Z</time>
      </trkpt>
      <trkpt lat="45.16444" lon="5.90832">
        <ele>1599</ele>
        <time>2019-01-20T08:41:07.000Z</time>
      </trkpt>
      <trkpt lat="45.16444" lon="5.90832">
        <ele>1599</ele>
        <time>2019-01-20T08:41:08.000Z</time>
      </trkpt>
      <trkpt lat="45.16444" lon="5.90832">
        <ele>1599</ele>
        <time>2019-01-20T08:41:09.000Z</time>
      </trkpt>
      <trkpt lat="45.16446" lon="5.90835">
        <ele>1599</ele>
        <time>2019-01-20T08:41:10.000Z</time>
      </trkpt>
      <trkpt lat="45.16446" lon="5.90835">
        <ele>1600</ele>
        <time>2019-01-20T08:41:11.000Z</time>
      </trkpt>
      <trkpt lat="45.16447" lon="5.90837">
        <ele>1600</ele>
        <time>2019-01-20T08:41:12.000Z</time>
      </trkpt>
      <trkpt lat="45.16447" lon="5.90837">
        <ele>1601</ele>
        <time>2019-01-20T08:41:13.000Z</time>
      </trkpt>
      <trkpt lat="45.16447" lon="5.90837">
        <ele>1601</ele>
        <time>2019-01-20T08:41:14.000Z</time>
      </trkpt>
      <trkpt lat="45.16448" lon="5.9084">
        <ele>1601</ele>
        <time>2019-01-20T08:41:15.000Z</time>
      </trkpt>
      <trkpt lat="45.16448" lon="5.9084">
        <ele>1601</ele>
        <time>2019-01-20T08:41:16.000Z</time>
      </trkpt>
      <trkpt lat="45.16448" lon="5.9084">
        <ele>1601</ele>
        <time>2019-01-20T08:41:17.000Z</time>
      </trkpt>
      <trkpt lat="45.16448" lon="5.90844">
        <ele>1601</ele>
        <time>2019-01-20T08:41:18.000Z</time>
      </trkpt>
      <trkpt lat="45.16448" lon="5.90844">
        <ele>1602</ele>
        <time>2019-01-20T08:41:19.000Z</time>
      </trkpt>
      <trkpt lat="45.16448" lon="5.90844">
        <ele>1602</ele>
        <time>2019-01-20T08:41:20.000Z</time>
      </trkpt>
      <trkpt lat="45.16448" lon="5.90848">
        <ele>1603</ele>
        <time>2019-01-20T08:41:21.000Z</time>
      </trkpt>
      <trkpt lat="45.16448" lon="5.90848">
        <ele>1603</ele>
        <time>2019-01-20T08:41:22.000Z</time>
      </trkpt>
      <trkpt lat="45.16449" lon="5.9085">
        <ele>1603</ele>
        <time>2019-01-20T08:41:23.000Z</time>
      </trkpt>
      <trkpt lat="45.16449" lon="5.9085">
        <ele>1603</ele>
        <time>2019-01-20T08:41:24.000Z</time>
      </trkpt>
      <trkpt lat="45.16449" lon="5.9085">
        <ele>1603</ele>
        <time>2019-01-20T08:41:25.000Z</time>
      </trkpt>
      <trkpt lat="45.1645" lon="5.90853">
        <ele>1603</ele>
        <time>2019-01-20T08:41:26.000Z</time>
      </trkpt>
      <trkpt lat="45.1645" lon="5.90853">
        <ele>1604</ele>
        <time>2019-01-20T08:41:27.000Z</time>
      </trkpt>
      <trkpt lat="45.1645" lon="5.90853">
        <ele>1604</ele>
        <time>2019-01-20T08:41:28.000Z</time>
      </trkpt>
      <trkpt lat="45.16451" lon="5.90855">
        <ele>1604</ele>
        <time>2019-01-20T08:41:29.000Z</time>
      </trkpt>
      <trkpt lat="45.16451" lon="5.90855">
        <ele>1605</ele>
        <time>2019-01-20T08:41:30.000Z</time>
      </trkpt>
      <trkpt lat="45.16451" lon="5.90855">
        <ele>1605</ele>
        <time>2019-01-20T08:41:31.000Z</time>
      </trkpt>
      <trkpt lat="45.16452" lon="5.90859">
        <ele>1606</ele>
        <time>2019-01-20T08:41:32.000Z</time>
      </trkpt>
      <trkpt lat="45.16452" lon="5.90859">
        <ele>1606</ele>
        <time>2019-01-20T08:41:33.000Z</time>
      </trkpt>
      <trkpt lat="45.16452" lon="5.90862">
        <ele>1606</ele>
        <time>2019-01-20T08:41:34.000Z</time>
      </trkpt>
      <trkpt lat="45.16452" lon="5.90862">
        <ele>1606</ele>
        <time>2019-01-20T08:41:35.000Z</time>
      </trkpt>
      <trkpt lat="45.16452" lon="5.90865">
        <ele>1606</ele>
        <time>2019-01-20T08:41:36.000Z</time>
      </trkpt>
      <trkpt lat="45.16452" lon="5.90865">
        <ele>1607</ele>
        <time>2019-01-20T08:41:37.000Z</time>
      </trkpt>
      <trkpt lat="45.16452" lon="5.90865">
        <ele>1607</ele>
        <time>2019-01-20T08:41:38.000Z</time>
      </trkpt>
      <trkpt lat="45.16453" lon="5.90867">
        <ele>1607</ele>
        <time>2019-01-20T08:41:39.000Z</time>
      </trkpt>
      <trkpt lat="45.16453" lon="5.90867">
        <ele>1608</ele>
        <time>2019-01-20T08:41:40.000Z</time>
      </trkpt>
      <trkpt lat="45.16453" lon="5.90867">
        <ele>1608</ele>
        <time>2019-01-20T08:41:41.000Z</time>
      </trkpt>
      <trkpt lat="45.16454" lon="5.9087">
        <ele>1608</ele>
        <time>2019-01-20T08:41:42.000Z</time>
      </trkpt>
      <trkpt lat="45.16454" lon="5.9087">
        <ele>1608</ele>
        <time>2019-01-20T08:41:44.000Z</time>
      </trkpt>
      <trkpt lat="45.16456" lon="5.90873">
        <ele>1609</ele>
        <time>2019-01-20T08:41:45.000Z</time>
      </trkpt>
      <trkpt lat="45.16456" lon="5.90873">
        <ele>1609</ele>
        <time>2019-01-20T08:41:46.000Z</time>
      </trkpt>
      <trkpt lat="45.16456" lon="5.90873">
        <ele>1609</ele>
        <time>2019-01-20T08:41:47.000Z</time>
      </trkpt>
      <trkpt lat="45.16458" lon="5.90875">
        <ele>1609</ele>
        <time>2019-01-20T08:41:48.000Z</time>
      </trkpt>
      <trkpt lat="45.16458" lon="5.90875">
        <ele>1610</ele>
        <time>2019-01-20T08:41:49.000Z</time>
      </trkpt>
      <trkpt lat="45.16458" lon="5.90875">
        <ele>1611</ele>
        <time>2019-01-20T08:41:50.000Z</time>
      </trkpt>
      <trkpt lat="45.1646" lon="5.90877">
        <ele>1611</ele>
        <time>2019-01-20T08:41:51.000Z</time>
      </trkpt>
      <trkpt lat="45.1646" lon="5.90877">
        <ele>1611</ele>
        <time>2019-01-20T08:41:52.000Z</time>
      </trkpt>
      <trkpt lat="45.16461" lon="5.90879">
        <ele>1611</ele>
        <time>2019-01-20T08:41:53.000Z</time>
      </trkpt>
      <trkpt lat="45.16461" lon="5.90879">
        <ele>1611</ele>
        <time>2019-01-20T08:41:54.000Z</time>
      </trkpt>
      <trkpt lat="45.16463" lon="5.9088">
        <ele>1611</ele>
        <time>2019-01-20T08:41:55.000Z</time>
      </trkpt>
      <trkpt lat="45.16463" lon="5.9088">
        <ele>1612</ele>
        <time>2019-01-20T08:41:56.000Z</time>
      </trkpt>
      <trkpt lat="45.16463" lon="5.9088">
        <ele>1612</ele>
        <time>2019-01-20T08:41:57.000Z</time>
      </trkpt>
      <trkpt lat="45.16464" lon="5.90883">
        <ele>1612</ele>
        <time>2019-01-20T08:41:58.000Z</time>
      </trkpt>
      <trkpt lat="45.16464" lon="5.90883">
        <ele>1613</ele>
        <time>2019-01-20T08:41:59.000Z</time>
      </trkpt>
      <trkpt lat="45.16466" lon="5.90885">
        <ele>1613</ele>
        <time>2019-01-20T08:42:00.000Z</time>
      </trkpt>
      <trkpt lat="45.16466" lon="5.90885">
        <ele>1613</ele>
        <time>2019-01-20T08:42:01.000Z</time>
      </trkpt>
      <trkpt lat="45.16467" lon="5.90888">
        <ele>1612</ele>
        <time>2019-01-20T08:42:02.000Z</time>
      </trkpt>
      <trkpt lat="45.16467" lon="5.90888">
        <ele>1612</ele>
        <time>2019-01-20T08:42:03.000Z</time>
      </trkpt>
      <trkpt lat="45.16468" lon="5.9089">
        <ele>1613</ele>
        <time>2019-01-20T08:42:04.000Z</time>
      </trkpt>
      <trkpt lat="45.16468" lon="5.9089">
        <ele>1613</ele>
        <time>2019-01-20T08:42:05.000Z</time>
      </trkpt>
      <trkpt lat="45.16469" lon="5.90892">
        <ele>1613</ele>
        <time>2019-01-20T08:42:06.000Z</time>
      </trkpt>
      <trkpt lat="45.16469" lon="5.90892">
        <ele>1613</ele>
        <time>2019-01-20T08:42:07.000Z</time>
      </trkpt>
      <trkpt lat="45.16469" lon="5.90892">
        <ele>1613</ele>
        <time>2019-01-20T08:42:08.000Z</time>
      </trkpt>
      <trkpt lat="45.1647" lon="5.90894">
        <ele>1614</ele>
        <time>2019-01-20T08:42:09.000Z</time>
      </trkpt>
      <trkpt lat="45.1647" lon="5.90894">
        <ele>1614</ele>
        <time>2019-01-20T08:42:10.000Z</time>
      </trkpt>
      <trkpt lat="45.1647" lon="5.90894">
        <ele>1615</ele>
        <time>2019-01-20T08:42:11.000Z</time>
      </trkpt>
      <trkpt lat="45.16472" lon="5.90896">
        <ele>1615</ele>
        <time>2019-01-20T08:42:12.000Z</time>
      </trkpt>
      <trkpt lat="45.16472" lon="5.90896">
        <ele>1615</ele>
        <time>2019-01-20T08:42:13.000Z</time>
      </trkpt>
      <trkpt lat="45.16472" lon="5.90896">
        <ele>1615</ele>
        <time>2019-01-20T08:42:14.000Z</time>
      </trkpt>
      <trkpt lat="45.16473" lon="5.90898">
        <ele>1615</ele>
        <time>2019-01-20T08:42:15.000Z</time>
      </trkpt>
      <trkpt lat="45.16473" lon="5.90898">
        <ele>1615</ele>
        <time>2019-01-20T08:42:16.000Z</time>
      </trkpt>
      <trkpt lat="45.16473" lon="5.90901">
        <ele>1615</ele>
        <time>2019-01-20T08:42:17.000Z</time>
      </trkpt>
      <trkpt lat="45.16473" lon="5.90901">
        <ele>1615</ele>
        <time>2019-01-20T08:42:18.000Z</time>
      </trkpt>
      <trkpt lat="45.16474" lon="5.90903">
        <ele>1615</ele>
        <time>2019-01-20T08:42:19.000Z</time>
      </trkpt>
      <trkpt lat="45.16474" lon="5.90903">
        <ele>1616</ele>
        <time>2019-01-20T08:42:20.000Z</time>
      </trkpt>
      <trkpt lat="45.16474" lon="5.90906">
        <ele>1616</ele>
        <time>2019-01-20T08:42:21.000Z</time>
      </trkpt>
      <trkpt lat="45.16474" lon="5.90906">
        <ele>1616</ele>
        <time>2019-01-20T08:42:22.000Z</time>
      </trkpt>
      <trkpt lat="45.16474" lon="5.90906">
        <ele>1617</ele>
        <time>2019-01-20T08:42:23.000Z</time>
      </trkpt>
      <trkpt lat="45.16475" lon="5.90909">
        <ele>1617</ele>
        <time>2019-01-20T08:42:24.000Z</time>
      </trkpt>
      <trkpt lat="45.16475" lon="5.90909">
        <ele>1617</ele>
        <time>2019-01-20T08:42:25.000Z</time>
      </trkpt>
      <trkpt lat="45.16475" lon="5.90909">
        <ele>1617</ele>
        <time>2019-01-20T08:42:26.000Z</time>
      </trkpt>
      <trkpt lat="45.16477" lon="5.90912">
        <ele>1617</ele>
        <time>2019-01-20T08:42:27.000Z</time>
      </trkpt>
      <trkpt lat="45.16477" lon="5.90912">
        <ele>1618</ele>
        <time>2019-01-20T08:42:28.000Z</time>
      </trkpt>
      <trkpt lat="45.16477" lon="5.90912">
        <ele>1618</ele>
        <time>2019-01-20T08:42:29.000Z</time>
      </trkpt>
      <trkpt lat="45.16477" lon="5.90915">
        <ele>1619</ele>
        <time>2019-01-20T08:42:30.000Z</time>
      </trkpt>
      <trkpt lat="45.16477" lon="5.90915">
        <ele>1619</ele>
        <time>2019-01-20T08:42:32.000Z</time>
      </trkpt>
      <trkpt lat="45.16478" lon="5.90918">
        <ele>1619</ele>
        <time>2019-01-20T08:42:33.000Z</time>
      </trkpt>
      <trkpt lat="45.16478" lon="5.90918">
        <ele>1620</ele>
        <time>2019-01-20T08:42:34.000Z</time>
      </trkpt>
      <trkpt lat="45.16478" lon="5.90918">
        <ele>1620</ele>
        <time>2019-01-20T08:42:35.000Z</time>
      </trkpt>
      <trkpt lat="45.16479" lon="5.9092">
        <ele>1620</ele>
        <time>2019-01-20T08:42:36.000Z</time>
      </trkpt>
      <trkpt lat="45.16479" lon="5.9092">
        <ele>1621</ele>
        <time>2019-01-20T08:42:37.000Z</time>
      </trkpt>
      <trkpt lat="45.1648" lon="5.90923">
        <ele>1621</ele>
        <time>2019-01-20T08:42:38.000Z</time>
      </trkpt>
      <trkpt lat="45.1648" lon="5.90923">
        <ele>1621.6</ele>
        <time>2019-01-20T08:42:40.000Z</time>
      </trkpt>
      <trkpt lat="45.1648" lon="5.90926">
        <ele>1622</ele>
        <time>2019-01-20T08:42:41.000Z</time>
      </trkpt>
      <trkpt lat="45.1648" lon="5.90926">
        <ele>1621</ele>
        <time>2019-01-20T08:42:42.000Z</time>
      </trkpt>
      <trkpt lat="45.1648" lon="5.90926">
        <ele>1621</ele>
        <time>2019-01-20T08:42:43.000Z</time>
      </trkpt>
      <trkpt lat="45.16481" lon="5.9093">
        <ele>1621</ele>
        <time>2019-01-20T08:42:44.000Z</time>
      </trkpt>
      <trkpt lat="45.16481" lon="5.9093">
        <ele>1622</ele>
        <time>2019-01-20T08:42:46.000Z</time>
      </trkpt>
      <trkpt lat="45.16481" lon="5.90933">
        <ele>1622</ele>
        <time>2019-01-20T08:42:47.000Z</time>
      </trkpt>
      <trkpt lat="45.16481" lon="5.90933">
        <ele>1622</ele>
        <time>2019-01-20T08:42:48.000Z</time>
      </trkpt>
      <trkpt lat="45.16481" lon="5.90933">
        <ele>1622</ele>
        <time>2019-01-20T08:42:49.000Z</time>
      </trkpt>
      <trkpt lat="45.16482" lon="5.90936">
        <ele>1622</ele>
        <time>2019-01-20T08:42:50.000Z</time>
      </trkpt>
      <trkpt lat="45.16482" lon="5.90936">
        <ele>1622.4</ele>
        <time>2019-01-20T08:42:51.000Z</time>
      </trkpt>
      <trkpt lat="45.16482" lon="5.90938">
        <ele>1623</ele>
        <time>2019-01-20T08:42:52.000Z</time>
      </trkpt>
      <trkpt lat="45.16482" lon="5.90938">
        <ele>1624</ele>
        <time>2019-01-20T08:42:53.000Z</time>
      </trkpt>
      <trkpt lat="45.16482" lon="5.90938">
        <ele>1625</ele>
        <time>2019-01-20T08:42:54.000Z</time>
      </trkpt>
      <trkpt lat="45.16484" lon="5.90941">
        <ele>1625</ele>
        <time>2019-01-20T08:42:55.000Z</time>
      </trkpt>
      <trkpt lat="45.16484" lon="5.90941">
        <ele>1625</ele>
        <time>2019-01-20T08:42:56.000Z</time>
      </trkpt>
      <trkpt lat="45.16484" lon="5.90941">
        <ele>1626</ele>
        <time>2019-01-20T08:42:57.000Z</time>
      </trkpt>
      <trkpt lat="45.16484" lon="5.90943">
        <ele>1626</ele>
        <time>2019-01-20T08:42:58.000Z</time>
      </trkpt>
      <trkpt lat="45.16484" lon="5.90943">
        <ele>1626</ele>
        <time>2019-01-20T08:42:59.000Z</time>
      </trkpt>
      <trkpt lat="45.16484" lon="5.90943">
        <ele>1626</ele>
        <time>2019-01-20T08:43:00.000Z</time>
      </trkpt>
      <trkpt lat="45.16485" lon="5.90946">
        <ele>1626</ele>
        <time>2019-01-20T08:43:01.000Z</time>
      </trkpt>
      <trkpt lat="45.16485" lon="5.90946">
        <ele>1627</ele>
        <time>2019-01-20T08:43:02.000Z</time>
      </trkpt>
      <trkpt lat="45.16486" lon="5.90948">
        <ele>1627</ele>
        <time>2019-01-20T08:43:03.000Z</time>
      </trkpt>
      <trkpt lat="45.16486" lon="5.90948">
        <ele>1627</ele>
        <time>2019-01-20T08:43:04.000Z</time>
      </trkpt>
      <trkpt lat="45.16486" lon="5.90948">
        <ele>1627</ele>
        <time>2019-01-20T08:43:05.000Z</time>
      </trkpt>
      <trkpt lat="45.16487" lon="5.90951">
        <ele>1627</ele>
        <time>2019-01-20T08:43:06.000Z</time>
      </trkpt>
      <trkpt lat="45.16487" lon="5.90951">
        <ele>1628</ele>
        <time>2019-01-20T08:43:07.000Z</time>
      </trkpt>
      <trkpt lat="45.16487" lon="5.90951">
        <ele>1628</ele>
        <time>2019-01-20T08:43:08.000Z</time>
      </trkpt>
      <trkpt lat="45.16488" lon="5.90953">
        <ele>1628</ele>
        <time>2019-01-20T08:43:09.000Z</time>
      </trkpt>
      <trkpt lat="45.16488" lon="5.90953">
        <ele>1629</ele>
        <time>2019-01-20T08:43:10.000Z</time>
      </trkpt>
      <trkpt lat="45.16488" lon="5.90953">
        <ele>1629</ele>
        <time>2019-01-20T08:43:11.000Z</time>
      </trkpt>
      <trkpt lat="45.1649" lon="5.90956">
        <ele>1629</ele>
        <time>2019-01-20T08:43:12.000Z</time>
      </trkpt>
      <trkpt lat="45.1649" lon="5.90956">
        <ele>1629</ele>
        <time>2019-01-20T08:43:13.000Z</time>
      </trkpt>
      <trkpt lat="45.1649" lon="5.90956">
        <ele>1630</ele>
        <time>2019-01-20T08:43:14.000Z</time>
      </trkpt>
      <trkpt lat="45.16491" lon="5.90958">
        <ele>1630</ele>
        <time>2019-01-20T08:43:15.000Z</time>
      </trkpt>
      <trkpt lat="45.16491" lon="5.90958">
        <ele>1631</ele>
        <time>2019-01-20T08:43:16.000Z</time>
      </trkpt>
      <trkpt lat="45.16491" lon="5.90958">
        <ele>1631</ele>
        <time>2019-01-20T08:43:17.000Z</time>
      </trkpt>
      <trkpt lat="45.16491" lon="5.90961">
        <ele>1631</ele>
        <time>2019-01-20T08:43:18.000Z</time>
      </trkpt>
      <trkpt lat="45.16491" lon="5.90961">
        <ele>1631</ele>
        <time>2019-01-20T08:43:19.000Z</time>
      </trkpt>
      <trkpt lat="45.16491" lon="5.90961">
        <ele>1631</ele>
        <time>2019-01-20T08:43:20.000Z</time>
      </trkpt>
      <trkpt lat="45.16491" lon="5.90964">
        <ele>1631</ele>
        <time>2019-01-20T08:43:21.000Z</time>
      </trkpt>
      <trkpt lat="45.16491" lon="5.90964">
        <ele>1631</ele>
        <time>2019-01-20T08:43:22.000Z</time>
      </trkpt>
      <trkpt lat="45.16491" lon="5.90964">
        <ele>1631</ele>
        <time>2019-01-20T08:43:23.000Z</time>
      </trkpt>
      <trkpt lat="45.16492" lon="5.90966">
        <ele>1631</ele>
        <time>2019-01-20T08:43:24.000Z</time>
      </trkpt>
      <trkpt lat="45.16492" lon="5.90966">
        <ele>1632</ele>
        <time>2019-01-20T08:43:25.000Z</time>
      </trkpt>
      <trkpt lat="45.16492" lon="5.90966">
        <ele>1632</ele>
        <time>2019-01-20T08:43:26.000Z</time>
      </trkpt>
      <trkpt lat="45.16493" lon="5.90969">
        <ele>1632</ele>
        <time>2019-01-20T08:43:27.000Z</time>
      </trkpt>
      <trkpt lat="45.16493" lon="5.90969">
        <ele>1632.4</ele>
        <time>2019-01-20T08:43:29.000Z</time>
      </trkpt>
      <trkpt lat="45.16494" lon="5.90973">
        <ele>1633</ele>
        <time>2019-01-20T08:43:30.000Z</time>
      </trkpt>
      <trkpt lat="45.16494" lon="5.90973">
        <ele>1633</ele>
        <time>2019-01-20T08:43:31.000Z</time>
      </trkpt>
      <trkpt lat="45.16494" lon="5.90975">
        <ele>1634</ele>
        <time>2019-01-20T08:43:32.000Z</time>
      </trkpt>
      <trkpt lat="45.16494" lon="5.90975">
        <ele>1634</ele>
        <time>2019-01-20T08:43:33.000Z</time>
      </trkpt>
      <trkpt lat="45.16495" lon="5.90978">
        <ele>1634</ele>
        <time>2019-01-20T08:43:34.000Z</time>
      </trkpt>
      <trkpt lat="45.16495" lon="5.90978">
        <ele>1635</ele>
        <time>2019-01-20T08:43:35.000Z</time>
      </trkpt>
      <trkpt lat="45.16495" lon="5.90978">
        <ele>1635</ele>
        <time>2019-01-20T08:43:36.000Z</time>
      </trkpt>
      <trkpt lat="45.16496" lon="5.90981">
        <ele>1635</ele>
        <time>2019-01-20T08:43:37.000Z</time>
      </trkpt>
      <trkpt lat="45.16496" lon="5.90981">
        <ele>1635</ele>
        <time>2019-01-20T08:43:38.000Z</time>
      </trkpt>
      <trkpt lat="45.16496" lon="5.90981">
        <ele>1636</ele>
        <time>2019-01-20T08:43:39.000Z</time>
      </trkpt>
      <trkpt lat="45.16497" lon="5.90985">
        <ele>1636</ele>
        <time>2019-01-20T08:43:40.000Z</time>
      </trkpt>
      <trkpt lat="45.16497" lon="5.90985">
        <ele>1636</ele>
        <time>2019-01-20T08:43:41.000Z</time>
      </trkpt>
      <trkpt lat="45.16497" lon="5.90985">
        <ele>1636</ele>
        <time>2019-01-20T08:43:42.000Z</time>
      </trkpt>
      <trkpt lat="45.16498" lon="5.90988">
        <ele>1636</ele>
        <time>2019-01-20T08:43:43.000Z</time>
      </trkpt>
      <trkpt lat="45.16498" lon="5.90988">
        <ele>1637</ele>
        <time>2019-01-20T08:43:44.000Z</time>
      </trkpt>
      <trkpt lat="45.16498" lon="5.90988">
        <ele>1637</ele>
        <time>2019-01-20T08:43:45.000Z</time>
      </trkpt>
      <trkpt lat="45.16498" lon="5.90991">
        <ele>1637</ele>
        <time>2019-01-20T08:43:46.000Z</time>
      </trkpt>
      <trkpt lat="45.16499" lon="5.90994">
        <ele>1637.6</ele>
        <time>2019-01-20T08:43:48.000Z</time>
      </trkpt>
      <trkpt lat="45.16499" lon="5.90994">
        <ele>1638</ele>
        <time>2019-01-20T08:43:50.000Z</time>
      </trkpt>
      <trkpt lat="45.165" lon="5.90997">
        <ele>1638</ele>
        <time>2019-01-20T08:43:51.000Z</time>
      </trkpt>
      <trkpt lat="45.165" lon="5.90997">
        <ele>1638</ele>
        <time>2019-01-20T08:43:52.000Z</time>
      </trkpt>
      <trkpt lat="45.165" lon="5.90997">
        <ele>1639</ele>
        <time>2019-01-20T08:43:53.000Z</time>
      </trkpt>
      <trkpt lat="45.16501" lon="5.91">
        <ele>1640</ele>
        <time>2019-01-20T08:43:54.000Z</time>
      </trkpt>
      <trkpt lat="45.16501" lon="5.91">
        <ele>1640</ele>
        <time>2019-01-20T08:43:55.000Z</time>
      </trkpt>
      <trkpt lat="45.16501" lon="5.91">
        <ele>1640</ele>
        <time>2019-01-20T08:43:56.000Z</time>
      </trkpt>
      <trkpt lat="45.16503" lon="5.91003">
        <ele>1640</ele>
        <time>2019-01-20T08:43:57.000Z</time>
      </trkpt>
      <trkpt lat="45.16503" lon="5.91003">
        <ele>1640</ele>
        <time>2019-01-20T08:43:58.000Z</time>
      </trkpt>
      <trkpt lat="45.16503" lon="5.91003">
        <ele>1640</ele>
        <time>2019-01-20T08:43:59.000Z</time>
      </trkpt>
      <trkpt lat="45.16503" lon="5.91007">
        <ele>1640</ele>
        <time>2019-01-20T08:44:00.000Z</time>
      </trkpt>
      <trkpt lat="45.16503" lon="5.91007">
        <ele>1640</ele>
        <time>2019-01-20T08:44:01.000Z</time>
      </trkpt>
      <trkpt lat="45.16503" lon="5.91007">
        <ele>1641</ele>
        <time>2019-01-20T08:44:02.000Z</time>
      </trkpt>
      <trkpt lat="45.16503" lon="5.9101">
        <ele>1641</ele>
        <time>2019-01-20T08:44:03.000Z</time>
      </trkpt>
      <trkpt lat="45.16503" lon="5.9101">
        <ele>1641</ele>
        <time>2019-01-20T08:44:04.000Z</time>
      </trkpt>
      <trkpt lat="45.16503" lon="5.9101">
        <ele>1641</ele>
        <time>2019-01-20T08:44:05.000Z</time>
      </trkpt>
      <trkpt lat="45.16502" lon="5.91013">
        <ele>1641.6</ele>
        <time>2019-01-20T08:44:07.000Z</time>
      </trkpt>
      <trkpt lat="45.16502" lon="5.91013">
        <ele>1642</ele>
        <time>2019-01-20T08:44:08.000Z</time>
      </trkpt>
      <trkpt lat="45.16502" lon="5.91013">
        <ele>1643</ele>
        <time>2019-01-20T08:44:09.000Z</time>
      </trkpt>
      <trkpt lat="45.165" lon="5.91012">
        <ele>1643</ele>
        <time>2019-01-20T08:44:10.000Z</time>
      </trkpt>
      <trkpt lat="45.165" lon="5.91012">
        <ele>1643</ele>
        <time>2019-01-20T08:44:11.000Z</time>
      </trkpt>
      <trkpt lat="45.165" lon="5.91012">
        <ele>1643</ele>
        <time>2019-01-20T08:44:12.000Z</time>
      </trkpt>
      <trkpt lat="45.16499" lon="5.91009">
        <ele>1643</ele>
        <time>2019-01-20T08:44:13.000Z</time>
      </trkpt>
      <trkpt lat="45.16499" lon="5.91009">
        <ele>1643</ele>
        <time>2019-01-20T08:44:14.000Z</time>
      </trkpt>
      <trkpt lat="45.16497" lon="5.91008">
        <ele>1643</ele>
        <time>2019-01-20T08:44:15.000Z</time>
      </trkpt>
      <trkpt lat="45.16497" lon="5.91008">
        <ele>1643</ele>
        <time>2019-01-20T08:44:16.000Z</time>
      </trkpt>
      <trkpt lat="45.16495" lon="5.91007">
        <ele>1644</ele>
        <time>2019-01-20T08:44:17.000Z</time>
      </trkpt>
      <trkpt lat="45.16495" lon="5.91007">
        <ele>1644</ele>
        <time>2019-01-20T08:44:18.000Z</time>
      </trkpt>
      <trkpt lat="45.16493" lon="5.91005">
        <ele>1644</ele>
        <time>2019-01-20T08:44:19.000Z</time>
      </trkpt>
      <trkpt lat="45.16493" lon="5.91005">
        <ele>1644</ele>
        <time>2019-01-20T08:44:20.000Z</time>
      </trkpt>
      <trkpt lat="45.16491" lon="5.91003">
        <ele>1644</ele>
        <time>2019-01-20T08:44:21.000Z</time>
      </trkpt>
      <trkpt lat="45.16491" lon="5.91003">
        <ele>1644</ele>
        <time>2019-01-20T08:44:22.000Z</time>
      </trkpt>
      <trkpt lat="45.16489" lon="5.91002">
        <ele>1644</ele>
        <time>2019-01-20T08:44:23.000Z</time>
      </trkpt>
      <trkpt lat="45.16489" lon="5.91002">
        <ele>1644</ele>
        <time>2019-01-20T08:44:24.000Z</time>
      </trkpt>
      <trkpt lat="45.16488" lon="5.91">
        <ele>1644</ele>
        <time>2019-01-20T08:44:25.000Z</time>
      </trkpt>
      <trkpt lat="45.16488" lon="5.91">
        <ele>1644</ele>
        <time>2019-01-20T08:44:26.000Z</time>
      </trkpt>
      <trkpt lat="45.16486" lon="5.90999">
        <ele>1644</ele>
        <time>2019-01-20T08:44:27.000Z</time>
      </trkpt>
      <trkpt lat="45.16486" lon="5.90999">
        <ele>1644</ele>
        <time>2019-01-20T08:44:28.000Z</time>
      </trkpt>
      <trkpt lat="45.16486" lon="5.90999">
        <ele>1644</ele>
        <time>2019-01-20T08:44:29.000Z</time>
      </trkpt>
      <trkpt lat="45.16483" lon="5.90998">
        <ele>1645</ele>
        <time>2019-01-20T08:44:30.000Z</time>
      </trkpt>
      <trkpt lat="45.16483" lon="5.90998">
        <ele>1645</ele>
        <time>2019-01-20T08:44:31.000Z</time>
      </trkpt>
      <trkpt lat="45.16483" lon="5.90998">
        <ele>1645</ele>
        <time>2019-01-20T08:44:32.000Z</time>
      </trkpt>
      <trkpt lat="45.16481" lon="5.90996">
        <ele>1646</ele>
        <time>2019-01-20T08:44:33.000Z</time>
      </trkpt>
      <trkpt lat="45.16481" lon="5.90996">
        <ele>1646</ele>
        <time>2019-01-20T08:44:34.000Z</time>
      </trkpt>
      <trkpt lat="45.16479" lon="5.90995">
        <ele>1647</ele>
        <time>2019-01-20T08:44:35.000Z</time>
      </trkpt>
      <trkpt lat="45.16479" lon="5.90995">
        <ele>1647</ele>
        <time>2019-01-20T08:44:36.000Z</time>
      </trkpt>
      <trkpt lat="45.16479" lon="5.90995">
        <ele>1647</ele>
        <time>2019-01-20T08:44:37.000Z</time>
      </trkpt>
      <trkpt lat="45.16477" lon="5.90994">
        <ele>1647</ele>
        <time>2019-01-20T08:44:38.000Z</time>
      </trkpt>
      <trkpt lat="45.16477" lon="5.90994">
        <ele>1647</ele>
        <time>2019-01-20T08:44:39.000Z</time>
      </trkpt>
      <trkpt lat="45.16477" lon="5.90994">
        <ele>1648</ele>
        <time>2019-01-20T08:44:40.000Z</time>
      </trkpt>
      <trkpt lat="45.16475" lon="5.90993">
        <ele>1648</ele>
        <time>2019-01-20T08:44:41.000Z</time>
      </trkpt>
      <trkpt lat="45.16475" lon="5.90993">
        <ele>1648</ele>
        <time>2019-01-20T08:44:42.000Z</time>
      </trkpt>
      <trkpt lat="45.16473" lon="5.90992">
        <ele>1649</ele>
        <time>2019-01-20T08:44:43.000Z</time>
      </trkpt>
      <trkpt lat="45.16473" lon="5.90992">
        <ele>1649</ele>
        <time>2019-01-20T08:44:45.000Z</time>
      </trkpt>
      <trkpt lat="45.1647" lon="5.90992">
        <ele>1649</ele>
        <time>2019-01-20T08:44:46.000Z</time>
      </trkpt>
      <trkpt lat="45.1647" lon="5.90992">
        <ele>1649.6</ele>
        <time>2019-01-20T08:44:47.000Z</time>
      </trkpt>
      <trkpt lat="45.16468" lon="5.90992">
        <ele>1650</ele>
        <time>2019-01-20T08:44:48.000Z</time>
      </trkpt>
      <trkpt lat="45.16468" lon="5.90992">
        <ele>1649</ele>
        <time>2019-01-20T08:44:49.000Z</time>
      </trkpt>
      <trkpt lat="45.16466" lon="5.90993">
        <ele>1649</ele>
        <time>2019-01-20T08:44:50.000Z</time>
      </trkpt>
      <trkpt lat="45.16466" lon="5.90993">
        <ele>1649</ele>
        <time>2019-01-20T08:44:51.000Z</time>
      </trkpt>
      <trkpt lat="45.16464" lon="5.90993">
        <ele>1649</ele>
        <time>2019-01-20T08:44:52.000Z</time>
      </trkpt>
      <trkpt lat="45.16464" lon="5.90993">
        <ele>1649</ele>
        <time>2019-01-20T08:44:53.000Z</time>
      </trkpt>
      <trkpt lat="45.16464" lon="5.90993">
        <ele>1650</ele>
        <time>2019-01-20T08:44:54.000Z</time>
      </trkpt>
      <trkpt lat="45.16462" lon="5.90992">
        <ele>1650</ele>
        <time>2019-01-20T08:44:55.000Z</time>
      </trkpt>
      <trkpt lat="45.16462" lon="5.90992">
        <ele>1651</ele>
        <time>2019-01-20T08:44:56.000Z</time>
      </trkpt>
      <trkpt lat="45.16462" lon="5.90992">
        <ele>1651</ele>
        <time>2019-01-20T08:44:57.000Z</time>
      </trkpt>
      <trkpt lat="45.16459" lon="5.90992">
        <ele>1651</ele>
        <time>2019-01-20T08:44:58.000Z</time>
      </trkpt>
      <trkpt lat="45.16459" lon="5.90992">
        <ele>1652</ele>
        <time>2019-01-20T08:44:59.000Z</time>
      </trkpt>
      <trkpt lat="45.16459" lon="5.90992">
        <ele>1652</ele>
        <time>2019-01-20T08:45:00.000Z</time>
      </trkpt>
      <trkpt lat="45.16457" lon="5.90992">
        <ele>1652</ele>
        <time>2019-01-20T08:45:01.000Z</time>
      </trkpt>
      <trkpt lat="45.16457" lon="5.90992">
        <ele>1652</ele>
        <time>2019-01-20T08:45:02.000Z</time>
      </trkpt>
      <trkpt lat="45.16455" lon="5.90993">
        <ele>1653</ele>
        <time>2019-01-20T08:45:04.000Z</time>
      </trkpt>
      <trkpt lat="45.16455" lon="5.90993">
        <ele>1653</ele>
        <time>2019-01-20T08:45:05.000Z</time>
      </trkpt>
      <trkpt lat="45.16455" lon="5.90993">
        <ele>1653</ele>
        <time>2019-01-20T08:45:06.000Z</time>
      </trkpt>
      <trkpt lat="45.16453" lon="5.90994">
        <ele>1653</ele>
        <time>2019-01-20T08:45:07.000Z</time>
      </trkpt>
      <trkpt lat="45.16453" lon="5.90994">
        <ele>1653</ele>
        <time>2019-01-20T08:45:08.000Z</time>
      </trkpt>
      <trkpt lat="45.16453" lon="5.90994">
        <ele>1654</ele>
        <time>2019-01-20T08:45:09.000Z</time>
      </trkpt>
      <trkpt lat="45.16451" lon="5.90996">
        <ele>1654</ele>
        <time>2019-01-20T08:45:10.000Z</time>
      </trkpt>
      <trkpt lat="45.16451" lon="5.90996">
        <ele>1654</ele>
        <time>2019-01-20T08:45:11.000Z</time>
      </trkpt>
      <trkpt lat="45.16451" lon="5.90996">
        <ele>1655</ele>
        <time>2019-01-20T08:45:12.000Z</time>
      </trkpt>
      <trkpt lat="45.16449" lon="5.90997">
        <ele>1655</ele>
        <time>2019-01-20T08:45:13.000Z</time>
      </trkpt>
      <trkpt lat="45.16449" lon="5.90997">
        <ele>1656</ele>
        <time>2019-01-20T08:45:14.000Z</time>
      </trkpt>
      <trkpt lat="45.16449" lon="5.90997">
        <ele>1656</ele>
        <time>2019-01-20T08:45:15.000Z</time>
      </trkpt>
      <trkpt lat="45.16447" lon="5.90998">
        <ele>1657</ele>
        <time>2019-01-20T08:45:16.000Z</time>
      </trkpt>
      <trkpt lat="45.16447" lon="5.90998">
        <ele>1657</ele>
        <time>2019-01-20T08:45:17.000Z</time>
      </trkpt>
      <trkpt lat="45.16447" lon="5.90998">
        <ele>1657</ele>
        <time>2019-01-20T08:45:18.000Z</time>
      </trkpt>
      <trkpt lat="45.16445" lon="5.91">
        <ele>1657</ele>
        <time>2019-01-20T08:45:19.000Z</time>
      </trkpt>
      <trkpt lat="45.16445" lon="5.91">
        <ele>1658</ele>
        <time>2019-01-20T08:45:20.000Z</time>
      </trkpt>
      <trkpt lat="45.16445" lon="5.91">
        <ele>1658</ele>
        <time>2019-01-20T08:45:21.000Z</time>
      </trkpt>
      <trkpt lat="45.16442" lon="5.91">
        <ele>1658</ele>
        <time>2019-01-20T08:45:22.000Z</time>
      </trkpt>
      <trkpt lat="45.16442" lon="5.91">
        <ele>1658</ele>
        <time>2019-01-20T08:45:23.000Z</time>
      </trkpt>
      <trkpt lat="45.16442" lon="5.91">
        <ele>1658</ele>
        <time>2019-01-20T08:45:24.000Z</time>
      </trkpt>
      <trkpt lat="45.1644" lon="5.91001">
        <ele>1658</ele>
        <time>2019-01-20T08:45:25.000Z</time>
      </trkpt>
      <trkpt lat="45.1644" lon="5.91001">
        <ele>1658</ele>
        <time>2019-01-20T08:45:26.000Z</time>
      </trkpt>
      <trkpt lat="45.1644" lon="5.91001">
        <ele>1659</ele>
        <time>2019-01-20T08:45:27.000Z</time>
      </trkpt>
      <trkpt lat="45.16438" lon="5.91002">
        <ele>1659</ele>
        <time>2019-01-20T08:45:28.000Z</time>
      </trkpt>
      <trkpt lat="45.16438" lon="5.91002">
        <ele>1659</ele>
        <time>2019-01-20T08:45:29.000Z</time>
      </trkpt>
      <trkpt lat="45.16438" lon="5.91002">
        <ele>1660</ele>
        <time>2019-01-20T08:45:30.000Z</time>
      </trkpt>
      <trkpt lat="45.16438" lon="5.91002">
        <ele>1660</ele>
        <time>2019-01-20T08:45:31.000Z</time>
      </trkpt>
      <trkpt lat="45.16438" lon="5.91002">
        <ele>1660</ele>
        <time>2019-01-20T08:45:32.000Z</time>
      </trkpt>
      <trkpt lat="45.16436" lon="5.91003">
        <ele>1660</ele>
        <time>2019-01-20T08:45:33.000Z</time>
      </trkpt>
      <trkpt lat="45.16436" lon="5.91003">
        <ele>1660</ele>
        <time>2019-01-20T08:45:34.000Z</time>
      </trkpt>
      <trkpt lat="45.16435" lon="5.91004">
        <ele>1660</ele>
        <time>2019-01-20T08:45:35.000Z</time>
      </trkpt>
      <trkpt lat="45.16435" lon="5.91004">
        <ele>1660</ele>
        <time>2019-01-20T08:45:36.000Z</time>
      </trkpt>
      <trkpt lat="45.16433" lon="5.91006">
        <ele>1661</ele>
        <time>2019-01-20T08:45:37.000Z</time>
      </trkpt>
      <trkpt lat="45.16433" lon="5.91006">
        <ele>1661</ele>
        <time>2019-01-20T08:45:38.000Z</time>
      </trkpt>
      <trkpt lat="45.16433" lon="5.91006">
        <ele>1661</ele>
        <time>2019-01-20T08:45:39.000Z</time>
      </trkpt>
      <trkpt lat="45.16431" lon="5.91008">
        <ele>1661</ele>
        <time>2019-01-20T08:45:40.000Z</time>
      </trkpt>
      <trkpt lat="45.16431" lon="5.91008">
        <ele>1661.6</ele>
        <time>2019-01-20T08:45:42.000Z</time>
      </trkpt>
      <trkpt lat="45.1643" lon="5.9101">
        <ele>1662</ele>
        <time>2019-01-20T08:45:43.000Z</time>
      </trkpt>
      <trkpt lat="45.1643" lon="5.9101">
        <ele>1662</ele>
        <time>2019-01-20T08:45:44.000Z</time>
      </trkpt>
      <trkpt lat="45.1643" lon="5.9101">
        <ele>1662</ele>
        <time>2019-01-20T08:45:45.000Z</time>
      </trkpt>
      <trkpt lat="45.16428" lon="5.91012">
        <ele>1663</ele>
        <time>2019-01-20T08:45:46.000Z</time>
      </trkpt>
      <trkpt lat="45.16428" lon="5.91012">
        <ele>1663</ele>
        <time>2019-01-20T08:45:47.000Z</time>
      </trkpt>
      <trkpt lat="45.16428" lon="5.91012">
        <ele>1663</ele>
        <time>2019-01-20T08:45:48.000Z</time>
      </trkpt>
      <trkpt lat="45.16426" lon="5.91014">
        <ele>1663</ele>
        <time>2019-01-20T08:45:49.000Z</time>
      </trkpt>
      <trkpt lat="45.16426" lon="5.91014">
        <ele>1663</ele>
        <time>2019-01-20T08:45:50.000Z</time>
      </trkpt>
      <trkpt lat="45.16426" lon="5.91014">
        <ele>1664</ele>
        <time>2019-01-20T08:45:51.000Z</time>
      </trkpt>
      <trkpt lat="45.16425" lon="5.91016">
        <ele>1664</ele>
        <time>2019-01-20T08:45:52.000Z</time>
      </trkpt>
      <trkpt lat="45.16425" lon="5.91016">
        <ele>1664</ele>
        <time>2019-01-20T08:45:53.000Z</time>
      </trkpt>
      <trkpt lat="45.16425" lon="5.91016">
        <ele>1665</ele>
        <time>2019-01-20T08:45:55.000Z</time>
      </trkpt>
      <trkpt lat="45.16423" lon="5.91018">
        <ele>1665</ele>
        <time>2019-01-20T08:45:56.000Z</time>
      </trkpt>
      <trkpt lat="45.16423" lon="5.91018">
        <ele>1665</ele>
        <time>2019-01-20T08:45:57.000Z</time>
      </trkpt>
      <trkpt lat="45.16423" lon="5.91018">
        <ele>1666</ele>
        <time>2019-01-20T08:45:58.000Z</time>
      </trkpt>
      <trkpt lat="45.16423" lon="5.91018">
        <ele>1666</ele>
        <time>2019-01-20T08:45:59.000Z</time>
      </trkpt>
      <trkpt lat="45.16422" lon="5.9102">
        <ele>1666</ele>
        <time>2019-01-20T08:46:00.000Z</time>
      </trkpt>
      <trkpt lat="45.16422" lon="5.9102">
        <ele>1666.4</ele>
        <time>2019-01-20T08:46:01.000Z</time>
      </trkpt>
      <trkpt lat="45.16422" lon="5.9102">
        <ele>1667</ele>
        <time>2019-01-20T08:46:02.000Z</time>
      </trkpt>
      <trkpt lat="45.16422" lon="5.91023">
        <ele>1667</ele>
        <time>2019-01-20T08:46:03.000Z</time>
      </trkpt>
      <trkpt lat="45.16422" lon="5.91023">
        <ele>1667</ele>
        <time>2019-01-20T08:46:04.000Z</time>
      </trkpt>
      <trkpt lat="45.16422" lon="5.91023">
        <ele>1667</ele>
        <time>2019-01-20T08:46:05.000Z</time>
      </trkpt>
      <trkpt lat="45.16422" lon="5.91026">
        <ele>1667</ele>
        <time>2019-01-20T08:46:06.000Z</time>
      </trkpt>
      <trkpt lat="45.16422" lon="5.91026">
        <ele>1668</ele>
        <time>2019-01-20T08:46:07.000Z</time>
      </trkpt>
      <trkpt lat="45.16422" lon="5.91026">
        <ele>1668</ele>
        <time>2019-01-20T08:46:08.000Z</time>
      </trkpt>
      <trkpt lat="45.16422" lon="5.9103">
        <ele>1669</ele>
        <time>2019-01-20T08:46:09.000Z</time>
      </trkpt>
      <trkpt lat="45.16422" lon="5.9103">
        <ele>1669</ele>
        <time>2019-01-20T08:46:10.000Z</time>
      </trkpt>
      <trkpt lat="45.16422" lon="5.9103">
        <ele>1670</ele>
        <time>2019-01-20T08:46:11.000Z</time>
      </trkpt>
      <trkpt lat="45.16423" lon="5.91033">
        <ele>1670</ele>
        <time>2019-01-20T08:46:12.000Z</time>
      </trkpt>
      <trkpt lat="45.16423" lon="5.91033">
        <ele>1670</ele>
        <time>2019-01-20T08:46:13.000Z</time>
      </trkpt>
      <trkpt lat="45.16423" lon="5.91033">
        <ele>1670</ele>
        <time>2019-01-20T08:46:14.000Z</time>
      </trkpt>
      <trkpt lat="45.16423" lon="5.91033">
        <ele>1670</ele>
        <time>2019-01-20T08:46:15.000Z</time>
      </trkpt>
      <trkpt lat="45.16424" lon="5.91036">
        <ele>1671</ele>
        <time>2019-01-20T08:46:16.000Z</time>
      </trkpt>
      <trkpt lat="45.16424" lon="5.91036">
        <ele>1671</ele>
        <time>2019-01-20T08:46:17.000Z</time>
      </trkpt>
      <trkpt lat="45.16424" lon="5.91036">
        <ele>1671</ele>
        <time>2019-01-20T08:46:18.000Z</time>
      </trkpt>
      <trkpt lat="45.16426" lon="5.91038">
        <ele>1671</ele>
        <time>2019-01-20T08:46:19.000Z</time>
      </trkpt>
      <trkpt lat="45.16426" lon="5.91038">
        <ele>1671</ele>
        <time>2019-01-20T08:46:20.000Z</time>
      </trkpt>
      <trkpt lat="45.16426" lon="5.91038">
        <ele>1671</ele>
        <time>2019-01-20T08:46:21.000Z</time>
      </trkpt>
      <trkpt lat="45.16427" lon="5.9104">
        <ele>1672</ele>
        <time>2019-01-20T08:46:22.000Z</time>
      </trkpt>
      <trkpt lat="45.16427" lon="5.9104">
        <ele>1673</ele>
        <time>2019-01-20T08:46:23.000Z</time>
      </trkpt>
      <trkpt lat="45.16427" lon="5.9104">
        <ele>1673</ele>
        <time>2019-01-20T08:46:24.000Z</time>
      </trkpt>
      <trkpt lat="45.16429" lon="5.91041">
        <ele>1673</ele>
        <time>2019-01-20T08:46:25.000Z</time>
      </trkpt>
      <trkpt lat="45.16429" lon="5.91041">
        <ele>1673</ele>
        <time>2019-01-20T08:46:26.000Z</time>
      </trkpt>
      <trkpt lat="45.16429" lon="5.91041">
        <ele>1673</ele>
        <time>2019-01-20T08:46:27.000Z</time>
      </trkpt>
      <trkpt lat="45.16431" lon="5.91043">
        <ele>1674</ele>
        <time>2019-01-20T08:46:28.000Z</time>
      </trkpt>
      <trkpt lat="45.16431" lon="5.91043">
        <ele>1675</ele>
        <time>2019-01-20T08:46:29.000Z</time>
      </trkpt>
      <trkpt lat="45.16432" lon="5.91045">
        <ele>1675</ele>
        <time>2019-01-20T08:46:30.000Z</time>
      </trkpt>
      <trkpt lat="45.16432" lon="5.91045">
        <ele>1675</ele>
        <time>2019-01-20T08:46:31.000Z</time>
      </trkpt>
      <trkpt lat="45.16432" lon="5.91045">
        <ele>1675</ele>
        <time>2019-01-20T08:46:32.000Z</time>
      </trkpt>
      <trkpt lat="45.16435" lon="5.91048">
        <ele>1676</ele>
        <time>2019-01-20T08:46:33.000Z</time>
      </trkpt>
      <trkpt lat="45.16435" lon="5.91048">
        <ele>1676</ele>
        <time>2019-01-20T08:46:34.000Z</time>
      </trkpt>
      <trkpt lat="45.16435" lon="5.91048">
        <ele>1676</ele>
        <time>2019-01-20T08:46:35.000Z</time>
      </trkpt>
      <trkpt lat="45.16436" lon="5.9105">
        <ele>1676</ele>
        <time>2019-01-20T08:46:36.000Z</time>
      </trkpt>
      <trkpt lat="45.16436" lon="5.9105">
        <ele>1676</ele>
        <time>2019-01-20T08:46:37.000Z</time>
      </trkpt>
      <trkpt lat="45.16438" lon="5.91052">
        <ele>1676</ele>
        <time>2019-01-20T08:46:38.000Z</time>
      </trkpt>
      <trkpt lat="45.16438" lon="5.91052">
        <ele>1677</ele>
        <time>2019-01-20T08:46:39.000Z</time>
      </trkpt>
      <trkpt lat="45.16438" lon="5.91052">
        <ele>1677</ele>
        <time>2019-01-20T08:46:40.000Z</time>
      </trkpt>
      <trkpt lat="45.16439" lon="5.91054">
        <ele>1677</ele>
        <time>2019-01-20T08:46:41.000Z</time>
      </trkpt>
      <trkpt lat="45.16439" lon="5.91054">
        <ele>1677</ele>
        <time>2019-01-20T08:46:42.000Z</time>
      </trkpt>
      <trkpt lat="45.16439" lon="5.91054">
        <ele>1678</ele>
        <time>2019-01-20T08:46:43.000Z</time>
      </trkpt>
      <trkpt lat="45.16441" lon="5.91057">
        <ele>1678</ele>
        <time>2019-01-20T08:46:44.000Z</time>
      </trkpt>
      <trkpt lat="45.16441" lon="5.91057">
        <ele>1678</ele>
        <time>2019-01-20T08:46:45.000Z</time>
      </trkpt>
      <trkpt lat="45.16441" lon="5.91057">
        <ele>1679</ele>
        <time>2019-01-20T08:46:46.000Z</time>
      </trkpt>
      <trkpt lat="45.16442" lon="5.91059">
        <ele>1679</ele>
        <time>2019-01-20T08:46:47.000Z</time>
      </trkpt>
      <trkpt lat="45.16442" lon="5.91059">
        <ele>1679</ele>
        <time>2019-01-20T08:46:48.000Z</time>
      </trkpt>
      <trkpt lat="45.16443" lon="5.91061">
        <ele>1679</ele>
        <time>2019-01-20T08:46:49.000Z</time>
      </trkpt>
      <trkpt lat="45.16443" lon="5.91061">
        <ele>1679</ele>
        <time>2019-01-20T08:46:50.000Z</time>
      </trkpt>
      <trkpt lat="45.16445" lon="5.91063">
        <ele>1679</ele>
        <time>2019-01-20T08:46:51.000Z</time>
      </trkpt>
      <trkpt lat="45.16445" lon="5.91063">
        <ele>1680</ele>
        <time>2019-01-20T08:46:52.000Z</time>
      </trkpt>
      <trkpt lat="45.16448" lon="5.91067">
        <ele>1680</ele>
        <time>2019-01-20T08:46:53.000Z</time>
      </trkpt>
      <trkpt lat="45.16448" lon="5.91067">
        <ele>1680</ele>
        <time>2019-01-20T08:46:54.000Z</time>
      </trkpt>
      <trkpt lat="45.16449" lon="5.91069">
        <ele>1680</ele>
        <time>2019-01-20T08:46:55.000Z</time>
      </trkpt>
      <trkpt lat="45.16449" lon="5.91069">
        <ele>1680</ele>
        <time>2019-01-20T08:46:56.000Z</time>
      </trkpt>
      <trkpt lat="45.16449" lon="5.91072">
        <ele>1681</ele>
        <time>2019-01-20T08:46:58.000Z</time>
      </trkpt>
      <trkpt lat="45.16449" lon="5.91072">
        <ele>1681</ele>
        <time>2019-01-20T08:46:59.000Z</time>
      </trkpt>
      <trkpt lat="45.16449" lon="5.91072">
        <ele>1681</ele>
        <time>2019-01-20T08:47:00.000Z</time>
      </trkpt>
      <trkpt lat="45.1645" lon="5.91075">
        <ele>1681</ele>
        <time>2019-01-20T08:47:01.000Z</time>
      </trkpt>
      <trkpt lat="45.1645" lon="5.91075">
        <ele>1681</ele>
        <time>2019-01-20T08:47:02.000Z</time>
      </trkpt>
      <trkpt lat="45.1645" lon="5.91075">
        <ele>1681</ele>
        <time>2019-01-20T08:47:03.000Z</time>
      </trkpt>
      <trkpt lat="45.1645" lon="5.91075">
        <ele>1681</ele>
        <time>2019-01-20T08:47:04.000Z</time>
      </trkpt>
      <trkpt lat="45.1645" lon="5.91075">
        <ele>1681</ele>
        <time>2019-01-20T08:47:05.000Z</time>
      </trkpt>
      <trkpt lat="45.1645" lon="5.91075">
        <ele>1681</ele>
        <time>2019-01-20T08:47:06.000Z</time>
      </trkpt>
      <trkpt lat="45.1645" lon="5.91075">
        <ele>1681</ele>
        <time>2019-01-20T08:47:07.000Z</time>
      </trkpt>
      <trkpt lat="45.1645" lon="5.91075">
        <ele>1681</ele>
        <time>2019-01-20T08:47:08.000Z</time>
      </trkpt>
      <trkpt lat="45.1645" lon="5.91075">
        <ele>1681</ele>
        <time>2019-01-20T08:47:09.000Z</time>
      </trkpt>
      <trkpt lat="45.1645" lon="5.91075">
        <ele>1682</ele>
        <time>2019-01-20T08:47:10.000Z</time>
      </trkpt>
      <trkpt lat="45.1645" lon="5.91075">
        <ele>1682</ele>
        <time>2019-01-20T08:47:11.000Z</time>
      </trkpt>
      <trkpt lat="45.1645" lon="5.91075">
        <ele>1682</ele>
        <time>2019-01-20T08:47:12.000Z</time>
      </trkpt>
      <trkpt lat="45.1645" lon="5.91075">
        <ele>1682</ele>
        <time>2019-01-20T08:47:13.000Z</time>
      </trkpt>
      <trkpt lat="45.1645" lon="5.91075">
        <ele>1683</ele>
        <time>2019-01-20T08:47:14.000Z</time>
      </trkpt>
      <trkpt lat="45.1645" lon="5.91075">
        <ele>1683</ele>
        <time>2019-01-20T08:47:15.000Z</time>
      </trkpt>
      <trkpt lat="45.16449" lon="5.91077">
        <ele>1683</ele>
        <time>2019-01-20T08:47:16.000Z</time>
      </trkpt>
      <trkpt lat="45.16449" lon="5.91077">
        <ele>1683.6</ele>
        <time>2019-01-20T08:47:17.000Z</time>
      </trkpt>
      <trkpt lat="45.16449" lon="5.91077">
        <ele>1684</ele>
        <time>2019-01-20T08:47:18.000Z</time>
      </trkpt>
      <trkpt lat="45.16447" lon="5.91078">
        <ele>1684</ele>
        <time>2019-01-20T08:47:19.000Z</time>
      </trkpt>
      <trkpt lat="45.16447" lon="5.91078">
        <ele>1684</ele>
        <time>2019-01-20T08:47:20.000Z</time>
      </trkpt>
      <trkpt lat="45.16447" lon="5.91078">
        <ele>1684</ele>
        <time>2019-01-20T08:47:21.000Z</time>
      </trkpt>
      <trkpt lat="45.16444" lon="5.91079">
        <ele>1685</ele>
        <time>2019-01-20T08:47:22.000Z</time>
      </trkpt>
      <trkpt lat="45.16444" lon="5.91079">
        <ele>1685</ele>
        <time>2019-01-20T08:47:23.000Z</time>
      </trkpt>
      <trkpt lat="45.16444" lon="5.91079">
        <ele>1685</ele>
        <time>2019-01-20T08:47:24.000Z</time>
      </trkpt>
      <trkpt lat="45.16442" lon="5.9108">
        <ele>1685</ele>
        <time>2019-01-20T08:47:25.000Z</time>
      </trkpt>
      <trkpt lat="45.16442" lon="5.9108">
        <ele>1685</ele>
        <time>2019-01-20T08:47:26.000Z</time>
      </trkpt>
      <trkpt lat="45.16442" lon="5.9108">
        <ele>1685</ele>
        <time>2019-01-20T08:47:27.000Z</time>
      </trkpt>
      <trkpt lat="45.16442" lon="5.9108">
        <ele>1685</ele>
        <time>2019-01-20T08:47:28.000Z</time>
      </trkpt>
      <trkpt lat="45.16442" lon="5.9108">
        <ele>1685</ele>
        <time>2019-01-20T08:47:29.000Z</time>
      </trkpt>
      <trkpt lat="45.1644" lon="5.9108">
        <ele>1685</ele>
        <time>2019-01-20T08:47:30.000Z</time>
      </trkpt>
      <trkpt lat="45.1644" lon="5.9108">
        <ele>1685</ele>
        <time>2019-01-20T08:47:31.000Z</time>
      </trkpt>
      <trkpt lat="45.1644" lon="5.9108">
        <ele>1685</ele>
        <time>2019-01-20T08:47:32.000Z</time>
      </trkpt>
      <trkpt lat="45.16438" lon="5.91081">
        <ele>1685</ele>
        <time>2019-01-20T08:47:33.000Z</time>
      </trkpt>
      <trkpt lat="45.16438" lon="5.91081">
        <ele>1685</ele>
        <time>2019-01-20T08:47:34.000Z</time>
      </trkpt>
      <trkpt lat="45.16438" lon="5.91081">
        <ele>1686</ele>
        <time>2019-01-20T08:47:36.000Z</time>
      </trkpt>
      <trkpt lat="45.16438" lon="5.91081">
        <ele>1686</ele>
        <time>2019-01-20T08:47:37.000Z</time>
      </trkpt>
      <trkpt lat="45.16438" lon="5.91081">
        <ele>1686</ele>
        <time>2019-01-20T08:47:38.000Z</time>
      </trkpt>
      <trkpt lat="45.16438" lon="5.91081">
        <ele>1686</ele>
        <time>2019-01-20T08:47:39.000Z</time>
      </trkpt>
      <trkpt lat="45.16438" lon="5.91081">
        <ele>1687</ele>
        <time>2019-01-20T08:47:40.000Z</time>
      </trkpt>
      <trkpt lat="45.16437" lon="5.91083">
        <ele>1687</ele>
        <time>2019-01-20T08:47:41.000Z</time>
      </trkpt>
      <trkpt lat="45.16437" lon="5.91083">
        <ele>1687</ele>
        <time>2019-01-20T08:47:42.000Z</time>
      </trkpt>
      <trkpt lat="45.16437" lon="5.91083">
        <ele>1687</ele>
        <time>2019-01-20T08:47:43.000Z</time>
      </trkpt>
      <trkpt lat="45.16437" lon="5.91083">
        <ele>1687</ele>
        <time>2019-01-20T08:47:44.000Z</time>
      </trkpt>
      <trkpt lat="45.16437" lon="5.91083">
        <ele>1687</ele>
        <time>2019-01-20T08:47:45.000Z</time>
      </trkpt>
      <trkpt lat="45.16437" lon="5.91083">
        <ele>1687</ele>
        <time>2019-01-20T08:47:46.000Z</time>
      </trkpt>
      <trkpt lat="45.16437" lon="5.91083">
        <ele>1687</ele>
        <time>2019-01-20T08:47:47.000Z</time>
      </trkpt>
      <trkpt lat="45.16437" lon="5.91083">
        <ele>1687</ele>
        <time>2019-01-20T08:47:48.000Z</time>
      </trkpt>
      <trkpt lat="45.16437" lon="5.91083">
        <ele>1687</ele>
        <time>2019-01-20T08:47:49.000Z</time>
      </trkpt>
      <trkpt lat="45.16435" lon="5.91082">
        <ele>1687</ele>
        <time>2019-01-20T08:47:50.000Z</time>
      </trkpt>
      <trkpt lat="45.16435" lon="5.91082">
        <ele>1687</ele>
        <time>2019-01-20T08:47:51.000Z</time>
      </trkpt>
      <trkpt lat="45.16435" lon="5.91082">
        <ele>1687</ele>
        <time>2019-01-20T08:47:52.000Z</time>
      </trkpt>
      <trkpt lat="45.16435" lon="5.91082">
        <ele>1687</ele>
        <time>2019-01-20T08:47:53.000Z</time>
      </trkpt>
      <trkpt lat="45.16435" lon="5.91082">
        <ele>1687</ele>
        <time>2019-01-20T08:47:55.000Z</time>
      </trkpt>
      <trkpt lat="45.16433" lon="5.91081">
        <ele>1687</ele>
        <time>2019-01-20T08:47:56.000Z</time>
      </trkpt>
      <trkpt lat="45.16433" lon="5.91081">
        <ele>1688</ele>
        <time>2019-01-20T08:47:57.000Z</time>
      </trkpt>
      <trkpt lat="45.16433" lon="5.91081">
        <ele>1688</ele>
        <time>2019-01-20T08:47:58.000Z</time>
      </trkpt>
      <trkpt lat="45.16433" lon="5.91081">
        <ele>1688</ele>
        <time>2019-01-20T08:47:59.000Z</time>
      </trkpt>
      <trkpt lat="45.16431" lon="5.91081">
        <ele>1688</ele>
        <time>2019-01-20T08:48:00.000Z</time>
      </trkpt>
      <trkpt lat="45.16431" lon="5.91081">
        <ele>1688</ele>
        <time>2019-01-20T08:48:01.000Z</time>
      </trkpt>
      <trkpt lat="45.16431" lon="5.91081">
        <ele>1689</ele>
        <time>2019-01-20T08:48:02.000Z</time>
      </trkpt>
      <trkpt lat="45.16431" lon="5.91081">
        <ele>1689</ele>
        <time>2019-01-20T08:48:03.000Z</time>
      </trkpt>
      <trkpt lat="45.16429" lon="5.91081">
        <ele>1689</ele>
        <time>2019-01-20T08:48:04.000Z</time>
      </trkpt>
      <trkpt lat="45.16429" lon="5.91081">
        <ele>1689</ele>
        <time>2019-01-20T08:48:05.000Z</time>
      </trkpt>
      <trkpt lat="45.16429" lon="5.91081">
        <ele>1689</ele>
        <time>2019-01-20T08:48:06.000Z</time>
      </trkpt>
      <trkpt lat="45.16429" lon="5.91081">
        <ele>1689</ele>
        <time>2019-01-20T08:48:07.000Z</time>
      </trkpt>
      <trkpt lat="45.16429" lon="5.91081">
        <ele>1689</ele>
        <time>2019-01-20T08:48:08.000Z</time>
      </trkpt>
      <trkpt lat="45.16428" lon="5.91083">
        <ele>1689</ele>
        <time>2019-01-20T08:48:09.000Z</time>
      </trkpt>
      <trkpt lat="45.16428" lon="5.91083">
        <ele>1690</ele>
        <time>2019-01-20T08:48:10.000Z</time>
      </trkpt>
      <trkpt lat="45.16428" lon="5.91083">
        <ele>1690</ele>
        <time>2019-01-20T08:48:11.000Z</time>
      </trkpt>
      <trkpt lat="45.16428" lon="5.91083">
        <ele>1690</ele>
        <time>2019-01-20T08:48:12.000Z</time>
      </trkpt>
      <trkpt lat="45.16428" lon="5.91086">
        <ele>1690</ele>
        <time>2019-01-20T08:48:14.000Z</time>
      </trkpt>
      <trkpt lat="45.16428" lon="5.91086">
        <ele>1690</ele>
        <time>2019-01-20T08:48:15.000Z</time>
      </trkpt>
      <trkpt lat="45.16428" lon="5.91086">
        <ele>1690</ele>
        <time>2019-01-20T08:48:16.000Z</time>
      </trkpt>
      <trkpt lat="45.16428" lon="5.91086">
        <ele>1691</ele>
        <time>2019-01-20T08:48:17.000Z</time>
      </trkpt>
      <trkpt lat="45.16428" lon="5.91086">
        <ele>1691</ele>
        <time>2019-01-20T08:48:18.000Z</time>
      </trkpt>
      <trkpt lat="45.16426" lon="5.91086">
        <ele>1691</ele>
        <time>2019-01-20T08:48:19.000Z</time>
      </trkpt>
      <trkpt lat="45.16426" lon="5.91086">
        <ele>1692</ele>
        <time>2019-01-20T08:48:20.000Z</time>
      </trkpt>
      <trkpt lat="45.16424" lon="5.91088">
        <ele>1693</ele>
        <time>2019-01-20T08:48:21.000Z</time>
      </trkpt>
      <trkpt lat="45.16424" lon="5.91088">
        <ele>1693</ele>
        <time>2019-01-20T08:48:22.000Z</time>
      </trkpt>
      <trkpt lat="45.16424" lon="5.91088">
        <ele>1693</ele>
        <time>2019-01-20T08:48:23.000Z</time>
      </trkpt>
      <trkpt lat="45.16424" lon="5.91088">
        <ele>1693</ele>
        <time>2019-01-20T08:48:24.000Z</time>
      </trkpt>
      <trkpt lat="45.16424" lon="5.91088">
        <ele>1693</ele>
        <time>2019-01-20T08:48:25.000Z</time>
      </trkpt>
      <trkpt lat="45.16422" lon="5.91091">
        <ele>1694</ele>
        <time>2019-01-20T08:48:26.000Z</time>
      </trkpt>
      <trkpt lat="45.16422" lon="5.91091">
        <ele>1694</ele>
        <time>2019-01-20T08:48:27.000Z</time>
      </trkpt>
      <trkpt lat="45.16422" lon="5.91091">
        <ele>1694</ele>
        <time>2019-01-20T08:48:28.000Z</time>
      </trkpt>
      <trkpt lat="45.1642" lon="5.91092">
        <ele>1694</ele>
        <time>2019-01-20T08:48:29.000Z</time>
      </trkpt>
      <trkpt lat="45.1642" lon="5.91092">
        <ele>1694</ele>
        <time>2019-01-20T08:48:30.000Z</time>
      </trkpt>
      <trkpt lat="45.1642" lon="5.91092">
        <ele>1694</ele>
        <time>2019-01-20T08:48:31.000Z</time>
      </trkpt>
      <trkpt lat="45.1642" lon="5.91092">
        <ele>1694</ele>
        <time>2019-01-20T08:48:33.000Z</time>
      </trkpt>
      <trkpt lat="45.1642" lon="5.91092">
        <ele>1694</ele>
        <time>2019-01-20T08:48:34.000Z</time>
      </trkpt>
      <trkpt lat="45.16421" lon="5.91095">
        <ele>1695</ele>
        <time>2019-01-20T08:48:35.000Z</time>
      </trkpt>
      <trkpt lat="45.16421" lon="5.91095">
        <ele>1695</ele>
        <time>2019-01-20T08:48:36.000Z</time>
      </trkpt>
      <trkpt lat="45.16421" lon="5.91095">
        <ele>1696</ele>
        <time>2019-01-20T08:48:37.000Z</time>
      </trkpt>
      <trkpt lat="45.16423" lon="5.91098">
        <ele>1696</ele>
        <time>2019-01-20T08:48:38.000Z</time>
      </trkpt>
      <trkpt lat="45.16423" lon="5.91098">
        <ele>1697</ele>
        <time>2019-01-20T08:48:39.000Z</time>
      </trkpt>
      <trkpt lat="45.16423" lon="5.91098">
        <ele>1697</ele>
        <time>2019-01-20T08:48:40.000Z</time>
      </trkpt>
      <trkpt lat="45.16423" lon="5.911">
        <ele>1697</ele>
        <time>2019-01-20T08:48:41.000Z</time>
      </trkpt>
      <trkpt lat="45.16423" lon="5.911">
        <ele>1697</ele>
        <time>2019-01-20T08:48:42.000Z</time>
      </trkpt>
      <trkpt lat="45.16423" lon="5.911">
        <ele>1697</ele>
        <time>2019-01-20T08:48:43.000Z</time>
      </trkpt>
      <trkpt lat="45.16422" lon="5.91103">
        <ele>1697</ele>
        <time>2019-01-20T08:48:44.000Z</time>
      </trkpt>
      <trkpt lat="45.16422" lon="5.91103">
        <ele>1697.6</ele>
        <time>2019-01-20T08:48:45.000Z</time>
      </trkpt>
      <trkpt lat="45.16421" lon="5.91105">
        <ele>1698</ele>
        <time>2019-01-20T08:48:46.000Z</time>
      </trkpt>
      <trkpt lat="45.16421" lon="5.91105">
        <ele>1699</ele>
        <time>2019-01-20T08:48:47.000Z</time>
      </trkpt>
      <trkpt lat="45.16421" lon="5.91105">
        <ele>1699</ele>
        <time>2019-01-20T08:48:48.000Z</time>
      </trkpt>
      <trkpt lat="45.16421" lon="5.91108">
        <ele>1699</ele>
        <time>2019-01-20T08:48:49.000Z</time>
      </trkpt>
      <trkpt lat="45.16421" lon="5.91108">
        <ele>1700</ele>
        <time>2019-01-20T08:48:50.000Z</time>
      </trkpt>
      <trkpt lat="45.16422" lon="5.91111">
        <ele>1700</ele>
        <time>2019-01-20T08:48:52.000Z</time>
      </trkpt>
      <trkpt lat="45.16422" lon="5.91111">
        <ele>1700</ele>
        <time>2019-01-20T08:48:53.000Z</time>
      </trkpt>
      <trkpt lat="45.16422" lon="5.91111">
        <ele>1700</ele>
        <time>2019-01-20T08:48:54.000Z</time>
      </trkpt>
      <trkpt lat="45.16423" lon="5.91114">
        <ele>1701</ele>
        <time>2019-01-20T08:48:55.000Z</time>
      </trkpt>
      <trkpt lat="45.16423" lon="5.91114">
        <ele>1701</ele>
        <time>2019-01-20T08:48:56.000Z</time>
      </trkpt>
      <trkpt lat="45.16423" lon="5.91114">
        <ele>1701</ele>
        <time>2019-01-20T08:48:57.000Z</time>
      </trkpt>
      <trkpt lat="45.16423" lon="5.91114">
        <ele>1701</ele>
        <time>2019-01-20T08:48:58.000Z</time>
      </trkpt>
      <trkpt lat="45.16423" lon="5.91117">
        <ele>1702</ele>
        <time>2019-01-20T08:48:59.000Z</time>
      </trkpt>
      <trkpt lat="45.16423" lon="5.91117">
        <ele>1703</ele>
        <time>2019-01-20T08:49:00.000Z</time>
      </trkpt>
      <trkpt lat="45.16423" lon="5.91117">
        <ele>1703</ele>
        <time>2019-01-20T08:49:01.000Z</time>
      </trkpt>
      <trkpt lat="45.16423" lon="5.91117">
        <ele>1703</ele>
        <time>2019-01-20T08:49:02.000Z</time>
      </trkpt>
      <trkpt lat="45.16425" lon="5.9112">
        <ele>1703</ele>
        <time>2019-01-20T08:49:03.000Z</time>
      </trkpt>
      <trkpt lat="45.16425" lon="5.9112">
        <ele>1703</ele>
        <time>2019-01-20T08:49:04.000Z</time>
      </trkpt>
      <trkpt lat="45.16425" lon="5.9112">
        <ele>1703</ele>
        <time>2019-01-20T08:49:05.000Z</time>
      </trkpt>
      <trkpt lat="45.16425" lon="5.91123">
        <ele>1704</ele>
        <time>2019-01-20T08:49:06.000Z</time>
      </trkpt>
      <trkpt lat="45.16425" lon="5.91123">
        <ele>1704</ele>
        <time>2019-01-20T08:49:07.000Z</time>
      </trkpt>
      <trkpt lat="45.16425" lon="5.91123">
        <ele>1704</ele>
        <time>2019-01-20T08:49:08.000Z</time>
      </trkpt>
      <trkpt lat="45.16425" lon="5.91123">
        <ele>1704</ele>
        <time>2019-01-20T08:49:09.000Z</time>
      </trkpt>
      <trkpt lat="45.16425" lon="5.91125">
        <ele>1704</ele>
        <time>2019-01-20T08:49:10.000Z</time>
      </trkpt>
      <trkpt lat="45.16425" lon="5.91125">
        <ele>1704</ele>
        <time>2019-01-20T08:49:11.000Z</time>
      </trkpt>
      <trkpt lat="45.16425" lon="5.91125">
        <ele>1704</ele>
        <time>2019-01-20T08:49:12.000Z</time>
      </trkpt>
      <trkpt lat="45.16424" lon="5.91129">
        <ele>1704</ele>
        <time>2019-01-20T08:49:13.000Z</time>
      </trkpt>
      <trkpt lat="45.16424" lon="5.91129">
        <ele>1704</ele>
        <time>2019-01-20T08:49:14.000Z</time>
      </trkpt>
      <trkpt lat="45.16424" lon="5.91129">
        <ele>1704</ele>
        <time>2019-01-20T08:49:15.000Z</time>
      </trkpt>
      <trkpt lat="45.16422" lon="5.9113">
        <ele>1705</ele>
        <time>2019-01-20T08:49:16.000Z</time>
      </trkpt>
      <trkpt lat="45.16422" lon="5.9113">
        <ele>1705</ele>
        <time>2019-01-20T08:49:17.000Z</time>
      </trkpt>
      <trkpt lat="45.16422" lon="5.9113">
        <ele>1706</ele>
        <time>2019-01-20T08:49:18.000Z</time>
      </trkpt>
      <trkpt lat="45.16421" lon="5.91132">
        <ele>1706</ele>
        <time>2019-01-20T08:49:19.000Z</time>
      </trkpt>
      <trkpt lat="45.16421" lon="5.91132">
        <ele>1706</ele>
        <time>2019-01-20T08:49:20.000Z</time>
      </trkpt>
      <trkpt lat="45.16421" lon="5.91132">
        <ele>1706</ele>
        <time>2019-01-20T08:49:21.000Z</time>
      </trkpt>
      <trkpt lat="45.16419" lon="5.91134">
        <ele>1706</ele>
        <time>2019-01-20T08:49:22.000Z</time>
      </trkpt>
      <trkpt lat="45.16419" lon="5.91134">
        <ele>1707</ele>
        <time>2019-01-20T08:49:23.000Z</time>
      </trkpt>
      <trkpt lat="45.16419" lon="5.91134">
        <ele>1707</ele>
        <time>2019-01-20T08:49:24.000Z</time>
      </trkpt>
      <trkpt lat="45.16419" lon="5.91134">
        <ele>1707</ele>
        <time>2019-01-20T08:49:25.000Z</time>
      </trkpt>
      <trkpt lat="45.16419" lon="5.91134">
        <ele>1707</ele>
        <time>2019-01-20T08:49:26.000Z</time>
      </trkpt>
      <trkpt lat="45.16417" lon="5.91137">
        <ele>1707</ele>
        <time>2019-01-20T08:49:27.000Z</time>
      </trkpt>
      <trkpt lat="45.16417" lon="5.91137">
        <ele>1708</ele>
        <time>2019-01-20T08:49:28.000Z</time>
      </trkpt>
      <trkpt lat="45.16415" lon="5.91139">
        <ele>1708</ele>
        <time>2019-01-20T08:49:29.000Z</time>
      </trkpt>
      <trkpt lat="45.16415" lon="5.91139">
        <ele>1708.4</ele>
        <time>2019-01-20T08:49:30.000Z</time>
      </trkpt>
      <trkpt lat="45.16413" lon="5.9114">
        <ele>1709</ele>
        <time>2019-01-20T08:49:31.000Z</time>
      </trkpt>
      <trkpt lat="45.16413" lon="5.9114">
        <ele>1709</ele>
        <time>2019-01-20T08:49:32.000Z</time>
      </trkpt>
      <trkpt lat="45.16412" lon="5.91142">
        <ele>1710</ele>
        <time>2019-01-20T08:49:33.000Z</time>
      </trkpt>
      <trkpt lat="45.16412" lon="5.91142">
        <ele>1710</ele>
        <time>2019-01-20T08:49:34.000Z</time>
      </trkpt>
      <trkpt lat="45.16412" lon="5.91142">
        <ele>1710</ele>
        <time>2019-01-20T08:49:35.000Z</time>
      </trkpt>
      <trkpt lat="45.16411" lon="5.91145">
        <ele>1710</ele>
        <time>2019-01-20T08:49:36.000Z</time>
      </trkpt>
      <trkpt lat="45.16411" lon="5.91145">
        <ele>1710</ele>
        <time>2019-01-20T08:49:37.000Z</time>
      </trkpt>
      <trkpt lat="45.16411" lon="5.91145">
        <ele>1710</ele>
        <time>2019-01-20T08:49:38.000Z</time>
      </trkpt>
      <trkpt lat="45.16411" lon="5.91145">
        <ele>1710</ele>
        <time>2019-01-20T08:49:39.000Z</time>
      </trkpt>
      <trkpt lat="45.16411" lon="5.91145">
        <ele>1710</ele>
        <time>2019-01-20T08:49:40.000Z</time>
      </trkpt>
      <trkpt lat="45.16413" lon="5.91147">
        <ele>1710</ele>
        <time>2019-01-20T08:49:41.000Z</time>
      </trkpt>
      <trkpt lat="45.16413" lon="5.91147">
        <ele>1710</ele>
        <time>2019-01-20T08:49:42.000Z</time>
      </trkpt>
      <trkpt lat="45.16413" lon="5.91147">
        <ele>1711</ele>
        <time>2019-01-20T08:49:43.000Z</time>
      </trkpt>
      <trkpt lat="45.16413" lon="5.91147">
        <ele>1711</ele>
        <time>2019-01-20T08:49:44.000Z</time>
      </trkpt>
      <trkpt lat="45.16414" lon="5.91149">
        <ele>1711</ele>
        <time>2019-01-20T08:49:45.000Z</time>
      </trkpt>
      <trkpt lat="45.16414" lon="5.91149">
        <ele>1712</ele>
        <time>2019-01-20T08:49:46.000Z</time>
      </trkpt>
      <trkpt lat="45.16415" lon="5.91152">
        <ele>1712</ele>
        <time>2019-01-20T08:49:47.000Z</time>
      </trkpt>
      <trkpt lat="45.16415" lon="5.91152">
        <ele>1713</ele>
        <time>2019-01-20T08:49:49.000Z</time>
      </trkpt>
      <trkpt lat="45.16416" lon="5.91155">
        <ele>1713</ele>
        <time>2019-01-20T08:49:50.000Z</time>
      </trkpt>
      <trkpt lat="45.16416" lon="5.91155">
        <ele>1713</ele>
        <time>2019-01-20T08:49:51.000Z</time>
      </trkpt>
      <trkpt lat="45.16416" lon="5.91155">
        <ele>1713</ele>
        <time>2019-01-20T08:49:52.000Z</time>
      </trkpt>
      <trkpt lat="45.16417" lon="5.91158">
        <ele>1713</ele>
        <time>2019-01-20T08:49:53.000Z</time>
      </trkpt>
      <trkpt lat="45.16417" lon="5.91158">
        <ele>1713.6</ele>
        <time>2019-01-20T08:49:54.000Z</time>
      </trkpt>
      <trkpt lat="45.16418" lon="5.91161">
        <ele>1714</ele>
        <time>2019-01-20T08:49:55.000Z</time>
      </trkpt>
      <trkpt lat="45.16418" lon="5.91161">
        <ele>1714</ele>
        <time>2019-01-20T08:49:56.000Z</time>
      </trkpt>
      <trkpt lat="45.16419" lon="5.91163">
        <ele>1714</ele>
        <time>2019-01-20T08:49:57.000Z</time>
      </trkpt>
      <trkpt lat="45.16419" lon="5.91163">
        <ele>1715</ele>
        <time>2019-01-20T08:49:58.000Z</time>
      </trkpt>
      <trkpt lat="45.16419" lon="5.91163">
        <ele>1715</ele>
        <time>2019-01-20T08:49:59.000Z</time>
      </trkpt>
      <trkpt lat="45.1642" lon="5.91166">
        <ele>1716</ele>
        <time>2019-01-20T08:50:00.000Z</time>
      </trkpt>
      <trkpt lat="45.1642" lon="5.91166">
        <ele>1716</ele>
        <time>2019-01-20T08:50:01.000Z</time>
      </trkpt>
      <trkpt lat="45.16421" lon="5.91168">
        <ele>1716</ele>
        <time>2019-01-20T08:50:02.000Z</time>
      </trkpt>
      <trkpt lat="45.16421" lon="5.91168">
        <ele>1716</ele>
        <time>2019-01-20T08:50:03.000Z</time>
      </trkpt>
      <trkpt lat="45.16421" lon="5.91168">
        <ele>1716</ele>
        <time>2019-01-20T08:50:04.000Z</time>
      </trkpt>
      <trkpt lat="45.16422" lon="5.91171">
        <ele>1717</ele>
        <time>2019-01-20T08:50:05.000Z</time>
      </trkpt>
      <trkpt lat="45.16422" lon="5.91171">
        <ele>1717</ele>
        <time>2019-01-20T08:50:06.000Z</time>
      </trkpt>
      <trkpt lat="45.16423" lon="5.91174">
        <ele>1717</ele>
        <time>2019-01-20T08:50:07.000Z</time>
      </trkpt>
      <trkpt lat="45.16423" lon="5.91174">
        <ele>1717.6</ele>
        <time>2019-01-20T08:50:08.000Z</time>
      </trkpt>
      <trkpt lat="45.16424" lon="5.91177">
        <ele>1718</ele>
        <time>2019-01-20T08:50:10.000Z</time>
      </trkpt>
      <trkpt lat="45.16424" lon="5.91177">
        <ele>1718</ele>
        <time>2019-01-20T08:50:11.000Z</time>
      </trkpt>
      <trkpt lat="45.16424" lon="5.91177">
        <ele>1718</ele>
        <time>2019-01-20T08:50:12.000Z</time>
      </trkpt>
      <trkpt lat="45.16424" lon="5.9118">
        <ele>1719</ele>
        <time>2019-01-20T08:50:13.000Z</time>
      </trkpt>
      <trkpt lat="45.16424" lon="5.9118">
        <ele>1719</ele>
        <time>2019-01-20T08:50:14.000Z</time>
      </trkpt>
      <trkpt lat="45.16424" lon="5.9118">
        <ele>1719</ele>
        <time>2019-01-20T08:50:15.000Z</time>
      </trkpt>
      <trkpt lat="45.16425" lon="5.91183">
        <ele>1719</ele>
        <time>2019-01-20T08:50:16.000Z</time>
      </trkpt>
      <trkpt lat="45.16425" lon="5.91183">
        <ele>1719</ele>
        <time>2019-01-20T08:50:17.000Z</time>
      </trkpt>
      <trkpt lat="45.16425" lon="5.91183">
        <ele>1720</ele>
        <time>2019-01-20T08:50:18.000Z</time>
      </trkpt>
      <trkpt lat="45.16424" lon="5.91186">
        <ele>1720</ele>
        <time>2019-01-20T08:50:19.000Z</time>
      </trkpt>
      <trkpt lat="45.16424" lon="5.91186">
        <ele>1721</ele>
        <time>2019-01-20T08:50:20.000Z</time>
      </trkpt>
      <trkpt lat="45.16424" lon="5.91186">
        <ele>1721</ele>
        <time>2019-01-20T08:50:21.000Z</time>
      </trkpt>
      <trkpt lat="45.16424" lon="5.91186">
        <ele>1721</ele>
        <time>2019-01-20T08:50:22.000Z</time>
      </trkpt>
      <trkpt lat="45.16424" lon="5.91186">
        <ele>1721</ele>
        <time>2019-01-20T08:50:23.000Z</time>
      </trkpt>
      <trkpt lat="45.16422" lon="5.91188">
        <ele>1721</ele>
        <time>2019-01-20T08:50:24.000Z</time>
      </trkpt>
      <trkpt lat="45.16422" lon="5.91188">
        <ele>1721</ele>
        <time>2019-01-20T08:50:25.000Z</time>
      </trkpt>
      <trkpt lat="45.16421" lon="5.9119">
        <ele>1722</ele>
        <time>2019-01-20T08:50:27.000Z</time>
      </trkpt>
      <trkpt lat="45.16421" lon="5.9119">
        <ele>1722</ele>
        <time>2019-01-20T08:50:28.000Z</time>
      </trkpt>
      <trkpt lat="45.16421" lon="5.9119">
        <ele>1723</ele>
        <time>2019-01-20T08:50:29.000Z</time>
      </trkpt>
      <trkpt lat="45.16419" lon="5.91191">
        <ele>1723</ele>
        <time>2019-01-20T08:50:30.000Z</time>
      </trkpt>
      <trkpt lat="45.16419" lon="5.91191">
        <ele>1723</ele>
        <time>2019-01-20T08:50:31.000Z</time>
      </trkpt>
      <trkpt lat="45.16419" lon="5.91191">
        <ele>1724</ele>
        <time>2019-01-20T08:50:32.000Z</time>
      </trkpt>
      <trkpt lat="45.16417" lon="5.91193">
        <ele>1724</ele>
        <time>2019-01-20T08:50:33.000Z</time>
      </trkpt>
      <trkpt lat="45.16417" lon="5.91193">
        <ele>1724</ele>
        <time>2019-01-20T08:50:34.000Z</time>
      </trkpt>
      <trkpt lat="45.16417" lon="5.91193">
        <ele>1725</ele>
        <time>2019-01-20T08:50:35.000Z</time>
      </trkpt>
      <trkpt lat="45.16417" lon="5.91193">
        <ele>1725</ele>
        <time>2019-01-20T08:50:36.000Z</time>
      </trkpt>
      <trkpt lat="45.16417" lon="5.91193">
        <ele>1725</ele>
        <time>2019-01-20T08:50:37.000Z</time>
      </trkpt>
      <trkpt lat="45.16417" lon="5.91196">
        <ele>1725</ele>
        <time>2019-01-20T08:50:38.000Z</time>
      </trkpt>
      <trkpt lat="45.16417" lon="5.91196">
        <ele>1725</ele>
        <time>2019-01-20T08:50:39.000Z</time>
      </trkpt>
      <trkpt lat="45.16417" lon="5.91198">
        <ele>1726</ele>
        <time>2019-01-20T08:50:40.000Z</time>
      </trkpt>
      <trkpt lat="45.16417" lon="5.91198">
        <ele>1726</ele>
        <time>2019-01-20T08:50:41.000Z</time>
      </trkpt>
      <trkpt lat="45.16417" lon="5.91198">
        <ele>1726</ele>
        <time>2019-01-20T08:50:42.000Z</time>
      </trkpt>
      <trkpt lat="45.16417" lon="5.91202">
        <ele>1726</ele>
        <time>2019-01-20T08:50:43.000Z</time>
      </trkpt>
      <trkpt lat="45.16417" lon="5.91202">
        <ele>1726</ele>
        <time>2019-01-20T08:50:44.000Z</time>
      </trkpt>
      <trkpt lat="45.16416" lon="5.91205">
        <ele>1727</ele>
        <time>2019-01-20T08:50:46.000Z</time>
      </trkpt>
      <trkpt lat="45.16416" lon="5.91205">
        <ele>1727</ele>
        <time>2019-01-20T08:50:47.000Z</time>
      </trkpt>
      <trkpt lat="45.16416" lon="5.91205">
        <ele>1727</ele>
        <time>2019-01-20T08:50:48.000Z</time>
      </trkpt>
      <trkpt lat="45.16417" lon="5.91208">
        <ele>1728</ele>
        <time>2019-01-20T08:50:49.000Z</time>
      </trkpt>
      <trkpt lat="45.16417" lon="5.91208">
        <ele>1728</ele>
        <time>2019-01-20T08:50:50.000Z</time>
      </trkpt>
      <trkpt lat="45.16417" lon="5.91208">
        <ele>1728</ele>
        <time>2019-01-20T08:50:51.000Z</time>
      </trkpt>
      <trkpt lat="45.16417" lon="5.91211">
        <ele>1729</ele>
        <time>2019-01-20T08:50:52.000Z</time>
      </trkpt>
      <trkpt lat="45.16417" lon="5.91211">
        <ele>1729</ele>
        <time>2019-01-20T08:50:53.000Z</time>
      </trkpt>
      <trkpt lat="45.16417" lon="5.91214">
        <ele>1729</ele>
        <time>2019-01-20T08:50:54.000Z</time>
      </trkpt>
      <trkpt lat="45.16417" lon="5.91214">
        <ele>1729</ele>
        <time>2019-01-20T08:50:55.000Z</time>
      </trkpt>
      <trkpt lat="45.16417" lon="5.91214">
        <ele>1729</ele>
        <time>2019-01-20T08:50:56.000Z</time>
      </trkpt>
      <trkpt lat="45.16418" lon="5.91217">
        <ele>1729</ele>
        <time>2019-01-20T08:50:57.000Z</time>
      </trkpt>
      <trkpt lat="45.16418" lon="5.91217">
        <ele>1730</ele>
        <time>2019-01-20T08:50:58.000Z</time>
      </trkpt>
      <trkpt lat="45.16418" lon="5.91217">
        <ele>1730</ele>
        <time>2019-01-20T08:50:59.000Z</time>
      </trkpt>
      <trkpt lat="45.16419" lon="5.91221">
        <ele>1730</ele>
        <time>2019-01-20T08:51:00.000Z</time>
      </trkpt>
      <trkpt lat="45.16419" lon="5.91221">
        <ele>1730.4</ele>
        <time>2019-01-20T08:51:02.000Z</time>
      </trkpt>
      <trkpt lat="45.16419" lon="5.91224">
        <ele>1731</ele>
        <time>2019-01-20T08:51:03.000Z</time>
      </trkpt>
      <trkpt lat="45.1642" lon="5.91227">
        <ele>1732</ele>
        <time>2019-01-20T08:51:05.000Z</time>
      </trkpt>
      <trkpt lat="45.1642" lon="5.91227">
        <ele>1732</ele>
        <time>2019-01-20T08:51:06.000Z</time>
      </trkpt>
      <trkpt lat="45.16421" lon="5.91229">
        <ele>1732</ele>
        <time>2019-01-20T08:51:07.000Z</time>
      </trkpt>
      <trkpt lat="45.16421" lon="5.91229">
        <ele>1733</ele>
        <time>2019-01-20T08:51:08.000Z</time>
      </trkpt>
      <trkpt lat="45.16421" lon="5.91229">
        <ele>1733</ele>
        <time>2019-01-20T08:51:09.000Z</time>
      </trkpt>
      <trkpt lat="45.16421" lon="5.91233">
        <ele>1733</ele>
        <time>2019-01-20T08:51:10.000Z</time>
      </trkpt>
      <trkpt lat="45.16421" lon="5.91233">
        <ele>1734</ele>
        <time>2019-01-20T08:51:11.000Z</time>
      </trkpt>
      <trkpt lat="45.16421" lon="5.91233">
        <ele>1734</ele>
        <time>2019-01-20T08:51:12.000Z</time>
      </trkpt>
      <trkpt lat="45.16421" lon="5.91235">
        <ele>1734</ele>
        <time>2019-01-20T08:51:13.000Z</time>
      </trkpt>
      <trkpt lat="45.16421" lon="5.91235">
        <ele>1734</ele>
        <time>2019-01-20T08:51:14.000Z</time>
      </trkpt>
      <trkpt lat="45.16421" lon="5.91235">
        <ele>1734</ele>
        <time>2019-01-20T08:51:15.000Z</time>
      </trkpt>
      <trkpt lat="45.16421" lon="5.91238">
        <ele>1734</ele>
        <time>2019-01-20T08:51:16.000Z</time>
      </trkpt>
      <trkpt lat="45.16421" lon="5.91238">
        <ele>1734</ele>
        <time>2019-01-20T08:51:17.000Z</time>
      </trkpt>
      <trkpt lat="45.16421" lon="5.91238">
        <ele>1734</ele>
        <time>2019-01-20T08:51:18.000Z</time>
      </trkpt>
      <trkpt lat="45.16421" lon="5.91241">
        <ele>1735</ele>
        <time>2019-01-20T08:51:19.000Z</time>
      </trkpt>
      <trkpt lat="45.16421" lon="5.91241">
        <ele>1735</ele>
        <time>2019-01-20T08:51:20.000Z</time>
      </trkpt>
      <trkpt lat="45.16421" lon="5.91241">
        <ele>1735</ele>
        <time>2019-01-20T08:51:21.000Z</time>
      </trkpt>
      <trkpt lat="45.16421" lon="5.91241">
        <ele>1735</ele>
        <time>2019-01-20T08:51:22.000Z</time>
      </trkpt>
      <trkpt lat="45.1642" lon="5.91244">
        <ele>1735</ele>
        <time>2019-01-20T08:51:23.000Z</time>
      </trkpt>
      <trkpt lat="45.1642" lon="5.91244">
        <ele>1736</ele>
        <time>2019-01-20T08:51:24.000Z</time>
      </trkpt>
      <trkpt lat="45.1642" lon="5.91244">
        <ele>1736</ele>
        <time>2019-01-20T08:51:25.000Z</time>
      </trkpt>
      <trkpt lat="45.16418" lon="5.91245">
        <ele>1737</ele>
        <time>2019-01-20T08:51:26.000Z</time>
      </trkpt>
      <trkpt lat="45.16418" lon="5.91245">
        <ele>1738</ele>
        <time>2019-01-20T08:51:27.000Z</time>
      </trkpt>
      <trkpt lat="45.16418" lon="5.91245">
        <ele>1738</ele>
        <time>2019-01-20T08:51:28.000Z</time>
      </trkpt>
      <trkpt lat="45.16415" lon="5.91245">
        <ele>1738</ele>
        <time>2019-01-20T08:51:29.000Z</time>
      </trkpt>
      <trkpt lat="45.16415" lon="5.91245">
        <ele>1738</ele>
        <time>2019-01-20T08:51:30.000Z</time>
      </trkpt>
      <trkpt lat="45.16413" lon="5.91245">
        <ele>1738</ele>
        <time>2019-01-20T08:51:31.000Z</time>
      </trkpt>
      <trkpt lat="45.16413" lon="5.91245">
        <ele>1738</ele>
        <time>2019-01-20T08:51:32.000Z</time>
      </trkpt>
      <trkpt lat="45.16413" lon="5.91245">
        <ele>1739</ele>
        <time>2019-01-20T08:51:33.000Z</time>
      </trkpt>
      <trkpt lat="45.16411" lon="5.91244">
        <ele>1739</ele>
        <time>2019-01-20T08:51:34.000Z</time>
      </trkpt>
      <trkpt lat="45.16411" lon="5.91244">
        <ele>1739</ele>
        <time>2019-01-20T08:51:35.000Z</time>
      </trkpt>
      <trkpt lat="45.16409" lon="5.91244">
        <ele>1739</ele>
        <time>2019-01-20T08:51:36.000Z</time>
      </trkpt>
      <trkpt lat="45.16409" lon="5.91244">
        <ele>1739</ele>
        <time>2019-01-20T08:51:37.000Z</time>
      </trkpt>
      <trkpt lat="45.16407" lon="5.91244">
        <ele>1739</ele>
        <time>2019-01-20T08:51:38.000Z</time>
      </trkpt>
      <trkpt lat="45.16407" lon="5.91244">
        <ele>1740</ele>
        <time>2019-01-20T08:51:39.000Z</time>
      </trkpt>
      <trkpt lat="45.16405" lon="5.91244">
        <ele>1740</ele>
        <time>2019-01-20T08:51:40.000Z</time>
      </trkpt>
      <trkpt lat="45.16405" lon="5.91244">
        <ele>1740</ele>
        <time>2019-01-20T08:51:41.000Z</time>
      </trkpt>
      <trkpt lat="45.16403" lon="5.91243">
        <ele>1740</ele>
        <time>2019-01-20T08:51:42.000Z</time>
      </trkpt>
      <trkpt lat="45.16403" lon="5.91243">
        <ele>1741</ele>
        <time>2019-01-20T08:51:43.000Z</time>
      </trkpt>
      <trkpt lat="45.16401" lon="5.91243">
        <ele>1741</ele>
        <time>2019-01-20T08:51:44.000Z</time>
      </trkpt>
      <trkpt lat="45.16401" lon="5.91243">
        <ele>1741</ele>
        <time>2019-01-20T08:51:45.000Z</time>
      </trkpt>
      <trkpt lat="45.16399" lon="5.91243">
        <ele>1741</ele>
        <time>2019-01-20T08:51:46.000Z</time>
      </trkpt>
      <trkpt lat="45.16399" lon="5.91243">
        <ele>1741</ele>
        <time>2019-01-20T08:51:47.000Z</time>
      </trkpt>
      <trkpt lat="45.16399" lon="5.91243">
        <ele>1741</ele>
        <time>2019-01-20T08:51:48.000Z</time>
      </trkpt>
      <trkpt lat="45.16397" lon="5.91243">
        <ele>1742</ele>
        <time>2019-01-20T08:51:49.000Z</time>
      </trkpt>
      <trkpt lat="45.16397" lon="5.91243">
        <ele>1742</ele>
        <time>2019-01-20T08:51:50.000Z</time>
      </trkpt>
      <trkpt lat="45.16397" lon="5.91243">
        <ele>1743</ele>
        <time>2019-01-20T08:51:51.000Z</time>
      </trkpt>
      <trkpt lat="45.16394" lon="5.91243">
        <ele>1743</ele>
        <time>2019-01-20T08:51:52.000Z</time>
      </trkpt>
      <trkpt lat="45.16394" lon="5.91243">
        <ele>1743</ele>
        <time>2019-01-20T08:51:53.000Z</time>
      </trkpt>
      <trkpt lat="45.16392" lon="5.91243">
        <ele>1743</ele>
        <time>2019-01-20T08:51:54.000Z</time>
      </trkpt>
      <trkpt lat="45.16392" lon="5.91243">
        <ele>1743</ele>
        <time>2019-01-20T08:51:55.000Z</time>
      </trkpt>
      <trkpt lat="45.1639" lon="5.91243">
        <ele>1744</ele>
        <time>2019-01-20T08:51:56.000Z</time>
      </trkpt>
      <trkpt lat="45.1639" lon="5.91243">
        <ele>1744</ele>
        <time>2019-01-20T08:51:57.000Z</time>
      </trkpt>
      <trkpt lat="45.1639" lon="5.91243">
        <ele>1744</ele>
        <time>2019-01-20T08:51:58.000Z</time>
      </trkpt>
      <trkpt lat="45.16387" lon="5.91243">
        <ele>1744</ele>
        <time>2019-01-20T08:51:59.000Z</time>
      </trkpt>
      <trkpt lat="45.16387" lon="5.91243">
        <ele>1744</ele>
        <time>2019-01-20T08:52:01.000Z</time>
      </trkpt>
      <trkpt lat="45.16385" lon="5.91242">
        <ele>1744.4</ele>
        <time>2019-01-20T08:52:02.000Z</time>
      </trkpt>
      <trkpt lat="45.16385" lon="5.91242">
        <ele>1745</ele>
        <time>2019-01-20T08:52:03.000Z</time>
      </trkpt>
      <trkpt lat="45.16385" lon="5.91242">
        <ele>1745</ele>
        <time>2019-01-20T08:52:04.000Z</time>
      </trkpt>
      <trkpt lat="45.16385" lon="5.91242">
        <ele>1745</ele>
        <time>2019-01-20T08:52:05.000Z</time>
      </trkpt>
      <trkpt lat="45.16385" lon="5.91242">
        <ele>1745</ele>
        <time>2019-01-20T08:52:06.000Z</time>
      </trkpt>
      <trkpt lat="45.16385" lon="5.91242">
        <ele>1745</ele>
        <time>2019-01-20T08:52:07.000Z</time>
      </trkpt>
      <trkpt lat="45.16383" lon="5.91242">
        <ele>1745</ele>
        <time>2019-01-20T08:52:08.000Z</time>
      </trkpt>
      <trkpt lat="45.16383" lon="5.91242">
        <ele>1745</ele>
        <time>2019-01-20T08:52:09.000Z</time>
      </trkpt>
      <trkpt lat="45.16381" lon="5.91242">
        <ele>1746</ele>
        <time>2019-01-20T08:52:10.000Z</time>
      </trkpt>
      <trkpt lat="45.16381" lon="5.91242">
        <ele>1747</ele>
        <time>2019-01-20T08:52:11.000Z</time>
      </trkpt>
      <trkpt lat="45.16381" lon="5.91242">
        <ele>1747</ele>
        <time>2019-01-20T08:52:12.000Z</time>
      </trkpt>
      <trkpt lat="45.16378" lon="5.91241">
        <ele>1747</ele>
        <time>2019-01-20T08:52:13.000Z</time>
      </trkpt>
      <trkpt lat="45.16378" lon="5.91241">
        <ele>1747</ele>
        <time>2019-01-20T08:52:14.000Z</time>
      </trkpt>
      <trkpt lat="45.16378" lon="5.91241">
        <ele>1748</ele>
        <time>2019-01-20T08:52:15.000Z</time>
      </trkpt>
      <trkpt lat="45.16376" lon="5.91241">
        <ele>1748</ele>
        <time>2019-01-20T08:52:16.000Z</time>
      </trkpt>
      <trkpt lat="45.16376" lon="5.91241">
        <ele>1748</ele>
        <time>2019-01-20T08:52:17.000Z</time>
      </trkpt>
      <trkpt lat="45.16376" lon="5.91241">
        <ele>1748</ele>
        <time>2019-01-20T08:52:18.000Z</time>
      </trkpt>
      <trkpt lat="45.16373" lon="5.91241">
        <ele>1748</ele>
        <time>2019-01-20T08:52:19.000Z</time>
      </trkpt>
      <trkpt lat="45.16371" lon="5.91242">
        <ele>1748.4</ele>
        <time>2019-01-20T08:52:21.000Z</time>
      </trkpt>
      <trkpt lat="45.16371" lon="5.91242">
        <ele>1749</ele>
        <time>2019-01-20T08:52:22.000Z</time>
      </trkpt>
      <trkpt lat="45.16371" lon="5.91242">
        <ele>1749</ele>
        <time>2019-01-20T08:52:23.000Z</time>
      </trkpt>
      <trkpt lat="45.16369" lon="5.91243">
        <ele>1750</ele>
        <time>2019-01-20T08:52:24.000Z</time>
      </trkpt>
      <trkpt lat="45.16369" lon="5.91243">
        <ele>1750</ele>
        <time>2019-01-20T08:52:25.000Z</time>
      </trkpt>
      <trkpt lat="45.16367" lon="5.91243">
        <ele>1750</ele>
        <time>2019-01-20T08:52:26.000Z</time>
      </trkpt>
      <trkpt lat="45.16367" lon="5.91243">
        <ele>1750</ele>
        <time>2019-01-20T08:52:27.000Z</time>
      </trkpt>
      <trkpt lat="45.16367" lon="5.91243">
        <ele>1750</ele>
        <time>2019-01-20T08:52:28.000Z</time>
      </trkpt>
      <trkpt lat="45.16365" lon="5.91245">
        <ele>1750</ele>
        <time>2019-01-20T08:52:29.000Z</time>
      </trkpt>
      <trkpt lat="45.16365" lon="5.91245">
        <ele>1750</ele>
        <time>2019-01-20T08:52:30.000Z</time>
      </trkpt>
      <trkpt lat="45.16363" lon="5.91246">
        <ele>1751</ele>
        <time>2019-01-20T08:52:31.000Z</time>
      </trkpt>
      <trkpt lat="45.16363" lon="5.91246">
        <ele>1751</ele>
        <time>2019-01-20T08:52:32.000Z</time>
      </trkpt>
      <trkpt lat="45.16363" lon="5.91246">
        <ele>1751</ele>
        <time>2019-01-20T08:52:33.000Z</time>
      </trkpt>
      <trkpt lat="45.16361" lon="5.91248">
        <ele>1752</ele>
        <time>2019-01-20T08:52:34.000Z</time>
      </trkpt>
      <trkpt lat="45.16361" lon="5.91248">
        <ele>1752</ele>
        <time>2019-01-20T08:52:35.000Z</time>
      </trkpt>
      <trkpt lat="45.16361" lon="5.91248">
        <ele>1752</ele>
        <time>2019-01-20T08:52:36.000Z</time>
      </trkpt>
      <trkpt lat="45.1636" lon="5.9125">
        <ele>1752</ele>
        <time>2019-01-20T08:52:37.000Z</time>
      </trkpt>
      <trkpt lat="45.1636" lon="5.9125">
        <ele>1752</ele>
        <time>2019-01-20T08:52:38.000Z</time>
      </trkpt>
      <trkpt lat="45.16359" lon="5.91252">
        <ele>1752.4</ele>
        <time>2019-01-20T08:52:40.000Z</time>
      </trkpt>
      <trkpt lat="45.16359" lon="5.91252">
        <ele>1753</ele>
        <time>2019-01-20T08:52:41.000Z</time>
      </trkpt>
      <trkpt lat="45.16357" lon="5.91254">
        <ele>1753</ele>
        <time>2019-01-20T08:52:42.000Z</time>
      </trkpt>
      <trkpt lat="45.16357" lon="5.91254">
        <ele>1753</ele>
        <time>2019-01-20T08:52:43.000Z</time>
      </trkpt>
      <trkpt lat="45.16357" lon="5.91254">
        <ele>1754</ele>
        <time>2019-01-20T08:52:44.000Z</time>
      </trkpt>
      <trkpt lat="45.16357" lon="5.91258">
        <ele>1754</ele>
        <time>2019-01-20T08:52:45.000Z</time>
      </trkpt>
      <trkpt lat="45.16357" lon="5.91258">
        <ele>1754</ele>
        <time>2019-01-20T08:52:46.000Z</time>
      </trkpt>
      <trkpt lat="45.16357" lon="5.91258">
        <ele>1754</ele>
        <time>2019-01-20T08:52:47.000Z</time>
      </trkpt>
      <trkpt lat="45.16355" lon="5.9126">
        <ele>1755</ele>
        <time>2019-01-20T08:52:48.000Z</time>
      </trkpt>
      <trkpt lat="45.16355" lon="5.9126">
        <ele>1755</ele>
        <time>2019-01-20T08:52:49.000Z</time>
      </trkpt>
      <trkpt lat="45.16355" lon="5.9126">
        <ele>1755</ele>
        <time>2019-01-20T08:52:50.000Z</time>
      </trkpt>
      <trkpt lat="45.16354" lon="5.91263">
        <ele>1755</ele>
        <time>2019-01-20T08:52:51.000Z</time>
      </trkpt>
      <trkpt lat="45.16354" lon="5.91263">
        <ele>1755</ele>
        <time>2019-01-20T08:52:52.000Z</time>
      </trkpt>
      <trkpt lat="45.16354" lon="5.91263">
        <ele>1755</ele>
        <time>2019-01-20T08:52:53.000Z</time>
      </trkpt>
      <trkpt lat="45.16353" lon="5.91267">
        <ele>1756</ele>
        <time>2019-01-20T08:52:54.000Z</time>
      </trkpt>
      <trkpt lat="45.16353" lon="5.91267">
        <ele>1756</ele>
        <time>2019-01-20T08:52:55.000Z</time>
      </trkpt>
      <trkpt lat="45.16353" lon="5.91267">
        <ele>1756</ele>
        <time>2019-01-20T08:52:56.000Z</time>
      </trkpt>
      <trkpt lat="45.16352" lon="5.9127">
        <ele>1756</ele>
        <time>2019-01-20T08:52:57.000Z</time>
      </trkpt>
      <trkpt lat="45.16352" lon="5.9127">
        <ele>1757</ele>
        <time>2019-01-20T08:52:59.000Z</time>
      </trkpt>
      <trkpt lat="45.1635" lon="5.91273">
        <ele>1757</ele>
        <time>2019-01-20T08:53:00.000Z</time>
      </trkpt>
      <trkpt lat="45.1635" lon="5.91273">
        <ele>1757</ele>
        <time>2019-01-20T08:53:01.000Z</time>
      </trkpt>
      <trkpt lat="45.1635" lon="5.91273">
        <ele>1758</ele>
        <time>2019-01-20T08:53:02.000Z</time>
      </trkpt>
      <trkpt lat="45.16348" lon="5.91275">
        <ele>1758</ele>
        <time>2019-01-20T08:53:03.000Z</time>
      </trkpt>
      <trkpt lat="45.16348" lon="5.91275">
        <ele>1758</ele>
        <time>2019-01-20T08:53:04.000Z</time>
      </trkpt>
      <trkpt lat="45.16347" lon="5.91277">
        <ele>1758</ele>
        <time>2019-01-20T08:53:05.000Z</time>
      </trkpt>
      <trkpt lat="45.16347" lon="5.91277">
        <ele>1758</ele>
        <time>2019-01-20T08:53:06.000Z</time>
      </trkpt>
      <trkpt lat="45.16345" lon="5.91279">
        <ele>1758</ele>
        <time>2019-01-20T08:53:07.000Z</time>
      </trkpt>
      <trkpt lat="45.16345" lon="5.91279">
        <ele>1759</ele>
        <time>2019-01-20T08:53:08.000Z</time>
      </trkpt>
      <trkpt lat="45.16345" lon="5.91279">
        <ele>1759</ele>
        <time>2019-01-20T08:53:09.000Z</time>
      </trkpt>
      <trkpt lat="45.16343" lon="5.91282">
        <ele>1759</ele>
        <time>2019-01-20T08:53:10.000Z</time>
      </trkpt>
      <trkpt lat="45.16343" lon="5.91282">
        <ele>1759</ele>
        <time>2019-01-20T08:53:11.000Z</time>
      </trkpt>
      <trkpt lat="45.16341" lon="5.91283">
        <ele>1759</ele>
        <time>2019-01-20T08:53:12.000Z</time>
      </trkpt>
      <trkpt lat="45.16341" lon="5.91283">
        <ele>1759</ele>
        <time>2019-01-20T08:53:13.000Z</time>
      </trkpt>
      <trkpt lat="45.16341" lon="5.91283">
        <ele>1759</ele>
        <time>2019-01-20T08:53:14.000Z</time>
      </trkpt>
      <trkpt lat="45.16339" lon="5.91285">
        <ele>1759</ele>
        <time>2019-01-20T08:53:15.000Z</time>
      </trkpt>
      <trkpt lat="45.16339" lon="5.91285">
        <ele>1759</ele>
        <time>2019-01-20T08:53:16.000Z</time>
      </trkpt>
      <trkpt lat="45.16338" lon="5.91287">
        <ele>1759</ele>
        <time>2019-01-20T08:53:17.000Z</time>
      </trkpt>
      <trkpt lat="45.16338" lon="5.91287">
        <ele>1759</ele>
        <time>2019-01-20T08:53:18.000Z</time>
      </trkpt>
      <trkpt lat="45.16336" lon="5.91288">
        <ele>1759</ele>
        <time>2019-01-20T08:53:19.000Z</time>
      </trkpt>
      <trkpt lat="45.16336" lon="5.91288">
        <ele>1760</ele>
        <time>2019-01-20T08:53:20.000Z</time>
      </trkpt>
      <trkpt lat="45.16336" lon="5.91288">
        <ele>1760</ele>
        <time>2019-01-20T08:53:21.000Z</time>
      </trkpt>
      <trkpt lat="45.16336" lon="5.91288">
        <ele>1760</ele>
        <time>2019-01-20T08:53:22.000Z</time>
      </trkpt>
      <trkpt lat="45.16335" lon="5.9129">
        <ele>1761</ele>
        <time>2019-01-20T08:53:23.000Z</time>
      </trkpt>
      <trkpt lat="45.16335" lon="5.9129">
        <ele>1761</ele>
        <time>2019-01-20T08:53:24.000Z</time>
      </trkpt>
      <trkpt lat="45.16333" lon="5.91292">
        <ele>1761</ele>
        <time>2019-01-20T08:53:25.000Z</time>
      </trkpt>
      <trkpt lat="45.16333" lon="5.91292">
        <ele>1761</ele>
        <time>2019-01-20T08:53:26.000Z</time>
      </trkpt>
      <trkpt lat="45.16331" lon="5.91294">
        <ele>1761</ele>
        <time>2019-01-20T08:53:27.000Z</time>
      </trkpt>
      <trkpt lat="45.16331" lon="5.91294">
        <ele>1762</ele>
        <time>2019-01-20T08:53:28.000Z</time>
      </trkpt>
      <trkpt lat="45.1633" lon="5.91296">
        <ele>1762</ele>
        <time>2019-01-20T08:53:29.000Z</time>
      </trkpt>
      <trkpt lat="45.1633" lon="5.91296">
        <ele>1762</ele>
        <time>2019-01-20T08:53:30.000Z</time>
      </trkpt>
      <trkpt lat="45.16329" lon="5.91298">
        <ele>1762</ele>
        <time>2019-01-20T08:53:31.000Z</time>
      </trkpt>
      <trkpt lat="45.16329" lon="5.91298">
        <ele>1762</ele>
        <time>2019-01-20T08:53:32.000Z</time>
      </trkpt>
      <trkpt lat="45.16328" lon="5.91301">
        <ele>1763</ele>
        <time>2019-01-20T08:53:33.000Z</time>
      </trkpt>
      <trkpt lat="45.16328" lon="5.91301">
        <ele>1763</ele>
        <time>2019-01-20T08:53:34.000Z</time>
      </trkpt>
      <trkpt lat="45.16327" lon="5.91303">
        <ele>1764</ele>
        <time>2019-01-20T08:53:35.000Z</time>
      </trkpt>
      <trkpt lat="45.16325" lon="5.91305">
        <ele>1764</ele>
        <time>2019-01-20T08:53:37.000Z</time>
      </trkpt>
      <trkpt lat="45.16325" lon="5.91305">
        <ele>1764</ele>
        <time>2019-01-20T08:53:38.000Z</time>
      </trkpt>
      <trkpt lat="45.16325" lon="5.91305">
        <ele>1764</ele>
        <time>2019-01-20T08:53:39.000Z</time>
      </trkpt>
      <trkpt lat="45.16323" lon="5.91307">
        <ele>1764</ele>
        <time>2019-01-20T08:53:40.000Z</time>
      </trkpt>
      <trkpt lat="45.16323" lon="5.91307">
        <ele>1764</ele>
        <time>2019-01-20T08:53:41.000Z</time>
      </trkpt>
      <trkpt lat="45.16321" lon="5.91308">
        <ele>1764</ele>
        <time>2019-01-20T08:53:42.000Z</time>
      </trkpt>
      <trkpt lat="45.16321" lon="5.91308">
        <ele>1764</ele>
        <time>2019-01-20T08:53:43.000Z</time>
      </trkpt>
      <trkpt lat="45.16321" lon="5.91308">
        <ele>1765</ele>
        <time>2019-01-20T08:53:44.000Z</time>
      </trkpt>
      <trkpt lat="45.1632" lon="5.91311">
        <ele>1765</ele>
        <time>2019-01-20T08:53:45.000Z</time>
      </trkpt>
      <trkpt lat="45.1632" lon="5.91311">
        <ele>1766</ele>
        <time>2019-01-20T08:53:46.000Z</time>
      </trkpt>
      <trkpt lat="45.1632" lon="5.91311">
        <ele>1767</ele>
        <time>2019-01-20T08:53:47.000Z</time>
      </trkpt>
      <trkpt lat="45.16318" lon="5.91313">
        <ele>1767</ele>
        <time>2019-01-20T08:53:48.000Z</time>
      </trkpt>
      <trkpt lat="45.16318" lon="5.91313">
        <ele>1767</ele>
        <time>2019-01-20T08:53:49.000Z</time>
      </trkpt>
      <trkpt lat="45.16317" lon="5.91316">
        <ele>1767</ele>
        <time>2019-01-20T08:53:50.000Z</time>
      </trkpt>
      <trkpt lat="45.16317" lon="5.91316">
        <ele>1767</ele>
        <time>2019-01-20T08:53:51.000Z</time>
      </trkpt>
      <trkpt lat="45.16317" lon="5.91316">
        <ele>1768</ele>
        <time>2019-01-20T08:53:52.000Z</time>
      </trkpt>
      <trkpt lat="45.16315" lon="5.91319">
        <ele>1768</ele>
        <time>2019-01-20T08:53:53.000Z</time>
      </trkpt>
      <trkpt lat="45.16315" lon="5.91319">
        <ele>1768</ele>
        <time>2019-01-20T08:53:54.000Z</time>
      </trkpt>
      <trkpt lat="45.16313" lon="5.91321">
        <ele>1768.4</ele>
        <time>2019-01-20T08:53:56.000Z</time>
      </trkpt>
      <trkpt lat="45.16313" lon="5.91321">
        <ele>1769</ele>
        <time>2019-01-20T08:53:57.000Z</time>
      </trkpt>
      <trkpt lat="45.16313" lon="5.91321">
        <ele>1769</ele>
        <time>2019-01-20T08:53:58.000Z</time>
      </trkpt>
      <trkpt lat="45.16312" lon="5.91324">
        <ele>1770</ele>
        <time>2019-01-20T08:53:59.000Z</time>
      </trkpt>
      <trkpt lat="45.16312" lon="5.91324">
        <ele>1770</ele>
        <time>2019-01-20T08:54:01.000Z</time>
      </trkpt>
      <trkpt lat="45.1631" lon="5.91326">
        <ele>1771</ele>
        <time>2019-01-20T08:54:02.000Z</time>
      </trkpt>
      <trkpt lat="45.1631" lon="5.91326">
        <ele>1771</ele>
        <time>2019-01-20T08:54:03.000Z</time>
      </trkpt>
      <trkpt lat="45.16308" lon="5.91327">
        <ele>1771</ele>
        <time>2019-01-20T08:54:04.000Z</time>
      </trkpt>
      <trkpt lat="45.16308" lon="5.91327">
        <ele>1771</ele>
        <time>2019-01-20T08:54:05.000Z</time>
      </trkpt>
      <trkpt lat="45.16308" lon="5.91327">
        <ele>1771</ele>
        <time>2019-01-20T08:54:06.000Z</time>
      </trkpt>
      <trkpt lat="45.16306" lon="5.91327">
        <ele>1771</ele>
        <time>2019-01-20T08:54:07.000Z</time>
      </trkpt>
      <trkpt lat="45.16306" lon="5.91327">
        <ele>1772</ele>
        <time>2019-01-20T08:54:08.000Z</time>
      </trkpt>
      <trkpt lat="45.16306" lon="5.91327">
        <ele>1772</ele>
        <time>2019-01-20T08:54:09.000Z</time>
      </trkpt>
      <trkpt lat="45.16303" lon="5.91328">
        <ele>1772</ele>
        <time>2019-01-20T08:54:10.000Z</time>
      </trkpt>
      <trkpt lat="45.16303" lon="5.91328">
        <ele>1772</ele>
        <time>2019-01-20T08:54:11.000Z</time>
      </trkpt>
      <trkpt lat="45.16301" lon="5.91329">
        <ele>1773</ele>
        <time>2019-01-20T08:54:12.000Z</time>
      </trkpt>
      <trkpt lat="45.16301" lon="5.91329">
        <ele>1774</ele>
        <time>2019-01-20T08:54:13.000Z</time>
      </trkpt>
      <trkpt lat="45.16299" lon="5.91329">
        <ele>1774</ele>
        <time>2019-01-20T08:54:14.000Z</time>
      </trkpt>
      <trkpt lat="45.16299" lon="5.91329">
        <ele>1774</ele>
        <time>2019-01-20T08:54:15.000Z</time>
      </trkpt>
      <trkpt lat="45.16299" lon="5.91329">
        <ele>1774</ele>
        <time>2019-01-20T08:54:16.000Z</time>
      </trkpt>
      <trkpt lat="45.16297" lon="5.9133">
        <ele>1775</ele>
        <time>2019-01-20T08:54:17.000Z</time>
      </trkpt>
      <trkpt lat="45.16297" lon="5.9133">
        <ele>1775</ele>
        <time>2019-01-20T08:54:18.000Z</time>
      </trkpt>
      <trkpt lat="45.16297" lon="5.9133">
        <ele>1775</ele>
        <time>2019-01-20T08:54:19.000Z</time>
      </trkpt>
      <trkpt lat="45.16295" lon="5.91331">
        <ele>1775</ele>
        <time>2019-01-20T08:54:20.000Z</time>
      </trkpt>
      <trkpt lat="45.16295" lon="5.91331">
        <ele>1775</ele>
        <time>2019-01-20T08:54:21.000Z</time>
      </trkpt>
      <trkpt lat="45.16293" lon="5.91331">
        <ele>1775</ele>
        <time>2019-01-20T08:54:22.000Z</time>
      </trkpt>
      <trkpt lat="45.16293" lon="5.91331">
        <ele>1775</ele>
        <time>2019-01-20T08:54:23.000Z</time>
      </trkpt>
      <trkpt lat="45.16293" lon="5.91331">
        <ele>1775</ele>
        <time>2019-01-20T08:54:24.000Z</time>
      </trkpt>
      <trkpt lat="45.16291" lon="5.91332">
        <ele>1776</ele>
        <time>2019-01-20T08:54:25.000Z</time>
      </trkpt>
      <trkpt lat="45.16291" lon="5.91332">
        <ele>1776</ele>
        <time>2019-01-20T08:54:26.000Z</time>
      </trkpt>
      <trkpt lat="45.16291" lon="5.91332">
        <ele>1776</ele>
        <time>2019-01-20T08:54:27.000Z</time>
      </trkpt>
      <trkpt lat="45.16289" lon="5.91334">
        <ele>1776</ele>
        <time>2019-01-20T08:54:28.000Z</time>
      </trkpt>
      <trkpt lat="45.16289" lon="5.91334">
        <ele>1777</ele>
        <time>2019-01-20T08:54:29.000Z</time>
      </trkpt>
      <trkpt lat="45.16289" lon="5.91334">
        <ele>1777</ele>
        <time>2019-01-20T08:54:30.000Z</time>
      </trkpt>
      <trkpt lat="45.16289" lon="5.91334">
        <ele>1777</ele>
        <time>2019-01-20T08:54:31.000Z</time>
      </trkpt>
      <trkpt lat="45.16287" lon="5.91335">
        <ele>1777</ele>
        <time>2019-01-20T08:54:32.000Z</time>
      </trkpt>
      <trkpt lat="45.16285" lon="5.91336">
        <ele>1778</ele>
        <time>2019-01-20T08:54:34.000Z</time>
      </trkpt>
      <trkpt lat="45.16285" lon="5.91336">
        <ele>1778</ele>
        <time>2019-01-20T08:54:35.000Z</time>
      </trkpt>
      <trkpt lat="45.16283" lon="5.91337">
        <ele>1778</ele>
        <time>2019-01-20T08:54:36.000Z</time>
      </trkpt>
      <trkpt lat="45.16283" lon="5.91337">
        <ele>1778</ele>
        <time>2019-01-20T08:54:37.000Z</time>
      </trkpt>
      <trkpt lat="45.16281" lon="5.91339">
        <ele>1778</ele>
        <time>2019-01-20T08:54:38.000Z</time>
      </trkpt>
      <trkpt lat="45.16281" lon="5.91339">
        <ele>1779</ele>
        <time>2019-01-20T08:54:39.000Z</time>
      </trkpt>
      <trkpt lat="45.16281" lon="5.91339">
        <ele>1779</ele>
        <time>2019-01-20T08:54:40.000Z</time>
      </trkpt>
      <trkpt lat="45.16279" lon="5.91341">
        <ele>1779</ele>
        <time>2019-01-20T08:54:41.000Z</time>
      </trkpt>
      <trkpt lat="45.16279" lon="5.91341">
        <ele>1780</ele>
        <time>2019-01-20T08:54:42.000Z</time>
      </trkpt>
      <trkpt lat="45.16279" lon="5.91341">
        <ele>1780</ele>
        <time>2019-01-20T08:54:43.000Z</time>
      </trkpt>
      <trkpt lat="45.16277" lon="5.91343">
        <ele>1780</ele>
        <time>2019-01-20T08:54:44.000Z</time>
      </trkpt>
      <trkpt lat="45.16277" lon="5.91343">
        <ele>1780</ele>
        <time>2019-01-20T08:54:45.000Z</time>
      </trkpt>
      <trkpt lat="45.16275" lon="5.91345">
        <ele>1780</ele>
        <time>2019-01-20T08:54:46.000Z</time>
      </trkpt>
      <trkpt lat="45.16275" lon="5.91345">
        <ele>1780</ele>
        <time>2019-01-20T08:54:47.000Z</time>
      </trkpt>
      <trkpt lat="45.16273" lon="5.91347">
        <ele>1780</ele>
        <time>2019-01-20T08:54:48.000Z</time>
      </trkpt>
      <trkpt lat="45.16273" lon="5.91347">
        <ele>1781</ele>
        <time>2019-01-20T08:54:49.000Z</time>
      </trkpt>
      <trkpt lat="45.16272" lon="5.91349">
        <ele>1781</ele>
        <time>2019-01-20T08:54:50.000Z</time>
      </trkpt>
      <trkpt lat="45.16272" lon="5.91349">
        <ele>1781</ele>
        <time>2019-01-20T08:54:51.000Z</time>
      </trkpt>
      <trkpt lat="45.1627" lon="5.91351">
        <ele>1782</ele>
        <time>2019-01-20T08:54:53.000Z</time>
      </trkpt>
      <trkpt lat="45.1627" lon="5.91351">
        <ele>1782</ele>
        <time>2019-01-20T08:54:54.000Z</time>
      </trkpt>
      <trkpt lat="45.1627" lon="5.91351">
        <ele>1782</ele>
        <time>2019-01-20T08:54:55.000Z</time>
      </trkpt>
      <trkpt lat="45.16268" lon="5.91353">
        <ele>1783</ele>
        <time>2019-01-20T08:54:56.000Z</time>
      </trkpt>
      <trkpt lat="45.16268" lon="5.91353">
        <ele>1783</ele>
        <time>2019-01-20T08:54:57.000Z</time>
      </trkpt>
      <trkpt lat="45.16268" lon="5.91353">
        <ele>1783</ele>
        <time>2019-01-20T08:54:59.000Z</time>
      </trkpt>
      <trkpt lat="45.16266" lon="5.91355">
        <ele>1783</ele>
        <time>2019-01-20T08:55:00.000Z</time>
      </trkpt>
      <trkpt lat="45.16266" lon="5.91355">
        <ele>1783</ele>
        <time>2019-01-20T08:55:01.000Z</time>
      </trkpt>
      <trkpt lat="45.16265" lon="5.91356">
        <ele>1784</ele>
        <time>2019-01-20T08:55:02.000Z</time>
      </trkpt>
      <trkpt lat="45.16265" lon="5.91356">
        <ele>1784</ele>
        <time>2019-01-20T08:55:03.000Z</time>
      </trkpt>
      <trkpt lat="45.16263" lon="5.91358">
        <ele>1784</ele>
        <time>2019-01-20T08:55:04.000Z</time>
      </trkpt>
      <trkpt lat="45.16263" lon="5.91358">
        <ele>1784</ele>
        <time>2019-01-20T08:55:05.000Z</time>
      </trkpt>
      <trkpt lat="45.16261" lon="5.91359">
        <ele>1785</ele>
        <time>2019-01-20T08:55:06.000Z</time>
      </trkpt>
      <trkpt lat="45.16261" lon="5.91359">
        <ele>1785</ele>
        <time>2019-01-20T08:55:07.000Z</time>
      </trkpt>
      <trkpt lat="45.16259" lon="5.91361">
        <ele>1785</ele>
        <time>2019-01-20T08:55:08.000Z</time>
      </trkpt>
      <trkpt lat="45.16259" lon="5.91361">
        <ele>1785</ele>
        <time>2019-01-20T08:55:09.000Z</time>
      </trkpt>
      <trkpt lat="45.16257" lon="5.91364">
        <ele>1785</ele>
        <time>2019-01-20T08:55:10.000Z</time>
      </trkpt>
      <trkpt lat="45.16255" lon="5.91365">
        <ele>1786</ele>
        <time>2019-01-20T08:55:12.000Z</time>
      </trkpt>
      <trkpt lat="45.16255" lon="5.91365">
        <ele>1786</ele>
        <time>2019-01-20T08:55:13.000Z</time>
      </trkpt>
      <trkpt lat="45.16254" lon="5.91367">
        <ele>1786</ele>
        <time>2019-01-20T08:55:14.000Z</time>
      </trkpt>
      <trkpt lat="45.16254" lon="5.91367">
        <ele>1787</ele>
        <time>2019-01-20T08:55:15.000Z</time>
      </trkpt>
      <trkpt lat="45.16252" lon="5.91369">
        <ele>1787</ele>
        <time>2019-01-20T08:55:16.000Z</time>
      </trkpt>
      <trkpt lat="45.16252" lon="5.91369">
        <ele>1787</ele>
        <time>2019-01-20T08:55:17.000Z</time>
      </trkpt>
      <trkpt lat="45.1625" lon="5.91371">
        <ele>1787</ele>
        <time>2019-01-20T08:55:18.000Z</time>
      </trkpt>
      <trkpt lat="45.1625" lon="5.91371">
        <ele>1787</ele>
        <time>2019-01-20T08:55:19.000Z</time>
      </trkpt>
      <trkpt lat="45.16248" lon="5.91373">
        <ele>1788</ele>
        <time>2019-01-20T08:55:20.000Z</time>
      </trkpt>
      <trkpt lat="45.16248" lon="5.91373">
        <ele>1788</ele>
        <time>2019-01-20T08:55:21.000Z</time>
      </trkpt>
      <trkpt lat="45.16247" lon="5.91375">
        <ele>1788</ele>
        <time>2019-01-20T08:55:22.000Z</time>
      </trkpt>
      <trkpt lat="45.16247" lon="5.91375">
        <ele>1788</ele>
        <time>2019-01-20T08:55:23.000Z</time>
      </trkpt>
      <trkpt lat="45.16247" lon="5.91375">
        <ele>1788</ele>
        <time>2019-01-20T08:55:24.000Z</time>
      </trkpt>
      <trkpt lat="45.16247" lon="5.91375">
        <ele>1788</ele>
        <time>2019-01-20T08:55:25.000Z</time>
      </trkpt>
      <trkpt lat="45.16245" lon="5.91376">
        <ele>1788</ele>
        <time>2019-01-20T08:55:26.000Z</time>
      </trkpt>
      <trkpt lat="45.16245" lon="5.91376">
        <ele>1788</ele>
        <time>2019-01-20T08:55:27.000Z</time>
      </trkpt>
      <trkpt lat="45.16243" lon="5.91377">
        <ele>1789</ele>
        <time>2019-01-20T08:55:28.000Z</time>
      </trkpt>
      <trkpt lat="45.16243" lon="5.91377">
        <ele>1790</ele>
        <time>2019-01-20T08:55:29.000Z</time>
      </trkpt>
      <trkpt lat="45.16241" lon="5.91378">
        <ele>1790</ele>
        <time>2019-01-20T08:55:30.000Z</time>
      </trkpt>
      <trkpt lat="45.16241" lon="5.91378">
        <ele>1791</ele>
        <time>2019-01-20T08:55:31.000Z</time>
      </trkpt>
      <trkpt lat="45.16239" lon="5.9138">
        <ele>1791</ele>
        <time>2019-01-20T08:55:32.000Z</time>
      </trkpt>
      <trkpt lat="45.16239" lon="5.9138">
        <ele>1791</ele>
        <time>2019-01-20T08:55:33.000Z</time>
      </trkpt>
      <trkpt lat="45.16237" lon="5.91382">
        <ele>1791</ele>
        <time>2019-01-20T08:55:34.000Z</time>
      </trkpt>
      <trkpt lat="45.16237" lon="5.91382">
        <ele>1791</ele>
        <time>2019-01-20T08:55:35.000Z</time>
      </trkpt>
      <trkpt lat="45.16234" lon="5.91385">
        <ele>1791</ele>
        <time>2019-01-20T08:55:36.000Z</time>
      </trkpt>
      <trkpt lat="45.16234" lon="5.91385">
        <ele>1791</ele>
        <time>2019-01-20T08:55:37.000Z</time>
      </trkpt>
      <trkpt lat="45.16233" lon="5.91387">
        <ele>1791</ele>
        <time>2019-01-20T08:55:38.000Z</time>
      </trkpt>
      <trkpt lat="45.16233" lon="5.91387">
        <ele>1792</ele>
        <time>2019-01-20T08:55:39.000Z</time>
      </trkpt>
      <trkpt lat="45.16233" lon="5.91387">
        <ele>1792</ele>
        <time>2019-01-20T08:55:40.000Z</time>
      </trkpt>
      <trkpt lat="45.1623" lon="5.91388">
        <ele>1792</ele>
        <time>2019-01-20T08:55:41.000Z</time>
      </trkpt>
      <trkpt lat="45.1623" lon="5.91388">
        <ele>1792</ele>
        <time>2019-01-20T08:55:42.000Z</time>
      </trkpt>
      <trkpt lat="45.16229" lon="5.91389">
        <ele>1792</ele>
        <time>2019-01-20T08:55:43.000Z</time>
      </trkpt>
      <trkpt lat="45.16229" lon="5.91389">
        <ele>1793</ele>
        <time>2019-01-20T08:55:44.000Z</time>
      </trkpt>
      <trkpt lat="45.16229" lon="5.91389">
        <ele>1793</ele>
        <time>2019-01-20T08:55:45.000Z</time>
      </trkpt>
      <trkpt lat="45.16226" lon="5.91391">
        <ele>1794</ele>
        <time>2019-01-20T08:55:46.000Z</time>
      </trkpt>
      <trkpt lat="45.16226" lon="5.91391">
        <ele>1794</ele>
        <time>2019-01-20T08:55:47.000Z</time>
      </trkpt>
      <trkpt lat="45.16226" lon="5.91391">
        <ele>1795</ele>
        <time>2019-01-20T08:55:48.000Z</time>
      </trkpt>
      <trkpt lat="45.16226" lon="5.91391">
        <ele>1795</ele>
        <time>2019-01-20T08:55:50.000Z</time>
      </trkpt>
      <trkpt lat="45.16226" lon="5.91391">
        <ele>1795</ele>
        <time>2019-01-20T08:55:51.000Z</time>
      </trkpt>
      <trkpt lat="45.16224" lon="5.91392">
        <ele>1795</ele>
        <time>2019-01-20T08:55:52.000Z</time>
      </trkpt>
      <trkpt lat="45.16224" lon="5.91392">
        <ele>1794</ele>
        <time>2019-01-20T08:55:53.000Z</time>
      </trkpt>
      <trkpt lat="45.16224" lon="5.91392">
        <ele>1795</ele>
        <time>2019-01-20T08:55:54.000Z</time>
      </trkpt>
      <trkpt lat="45.16222" lon="5.91393">
        <ele>1795</ele>
        <time>2019-01-20T08:55:55.000Z</time>
      </trkpt>
      <trkpt lat="45.16222" lon="5.91393">
        <ele>1795</ele>
        <time>2019-01-20T08:55:56.000Z</time>
      </trkpt>
      <trkpt lat="45.16222" lon="5.91393">
        <ele>1795</ele>
        <time>2019-01-20T08:55:57.000Z</time>
      </trkpt>
      <trkpt lat="45.1622" lon="5.91395">
        <ele>1795</ele>
        <time>2019-01-20T08:55:58.000Z</time>
      </trkpt>
      <trkpt lat="45.1622" lon="5.91395">
        <ele>1796</ele>
        <time>2019-01-20T08:55:59.000Z</time>
      </trkpt>
      <trkpt lat="45.16217" lon="5.91396">
        <ele>1796</ele>
        <time>2019-01-20T08:56:00.000Z</time>
      </trkpt>
      <trkpt lat="45.16217" lon="5.91396">
        <ele>1796</ele>
        <time>2019-01-20T08:56:01.000Z</time>
      </trkpt>
      <trkpt lat="45.16215" lon="5.91398">
        <ele>1796</ele>
        <time>2019-01-20T08:56:02.000Z</time>
      </trkpt>
      <trkpt lat="45.16215" lon="5.91398">
        <ele>1796</ele>
        <time>2019-01-20T08:56:03.000Z</time>
      </trkpt>
      <trkpt lat="45.16213" lon="5.91399">
        <ele>1796</ele>
        <time>2019-01-20T08:56:04.000Z</time>
      </trkpt>
      <trkpt lat="45.16213" lon="5.91399">
        <ele>1797</ele>
        <time>2019-01-20T08:56:05.000Z</time>
      </trkpt>
      <trkpt lat="45.16211" lon="5.91399">
        <ele>1797</ele>
        <time>2019-01-20T08:56:06.000Z</time>
      </trkpt>
      <trkpt lat="45.16211" lon="5.91399">
        <ele>1797</ele>
        <time>2019-01-20T08:56:07.000Z</time>
      </trkpt>
      <trkpt lat="45.16209" lon="5.914">
        <ele>1797</ele>
        <time>2019-01-20T08:56:09.000Z</time>
      </trkpt>
      <trkpt lat="45.16209" lon="5.914">
        <ele>1797</ele>
        <time>2019-01-20T08:56:10.000Z</time>
      </trkpt>
      <trkpt lat="45.16209" lon="5.914">
        <ele>1798</ele>
        <time>2019-01-20T08:56:11.000Z</time>
      </trkpt>
      <trkpt lat="45.16209" lon="5.914">
        <ele>1799</ele>
        <time>2019-01-20T08:56:12.000Z</time>
      </trkpt>
      <trkpt lat="45.16207" lon="5.91402">
        <ele>1799</ele>
        <time>2019-01-20T08:56:13.000Z</time>
      </trkpt>
      <trkpt lat="45.16207" lon="5.91402">
        <ele>1799</ele>
        <time>2019-01-20T08:56:14.000Z</time>
      </trkpt>
      <trkpt lat="45.16207" lon="5.91402">
        <ele>1799</ele>
        <time>2019-01-20T08:56:15.000Z</time>
      </trkpt>
      <trkpt lat="45.16207" lon="5.91402">
        <ele>1799</ele>
        <time>2019-01-20T08:56:16.000Z</time>
      </trkpt>
      <trkpt lat="45.16205" lon="5.91403">
        <ele>1799</ele>
        <time>2019-01-20T08:56:17.000Z</time>
      </trkpt>
      <trkpt lat="45.16205" lon="5.91403">
        <ele>1799</ele>
        <time>2019-01-20T08:56:18.000Z</time>
      </trkpt>
      <trkpt lat="45.16203" lon="5.91405">
        <ele>1799</ele>
        <time>2019-01-20T08:56:19.000Z</time>
      </trkpt>
      <trkpt lat="45.16203" lon="5.91405">
        <ele>1800</ele>
        <time>2019-01-20T08:56:20.000Z</time>
      </trkpt>
      <trkpt lat="45.16203" lon="5.91405">
        <ele>1800</ele>
        <time>2019-01-20T08:56:21.000Z</time>
      </trkpt>
      <trkpt lat="45.16201" lon="5.91406">
        <ele>1800</ele>
        <time>2019-01-20T08:56:22.000Z</time>
      </trkpt>
      <trkpt lat="45.16201" lon="5.91406">
        <ele>1800</ele>
        <time>2019-01-20T08:56:23.000Z</time>
      </trkpt>
      <trkpt lat="45.16201" lon="5.91406">
        <ele>1800</ele>
        <time>2019-01-20T08:56:24.000Z</time>
      </trkpt>
      <trkpt lat="45.16198" lon="5.91406">
        <ele>1801</ele>
        <time>2019-01-20T08:56:25.000Z</time>
      </trkpt>
      <trkpt lat="45.16198" lon="5.91406">
        <ele>1801</ele>
        <time>2019-01-20T08:56:26.000Z</time>
      </trkpt>
      <trkpt lat="45.16196" lon="5.91403">
        <ele>1801.6</ele>
        <time>2019-01-20T08:56:28.000Z</time>
      </trkpt>
      <trkpt lat="45.16196" lon="5.91403">
        <ele>1802</ele>
        <time>2019-01-20T08:56:29.000Z</time>
      </trkpt>
      <trkpt lat="45.16196" lon="5.91403">
        <ele>1802</ele>
        <time>2019-01-20T08:56:30.000Z</time>
      </trkpt>
      <trkpt lat="45.16195" lon="5.91401">
        <ele>1802</ele>
        <time>2019-01-20T08:56:31.000Z</time>
      </trkpt>
      <trkpt lat="45.16195" lon="5.91401">
        <ele>1802</ele>
        <time>2019-01-20T08:56:32.000Z</time>
      </trkpt>
      <trkpt lat="45.16195" lon="5.91401">
        <ele>1802</ele>
        <time>2019-01-20T08:56:33.000Z</time>
      </trkpt>
      <trkpt lat="45.16195" lon="5.91401">
        <ele>1802</ele>
        <time>2019-01-20T08:56:34.000Z</time>
      </trkpt>
      <trkpt lat="45.16193" lon="5.914">
        <ele>1802</ele>
        <time>2019-01-20T08:56:35.000Z</time>
      </trkpt>
      <trkpt lat="45.16193" lon="5.914">
        <ele>1802</ele>
        <time>2019-01-20T08:56:36.000Z</time>
      </trkpt>
      <trkpt lat="45.16193" lon="5.914">
        <ele>1802</ele>
        <time>2019-01-20T08:56:37.000Z</time>
      </trkpt>
      <trkpt lat="45.16191" lon="5.91397">
        <ele>1802</ele>
        <time>2019-01-20T08:56:38.000Z</time>
      </trkpt>
      <trkpt lat="45.16191" lon="5.91397">
        <ele>1802</ele>
        <time>2019-01-20T08:56:39.000Z</time>
      </trkpt>
      <trkpt lat="45.1619" lon="5.91395">
        <ele>1802</ele>
        <time>2019-01-20T08:56:40.000Z</time>
      </trkpt>
      <trkpt lat="45.1619" lon="5.91395">
        <ele>1802</ele>
        <time>2019-01-20T08:56:41.000Z</time>
      </trkpt>
      <trkpt lat="45.1619" lon="5.91395">
        <ele>1803</ele>
        <time>2019-01-20T08:56:42.000Z</time>
      </trkpt>
      <trkpt lat="45.16189" lon="5.91392">
        <ele>1803</ele>
        <time>2019-01-20T08:56:43.000Z</time>
      </trkpt>
      <trkpt lat="45.16189" lon="5.91392">
        <ele>1803</ele>
        <time>2019-01-20T08:56:44.000Z</time>
      </trkpt>
      <trkpt lat="45.16189" lon="5.91392">
        <ele>1804</ele>
        <time>2019-01-20T08:56:45.000Z</time>
      </trkpt>
      <trkpt lat="45.16188" lon="5.91389">
        <ele>1804</ele>
        <time>2019-01-20T08:56:46.000Z</time>
      </trkpt>
      <trkpt lat="45.16188" lon="5.91389">
        <ele>1804</ele>
        <time>2019-01-20T08:56:47.000Z</time>
      </trkpt>
      <trkpt lat="45.16188" lon="5.91389">
        <ele>1804</ele>
        <time>2019-01-20T08:56:48.000Z</time>
      </trkpt>
      <trkpt lat="45.16187" lon="5.91386">
        <ele>1804</ele>
        <time>2019-01-20T08:56:49.000Z</time>
      </trkpt>
      <trkpt lat="45.16187" lon="5.91386">
        <ele>1805</ele>
        <time>2019-01-20T08:56:51.000Z</time>
      </trkpt>
      <trkpt lat="45.16185" lon="5.91384">
        <ele>1806</ele>
        <time>2019-01-20T08:56:52.000Z</time>
      </trkpt>
      <trkpt lat="45.16185" lon="5.91384">
        <ele>1806</ele>
        <time>2019-01-20T08:56:53.000Z</time>
      </trkpt>
      <trkpt lat="45.16185" lon="5.91384">
        <ele>1806</ele>
        <time>2019-01-20T08:56:54.000Z</time>
      </trkpt>
      <trkpt lat="45.16183" lon="5.91383">
        <ele>1806</ele>
        <time>2019-01-20T08:56:55.000Z</time>
      </trkpt>
      <trkpt lat="45.16183" lon="5.91383">
        <ele>1807</ele>
        <time>2019-01-20T08:56:56.000Z</time>
      </trkpt>
      <trkpt lat="45.16183" lon="5.91383">
        <ele>1807</ele>
        <time>2019-01-20T08:56:57.000Z</time>
      </trkpt>
      <trkpt lat="45.16183" lon="5.91383">
        <ele>1808</ele>
        <time>2019-01-20T08:56:58.000Z</time>
      </trkpt>
      <trkpt lat="45.16181" lon="5.91384">
        <ele>1808</ele>
        <time>2019-01-20T08:56:59.000Z</time>
      </trkpt>
      <trkpt lat="45.16181" lon="5.91384">
        <ele>1808</ele>
        <time>2019-01-20T08:57:00.000Z</time>
      </trkpt>
      <trkpt lat="45.16181" lon="5.91384">
        <ele>1808</ele>
        <time>2019-01-20T08:57:01.000Z</time>
      </trkpt>
      <trkpt lat="45.16179" lon="5.91385">
        <ele>1808</ele>
        <time>2019-01-20T08:57:02.000Z</time>
      </trkpt>
      <trkpt lat="45.16179" lon="5.91385">
        <ele>1808</ele>
        <time>2019-01-20T08:57:03.000Z</time>
      </trkpt>
      <trkpt lat="45.16179" lon="5.91385">
        <ele>1809</ele>
        <time>2019-01-20T08:57:04.000Z</time>
      </trkpt>
      <trkpt lat="45.16177" lon="5.91386">
        <ele>1810</ele>
        <time>2019-01-20T08:57:06.000Z</time>
      </trkpt>
      <trkpt lat="45.16177" lon="5.91386">
        <ele>1810</ele>
        <time>2019-01-20T08:57:07.000Z</time>
      </trkpt>
      <trkpt lat="45.16177" lon="5.91386">
        <ele>1810</ele>
        <time>2019-01-20T08:57:08.000Z</time>
      </trkpt>
      <trkpt lat="45.16175" lon="5.91387">
        <ele>1810</ele>
        <time>2019-01-20T08:57:09.000Z</time>
      </trkpt>
      <trkpt lat="45.16175" lon="5.91387">
        <ele>1810</ele>
        <time>2019-01-20T08:57:10.000Z</time>
      </trkpt>
      <trkpt lat="45.16175" lon="5.91387">
        <ele>1810</ele>
        <time>2019-01-20T08:57:11.000Z</time>
      </trkpt>
      <trkpt lat="45.16173" lon="5.91389">
        <ele>1811</ele>
        <time>2019-01-20T08:57:12.000Z</time>
      </trkpt>
      <trkpt lat="45.16173" lon="5.91389">
        <ele>1812</ele>
        <time>2019-01-20T08:57:13.000Z</time>
      </trkpt>
      <trkpt lat="45.16173" lon="5.91389">
        <ele>1812</ele>
        <time>2019-01-20T08:57:14.000Z</time>
      </trkpt>
      <trkpt lat="45.16173" lon="5.91389">
        <ele>1812</ele>
        <time>2019-01-20T08:57:15.000Z</time>
      </trkpt>
      <trkpt lat="45.16172" lon="5.91391">
        <ele>1812</ele>
        <time>2019-01-20T08:57:16.000Z</time>
      </trkpt>
      <trkpt lat="45.16172" lon="5.91391">
        <ele>1812</ele>
        <time>2019-01-20T08:57:17.000Z</time>
      </trkpt>
      <trkpt lat="45.16172" lon="5.91391">
        <ele>1812</ele>
        <time>2019-01-20T08:57:18.000Z</time>
      </trkpt>
      <trkpt lat="45.16172" lon="5.91391">
        <ele>1812</ele>
        <time>2019-01-20T08:57:19.000Z</time>
      </trkpt>
      <trkpt lat="45.16172" lon="5.91394">
        <ele>1813</ele>
        <time>2019-01-20T08:57:20.000Z</time>
      </trkpt>
      <trkpt lat="45.16172" lon="5.91394">
        <ele>1813</ele>
        <time>2019-01-20T08:57:21.000Z</time>
      </trkpt>
      <trkpt lat="45.16172" lon="5.91394">
        <ele>1813</ele>
        <time>2019-01-20T08:57:22.000Z</time>
      </trkpt>
      <trkpt lat="45.16172" lon="5.91394">
        <ele>1813</ele>
        <time>2019-01-20T08:57:23.000Z</time>
      </trkpt>
      <trkpt lat="45.16171" lon="5.91397">
        <ele>1813</ele>
        <time>2019-01-20T08:57:24.000Z</time>
      </trkpt>
      <trkpt lat="45.16171" lon="5.91397">
        <ele>1813.6</ele>
        <time>2019-01-20T08:57:25.000Z</time>
      </trkpt>
      <trkpt lat="45.16171" lon="5.91397">
        <ele>1814</ele>
        <time>2019-01-20T08:57:26.000Z</time>
      </trkpt>
      <trkpt lat="45.16171" lon="5.91397">
        <ele>1815</ele>
        <time>2019-01-20T08:57:27.000Z</time>
      </trkpt>
      <trkpt lat="45.16172" lon="5.91401">
        <ele>1815</ele>
        <time>2019-01-20T08:57:28.000Z</time>
      </trkpt>
      <trkpt lat="45.16172" lon="5.91401">
        <ele>1815</ele>
        <time>2019-01-20T08:57:29.000Z</time>
      </trkpt>
      <trkpt lat="45.16172" lon="5.91403">
        <ele>1815</ele>
        <time>2019-01-20T08:57:30.000Z</time>
      </trkpt>
      <trkpt lat="45.16172" lon="5.91403">
        <ele>1816</ele>
        <time>2019-01-20T08:57:31.000Z</time>
      </trkpt>
      <trkpt lat="45.16172" lon="5.91403">
        <ele>1816</ele>
        <time>2019-01-20T08:57:32.000Z</time>
      </trkpt>
      <trkpt lat="45.16173" lon="5.91407">
        <ele>1816</ele>
        <time>2019-01-20T08:57:33.000Z</time>
      </trkpt>
      <trkpt lat="45.16173" lon="5.91407">
        <ele>1816</ele>
        <time>2019-01-20T08:57:34.000Z</time>
      </trkpt>
      <trkpt lat="45.16173" lon="5.91407">
        <ele>1817</ele>
        <time>2019-01-20T08:57:35.000Z</time>
      </trkpt>
      <trkpt lat="45.16173" lon="5.91407">
        <ele>1817</ele>
        <time>2019-01-20T08:57:36.000Z</time>
      </trkpt>
      <trkpt lat="45.16173" lon="5.9141">
        <ele>1817</ele>
        <time>2019-01-20T08:57:37.000Z</time>
      </trkpt>
      <trkpt lat="45.16173" lon="5.9141">
        <ele>1818</ele>
        <time>2019-01-20T08:57:38.000Z</time>
      </trkpt>
      <trkpt lat="45.16173" lon="5.91413">
        <ele>1818</ele>
        <time>2019-01-20T08:57:40.000Z</time>
      </trkpt>
      <trkpt lat="45.16173" lon="5.91413">
        <ele>1818</ele>
        <time>2019-01-20T08:57:41.000Z</time>
      </trkpt>
      <trkpt lat="45.16173" lon="5.91413">
        <ele>1819</ele>
        <time>2019-01-20T08:57:42.000Z</time>
      </trkpt>
      <trkpt lat="45.16174" lon="5.91416">
        <ele>1819</ele>
        <time>2019-01-20T08:57:43.000Z</time>
      </trkpt>
      <trkpt lat="45.16174" lon="5.91416">
        <ele>1819</ele>
        <time>2019-01-20T08:57:44.000Z</time>
      </trkpt>
      <trkpt lat="45.16174" lon="5.91416">
        <ele>1819</ele>
        <time>2019-01-20T08:57:45.000Z</time>
      </trkpt>
      <trkpt lat="45.16174" lon="5.91416">
        <ele>1819</ele>
        <time>2019-01-20T08:57:46.000Z</time>
      </trkpt>
      <trkpt lat="45.16174" lon="5.91416">
        <ele>1819</ele>
        <time>2019-01-20T08:57:47.000Z</time>
      </trkpt>
      <trkpt lat="45.16174" lon="5.91416">
        <ele>1818</ele>
        <time>2019-01-20T08:57:48.000Z</time>
      </trkpt>
      <trkpt lat="45.16174" lon="5.91416">
        <ele>1818</ele>
        <time>2019-01-20T08:57:49.000Z</time>
      </trkpt>
      <trkpt lat="45.16174" lon="5.91416">
        <ele>1818</ele>
        <time>2019-01-20T08:57:50.000Z</time>
      </trkpt>
      <trkpt lat="45.16174" lon="5.91416">
        <ele>1818</ele>
        <time>2019-01-20T08:57:51.000Z</time>
      </trkpt>
      <trkpt lat="45.16174" lon="5.91416">
        <ele>1818</ele>
        <time>2019-01-20T08:57:52.000Z</time>
      </trkpt>
      <trkpt lat="45.16174" lon="5.91416">
        <ele>1818</ele>
        <time>2019-01-20T08:57:53.000Z</time>
      </trkpt>
      <trkpt lat="45.16174" lon="5.91416">
        <ele>1818</ele>
        <time>2019-01-20T08:57:54.000Z</time>
      </trkpt>
      <trkpt lat="45.16174" lon="5.91416">
        <ele>1818</ele>
        <time>2019-01-20T08:57:55.000Z</time>
      </trkpt>
      <trkpt lat="45.16174" lon="5.91416">
        <ele>1819</ele>
        <time>2019-01-20T08:57:56.000Z</time>
      </trkpt>
      <trkpt lat="45.16174" lon="5.91416">
        <ele>1819</ele>
        <time>2019-01-20T08:57:57.000Z</time>
      </trkpt>
      <trkpt lat="45.16174" lon="5.91416">
        <ele>1819</ele>
        <time>2019-01-20T08:57:58.000Z</time>
      </trkpt>
      <trkpt lat="45.16174" lon="5.91416">
        <ele>1819</ele>
        <time>2019-01-20T08:57:59.000Z</time>
      </trkpt>
      <trkpt lat="45.16172" lon="5.91417">
        <ele>1819</ele>
        <time>2019-01-20T08:58:00.000Z</time>
      </trkpt>
      <trkpt lat="45.16172" lon="5.91417">
        <ele>1819</ele>
        <time>2019-01-20T08:58:01.000Z</time>
      </trkpt>
      <trkpt lat="45.16172" lon="5.91417">
        <ele>1819.6</ele>
        <time>2019-01-20T08:58:03.000Z</time>
      </trkpt>
      <trkpt lat="45.1617" lon="5.91417">
        <ele>1820</ele>
        <time>2019-01-20T08:58:04.000Z</time>
      </trkpt>
      <trkpt lat="45.1617" lon="5.91417">
        <ele>1820</ele>
        <time>2019-01-20T08:58:05.000Z</time>
      </trkpt>
      <trkpt lat="45.1617" lon="5.91417">
        <ele>1820</ele>
        <time>2019-01-20T08:58:06.000Z</time>
      </trkpt>
      <trkpt lat="45.1617" lon="5.91417">
        <ele>1820</ele>
        <time>2019-01-20T08:58:07.000Z</time>
      </trkpt>
      <trkpt lat="45.1617" lon="5.91417">
        <ele>1820</ele>
        <time>2019-01-20T08:58:08.000Z</time>
      </trkpt>
      <trkpt lat="45.16168" lon="5.91416">
        <ele>1820</ele>
        <time>2019-01-20T08:58:09.000Z</time>
      </trkpt>
      <trkpt lat="45.16168" lon="5.91416">
        <ele>1820</ele>
        <time>2019-01-20T08:58:10.000Z</time>
      </trkpt>
      <trkpt lat="45.16166" lon="5.91416">
        <ele>1821</ele>
        <time>2019-01-20T08:58:11.000Z</time>
      </trkpt>
      <trkpt lat="45.16166" lon="5.91416">
        <ele>1821</ele>
        <time>2019-01-20T08:58:12.000Z</time>
      </trkpt>
      <trkpt lat="45.16166" lon="5.91416">
        <ele>1821</ele>
        <time>2019-01-20T08:58:13.000Z</time>
      </trkpt>
      <trkpt lat="45.16163" lon="5.91415">
        <ele>1822</ele>
        <time>2019-01-20T08:58:14.000Z</time>
      </trkpt>
      <trkpt lat="45.16163" lon="5.91415">
        <ele>1822</ele>
        <time>2019-01-20T08:58:15.000Z</time>
      </trkpt>
      <trkpt lat="45.16163" lon="5.91415">
        <ele>1822</ele>
        <time>2019-01-20T08:58:16.000Z</time>
      </trkpt>
      <trkpt lat="45.16163" lon="5.91415">
        <ele>1822</ele>
        <time>2019-01-20T08:58:17.000Z</time>
      </trkpt>
      <trkpt lat="45.16163" lon="5.91415">
        <ele>1822</ele>
        <time>2019-01-20T08:58:18.000Z</time>
      </trkpt>
      <trkpt lat="45.16162" lon="5.91414">
        <ele>1823</ele>
        <time>2019-01-20T08:58:19.000Z</time>
      </trkpt>
      <trkpt lat="45.16162" lon="5.91414">
        <ele>1823</ele>
        <time>2019-01-20T08:58:20.000Z</time>
      </trkpt>
      <trkpt lat="45.16159" lon="5.91413">
        <ele>1823</ele>
        <time>2019-01-20T08:58:22.000Z</time>
      </trkpt>
      <trkpt lat="45.16159" lon="5.91413">
        <ele>1823.6</ele>
        <time>2019-01-20T08:58:24.000Z</time>
      </trkpt>
      <trkpt lat="45.16157" lon="5.91413">
        <ele>1824</ele>
        <time>2019-01-20T08:58:25.000Z</time>
      </trkpt>
      <trkpt lat="45.16157" lon="5.91413">
        <ele>1825</ele>
        <time>2019-01-20T08:58:26.000Z</time>
      </trkpt>
      <trkpt lat="45.16157" lon="5.91413">
        <ele>1825</ele>
        <time>2019-01-20T08:58:27.000Z</time>
      </trkpt>
      <trkpt lat="45.16155" lon="5.91412">
        <ele>1825</ele>
        <time>2019-01-20T08:58:28.000Z</time>
      </trkpt>
      <trkpt lat="45.16155" lon="5.91412">
        <ele>1826</ele>
        <time>2019-01-20T08:58:29.000Z</time>
      </trkpt>
      <trkpt lat="45.16155" lon="5.91412">
        <ele>1826</ele>
        <time>2019-01-20T08:58:30.000Z</time>
      </trkpt>
      <trkpt lat="45.16152" lon="5.91412">
        <ele>1826</ele>
        <time>2019-01-20T08:58:31.000Z</time>
      </trkpt>
      <trkpt lat="45.16152" lon="5.91412">
        <ele>1827</ele>
        <time>2019-01-20T08:58:32.000Z</time>
      </trkpt>
      <trkpt lat="45.16152" lon="5.91412">
        <ele>1827</ele>
        <time>2019-01-20T08:58:33.000Z</time>
      </trkpt>
      <trkpt lat="45.1615" lon="5.91412">
        <ele>1827</ele>
        <time>2019-01-20T08:58:34.000Z</time>
      </trkpt>
      <trkpt lat="45.1615" lon="5.91412">
        <ele>1827</ele>
        <time>2019-01-20T08:58:35.000Z</time>
      </trkpt>
      <trkpt lat="45.1615" lon="5.91412">
        <ele>1827</ele>
        <time>2019-01-20T08:58:36.000Z</time>
      </trkpt>
      <trkpt lat="45.1615" lon="5.91412">
        <ele>1827</ele>
        <time>2019-01-20T08:58:37.000Z</time>
      </trkpt>
      <trkpt lat="45.1615" lon="5.91412">
        <ele>1827</ele>
        <time>2019-01-20T08:58:38.000Z</time>
      </trkpt>
      <trkpt lat="45.1615" lon="5.91412">
        <ele>1827</ele>
        <time>2019-01-20T08:58:39.000Z</time>
      </trkpt>
      <trkpt lat="45.1615" lon="5.91412">
        <ele>1827</ele>
        <time>2019-01-20T08:58:41.000Z</time>
      </trkpt>
      <trkpt lat="45.1615" lon="5.91412">
        <ele>1827</ele>
        <time>2019-01-20T08:58:42.000Z</time>
      </trkpt>
      <trkpt lat="45.1615" lon="5.91412">
        <ele>1827</ele>
        <time>2019-01-20T08:58:43.000Z</time>
      </trkpt>
      <trkpt lat="45.16151" lon="5.91416">
        <ele>1828</ele>
        <time>2019-01-20T08:58:44.000Z</time>
      </trkpt>
      <trkpt lat="45.16151" lon="5.91416">
        <ele>1828</ele>
        <time>2019-01-20T08:58:45.000Z</time>
      </trkpt>
      <trkpt lat="45.16151" lon="5.91416">
        <ele>1828</ele>
        <time>2019-01-20T08:58:46.000Z</time>
      </trkpt>
      <trkpt lat="45.16152" lon="5.91418">
        <ele>1828</ele>
        <time>2019-01-20T08:58:47.000Z</time>
      </trkpt>
      <trkpt lat="45.16152" lon="5.91418">
        <ele>1829</ele>
        <time>2019-01-20T08:58:48.000Z</time>
      </trkpt>
      <trkpt lat="45.16152" lon="5.91418">
        <ele>1829</ele>
        <time>2019-01-20T08:58:49.000Z</time>
      </trkpt>
      <trkpt lat="45.16153" lon="5.91421">
        <ele>1829</ele>
        <time>2019-01-20T08:58:50.000Z</time>
      </trkpt>
      <trkpt lat="45.16153" lon="5.91421">
        <ele>1829</ele>
        <time>2019-01-20T08:58:51.000Z</time>
      </trkpt>
      <trkpt lat="45.16153" lon="5.91421">
        <ele>1829</ele>
        <time>2019-01-20T08:58:52.000Z</time>
      </trkpt>
      <trkpt lat="45.16154" lon="5.91423">
        <ele>1829</ele>
        <time>2019-01-20T08:58:53.000Z</time>
      </trkpt>
      <trkpt lat="45.16154" lon="5.91423">
        <ele>1830</ele>
        <time>2019-01-20T08:58:54.000Z</time>
      </trkpt>
      <trkpt lat="45.16154" lon="5.91423">
        <ele>1830</ele>
        <time>2019-01-20T08:58:55.000Z</time>
      </trkpt>
      <trkpt lat="45.16154" lon="5.91423">
        <ele>1830</ele>
        <time>2019-01-20T08:58:56.000Z</time>
      </trkpt>
      <trkpt lat="45.16155" lon="5.91426">
        <ele>1830</ele>
        <time>2019-01-20T08:58:57.000Z</time>
      </trkpt>
      <trkpt lat="45.16155" lon="5.91426">
        <ele>1830</ele>
        <time>2019-01-20T08:58:58.000Z</time>
      </trkpt>
      <trkpt lat="45.16155" lon="5.91426">
        <ele>1831</ele>
        <time>2019-01-20T08:59:00.000Z</time>
      </trkpt>
      <trkpt lat="45.16155" lon="5.91426">
        <ele>1831</ele>
        <time>2019-01-20T08:59:01.000Z</time>
      </trkpt>
      <trkpt lat="45.16155" lon="5.91426">
        <ele>1831</ele>
        <time>2019-01-20T08:59:02.000Z</time>
      </trkpt>
      <trkpt lat="45.16153" lon="5.91426">
        <ele>1831</ele>
        <time>2019-01-20T08:59:03.000Z</time>
      </trkpt>
      <trkpt lat="45.16153" lon="5.91426">
        <ele>1831</ele>
        <time>2019-01-20T08:59:04.000Z</time>
      </trkpt>
      <trkpt lat="45.16153" lon="5.91426">
        <ele>1832</ele>
        <time>2019-01-20T08:59:05.000Z</time>
      </trkpt>
      <trkpt lat="45.16151" lon="5.91425">
        <ele>1832</ele>
        <time>2019-01-20T08:59:06.000Z</time>
      </trkpt>
      <trkpt lat="45.16151" lon="5.91425">
        <ele>1832</ele>
        <time>2019-01-20T08:59:07.000Z</time>
      </trkpt>
      <trkpt lat="45.16151" lon="5.91425">
        <ele>1832</ele>
        <time>2019-01-20T08:59:08.000Z</time>
      </trkpt>
      <trkpt lat="45.16149" lon="5.91424">
        <ele>1832</ele>
        <time>2019-01-20T08:59:09.000Z</time>
      </trkpt>
      <trkpt lat="45.16149" lon="5.91424">
        <ele>1832</ele>
        <time>2019-01-20T08:59:10.000Z</time>
      </trkpt>
      <trkpt lat="45.16149" lon="5.91424">
        <ele>1832</ele>
        <time>2019-01-20T08:59:11.000Z</time>
      </trkpt>
      <trkpt lat="45.16147" lon="5.91422">
        <ele>1833</ele>
        <time>2019-01-20T08:59:12.000Z</time>
      </trkpt>
      <trkpt lat="45.16147" lon="5.91422">
        <ele>1833</ele>
        <time>2019-01-20T08:59:13.000Z</time>
      </trkpt>
      <trkpt lat="45.16145" lon="5.91421">
        <ele>1833</ele>
        <time>2019-01-20T08:59:14.000Z</time>
      </trkpt>
      <trkpt lat="45.16145" lon="5.91421">
        <ele>1833</ele>
        <time>2019-01-20T08:59:15.000Z</time>
      </trkpt>
      <trkpt lat="45.16143" lon="5.9142">
        <ele>1834</ele>
        <time>2019-01-20T08:59:16.000Z</time>
      </trkpt>
      <trkpt lat="45.16143" lon="5.9142">
        <ele>1834</ele>
        <time>2019-01-20T08:59:17.000Z</time>
      </trkpt>
      <trkpt lat="45.16141" lon="5.91419">
        <ele>1834</ele>
        <time>2019-01-20T08:59:18.000Z</time>
      </trkpt>
      <trkpt lat="45.16141" lon="5.91419">
        <ele>1834</ele>
        <time>2019-01-20T08:59:19.000Z</time>
      </trkpt>
      <trkpt lat="45.16141" lon="5.91419">
        <ele>1835</ele>
        <time>2019-01-20T08:59:20.000Z</time>
      </trkpt>
      <trkpt lat="45.16139" lon="5.91418">
        <ele>1835</ele>
        <time>2019-01-20T08:59:21.000Z</time>
      </trkpt>
      <trkpt lat="45.16139" lon="5.91418">
        <ele>1835</ele>
        <time>2019-01-20T08:59:22.000Z</time>
      </trkpt>
      <trkpt lat="45.16139" lon="5.91418">
        <ele>1836</ele>
        <time>2019-01-20T08:59:23.000Z</time>
      </trkpt>
      <trkpt lat="45.16137" lon="5.91417">
        <ele>1836</ele>
        <time>2019-01-20T08:59:24.000Z</time>
      </trkpt>
      <trkpt lat="45.16137" lon="5.91417">
        <ele>1836</ele>
        <time>2019-01-20T08:59:25.000Z</time>
      </trkpt>
      <trkpt lat="45.16137" lon="5.91417">
        <ele>1836</ele>
        <time>2019-01-20T08:59:26.000Z</time>
      </trkpt>
      <trkpt lat="45.16134" lon="5.91416">
        <ele>1836</ele>
        <time>2019-01-20T08:59:27.000Z</time>
      </trkpt>
      <trkpt lat="45.16134" lon="5.91416">
        <ele>1837</ele>
        <time>2019-01-20T08:59:28.000Z</time>
      </trkpt>
      <trkpt lat="45.16134" lon="5.91416">
        <ele>1838</ele>
        <time>2019-01-20T08:59:29.000Z</time>
      </trkpt>
      <trkpt lat="45.16132" lon="5.91415">
        <ele>1838</ele>
        <time>2019-01-20T08:59:30.000Z</time>
      </trkpt>
      <trkpt lat="45.16132" lon="5.91415">
        <ele>1838</ele>
        <time>2019-01-20T08:59:31.000Z</time>
      </trkpt>
      <trkpt lat="45.16132" lon="5.91415">
        <ele>1838</ele>
        <time>2019-01-20T08:59:32.000Z</time>
      </trkpt>
      <trkpt lat="45.1613" lon="5.91413">
        <ele>1838</ele>
        <time>2019-01-20T08:59:33.000Z</time>
      </trkpt>
      <trkpt lat="45.1613" lon="5.91413">
        <ele>1838</ele>
        <time>2019-01-20T08:59:34.000Z</time>
      </trkpt>
      <trkpt lat="45.1613" lon="5.91413">
        <ele>1839</ele>
        <time>2019-01-20T08:59:35.000Z</time>
      </trkpt>
      <trkpt lat="45.16128" lon="5.91411">
        <ele>1839</ele>
        <time>2019-01-20T08:59:36.000Z</time>
      </trkpt>
      <trkpt lat="45.16127" lon="5.9141">
        <ele>1840</ele>
        <time>2019-01-20T08:59:38.000Z</time>
      </trkpt>
      <trkpt lat="45.16127" lon="5.9141">
        <ele>1840</ele>
        <time>2019-01-20T08:59:40.000Z</time>
      </trkpt>
      <trkpt lat="45.16125" lon="5.91408">
        <ele>1841</ele>
        <time>2019-01-20T08:59:41.000Z</time>
      </trkpt>
      <trkpt lat="45.16125" lon="5.91408">
        <ele>1841</ele>
        <time>2019-01-20T08:59:42.000Z</time>
      </trkpt>
      <trkpt lat="45.16125" lon="5.91408">
        <ele>1841</ele>
        <time>2019-01-20T08:59:43.000Z</time>
      </trkpt>
      <trkpt lat="45.16123" lon="5.91406">
        <ele>1841</ele>
        <time>2019-01-20T08:59:44.000Z</time>
      </trkpt>
      <trkpt lat="45.16123" lon="5.91406">
        <ele>1842</ele>
        <time>2019-01-20T08:59:45.000Z</time>
      </trkpt>
      <trkpt lat="45.16123" lon="5.91406">
        <ele>1842</ele>
        <time>2019-01-20T08:59:46.000Z</time>
      </trkpt>
      <trkpt lat="45.16123" lon="5.91406">
        <ele>1842</ele>
        <time>2019-01-20T08:59:47.000Z</time>
      </trkpt>
      <trkpt lat="45.16121" lon="5.91405">
        <ele>1842</ele>
        <time>2019-01-20T08:59:48.000Z</time>
      </trkpt>
      <trkpt lat="45.16121" lon="5.91405">
        <ele>1843</ele>
        <time>2019-01-20T08:59:49.000Z</time>
      </trkpt>
      <trkpt lat="45.16121" lon="5.91405">
        <ele>1843</ele>
        <time>2019-01-20T08:59:50.000Z</time>
      </trkpt>
      <trkpt lat="45.16121" lon="5.91405">
        <ele>1843</ele>
        <time>2019-01-20T08:59:51.000Z</time>
      </trkpt>
      <trkpt lat="45.16119" lon="5.91403">
        <ele>1844</ele>
        <time>2019-01-20T08:59:52.000Z</time>
      </trkpt>
      <trkpt lat="45.16119" lon="5.91403">
        <ele>1844</ele>
        <time>2019-01-20T08:59:53.000Z</time>
      </trkpt>
      <trkpt lat="45.16119" lon="5.91403">
        <ele>1844</ele>
        <time>2019-01-20T08:59:54.000Z</time>
      </trkpt>
      <trkpt lat="45.16119" lon="5.91403">
        <ele>1844</ele>
        <time>2019-01-20T08:59:55.000Z</time>
      </trkpt>
      <trkpt lat="45.16119" lon="5.91403">
        <ele>1844</ele>
        <time>2019-01-20T08:59:57.000Z</time>
      </trkpt>
      <trkpt lat="45.16119" lon="5.91403">
        <ele>1844</ele>
        <time>2019-01-20T08:59:58.000Z</time>
      </trkpt>
      <trkpt lat="45.16118" lon="5.91402">
        <ele>1845</ele>
        <time>2019-01-20T08:59:59.000Z</time>
      </trkpt>
      <trkpt lat="45.16118" lon="5.91402">
        <ele>1845</ele>
        <time>2019-01-20T09:00:00.000Z</time>
      </trkpt>
      <trkpt lat="45.16118" lon="5.91402">
        <ele>1845</ele>
        <time>2019-01-20T09:00:01.000Z</time>
      </trkpt>
      <trkpt lat="45.16116" lon="5.914">
        <ele>1845</ele>
        <time>2019-01-20T09:00:02.000Z</time>
      </trkpt>
      <trkpt lat="45.16116" lon="5.914">
        <ele>1845</ele>
        <time>2019-01-20T09:00:03.000Z</time>
      </trkpt>
      <trkpt lat="45.16116" lon="5.914">
        <ele>1845</ele>
        <time>2019-01-20T09:00:04.000Z</time>
      </trkpt>
      <trkpt lat="45.16114" lon="5.91399">
        <ele>1845</ele>
        <time>2019-01-20T09:00:05.000Z</time>
      </trkpt>
      <trkpt lat="45.16114" lon="5.91399">
        <ele>1845</ele>
        <time>2019-01-20T09:00:06.000Z</time>
      </trkpt>
      <trkpt lat="45.16112" lon="5.91398">
        <ele>1845</ele>
        <time>2019-01-20T09:00:07.000Z</time>
      </trkpt>
      <trkpt lat="45.16112" lon="5.91398">
        <ele>1846</ele>
        <time>2019-01-20T09:00:08.000Z</time>
      </trkpt>
      <trkpt lat="45.1611" lon="5.91396">
        <ele>1846</ele>
        <time>2019-01-20T09:00:09.000Z</time>
      </trkpt>
      <trkpt lat="45.1611" lon="5.91396">
        <ele>1846</ele>
        <time>2019-01-20T09:00:10.000Z</time>
      </trkpt>
      <trkpt lat="45.16109" lon="5.91395">
        <ele>1847</ele>
        <time>2019-01-20T09:00:11.000Z</time>
      </trkpt>
      <trkpt lat="45.16109" lon="5.91395">
        <ele>1848</ele>
        <time>2019-01-20T09:00:12.000Z</time>
      </trkpt>
      <trkpt lat="45.16109" lon="5.91395">
        <ele>1848</ele>
        <time>2019-01-20T09:00:13.000Z</time>
      </trkpt>
      <trkpt lat="45.16107" lon="5.91393">
        <ele>1848</ele>
        <time>2019-01-20T09:00:14.000Z</time>
      </trkpt>
      <trkpt lat="45.16107" lon="5.91393">
        <ele>1848.4</ele>
        <time>2019-01-20T09:00:16.000Z</time>
      </trkpt>
      <trkpt lat="45.16104" lon="5.91391">
        <ele>1849</ele>
        <time>2019-01-20T09:00:17.000Z</time>
      </trkpt>
      <trkpt lat="45.16104" lon="5.91391">
        <ele>1849</ele>
        <time>2019-01-20T09:00:18.000Z</time>
      </trkpt>
      <trkpt lat="45.16104" lon="5.91391">
        <ele>1849</ele>
        <time>2019-01-20T09:00:19.000Z</time>
      </trkpt>
      <trkpt lat="45.16103" lon="5.9139">
        <ele>1849</ele>
        <time>2019-01-20T09:00:20.000Z</time>
      </trkpt>
      <trkpt lat="45.16103" lon="5.9139">
        <ele>1849</ele>
        <time>2019-01-20T09:00:21.000Z</time>
      </trkpt>
      <trkpt lat="45.16103" lon="5.9139">
        <ele>1850</ele>
        <time>2019-01-20T09:00:22.000Z</time>
      </trkpt>
      <trkpt lat="45.16101" lon="5.91388">
        <ele>1850</ele>
        <time>2019-01-20T09:00:23.000Z</time>
      </trkpt>
      <trkpt lat="45.16101" lon="5.91388">
        <ele>1850</ele>
        <time>2019-01-20T09:00:24.000Z</time>
      </trkpt>
      <trkpt lat="45.16101" lon="5.91388">
        <ele>1850</ele>
        <time>2019-01-20T09:00:25.000Z</time>
      </trkpt>
      <trkpt lat="45.16098" lon="5.91388">
        <ele>1850</ele>
        <time>2019-01-20T09:00:26.000Z</time>
      </trkpt>
      <trkpt lat="45.16098" lon="5.91388">
        <ele>1851</ele>
        <time>2019-01-20T09:00:27.000Z</time>
      </trkpt>
      <trkpt lat="45.16098" lon="5.91388">
        <ele>1851</ele>
        <time>2019-01-20T09:00:28.000Z</time>
      </trkpt>
      <trkpt lat="45.16096" lon="5.91388">
        <ele>1851</ele>
        <time>2019-01-20T09:00:29.000Z</time>
      </trkpt>
      <trkpt lat="45.16096" lon="5.91388">
        <ele>1851</ele>
        <time>2019-01-20T09:00:30.000Z</time>
      </trkpt>
      <trkpt lat="45.16096" lon="5.91388">
        <ele>1851</ele>
        <time>2019-01-20T09:00:31.000Z</time>
      </trkpt>
      <trkpt lat="45.16094" lon="5.91387">
        <ele>1851</ele>
        <time>2019-01-20T09:00:32.000Z</time>
      </trkpt>
      <trkpt lat="45.16094" lon="5.91387">
        <ele>1851</ele>
        <time>2019-01-20T09:00:33.000Z</time>
      </trkpt>
      <trkpt lat="45.16092" lon="5.91387">
        <ele>1852</ele>
        <time>2019-01-20T09:00:35.000Z</time>
      </trkpt>
      <trkpt lat="45.16092" lon="5.91387">
        <ele>1852</ele>
        <time>2019-01-20T09:00:36.000Z</time>
      </trkpt>
      <trkpt lat="45.16092" lon="5.91387">
        <ele>1853</ele>
        <time>2019-01-20T09:00:37.000Z</time>
      </trkpt>
      <trkpt lat="45.16089" lon="5.91387">
        <ele>1854</ele>
        <time>2019-01-20T09:00:38.000Z</time>
      </trkpt>
      <trkpt lat="45.16089" lon="5.91387">
        <ele>1854</ele>
        <time>2019-01-20T09:00:39.000Z</time>
      </trkpt>
      <trkpt lat="45.16089" lon="5.91387">
        <ele>1855</ele>
        <time>2019-01-20T09:00:40.000Z</time>
      </trkpt>
      <trkpt lat="45.16087" lon="5.91387">
        <ele>1855</ele>
        <time>2019-01-20T09:00:41.000Z</time>
      </trkpt>
      <trkpt lat="45.16087" lon="5.91387">
        <ele>1855</ele>
        <time>2019-01-20T09:00:42.000Z</time>
      </trkpt>
      <trkpt lat="45.16087" lon="5.91387">
        <ele>1855</ele>
        <time>2019-01-20T09:00:43.000Z</time>
      </trkpt>
      <trkpt lat="45.16087" lon="5.91387">
        <ele>1855</ele>
        <time>2019-01-20T09:00:44.000Z</time>
      </trkpt>
      <trkpt lat="45.16087" lon="5.91387">
        <ele>1855</ele>
        <time>2019-01-20T09:00:45.000Z</time>
      </trkpt>
      <trkpt lat="45.16087" lon="5.91387">
        <ele>1855</ele>
        <time>2019-01-20T09:00:46.000Z</time>
      </trkpt>
      <trkpt lat="45.16087" lon="5.91387">
        <ele>1855</ele>
        <time>2019-01-20T09:00:47.000Z</time>
      </trkpt>
      <trkpt lat="45.16087" lon="5.91387">
        <ele>1855</ele>
        <time>2019-01-20T09:00:48.000Z</time>
      </trkpt>
      <trkpt lat="45.16087" lon="5.91387">
        <ele>1855</ele>
        <time>2019-01-20T09:00:49.000Z</time>
      </trkpt>
      <trkpt lat="45.16087" lon="5.9139">
        <ele>1855</ele>
        <time>2019-01-20T09:00:50.000Z</time>
      </trkpt>
      <trkpt lat="45.16087" lon="5.9139">
        <ele>1856</ele>
        <time>2019-01-20T09:00:51.000Z</time>
      </trkpt>
      <trkpt lat="45.16087" lon="5.9139">
        <ele>1856</ele>
        <time>2019-01-20T09:00:52.000Z</time>
      </trkpt>
      <trkpt lat="45.16088" lon="5.91394">
        <ele>1856</ele>
        <time>2019-01-20T09:00:53.000Z</time>
      </trkpt>
      <trkpt lat="45.16088" lon="5.91394">
        <ele>1857</ele>
        <time>2019-01-20T09:00:54.000Z</time>
      </trkpt>
      <trkpt lat="45.16088" lon="5.91394">
        <ele>1857</ele>
        <time>2019-01-20T09:00:55.000Z</time>
      </trkpt>
      <trkpt lat="45.16089" lon="5.91397">
        <ele>1857</ele>
        <time>2019-01-20T09:00:56.000Z</time>
      </trkpt>
      <trkpt lat="45.16089" lon="5.91397">
        <ele>1858</ele>
        <time>2019-01-20T09:00:57.000Z</time>
      </trkpt>
      <trkpt lat="45.16089" lon="5.91397">
        <ele>1858</ele>
        <time>2019-01-20T09:00:58.000Z</time>
      </trkpt>
      <trkpt lat="45.16089" lon="5.91397">
        <ele>1859</ele>
        <time>2019-01-20T09:00:59.000Z</time>
      </trkpt>
      <trkpt lat="45.16089" lon="5.91397">
        <ele>1859</ele>
        <time>2019-01-20T09:01:00.000Z</time>
      </trkpt>
      <trkpt lat="45.16086" lon="5.91397">
        <ele>1858</ele>
        <time>2019-01-20T09:01:01.000Z</time>
      </trkpt>
      <trkpt lat="45.16086" lon="5.91397">
        <ele>1858</ele>
        <time>2019-01-20T09:01:02.000Z</time>
      </trkpt>
      <trkpt lat="45.16086" lon="5.91397">
        <ele>1858</ele>
        <time>2019-01-20T09:01:03.000Z</time>
      </trkpt>
      <trkpt lat="45.16084" lon="5.91396">
        <ele>1858</ele>
        <time>2019-01-20T09:01:04.000Z</time>
      </trkpt>
      <trkpt lat="45.16084" lon="5.91396">
        <ele>1859</ele>
        <time>2019-01-20T09:01:05.000Z</time>
      </trkpt>
      <trkpt lat="45.16084" lon="5.91396">
        <ele>1859</ele>
        <time>2019-01-20T09:01:06.000Z</time>
      </trkpt>
      <trkpt lat="45.16082" lon="5.91396">
        <ele>1859</ele>
        <time>2019-01-20T09:01:07.000Z</time>
      </trkpt>
      <trkpt lat="45.16082" lon="5.91396">
        <ele>1859</ele>
        <time>2019-01-20T09:01:08.000Z</time>
      </trkpt>
      <trkpt lat="45.1608" lon="5.91396">
        <ele>1859</ele>
        <time>2019-01-20T09:01:09.000Z</time>
      </trkpt>
      <trkpt lat="45.1608" lon="5.91396">
        <ele>1860</ele>
        <time>2019-01-20T09:01:10.000Z</time>
      </trkpt>
      <trkpt lat="45.16078" lon="5.91395">
        <ele>1860</ele>
        <time>2019-01-20T09:01:11.000Z</time>
      </trkpt>
      <trkpt lat="45.16078" lon="5.91395">
        <ele>1860</ele>
        <time>2019-01-20T09:01:13.000Z</time>
      </trkpt>
      <trkpt lat="45.16075" lon="5.91395">
        <ele>1860</ele>
        <time>2019-01-20T09:01:14.000Z</time>
      </trkpt>
      <trkpt lat="45.16075" lon="5.91395">
        <ele>1860</ele>
        <time>2019-01-20T09:01:15.000Z</time>
      </trkpt>
      <trkpt lat="45.16075" lon="5.91395">
        <ele>1861</ele>
        <time>2019-01-20T09:01:16.000Z</time>
      </trkpt>
      <trkpt lat="45.16073" lon="5.91394">
        <ele>1862</ele>
        <time>2019-01-20T09:01:17.000Z</time>
      </trkpt>
      <trkpt lat="45.16073" lon="5.91394">
        <ele>1862</ele>
        <time>2019-01-20T09:01:18.000Z</time>
      </trkpt>
      <trkpt lat="45.16073" lon="5.91394">
        <ele>1862</ele>
        <time>2019-01-20T09:01:19.000Z</time>
      </trkpt>
      <trkpt lat="45.16071" lon="5.91394">
        <ele>1862</ele>
        <time>2019-01-20T09:01:20.000Z</time>
      </trkpt>
      <trkpt lat="45.16071" lon="5.91394">
        <ele>1862</ele>
        <time>2019-01-20T09:01:21.000Z</time>
      </trkpt>
      <trkpt lat="45.16069" lon="5.91393">
        <ele>1862</ele>
        <time>2019-01-20T09:01:22.000Z</time>
      </trkpt>
      <trkpt lat="45.16069" lon="5.91393">
        <ele>1862</ele>
        <time>2019-01-20T09:01:23.000Z</time>
      </trkpt>
      <trkpt lat="45.16067" lon="5.91392">
        <ele>1862</ele>
        <time>2019-01-20T09:01:24.000Z</time>
      </trkpt>
      <trkpt lat="45.16067" lon="5.91392">
        <ele>1862</ele>
        <time>2019-01-20T09:01:25.000Z</time>
      </trkpt>
      <trkpt lat="45.16065" lon="5.91391">
        <ele>1863</ele>
        <time>2019-01-20T09:01:26.000Z</time>
      </trkpt>
      <trkpt lat="45.16065" lon="5.91391">
        <ele>1863</ele>
        <time>2019-01-20T09:01:27.000Z</time>
      </trkpt>
      <trkpt lat="45.16063" lon="5.91391">
        <ele>1863</ele>
        <time>2019-01-20T09:01:28.000Z</time>
      </trkpt>
      <trkpt lat="45.16063" lon="5.91391">
        <ele>1863</ele>
        <time>2019-01-20T09:01:29.000Z</time>
      </trkpt>
      <trkpt lat="45.1606" lon="5.9139">
        <ele>1863</ele>
        <time>2019-01-20T09:01:30.000Z</time>
      </trkpt>
      <trkpt lat="45.16059" lon="5.91389">
        <ele>1863</ele>
        <time>2019-01-20T09:01:32.000Z</time>
      </trkpt>
      <trkpt lat="45.16059" lon="5.91389">
        <ele>1863</ele>
        <time>2019-01-20T09:01:33.000Z</time>
      </trkpt>
      <trkpt lat="45.16057" lon="5.91388">
        <ele>1863</ele>
        <time>2019-01-20T09:01:34.000Z</time>
      </trkpt>
      <trkpt lat="45.16057" lon="5.91388">
        <ele>1863</ele>
        <time>2019-01-20T09:01:35.000Z</time>
      </trkpt>
      <trkpt lat="45.16055" lon="5.91388">
        <ele>1863</ele>
        <time>2019-01-20T09:01:36.000Z</time>
      </trkpt>
      <trkpt lat="45.16055" lon="5.91388">
        <ele>1864</ele>
        <time>2019-01-20T09:01:37.000Z</time>
      </trkpt>
      <trkpt lat="45.16055" lon="5.91388">
        <ele>1864</ele>
        <time>2019-01-20T09:01:38.000Z</time>
      </trkpt>
      <trkpt lat="45.16053" lon="5.91387">
        <ele>1864</ele>
        <time>2019-01-20T09:01:39.000Z</time>
      </trkpt>
      <trkpt lat="45.16053" lon="5.91387">
        <ele>1864</ele>
        <time>2019-01-20T09:01:40.000Z</time>
      </trkpt>
      <trkpt lat="45.16051" lon="5.91386">
        <ele>1864</ele>
        <time>2019-01-20T09:01:41.000Z</time>
      </trkpt>
      <trkpt lat="45.16051" lon="5.91386">
        <ele>1864</ele>
        <time>2019-01-20T09:01:42.000Z</time>
      </trkpt>
      <trkpt lat="45.16048" lon="5.91385">
        <ele>1864</ele>
        <time>2019-01-20T09:01:43.000Z</time>
      </trkpt>
      <trkpt lat="45.16048" lon="5.91385">
        <ele>1865</ele>
        <time>2019-01-20T09:01:44.000Z</time>
      </trkpt>
      <trkpt lat="45.16047" lon="5.91385">
        <ele>1866</ele>
        <time>2019-01-20T09:01:45.000Z</time>
      </trkpt>
      <trkpt lat="45.16047" lon="5.91385">
        <ele>1866</ele>
        <time>2019-01-20T09:01:46.000Z</time>
      </trkpt>
      <trkpt lat="45.16044" lon="5.91384">
        <ele>1865</ele>
        <time>2019-01-20T09:01:47.000Z</time>
      </trkpt>
      <trkpt lat="45.16044" lon="5.91384">
        <ele>1865</ele>
        <time>2019-01-20T09:01:48.000Z</time>
      </trkpt>
      <trkpt lat="45.16042" lon="5.91383">
        <ele>1865</ele>
        <time>2019-01-20T09:01:49.000Z</time>
      </trkpt>
      <trkpt lat="45.16042" lon="5.91383">
        <ele>1865</ele>
        <time>2019-01-20T09:01:50.000Z</time>
      </trkpt>
      <trkpt lat="45.1604" lon="5.91382">
        <ele>1866</ele>
        <time>2019-01-20T09:01:51.000Z</time>
      </trkpt>
      <trkpt lat="45.1604" lon="5.91382">
        <ele>1866</ele>
        <time>2019-01-20T09:01:52.000Z</time>
      </trkpt>
      <trkpt lat="45.16037" lon="5.91381">
        <ele>1866</ele>
        <time>2019-01-20T09:01:53.000Z</time>
      </trkpt>
      <trkpt lat="45.16037" lon="5.91381">
        <ele>1867</ele>
        <time>2019-01-20T09:01:54.000Z</time>
      </trkpt>
      <trkpt lat="45.16035" lon="5.91381">
        <ele>1867</ele>
        <time>2019-01-20T09:01:55.000Z</time>
      </trkpt>
      <trkpt lat="45.16035" lon="5.91381">
        <ele>1867</ele>
        <time>2019-01-20T09:01:56.000Z</time>
      </trkpt>
      <trkpt lat="45.16033" lon="5.9138">
        <ele>1867</ele>
        <time>2019-01-20T09:01:57.000Z</time>
      </trkpt>
      <trkpt lat="45.16033" lon="5.9138">
        <ele>1867</ele>
        <time>2019-01-20T09:01:58.000Z</time>
      </trkpt>
      <trkpt lat="45.16031" lon="5.91379">
        <ele>1868</ele>
        <time>2019-01-20T09:01:59.000Z</time>
      </trkpt>
      <trkpt lat="45.16031" lon="5.91379">
        <ele>1868</ele>
        <time>2019-01-20T09:02:00.000Z</time>
      </trkpt>
      <trkpt lat="45.16029" lon="5.91378">
        <ele>1868</ele>
        <time>2019-01-20T09:02:01.000Z</time>
      </trkpt>
      <trkpt lat="45.16029" lon="5.91378">
        <ele>1868</ele>
        <time>2019-01-20T09:02:02.000Z</time>
      </trkpt>
      <trkpt lat="45.16027" lon="5.91377">
        <ele>1869</ele>
        <time>2019-01-20T09:02:03.000Z</time>
      </trkpt>
      <trkpt lat="45.16027" lon="5.91377">
        <ele>1869</ele>
        <time>2019-01-20T09:02:04.000Z</time>
      </trkpt>
      <trkpt lat="45.16025" lon="5.91377">
        <ele>1869</ele>
        <time>2019-01-20T09:02:05.000Z</time>
      </trkpt>
      <trkpt lat="45.16025" lon="5.91377">
        <ele>1869</ele>
        <time>2019-01-20T09:02:06.000Z</time>
      </trkpt>
      <trkpt lat="45.16025" lon="5.91377">
        <ele>1870</ele>
        <time>2019-01-20T09:02:07.000Z</time>
      </trkpt>
      <trkpt lat="45.16022" lon="5.91377">
        <ele>1870</ele>
        <time>2019-01-20T09:02:08.000Z</time>
      </trkpt>
      <trkpt lat="45.16021" lon="5.91378">
        <ele>1870</ele>
        <time>2019-01-20T09:02:10.000Z</time>
      </trkpt>
      <trkpt lat="45.16021" lon="5.91378">
        <ele>1870</ele>
        <time>2019-01-20T09:02:11.000Z</time>
      </trkpt>
      <trkpt lat="45.16019" lon="5.91379">
        <ele>1871</ele>
        <time>2019-01-20T09:02:12.000Z</time>
      </trkpt>
      <trkpt lat="45.16019" lon="5.91379">
        <ele>1871</ele>
        <time>2019-01-20T09:02:13.000Z</time>
      </trkpt>
      <trkpt lat="45.16019" lon="5.91379">
        <ele>1872</ele>
        <time>2019-01-20T09:02:14.000Z</time>
      </trkpt>
      <trkpt lat="45.16017" lon="5.91378">
        <ele>1872</ele>
        <time>2019-01-20T09:02:15.000Z</time>
      </trkpt>
      <trkpt lat="45.16017" lon="5.91378">
        <ele>1872</ele>
        <time>2019-01-20T09:02:16.000Z</time>
      </trkpt>
      <trkpt lat="45.16017" lon="5.91378">
        <ele>1872</ele>
        <time>2019-01-20T09:02:17.000Z</time>
      </trkpt>
      <trkpt lat="45.16014" lon="5.91377">
        <ele>1873</ele>
        <time>2019-01-20T09:02:18.000Z</time>
      </trkpt>
      <trkpt lat="45.16014" lon="5.91377">
        <ele>1873</ele>
        <time>2019-01-20T09:02:19.000Z</time>
      </trkpt>
      <trkpt lat="45.16013" lon="5.91377">
        <ele>1873</ele>
        <time>2019-01-20T09:02:20.000Z</time>
      </trkpt>
      <trkpt lat="45.16013" lon="5.91377">
        <ele>1873</ele>
        <time>2019-01-20T09:02:21.000Z</time>
      </trkpt>
      <trkpt lat="45.16011" lon="5.91376">
        <ele>1873</ele>
        <time>2019-01-20T09:02:22.000Z</time>
      </trkpt>
      <trkpt lat="45.16011" lon="5.91376">
        <ele>1873</ele>
        <time>2019-01-20T09:02:23.000Z</time>
      </trkpt>
      <trkpt lat="45.16009" lon="5.91374">
        <ele>1874</ele>
        <time>2019-01-20T09:02:24.000Z</time>
      </trkpt>
      <trkpt lat="45.16009" lon="5.91374">
        <ele>1874</ele>
        <time>2019-01-20T09:02:25.000Z</time>
      </trkpt>
      <trkpt lat="45.16007" lon="5.91373">
        <ele>1874</ele>
        <time>2019-01-20T09:02:26.000Z</time>
      </trkpt>
      <trkpt lat="45.16007" lon="5.91373">
        <ele>1874</ele>
        <time>2019-01-20T09:02:27.000Z</time>
      </trkpt>
      <trkpt lat="45.16005" lon="5.91372">
        <ele>1874</ele>
        <time>2019-01-20T09:02:29.000Z</time>
      </trkpt>
      <trkpt lat="45.16005" lon="5.91372">
        <ele>1874</ele>
        <time>2019-01-20T09:02:30.000Z</time>
      </trkpt>
      <trkpt lat="45.16005" lon="5.91372">
        <ele>1875</ele>
        <time>2019-01-20T09:02:31.000Z</time>
      </trkpt>
      <trkpt lat="45.16003" lon="5.91372">
        <ele>1876</ele>
        <time>2019-01-20T09:02:32.000Z</time>
      </trkpt>
      <trkpt lat="45.16003" lon="5.91372">
        <ele>1876</ele>
        <time>2019-01-20T09:02:33.000Z</time>
      </trkpt>
      <trkpt lat="45.16003" lon="5.91372">
        <ele>1876</ele>
        <time>2019-01-20T09:02:34.000Z</time>
      </trkpt>
      <trkpt lat="45.16001" lon="5.91371">
        <ele>1876</ele>
        <time>2019-01-20T09:02:35.000Z</time>
      </trkpt>
      <trkpt lat="45.16001" lon="5.91371">
        <ele>1876</ele>
        <time>2019-01-20T09:02:36.000Z</time>
      </trkpt>
      <trkpt lat="45.16001" lon="5.91371">
        <ele>1876</ele>
        <time>2019-01-20T09:02:37.000Z</time>
      </trkpt>
      <trkpt lat="45.15999" lon="5.91371">
        <ele>1877</ele>
        <time>2019-01-20T09:02:38.000Z</time>
      </trkpt>
      <trkpt lat="45.15999" lon="5.91371">
        <ele>1877</ele>
        <time>2019-01-20T09:02:39.000Z</time>
      </trkpt>
      <trkpt lat="45.15999" lon="5.91371">
        <ele>1877</ele>
        <time>2019-01-20T09:02:40.000Z</time>
      </trkpt>
      <trkpt lat="45.15996" lon="5.91371">
        <ele>1878</ele>
        <time>2019-01-20T09:02:41.000Z</time>
      </trkpt>
      <trkpt lat="45.15996" lon="5.91371">
        <ele>1878</ele>
        <time>2019-01-20T09:02:42.000Z</time>
      </trkpt>
      <trkpt lat="45.15996" lon="5.91371">
        <ele>1878</ele>
        <time>2019-01-20T09:02:43.000Z</time>
      </trkpt>
      <trkpt lat="45.15994" lon="5.9137">
        <ele>1878</ele>
        <time>2019-01-20T09:02:44.000Z</time>
      </trkpt>
      <trkpt lat="45.15994" lon="5.9137">
        <ele>1878.4</ele>
        <time>2019-01-20T09:02:45.000Z</time>
      </trkpt>
      <trkpt lat="45.15992" lon="5.91368">
        <ele>1879</ele>
        <time>2019-01-20T09:02:46.000Z</time>
      </trkpt>
      <trkpt lat="45.15992" lon="5.91368">
        <ele>1879</ele>
        <time>2019-01-20T09:02:48.000Z</time>
      </trkpt>
      <trkpt lat="45.1599" lon="5.91366">
        <ele>1879</ele>
        <time>2019-01-20T09:02:49.000Z</time>
      </trkpt>
      <trkpt lat="45.1599" lon="5.91366">
        <ele>1880</ele>
        <time>2019-01-20T09:02:50.000Z</time>
      </trkpt>
      <trkpt lat="45.15988" lon="5.91365">
        <ele>1880</ele>
        <time>2019-01-20T09:02:51.000Z</time>
      </trkpt>
      <trkpt lat="45.15988" lon="5.91365">
        <ele>1880</ele>
        <time>2019-01-20T09:02:52.000Z</time>
      </trkpt>
      <trkpt lat="45.15987" lon="5.91364">
        <ele>1880</ele>
        <time>2019-01-20T09:02:53.000Z</time>
      </trkpt>
      <trkpt lat="45.15987" lon="5.91364">
        <ele>1880</ele>
        <time>2019-01-20T09:02:54.000Z</time>
      </trkpt>
      <trkpt lat="45.15985" lon="5.91363">
        <ele>1881</ele>
        <time>2019-01-20T09:02:55.000Z</time>
      </trkpt>
      <trkpt lat="45.15985" lon="5.91363">
        <ele>1881</ele>
        <time>2019-01-20T09:02:56.000Z</time>
      </trkpt>
      <trkpt lat="45.15983" lon="5.91361">
        <ele>1881</ele>
        <time>2019-01-20T09:02:57.000Z</time>
      </trkpt>
      <trkpt lat="45.15983" lon="5.91361">
        <ele>1881</ele>
        <time>2019-01-20T09:02:58.000Z</time>
      </trkpt>
      <trkpt lat="45.15982" lon="5.9136">
        <ele>1881</ele>
        <time>2019-01-20T09:02:59.000Z</time>
      </trkpt>
      <trkpt lat="45.15982" lon="5.9136">
        <ele>1881</ele>
        <time>2019-01-20T09:03:00.000Z</time>
      </trkpt>
      <trkpt lat="45.1598" lon="5.91358">
        <ele>1881</ele>
        <time>2019-01-20T09:03:01.000Z</time>
      </trkpt>
      <trkpt lat="45.1598" lon="5.91358">
        <ele>1881</ele>
        <time>2019-01-20T09:03:02.000Z</time>
      </trkpt>
      <trkpt lat="45.15977" lon="5.91356">
        <ele>1881</ele>
        <time>2019-01-20T09:03:03.000Z</time>
      </trkpt>
      <trkpt lat="45.15977" lon="5.91356">
        <ele>1881</ele>
        <time>2019-01-20T09:03:04.000Z</time>
      </trkpt>
      <trkpt lat="45.15975" lon="5.91355">
        <ele>1882</ele>
        <time>2019-01-20T09:03:05.000Z</time>
      </trkpt>
      <trkpt lat="45.15973" lon="5.91353">
        <ele>1882</ele>
        <time>2019-01-20T09:03:07.000Z</time>
      </trkpt>
      <trkpt lat="45.15973" lon="5.91353">
        <ele>1882</ele>
        <time>2019-01-20T09:03:08.000Z</time>
      </trkpt>
      <trkpt lat="45.15971" lon="5.91352">
        <ele>1882</ele>
        <time>2019-01-20T09:03:09.000Z</time>
      </trkpt>
      <trkpt lat="45.15971" lon="5.91352">
        <ele>1882</ele>
        <time>2019-01-20T09:03:10.000Z</time>
      </trkpt>
      <trkpt lat="45.15971" lon="5.91352">
        <ele>1882</ele>
        <time>2019-01-20T09:03:11.000Z</time>
      </trkpt>
      <trkpt lat="45.1597" lon="5.9135">
        <ele>1882</ele>
        <time>2019-01-20T09:03:12.000Z</time>
      </trkpt>
      <trkpt lat="45.1597" lon="5.9135">
        <ele>1883</ele>
        <time>2019-01-20T09:03:13.000Z</time>
      </trkpt>
      <trkpt lat="45.1597" lon="5.9135">
        <ele>1883</ele>
        <time>2019-01-20T09:03:14.000Z</time>
      </trkpt>
      <trkpt lat="45.15968" lon="5.91349">
        <ele>1883</ele>
        <time>2019-01-20T09:03:15.000Z</time>
      </trkpt>
      <trkpt lat="45.15968" lon="5.91349">
        <ele>1883</ele>
        <time>2019-01-20T09:03:16.000Z</time>
      </trkpt>
      <trkpt lat="45.15966" lon="5.91349">
        <ele>1883</ele>
        <time>2019-01-20T09:03:17.000Z</time>
      </trkpt>
      <trkpt lat="45.15966" lon="5.91349">
        <ele>1883</ele>
        <time>2019-01-20T09:03:18.000Z</time>
      </trkpt>
      <trkpt lat="45.15964" lon="5.91347">
        <ele>1884</ele>
        <time>2019-01-20T09:03:19.000Z</time>
      </trkpt>
      <trkpt lat="45.15964" lon="5.91347">
        <ele>1884</ele>
        <time>2019-01-20T09:03:20.000Z</time>
      </trkpt>
      <trkpt lat="45.15962" lon="5.91347">
        <ele>1884</ele>
        <time>2019-01-20T09:03:21.000Z</time>
      </trkpt>
      <trkpt lat="45.15962" lon="5.91347">
        <ele>1885</ele>
        <time>2019-01-20T09:03:22.000Z</time>
      </trkpt>
      <trkpt lat="45.15962" lon="5.91347">
        <ele>1885</ele>
        <time>2019-01-20T09:03:23.000Z</time>
      </trkpt>
      <trkpt lat="45.1596" lon="5.91346">
        <ele>1885</ele>
        <time>2019-01-20T09:03:24.000Z</time>
      </trkpt>
      <trkpt lat="45.1596" lon="5.91346">
        <ele>1885.6</ele>
        <time>2019-01-20T09:03:26.000Z</time>
      </trkpt>
      <trkpt lat="45.15959" lon="5.91345">
        <ele>1886</ele>
        <time>2019-01-20T09:03:27.000Z</time>
      </trkpt>
      <trkpt lat="45.15959" lon="5.91345">
        <ele>1886</ele>
        <time>2019-01-20T09:03:28.000Z</time>
      </trkpt>
      <trkpt lat="45.15959" lon="5.91345">
        <ele>1886</ele>
        <time>2019-01-20T09:03:29.000Z</time>
      </trkpt>
      <trkpt lat="45.15959" lon="5.91345">
        <ele>1886</ele>
        <time>2019-01-20T09:03:30.000Z</time>
      </trkpt>
      <trkpt lat="45.15957" lon="5.91344">
        <ele>1886</ele>
        <time>2019-01-20T09:03:31.000Z</time>
      </trkpt>
      <trkpt lat="45.15957" lon="5.91344">
        <ele>1886</ele>
        <time>2019-01-20T09:03:32.000Z</time>
      </trkpt>
      <trkpt lat="45.15954" lon="5.91343">
        <ele>1886</ele>
        <time>2019-01-20T09:03:33.000Z</time>
      </trkpt>
      <trkpt lat="45.15954" lon="5.91343">
        <ele>1887</ele>
        <time>2019-01-20T09:03:34.000Z</time>
      </trkpt>
      <trkpt lat="45.15952" lon="5.91342">
        <ele>1887</ele>
        <time>2019-01-20T09:03:35.000Z</time>
      </trkpt>
      <trkpt lat="45.15952" lon="5.91342">
        <ele>1887</ele>
        <time>2019-01-20T09:03:36.000Z</time>
      </trkpt>
      <trkpt lat="45.1595" lon="5.9134">
        <ele>1887</ele>
        <time>2019-01-20T09:03:37.000Z</time>
      </trkpt>
      <trkpt lat="45.1595" lon="5.9134">
        <ele>1887</ele>
        <time>2019-01-20T09:03:38.000Z</time>
      </trkpt>
      <trkpt lat="45.15949" lon="5.9134">
        <ele>1887</ele>
        <time>2019-01-20T09:03:39.000Z</time>
      </trkpt>
      <trkpt lat="45.15949" lon="5.9134">
        <ele>1888</ele>
        <time>2019-01-20T09:03:40.000Z</time>
      </trkpt>
      <trkpt lat="45.15947" lon="5.9134">
        <ele>1888</ele>
        <time>2019-01-20T09:03:41.000Z</time>
      </trkpt>
      <trkpt lat="45.15947" lon="5.9134">
        <ele>1889</ele>
        <time>2019-01-20T09:03:42.000Z</time>
      </trkpt>
      <trkpt lat="45.15947" lon="5.9134">
        <ele>1889</ele>
        <time>2019-01-20T09:03:43.000Z</time>
      </trkpt>
      <trkpt lat="45.15945" lon="5.91339">
        <ele>1889</ele>
        <time>2019-01-20T09:03:44.000Z</time>
      </trkpt>
      <trkpt lat="45.15945" lon="5.91339">
        <ele>1889.6</ele>
        <time>2019-01-20T09:03:45.000Z</time>
      </trkpt>
      <trkpt lat="45.15945" lon="5.91339">
        <ele>1890</ele>
        <time>2019-01-20T09:03:46.000Z</time>
      </trkpt>
      <trkpt lat="45.15945" lon="5.91339">
        <ele>1890</ele>
        <time>2019-01-20T09:03:47.000Z</time>
      </trkpt>
      <trkpt lat="45.15943" lon="5.91338">
        <ele>1890</ele>
        <time>2019-01-20T09:03:48.000Z</time>
      </trkpt>
      <trkpt lat="45.15943" lon="5.91338">
        <ele>1890</ele>
        <time>2019-01-20T09:03:49.000Z</time>
      </trkpt>
      <trkpt lat="45.15943" lon="5.91338">
        <ele>1891</ele>
        <time>2019-01-20T09:03:50.000Z</time>
      </trkpt>
      <trkpt lat="45.15943" lon="5.91338">
        <ele>1891</ele>
        <time>2019-01-20T09:03:51.000Z</time>
      </trkpt>
      <trkpt lat="45.15943" lon="5.91338">
        <ele>1891</ele>
        <time>2019-01-20T09:03:52.000Z</time>
      </trkpt>
      <trkpt lat="45.15943" lon="5.91338">
        <ele>1891</ele>
        <time>2019-01-20T09:03:53.000Z</time>
      </trkpt>
      <trkpt lat="45.15943" lon="5.91338">
        <ele>1891</ele>
        <time>2019-01-20T09:03:54.000Z</time>
      </trkpt>
      <trkpt lat="45.1594" lon="5.91336">
        <ele>1892</ele>
        <time>2019-01-20T09:03:55.000Z</time>
      </trkpt>
      <trkpt lat="45.1594" lon="5.91336">
        <ele>1892</ele>
        <time>2019-01-20T09:03:56.000Z</time>
      </trkpt>
      <trkpt lat="45.1594" lon="5.91336">
        <ele>1892</ele>
        <time>2019-01-20T09:03:57.000Z</time>
      </trkpt>
      <trkpt lat="45.15938" lon="5.91334">
        <ele>1892</ele>
        <time>2019-01-20T09:03:58.000Z</time>
      </trkpt>
      <trkpt lat="45.15938" lon="5.91334">
        <ele>1892</ele>
        <time>2019-01-20T09:03:59.000Z</time>
      </trkpt>
      <trkpt lat="45.15938" lon="5.91334">
        <ele>1893</ele>
        <time>2019-01-20T09:04:00.000Z</time>
      </trkpt>
      <trkpt lat="45.15936" lon="5.91333">
        <ele>1893</ele>
        <time>2019-01-20T09:04:01.000Z</time>
      </trkpt>
      <trkpt lat="45.15936" lon="5.91333">
        <ele>1893</ele>
        <time>2019-01-20T09:04:02.000Z</time>
      </trkpt>
      <trkpt lat="45.15934" lon="5.91332">
        <ele>1893</ele>
        <time>2019-01-20T09:04:03.000Z</time>
      </trkpt>
      <trkpt lat="45.15934" lon="5.91332">
        <ele>1893</ele>
        <time>2019-01-20T09:04:04.000Z</time>
      </trkpt>
      <trkpt lat="45.15934" lon="5.91332">
        <ele>1893</ele>
        <time>2019-01-20T09:04:05.000Z</time>
      </trkpt>
      <trkpt lat="45.15932" lon="5.91331">
        <ele>1893</ele>
        <time>2019-01-20T09:04:06.000Z</time>
      </trkpt>
      <trkpt lat="45.15932" lon="5.91331">
        <ele>1894</ele>
        <time>2019-01-20T09:04:07.000Z</time>
      </trkpt>
      <trkpt lat="45.15932" lon="5.91331">
        <ele>1894</ele>
        <time>2019-01-20T09:04:08.000Z</time>
      </trkpt>
      <trkpt lat="45.15932" lon="5.91331">
        <ele>1894</ele>
        <time>2019-01-20T09:04:09.000Z</time>
      </trkpt>
      <trkpt lat="45.15932" lon="5.91331">
        <ele>1894</ele>
        <time>2019-01-20T09:04:10.000Z</time>
      </trkpt>
      <trkpt lat="45.15932" lon="5.91331">
        <ele>1894</ele>
        <time>2019-01-20T09:04:11.000Z</time>
      </trkpt>
      <trkpt lat="45.15932" lon="5.91331">
        <ele>1894</ele>
        <time>2019-01-20T09:04:12.000Z</time>
      </trkpt>
      <trkpt lat="45.15932" lon="5.91331">
        <ele>1894</ele>
        <time>2019-01-20T09:04:13.000Z</time>
      </trkpt>
      <trkpt lat="45.15932" lon="5.91331">
        <ele>1894</ele>
        <time>2019-01-20T09:04:14.000Z</time>
      </trkpt>
      <trkpt lat="45.15932" lon="5.91331">
        <ele>1894</ele>
        <time>2019-01-20T09:04:15.000Z</time>
      </trkpt>
      <trkpt lat="45.15932" lon="5.91331">
        <ele>1894</ele>
        <time>2019-01-20T09:04:16.000Z</time>
      </trkpt>
      <trkpt lat="45.1593" lon="5.9133">
        <ele>1895</ele>
        <time>2019-01-20T09:04:17.000Z</time>
      </trkpt>
      <trkpt lat="45.1593" lon="5.9133">
        <ele>1895</ele>
        <time>2019-01-20T09:04:18.000Z</time>
      </trkpt>
      <trkpt lat="45.1593" lon="5.9133">
        <ele>1895</ele>
        <time>2019-01-20T09:04:19.000Z</time>
      </trkpt>
      <trkpt lat="45.15928" lon="5.91328">
        <ele>1894</ele>
        <time>2019-01-20T09:04:20.000Z</time>
      </trkpt>
      <trkpt lat="45.15928" lon="5.91328">
        <ele>1894</ele>
        <time>2019-01-20T09:04:21.000Z</time>
      </trkpt>
      <trkpt lat="45.15926" lon="5.91327">
        <ele>1894</ele>
        <time>2019-01-20T09:04:22.000Z</time>
      </trkpt>
      <trkpt lat="45.15926" lon="5.91327">
        <ele>1894</ele>
        <time>2019-01-20T09:04:23.000Z</time>
      </trkpt>
      <trkpt lat="45.15923" lon="5.91326">
        <ele>1894</ele>
        <time>2019-01-20T09:04:24.000Z</time>
      </trkpt>
      <trkpt lat="45.15923" lon="5.91326">
        <ele>1894</ele>
        <time>2019-01-20T09:04:25.000Z</time>
      </trkpt>
      <trkpt lat="45.15921" lon="5.91325">
        <ele>1895</ele>
        <time>2019-01-20T09:04:26.000Z</time>
      </trkpt>
      <trkpt lat="45.15921" lon="5.91325">
        <ele>1895</ele>
        <time>2019-01-20T09:04:27.000Z</time>
      </trkpt>
      <trkpt lat="45.15919" lon="5.91324">
        <ele>1895</ele>
        <time>2019-01-20T09:04:28.000Z</time>
      </trkpt>
      <trkpt lat="45.15919" lon="5.91324">
        <ele>1895</ele>
        <time>2019-01-20T09:04:29.000Z</time>
      </trkpt>
      <trkpt lat="45.15919" lon="5.91324">
        <ele>1896</ele>
        <time>2019-01-20T09:04:30.000Z</time>
      </trkpt>
      <trkpt lat="45.15917" lon="5.91324">
        <ele>1896</ele>
        <time>2019-01-20T09:04:31.000Z</time>
      </trkpt>
      <trkpt lat="45.15917" lon="5.91324">
        <ele>1896</ele>
        <time>2019-01-20T09:04:32.000Z</time>
      </trkpt>
      <trkpt lat="45.15917" lon="5.91324">
        <ele>1896</ele>
        <time>2019-01-20T09:04:33.000Z</time>
      </trkpt>
      <trkpt lat="45.15915" lon="5.91323">
        <ele>1897</ele>
        <time>2019-01-20T09:04:34.000Z</time>
      </trkpt>
      <trkpt lat="45.15915" lon="5.91323">
        <ele>1897</ele>
        <time>2019-01-20T09:04:35.000Z</time>
      </trkpt>
      <trkpt lat="45.15915" lon="5.91323">
        <ele>1897</ele>
        <time>2019-01-20T09:04:36.000Z</time>
      </trkpt>
      <trkpt lat="45.15913" lon="5.91323">
        <ele>1897</ele>
        <time>2019-01-20T09:04:37.000Z</time>
      </trkpt>
      <trkpt lat="45.15913" lon="5.91323">
        <ele>1897</ele>
        <time>2019-01-20T09:04:38.000Z</time>
      </trkpt>
      <trkpt lat="45.15913" lon="5.91323">
        <ele>1897</ele>
        <time>2019-01-20T09:04:39.000Z</time>
      </trkpt>
      <trkpt lat="45.15913" lon="5.91323">
        <ele>1897</ele>
        <time>2019-01-20T09:04:40.000Z</time>
      </trkpt>
      <trkpt lat="45.15913" lon="5.91323">
        <ele>1897</ele>
        <time>2019-01-20T09:04:42.000Z</time>
      </trkpt>
      <trkpt lat="45.15913" lon="5.91323">
        <ele>1897</ele>
        <time>2019-01-20T09:04:43.000Z</time>
      </trkpt>
      <trkpt lat="45.15913" lon="5.91323">
        <ele>1897</ele>
        <time>2019-01-20T09:04:44.000Z</time>
      </trkpt>
      <trkpt lat="45.15913" lon="5.91323">
        <ele>1897</ele>
        <time>2019-01-20T09:04:45.000Z</time>
      </trkpt>
      <trkpt lat="45.15913" lon="5.91323">
        <ele>1897</ele>
        <time>2019-01-20T09:04:46.000Z</time>
      </trkpt>
      <trkpt lat="45.15913" lon="5.91323">
        <ele>1897</ele>
        <time>2019-01-20T09:04:47.000Z</time>
      </trkpt>
      <trkpt lat="45.15913" lon="5.91323">
        <ele>1897</ele>
        <time>2019-01-20T09:04:48.000Z</time>
      </trkpt>
      <trkpt lat="45.15914" lon="5.91326">
        <ele>1898</ele>
        <time>2019-01-20T09:04:49.000Z</time>
      </trkpt>
      <trkpt lat="45.15914" lon="5.91326">
        <ele>1898</ele>
        <time>2019-01-20T09:04:50.000Z</time>
      </trkpt>
      <trkpt lat="45.15914" lon="5.91326">
        <ele>1898</ele>
        <time>2019-01-20T09:04:51.000Z</time>
      </trkpt>
      <trkpt lat="45.15915" lon="5.91329">
        <ele>1899</ele>
        <time>2019-01-20T09:04:52.000Z</time>
      </trkpt>
      <trkpt lat="45.15915" lon="5.91329">
        <ele>1899</ele>
        <time>2019-01-20T09:04:53.000Z</time>
      </trkpt>
      <trkpt lat="45.15915" lon="5.91329">
        <ele>1899</ele>
        <time>2019-01-20T09:04:54.000Z</time>
      </trkpt>
      <trkpt lat="45.15916" lon="5.91331">
        <ele>1899</ele>
        <time>2019-01-20T09:04:55.000Z</time>
      </trkpt>
      <trkpt lat="45.15916" lon="5.91331">
        <ele>1899</ele>
        <time>2019-01-20T09:04:56.000Z</time>
      </trkpt>
      <trkpt lat="45.15916" lon="5.91331">
        <ele>1900</ele>
        <time>2019-01-20T09:04:57.000Z</time>
      </trkpt>
      <trkpt lat="45.15918" lon="5.91333">
        <ele>1900</ele>
        <time>2019-01-20T09:04:58.000Z</time>
      </trkpt>
      <trkpt lat="45.15918" lon="5.91333">
        <ele>1900</ele>
        <time>2019-01-20T09:04:59.000Z</time>
      </trkpt>
      <trkpt lat="45.15919" lon="5.91336">
        <ele>1900</ele>
        <time>2019-01-20T09:05:01.000Z</time>
      </trkpt>
      <trkpt lat="45.15919" lon="5.91336">
        <ele>1900</ele>
        <time>2019-01-20T09:05:02.000Z</time>
      </trkpt>
      <trkpt lat="45.15919" lon="5.91336">
        <ele>1900</ele>
        <time>2019-01-20T09:05:03.000Z</time>
      </trkpt>
      <trkpt lat="45.15919" lon="5.91336">
        <ele>1900</ele>
        <time>2019-01-20T09:05:05.000Z</time>
      </trkpt>
      <trkpt lat="45.15917" lon="5.91338">
        <ele>1901</ele>
        <time>2019-01-20T09:05:06.000Z</time>
      </trkpt>
      <trkpt lat="45.15917" lon="5.91338">
        <ele>1902</ele>
        <time>2019-01-20T09:05:07.000Z</time>
      </trkpt>
      <trkpt lat="45.15915" lon="5.91338">
        <ele>1902</ele>
        <time>2019-01-20T09:05:08.000Z</time>
      </trkpt>
      <trkpt lat="45.15915" lon="5.91338">
        <ele>1902</ele>
        <time>2019-01-20T09:05:10.000Z</time>
      </trkpt>
      <trkpt lat="45.15913" lon="5.91338">
        <ele>1902</ele>
        <time>2019-01-20T09:05:11.000Z</time>
      </trkpt>
      <trkpt lat="45.15913" lon="5.91338">
        <ele>1903</ele>
        <time>2019-01-20T09:05:12.000Z</time>
      </trkpt>
      <trkpt lat="45.15913" lon="5.91338">
        <ele>1903</ele>
        <time>2019-01-20T09:05:13.000Z</time>
      </trkpt>
      <trkpt lat="45.15913" lon="5.91338">
        <ele>1903</ele>
        <time>2019-01-20T09:05:14.000Z</time>
      </trkpt>
      <trkpt lat="45.15911" lon="5.91337">
        <ele>1903</ele>
        <time>2019-01-20T09:05:15.000Z</time>
      </trkpt>
      <trkpt lat="45.15911" lon="5.91337">
        <ele>1903</ele>
        <time>2019-01-20T09:05:16.000Z</time>
      </trkpt>
      <trkpt lat="45.15911" lon="5.91337">
        <ele>1903</ele>
        <time>2019-01-20T09:05:17.000Z</time>
      </trkpt>
      <trkpt lat="45.15909" lon="5.91337">
        <ele>1903</ele>
        <time>2019-01-20T09:05:18.000Z</time>
      </trkpt>
      <trkpt lat="45.15909" lon="5.91337">
        <ele>1903.6</ele>
        <time>2019-01-20T09:05:20.000Z</time>
      </trkpt>
      <trkpt lat="45.15907" lon="5.91337">
        <ele>1904</ele>
        <time>2019-01-20T09:05:21.000Z</time>
      </trkpt>
      <trkpt lat="45.15907" lon="5.91337">
        <ele>1905</ele>
        <time>2019-01-20T09:05:22.000Z</time>
      </trkpt>
      <trkpt lat="45.15907" lon="5.91337">
        <ele>1905</ele>
        <time>2019-01-20T09:05:23.000Z</time>
      </trkpt>
      <trkpt lat="45.15907" lon="5.91337">
        <ele>1905</ele>
        <time>2019-01-20T09:05:24.000Z</time>
      </trkpt>
      <trkpt lat="45.15904" lon="5.91338">
        <ele>1905</ele>
        <time>2019-01-20T09:05:25.000Z</time>
      </trkpt>
      <trkpt lat="45.15904" lon="5.91338">
        <ele>1905</ele>
        <time>2019-01-20T09:05:26.000Z</time>
      </trkpt>
      <trkpt lat="45.15904" lon="5.91338">
        <ele>1905</ele>
        <time>2019-01-20T09:05:27.000Z</time>
      </trkpt>
      <trkpt lat="45.15904" lon="5.91338">
        <ele>1905</ele>
        <time>2019-01-20T09:05:28.000Z</time>
      </trkpt>
      <trkpt lat="45.15904" lon="5.91338">
        <ele>1905</ele>
        <time>2019-01-20T09:05:29.000Z</time>
      </trkpt>
      <trkpt lat="45.15904" lon="5.91338">
        <ele>1905</ele>
        <time>2019-01-20T09:05:30.000Z</time>
      </trkpt>
      <trkpt lat="45.15904" lon="5.91338">
        <ele>1905</ele>
        <time>2019-01-20T09:05:31.000Z</time>
      </trkpt>
      <trkpt lat="45.15904" lon="5.91338">
        <ele>1905</ele>
        <time>2019-01-20T09:05:32.000Z</time>
      </trkpt>
      <trkpt lat="45.15904" lon="5.91338">
        <ele>1905</ele>
        <time>2019-01-20T09:05:33.000Z</time>
      </trkpt>
      <trkpt lat="45.15904" lon="5.91338">
        <ele>1905</ele>
        <time>2019-01-20T09:05:34.000Z</time>
      </trkpt>
      <trkpt lat="45.15904" lon="5.91338">
        <ele>1905</ele>
        <time>2019-01-20T09:05:35.000Z</time>
      </trkpt>
      <trkpt lat="45.15904" lon="5.91338">
        <ele>1905</ele>
        <time>2019-01-20T09:05:36.000Z</time>
      </trkpt>
      <trkpt lat="45.15904" lon="5.91338">
        <ele>1905</ele>
        <time>2019-01-20T09:05:37.000Z</time>
      </trkpt>
      <trkpt lat="45.15906" lon="5.9134">
        <ele>1906</ele>
        <time>2019-01-20T09:05:39.000Z</time>
      </trkpt>
      <trkpt lat="45.15906" lon="5.9134">
        <ele>1906</ele>
        <time>2019-01-20T09:05:40.000Z</time>
      </trkpt>
      <trkpt lat="45.15906" lon="5.9134">
        <ele>1906</ele>
        <time>2019-01-20T09:05:41.000Z</time>
      </trkpt>
      <trkpt lat="45.15906" lon="5.9134">
        <ele>1906</ele>
        <time>2019-01-20T09:05:42.000Z</time>
      </trkpt>
      <trkpt lat="45.15906" lon="5.9134">
        <ele>1906</ele>
        <time>2019-01-20T09:05:43.000Z</time>
      </trkpt>
      <trkpt lat="45.15904" lon="5.9134">
        <ele>1907</ele>
        <time>2019-01-20T09:05:44.000Z</time>
      </trkpt>
      <trkpt lat="45.15904" lon="5.9134">
        <ele>1907</ele>
        <time>2019-01-20T09:05:45.000Z</time>
      </trkpt>
      <trkpt lat="45.15904" lon="5.9134">
        <ele>1907</ele>
        <time>2019-01-20T09:05:46.000Z</time>
      </trkpt>
      <trkpt lat="45.15902" lon="5.9134">
        <ele>1907</ele>
        <time>2019-01-20T09:05:47.000Z</time>
      </trkpt>
      <trkpt lat="45.15902" lon="5.9134">
        <ele>1907</ele>
        <time>2019-01-20T09:05:48.000Z</time>
      </trkpt>
      <trkpt lat="45.15902" lon="5.9134">
        <ele>1907</ele>
        <time>2019-01-20T09:05:49.000Z</time>
      </trkpt>
      <trkpt lat="45.159" lon="5.9134">
        <ele>1907</ele>
        <time>2019-01-20T09:05:50.000Z</time>
      </trkpt>
      <trkpt lat="45.159" lon="5.9134">
        <ele>1908</ele>
        <time>2019-01-20T09:05:51.000Z</time>
      </trkpt>
      <trkpt lat="45.159" lon="5.9134">
        <ele>1908</ele>
        <time>2019-01-20T09:05:52.000Z</time>
      </trkpt>
      <trkpt lat="45.15898" lon="5.91341">
        <ele>1908</ele>
        <time>2019-01-20T09:05:53.000Z</time>
      </trkpt>
      <trkpt lat="45.15898" lon="5.91341">
        <ele>1907</ele>
        <time>2019-01-20T09:05:54.000Z</time>
      </trkpt>
      <trkpt lat="45.15896" lon="5.91341">
        <ele>1908</ele>
        <time>2019-01-20T09:05:55.000Z</time>
      </trkpt>
      <trkpt lat="45.15896" lon="5.91341">
        <ele>1908</ele>
        <time>2019-01-20T09:05:56.000Z</time>
      </trkpt>
      <trkpt lat="45.15894" lon="5.91342">
        <ele>1908</ele>
        <time>2019-01-20T09:05:58.000Z</time>
      </trkpt>
      <trkpt lat="45.15894" lon="5.91342">
        <ele>1908</ele>
        <time>2019-01-20T09:05:59.000Z</time>
      </trkpt>
      <trkpt lat="45.15894" lon="5.91342">
        <ele>1908</ele>
        <time>2019-01-20T09:06:00.000Z</time>
      </trkpt>
      <trkpt lat="45.15892" lon="5.91343">
        <ele>1909</ele>
        <time>2019-01-20T09:06:01.000Z</time>
      </trkpt>
      <trkpt lat="45.15892" lon="5.91343">
        <ele>1909</ele>
        <time>2019-01-20T09:06:02.000Z</time>
      </trkpt>
      <trkpt lat="45.15892" lon="5.91343">
        <ele>1909</ele>
        <time>2019-01-20T09:06:03.000Z</time>
      </trkpt>
      <trkpt lat="45.1589" lon="5.91345">
        <ele>1910</ele>
        <time>2019-01-20T09:06:04.000Z</time>
      </trkpt>
      <trkpt lat="45.1589" lon="5.91345">
        <ele>1910</ele>
        <time>2019-01-20T09:06:05.000Z</time>
      </trkpt>
      <trkpt lat="45.1589" lon="5.91345">
        <ele>1910</ele>
        <time>2019-01-20T09:06:06.000Z</time>
      </trkpt>
      <trkpt lat="45.1589" lon="5.91345">
        <ele>1910</ele>
        <time>2019-01-20T09:06:07.000Z</time>
      </trkpt>
      <trkpt lat="45.1589" lon="5.91345">
        <ele>1910</ele>
        <time>2019-01-20T09:06:08.000Z</time>
      </trkpt>
      <trkpt lat="45.15889" lon="5.91347">
        <ele>1910</ele>
        <time>2019-01-20T09:06:09.000Z</time>
      </trkpt>
      <trkpt lat="45.15889" lon="5.91347">
        <ele>1911</ele>
        <time>2019-01-20T09:06:10.000Z</time>
      </trkpt>
      <trkpt lat="45.15889" lon="5.91347">
        <ele>1911</ele>
        <time>2019-01-20T09:06:11.000Z</time>
      </trkpt>
      <trkpt lat="45.15887" lon="5.91348">
        <ele>1911</ele>
        <time>2019-01-20T09:06:12.000Z</time>
      </trkpt>
      <trkpt lat="45.15887" lon="5.91348">
        <ele>1911</ele>
        <time>2019-01-20T09:06:13.000Z</time>
      </trkpt>
      <trkpt lat="45.15887" lon="5.91348">
        <ele>1911</ele>
        <time>2019-01-20T09:06:14.000Z</time>
      </trkpt>
      <trkpt lat="45.15886" lon="5.9135">
        <ele>1911</ele>
        <time>2019-01-20T09:06:15.000Z</time>
      </trkpt>
      <trkpt lat="45.15886" lon="5.9135">
        <ele>1912</ele>
        <time>2019-01-20T09:06:17.000Z</time>
      </trkpt>
      <trkpt lat="45.15886" lon="5.9135">
        <ele>1912</ele>
        <time>2019-01-20T09:06:18.000Z</time>
      </trkpt>
      <trkpt lat="45.15886" lon="5.9135">
        <ele>1912</ele>
        <time>2019-01-20T09:06:19.000Z</time>
      </trkpt>
      <trkpt lat="45.15886" lon="5.9135">
        <ele>1912</ele>
        <time>2019-01-20T09:06:20.000Z</time>
      </trkpt>
      <trkpt lat="45.15886" lon="5.9135">
        <ele>1912</ele>
        <time>2019-01-20T09:06:21.000Z</time>
      </trkpt>
      <trkpt lat="45.15886" lon="5.9135">
        <ele>1912</ele>
        <time>2019-01-20T09:06:22.000Z</time>
      </trkpt>
      <trkpt lat="45.15886" lon="5.9135">
        <ele>1912</ele>
        <time>2019-01-20T09:06:23.000Z</time>
      </trkpt>
      <trkpt lat="45.15886" lon="5.9135">
        <ele>1912</ele>
        <time>2019-01-20T09:06:24.000Z</time>
      </trkpt>
      <trkpt lat="45.15886" lon="5.9135">
        <ele>1912</ele>
        <time>2019-01-20T09:06:25.000Z</time>
      </trkpt>
      <trkpt lat="45.15886" lon="5.9135">
        <ele>1912</ele>
        <time>2019-01-20T09:06:26.000Z</time>
      </trkpt>
      <trkpt lat="45.15886" lon="5.9135">
        <ele>1912</ele>
        <time>2019-01-20T09:06:27.000Z</time>
      </trkpt>
      <trkpt lat="45.15886" lon="5.9135">
        <ele>1912</ele>
        <time>2019-01-20T09:06:28.000Z</time>
      </trkpt>
      <trkpt lat="45.15886" lon="5.9135">
        <ele>1912</ele>
        <time>2019-01-20T09:06:29.000Z</time>
      </trkpt>
      <trkpt lat="45.15886" lon="5.9135">
        <ele>1912</ele>
        <time>2019-01-20T09:06:30.000Z</time>
      </trkpt>
      <trkpt lat="45.15886" lon="5.9135">
        <ele>1913</ele>
        <time>2019-01-20T09:06:31.000Z</time>
      </trkpt>
      <trkpt lat="45.15884" lon="5.91352">
        <ele>1913</ele>
        <time>2019-01-20T09:06:32.000Z</time>
      </trkpt>
      <trkpt lat="45.15884" lon="5.91352">
        <ele>1913</ele>
        <time>2019-01-20T09:06:33.000Z</time>
      </trkpt>
      <trkpt lat="45.15884" lon="5.91352">
        <ele>1914</ele>
        <time>2019-01-20T09:06:34.000Z</time>
      </trkpt>
      <trkpt lat="45.15882" lon="5.91353">
        <ele>1914</ele>
        <time>2019-01-20T09:06:35.000Z</time>
      </trkpt>
      <trkpt lat="45.15882" lon="5.91353">
        <ele>1914</ele>
        <time>2019-01-20T09:06:36.000Z</time>
      </trkpt>
      <trkpt lat="45.1588" lon="5.91354">
        <ele>1914</ele>
        <time>2019-01-20T09:06:37.000Z</time>
      </trkpt>
      <trkpt lat="45.1588" lon="5.91354">
        <ele>1914</ele>
        <time>2019-01-20T09:06:38.000Z</time>
      </trkpt>
      <trkpt lat="45.1588" lon="5.91354">
        <ele>1915</ele>
        <time>2019-01-20T09:06:39.000Z</time>
      </trkpt>
      <trkpt lat="45.15878" lon="5.91354">
        <ele>1915</ele>
        <time>2019-01-20T09:06:40.000Z</time>
      </trkpt>
      <trkpt lat="45.15878" lon="5.91354">
        <ele>1915</ele>
        <time>2019-01-20T09:06:41.000Z</time>
      </trkpt>
      <trkpt lat="45.15878" lon="5.91354">
        <ele>1915</ele>
        <time>2019-01-20T09:06:42.000Z</time>
      </trkpt>
      <trkpt lat="45.15876" lon="5.91355">
        <ele>1916</ele>
        <time>2019-01-20T09:06:43.000Z</time>
      </trkpt>
      <trkpt lat="45.15876" lon="5.91355">
        <ele>1916.4</ele>
        <time>2019-01-20T09:06:45.000Z</time>
      </trkpt>
      <trkpt lat="45.15874" lon="5.91355">
        <ele>1917</ele>
        <time>2019-01-20T09:06:46.000Z</time>
      </trkpt>
      <trkpt lat="45.15874" lon="5.91355">
        <ele>1917</ele>
        <time>2019-01-20T09:06:47.000Z</time>
      </trkpt>
      <trkpt lat="45.15874" lon="5.91355">
        <ele>1917</ele>
        <time>2019-01-20T09:06:48.000Z</time>
      </trkpt>
      <trkpt lat="45.15871" lon="5.91356">
        <ele>1917</ele>
        <time>2019-01-20T09:06:49.000Z</time>
      </trkpt>
      <trkpt lat="45.15871" lon="5.91356">
        <ele>1917</ele>
        <time>2019-01-20T09:06:50.000Z</time>
      </trkpt>
      <trkpt lat="45.15871" lon="5.91356">
        <ele>1917</ele>
        <time>2019-01-20T09:06:51.000Z</time>
      </trkpt>
      <trkpt lat="45.15871" lon="5.91356">
        <ele>1917</ele>
        <time>2019-01-20T09:06:52.000Z</time>
      </trkpt>
      <trkpt lat="45.15871" lon="5.91356">
        <ele>1917</ele>
        <time>2019-01-20T09:06:53.000Z</time>
      </trkpt>
      <trkpt lat="45.1587" lon="5.91357">
        <ele>1917.6</ele>
        <time>2019-01-20T09:06:55.000Z</time>
      </trkpt>
      <trkpt lat="45.1587" lon="5.91357">
        <ele>1918</ele>
        <time>2019-01-20T09:06:56.000Z</time>
      </trkpt>
      <trkpt lat="45.1587" lon="5.91357">
        <ele>1919</ele>
        <time>2019-01-20T09:06:57.000Z</time>
      </trkpt>
      <trkpt lat="45.15868" lon="5.91359">
        <ele>1919</ele>
        <time>2019-01-20T09:06:58.000Z</time>
      </trkpt>
      <trkpt lat="45.15868" lon="5.91359">
        <ele>1919</ele>
        <time>2019-01-20T09:06:59.000Z</time>
      </trkpt>
      <trkpt lat="45.15868" lon="5.91359">
        <ele>1919</ele>
        <time>2019-01-20T09:07:00.000Z</time>
      </trkpt>
      <trkpt lat="45.15868" lon="5.91359">
        <ele>1919</ele>
        <time>2019-01-20T09:07:01.000Z</time>
      </trkpt>
      <trkpt lat="45.15868" lon="5.91359">
        <ele>1919</ele>
        <time>2019-01-20T09:07:02.000Z</time>
      </trkpt>
      <trkpt lat="45.15868" lon="5.91359">
        <ele>1919</ele>
        <time>2019-01-20T09:07:03.000Z</time>
      </trkpt>
      <trkpt lat="45.15868" lon="5.91359">
        <ele>1919</ele>
        <time>2019-01-20T09:07:04.000Z</time>
      </trkpt>
      <trkpt lat="45.15868" lon="5.91359">
        <ele>1920</ele>
        <time>2019-01-20T09:07:05.000Z</time>
      </trkpt>
      <trkpt lat="45.15868" lon="5.91359">
        <ele>1920</ele>
        <time>2019-01-20T09:07:06.000Z</time>
      </trkpt>
      <trkpt lat="45.1587" lon="5.91361">
        <ele>1920</ele>
        <time>2019-01-20T09:07:07.000Z</time>
      </trkpt>
      <trkpt lat="45.1587" lon="5.91361">
        <ele>1920</ele>
        <time>2019-01-20T09:07:08.000Z</time>
      </trkpt>
      <trkpt lat="45.1587" lon="5.91361">
        <ele>1920</ele>
        <time>2019-01-20T09:07:09.000Z</time>
      </trkpt>
      <trkpt lat="45.1587" lon="5.91361">
        <ele>1920</ele>
        <time>2019-01-20T09:07:10.000Z</time>
      </trkpt>
      <trkpt lat="45.15872" lon="5.91363">
        <ele>1921</ele>
        <time>2019-01-20T09:07:11.000Z</time>
      </trkpt>
      <trkpt lat="45.15872" lon="5.91363">
        <ele>1922</ele>
        <time>2019-01-20T09:07:12.000Z</time>
      </trkpt>
      <trkpt lat="45.15874" lon="5.91364">
        <ele>1922</ele>
        <time>2019-01-20T09:07:14.000Z</time>
      </trkpt>
      <trkpt lat="45.15874" lon="5.91364">
        <ele>1922</ele>
        <time>2019-01-20T09:07:15.000Z</time>
      </trkpt>
      <trkpt lat="45.15874" lon="5.91364">
        <ele>1922</ele>
        <time>2019-01-20T09:07:16.000Z</time>
      </trkpt>
      <trkpt lat="45.15876" lon="5.91366">
        <ele>1923</ele>
        <time>2019-01-20T09:07:17.000Z</time>
      </trkpt>
      <trkpt lat="45.15876" lon="5.91366">
        <ele>1923</ele>
        <time>2019-01-20T09:07:18.000Z</time>
      </trkpt>
      <trkpt lat="45.15876" lon="5.91366">
        <ele>1924</ele>
        <time>2019-01-20T09:07:19.000Z</time>
      </trkpt>
      <trkpt lat="45.15878" lon="5.91367">
        <ele>1924</ele>
        <time>2019-01-20T09:07:20.000Z</time>
      </trkpt>
      <trkpt lat="45.15878" lon="5.91367">
        <ele>1924</ele>
        <time>2019-01-20T09:07:21.000Z</time>
      </trkpt>
      <trkpt lat="45.15878" lon="5.91367">
        <ele>1924</ele>
        <time>2019-01-20T09:07:22.000Z</time>
      </trkpt>
      <trkpt lat="45.1588" lon="5.91369">
        <ele>1924</ele>
        <time>2019-01-20T09:07:23.000Z</time>
      </trkpt>
      <trkpt lat="45.1588" lon="5.91369">
        <ele>1925</ele>
        <time>2019-01-20T09:07:24.000Z</time>
      </trkpt>
      <trkpt lat="45.1588" lon="5.91369">
        <ele>1925</ele>
        <time>2019-01-20T09:07:25.000Z</time>
      </trkpt>
      <trkpt lat="45.1588" lon="5.91369">
        <ele>1925</ele>
        <time>2019-01-20T09:07:26.000Z</time>
      </trkpt>
      <trkpt lat="45.1588" lon="5.91369">
        <ele>1925</ele>
        <time>2019-01-20T09:07:27.000Z</time>
      </trkpt>
      <trkpt lat="45.1588" lon="5.91369">
        <ele>1925</ele>
        <time>2019-01-20T09:07:28.000Z</time>
      </trkpt>
      <trkpt lat="45.15882" lon="5.9137">
        <ele>1925</ele>
        <time>2019-01-20T09:07:29.000Z</time>
      </trkpt>
      <trkpt lat="45.15882" lon="5.9137">
        <ele>1925</ele>
        <time>2019-01-20T09:07:30.000Z</time>
      </trkpt>
      <trkpt lat="45.15884" lon="5.9137">
        <ele>1925</ele>
        <time>2019-01-20T09:07:31.000Z</time>
      </trkpt>
      <trkpt lat="45.15887" lon="5.91371">
        <ele>1925.6</ele>
        <time>2019-01-20T09:07:33.000Z</time>
      </trkpt>
      <trkpt lat="45.15887" lon="5.91371">
        <ele>1926</ele>
        <time>2019-01-20T09:07:34.000Z</time>
      </trkpt>
      <trkpt lat="45.15887" lon="5.91371">
        <ele>1926</ele>
        <time>2019-01-20T09:07:35.000Z</time>
      </trkpt>
      <trkpt lat="45.15889" lon="5.91371">
        <ele>1927</ele>
        <time>2019-01-20T09:07:36.000Z</time>
      </trkpt>
      <trkpt lat="45.15889" lon="5.91371">
        <ele>1927</ele>
        <time>2019-01-20T09:07:37.000Z</time>
      </trkpt>
      <trkpt lat="45.15891" lon="5.91372">
        <ele>1927</ele>
        <time>2019-01-20T09:07:38.000Z</time>
      </trkpt>
      <trkpt lat="45.15891" lon="5.91372">
        <ele>1927</ele>
        <time>2019-01-20T09:07:39.000Z</time>
      </trkpt>
      <trkpt lat="45.15891" lon="5.91372">
        <ele>1927</ele>
        <time>2019-01-20T09:07:40.000Z</time>
      </trkpt>
      <trkpt lat="45.15893" lon="5.91374">
        <ele>1927</ele>
        <time>2019-01-20T09:07:41.000Z</time>
      </trkpt>
      <trkpt lat="45.15893" lon="5.91374">
        <ele>1928</ele>
        <time>2019-01-20T09:07:42.000Z</time>
      </trkpt>
      <trkpt lat="45.15893" lon="5.91374">
        <ele>1928</ele>
        <time>2019-01-20T09:07:43.000Z</time>
      </trkpt>
      <trkpt lat="45.15895" lon="5.91375">
        <ele>1928</ele>
        <time>2019-01-20T09:07:44.000Z</time>
      </trkpt>
      <trkpt lat="45.15895" lon="5.91375">
        <ele>1929</ele>
        <time>2019-01-20T09:07:45.000Z</time>
      </trkpt>
      <trkpt lat="45.15895" lon="5.91375">
        <ele>1929</ele>
        <time>2019-01-20T09:07:46.000Z</time>
      </trkpt>
      <trkpt lat="45.15895" lon="5.91375">
        <ele>1929</ele>
        <time>2019-01-20T09:07:47.000Z</time>
      </trkpt>
      <trkpt lat="45.15895" lon="5.91375">
        <ele>1929</ele>
        <time>2019-01-20T09:07:48.000Z</time>
      </trkpt>
      <trkpt lat="45.15895" lon="5.91375">
        <ele>1930</ele>
        <time>2019-01-20T09:07:49.000Z</time>
      </trkpt>
      <trkpt lat="45.15895" lon="5.91375">
        <ele>1930</ele>
        <time>2019-01-20T09:07:50.000Z</time>
      </trkpt>
      <trkpt lat="45.15894" lon="5.91377">
        <ele>1930</ele>
        <time>2019-01-20T09:07:51.000Z</time>
      </trkpt>
      <trkpt lat="45.15894" lon="5.91377">
        <ele>1930</ele>
        <time>2019-01-20T09:07:52.000Z</time>
      </trkpt>
      <trkpt lat="45.15893" lon="5.91379">
        <ele>1930</ele>
        <time>2019-01-20T09:07:53.000Z</time>
      </trkpt>
      <trkpt lat="45.15893" lon="5.91379">
        <ele>1931</ele>
        <time>2019-01-20T09:07:54.000Z</time>
      </trkpt>
      <trkpt lat="45.15893" lon="5.91379">
        <ele>1931</ele>
        <time>2019-01-20T09:07:55.000Z</time>
      </trkpt>
      <trkpt lat="45.15893" lon="5.91379">
        <ele>1931</ele>
        <time>2019-01-20T09:07:56.000Z</time>
      </trkpt>
      <trkpt lat="45.15891" lon="5.9138">
        <ele>1931</ele>
        <time>2019-01-20T09:07:57.000Z</time>
      </trkpt>
      <trkpt lat="45.15891" lon="5.9138">
        <ele>1931</ele>
        <time>2019-01-20T09:07:58.000Z</time>
      </trkpt>
      <trkpt lat="45.15891" lon="5.9138">
        <ele>1932</ele>
        <time>2019-01-20T09:07:59.000Z</time>
      </trkpt>
      <trkpt lat="45.15891" lon="5.9138">
        <ele>1932</ele>
        <time>2019-01-20T09:08:00.000Z</time>
      </trkpt>
      <trkpt lat="45.15889" lon="5.91382">
        <ele>1932</ele>
        <time>2019-01-20T09:08:01.000Z</time>
      </trkpt>
      <trkpt lat="45.15889" lon="5.91382">
        <ele>1933</ele>
        <time>2019-01-20T09:08:02.000Z</time>
      </trkpt>
      <trkpt lat="45.15889" lon="5.91382">
        <ele>1933</ele>
        <time>2019-01-20T09:08:03.000Z</time>
      </trkpt>
      <trkpt lat="45.15888" lon="5.91383">
        <ele>1934</ele>
        <time>2019-01-20T09:08:04.000Z</time>
      </trkpt>
      <trkpt lat="45.15888" lon="5.91383">
        <ele>1934</ele>
        <time>2019-01-20T09:08:05.000Z</time>
      </trkpt>
      <trkpt lat="45.15888" lon="5.91383">
        <ele>1934</ele>
        <time>2019-01-20T09:08:06.000Z</time>
      </trkpt>
      <trkpt lat="45.15888" lon="5.91383">
        <ele>1934</ele>
        <time>2019-01-20T09:08:07.000Z</time>
      </trkpt>
      <trkpt lat="45.15886" lon="5.91384">
        <ele>1934</ele>
        <time>2019-01-20T09:08:08.000Z</time>
      </trkpt>
      <trkpt lat="45.15886" lon="5.91384">
        <ele>1934</ele>
        <time>2019-01-20T09:08:10.000Z</time>
      </trkpt>
      <trkpt lat="45.15883" lon="5.91383">
        <ele>1934.4</ele>
        <time>2019-01-20T09:08:11.000Z</time>
      </trkpt>
      <trkpt lat="45.15883" lon="5.91383">
        <ele>1935</ele>
        <time>2019-01-20T09:08:12.000Z</time>
      </trkpt>
      <trkpt lat="45.15883" lon="5.91383">
        <ele>1935</ele>
        <time>2019-01-20T09:08:13.000Z</time>
      </trkpt>
      <trkpt lat="45.15881" lon="5.91385">
        <ele>1936</ele>
        <time>2019-01-20T09:08:14.000Z</time>
      </trkpt>
      <trkpt lat="45.15881" lon="5.91385">
        <ele>1936</ele>
        <time>2019-01-20T09:08:15.000Z</time>
      </trkpt>
      <trkpt lat="45.15881" lon="5.91385">
        <ele>1936</ele>
        <time>2019-01-20T09:08:16.000Z</time>
      </trkpt>
      <trkpt lat="45.1588" lon="5.91386">
        <ele>1936</ele>
        <time>2019-01-20T09:08:17.000Z</time>
      </trkpt>
      <trkpt lat="45.1588" lon="5.91386">
        <ele>1936</ele>
        <time>2019-01-20T09:08:18.000Z</time>
      </trkpt>
      <trkpt lat="45.1588" lon="5.91386">
        <ele>1937</ele>
        <time>2019-01-20T09:08:19.000Z</time>
      </trkpt>
      <trkpt lat="45.1588" lon="5.91386">
        <ele>1937</ele>
        <time>2019-01-20T09:08:20.000Z</time>
      </trkpt>
      <trkpt lat="45.1588" lon="5.91386">
        <ele>1937</ele>
        <time>2019-01-20T09:08:21.000Z</time>
      </trkpt>
      <trkpt lat="45.1588" lon="5.91386">
        <ele>1937</ele>
        <time>2019-01-20T09:08:22.000Z</time>
      </trkpt>
      <trkpt lat="45.1588" lon="5.91386">
        <ele>1937</ele>
        <time>2019-01-20T09:08:23.000Z</time>
      </trkpt>
      <trkpt lat="45.1588" lon="5.91386">
        <ele>1937</ele>
        <time>2019-01-20T09:08:24.000Z</time>
      </trkpt>
      <trkpt lat="45.1588" lon="5.91386">
        <ele>1937</ele>
        <time>2019-01-20T09:08:25.000Z</time>
      </trkpt>
      <trkpt lat="45.1588" lon="5.91386">
        <ele>1937</ele>
        <time>2019-01-20T09:08:26.000Z</time>
      </trkpt>
      <trkpt lat="45.15881" lon="5.91388">
        <ele>1937</ele>
        <time>2019-01-20T09:08:27.000Z</time>
      </trkpt>
      <trkpt lat="45.15881" lon="5.91388">
        <ele>1937</ele>
        <time>2019-01-20T09:08:28.000Z</time>
      </trkpt>
      <trkpt lat="45.15883" lon="5.9139">
        <ele>1938</ele>
        <time>2019-01-20T09:08:30.000Z</time>
      </trkpt>
      <trkpt lat="45.15883" lon="5.9139">
        <ele>1938</ele>
        <time>2019-01-20T09:08:31.000Z</time>
      </trkpt>
      <trkpt lat="45.15883" lon="5.9139">
        <ele>1938</ele>
        <time>2019-01-20T09:08:32.000Z</time>
      </trkpt>
      <trkpt lat="45.15883" lon="5.9139">
        <ele>1939</ele>
        <time>2019-01-20T09:08:33.000Z</time>
      </trkpt>
      <trkpt lat="45.15885" lon="5.91391">
        <ele>1939</ele>
        <time>2019-01-20T09:08:34.000Z</time>
      </trkpt>
      <trkpt lat="45.15885" lon="5.91391">
        <ele>1939</ele>
        <time>2019-01-20T09:08:35.000Z</time>
      </trkpt>
      <trkpt lat="45.15885" lon="5.91391">
        <ele>1939</ele>
        <time>2019-01-20T09:08:36.000Z</time>
      </trkpt>
      <trkpt lat="45.15887" lon="5.91393">
        <ele>1939</ele>
        <time>2019-01-20T09:08:37.000Z</time>
      </trkpt>
      <trkpt lat="45.15887" lon="5.91393">
        <ele>1939</ele>
        <time>2019-01-20T09:08:38.000Z</time>
      </trkpt>
      <trkpt lat="45.15887" lon="5.91393">
        <ele>1939</ele>
        <time>2019-01-20T09:08:39.000Z</time>
      </trkpt>
      <trkpt lat="45.15889" lon="5.91395">
        <ele>1940</ele>
        <time>2019-01-20T09:08:40.000Z</time>
      </trkpt>
      <trkpt lat="45.15889" lon="5.91395">
        <ele>1940</ele>
        <time>2019-01-20T09:08:41.000Z</time>
      </trkpt>
      <trkpt lat="45.15889" lon="5.91395">
        <ele>1940</ele>
        <time>2019-01-20T09:08:42.000Z</time>
      </trkpt>
      <trkpt lat="45.15891" lon="5.91396">
        <ele>1940</ele>
        <time>2019-01-20T09:08:43.000Z</time>
      </trkpt>
      <trkpt lat="45.15891" lon="5.91396">
        <ele>1941</ele>
        <time>2019-01-20T09:08:44.000Z</time>
      </trkpt>
      <trkpt lat="45.15891" lon="5.91396">
        <ele>1941</ele>
        <time>2019-01-20T09:08:45.000Z</time>
      </trkpt>
      <trkpt lat="45.15893" lon="5.91397">
        <ele>1941</ele>
        <time>2019-01-20T09:08:46.000Z</time>
      </trkpt>
      <trkpt lat="45.15893" lon="5.91397">
        <ele>1942</ele>
        <time>2019-01-20T09:08:47.000Z</time>
      </trkpt>
      <trkpt lat="45.15895" lon="5.91398">
        <ele>1942</ele>
        <time>2019-01-20T09:08:49.000Z</time>
      </trkpt>
      <trkpt lat="45.15895" lon="5.91398">
        <ele>1942</ele>
        <time>2019-01-20T09:08:50.000Z</time>
      </trkpt>
      <trkpt lat="45.15895" lon="5.91398">
        <ele>1942</ele>
        <time>2019-01-20T09:08:51.000Z</time>
      </trkpt>
      <trkpt lat="45.15897" lon="5.91399">
        <ele>1943</ele>
        <time>2019-01-20T09:08:52.000Z</time>
      </trkpt>
      <trkpt lat="45.15897" lon="5.91399">
        <ele>1943</ele>
        <time>2019-01-20T09:08:53.000Z</time>
      </trkpt>
      <trkpt lat="45.15897" lon="5.91399">
        <ele>1943</ele>
        <time>2019-01-20T09:08:54.000Z</time>
      </trkpt>
      <trkpt lat="45.15899" lon="5.914">
        <ele>1944</ele>
        <time>2019-01-20T09:08:55.000Z</time>
      </trkpt>
      <trkpt lat="45.15899" lon="5.914">
        <ele>1944</ele>
        <time>2019-01-20T09:08:56.000Z</time>
      </trkpt>
      <trkpt lat="45.15899" lon="5.914">
        <ele>1944</ele>
        <time>2019-01-20T09:08:57.000Z</time>
      </trkpt>
      <trkpt lat="45.15899" lon="5.914">
        <ele>1945</ele>
        <time>2019-01-20T09:08:58.000Z</time>
      </trkpt>
      <trkpt lat="45.15902" lon="5.91401">
        <ele>1945</ele>
        <time>2019-01-20T09:08:59.000Z</time>
      </trkpt>
      <trkpt lat="45.15902" lon="5.91401">
        <ele>1945</ele>
        <time>2019-01-20T09:09:00.000Z</time>
      </trkpt>
      <trkpt lat="45.15902" lon="5.91401">
        <ele>1945</ele>
        <time>2019-01-20T09:09:01.000Z</time>
      </trkpt>
      <trkpt lat="45.15902" lon="5.91401">
        <ele>1945</ele>
        <time>2019-01-20T09:09:02.000Z</time>
      </trkpt>
      <trkpt lat="45.15902" lon="5.91401">
        <ele>1946</ele>
        <time>2019-01-20T09:09:03.000Z</time>
      </trkpt>
      <trkpt lat="45.15904" lon="5.91402">
        <ele>1946</ele>
        <time>2019-01-20T09:09:04.000Z</time>
      </trkpt>
      <trkpt lat="45.15904" lon="5.91402">
        <ele>1946</ele>
        <time>2019-01-20T09:09:05.000Z</time>
      </trkpt>
      <trkpt lat="45.15904" lon="5.91402">
        <ele>1946</ele>
        <time>2019-01-20T09:09:06.000Z</time>
      </trkpt>
      <trkpt lat="45.15906" lon="5.91404">
        <ele>1946</ele>
        <time>2019-01-20T09:09:07.000Z</time>
      </trkpt>
      <trkpt lat="45.15906" lon="5.91404">
        <ele>1947</ele>
        <time>2019-01-20T09:09:08.000Z</time>
      </trkpt>
      <trkpt lat="45.15906" lon="5.91404">
        <ele>1947</ele>
        <time>2019-01-20T09:09:09.000Z</time>
      </trkpt>
      <trkpt lat="45.15906" lon="5.91404">
        <ele>1947</ele>
        <time>2019-01-20T09:09:10.000Z</time>
      </trkpt>
      <trkpt lat="45.15906" lon="5.91404">
        <ele>1947</ele>
        <time>2019-01-20T09:09:11.000Z</time>
      </trkpt>
      <trkpt lat="45.15906" lon="5.91404">
        <ele>1947</ele>
        <time>2019-01-20T09:09:12.000Z</time>
      </trkpt>
      <trkpt lat="45.15904" lon="5.91406">
        <ele>1948</ele>
        <time>2019-01-20T09:09:13.000Z</time>
      </trkpt>
      <trkpt lat="45.15904" lon="5.91406">
        <ele>1948</ele>
        <time>2019-01-20T09:09:14.000Z</time>
      </trkpt>
      <trkpt lat="45.15904" lon="5.91406">
        <ele>1948</ele>
        <time>2019-01-20T09:09:15.000Z</time>
      </trkpt>
      <trkpt lat="45.15902" lon="5.91407">
        <ele>1949</ele>
        <time>2019-01-20T09:09:16.000Z</time>
      </trkpt>
      <trkpt lat="45.15902" lon="5.91407">
        <ele>1949</ele>
        <time>2019-01-20T09:09:17.000Z</time>
      </trkpt>
      <trkpt lat="45.15902" lon="5.91407">
        <ele>1949</ele>
        <time>2019-01-20T09:09:18.000Z</time>
      </trkpt>
      <trkpt lat="45.15901" lon="5.91409">
        <ele>1949</ele>
        <time>2019-01-20T09:09:19.000Z</time>
      </trkpt>
      <trkpt lat="45.15901" lon="5.91409">
        <ele>1949</ele>
        <time>2019-01-20T09:09:20.000Z</time>
      </trkpt>
      <trkpt lat="45.15901" lon="5.91409">
        <ele>1949</ele>
        <time>2019-01-20T09:09:21.000Z</time>
      </trkpt>
      <trkpt lat="45.15899" lon="5.9141">
        <ele>1949</ele>
        <time>2019-01-20T09:09:22.000Z</time>
      </trkpt>
      <trkpt lat="45.15899" lon="5.9141">
        <ele>1949</ele>
        <time>2019-01-20T09:09:23.000Z</time>
      </trkpt>
      <trkpt lat="45.15899" lon="5.9141">
        <ele>1950</ele>
        <time>2019-01-20T09:09:24.000Z</time>
      </trkpt>
      <trkpt lat="45.15897" lon="5.91411">
        <ele>1950</ele>
        <time>2019-01-20T09:09:25.000Z</time>
      </trkpt>
      <trkpt lat="45.15897" lon="5.91411">
        <ele>1950</ele>
        <time>2019-01-20T09:09:27.000Z</time>
      </trkpt>
      <trkpt lat="45.15894" lon="5.91412">
        <ele>1950</ele>
        <time>2019-01-20T09:09:28.000Z</time>
      </trkpt>
      <trkpt lat="45.15894" lon="5.91412">
        <ele>1951</ele>
        <time>2019-01-20T09:09:29.000Z</time>
      </trkpt>
      <trkpt lat="45.15894" lon="5.91412">
        <ele>1951</ele>
        <time>2019-01-20T09:09:30.000Z</time>
      </trkpt>
      <trkpt lat="45.15892" lon="5.91413">
        <ele>1951</ele>
        <time>2019-01-20T09:09:31.000Z</time>
      </trkpt>
      <trkpt lat="45.15892" lon="5.91413">
        <ele>1951.6</ele>
        <time>2019-01-20T09:09:33.000Z</time>
      </trkpt>
      <trkpt lat="45.1589" lon="5.91414">
        <ele>1952</ele>
        <time>2019-01-20T09:09:34.000Z</time>
      </trkpt>
      <trkpt lat="45.1589" lon="5.91414">
        <ele>1952</ele>
        <time>2019-01-20T09:09:35.000Z</time>
      </trkpt>
      <trkpt lat="45.1589" lon="5.91414">
        <ele>1952</ele>
        <time>2019-01-20T09:09:36.000Z</time>
      </trkpt>
      <trkpt lat="45.15888" lon="5.91415">
        <ele>1952</ele>
        <time>2019-01-20T09:09:37.000Z</time>
      </trkpt>
      <trkpt lat="45.15888" lon="5.91415">
        <ele>1952</ele>
        <time>2019-01-20T09:09:38.000Z</time>
      </trkpt>
      <trkpt lat="45.15888" lon="5.91415">
        <ele>1953</ele>
        <time>2019-01-20T09:09:39.000Z</time>
      </trkpt>
      <trkpt lat="45.15888" lon="5.91415">
        <ele>1953</ele>
        <time>2019-01-20T09:09:40.000Z</time>
      </trkpt>
      <trkpt lat="45.15888" lon="5.91415">
        <ele>1953</ele>
        <time>2019-01-20T09:09:41.000Z</time>
      </trkpt>
      <trkpt lat="45.15886" lon="5.91415">
        <ele>1953</ele>
        <time>2019-01-20T09:09:42.000Z</time>
      </trkpt>
      <trkpt lat="45.15886" lon="5.91415">
        <ele>1953</ele>
        <time>2019-01-20T09:09:43.000Z</time>
      </trkpt>
      <trkpt lat="45.15886" lon="5.91415">
        <ele>1953</ele>
        <time>2019-01-20T09:09:44.000Z</time>
      </trkpt>
      <trkpt lat="45.15884" lon="5.91416">
        <ele>1953</ele>
        <time>2019-01-20T09:09:46.000Z</time>
      </trkpt>
      <trkpt lat="45.15884" lon="5.91416">
        <ele>1953</ele>
        <time>2019-01-20T09:09:47.000Z</time>
      </trkpt>
      <trkpt lat="45.15884" lon="5.91416">
        <ele>1953</ele>
        <time>2019-01-20T09:09:48.000Z</time>
      </trkpt>
      <trkpt lat="45.15884" lon="5.91416">
        <ele>1954</ele>
        <time>2019-01-20T09:09:49.000Z</time>
      </trkpt>
      <trkpt lat="45.15882" lon="5.91416">
        <ele>1954</ele>
        <time>2019-01-20T09:09:50.000Z</time>
      </trkpt>
      <trkpt lat="45.15882" lon="5.91416">
        <ele>1955</ele>
        <time>2019-01-20T09:09:51.000Z</time>
      </trkpt>
      <trkpt lat="45.15882" lon="5.91416">
        <ele>1955</ele>
        <time>2019-01-20T09:09:52.000Z</time>
      </trkpt>
      <trkpt lat="45.15882" lon="5.91416">
        <ele>1955</ele>
        <time>2019-01-20T09:09:53.000Z</time>
      </trkpt>
      <trkpt lat="45.15882" lon="5.91416">
        <ele>1955</ele>
        <time>2019-01-20T09:09:54.000Z</time>
      </trkpt>
      <trkpt lat="45.1588" lon="5.91418">
        <ele>1955</ele>
        <time>2019-01-20T09:09:55.000Z</time>
      </trkpt>
      <trkpt lat="45.1588" lon="5.91418">
        <ele>1955</ele>
        <time>2019-01-20T09:09:56.000Z</time>
      </trkpt>
      <trkpt lat="45.1588" lon="5.91418">
        <ele>1955</ele>
        <time>2019-01-20T09:09:57.000Z</time>
      </trkpt>
      <trkpt lat="45.1588" lon="5.91418">
        <ele>1956</ele>
        <time>2019-01-20T09:09:58.000Z</time>
      </trkpt>
      <trkpt lat="45.15878" lon="5.91419">
        <ele>1956</ele>
        <time>2019-01-20T09:09:59.000Z</time>
      </trkpt>
      <trkpt lat="45.15878" lon="5.91419">
        <ele>1956</ele>
        <time>2019-01-20T09:10:00.000Z</time>
      </trkpt>
      <trkpt lat="45.15878" lon="5.91419">
        <ele>1956</ele>
        <time>2019-01-20T09:10:01.000Z</time>
      </trkpt>
      <trkpt lat="45.15876" lon="5.9142">
        <ele>1956</ele>
        <time>2019-01-20T09:10:02.000Z</time>
      </trkpt>
      <trkpt lat="45.15876" lon="5.9142">
        <ele>1956</ele>
        <time>2019-01-20T09:10:03.000Z</time>
      </trkpt>
      <trkpt lat="45.15876" lon="5.9142">
        <ele>1956</ele>
        <time>2019-01-20T09:10:05.000Z</time>
      </trkpt>
      <trkpt lat="45.15876" lon="5.9142">
        <ele>1956</ele>
        <time>2019-01-20T09:10:06.000Z</time>
      </trkpt>
      <trkpt lat="45.15876" lon="5.9142">
        <ele>1956</ele>
        <time>2019-01-20T09:10:07.000Z</time>
      </trkpt>
      <trkpt lat="45.15876" lon="5.9142">
        <ele>1956</ele>
        <time>2019-01-20T09:10:08.000Z</time>
      </trkpt>
      <trkpt lat="45.15876" lon="5.9142">
        <ele>1956</ele>
        <time>2019-01-20T09:10:09.000Z</time>
      </trkpt>
      <trkpt lat="45.15876" lon="5.9142">
        <ele>1956</ele>
        <time>2019-01-20T09:10:10.000Z</time>
      </trkpt>
      <trkpt lat="45.15876" lon="5.9142">
        <ele>1956</ele>
        <time>2019-01-20T09:10:11.000Z</time>
      </trkpt>
      <trkpt lat="45.15876" lon="5.9142">
        <ele>1956</ele>
        <time>2019-01-20T09:10:12.000Z</time>
      </trkpt>
      <trkpt lat="45.15876" lon="5.9142">
        <ele>1956</ele>
        <time>2019-01-20T09:10:13.000Z</time>
      </trkpt>
      <trkpt lat="45.15876" lon="5.9142">
        <ele>1957</ele>
        <time>2019-01-20T09:10:14.000Z</time>
      </trkpt>
      <trkpt lat="45.15876" lon="5.9142">
        <ele>1957</ele>
        <time>2019-01-20T09:10:15.000Z</time>
      </trkpt>
      <trkpt lat="45.15876" lon="5.9142">
        <ele>1957</ele>
        <time>2019-01-20T09:10:16.000Z</time>
      </trkpt>
      <trkpt lat="45.15876" lon="5.9142">
        <ele>1958</ele>
        <time>2019-01-20T09:10:17.000Z</time>
      </trkpt>
      <trkpt lat="45.15875" lon="5.91422">
        <ele>1958</ele>
        <time>2019-01-20T09:10:18.000Z</time>
      </trkpt>
      <trkpt lat="45.15875" lon="5.91422">
        <ele>1958</ele>
        <time>2019-01-20T09:10:19.000Z</time>
      </trkpt>
      <trkpt lat="45.15875" lon="5.91422">
        <ele>1958</ele>
        <time>2019-01-20T09:10:20.000Z</time>
      </trkpt>
      <trkpt lat="45.15875" lon="5.91422">
        <ele>1958</ele>
        <time>2019-01-20T09:10:21.000Z</time>
      </trkpt>
      <trkpt lat="45.15874" lon="5.91424">
        <ele>1958</ele>
        <time>2019-01-20T09:10:22.000Z</time>
      </trkpt>
      <trkpt lat="45.15874" lon="5.91424">
        <ele>1958</ele>
        <time>2019-01-20T09:10:24.000Z</time>
      </trkpt>
      <trkpt lat="45.15872" lon="5.91425">
        <ele>1958</ele>
        <time>2019-01-20T09:10:25.000Z</time>
      </trkpt>
      <trkpt lat="45.15872" lon="5.91425">
        <ele>1959</ele>
        <time>2019-01-20T09:10:26.000Z</time>
      </trkpt>
      <trkpt lat="45.15872" lon="5.91425">
        <ele>1959</ele>
        <time>2019-01-20T09:10:27.000Z</time>
      </trkpt>
      <trkpt lat="45.1587" lon="5.91427">
        <ele>1960</ele>
        <time>2019-01-20T09:10:28.000Z</time>
      </trkpt>
      <trkpt lat="45.1587" lon="5.91427">
        <ele>1960</ele>
        <time>2019-01-20T09:10:29.000Z</time>
      </trkpt>
      <trkpt lat="45.1587" lon="5.91427">
        <ele>1960</ele>
        <time>2019-01-20T09:10:30.000Z</time>
      </trkpt>
      <trkpt lat="45.15868" lon="5.91429">
        <ele>1960</ele>
        <time>2019-01-20T09:10:31.000Z</time>
      </trkpt>
      <trkpt lat="45.15868" lon="5.91429">
        <ele>1961</ele>
        <time>2019-01-20T09:10:32.000Z</time>
      </trkpt>
      <trkpt lat="45.15868" lon="5.91429">
        <ele>1961</ele>
        <time>2019-01-20T09:10:33.000Z</time>
      </trkpt>
      <trkpt lat="45.15867" lon="5.91431">
        <ele>1962</ele>
        <time>2019-01-20T09:10:34.000Z</time>
      </trkpt>
      <trkpt lat="45.15867" lon="5.91431">
        <ele>1962</ele>
        <time>2019-01-20T09:10:35.000Z</time>
      </trkpt>
      <trkpt lat="45.15867" lon="5.91431">
        <ele>1962</ele>
        <time>2019-01-20T09:10:36.000Z</time>
      </trkpt>
      <trkpt lat="45.15865" lon="5.91433">
        <ele>1962</ele>
        <time>2019-01-20T09:10:37.000Z</time>
      </trkpt>
      <trkpt lat="45.15865" lon="5.91433">
        <ele>1962</ele>
        <time>2019-01-20T09:10:38.000Z</time>
      </trkpt>
      <trkpt lat="45.15865" lon="5.91433">
        <ele>1962</ele>
        <time>2019-01-20T09:10:39.000Z</time>
      </trkpt>
      <trkpt lat="45.15864" lon="5.91435">
        <ele>1962</ele>
        <time>2019-01-20T09:10:40.000Z</time>
      </trkpt>
      <trkpt lat="45.15864" lon="5.91435">
        <ele>1962</ele>
        <time>2019-01-20T09:10:41.000Z</time>
      </trkpt>
      <trkpt lat="45.15863" lon="5.91437">
        <ele>1962</ele>
        <time>2019-01-20T09:10:43.000Z</time>
      </trkpt>
      <trkpt lat="45.15863" lon="5.91437">
        <ele>1962</ele>
        <time>2019-01-20T09:10:44.000Z</time>
      </trkpt>
      <trkpt lat="45.15863" lon="5.91437">
        <ele>1963</ele>
        <time>2019-01-20T09:10:45.000Z</time>
      </trkpt>
      <trkpt lat="45.15863" lon="5.91437">
        <ele>1963</ele>
        <time>2019-01-20T09:10:46.000Z</time>
      </trkpt>
      <trkpt lat="45.15861" lon="5.9144">
        <ele>1963</ele>
        <time>2019-01-20T09:10:47.000Z</time>
      </trkpt>
      <trkpt lat="45.15861" lon="5.9144">
        <ele>1963</ele>
        <time>2019-01-20T09:10:48.000Z</time>
      </trkpt>
      <trkpt lat="45.15861" lon="5.9144">
        <ele>1964</ele>
        <time>2019-01-20T09:10:49.000Z</time>
      </trkpt>
      <trkpt lat="45.1586" lon="5.91442">
        <ele>1964</ele>
        <time>2019-01-20T09:10:50.000Z</time>
      </trkpt>
      <trkpt lat="45.1586" lon="5.91442">
        <ele>1964</ele>
        <time>2019-01-20T09:10:51.000Z</time>
      </trkpt>
      <trkpt lat="45.1586" lon="5.91442">
        <ele>1964</ele>
        <time>2019-01-20T09:10:52.000Z</time>
      </trkpt>
      <trkpt lat="45.15858" lon="5.91444">
        <ele>1965</ele>
        <time>2019-01-20T09:10:53.000Z</time>
      </trkpt>
      <trkpt lat="45.15858" lon="5.91444">
        <ele>1965</ele>
        <time>2019-01-20T09:10:54.000Z</time>
      </trkpt>
      <trkpt lat="45.15858" lon="5.91444">
        <ele>1965</ele>
        <time>2019-01-20T09:10:55.000Z</time>
      </trkpt>
      <trkpt lat="45.15857" lon="5.91446">
        <ele>1965</ele>
        <time>2019-01-20T09:10:56.000Z</time>
      </trkpt>
      <trkpt lat="45.15857" lon="5.91446">
        <ele>1965</ele>
        <time>2019-01-20T09:10:57.000Z</time>
      </trkpt>
      <trkpt lat="45.15857" lon="5.91446">
        <ele>1966</ele>
        <time>2019-01-20T09:10:58.000Z</time>
      </trkpt>
      <trkpt lat="45.15855" lon="5.91448">
        <ele>1966</ele>
        <time>2019-01-20T09:10:59.000Z</time>
      </trkpt>
      <trkpt lat="45.15855" lon="5.91448">
        <ele>1966</ele>
        <time>2019-01-20T09:11:00.000Z</time>
      </trkpt>
      <trkpt lat="45.15854" lon="5.9145">
        <ele>1966.4</ele>
        <time>2019-01-20T09:11:02.000Z</time>
      </trkpt>
      <trkpt lat="45.15854" lon="5.9145">
        <ele>1967</ele>
        <time>2019-01-20T09:11:04.000Z</time>
      </trkpt>
      <trkpt lat="45.15852" lon="5.91452">
        <ele>1967</ele>
        <time>2019-01-20T09:11:05.000Z</time>
      </trkpt>
      <trkpt lat="45.15852" lon="5.91452">
        <ele>1967</ele>
        <time>2019-01-20T09:11:06.000Z</time>
      </trkpt>
      <trkpt lat="45.15852" lon="5.91452">
        <ele>1967</ele>
        <time>2019-01-20T09:11:07.000Z</time>
      </trkpt>
      <trkpt lat="45.1585" lon="5.91454">
        <ele>1968</ele>
        <time>2019-01-20T09:11:08.000Z</time>
      </trkpt>
      <trkpt lat="45.1585" lon="5.91454">
        <ele>1968</ele>
        <time>2019-01-20T09:11:09.000Z</time>
      </trkpt>
      <trkpt lat="45.1585" lon="5.91454">
        <ele>1968</ele>
        <time>2019-01-20T09:11:10.000Z</time>
      </trkpt>
      <trkpt lat="45.15848" lon="5.91455">
        <ele>1968</ele>
        <time>2019-01-20T09:11:11.000Z</time>
      </trkpt>
      <trkpt lat="45.15848" lon="5.91455">
        <ele>1969</ele>
        <time>2019-01-20T09:11:12.000Z</time>
      </trkpt>
      <trkpt lat="45.15848" lon="5.91455">
        <ele>1969</ele>
        <time>2019-01-20T09:11:13.000Z</time>
      </trkpt>
      <trkpt lat="45.15848" lon="5.91455">
        <ele>1969</ele>
        <time>2019-01-20T09:11:14.000Z</time>
      </trkpt>
      <trkpt lat="45.15846" lon="5.91457">
        <ele>1970</ele>
        <time>2019-01-20T09:11:15.000Z</time>
      </trkpt>
      <trkpt lat="45.15846" lon="5.91457">
        <ele>1970</ele>
        <time>2019-01-20T09:11:16.000Z</time>
      </trkpt>
      <trkpt lat="45.15845" lon="5.91459">
        <ele>1970</ele>
        <time>2019-01-20T09:11:17.000Z</time>
      </trkpt>
      <trkpt lat="45.15845" lon="5.91459">
        <ele>1970</ele>
        <time>2019-01-20T09:11:18.000Z</time>
      </trkpt>
      <trkpt lat="45.15844" lon="5.91461">
        <ele>1970</ele>
        <time>2019-01-20T09:11:19.000Z</time>
      </trkpt>
      <trkpt lat="45.15844" lon="5.91461">
        <ele>1970.4</ele>
        <time>2019-01-20T09:11:21.000Z</time>
      </trkpt>
      <trkpt lat="45.15842" lon="5.91463">
        <ele>1971</ele>
        <time>2019-01-20T09:11:22.000Z</time>
      </trkpt>
      <trkpt lat="45.15842" lon="5.91463">
        <ele>1971</ele>
        <time>2019-01-20T09:11:23.000Z</time>
      </trkpt>
      <trkpt lat="45.15842" lon="5.91463">
        <ele>1972</ele>
        <time>2019-01-20T09:11:24.000Z</time>
      </trkpt>
      <trkpt lat="45.1584" lon="5.91465">
        <ele>1972</ele>
        <time>2019-01-20T09:11:25.000Z</time>
      </trkpt>
      <trkpt lat="45.1584" lon="5.91465">
        <ele>1973</ele>
        <time>2019-01-20T09:11:26.000Z</time>
      </trkpt>
      <trkpt lat="45.1584" lon="5.91465">
        <ele>1973</ele>
        <time>2019-01-20T09:11:27.000Z</time>
      </trkpt>
      <trkpt lat="45.15839" lon="5.91468">
        <ele>1973</ele>
        <time>2019-01-20T09:11:28.000Z</time>
      </trkpt>
      <trkpt lat="45.15839" lon="5.91468">
        <ele>1973</ele>
        <time>2019-01-20T09:11:29.000Z</time>
      </trkpt>
      <trkpt lat="45.15839" lon="5.91468">
        <ele>1973</ele>
        <time>2019-01-20T09:11:30.000Z</time>
      </trkpt>
      <trkpt lat="45.15837" lon="5.91471">
        <ele>1973</ele>
        <time>2019-01-20T09:11:31.000Z</time>
      </trkpt>
      <trkpt lat="45.15837" lon="5.91471">
        <ele>1973</ele>
        <time>2019-01-20T09:11:32.000Z</time>
      </trkpt>
      <trkpt lat="45.15837" lon="5.91471">
        <ele>1974</ele>
        <time>2019-01-20T09:11:33.000Z</time>
      </trkpt>
      <trkpt lat="45.15836" lon="5.91473">
        <ele>1974</ele>
        <time>2019-01-20T09:11:34.000Z</time>
      </trkpt>
      <trkpt lat="45.15836" lon="5.91473">
        <ele>1974</ele>
        <time>2019-01-20T09:11:35.000Z</time>
      </trkpt>
      <trkpt lat="45.15836" lon="5.91473">
        <ele>1974</ele>
        <time>2019-01-20T09:11:36.000Z</time>
      </trkpt>
      <trkpt lat="45.15836" lon="5.91473">
        <ele>1974</ele>
        <time>2019-01-20T09:11:37.000Z</time>
      </trkpt>
      <trkpt lat="45.15836" lon="5.91473">
        <ele>1975</ele>
        <time>2019-01-20T09:11:38.000Z</time>
      </trkpt>
      <trkpt lat="45.15834" lon="5.91475">
        <ele>1975</ele>
        <time>2019-01-20T09:11:40.000Z</time>
      </trkpt>
      <trkpt lat="45.15834" lon="5.91475">
        <ele>1975</ele>
        <time>2019-01-20T09:11:41.000Z</time>
      </trkpt>
      <trkpt lat="45.15834" lon="5.91475">
        <ele>1976</ele>
        <time>2019-01-20T09:11:42.000Z</time>
      </trkpt>
      <trkpt lat="45.15833" lon="5.91478">
        <ele>1976</ele>
        <time>2019-01-20T09:11:43.000Z</time>
      </trkpt>
      <trkpt lat="45.15833" lon="5.91478">
        <ele>1976</ele>
        <time>2019-01-20T09:11:44.000Z</time>
      </trkpt>
      <trkpt lat="45.15833" lon="5.91478">
        <ele>1976</ele>
        <time>2019-01-20T09:11:45.000Z</time>
      </trkpt>
      <trkpt lat="45.15833" lon="5.9148">
        <ele>1977</ele>
        <time>2019-01-20T09:11:46.000Z</time>
      </trkpt>
      <trkpt lat="45.15833" lon="5.9148">
        <ele>1977</ele>
        <time>2019-01-20T09:11:47.000Z</time>
      </trkpt>
      <trkpt lat="45.15833" lon="5.9148">
        <ele>1977</ele>
        <time>2019-01-20T09:11:48.000Z</time>
      </trkpt>
      <trkpt lat="45.15833" lon="5.9148">
        <ele>1978</ele>
        <time>2019-01-20T09:11:49.000Z</time>
      </trkpt>
      <trkpt lat="45.15832" lon="5.91484">
        <ele>1978</ele>
        <time>2019-01-20T09:11:50.000Z</time>
      </trkpt>
      <trkpt lat="45.15832" lon="5.91484">
        <ele>1978</ele>
        <time>2019-01-20T09:11:51.000Z</time>
      </trkpt>
      <trkpt lat="45.15832" lon="5.91484">
        <ele>1978</ele>
        <time>2019-01-20T09:11:52.000Z</time>
      </trkpt>
      <trkpt lat="45.15831" lon="5.91487">
        <ele>1979</ele>
        <time>2019-01-20T09:11:53.000Z</time>
      </trkpt>
      <trkpt lat="45.15831" lon="5.91487">
        <ele>1979</ele>
        <time>2019-01-20T09:11:54.000Z</time>
      </trkpt>
      <trkpt lat="45.15831" lon="5.91487">
        <ele>1980</ele>
        <time>2019-01-20T09:11:55.000Z</time>
      </trkpt>
      <trkpt lat="45.15831" lon="5.91491">
        <ele>1980</ele>
        <time>2019-01-20T09:11:56.000Z</time>
      </trkpt>
      <trkpt lat="45.15831" lon="5.91491">
        <ele>1980</ele>
        <time>2019-01-20T09:11:57.000Z</time>
      </trkpt>
      <trkpt lat="45.1583" lon="5.91494">
        <ele>1980.4</ele>
        <time>2019-01-20T09:11:59.000Z</time>
      </trkpt>
      <trkpt lat="45.1583" lon="5.91494">
        <ele>1981</ele>
        <time>2019-01-20T09:12:00.000Z</time>
      </trkpt>
      <trkpt lat="45.1583" lon="5.91494">
        <ele>1981</ele>
        <time>2019-01-20T09:12:01.000Z</time>
      </trkpt>
      <trkpt lat="45.1583" lon="5.91496">
        <ele>1981</ele>
        <time>2019-01-20T09:12:02.000Z</time>
      </trkpt>
      <trkpt lat="45.1583" lon="5.91496">
        <ele>1981</ele>
        <time>2019-01-20T09:12:03.000Z</time>
      </trkpt>
      <trkpt lat="45.1583" lon="5.91496">
        <ele>1981</ele>
        <time>2019-01-20T09:12:04.000Z</time>
      </trkpt>
      <trkpt lat="45.1583" lon="5.91496">
        <ele>1982</ele>
        <time>2019-01-20T09:12:05.000Z</time>
      </trkpt>
      <trkpt lat="45.1583" lon="5.91496">
        <ele>1982</ele>
        <time>2019-01-20T09:12:06.000Z</time>
      </trkpt>
      <trkpt lat="45.15832" lon="5.91496">
        <ele>1982</ele>
        <time>2019-01-20T09:12:07.000Z</time>
      </trkpt>
      <trkpt lat="45.15832" lon="5.91496">
        <ele>1983</ele>
        <time>2019-01-20T09:12:08.000Z</time>
      </trkpt>
      <trkpt lat="45.15832" lon="5.91496">
        <ele>1983</ele>
        <time>2019-01-20T09:12:09.000Z</time>
      </trkpt>
      <trkpt lat="45.15834" lon="5.91496">
        <ele>1983</ele>
        <time>2019-01-20T09:12:10.000Z</time>
      </trkpt>
      <trkpt lat="45.15834" lon="5.91496">
        <ele>1983</ele>
        <time>2019-01-20T09:12:11.000Z</time>
      </trkpt>
      <trkpt lat="45.15834" lon="5.91496">
        <ele>1983</ele>
        <time>2019-01-20T09:12:12.000Z</time>
      </trkpt>
      <trkpt lat="45.15836" lon="5.91497">
        <ele>1983</ele>
        <time>2019-01-20T09:12:13.000Z</time>
      </trkpt>
      <trkpt lat="45.15836" lon="5.91497">
        <ele>1984</ele>
        <time>2019-01-20T09:12:14.000Z</time>
      </trkpt>
      <trkpt lat="45.15836" lon="5.91497">
        <ele>1984</ele>
        <time>2019-01-20T09:12:15.000Z</time>
      </trkpt>
      <trkpt lat="45.15839" lon="5.91497">
        <ele>1984</ele>
        <time>2019-01-20T09:12:16.000Z</time>
      </trkpt>
      <trkpt lat="45.15839" lon="5.91497">
        <ele>1985</ele>
        <time>2019-01-20T09:12:18.000Z</time>
      </trkpt>
      <trkpt lat="45.15841" lon="5.91498">
        <ele>1985</ele>
        <time>2019-01-20T09:12:19.000Z</time>
      </trkpt>
      <trkpt lat="45.15841" lon="5.91498">
        <ele>1986</ele>
        <time>2019-01-20T09:12:20.000Z</time>
      </trkpt>
      <trkpt lat="45.15841" lon="5.91498">
        <ele>1986</ele>
        <time>2019-01-20T09:12:21.000Z</time>
      </trkpt>
      <trkpt lat="45.15844" lon="5.91498">
        <ele>1986</ele>
        <time>2019-01-20T09:12:22.000Z</time>
      </trkpt>
      <trkpt lat="45.15844" lon="5.91498">
        <ele>1986</ele>
        <time>2019-01-20T09:12:23.000Z</time>
      </trkpt>
      <trkpt lat="45.15844" lon="5.91498">
        <ele>1986</ele>
        <time>2019-01-20T09:12:24.000Z</time>
      </trkpt>
      <trkpt lat="45.15846" lon="5.91498">
        <ele>1987</ele>
        <time>2019-01-20T09:12:25.000Z</time>
      </trkpt>
      <trkpt lat="45.15846" lon="5.91498">
        <ele>1987</ele>
        <time>2019-01-20T09:12:26.000Z</time>
      </trkpt>
      <trkpt lat="45.15846" lon="5.91498">
        <ele>1987</ele>
        <time>2019-01-20T09:12:27.000Z</time>
      </trkpt>
      <trkpt lat="45.15849" lon="5.91498">
        <ele>1988</ele>
        <time>2019-01-20T09:12:28.000Z</time>
      </trkpt>
      <trkpt lat="45.15849" lon="5.91498">
        <ele>1988</ele>
        <time>2019-01-20T09:12:29.000Z</time>
      </trkpt>
      <trkpt lat="45.15849" lon="5.91498">
        <ele>1988</ele>
        <time>2019-01-20T09:12:30.000Z</time>
      </trkpt>
      <trkpt lat="45.15851" lon="5.91498">
        <ele>1988</ele>
        <time>2019-01-20T09:12:31.000Z</time>
      </trkpt>
      <trkpt lat="45.15851" lon="5.91498">
        <ele>1989</ele>
        <time>2019-01-20T09:12:32.000Z</time>
      </trkpt>
      <trkpt lat="45.15851" lon="5.91498">
        <ele>1989</ele>
        <time>2019-01-20T09:12:33.000Z</time>
      </trkpt>
      <trkpt lat="45.15853" lon="5.91498">
        <ele>1989</ele>
        <time>2019-01-20T09:12:34.000Z</time>
      </trkpt>
      <trkpt lat="45.15853" lon="5.91498">
        <ele>1990</ele>
        <time>2019-01-20T09:12:35.000Z</time>
      </trkpt>
      <trkpt lat="45.15856" lon="5.91499">
        <ele>1990</ele>
        <time>2019-01-20T09:12:37.000Z</time>
      </trkpt>
      <trkpt lat="45.15856" lon="5.91499">
        <ele>1990</ele>
        <time>2019-01-20T09:12:38.000Z</time>
      </trkpt>
      <trkpt lat="45.15858" lon="5.91499">
        <ele>1991</ele>
        <time>2019-01-20T09:12:40.000Z</time>
      </trkpt>
      <trkpt lat="45.15858" lon="5.91499">
        <ele>1992</ele>
        <time>2019-01-20T09:12:41.000Z</time>
      </trkpt>
      <trkpt lat="45.15858" lon="5.91499">
        <ele>1992</ele>
        <time>2019-01-20T09:12:42.000Z</time>
      </trkpt>
      <trkpt lat="45.1586" lon="5.915">
        <ele>1992</ele>
        <time>2019-01-20T09:12:43.000Z</time>
      </trkpt>
      <trkpt lat="45.1586" lon="5.915">
        <ele>1992</ele>
        <time>2019-01-20T09:12:44.000Z</time>
      </trkpt>
      <trkpt lat="45.1586" lon="5.915">
        <ele>1992</ele>
        <time>2019-01-20T09:12:45.000Z</time>
      </trkpt>
      <trkpt lat="45.15862" lon="5.915">
        <ele>1992</ele>
        <time>2019-01-20T09:12:46.000Z</time>
      </trkpt>
      <trkpt lat="45.15862" lon="5.915">
        <ele>1993</ele>
        <time>2019-01-20T09:12:47.000Z</time>
      </trkpt>
      <trkpt lat="45.15862" lon="5.915">
        <ele>1993</ele>
        <time>2019-01-20T09:12:48.000Z</time>
      </trkpt>
      <trkpt lat="45.15864" lon="5.91501">
        <ele>1994</ele>
        <time>2019-01-20T09:12:49.000Z</time>
      </trkpt>
      <trkpt lat="45.15864" lon="5.91501">
        <ele>1994</ele>
        <time>2019-01-20T09:12:50.000Z</time>
      </trkpt>
      <trkpt lat="45.15864" lon="5.91501">
        <ele>1994</ele>
        <time>2019-01-20T09:12:51.000Z</time>
      </trkpt>
      <trkpt lat="45.15866" lon="5.91501">
        <ele>1994</ele>
        <time>2019-01-20T09:12:52.000Z</time>
      </trkpt>
      <trkpt lat="45.15866" lon="5.91501">
        <ele>1995</ele>
        <time>2019-01-20T09:12:53.000Z</time>
      </trkpt>
      <trkpt lat="45.15866" lon="5.91501">
        <ele>1995</ele>
        <time>2019-01-20T09:12:54.000Z</time>
      </trkpt>
      <trkpt lat="45.15868" lon="5.91501">
        <ele>1995</ele>
        <time>2019-01-20T09:12:55.000Z</time>
      </trkpt>
      <trkpt lat="45.15868" lon="5.91501">
        <ele>1995.6</ele>
        <time>2019-01-20T09:12:56.000Z</time>
      </trkpt>
      <trkpt lat="45.15868" lon="5.91501">
        <ele>1996</ele>
        <time>2019-01-20T09:12:57.000Z</time>
      </trkpt>
      <trkpt lat="45.1587" lon="5.91501">
        <ele>1996</ele>
        <time>2019-01-20T09:12:58.000Z</time>
      </trkpt>
      <trkpt lat="45.1587" lon="5.91501">
        <ele>1996</ele>
        <time>2019-01-20T09:12:59.000Z</time>
      </trkpt>
      <trkpt lat="45.1587" lon="5.91501">
        <ele>1996</ele>
        <time>2019-01-20T09:13:00.000Z</time>
      </trkpt>
      <trkpt lat="45.15872" lon="5.91501">
        <ele>1996</ele>
        <time>2019-01-20T09:13:01.000Z</time>
      </trkpt>
      <trkpt lat="45.15872" lon="5.91501">
        <ele>1996</ele>
        <time>2019-01-20T09:13:02.000Z</time>
      </trkpt>
      <trkpt lat="45.15872" lon="5.91501">
        <ele>1997</ele>
        <time>2019-01-20T09:13:03.000Z</time>
      </trkpt>
      <trkpt lat="45.15874" lon="5.91502">
        <ele>1997</ele>
        <time>2019-01-20T09:13:04.000Z</time>
      </trkpt>
      <trkpt lat="45.15874" lon="5.91502">
        <ele>1998</ele>
        <time>2019-01-20T09:13:05.000Z</time>
      </trkpt>
      <trkpt lat="45.15874" lon="5.91502">
        <ele>1998</ele>
        <time>2019-01-20T09:13:06.000Z</time>
      </trkpt>
      <trkpt lat="45.15876" lon="5.91503">
        <ele>1998</ele>
        <time>2019-01-20T09:13:07.000Z</time>
      </trkpt>
      <trkpt lat="45.15876" lon="5.91503">
        <ele>1998</ele>
        <time>2019-01-20T09:13:08.000Z</time>
      </trkpt>
      <trkpt lat="45.15876" lon="5.91503">
        <ele>1998</ele>
        <time>2019-01-20T09:13:09.000Z</time>
      </trkpt>
      <trkpt lat="45.15879" lon="5.91504">
        <ele>1998</ele>
        <time>2019-01-20T09:13:10.000Z</time>
      </trkpt>
      <trkpt lat="45.15879" lon="5.91504">
        <ele>1998</ele>
        <time>2019-01-20T09:13:11.000Z</time>
      </trkpt>
      <trkpt lat="45.15879" lon="5.91504">
        <ele>1998</ele>
        <time>2019-01-20T09:13:12.000Z</time>
      </trkpt>
      <trkpt lat="45.15879" lon="5.91504">
        <ele>1999</ele>
        <time>2019-01-20T09:13:13.000Z</time>
      </trkpt>
      <trkpt lat="45.15881" lon="5.91505">
        <ele>1999</ele>
        <time>2019-01-20T09:13:14.000Z</time>
      </trkpt>
      <trkpt lat="45.15881" lon="5.91505">
        <ele>1999</ele>
        <time>2019-01-20T09:13:15.000Z</time>
      </trkpt>
      <trkpt lat="45.15881" lon="5.91505">
        <ele>1999</ele>
        <time>2019-01-20T09:13:16.000Z</time>
      </trkpt>
      <trkpt lat="45.15883" lon="5.91507">
        <ele>2000</ele>
        <time>2019-01-20T09:13:17.000Z</time>
      </trkpt>
      <trkpt lat="45.15883" lon="5.91507">
        <ele>2000</ele>
        <time>2019-01-20T09:13:18.000Z</time>
      </trkpt>
      <trkpt lat="45.15883" lon="5.91507">
        <ele>2001</ele>
        <time>2019-01-20T09:13:19.000Z</time>
      </trkpt>
      <trkpt lat="45.15885" lon="5.91509">
        <ele>2001</ele>
        <time>2019-01-20T09:13:20.000Z</time>
      </trkpt>
      <trkpt lat="45.15885" lon="5.91509">
        <ele>2001</ele>
        <time>2019-01-20T09:13:21.000Z</time>
      </trkpt>
      <trkpt lat="45.15886" lon="5.91511">
        <ele>2001</ele>
        <time>2019-01-20T09:13:22.000Z</time>
      </trkpt>
      <trkpt lat="45.15886" lon="5.91511">
        <ele>2002</ele>
        <time>2019-01-20T09:13:23.000Z</time>
      </trkpt>
      <trkpt lat="45.15886" lon="5.91511">
        <ele>2002</ele>
        <time>2019-01-20T09:13:24.000Z</time>
      </trkpt>
      <trkpt lat="45.15887" lon="5.91513">
        <ele>2002</ele>
        <time>2019-01-20T09:13:25.000Z</time>
      </trkpt>
      <trkpt lat="45.15887" lon="5.91513">
        <ele>2003</ele>
        <time>2019-01-20T09:13:27.000Z</time>
      </trkpt>
      <trkpt lat="45.15888" lon="5.91516">
        <ele>2004</ele>
        <time>2019-01-20T09:13:28.000Z</time>
      </trkpt>
      <trkpt lat="45.15888" lon="5.91516">
        <ele>2005</ele>
        <time>2019-01-20T09:13:29.000Z</time>
      </trkpt>
      <trkpt lat="45.15888" lon="5.91516">
        <ele>2005</ele>
        <time>2019-01-20T09:13:30.000Z</time>
      </trkpt>
      <trkpt lat="45.1589" lon="5.91518">
        <ele>2005</ele>
        <time>2019-01-20T09:13:31.000Z</time>
      </trkpt>
      <trkpt lat="45.1589" lon="5.91518">
        <ele>2005</ele>
        <time>2019-01-20T09:13:32.000Z</time>
      </trkpt>
      <trkpt lat="45.15891" lon="5.91521">
        <ele>2005.6</ele>
        <time>2019-01-20T09:13:34.000Z</time>
      </trkpt>
      <trkpt lat="45.15891" lon="5.91521">
        <ele>2007</ele>
        <time>2019-01-20T09:13:35.000Z</time>
      </trkpt>
      <trkpt lat="45.15891" lon="5.91521">
        <ele>2007</ele>
        <time>2019-01-20T09:13:36.000Z</time>
      </trkpt>
      <trkpt lat="45.15893" lon="5.91523">
        <ele>2007</ele>
        <time>2019-01-20T09:13:37.000Z</time>
      </trkpt>
      <trkpt lat="45.15893" lon="5.91523">
        <ele>2007</ele>
        <time>2019-01-20T09:13:38.000Z</time>
      </trkpt>
      <trkpt lat="45.15894" lon="5.91525">
        <ele>2007</ele>
        <time>2019-01-20T09:13:39.000Z</time>
      </trkpt>
      <trkpt lat="45.15894" lon="5.91525">
        <ele>2008</ele>
        <time>2019-01-20T09:13:40.000Z</time>
      </trkpt>
      <trkpt lat="45.15894" lon="5.91525">
        <ele>2008</ele>
        <time>2019-01-20T09:13:41.000Z</time>
      </trkpt>
      <trkpt lat="45.15896" lon="5.91528">
        <ele>2009</ele>
        <time>2019-01-20T09:13:42.000Z</time>
      </trkpt>
      <trkpt lat="45.15896" lon="5.91528">
        <ele>2010</ele>
        <time>2019-01-20T09:13:43.000Z</time>
      </trkpt>
      <trkpt lat="45.15896" lon="5.91528">
        <ele>2010</ele>
        <time>2019-01-20T09:13:44.000Z</time>
      </trkpt>
      <trkpt lat="45.15897" lon="5.91531">
        <ele>2010</ele>
        <time>2019-01-20T09:13:45.000Z</time>
      </trkpt>
      <trkpt lat="45.15897" lon="5.91531">
        <ele>2010</ele>
        <time>2019-01-20T09:13:46.000Z</time>
      </trkpt>
      <trkpt lat="45.15897" lon="5.91531">
        <ele>2011</ele>
        <time>2019-01-20T09:13:47.000Z</time>
      </trkpt>
      <trkpt lat="45.15898" lon="5.91533">
        <ele>2011</ele>
        <time>2019-01-20T09:13:48.000Z</time>
      </trkpt>
      <trkpt lat="45.15898" lon="5.91533">
        <ele>2011</ele>
        <time>2019-01-20T09:13:49.000Z</time>
      </trkpt>
      <trkpt lat="45.15898" lon="5.91533">
        <ele>2011</ele>
        <time>2019-01-20T09:13:50.000Z</time>
      </trkpt>
      <trkpt lat="45.15899" lon="5.91536">
        <ele>2012</ele>
        <time>2019-01-20T09:13:51.000Z</time>
      </trkpt>
      <trkpt lat="45.15899" lon="5.91536">
        <ele>2012</ele>
        <time>2019-01-20T09:13:53.000Z</time>
      </trkpt>
      <trkpt lat="45.15899" lon="5.91536">
        <ele>2012</ele>
        <time>2019-01-20T09:13:54.000Z</time>
      </trkpt>
      <trkpt lat="45.15899" lon="5.91539">
        <ele>2012</ele>
        <time>2019-01-20T09:13:55.000Z</time>
      </trkpt>
      <trkpt lat="45.15899" lon="5.91539">
        <ele>2012</ele>
        <time>2019-01-20T09:13:56.000Z</time>
      </trkpt>
      <trkpt lat="45.15899" lon="5.91539">
        <ele>2012</ele>
        <time>2019-01-20T09:13:57.000Z</time>
      </trkpt>
      <trkpt lat="45.15898" lon="5.91541">
        <ele>2012</ele>
        <time>2019-01-20T09:13:58.000Z</time>
      </trkpt>
      <trkpt lat="45.15898" lon="5.91541">
        <ele>2012</ele>
        <time>2019-01-20T09:13:59.000Z</time>
      </trkpt>
      <trkpt lat="45.15898" lon="5.91541">
        <ele>2012</ele>
        <time>2019-01-20T09:14:00.000Z</time>
      </trkpt>
      <trkpt lat="45.15898" lon="5.91541">
        <ele>2012</ele>
        <time>2019-01-20T09:14:01.000Z</time>
      </trkpt>
      <trkpt lat="45.15898" lon="5.91541">
        <ele>2013</ele>
        <time>2019-01-20T09:14:02.000Z</time>
      </trkpt>
      <trkpt lat="45.15898" lon="5.91541">
        <ele>2013</ele>
        <time>2019-01-20T09:14:03.000Z</time>
      </trkpt>
      <trkpt lat="45.15898" lon="5.91541">
        <ele>2013</ele>
        <time>2019-01-20T09:14:04.000Z</time>
      </trkpt>
      <trkpt lat="45.15898" lon="5.91541">
        <ele>2013</ele>
        <time>2019-01-20T09:14:05.000Z</time>
      </trkpt>
      <trkpt lat="45.15898" lon="5.91541">
        <ele>2013</ele>
        <time>2019-01-20T09:14:06.000Z</time>
      </trkpt>
      <trkpt lat="45.15898" lon="5.91541">
        <ele>2013</ele>
        <time>2019-01-20T09:14:07.000Z</time>
      </trkpt>
      <trkpt lat="45.15898" lon="5.91541">
        <ele>2013</ele>
        <time>2019-01-20T09:14:08.000Z</time>
      </trkpt>
      <trkpt lat="45.15898" lon="5.91541">
        <ele>2013</ele>
        <time>2019-01-20T09:14:09.000Z</time>
      </trkpt>
      <trkpt lat="45.15898" lon="5.91541">
        <ele>2013</ele>
        <time>2019-01-20T09:14:10.000Z</time>
      </trkpt>
      <trkpt lat="45.15899" lon="5.91544">
        <ele>2013.6</ele>
        <time>2019-01-20T09:14:12.000Z</time>
      </trkpt>
      <trkpt lat="45.15899" lon="5.91544">
        <ele>2014</ele>
        <time>2019-01-20T09:14:13.000Z</time>
      </trkpt>
      <trkpt lat="45.15898" lon="5.91546">
        <ele>2014</ele>
        <time>2019-01-20T09:14:14.000Z</time>
      </trkpt>
      <trkpt lat="45.15898" lon="5.91546">
        <ele>2014</ele>
        <time>2019-01-20T09:14:15.000Z</time>
      </trkpt>
      <trkpt lat="45.15898" lon="5.91546">
        <ele>2015</ele>
        <time>2019-01-20T09:14:16.000Z</time>
      </trkpt>
      <trkpt lat="45.15898" lon="5.9155">
        <ele>2015</ele>
        <time>2019-01-20T09:14:17.000Z</time>
      </trkpt>
      <trkpt lat="45.15898" lon="5.9155">
        <ele>2015</ele>
        <time>2019-01-20T09:14:18.000Z</time>
      </trkpt>
      <trkpt lat="45.15898" lon="5.9155">
        <ele>2015</ele>
        <time>2019-01-20T09:14:19.000Z</time>
      </trkpt>
      <trkpt lat="45.15898" lon="5.91553">
        <ele>2015</ele>
        <time>2019-01-20T09:14:20.000Z</time>
      </trkpt>
      <trkpt lat="45.15898" lon="5.91553">
        <ele>2015</ele>
        <time>2019-01-20T09:14:21.000Z</time>
      </trkpt>
      <trkpt lat="45.15898" lon="5.91553">
        <ele>2016</ele>
        <time>2019-01-20T09:14:22.000Z</time>
      </trkpt>
      <trkpt lat="45.15898" lon="5.91556">
        <ele>2016</ele>
        <time>2019-01-20T09:14:23.000Z</time>
      </trkpt>
      <trkpt lat="45.15898" lon="5.91556">
        <ele>2016</ele>
        <time>2019-01-20T09:14:24.000Z</time>
      </trkpt>
      <trkpt lat="45.15898" lon="5.91556">
        <ele>2017</ele>
        <time>2019-01-20T09:14:25.000Z</time>
      </trkpt>
      <trkpt lat="45.15898" lon="5.91559">
        <ele>2017</ele>
        <time>2019-01-20T09:14:26.000Z</time>
      </trkpt>
      <trkpt lat="45.15898" lon="5.91559">
        <ele>2017</ele>
        <time>2019-01-20T09:14:27.000Z</time>
      </trkpt>
      <trkpt lat="45.15898" lon="5.91559">
        <ele>2018</ele>
        <time>2019-01-20T09:14:28.000Z</time>
      </trkpt>
      <trkpt lat="45.15898" lon="5.91562">
        <ele>2018</ele>
        <time>2019-01-20T09:14:29.000Z</time>
      </trkpt>
      <trkpt lat="45.15898" lon="5.91562">
        <ele>2018</ele>
        <time>2019-01-20T09:14:31.000Z</time>
      </trkpt>
      <trkpt lat="45.15899" lon="5.91565">
        <ele>2018</ele>
        <time>2019-01-20T09:14:32.000Z</time>
      </trkpt>
      <trkpt lat="45.15899" lon="5.91565">
        <ele>2018</ele>
        <time>2019-01-20T09:14:33.000Z</time>
      </trkpt>
      <trkpt lat="45.15899" lon="5.91565">
        <ele>2019</ele>
        <time>2019-01-20T09:14:34.000Z</time>
      </trkpt>
      <trkpt lat="45.15899" lon="5.91568">
        <ele>2019</ele>
        <time>2019-01-20T09:14:35.000Z</time>
      </trkpt>
      <trkpt lat="45.15899" lon="5.91568">
        <ele>2019</ele>
        <time>2019-01-20T09:14:36.000Z</time>
      </trkpt>
      <trkpt lat="45.15899" lon="5.91568">
        <ele>2020</ele>
        <time>2019-01-20T09:14:37.000Z</time>
      </trkpt>
      <trkpt lat="45.159" lon="5.91572">
        <ele>2020</ele>
        <time>2019-01-20T09:14:38.000Z</time>
      </trkpt>
      <trkpt lat="45.159" lon="5.91572">
        <ele>2020</ele>
        <time>2019-01-20T09:14:39.000Z</time>
      </trkpt>
      <trkpt lat="45.159" lon="5.91572">
        <ele>2021</ele>
        <time>2019-01-20T09:14:40.000Z</time>
      </trkpt>
      <trkpt lat="45.159" lon="5.91574">
        <ele>2021</ele>
        <time>2019-01-20T09:14:41.000Z</time>
      </trkpt>
      <trkpt lat="45.159" lon="5.91574">
        <ele>2021</ele>
        <time>2019-01-20T09:14:42.000Z</time>
      </trkpt>
      <trkpt lat="45.159" lon="5.91574">
        <ele>2021</ele>
        <time>2019-01-20T09:14:43.000Z</time>
      </trkpt>
      <trkpt lat="45.159" lon="5.91578">
        <ele>2022</ele>
        <time>2019-01-20T09:14:44.000Z</time>
      </trkpt>
      <trkpt lat="45.159" lon="5.91578">
        <ele>2022</ele>
        <time>2019-01-20T09:14:46.000Z</time>
      </trkpt>
      <trkpt lat="45.15901" lon="5.9158">
        <ele>2022</ele>
        <time>2019-01-20T09:14:47.000Z</time>
      </trkpt>
      <trkpt lat="45.15901" lon="5.9158">
        <ele>2022</ele>
        <time>2019-01-20T09:14:48.000Z</time>
      </trkpt>
      <trkpt lat="45.15901" lon="5.91583">
        <ele>2023</ele>
        <time>2019-01-20T09:14:50.000Z</time>
      </trkpt>
      <trkpt lat="45.15901" lon="5.91583">
        <ele>2023</ele>
        <time>2019-01-20T09:14:51.000Z</time>
      </trkpt>
      <trkpt lat="45.15901" lon="5.91583">
        <ele>2023</ele>
        <time>2019-01-20T09:14:52.000Z</time>
      </trkpt>
      <trkpt lat="45.15902" lon="5.91586">
        <ele>2024</ele>
        <time>2019-01-20T09:14:53.000Z</time>
      </trkpt>
      <trkpt lat="45.15902" lon="5.91586">
        <ele>2025</ele>
        <time>2019-01-20T09:14:54.000Z</time>
      </trkpt>
      <trkpt lat="45.15902" lon="5.91586">
        <ele>2025</ele>
        <time>2019-01-20T09:14:55.000Z</time>
      </trkpt>
      <trkpt lat="45.15902" lon="5.91589">
        <ele>2025</ele>
        <time>2019-01-20T09:14:56.000Z</time>
      </trkpt>
      <trkpt lat="45.15902" lon="5.91589">
        <ele>2025</ele>
        <time>2019-01-20T09:14:57.000Z</time>
      </trkpt>
      <trkpt lat="45.15902" lon="5.91589">
        <ele>2025</ele>
        <time>2019-01-20T09:14:58.000Z</time>
      </trkpt>
      <trkpt lat="45.15902" lon="5.91593">
        <ele>2026</ele>
        <time>2019-01-20T09:14:59.000Z</time>
      </trkpt>
      <trkpt lat="45.15902" lon="5.91593">
        <ele>2026</ele>
        <time>2019-01-20T09:15:00.000Z</time>
      </trkpt>
      <trkpt lat="45.15902" lon="5.91593">
        <ele>2026</ele>
        <time>2019-01-20T09:15:01.000Z</time>
      </trkpt>
      <trkpt lat="45.15902" lon="5.91596">
        <ele>2026</ele>
        <time>2019-01-20T09:15:02.000Z</time>
      </trkpt>
      <trkpt lat="45.15902" lon="5.91596">
        <ele>2027</ele>
        <time>2019-01-20T09:15:03.000Z</time>
      </trkpt>
      <trkpt lat="45.15902" lon="5.91596">
        <ele>2027</ele>
        <time>2019-01-20T09:15:04.000Z</time>
      </trkpt>
      <trkpt lat="45.15901" lon="5.91599">
        <ele>2027</ele>
        <time>2019-01-20T09:15:05.000Z</time>
      </trkpt>
      <trkpt lat="45.15901" lon="5.91599">
        <ele>2028</ele>
        <time>2019-01-20T09:15:06.000Z</time>
      </trkpt>
      <trkpt lat="45.15901" lon="5.91599">
        <ele>2028</ele>
        <time>2019-01-20T09:15:07.000Z</time>
      </trkpt>
      <trkpt lat="45.15902" lon="5.91602">
        <ele>2028</ele>
        <time>2019-01-20T09:15:08.000Z</time>
      </trkpt>
      <trkpt lat="45.15902" lon="5.91602">
        <ele>2028</ele>
        <time>2019-01-20T09:15:09.000Z</time>
      </trkpt>
      <trkpt lat="45.15902" lon="5.91602">
        <ele>2028</ele>
        <time>2019-01-20T09:15:10.000Z</time>
      </trkpt>
      <trkpt lat="45.15903" lon="5.91604">
        <ele>2030</ele>
        <time>2019-01-20T09:15:11.000Z</time>
      </trkpt>
      <trkpt lat="45.15903" lon="5.91604">
        <ele>2030</ele>
        <time>2019-01-20T09:15:12.000Z</time>
      </trkpt>
      <trkpt lat="45.15903" lon="5.91604">
        <ele>2031</ele>
        <time>2019-01-20T09:15:13.000Z</time>
      </trkpt>
      <trkpt lat="45.15904" lon="5.91607">
        <ele>2031</ele>
        <time>2019-01-20T09:15:14.000Z</time>
      </trkpt>
      <trkpt lat="45.15904" lon="5.91607">
        <ele>2031</ele>
        <time>2019-01-20T09:15:15.000Z</time>
      </trkpt>
      <trkpt lat="45.15904" lon="5.91607">
        <ele>2031</ele>
        <time>2019-01-20T09:15:16.000Z</time>
      </trkpt>
      <trkpt lat="45.15905" lon="5.9161">
        <ele>2032</ele>
        <time>2019-01-20T09:15:17.000Z</time>
      </trkpt>
      <trkpt lat="45.15905" lon="5.9161">
        <ele>2032</ele>
        <time>2019-01-20T09:15:18.000Z</time>
      </trkpt>
      <trkpt lat="45.15905" lon="5.9161">
        <ele>2032</ele>
        <time>2019-01-20T09:15:19.000Z</time>
      </trkpt>
      <trkpt lat="45.15907" lon="5.91613">
        <ele>2032</ele>
        <time>2019-01-20T09:15:20.000Z</time>
      </trkpt>
      <trkpt lat="45.15907" lon="5.91613">
        <ele>2033</ele>
        <time>2019-01-20T09:15:21.000Z</time>
      </trkpt>
      <trkpt lat="45.15907" lon="5.91613">
        <ele>2033</ele>
        <time>2019-01-20T09:15:22.000Z</time>
      </trkpt>
      <trkpt lat="45.15908" lon="5.91616">
        <ele>2033</ele>
        <time>2019-01-20T09:15:23.000Z</time>
      </trkpt>
      <trkpt lat="45.15908" lon="5.91616">
        <ele>2033</ele>
        <time>2019-01-20T09:15:24.000Z</time>
      </trkpt>
      <trkpt lat="45.15908" lon="5.91616">
        <ele>2033</ele>
        <time>2019-01-20T09:15:25.000Z</time>
      </trkpt>
      <trkpt lat="45.15909" lon="5.91618">
        <ele>2034</ele>
        <time>2019-01-20T09:15:26.000Z</time>
      </trkpt>
      <trkpt lat="45.15909" lon="5.91618">
        <ele>2035</ele>
        <time>2019-01-20T09:15:28.000Z</time>
      </trkpt>
      <trkpt lat="45.15911" lon="5.91621">
        <ele>2035</ele>
        <time>2019-01-20T09:15:29.000Z</time>
      </trkpt>
      <trkpt lat="45.15911" lon="5.91621">
        <ele>2035</ele>
        <time>2019-01-20T09:15:30.000Z</time>
      </trkpt>
      <trkpt lat="45.15911" lon="5.91621">
        <ele>2036</ele>
        <time>2019-01-20T09:15:31.000Z</time>
      </trkpt>
      <trkpt lat="45.15912" lon="5.91624">
        <ele>2036</ele>
        <time>2019-01-20T09:15:32.000Z</time>
      </trkpt>
      <trkpt lat="45.15912" lon="5.91624">
        <ele>2036</ele>
        <time>2019-01-20T09:15:33.000Z</time>
      </trkpt>
      <trkpt lat="45.15912" lon="5.91624">
        <ele>2036</ele>
        <time>2019-01-20T09:15:34.000Z</time>
      </trkpt>
      <trkpt lat="45.15912" lon="5.91628">
        <ele>2036</ele>
        <time>2019-01-20T09:15:35.000Z</time>
      </trkpt>
      <trkpt lat="45.15912" lon="5.91628">
        <ele>2037</ele>
        <time>2019-01-20T09:15:36.000Z</time>
      </trkpt>
      <trkpt lat="45.15912" lon="5.91628">
        <ele>2037</ele>
        <time>2019-01-20T09:15:37.000Z</time>
      </trkpt>
      <trkpt lat="45.15914" lon="5.91631">
        <ele>2037</ele>
        <time>2019-01-20T09:15:38.000Z</time>
      </trkpt>
      <trkpt lat="45.15914" lon="5.91631">
        <ele>2037</ele>
        <time>2019-01-20T09:15:39.000Z</time>
      </trkpt>
      <trkpt lat="45.15914" lon="5.91631">
        <ele>2038</ele>
        <time>2019-01-20T09:15:40.000Z</time>
      </trkpt>
      <trkpt lat="45.15915" lon="5.91634">
        <ele>2038</ele>
        <time>2019-01-20T09:15:41.000Z</time>
      </trkpt>
      <trkpt lat="45.15915" lon="5.91634">
        <ele>2038</ele>
        <time>2019-01-20T09:15:42.000Z</time>
      </trkpt>
      <trkpt lat="45.15916" lon="5.91636">
        <ele>2038</ele>
        <time>2019-01-20T09:15:43.000Z</time>
      </trkpt>
      <trkpt lat="45.15916" lon="5.91636">
        <ele>2038</ele>
        <time>2019-01-20T09:15:44.000Z</time>
      </trkpt>
      <trkpt lat="45.15917" lon="5.91638">
        <ele>2038</ele>
        <time>2019-01-20T09:15:45.000Z</time>
      </trkpt>
      <trkpt lat="45.15918" lon="5.91641">
        <ele>2038</ele>
        <time>2019-01-20T09:15:47.000Z</time>
      </trkpt>
      <trkpt lat="45.15918" lon="5.91641">
        <ele>2039</ele>
        <time>2019-01-20T09:15:48.000Z</time>
      </trkpt>
      <trkpt lat="45.15919" lon="5.91643">
        <ele>2039</ele>
        <time>2019-01-20T09:15:49.000Z</time>
      </trkpt>
      <trkpt lat="45.15919" lon="5.91643">
        <ele>2039</ele>
        <time>2019-01-20T09:15:50.000Z</time>
      </trkpt>
      <trkpt lat="45.15919" lon="5.91646">
        <ele>2039</ele>
        <time>2019-01-20T09:15:51.000Z</time>
      </trkpt>
      <trkpt lat="45.15919" lon="5.91646">
        <ele>2039</ele>
        <time>2019-01-20T09:15:52.000Z</time>
      </trkpt>
      <trkpt lat="45.15921" lon="5.91649">
        <ele>2040</ele>
        <time>2019-01-20T09:15:53.000Z</time>
      </trkpt>
      <trkpt lat="45.15921" lon="5.91649">
        <ele>2040</ele>
        <time>2019-01-20T09:15:54.000Z</time>
      </trkpt>
      <trkpt lat="45.15922" lon="5.91651">
        <ele>2041</ele>
        <time>2019-01-20T09:15:55.000Z</time>
      </trkpt>
      <trkpt lat="45.15922" lon="5.91651">
        <ele>2041</ele>
        <time>2019-01-20T09:15:56.000Z</time>
      </trkpt>
      <trkpt lat="45.15922" lon="5.91651">
        <ele>2041</ele>
        <time>2019-01-20T09:15:57.000Z</time>
      </trkpt>
      <trkpt lat="45.15923" lon="5.91655">
        <ele>2041</ele>
        <time>2019-01-20T09:15:58.000Z</time>
      </trkpt>
      <trkpt lat="45.15923" lon="5.91655">
        <ele>2041</ele>
        <time>2019-01-20T09:15:59.000Z</time>
      </trkpt>
      <trkpt lat="45.15923" lon="5.91655">
        <ele>2042</ele>
        <time>2019-01-20T09:16:00.000Z</time>
      </trkpt>
      <trkpt lat="45.15925" lon="5.91658">
        <ele>2042</ele>
        <time>2019-01-20T09:16:01.000Z</time>
      </trkpt>
      <trkpt lat="45.15925" lon="5.91658">
        <ele>2042</ele>
        <time>2019-01-20T09:16:02.000Z</time>
      </trkpt>
      <trkpt lat="45.15925" lon="5.91658">
        <ele>2042</ele>
        <time>2019-01-20T09:16:03.000Z</time>
      </trkpt>
      <trkpt lat="45.15926" lon="5.9166">
        <ele>2043</ele>
        <time>2019-01-20T09:16:04.000Z</time>
      </trkpt>
      <trkpt lat="45.15926" lon="5.9166">
        <ele>2043</ele>
        <time>2019-01-20T09:16:06.000Z</time>
      </trkpt>
      <trkpt lat="45.15927" lon="5.91663">
        <ele>2043</ele>
        <time>2019-01-20T09:16:07.000Z</time>
      </trkpt>
      <trkpt lat="45.15927" lon="5.91663">
        <ele>2044</ele>
        <time>2019-01-20T09:16:08.000Z</time>
      </trkpt>
      <trkpt lat="45.15928" lon="5.91666">
        <ele>2044</ele>
        <time>2019-01-20T09:16:09.000Z</time>
      </trkpt>
      <trkpt lat="45.15928" lon="5.91666">
        <ele>2044</ele>
        <time>2019-01-20T09:16:10.000Z</time>
      </trkpt>
      <trkpt lat="45.15928" lon="5.91666">
        <ele>2044</ele>
        <time>2019-01-20T09:16:11.000Z</time>
      </trkpt>
      <trkpt lat="45.1593" lon="5.91669">
        <ele>2044</ele>
        <time>2019-01-20T09:16:12.000Z</time>
      </trkpt>
      <trkpt lat="45.1593" lon="5.91669">
        <ele>2044</ele>
        <time>2019-01-20T09:16:13.000Z</time>
      </trkpt>
      <trkpt lat="45.1593" lon="5.91669">
        <ele>2045</ele>
        <time>2019-01-20T09:16:14.000Z</time>
      </trkpt>
      <trkpt lat="45.15932" lon="5.91671">
        <ele>2045</ele>
        <time>2019-01-20T09:16:15.000Z</time>
      </trkpt>
      <trkpt lat="45.15932" lon="5.91671">
        <ele>2045</ele>
        <time>2019-01-20T09:16:16.000Z</time>
      </trkpt>
      <trkpt lat="45.15933" lon="5.91674">
        <ele>2045</ele>
        <time>2019-01-20T09:16:17.000Z</time>
      </trkpt>
      <trkpt lat="45.15933" lon="5.91674">
        <ele>2046</ele>
        <time>2019-01-20T09:16:18.000Z</time>
      </trkpt>
      <trkpt lat="45.15933" lon="5.91674">
        <ele>2046</ele>
        <time>2019-01-20T09:16:19.000Z</time>
      </trkpt>
      <trkpt lat="45.15934" lon="5.91676">
        <ele>2046</ele>
        <time>2019-01-20T09:16:20.000Z</time>
      </trkpt>
      <trkpt lat="45.15934" lon="5.91676">
        <ele>2046</ele>
        <time>2019-01-20T09:16:21.000Z</time>
      </trkpt>
      <trkpt lat="45.15936" lon="5.91678">
        <ele>2046</ele>
        <time>2019-01-20T09:16:22.000Z</time>
      </trkpt>
      <trkpt lat="45.15936" lon="5.91678">
        <ele>2047</ele>
        <time>2019-01-20T09:16:23.000Z</time>
      </trkpt>
      <trkpt lat="45.15937" lon="5.9168">
        <ele>2047</ele>
        <time>2019-01-20T09:16:24.000Z</time>
      </trkpt>
      <trkpt lat="45.15937" lon="5.9168">
        <ele>2047.6</ele>
        <time>2019-01-20T09:16:25.000Z</time>
      </trkpt>
      <trkpt lat="45.15937" lon="5.9168">
        <ele>2048</ele>
        <time>2019-01-20T09:16:26.000Z</time>
      </trkpt>
      <trkpt lat="45.15938" lon="5.91683">
        <ele>2049</ele>
        <time>2019-01-20T09:16:27.000Z</time>
      </trkpt>
      <trkpt lat="45.15938" lon="5.91683">
        <ele>2049</ele>
        <time>2019-01-20T09:16:28.000Z</time>
      </trkpt>
      <trkpt lat="45.15938" lon="5.91683">
        <ele>2049</ele>
        <time>2019-01-20T09:16:29.000Z</time>
      </trkpt>
      <trkpt lat="45.1594" lon="5.91686">
        <ele>2049</ele>
        <time>2019-01-20T09:16:30.000Z</time>
      </trkpt>
      <trkpt lat="45.1594" lon="5.91686">
        <ele>2049</ele>
        <time>2019-01-20T09:16:31.000Z</time>
      </trkpt>
      <trkpt lat="45.1594" lon="5.91686">
        <ele>2049</ele>
        <time>2019-01-20T09:16:32.000Z</time>
      </trkpt>
      <trkpt lat="45.15941" lon="5.91688">
        <ele>2049</ele>
        <time>2019-01-20T09:16:33.000Z</time>
      </trkpt>
      <trkpt lat="45.15941" lon="5.91688">
        <ele>2049</ele>
        <time>2019-01-20T09:16:34.000Z</time>
      </trkpt>
      <trkpt lat="45.15941" lon="5.91688">
        <ele>2049</ele>
        <time>2019-01-20T09:16:35.000Z</time>
      </trkpt>
      <trkpt lat="45.15943" lon="5.91691">
        <ele>2049</ele>
        <time>2019-01-20T09:16:36.000Z</time>
      </trkpt>
      <trkpt lat="45.15943" lon="5.91691">
        <ele>2050</ele>
        <time>2019-01-20T09:16:37.000Z</time>
      </trkpt>
      <trkpt lat="45.15944" lon="5.91694">
        <ele>2050</ele>
        <time>2019-01-20T09:16:38.000Z</time>
      </trkpt>
      <trkpt lat="45.15944" lon="5.91694">
        <ele>2050</ele>
        <time>2019-01-20T09:16:39.000Z</time>
      </trkpt>
      <trkpt lat="45.15944" lon="5.91694">
        <ele>2051</ele>
        <time>2019-01-20T09:16:40.000Z</time>
      </trkpt>
      <trkpt lat="45.15945" lon="5.91697">
        <ele>2051</ele>
        <time>2019-01-20T09:16:41.000Z</time>
      </trkpt>
      <trkpt lat="45.15945" lon="5.91697">
        <ele>2051</ele>
        <time>2019-01-20T09:16:42.000Z</time>
      </trkpt>
      <trkpt lat="45.15946" lon="5.91699">
        <ele>2051</ele>
        <time>2019-01-20T09:16:44.000Z</time>
      </trkpt>
      <trkpt lat="45.15946" lon="5.91699">
        <ele>2052</ele>
        <time>2019-01-20T09:16:45.000Z</time>
      </trkpt>
      <trkpt lat="45.15948" lon="5.91701">
        <ele>2052</ele>
        <time>2019-01-20T09:16:46.000Z</time>
      </trkpt>
      <trkpt lat="45.15948" lon="5.91701">
        <ele>2052</ele>
        <time>2019-01-20T09:16:47.000Z</time>
      </trkpt>
      <trkpt lat="45.15949" lon="5.91703">
        <ele>2052</ele>
        <time>2019-01-20T09:16:48.000Z</time>
      </trkpt>
      <trkpt lat="45.15949" lon="5.91703">
        <ele>2053</ele>
        <time>2019-01-20T09:16:49.000Z</time>
      </trkpt>
      <trkpt lat="45.15951" lon="5.91704">
        <ele>2053</ele>
        <time>2019-01-20T09:16:50.000Z</time>
      </trkpt>
      <trkpt lat="45.15951" lon="5.91704">
        <ele>2053</ele>
        <time>2019-01-20T09:16:51.000Z</time>
      </trkpt>
      <trkpt lat="45.15953" lon="5.91706">
        <ele>2054</ele>
        <time>2019-01-20T09:16:52.000Z</time>
      </trkpt>
      <trkpt lat="45.15953" lon="5.91706">
        <ele>2054</ele>
        <time>2019-01-20T09:16:53.000Z</time>
      </trkpt>
      <trkpt lat="45.15953" lon="5.91706">
        <ele>2056</ele>
        <time>2019-01-20T09:16:54.000Z</time>
      </trkpt>
      <trkpt lat="45.15954" lon="5.91709">
        <ele>2056</ele>
        <time>2019-01-20T09:16:55.000Z</time>
      </trkpt>
      <trkpt lat="45.15954" lon="5.91709">
        <ele>2056</ele>
        <time>2019-01-20T09:16:56.000Z</time>
      </trkpt>
      <trkpt lat="45.15954" lon="5.91709">
        <ele>2056</ele>
        <time>2019-01-20T09:16:57.000Z</time>
      </trkpt>
      <trkpt lat="45.15956" lon="5.91711">
        <ele>2056</ele>
        <time>2019-01-20T09:16:58.000Z</time>
      </trkpt>
      <trkpt lat="45.15956" lon="5.91711">
        <ele>2056</ele>
        <time>2019-01-20T09:16:59.000Z</time>
      </trkpt>
      <trkpt lat="45.15956" lon="5.91711">
        <ele>2056</ele>
        <time>2019-01-20T09:17:00.000Z</time>
      </trkpt>
      <trkpt lat="45.15957" lon="5.91715">
        <ele>2057</ele>
        <time>2019-01-20T09:17:01.000Z</time>
      </trkpt>
      <trkpt lat="45.15957" lon="5.91715">
        <ele>2057</ele>
        <time>2019-01-20T09:17:03.000Z</time>
      </trkpt>
      <trkpt lat="45.15958" lon="5.91718">
        <ele>2058</ele>
        <time>2019-01-20T09:17:04.000Z</time>
      </trkpt>
      <trkpt lat="45.15958" lon="5.91718">
        <ele>2058</ele>
        <time>2019-01-20T09:17:05.000Z</time>
      </trkpt>
      <trkpt lat="45.15958" lon="5.91718">
        <ele>2058</ele>
        <time>2019-01-20T09:17:06.000Z</time>
      </trkpt>
      <trkpt lat="45.15957" lon="5.91721">
        <ele>2058</ele>
        <time>2019-01-20T09:17:07.000Z</time>
      </trkpt>
      <trkpt lat="45.15957" lon="5.91721">
        <ele>2059</ele>
        <time>2019-01-20T09:17:08.000Z</time>
      </trkpt>
      <trkpt lat="45.15957" lon="5.91721">
        <ele>2059</ele>
        <time>2019-01-20T09:17:09.000Z</time>
      </trkpt>
      <trkpt lat="45.15955" lon="5.91724">
        <ele>2059</ele>
        <time>2019-01-20T09:17:10.000Z</time>
      </trkpt>
      <trkpt lat="45.15955" lon="5.91724">
        <ele>2059</ele>
        <time>2019-01-20T09:17:11.000Z</time>
      </trkpt>
      <trkpt lat="45.15955" lon="5.91724">
        <ele>2060</ele>
        <time>2019-01-20T09:17:12.000Z</time>
      </trkpt>
      <trkpt lat="45.15955" lon="5.91726">
        <ele>2060</ele>
        <time>2019-01-20T09:17:13.000Z</time>
      </trkpt>
      <trkpt lat="45.15955" lon="5.91726">
        <ele>2060</ele>
        <time>2019-01-20T09:17:14.000Z</time>
      </trkpt>
      <trkpt lat="45.15955" lon="5.91726">
        <ele>2060</ele>
        <time>2019-01-20T09:17:15.000Z</time>
      </trkpt>
      <trkpt lat="45.15954" lon="5.91729">
        <ele>2061</ele>
        <time>2019-01-20T09:17:16.000Z</time>
      </trkpt>
      <trkpt lat="45.15954" lon="5.91729">
        <ele>2061</ele>
        <time>2019-01-20T09:17:17.000Z</time>
      </trkpt>
      <trkpt lat="45.15954" lon="5.91729">
        <ele>2061</ele>
        <time>2019-01-20T09:17:18.000Z</time>
      </trkpt>
      <trkpt lat="45.15953" lon="5.91733">
        <ele>2061</ele>
        <time>2019-01-20T09:17:19.000Z</time>
      </trkpt>
      <trkpt lat="45.15953" lon="5.91733">
        <ele>2061</ele>
        <time>2019-01-20T09:17:20.000Z</time>
      </trkpt>
      <trkpt lat="45.15952" lon="5.91736">
        <ele>2062.4</ele>
        <time>2019-01-20T09:17:22.000Z</time>
      </trkpt>
      <trkpt lat="45.15952" lon="5.91736">
        <ele>2063</ele>
        <time>2019-01-20T09:17:23.000Z</time>
      </trkpt>
      <trkpt lat="45.15951" lon="5.91738">
        <ele>2063</ele>
        <time>2019-01-20T09:17:24.000Z</time>
      </trkpt>
      <trkpt lat="45.15951" lon="5.91738">
        <ele>2063</ele>
        <time>2019-01-20T09:17:25.000Z</time>
      </trkpt>
      <trkpt lat="45.15951" lon="5.91738">
        <ele>2064</ele>
        <time>2019-01-20T09:17:26.000Z</time>
      </trkpt>
      <trkpt lat="45.15951" lon="5.91742">
        <ele>2064</ele>
        <time>2019-01-20T09:17:27.000Z</time>
      </trkpt>
      <trkpt lat="45.15951" lon="5.91742">
        <ele>2064</ele>
        <time>2019-01-20T09:17:28.000Z</time>
      </trkpt>
      <trkpt lat="45.15951" lon="5.91742">
        <ele>2064</ele>
        <time>2019-01-20T09:17:29.000Z</time>
      </trkpt>
      <trkpt lat="45.15951" lon="5.91744">
        <ele>2064</ele>
        <time>2019-01-20T09:17:30.000Z</time>
      </trkpt>
      <trkpt lat="45.15951" lon="5.91744">
        <ele>2064</ele>
        <time>2019-01-20T09:17:31.000Z</time>
      </trkpt>
      <trkpt lat="45.15951" lon="5.91744">
        <ele>2064</ele>
        <time>2019-01-20T09:17:32.000Z</time>
      </trkpt>
      <trkpt lat="45.15952" lon="5.91747">
        <ele>2064</ele>
        <time>2019-01-20T09:17:33.000Z</time>
      </trkpt>
      <trkpt lat="45.15952" lon="5.91747">
        <ele>2064</ele>
        <time>2019-01-20T09:17:34.000Z</time>
      </trkpt>
      <trkpt lat="45.15954" lon="5.91749">
        <ele>2065</ele>
        <time>2019-01-20T09:17:35.000Z</time>
      </trkpt>
      <trkpt lat="45.15954" lon="5.91749">
        <ele>2065</ele>
        <time>2019-01-20T09:17:36.000Z</time>
      </trkpt>
      <trkpt lat="45.15955" lon="5.91751">
        <ele>2065</ele>
        <time>2019-01-20T09:17:37.000Z</time>
      </trkpt>
      <trkpt lat="45.15955" lon="5.91751">
        <ele>2065</ele>
        <time>2019-01-20T09:17:38.000Z</time>
      </trkpt>
      <trkpt lat="45.15957" lon="5.91752">
        <ele>2065</ele>
        <time>2019-01-20T09:17:39.000Z</time>
      </trkpt>
      <trkpt lat="45.15957" lon="5.91752">
        <ele>2066</ele>
        <time>2019-01-20T09:17:41.000Z</time>
      </trkpt>
      <trkpt lat="45.15959" lon="5.91755">
        <ele>2066</ele>
        <time>2019-01-20T09:17:42.000Z</time>
      </trkpt>
      <trkpt lat="45.15959" lon="5.91755">
        <ele>2066</ele>
        <time>2019-01-20T09:17:44.000Z</time>
      </trkpt>
      <trkpt lat="45.15961" lon="5.91757">
        <ele>2067</ele>
        <time>2019-01-20T09:17:45.000Z</time>
      </trkpt>
      <trkpt lat="45.15961" lon="5.91757">
        <ele>2067</ele>
        <time>2019-01-20T09:17:46.000Z</time>
      </trkpt>
      <trkpt lat="45.15963" lon="5.91759">
        <ele>2067</ele>
        <time>2019-01-20T09:17:47.000Z</time>
      </trkpt>
      <trkpt lat="45.15963" lon="5.91759">
        <ele>2067</ele>
        <time>2019-01-20T09:17:48.000Z</time>
      </trkpt>
      <trkpt lat="45.15963" lon="5.91759">
        <ele>2067</ele>
        <time>2019-01-20T09:17:49.000Z</time>
      </trkpt>
      <trkpt lat="45.15965" lon="5.91761">
        <ele>2068</ele>
        <time>2019-01-20T09:17:50.000Z</time>
      </trkpt>
      <trkpt lat="45.15965" lon="5.91761">
        <ele>2068</ele>
        <time>2019-01-20T09:17:51.000Z</time>
      </trkpt>
      <trkpt lat="45.15967" lon="5.91762">
        <ele>2068</ele>
        <time>2019-01-20T09:17:52.000Z</time>
      </trkpt>
      <trkpt lat="45.15967" lon="5.91762">
        <ele>2068</ele>
        <time>2019-01-20T09:17:53.000Z</time>
      </trkpt>
      <trkpt lat="45.15967" lon="5.91762">
        <ele>2069</ele>
        <time>2019-01-20T09:17:54.000Z</time>
      </trkpt>
      <trkpt lat="45.15969" lon="5.91764">
        <ele>2069</ele>
        <time>2019-01-20T09:17:55.000Z</time>
      </trkpt>
      <trkpt lat="45.15969" lon="5.91764">
        <ele>2069</ele>
        <time>2019-01-20T09:17:56.000Z</time>
      </trkpt>
      <trkpt lat="45.15971" lon="5.91766">
        <ele>2070</ele>
        <time>2019-01-20T09:17:57.000Z</time>
      </trkpt>
      <trkpt lat="45.15971" lon="5.91766">
        <ele>2070</ele>
        <time>2019-01-20T09:17:58.000Z</time>
      </trkpt>
      <trkpt lat="45.15973" lon="5.91768">
        <ele>2070</ele>
        <time>2019-01-20T09:18:00.000Z</time>
      </trkpt>
      <trkpt lat="45.15973" lon="5.91768">
        <ele>2070</ele>
        <time>2019-01-20T09:18:01.000Z</time>
      </trkpt>
      <trkpt lat="45.15974" lon="5.9177">
        <ele>2071</ele>
        <time>2019-01-20T09:18:02.000Z</time>
      </trkpt>
      <trkpt lat="45.15974" lon="5.9177">
        <ele>2071</ele>
        <time>2019-01-20T09:18:03.000Z</time>
      </trkpt>
      <trkpt lat="45.15974" lon="5.9177">
        <ele>2071</ele>
        <time>2019-01-20T09:18:04.000Z</time>
      </trkpt>
      <trkpt lat="45.15974" lon="5.91773">
        <ele>2072</ele>
        <time>2019-01-20T09:18:05.000Z</time>
      </trkpt>
      <trkpt lat="45.15974" lon="5.91773">
        <ele>2073</ele>
        <time>2019-01-20T09:18:06.000Z</time>
      </trkpt>
      <trkpt lat="45.15974" lon="5.91773">
        <ele>2073</ele>
        <time>2019-01-20T09:18:07.000Z</time>
      </trkpt>
      <trkpt lat="45.15973" lon="5.91776">
        <ele>2073</ele>
        <time>2019-01-20T09:18:08.000Z</time>
      </trkpt>
      <trkpt lat="45.15973" lon="5.91776">
        <ele>2074</ele>
        <time>2019-01-20T09:18:09.000Z</time>
      </trkpt>
      <trkpt lat="45.15973" lon="5.91776">
        <ele>2074</ele>
        <time>2019-01-20T09:18:10.000Z</time>
      </trkpt>
      <trkpt lat="45.15972" lon="5.91778">
        <ele>2074</ele>
        <time>2019-01-20T09:18:11.000Z</time>
      </trkpt>
      <trkpt lat="45.15972" lon="5.91778">
        <ele>2074</ele>
        <time>2019-01-20T09:18:12.000Z</time>
      </trkpt>
      <trkpt lat="45.15972" lon="5.91778">
        <ele>2074</ele>
        <time>2019-01-20T09:18:13.000Z</time>
      </trkpt>
      <trkpt lat="45.15971" lon="5.91781">
        <ele>2074</ele>
        <time>2019-01-20T09:18:14.000Z</time>
      </trkpt>
      <trkpt lat="45.15971" lon="5.91781">
        <ele>2075</ele>
        <time>2019-01-20T09:18:15.000Z</time>
      </trkpt>
      <trkpt lat="45.15971" lon="5.91781">
        <ele>2075</ele>
        <time>2019-01-20T09:18:16.000Z</time>
      </trkpt>
      <trkpt lat="45.1597" lon="5.91784">
        <ele>2075</ele>
        <time>2019-01-20T09:18:17.000Z</time>
      </trkpt>
      <trkpt lat="45.1597" lon="5.91784">
        <ele>2075</ele>
        <time>2019-01-20T09:18:19.000Z</time>
      </trkpt>
      <trkpt lat="45.15969" lon="5.91786">
        <ele>2076</ele>
        <time>2019-01-20T09:18:20.000Z</time>
      </trkpt>
      <trkpt lat="45.15969" lon="5.91786">
        <ele>2076</ele>
        <time>2019-01-20T09:18:21.000Z</time>
      </trkpt>
      <trkpt lat="45.15969" lon="5.91786">
        <ele>2077</ele>
        <time>2019-01-20T09:18:22.000Z</time>
      </trkpt>
      <trkpt lat="45.15968" lon="5.91789">
        <ele>2077</ele>
        <time>2019-01-20T09:18:23.000Z</time>
      </trkpt>
      <trkpt lat="45.15968" lon="5.91789">
        <ele>2077</ele>
        <time>2019-01-20T09:18:24.000Z</time>
      </trkpt>
      <trkpt lat="45.15968" lon="5.91789">
        <ele>2078</ele>
        <time>2019-01-20T09:18:25.000Z</time>
      </trkpt>
      <trkpt lat="45.15967" lon="5.91792">
        <ele>2078</ele>
        <time>2019-01-20T09:18:26.000Z</time>
      </trkpt>
      <trkpt lat="45.15967" lon="5.91792">
        <ele>2078</ele>
        <time>2019-01-20T09:18:27.000Z</time>
      </trkpt>
      <trkpt lat="45.15967" lon="5.91792">
        <ele>2078</ele>
        <time>2019-01-20T09:18:28.000Z</time>
      </trkpt>
      <trkpt lat="45.15966" lon="5.91795">
        <ele>2078</ele>
        <time>2019-01-20T09:18:29.000Z</time>
      </trkpt>
      <trkpt lat="45.15966" lon="5.91795">
        <ele>2078</ele>
        <time>2019-01-20T09:18:30.000Z</time>
      </trkpt>
      <trkpt lat="45.15966" lon="5.91795">
        <ele>2079</ele>
        <time>2019-01-20T09:18:31.000Z</time>
      </trkpt>
      <trkpt lat="45.15964" lon="5.91798">
        <ele>2079</ele>
        <time>2019-01-20T09:18:32.000Z</time>
      </trkpt>
      <trkpt lat="45.15964" lon="5.91798">
        <ele>2079</ele>
        <time>2019-01-20T09:18:33.000Z</time>
      </trkpt>
      <trkpt lat="45.15964" lon="5.91798">
        <ele>2079</ele>
        <time>2019-01-20T09:18:34.000Z</time>
      </trkpt>
      <trkpt lat="45.15963" lon="5.91801">
        <ele>2080</ele>
        <time>2019-01-20T09:18:35.000Z</time>
      </trkpt>
      <trkpt lat="45.15963" lon="5.91801">
        <ele>2080</ele>
        <time>2019-01-20T09:18:36.000Z</time>
      </trkpt>
      <trkpt lat="45.15962" lon="5.91805">
        <ele>2080</ele>
        <time>2019-01-20T09:18:38.000Z</time>
      </trkpt>
      <trkpt lat="45.15962" lon="5.91805">
        <ele>2080</ele>
        <time>2019-01-20T09:18:39.000Z</time>
      </trkpt>
      <trkpt lat="45.15962" lon="5.91805">
        <ele>2082</ele>
        <time>2019-01-20T09:18:40.000Z</time>
      </trkpt>
      <trkpt lat="45.15961" lon="5.91809">
        <ele>2082</ele>
        <time>2019-01-20T09:18:41.000Z</time>
      </trkpt>
      <trkpt lat="45.15961" lon="5.91809">
        <ele>2082</ele>
        <time>2019-01-20T09:18:42.000Z</time>
      </trkpt>
      <trkpt lat="45.15961" lon="5.91809">
        <ele>2083</ele>
        <time>2019-01-20T09:18:43.000Z</time>
      </trkpt>
      <trkpt lat="45.1596" lon="5.91812">
        <ele>2083</ele>
        <time>2019-01-20T09:18:44.000Z</time>
      </trkpt>
      <trkpt lat="45.1596" lon="5.91812">
        <ele>2083</ele>
        <time>2019-01-20T09:18:46.000Z</time>
      </trkpt>
      <trkpt lat="45.1596" lon="5.91815">
        <ele>2084</ele>
        <time>2019-01-20T09:18:47.000Z</time>
      </trkpt>
      <trkpt lat="45.1596" lon="5.91815">
        <ele>2084</ele>
        <time>2019-01-20T09:18:48.000Z</time>
      </trkpt>
      <trkpt lat="45.1596" lon="5.91815">
        <ele>2084</ele>
        <time>2019-01-20T09:18:49.000Z</time>
      </trkpt>
      <trkpt lat="45.15959" lon="5.91818">
        <ele>2084</ele>
        <time>2019-01-20T09:18:50.000Z</time>
      </trkpt>
      <trkpt lat="45.15959" lon="5.91818">
        <ele>2084</ele>
        <time>2019-01-20T09:18:51.000Z</time>
      </trkpt>
      <trkpt lat="45.15959" lon="5.91818">
        <ele>2084</ele>
        <time>2019-01-20T09:18:52.000Z</time>
      </trkpt>
      <trkpt lat="45.15959" lon="5.91821">
        <ele>2085</ele>
        <time>2019-01-20T09:18:53.000Z</time>
      </trkpt>
      <trkpt lat="45.15959" lon="5.91821">
        <ele>2085</ele>
        <time>2019-01-20T09:18:54.000Z</time>
      </trkpt>
      <trkpt lat="45.15959" lon="5.91821">
        <ele>2085</ele>
        <time>2019-01-20T09:18:55.000Z</time>
      </trkpt>
      <trkpt lat="45.15958" lon="5.91824">
        <ele>2085</ele>
        <time>2019-01-20T09:18:56.000Z</time>
      </trkpt>
      <trkpt lat="45.15958" lon="5.91824">
        <ele>2085.6</ele>
        <time>2019-01-20T09:18:57.000Z</time>
      </trkpt>
      <trkpt lat="45.15958" lon="5.91824">
        <ele>2086</ele>
        <time>2019-01-20T09:18:58.000Z</time>
      </trkpt>
      <trkpt lat="45.15957" lon="5.91828">
        <ele>2086</ele>
        <time>2019-01-20T09:18:59.000Z</time>
      </trkpt>
      <trkpt lat="45.15957" lon="5.91828">
        <ele>2087</ele>
        <time>2019-01-20T09:19:00.000Z</time>
      </trkpt>
      <trkpt lat="45.15957" lon="5.91828">
        <ele>2087</ele>
        <time>2019-01-20T09:19:01.000Z</time>
      </trkpt>
      <trkpt lat="45.15956" lon="5.91831">
        <ele>2087</ele>
        <time>2019-01-20T09:19:02.000Z</time>
      </trkpt>
      <trkpt lat="45.15956" lon="5.91831">
        <ele>2087</ele>
        <time>2019-01-20T09:19:03.000Z</time>
      </trkpt>
      <trkpt lat="45.15956" lon="5.91831">
        <ele>2088</ele>
        <time>2019-01-20T09:19:04.000Z</time>
      </trkpt>
      <trkpt lat="45.15956" lon="5.91834">
        <ele>2088</ele>
        <time>2019-01-20T09:19:05.000Z</time>
      </trkpt>
      <trkpt lat="45.15956" lon="5.91834">
        <ele>2088</ele>
        <time>2019-01-20T09:19:06.000Z</time>
      </trkpt>
      <trkpt lat="45.15956" lon="5.91834">
        <ele>2088</ele>
        <time>2019-01-20T09:19:07.000Z</time>
      </trkpt>
      <trkpt lat="45.15955" lon="5.91836">
        <ele>2089</ele>
        <time>2019-01-20T09:19:08.000Z</time>
      </trkpt>
      <trkpt lat="45.15955" lon="5.91836">
        <ele>2089</ele>
        <time>2019-01-20T09:19:09.000Z</time>
      </trkpt>
      <trkpt lat="45.15955" lon="5.91836">
        <ele>2090</ele>
        <time>2019-01-20T09:19:10.000Z</time>
      </trkpt>
      <trkpt lat="45.15954" lon="5.9184">
        <ele>2090</ele>
        <time>2019-01-20T09:19:11.000Z</time>
      </trkpt>
      <trkpt lat="45.15954" lon="5.9184">
        <ele>2090</ele>
        <time>2019-01-20T09:19:12.000Z</time>
      </trkpt>
      <trkpt lat="45.15954" lon="5.9184">
        <ele>2090</ele>
        <time>2019-01-20T09:19:13.000Z</time>
      </trkpt>
      <trkpt lat="45.15954" lon="5.91843">
        <ele>2091</ele>
        <time>2019-01-20T09:19:14.000Z</time>
      </trkpt>
      <trkpt lat="45.15954" lon="5.91843">
        <ele>2091</ele>
        <time>2019-01-20T09:19:16.000Z</time>
      </trkpt>
      <trkpt lat="45.15953" lon="5.91847">
        <ele>2091</ele>
        <time>2019-01-20T09:19:17.000Z</time>
      </trkpt>
      <trkpt lat="45.15953" lon="5.91847">
        <ele>2091</ele>
        <time>2019-01-20T09:19:18.000Z</time>
      </trkpt>
      <trkpt lat="45.15953" lon="5.91847">
        <ele>2091</ele>
        <time>2019-01-20T09:19:19.000Z</time>
      </trkpt>
      <trkpt lat="45.15953" lon="5.91849">
        <ele>2092</ele>
        <time>2019-01-20T09:19:20.000Z</time>
      </trkpt>
      <trkpt lat="45.15953" lon="5.91849">
        <ele>2092</ele>
        <time>2019-01-20T09:19:21.000Z</time>
      </trkpt>
      <trkpt lat="45.15953" lon="5.91849">
        <ele>2093</ele>
        <time>2019-01-20T09:19:22.000Z</time>
      </trkpt>
      <trkpt lat="45.15952" lon="5.91852">
        <ele>2093</ele>
        <time>2019-01-20T09:19:23.000Z</time>
      </trkpt>
      <trkpt lat="45.15952" lon="5.91852">
        <ele>2093</ele>
        <time>2019-01-20T09:19:24.000Z</time>
      </trkpt>
      <trkpt lat="45.15951" lon="5.91854">
        <ele>2093</ele>
        <time>2019-01-20T09:19:25.000Z</time>
      </trkpt>
      <trkpt lat="45.15951" lon="5.91854">
        <ele>2093</ele>
        <time>2019-01-20T09:19:26.000Z</time>
      </trkpt>
      <trkpt lat="45.15951" lon="5.91854">
        <ele>2094</ele>
        <time>2019-01-20T09:19:27.000Z</time>
      </trkpt>
      <trkpt lat="45.15951" lon="5.91857">
        <ele>2094</ele>
        <time>2019-01-20T09:19:28.000Z</time>
      </trkpt>
      <trkpt lat="45.15951" lon="5.91857">
        <ele>2094</ele>
        <time>2019-01-20T09:19:29.000Z</time>
      </trkpt>
      <trkpt lat="45.15951" lon="5.91857">
        <ele>2094</ele>
        <time>2019-01-20T09:19:30.000Z</time>
      </trkpt>
      <trkpt lat="45.1595" lon="5.9186">
        <ele>2095</ele>
        <time>2019-01-20T09:19:31.000Z</time>
      </trkpt>
      <trkpt lat="45.1595" lon="5.9186">
        <ele>2095</ele>
        <time>2019-01-20T09:19:32.000Z</time>
      </trkpt>
      <trkpt lat="45.1595" lon="5.9186">
        <ele>2095</ele>
        <time>2019-01-20T09:19:33.000Z</time>
      </trkpt>
      <trkpt lat="45.15949" lon="5.91864">
        <ele>2095</ele>
        <time>2019-01-20T09:19:34.000Z</time>
      </trkpt>
      <trkpt lat="45.15949" lon="5.91864">
        <ele>2096</ele>
        <time>2019-01-20T09:19:35.000Z</time>
      </trkpt>
      <trkpt lat="45.15949" lon="5.91864">
        <ele>2096</ele>
        <time>2019-01-20T09:19:36.000Z</time>
      </trkpt>
      <trkpt lat="45.15948" lon="5.91867">
        <ele>2096</ele>
        <time>2019-01-20T09:19:37.000Z</time>
      </trkpt>
      <trkpt lat="45.15948" lon="5.91867">
        <ele>2096</ele>
        <time>2019-01-20T09:19:38.000Z</time>
      </trkpt>
      <trkpt lat="45.15948" lon="5.91867">
        <ele>2097</ele>
        <time>2019-01-20T09:19:39.000Z</time>
      </trkpt>
      <trkpt lat="45.15947" lon="5.9187">
        <ele>2097</ele>
        <time>2019-01-20T09:19:40.000Z</time>
      </trkpt>
      <trkpt lat="45.15947" lon="5.9187">
        <ele>2097</ele>
        <time>2019-01-20T09:19:41.000Z</time>
      </trkpt>
      <trkpt lat="45.15947" lon="5.9187">
        <ele>2097</ele>
        <time>2019-01-20T09:19:42.000Z</time>
      </trkpt>
      <trkpt lat="45.15946" lon="5.91872">
        <ele>2097</ele>
        <time>2019-01-20T09:19:43.000Z</time>
      </trkpt>
      <trkpt lat="45.15946" lon="5.91872">
        <ele>2097</ele>
        <time>2019-01-20T09:19:44.000Z</time>
      </trkpt>
      <trkpt lat="45.15946" lon="5.91872">
        <ele>2098</ele>
        <time>2019-01-20T09:19:45.000Z</time>
      </trkpt>
      <trkpt lat="45.15945" lon="5.91875">
        <ele>2099</ele>
        <time>2019-01-20T09:19:46.000Z</time>
      </trkpt>
      <trkpt lat="45.15945" lon="5.91875">
        <ele>2099</ele>
        <time>2019-01-20T09:19:47.000Z</time>
      </trkpt>
      <trkpt lat="45.15945" lon="5.91875">
        <ele>2099</ele>
        <time>2019-01-20T09:19:48.000Z</time>
      </trkpt>
      <trkpt lat="45.15944" lon="5.91878">
        <ele>2099</ele>
        <time>2019-01-20T09:19:49.000Z</time>
      </trkpt>
      <trkpt lat="45.15944" lon="5.91878">
        <ele>2099</ele>
        <time>2019-01-20T09:19:51.000Z</time>
      </trkpt>
      <trkpt lat="45.15943" lon="5.91881">
        <ele>2100</ele>
        <time>2019-01-20T09:19:52.000Z</time>
      </trkpt>
      <trkpt lat="45.15942" lon="5.91884">
        <ele>2100</ele>
        <time>2019-01-20T09:19:54.000Z</time>
      </trkpt>
      <trkpt lat="45.15942" lon="5.91884">
        <ele>2100</ele>
        <time>2019-01-20T09:19:55.000Z</time>
      </trkpt>
      <trkpt lat="45.15942" lon="5.91884">
        <ele>2100</ele>
        <time>2019-01-20T09:19:56.000Z</time>
      </trkpt>
      <trkpt lat="45.15941" lon="5.91887">
        <ele>2101</ele>
        <time>2019-01-20T09:19:57.000Z</time>
      </trkpt>
      <trkpt lat="45.15941" lon="5.91887">
        <ele>2102</ele>
        <time>2019-01-20T09:19:58.000Z</time>
      </trkpt>
      <trkpt lat="45.15941" lon="5.91887">
        <ele>2102</ele>
        <time>2019-01-20T09:19:59.000Z</time>
      </trkpt>
      <trkpt lat="45.1594" lon="5.9189">
        <ele>2102</ele>
        <time>2019-01-20T09:20:00.000Z</time>
      </trkpt>
      <trkpt lat="45.1594" lon="5.9189">
        <ele>2102</ele>
        <time>2019-01-20T09:20:01.000Z</time>
      </trkpt>
      <trkpt lat="45.1594" lon="5.9189">
        <ele>2103</ele>
        <time>2019-01-20T09:20:02.000Z</time>
      </trkpt>
      <trkpt lat="45.15939" lon="5.91894">
        <ele>2103</ele>
        <time>2019-01-20T09:20:03.000Z</time>
      </trkpt>
      <trkpt lat="45.15939" lon="5.91894">
        <ele>2103</ele>
        <time>2019-01-20T09:20:04.000Z</time>
      </trkpt>
      <trkpt lat="45.15939" lon="5.91894">
        <ele>2104</ele>
        <time>2019-01-20T09:20:05.000Z</time>
      </trkpt>
      <trkpt lat="45.15939" lon="5.91897">
        <ele>2104</ele>
        <time>2019-01-20T09:20:06.000Z</time>
      </trkpt>
      <trkpt lat="45.15939" lon="5.91897">
        <ele>2105</ele>
        <time>2019-01-20T09:20:07.000Z</time>
      </trkpt>
      <trkpt lat="45.15939" lon="5.91897">
        <ele>2105</ele>
        <time>2019-01-20T09:20:08.000Z</time>
      </trkpt>
      <trkpt lat="45.15939" lon="5.91897">
        <ele>2106</ele>
        <time>2019-01-20T09:20:10.000Z</time>
      </trkpt>
      <trkpt lat="45.15939" lon="5.91897">
        <ele>2106</ele>
        <time>2019-01-20T09:20:11.000Z</time>
      </trkpt>
      <trkpt lat="45.15939" lon="5.919">
        <ele>2106</ele>
        <time>2019-01-20T09:20:12.000Z</time>
      </trkpt>
      <trkpt lat="45.15939" lon="5.919">
        <ele>2106</ele>
        <time>2019-01-20T09:20:13.000Z</time>
      </trkpt>
      <trkpt lat="45.15939" lon="5.919">
        <ele>2106</ele>
        <time>2019-01-20T09:20:14.000Z</time>
      </trkpt>
      <trkpt lat="45.15939" lon="5.919">
        <ele>2106</ele>
        <time>2019-01-20T09:20:15.000Z</time>
      </trkpt>
      <trkpt lat="45.15939" lon="5.91903">
        <ele>2106</ele>
        <time>2019-01-20T09:20:16.000Z</time>
      </trkpt>
      <trkpt lat="45.15939" lon="5.91903">
        <ele>2106</ele>
        <time>2019-01-20T09:20:17.000Z</time>
      </trkpt>
      <trkpt lat="45.15939" lon="5.91906">
        <ele>2106</ele>
        <time>2019-01-20T09:20:18.000Z</time>
      </trkpt>
      <trkpt lat="45.15939" lon="5.91906">
        <ele>2106.4</ele>
        <time>2019-01-20T09:20:20.000Z</time>
      </trkpt>
      <trkpt lat="45.15939" lon="5.91909">
        <ele>2107</ele>
        <time>2019-01-20T09:20:21.000Z</time>
      </trkpt>
      <trkpt lat="45.15939" lon="5.91909">
        <ele>2107</ele>
        <time>2019-01-20T09:20:22.000Z</time>
      </trkpt>
      <trkpt lat="45.15939" lon="5.91912">
        <ele>2108</ele>
        <time>2019-01-20T09:20:23.000Z</time>
      </trkpt>
      <trkpt lat="45.15939" lon="5.91912">
        <ele>2109</ele>
        <time>2019-01-20T09:20:24.000Z</time>
      </trkpt>
      <trkpt lat="45.15939" lon="5.91912">
        <ele>2109</ele>
        <time>2019-01-20T09:20:25.000Z</time>
      </trkpt>
      <trkpt lat="45.1594" lon="5.91916">
        <ele>2109</ele>
        <time>2019-01-20T09:20:26.000Z</time>
      </trkpt>
      <trkpt lat="45.1594" lon="5.91916">
        <ele>2109</ele>
        <time>2019-01-20T09:20:27.000Z</time>
      </trkpt>
      <trkpt lat="45.1594" lon="5.91916">
        <ele>2109</ele>
        <time>2019-01-20T09:20:28.000Z</time>
      </trkpt>
      <trkpt lat="45.1594" lon="5.91919">
        <ele>2110</ele>
        <time>2019-01-20T09:20:29.000Z</time>
      </trkpt>
      <trkpt lat="45.1594" lon="5.91919">
        <ele>2110</ele>
        <time>2019-01-20T09:20:30.000Z</time>
      </trkpt>
      <trkpt lat="45.1594" lon="5.91919">
        <ele>2109.6</ele>
        <time>2019-01-20T09:20:32.000Z</time>
      </trkpt>
      <trkpt lat="45.1594" lon="5.91919">
        <ele>2109</ele>
        <time>2019-01-20T09:20:33.000Z</time>
      </trkpt>
      <trkpt lat="45.15941" lon="5.91922">
        <ele>2110</ele>
        <time>2019-01-20T09:20:34.000Z</time>
      </trkpt>
      <trkpt lat="45.15941" lon="5.91922">
        <ele>2110</ele>
        <time>2019-01-20T09:20:35.000Z</time>
      </trkpt>
      <trkpt lat="45.15942" lon="5.91925">
        <ele>2110</ele>
        <time>2019-01-20T09:20:36.000Z</time>
      </trkpt>
      <trkpt lat="45.15942" lon="5.91925">
        <ele>2110</ele>
        <time>2019-01-20T09:20:37.000Z</time>
      </trkpt>
      <trkpt lat="45.15942" lon="5.91925">
        <ele>2110</ele>
        <time>2019-01-20T09:20:38.000Z</time>
      </trkpt>
      <trkpt lat="45.15944" lon="5.91928">
        <ele>2109</ele>
        <time>2019-01-20T09:20:39.000Z</time>
      </trkpt>
      <trkpt lat="45.15944" lon="5.91928">
        <ele>2109</ele>
        <time>2019-01-20T09:20:40.000Z</time>
      </trkpt>
      <trkpt lat="45.15944" lon="5.91928">
        <ele>2110</ele>
        <time>2019-01-20T09:20:41.000Z</time>
      </trkpt>
      <trkpt lat="45.15944" lon="5.91931">
        <ele>2110</ele>
        <time>2019-01-20T09:20:42.000Z</time>
      </trkpt>
      <trkpt lat="45.15944" lon="5.91931">
        <ele>2111</ele>
        <time>2019-01-20T09:20:43.000Z</time>
      </trkpt>
      <trkpt lat="45.15944" lon="5.91931">
        <ele>2111</ele>
        <time>2019-01-20T09:20:44.000Z</time>
      </trkpt>
      <trkpt lat="45.15944" lon="5.91934">
        <ele>2111</ele>
        <time>2019-01-20T09:20:45.000Z</time>
      </trkpt>
      <trkpt lat="45.15944" lon="5.91934">
        <ele>2111</ele>
        <time>2019-01-20T09:20:46.000Z</time>
      </trkpt>
      <trkpt lat="45.15945" lon="5.91937">
        <ele>2111</ele>
        <time>2019-01-20T09:20:47.000Z</time>
      </trkpt>
      <trkpt lat="45.15945" lon="5.91937">
        <ele>2112</ele>
        <time>2019-01-20T09:20:48.000Z</time>
      </trkpt>
      <trkpt lat="45.15946" lon="5.9194">
        <ele>2112</ele>
        <time>2019-01-20T09:20:49.000Z</time>
      </trkpt>
      <trkpt lat="45.15946" lon="5.9194">
        <ele>2112</ele>
        <time>2019-01-20T09:20:51.000Z</time>
      </trkpt>
      <trkpt lat="45.15946" lon="5.91943">
        <ele>2112</ele>
        <time>2019-01-20T09:20:52.000Z</time>
      </trkpt>
      <trkpt lat="45.15946" lon="5.91943">
        <ele>2113</ele>
        <time>2019-01-20T09:20:53.000Z</time>
      </trkpt>
      <trkpt lat="45.15946" lon="5.91943">
        <ele>2113</ele>
        <time>2019-01-20T09:20:54.000Z</time>
      </trkpt>
      <trkpt lat="45.15947" lon="5.91945">
        <ele>2113</ele>
        <time>2019-01-20T09:20:55.000Z</time>
      </trkpt>
      <trkpt lat="45.15947" lon="5.91945">
        <ele>2115</ele>
        <time>2019-01-20T09:20:56.000Z</time>
      </trkpt>
      <trkpt lat="45.15949" lon="5.91947">
        <ele>2115</ele>
        <time>2019-01-20T09:20:57.000Z</time>
      </trkpt>
      <trkpt lat="45.15949" lon="5.91947">
        <ele>2115</ele>
        <time>2019-01-20T09:20:58.000Z</time>
      </trkpt>
      <trkpt lat="45.15949" lon="5.91947">
        <ele>2116</ele>
        <time>2019-01-20T09:20:59.000Z</time>
      </trkpt>
      <trkpt lat="45.15949" lon="5.91947">
        <ele>2116</ele>
        <time>2019-01-20T09:21:00.000Z</time>
      </trkpt>
      <trkpt lat="45.1595" lon="5.91949">
        <ele>2116</ele>
        <time>2019-01-20T09:21:01.000Z</time>
      </trkpt>
      <trkpt lat="45.1595" lon="5.91949">
        <ele>2117</ele>
        <time>2019-01-20T09:21:02.000Z</time>
      </trkpt>
      <trkpt lat="45.1595" lon="5.91952">
        <ele>2117</ele>
        <time>2019-01-20T09:21:03.000Z</time>
      </trkpt>
      <trkpt lat="45.1595" lon="5.91952">
        <ele>2117</ele>
        <time>2019-01-20T09:21:04.000Z</time>
      </trkpt>
      <trkpt lat="45.1595" lon="5.91952">
        <ele>2117</ele>
        <time>2019-01-20T09:21:05.000Z</time>
      </trkpt>
      <trkpt lat="45.15951" lon="5.91955">
        <ele>2117</ele>
        <time>2019-01-20T09:21:06.000Z</time>
      </trkpt>
      <trkpt lat="45.15951" lon="5.91955">
        <ele>2118</ele>
        <time>2019-01-20T09:21:07.000Z</time>
      </trkpt>
      <trkpt lat="45.15951" lon="5.91955">
        <ele>2118</ele>
        <time>2019-01-20T09:21:08.000Z</time>
      </trkpt>
      <trkpt lat="45.15952" lon="5.91958">
        <ele>2118</ele>
        <time>2019-01-20T09:21:09.000Z</time>
      </trkpt>
      <trkpt lat="45.15952" lon="5.91958">
        <ele>2119</ele>
        <time>2019-01-20T09:21:10.000Z</time>
      </trkpt>
      <trkpt lat="45.15954" lon="5.91961">
        <ele>2119</ele>
        <time>2019-01-20T09:21:11.000Z</time>
      </trkpt>
      <trkpt lat="45.15954" lon="5.91961">
        <ele>2119</ele>
        <time>2019-01-20T09:21:12.000Z</time>
      </trkpt>
      <trkpt lat="45.15955" lon="5.91963">
        <ele>2119</ele>
        <time>2019-01-20T09:21:13.000Z</time>
      </trkpt>
      <trkpt lat="45.15955" lon="5.91963">
        <ele>2119</ele>
        <time>2019-01-20T09:21:14.000Z</time>
      </trkpt>
      <trkpt lat="45.15955" lon="5.91967">
        <ele>2120</ele>
        <time>2019-01-20T09:21:15.000Z</time>
      </trkpt>
      <trkpt lat="45.15955" lon="5.91967">
        <ele>2120</ele>
        <time>2019-01-20T09:21:16.000Z</time>
      </trkpt>
      <trkpt lat="45.15956" lon="5.91969">
        <ele>2120</ele>
        <time>2019-01-20T09:21:17.000Z</time>
      </trkpt>
      <trkpt lat="45.15956" lon="5.91969">
        <ele>2121</ele>
        <time>2019-01-20T09:21:18.000Z</time>
      </trkpt>
      <trkpt lat="45.15956" lon="5.91969">
        <ele>2121</ele>
        <time>2019-01-20T09:21:19.000Z</time>
      </trkpt>
      <trkpt lat="45.15957" lon="5.91973">
        <ele>2121</ele>
        <time>2019-01-20T09:21:20.000Z</time>
      </trkpt>
      <trkpt lat="45.15957" lon="5.91973">
        <ele>2121</ele>
        <time>2019-01-20T09:21:21.000Z</time>
      </trkpt>
      <trkpt lat="45.15957" lon="5.91973">
        <ele>2122</ele>
        <time>2019-01-20T09:21:22.000Z</time>
      </trkpt>
      <trkpt lat="45.15957" lon="5.91973">
        <ele>2122</ele>
        <time>2019-01-20T09:21:23.000Z</time>
      </trkpt>
      <trkpt lat="45.15957" lon="5.91973">
        <ele>2122</ele>
        <time>2019-01-20T09:21:24.000Z</time>
      </trkpt>
      <trkpt lat="45.15957" lon="5.91973">
        <ele>2122</ele>
        <time>2019-01-20T09:21:25.000Z</time>
      </trkpt>
      <trkpt lat="45.15958" lon="5.91975">
        <ele>2122</ele>
        <time>2019-01-20T09:21:26.000Z</time>
      </trkpt>
      <trkpt lat="45.15958" lon="5.91975">
        <ele>2123</ele>
        <time>2019-01-20T09:21:27.000Z</time>
      </trkpt>
      <trkpt lat="45.1596" lon="5.91973">
        <ele>2123</ele>
        <time>2019-01-20T09:21:29.000Z</time>
      </trkpt>
      <trkpt lat="45.1596" lon="5.91973">
        <ele>2123</ele>
        <time>2019-01-20T09:21:30.000Z</time>
      </trkpt>
      <trkpt lat="45.15962" lon="5.91972">
        <ele>2124</ele>
        <time>2019-01-20T09:21:31.000Z</time>
      </trkpt>
      <trkpt lat="45.15962" lon="5.91972">
        <ele>2124</ele>
        <time>2019-01-20T09:21:32.000Z</time>
      </trkpt>
      <trkpt lat="45.15963" lon="5.9197">
        <ele>2124</ele>
        <time>2019-01-20T09:21:33.000Z</time>
      </trkpt>
      <trkpt lat="45.15963" lon="5.9197">
        <ele>2124</ele>
        <time>2019-01-20T09:21:34.000Z</time>
      </trkpt>
      <trkpt lat="45.15963" lon="5.9197">
        <ele>2125</ele>
        <time>2019-01-20T09:21:35.000Z</time>
      </trkpt>
      <trkpt lat="45.15965" lon="5.91969">
        <ele>2125</ele>
        <time>2019-01-20T09:21:36.000Z</time>
      </trkpt>
      <trkpt lat="45.15965" lon="5.91969">
        <ele>2125</ele>
        <time>2019-01-20T09:21:37.000Z</time>
      </trkpt>
      <trkpt lat="45.15965" lon="5.91969">
        <ele>2125</ele>
        <time>2019-01-20T09:21:38.000Z</time>
      </trkpt>
      <trkpt lat="45.15967" lon="5.91967">
        <ele>2126</ele>
        <time>2019-01-20T09:21:39.000Z</time>
      </trkpt>
      <trkpt lat="45.15967" lon="5.91967">
        <ele>2126</ele>
        <time>2019-01-20T09:21:40.000Z</time>
      </trkpt>
      <trkpt lat="45.15967" lon="5.91967">
        <ele>2126</ele>
        <time>2019-01-20T09:21:41.000Z</time>
      </trkpt>
      <trkpt lat="45.15969" lon="5.91965">
        <ele>2125</ele>
        <time>2019-01-20T09:21:42.000Z</time>
      </trkpt>
      <trkpt lat="45.15969" lon="5.91965">
        <ele>2125</ele>
        <time>2019-01-20T09:21:43.000Z</time>
      </trkpt>
      <trkpt lat="45.15971" lon="5.91964">
        <ele>2125</ele>
        <time>2019-01-20T09:21:44.000Z</time>
      </trkpt>
      <trkpt lat="45.15971" lon="5.91964">
        <ele>2125</ele>
        <time>2019-01-20T09:21:45.000Z</time>
      </trkpt>
      <trkpt lat="45.15971" lon="5.91964">
        <ele>2126</ele>
        <time>2019-01-20T09:21:46.000Z</time>
      </trkpt>
      <trkpt lat="45.15973" lon="5.91963">
        <ele>2126</ele>
        <time>2019-01-20T09:21:47.000Z</time>
      </trkpt>
      <trkpt lat="45.15973" lon="5.91963">
        <ele>2125</ele>
        <time>2019-01-20T09:21:48.000Z</time>
      </trkpt>
      <trkpt lat="45.15973" lon="5.91963">
        <ele>2125</ele>
        <time>2019-01-20T09:21:49.000Z</time>
      </trkpt>
      <trkpt lat="45.15976" lon="5.91962">
        <ele>2126</ele>
        <time>2019-01-20T09:21:50.000Z</time>
      </trkpt>
      <trkpt lat="45.15976" lon="5.91962">
        <ele>2126</ele>
        <time>2019-01-20T09:21:51.000Z</time>
      </trkpt>
      <trkpt lat="45.15978" lon="5.91961">
        <ele>2126</ele>
        <time>2019-01-20T09:21:52.000Z</time>
      </trkpt>
      <trkpt lat="45.15978" lon="5.91961">
        <ele>2126</ele>
        <time>2019-01-20T09:21:53.000Z</time>
      </trkpt>
      <trkpt lat="45.15979" lon="5.9196">
        <ele>2125</ele>
        <time>2019-01-20T09:21:54.000Z</time>
      </trkpt>
      <trkpt lat="45.15979" lon="5.9196">
        <ele>2126.4</ele>
        <time>2019-01-20T09:21:56.000Z</time>
      </trkpt>
      <trkpt lat="45.15981" lon="5.91958">
        <ele>2127</ele>
        <time>2019-01-20T09:21:57.000Z</time>
      </trkpt>
      <trkpt lat="45.15981" lon="5.91958">
        <ele>2127</ele>
        <time>2019-01-20T09:21:58.000Z</time>
      </trkpt>
      <trkpt lat="45.15983" lon="5.91956">
        <ele>2127</ele>
        <time>2019-01-20T09:21:59.000Z</time>
      </trkpt>
      <trkpt lat="45.15983" lon="5.91956">
        <ele>2127</ele>
        <time>2019-01-20T09:22:00.000Z</time>
      </trkpt>
      <trkpt lat="45.15985" lon="5.91954">
        <ele>2127</ele>
        <time>2019-01-20T09:22:01.000Z</time>
      </trkpt>
      <trkpt lat="45.15985" lon="5.91954">
        <ele>2127</ele>
        <time>2019-01-20T09:22:02.000Z</time>
      </trkpt>
      <trkpt lat="45.15986" lon="5.91952">
        <ele>2126</ele>
        <time>2019-01-20T09:22:03.000Z</time>
      </trkpt>
      <trkpt lat="45.15986" lon="5.91952">
        <ele>2126</ele>
        <time>2019-01-20T09:22:04.000Z</time>
      </trkpt>
      <trkpt lat="45.15986" lon="5.91952">
        <ele>2127</ele>
        <time>2019-01-20T09:22:05.000Z</time>
      </trkpt>
      <trkpt lat="45.15988" lon="5.91949">
        <ele>2127</ele>
        <time>2019-01-20T09:22:06.000Z</time>
      </trkpt>
      <trkpt lat="45.15988" lon="5.91949">
        <ele>2127</ele>
        <time>2019-01-20T09:22:07.000Z</time>
      </trkpt>
      <trkpt lat="45.15989" lon="5.91947">
        <ele>2127</ele>
        <time>2019-01-20T09:22:08.000Z</time>
      </trkpt>
      <trkpt lat="45.15989" lon="5.91947">
        <ele>2128</ele>
        <time>2019-01-20T09:22:09.000Z</time>
      </trkpt>
      <trkpt lat="45.15991" lon="5.91945">
        <ele>2128</ele>
        <time>2019-01-20T09:22:10.000Z</time>
      </trkpt>
      <trkpt lat="45.15991" lon="5.91945">
        <ele>2127</ele>
        <time>2019-01-20T09:22:11.000Z</time>
      </trkpt>
      <trkpt lat="45.15992" lon="5.91943">
        <ele>2127</ele>
        <time>2019-01-20T09:22:12.000Z</time>
      </trkpt>
      <trkpt lat="45.15992" lon="5.91943">
        <ele>2128</ele>
        <time>2019-01-20T09:22:13.000Z</time>
      </trkpt>
      <trkpt lat="45.15994" lon="5.91942">
        <ele>2128</ele>
        <time>2019-01-20T09:22:14.000Z</time>
      </trkpt>
      <trkpt lat="45.15994" lon="5.91942">
        <ele>2128</ele>
        <time>2019-01-20T09:22:15.000Z</time>
      </trkpt>
      <trkpt lat="45.15996" lon="5.91941">
        <ele>2129</ele>
        <time>2019-01-20T09:22:16.000Z</time>
      </trkpt>
      <trkpt lat="45.15996" lon="5.91941">
        <ele>2129</ele>
        <time>2019-01-20T09:22:17.000Z</time>
      </trkpt>
      <trkpt lat="45.15996" lon="5.91941">
        <ele>2130</ele>
        <time>2019-01-20T09:22:18.000Z</time>
      </trkpt>
      <trkpt lat="45.15997" lon="5.91939">
        <ele>2130</ele>
        <time>2019-01-20T09:22:19.000Z</time>
      </trkpt>
      <trkpt lat="45.15997" lon="5.91939">
        <ele>2129.6</ele>
        <time>2019-01-20T09:22:20.000Z</time>
      </trkpt>
      <trkpt lat="45.15997" lon="5.91942">
        <ele>2129</ele>
        <time>2019-01-20T09:22:21.000Z</time>
      </trkpt>
      <trkpt lat="45.15997" lon="5.91942">
        <ele>2130</ele>
        <time>2019-01-20T09:22:22.000Z</time>
      </trkpt>
      <trkpt lat="45.15997" lon="5.91942">
        <ele>2130</ele>
        <time>2019-01-20T09:22:23.000Z</time>
      </trkpt>
      <trkpt lat="45.15997" lon="5.91945">
        <ele>2130</ele>
        <time>2019-01-20T09:22:24.000Z</time>
      </trkpt>
      <trkpt lat="45.15998" lon="5.91948">
        <ele>2130</ele>
        <time>2019-01-20T09:22:26.000Z</time>
      </trkpt>
      <trkpt lat="45.15998" lon="5.91948">
        <ele>2130</ele>
        <time>2019-01-20T09:22:27.000Z</time>
      </trkpt>
      <trkpt lat="45.15999" lon="5.9195">
        <ele>2131</ele>
        <time>2019-01-20T09:22:28.000Z</time>
      </trkpt>
      <trkpt lat="45.15999" lon="5.9195">
        <ele>2132</ele>
        <time>2019-01-20T09:22:29.000Z</time>
      </trkpt>
      <trkpt lat="45.16" lon="5.91953">
        <ele>2131</ele>
        <time>2019-01-20T09:22:30.000Z</time>
      </trkpt>
      <trkpt lat="45.16" lon="5.91953">
        <ele>2131</ele>
        <time>2019-01-20T09:22:31.000Z</time>
      </trkpt>
      <trkpt lat="45.16001" lon="5.91955">
        <ele>2132</ele>
        <time>2019-01-20T09:22:32.000Z</time>
      </trkpt>
      <trkpt lat="45.16001" lon="5.91955">
        <ele>2132</ele>
        <time>2019-01-20T09:22:33.000Z</time>
      </trkpt>
      <trkpt lat="45.16002" lon="5.91958">
        <ele>2132</ele>
        <time>2019-01-20T09:22:34.000Z</time>
      </trkpt>
      <trkpt lat="45.16002" lon="5.91958">
        <ele>2132</ele>
        <time>2019-01-20T09:22:35.000Z</time>
      </trkpt>
      <trkpt lat="45.16002" lon="5.9196">
        <ele>2132</ele>
        <time>2019-01-20T09:22:36.000Z</time>
      </trkpt>
      <trkpt lat="45.16002" lon="5.9196">
        <ele>2132</ele>
        <time>2019-01-20T09:22:37.000Z</time>
      </trkpt>
      <trkpt lat="45.16002" lon="5.9196">
        <ele>2132</ele>
        <time>2019-01-20T09:22:38.000Z</time>
      </trkpt>
      <trkpt lat="45.16003" lon="5.91963">
        <ele>2132</ele>
        <time>2019-01-20T09:22:39.000Z</time>
      </trkpt>
      <trkpt lat="45.16003" lon="5.91963">
        <ele>2131</ele>
        <time>2019-01-20T09:22:40.000Z</time>
      </trkpt>
      <trkpt lat="45.16003" lon="5.91963">
        <ele>2132</ele>
        <time>2019-01-20T09:22:41.000Z</time>
      </trkpt>
      <trkpt lat="45.16003" lon="5.91966">
        <ele>2132</ele>
        <time>2019-01-20T09:22:42.000Z</time>
      </trkpt>
      <trkpt lat="45.16003" lon="5.91966">
        <ele>2132</ele>
        <time>2019-01-20T09:22:43.000Z</time>
      </trkpt>
      <trkpt lat="45.16004" lon="5.9197">
        <ele>2132.4</ele>
        <time>2019-01-20T09:22:45.000Z</time>
      </trkpt>
      <trkpt lat="45.16004" lon="5.9197">
        <ele>2133</ele>
        <time>2019-01-20T09:22:46.000Z</time>
      </trkpt>
      <trkpt lat="45.16004" lon="5.9197">
        <ele>2135</ele>
        <time>2019-01-20T09:22:47.000Z</time>
      </trkpt>
      <trkpt lat="45.16004" lon="5.91973">
        <ele>2135</ele>
        <time>2019-01-20T09:22:48.000Z</time>
      </trkpt>
      <trkpt lat="45.16004" lon="5.91973">
        <ele>2135</ele>
        <time>2019-01-20T09:22:49.000Z</time>
      </trkpt>
      <trkpt lat="45.16004" lon="5.91976">
        <ele>2135</ele>
        <time>2019-01-20T09:22:50.000Z</time>
      </trkpt>
      <trkpt lat="45.16004" lon="5.91976">
        <ele>2135.6</ele>
        <time>2019-01-20T09:22:52.000Z</time>
      </trkpt>
      <trkpt lat="45.16004" lon="5.9198">
        <ele>2136</ele>
        <time>2019-01-20T09:22:53.000Z</time>
      </trkpt>
      <trkpt lat="45.16004" lon="5.9198">
        <ele>2136</ele>
        <time>2019-01-20T09:22:54.000Z</time>
      </trkpt>
      <trkpt lat="45.16004" lon="5.9198">
        <ele>2137</ele>
        <time>2019-01-20T09:22:55.000Z</time>
      </trkpt>
      <trkpt lat="45.16004" lon="5.91983">
        <ele>2137</ele>
        <time>2019-01-20T09:22:56.000Z</time>
      </trkpt>
      <trkpt lat="45.16004" lon="5.91983">
        <ele>2137</ele>
        <time>2019-01-20T09:22:57.000Z</time>
      </trkpt>
      <trkpt lat="45.16004" lon="5.91983">
        <ele>2137</ele>
        <time>2019-01-20T09:22:58.000Z</time>
      </trkpt>
      <trkpt lat="45.16004" lon="5.91986">
        <ele>2138</ele>
        <time>2019-01-20T09:22:59.000Z</time>
      </trkpt>
      <trkpt lat="45.16004" lon="5.91986">
        <ele>2138</ele>
        <time>2019-01-20T09:23:00.000Z</time>
      </trkpt>
      <trkpt lat="45.16004" lon="5.91986">
        <ele>2138</ele>
        <time>2019-01-20T09:23:01.000Z</time>
      </trkpt>
      <trkpt lat="45.16004" lon="5.9199">
        <ele>2139</ele>
        <time>2019-01-20T09:23:02.000Z</time>
      </trkpt>
      <trkpt lat="45.16004" lon="5.9199">
        <ele>2139</ele>
        <time>2019-01-20T09:23:04.000Z</time>
      </trkpt>
      <trkpt lat="45.16005" lon="5.91993">
        <ele>2139</ele>
        <time>2019-01-20T09:23:05.000Z</time>
      </trkpt>
      <trkpt lat="45.16005" lon="5.91993">
        <ele>2139</ele>
        <time>2019-01-20T09:23:06.000Z</time>
      </trkpt>
      <trkpt lat="45.16005" lon="5.91993">
        <ele>2139</ele>
        <time>2019-01-20T09:23:07.000Z</time>
      </trkpt>
      <trkpt lat="45.16006" lon="5.91996">
        <ele>2140</ele>
        <time>2019-01-20T09:23:08.000Z</time>
      </trkpt>
      <trkpt lat="45.16006" lon="5.91996">
        <ele>2140</ele>
        <time>2019-01-20T09:23:09.000Z</time>
      </trkpt>
      <trkpt lat="45.16006" lon="5.91996">
        <ele>2140</ele>
        <time>2019-01-20T09:23:10.000Z</time>
      </trkpt>
      <trkpt lat="45.16006" lon="5.91999">
        <ele>2141</ele>
        <time>2019-01-20T09:23:11.000Z</time>
      </trkpt>
      <trkpt lat="45.16006" lon="5.91999">
        <ele>2141</ele>
        <time>2019-01-20T09:23:12.000Z</time>
      </trkpt>
      <trkpt lat="45.16006" lon="5.91999">
        <ele>2141</ele>
        <time>2019-01-20T09:23:13.000Z</time>
      </trkpt>
      <trkpt lat="45.16007" lon="5.92002">
        <ele>2141</ele>
        <time>2019-01-20T09:23:14.000Z</time>
      </trkpt>
      <trkpt lat="45.16007" lon="5.92002">
        <ele>2142</ele>
        <time>2019-01-20T09:23:15.000Z</time>
      </trkpt>
      <trkpt lat="45.16007" lon="5.92002">
        <ele>2142</ele>
        <time>2019-01-20T09:23:16.000Z</time>
      </trkpt>
      <trkpt lat="45.16008" lon="5.92004">
        <ele>2143</ele>
        <time>2019-01-20T09:23:17.000Z</time>
      </trkpt>
      <trkpt lat="45.16008" lon="5.92004">
        <ele>2143</ele>
        <time>2019-01-20T09:23:18.000Z</time>
      </trkpt>
      <trkpt lat="45.16008" lon="5.92004">
        <ele>2143</ele>
        <time>2019-01-20T09:23:19.000Z</time>
      </trkpt>
      <trkpt lat="45.16009" lon="5.92007">
        <ele>2143</ele>
        <time>2019-01-20T09:23:20.000Z</time>
      </trkpt>
      <trkpt lat="45.16009" lon="5.92007">
        <ele>2144</ele>
        <time>2019-01-20T09:23:21.000Z</time>
      </trkpt>
      <trkpt lat="45.1601" lon="5.9201">
        <ele>2144</ele>
        <time>2019-01-20T09:23:23.000Z</time>
      </trkpt>
      <trkpt lat="45.1601" lon="5.9201">
        <ele>2144</ele>
        <time>2019-01-20T09:23:24.000Z</time>
      </trkpt>
      <trkpt lat="45.1601" lon="5.9201">
        <ele>2145</ele>
        <time>2019-01-20T09:23:25.000Z</time>
      </trkpt>
      <trkpt lat="45.16011" lon="5.92013">
        <ele>2145</ele>
        <time>2019-01-20T09:23:26.000Z</time>
      </trkpt>
      <trkpt lat="45.16011" lon="5.92013">
        <ele>2145</ele>
        <time>2019-01-20T09:23:27.000Z</time>
      </trkpt>
      <trkpt lat="45.16011" lon="5.92013">
        <ele>2145</ele>
        <time>2019-01-20T09:23:28.000Z</time>
      </trkpt>
      <trkpt lat="45.16011" lon="5.92013">
        <ele>2145</ele>
        <time>2019-01-20T09:23:29.000Z</time>
      </trkpt>
      <trkpt lat="45.16011" lon="5.92013">
        <ele>2145</ele>
        <time>2019-01-20T09:23:30.000Z</time>
      </trkpt>
      <trkpt lat="45.16013" lon="5.92014">
        <ele>2145</ele>
        <time>2019-01-20T09:23:31.000Z</time>
      </trkpt>
      <trkpt lat="45.16013" lon="5.92014">
        <ele>2146</ele>
        <time>2019-01-20T09:23:32.000Z</time>
      </trkpt>
      <trkpt lat="45.16013" lon="5.92014">
        <ele>2146</ele>
        <time>2019-01-20T09:23:33.000Z</time>
      </trkpt>
      <trkpt lat="45.16013" lon="5.92014">
        <ele>2146</ele>
        <time>2019-01-20T09:23:34.000Z</time>
      </trkpt>
      <trkpt lat="45.16015" lon="5.92012">
        <ele>2146</ele>
        <time>2019-01-20T09:23:35.000Z</time>
      </trkpt>
      <trkpt lat="45.16015" lon="5.92012">
        <ele>2146</ele>
        <time>2019-01-20T09:23:36.000Z</time>
      </trkpt>
      <trkpt lat="45.16015" lon="5.92012">
        <ele>2147</ele>
        <time>2019-01-20T09:23:37.000Z</time>
      </trkpt>
      <trkpt lat="45.16017" lon="5.92011">
        <ele>2148</ele>
        <time>2019-01-20T09:23:38.000Z</time>
      </trkpt>
      <trkpt lat="45.16017" lon="5.92011">
        <ele>2148</ele>
        <time>2019-01-20T09:23:39.000Z</time>
      </trkpt>
      <trkpt lat="45.16017" lon="5.92011">
        <ele>2148</ele>
        <time>2019-01-20T09:23:40.000Z</time>
      </trkpt>
      <trkpt lat="45.16019" lon="5.9201">
        <ele>2148</ele>
        <time>2019-01-20T09:23:41.000Z</time>
      </trkpt>
      <trkpt lat="45.16019" lon="5.9201">
        <ele>2148.4</ele>
        <time>2019-01-20T09:23:42.000Z</time>
      </trkpt>
      <trkpt lat="45.16019" lon="5.9201">
        <ele>2149</ele>
        <time>2019-01-20T09:23:43.000Z</time>
      </trkpt>
      <trkpt lat="45.16022" lon="5.92008">
        <ele>2149</ele>
        <time>2019-01-20T09:23:44.000Z</time>
      </trkpt>
      <trkpt lat="45.16022" lon="5.92008">
        <ele>2149</ele>
        <time>2019-01-20T09:23:45.000Z</time>
      </trkpt>
      <trkpt lat="45.16022" lon="5.92008">
        <ele>2149</ele>
        <time>2019-01-20T09:23:46.000Z</time>
      </trkpt>
      <trkpt lat="45.16024" lon="5.92007">
        <ele>2150</ele>
        <time>2019-01-20T09:23:47.000Z</time>
      </trkpt>
      <trkpt lat="45.16024" lon="5.92007">
        <ele>2150</ele>
        <time>2019-01-20T09:23:48.000Z</time>
      </trkpt>
      <trkpt lat="45.16024" lon="5.92007">
        <ele>2150</ele>
        <time>2019-01-20T09:23:49.000Z</time>
      </trkpt>
      <trkpt lat="45.16026" lon="5.92006">
        <ele>2150</ele>
        <time>2019-01-20T09:23:50.000Z</time>
      </trkpt>
      <trkpt lat="45.16026" lon="5.92006">
        <ele>2150</ele>
        <time>2019-01-20T09:23:51.000Z</time>
      </trkpt>
      <trkpt lat="45.16026" lon="5.92006">
        <ele>2151</ele>
        <time>2019-01-20T09:23:52.000Z</time>
      </trkpt>
      <trkpt lat="45.16028" lon="5.92004">
        <ele>2151</ele>
        <time>2019-01-20T09:23:53.000Z</time>
      </trkpt>
      <trkpt lat="45.16028" lon="5.92004">
        <ele>2151</ele>
        <time>2019-01-20T09:23:54.000Z</time>
      </trkpt>
      <trkpt lat="45.16028" lon="5.92004">
        <ele>2151</ele>
        <time>2019-01-20T09:23:55.000Z</time>
      </trkpt>
      <trkpt lat="45.1603" lon="5.92002">
        <ele>2151</ele>
        <time>2019-01-20T09:23:56.000Z</time>
      </trkpt>
      <trkpt lat="45.1603" lon="5.92002">
        <ele>2152</ele>
        <time>2019-01-20T09:23:57.000Z</time>
      </trkpt>
      <trkpt lat="45.1603" lon="5.92002">
        <ele>2152</ele>
        <time>2019-01-20T09:23:58.000Z</time>
      </trkpt>
      <trkpt lat="45.16032" lon="5.92">
        <ele>2152</ele>
        <time>2019-01-20T09:23:59.000Z</time>
      </trkpt>
      <trkpt lat="45.16032" lon="5.92">
        <ele>2153</ele>
        <time>2019-01-20T09:24:01.000Z</time>
      </trkpt>
      <trkpt lat="45.16034" lon="5.91998">
        <ele>2153</ele>
        <time>2019-01-20T09:24:02.000Z</time>
      </trkpt>
      <trkpt lat="45.16034" lon="5.91998">
        <ele>2153</ele>
        <time>2019-01-20T09:24:03.000Z</time>
      </trkpt>
      <trkpt lat="45.16034" lon="5.91998">
        <ele>2153</ele>
        <time>2019-01-20T09:24:04.000Z</time>
      </trkpt>
      <trkpt lat="45.16036" lon="5.91996">
        <ele>2153</ele>
        <time>2019-01-20T09:24:05.000Z</time>
      </trkpt>
      <trkpt lat="45.16036" lon="5.91996">
        <ele>2153</ele>
        <time>2019-01-20T09:24:06.000Z</time>
      </trkpt>
      <trkpt lat="45.16036" lon="5.91996">
        <ele>2154</ele>
        <time>2019-01-20T09:24:07.000Z</time>
      </trkpt>
      <trkpt lat="45.16038" lon="5.91994">
        <ele>2155</ele>
        <time>2019-01-20T09:24:08.000Z</time>
      </trkpt>
      <trkpt lat="45.16038" lon="5.91994">
        <ele>2155</ele>
        <time>2019-01-20T09:24:09.000Z</time>
      </trkpt>
      <trkpt lat="45.16038" lon="5.91994">
        <ele>2155</ele>
        <time>2019-01-20T09:24:10.000Z</time>
      </trkpt>
      <trkpt lat="45.16041" lon="5.91993">
        <ele>2156</ele>
        <time>2019-01-20T09:24:11.000Z</time>
      </trkpt>
      <trkpt lat="45.16041" lon="5.91993">
        <ele>2156</ele>
        <time>2019-01-20T09:24:12.000Z</time>
      </trkpt>
      <trkpt lat="45.16041" lon="5.91993">
        <ele>2157</ele>
        <time>2019-01-20T09:24:13.000Z</time>
      </trkpt>
      <trkpt lat="45.16041" lon="5.91993">
        <ele>2157</ele>
        <time>2019-01-20T09:24:14.000Z</time>
      </trkpt>
      <trkpt lat="45.16042" lon="5.91996">
        <ele>2157</ele>
        <time>2019-01-20T09:24:15.000Z</time>
      </trkpt>
      <trkpt lat="45.16042" lon="5.91996">
        <ele>2157</ele>
        <time>2019-01-20T09:24:16.000Z</time>
      </trkpt>
      <trkpt lat="45.16042" lon="5.91996">
        <ele>2158</ele>
        <time>2019-01-20T09:24:17.000Z</time>
      </trkpt>
      <trkpt lat="45.16042" lon="5.92">
        <ele>2158</ele>
        <time>2019-01-20T09:24:18.000Z</time>
      </trkpt>
      <trkpt lat="45.16042" lon="5.92">
        <ele>2158</ele>
        <time>2019-01-20T09:24:20.000Z</time>
      </trkpt>
      <trkpt lat="45.16042" lon="5.92003">
        <ele>2158</ele>
        <time>2019-01-20T09:24:21.000Z</time>
      </trkpt>
      <trkpt lat="45.16042" lon="5.92003">
        <ele>2158</ele>
        <time>2019-01-20T09:24:22.000Z</time>
      </trkpt>
      <trkpt lat="45.16042" lon="5.92003">
        <ele>2158</ele>
        <time>2019-01-20T09:24:23.000Z</time>
      </trkpt>
      <trkpt lat="45.16042" lon="5.92006">
        <ele>2159</ele>
        <time>2019-01-20T09:24:24.000Z</time>
      </trkpt>
      <trkpt lat="45.16042" lon="5.92006">
        <ele>2159</ele>
        <time>2019-01-20T09:24:25.000Z</time>
      </trkpt>
      <trkpt lat="45.16042" lon="5.92006">
        <ele>2159</ele>
        <time>2019-01-20T09:24:26.000Z</time>
      </trkpt>
      <trkpt lat="45.16042" lon="5.9201">
        <ele>2159</ele>
        <time>2019-01-20T09:24:27.000Z</time>
      </trkpt>
      <trkpt lat="45.16042" lon="5.9201">
        <ele>2161</ele>
        <time>2019-01-20T09:24:28.000Z</time>
      </trkpt>
      <trkpt lat="45.16042" lon="5.9201">
        <ele>2161</ele>
        <time>2019-01-20T09:24:29.000Z</time>
      </trkpt>
      <trkpt lat="45.16043" lon="5.92013">
        <ele>2161</ele>
        <time>2019-01-20T09:24:30.000Z</time>
      </trkpt>
      <trkpt lat="45.16043" lon="5.92013">
        <ele>2161</ele>
        <time>2019-01-20T09:24:31.000Z</time>
      </trkpt>
      <trkpt lat="45.16043" lon="5.92013">
        <ele>2161</ele>
        <time>2019-01-20T09:24:32.000Z</time>
      </trkpt>
      <trkpt lat="45.16043" lon="5.92016">
        <ele>2162</ele>
        <time>2019-01-20T09:24:33.000Z</time>
      </trkpt>
      <trkpt lat="45.16043" lon="5.92016">
        <ele>2162</ele>
        <time>2019-01-20T09:24:34.000Z</time>
      </trkpt>
      <trkpt lat="45.16043" lon="5.92016">
        <ele>2162</ele>
        <time>2019-01-20T09:24:35.000Z</time>
      </trkpt>
      <trkpt lat="45.16043" lon="5.92019">
        <ele>2162</ele>
        <time>2019-01-20T09:24:36.000Z</time>
      </trkpt>
      <trkpt lat="45.16043" lon="5.92019">
        <ele>2162</ele>
        <time>2019-01-20T09:24:37.000Z</time>
      </trkpt>
      <trkpt lat="45.16043" lon="5.92022">
        <ele>2163</ele>
        <time>2019-01-20T09:24:39.000Z</time>
      </trkpt>
      <trkpt lat="45.16043" lon="5.92022">
        <ele>2163</ele>
        <time>2019-01-20T09:24:40.000Z</time>
      </trkpt>
      <trkpt lat="45.16043" lon="5.92022">
        <ele>2163</ele>
        <time>2019-01-20T09:24:41.000Z</time>
      </trkpt>
      <trkpt lat="45.16044" lon="5.92025">
        <ele>2163</ele>
        <time>2019-01-20T09:24:42.000Z</time>
      </trkpt>
      <trkpt lat="45.16044" lon="5.92025">
        <ele>2163</ele>
        <time>2019-01-20T09:24:43.000Z</time>
      </trkpt>
      <trkpt lat="45.16044" lon="5.92025">
        <ele>2163</ele>
        <time>2019-01-20T09:24:44.000Z</time>
      </trkpt>
      <trkpt lat="45.16044" lon="5.92028">
        <ele>2164</ele>
        <time>2019-01-20T09:24:45.000Z</time>
      </trkpt>
      <trkpt lat="45.16044" lon="5.92028">
        <ele>2164</ele>
        <time>2019-01-20T09:24:46.000Z</time>
      </trkpt>
      <trkpt lat="45.16044" lon="5.92028">
        <ele>2164</ele>
        <time>2019-01-20T09:24:47.000Z</time>
      </trkpt>
      <trkpt lat="45.16044" lon="5.92031">
        <ele>2164</ele>
        <time>2019-01-20T09:24:48.000Z</time>
      </trkpt>
      <trkpt lat="45.16044" lon="5.92031">
        <ele>2165</ele>
        <time>2019-01-20T09:24:49.000Z</time>
      </trkpt>
      <trkpt lat="45.16044" lon="5.92031">
        <ele>2165</ele>
        <time>2019-01-20T09:24:50.000Z</time>
      </trkpt>
      <trkpt lat="45.16044" lon="5.92034">
        <ele>2165</ele>
        <time>2019-01-20T09:24:51.000Z</time>
      </trkpt>
      <trkpt lat="45.16044" lon="5.92034">
        <ele>2166</ele>
        <time>2019-01-20T09:24:52.000Z</time>
      </trkpt>
      <trkpt lat="45.16044" lon="5.92037">
        <ele>2166</ele>
        <time>2019-01-20T09:24:53.000Z</time>
      </trkpt>
      <trkpt lat="45.16044" lon="5.92037">
        <ele>2166</ele>
        <time>2019-01-20T09:24:54.000Z</time>
      </trkpt>
      <trkpt lat="45.16044" lon="5.92037">
        <ele>2166</ele>
        <time>2019-01-20T09:24:55.000Z</time>
      </trkpt>
      <trkpt lat="45.16044" lon="5.9204">
        <ele>2166</ele>
        <time>2019-01-20T09:24:56.000Z</time>
      </trkpt>
      <trkpt lat="45.16044" lon="5.9204">
        <ele>2166</ele>
        <time>2019-01-20T09:24:58.000Z</time>
      </trkpt>
      <trkpt lat="45.16044" lon="5.92043">
        <ele>2166</ele>
        <time>2019-01-20T09:24:59.000Z</time>
      </trkpt>
      <trkpt lat="45.16044" lon="5.92043">
        <ele>2168</ele>
        <time>2019-01-20T09:25:00.000Z</time>
      </trkpt>
      <trkpt lat="45.16044" lon="5.92043">
        <ele>2168</ele>
        <time>2019-01-20T09:25:01.000Z</time>
      </trkpt>
      <trkpt lat="45.16044" lon="5.92043">
        <ele>2168</ele>
        <time>2019-01-20T09:25:02.000Z</time>
      </trkpt>
      <trkpt lat="45.16044" lon="5.92043">
        <ele>2168</ele>
        <time>2019-01-20T09:25:03.000Z</time>
      </trkpt>
      <trkpt lat="45.16044" lon="5.92043">
        <ele>2168</ele>
        <time>2019-01-20T09:25:04.000Z</time>
      </trkpt>
      <trkpt lat="45.16046" lon="5.92044">
        <ele>2168</ele>
        <time>2019-01-20T09:25:05.000Z</time>
      </trkpt>
      <trkpt lat="45.16046" lon="5.92044">
        <ele>2168</ele>
        <time>2019-01-20T09:25:06.000Z</time>
      </trkpt>
      <trkpt lat="45.16046" lon="5.92044">
        <ele>2168</ele>
        <time>2019-01-20T09:25:07.000Z</time>
      </trkpt>
      <trkpt lat="45.16048" lon="5.92042">
        <ele>2169</ele>
        <time>2019-01-20T09:25:08.000Z</time>
      </trkpt>
      <trkpt lat="45.16048" lon="5.92042">
        <ele>2169</ele>
        <time>2019-01-20T09:25:10.000Z</time>
      </trkpt>
      <trkpt lat="45.1605" lon="5.92041">
        <ele>2170</ele>
        <time>2019-01-20T09:25:11.000Z</time>
      </trkpt>
      <trkpt lat="45.1605" lon="5.92041">
        <ele>2170</ele>
        <time>2019-01-20T09:25:12.000Z</time>
      </trkpt>
      <trkpt lat="45.1605" lon="5.92041">
        <ele>2170</ele>
        <time>2019-01-20T09:25:13.000Z</time>
      </trkpt>
      <trkpt lat="45.16052" lon="5.92039">
        <ele>2170</ele>
        <time>2019-01-20T09:25:14.000Z</time>
      </trkpt>
      <trkpt lat="45.16052" lon="5.92039">
        <ele>2170</ele>
        <time>2019-01-20T09:25:15.000Z</time>
      </trkpt>
      <trkpt lat="45.16055" lon="5.92037">
        <ele>2170</ele>
        <time>2019-01-20T09:25:17.000Z</time>
      </trkpt>
      <trkpt lat="45.16055" lon="5.92037">
        <ele>2170</ele>
        <time>2019-01-20T09:25:18.000Z</time>
      </trkpt>
      <trkpt lat="45.16055" lon="5.92037">
        <ele>2170</ele>
        <time>2019-01-20T09:25:19.000Z</time>
      </trkpt>
      <trkpt lat="45.16057" lon="5.92035">
        <ele>2171</ele>
        <time>2019-01-20T09:25:20.000Z</time>
      </trkpt>
      <trkpt lat="45.16057" lon="5.92035">
        <ele>2171</ele>
        <time>2019-01-20T09:25:21.000Z</time>
      </trkpt>
      <trkpt lat="45.16057" lon="5.92035">
        <ele>2172</ele>
        <time>2019-01-20T09:25:22.000Z</time>
      </trkpt>
      <trkpt lat="45.16059" lon="5.92033">
        <ele>2172</ele>
        <time>2019-01-20T09:25:23.000Z</time>
      </trkpt>
      <trkpt lat="45.16059" lon="5.92033">
        <ele>2173</ele>
        <time>2019-01-20T09:25:24.000Z</time>
      </trkpt>
      <trkpt lat="45.16059" lon="5.92033">
        <ele>2173</ele>
        <time>2019-01-20T09:25:25.000Z</time>
      </trkpt>
      <trkpt lat="45.1606" lon="5.92031">
        <ele>2173</ele>
        <time>2019-01-20T09:25:26.000Z</time>
      </trkpt>
      <trkpt lat="45.1606" lon="5.92031">
        <ele>2173</ele>
        <time>2019-01-20T09:25:27.000Z</time>
      </trkpt>
      <trkpt lat="45.1606" lon="5.92031">
        <ele>2174</ele>
        <time>2019-01-20T09:25:28.000Z</time>
      </trkpt>
      <trkpt lat="45.16062" lon="5.9203">
        <ele>2174</ele>
        <time>2019-01-20T09:25:29.000Z</time>
      </trkpt>
      <trkpt lat="45.16062" lon="5.9203">
        <ele>2174</ele>
        <time>2019-01-20T09:25:30.000Z</time>
      </trkpt>
      <trkpt lat="45.16062" lon="5.9203">
        <ele>2175</ele>
        <time>2019-01-20T09:25:31.000Z</time>
      </trkpt>
      <trkpt lat="45.16065" lon="5.9203">
        <ele>2175</ele>
        <time>2019-01-20T09:25:32.000Z</time>
      </trkpt>
      <trkpt lat="45.16065" lon="5.9203">
        <ele>2176</ele>
        <time>2019-01-20T09:25:33.000Z</time>
      </trkpt>
      <trkpt lat="45.16065" lon="5.9203">
        <ele>2176</ele>
        <time>2019-01-20T09:25:34.000Z</time>
      </trkpt>
      <trkpt lat="45.16067" lon="5.92031">
        <ele>2177</ele>
        <time>2019-01-20T09:25:36.000Z</time>
      </trkpt>
      <trkpt lat="45.16067" lon="5.92031">
        <ele>2177</ele>
        <time>2019-01-20T09:25:37.000Z</time>
      </trkpt>
      <trkpt lat="45.16067" lon="5.92031">
        <ele>2177</ele>
        <time>2019-01-20T09:25:38.000Z</time>
      </trkpt>
      <trkpt lat="45.16067" lon="5.92031">
        <ele>2177</ele>
        <time>2019-01-20T09:25:39.000Z</time>
      </trkpt>
      <trkpt lat="45.16067" lon="5.92034">
        <ele>2178</ele>
        <time>2019-01-20T09:25:40.000Z</time>
      </trkpt>
      <trkpt lat="45.16067" lon="5.92034">
        <ele>2178</ele>
        <time>2019-01-20T09:25:41.000Z</time>
      </trkpt>
      <trkpt lat="45.16067" lon="5.92034">
        <ele>2178</ele>
        <time>2019-01-20T09:25:42.000Z</time>
      </trkpt>
      <trkpt lat="45.16067" lon="5.92038">
        <ele>2178</ele>
        <time>2019-01-20T09:25:43.000Z</time>
      </trkpt>
      <trkpt lat="45.16067" lon="5.92038">
        <ele>2178</ele>
        <time>2019-01-20T09:25:44.000Z</time>
      </trkpt>
      <trkpt lat="45.16068" lon="5.9204">
        <ele>2178</ele>
        <time>2019-01-20T09:25:45.000Z</time>
      </trkpt>
      <trkpt lat="45.16068" lon="5.9204">
        <ele>2179</ele>
        <time>2019-01-20T09:25:46.000Z</time>
      </trkpt>
      <trkpt lat="45.16068" lon="5.9204">
        <ele>2179</ele>
        <time>2019-01-20T09:25:47.000Z</time>
      </trkpt>
      <trkpt lat="45.16068" lon="5.92044">
        <ele>2179</ele>
        <time>2019-01-20T09:25:48.000Z</time>
      </trkpt>
      <trkpt lat="45.16068" lon="5.92044">
        <ele>2179</ele>
        <time>2019-01-20T09:25:49.000Z</time>
      </trkpt>
      <trkpt lat="45.16068" lon="5.92044">
        <ele>2179</ele>
        <time>2019-01-20T09:25:50.000Z</time>
      </trkpt>
      <trkpt lat="45.16068" lon="5.92047">
        <ele>2179</ele>
        <time>2019-01-20T09:25:51.000Z</time>
      </trkpt>
      <trkpt lat="45.16068" lon="5.92047">
        <ele>2179</ele>
        <time>2019-01-20T09:25:52.000Z</time>
      </trkpt>
      <trkpt lat="45.16068" lon="5.92047">
        <ele>2179</ele>
        <time>2019-01-20T09:25:53.000Z</time>
      </trkpt>
      <trkpt lat="45.16069" lon="5.92051">
        <ele>2179</ele>
        <time>2019-01-20T09:25:54.000Z</time>
      </trkpt>
      <trkpt lat="45.16069" lon="5.92051">
        <ele>2180</ele>
        <time>2019-01-20T09:25:55.000Z</time>
      </trkpt>
      <trkpt lat="45.16069" lon="5.92051">
        <ele>2180</ele>
        <time>2019-01-20T09:25:56.000Z</time>
      </trkpt>
      <trkpt lat="45.16069" lon="5.92054">
        <ele>2181</ele>
        <time>2019-01-20T09:25:57.000Z</time>
      </trkpt>
      <trkpt lat="45.16069" lon="5.92054">
        <ele>2181</ele>
        <time>2019-01-20T09:25:58.000Z</time>
      </trkpt>
      <trkpt lat="45.16069" lon="5.92054">
        <ele>2181</ele>
        <time>2019-01-20T09:25:59.000Z</time>
      </trkpt>
      <trkpt lat="45.16069" lon="5.92057">
        <ele>2181</ele>
        <time>2019-01-20T09:26:00.000Z</time>
      </trkpt>
      <trkpt lat="45.16069" lon="5.92057">
        <ele>2182</ele>
        <time>2019-01-20T09:26:01.000Z</time>
      </trkpt>
      <trkpt lat="45.16069" lon="5.92057">
        <ele>2182</ele>
        <time>2019-01-20T09:26:02.000Z</time>
      </trkpt>
      <trkpt lat="45.16069" lon="5.92059">
        <ele>2182</ele>
        <time>2019-01-20T09:26:03.000Z</time>
      </trkpt>
      <trkpt lat="45.16069" lon="5.92059">
        <ele>2182</ele>
        <time>2019-01-20T09:26:04.000Z</time>
      </trkpt>
      <trkpt lat="45.16069" lon="5.92059">
        <ele>2182</ele>
        <time>2019-01-20T09:26:05.000Z</time>
      </trkpt>
      <trkpt lat="45.16069" lon="5.92062">
        <ele>2182</ele>
        <time>2019-01-20T09:26:06.000Z</time>
      </trkpt>
      <trkpt lat="45.16069" lon="5.92062">
        <ele>2182</ele>
        <time>2019-01-20T09:26:07.000Z</time>
      </trkpt>
      <trkpt lat="45.16069" lon="5.92062">
        <ele>2183</ele>
        <time>2019-01-20T09:26:08.000Z</time>
      </trkpt>
      <trkpt lat="45.16069" lon="5.92065">
        <ele>2184</ele>
        <time>2019-01-20T09:26:09.000Z</time>
      </trkpt>
      <trkpt lat="45.16069" lon="5.92065">
        <ele>2184</ele>
        <time>2019-01-20T09:26:10.000Z</time>
      </trkpt>
      <trkpt lat="45.16069" lon="5.92065">
        <ele>2184</ele>
        <time>2019-01-20T09:26:11.000Z</time>
      </trkpt>
      <trkpt lat="45.16069" lon="5.92068">
        <ele>2184</ele>
        <time>2019-01-20T09:26:12.000Z</time>
      </trkpt>
      <trkpt lat="45.16069" lon="5.92068">
        <ele>2184</ele>
        <time>2019-01-20T09:26:14.000Z</time>
      </trkpt>
      <trkpt lat="45.16069" lon="5.92072">
        <ele>2184</ele>
        <time>2019-01-20T09:26:15.000Z</time>
      </trkpt>
      <trkpt lat="45.16069" lon="5.92072">
        <ele>2185</ele>
        <time>2019-01-20T09:26:17.000Z</time>
      </trkpt>
      <trkpt lat="45.1607" lon="5.92074">
        <ele>2185</ele>
        <time>2019-01-20T09:26:18.000Z</time>
      </trkpt>
      <trkpt lat="45.1607" lon="5.92074">
        <ele>2185</ele>
        <time>2019-01-20T09:26:20.000Z</time>
      </trkpt>
      <trkpt lat="45.1607" lon="5.92077">
        <ele>2187</ele>
        <time>2019-01-20T09:26:21.000Z</time>
      </trkpt>
      <trkpt lat="45.1607" lon="5.92077">
        <ele>2187</ele>
        <time>2019-01-20T09:26:22.000Z</time>
      </trkpt>
      <trkpt lat="45.1607" lon="5.92077">
        <ele>2188</ele>
        <time>2019-01-20T09:26:23.000Z</time>
      </trkpt>
      <trkpt lat="45.1607" lon="5.92081">
        <ele>2188</ele>
        <time>2019-01-20T09:26:24.000Z</time>
      </trkpt>
      <trkpt lat="45.1607" lon="5.92081">
        <ele>2188</ele>
        <time>2019-01-20T09:26:25.000Z</time>
      </trkpt>
      <trkpt lat="45.1607" lon="5.92081">
        <ele>2188</ele>
        <time>2019-01-20T09:26:26.000Z</time>
      </trkpt>
      <trkpt lat="45.16071" lon="5.92084">
        <ele>2189</ele>
        <time>2019-01-20T09:26:27.000Z</time>
      </trkpt>
      <trkpt lat="45.16071" lon="5.92084">
        <ele>2189</ele>
        <time>2019-01-20T09:26:28.000Z</time>
      </trkpt>
      <trkpt lat="45.16071" lon="5.92084">
        <ele>2189</ele>
        <time>2019-01-20T09:26:29.000Z</time>
      </trkpt>
      <trkpt lat="45.16071" lon="5.92087">
        <ele>2190</ele>
        <time>2019-01-20T09:26:30.000Z</time>
      </trkpt>
      <trkpt lat="45.16071" lon="5.92087">
        <ele>2190</ele>
        <time>2019-01-20T09:26:31.000Z</time>
      </trkpt>
      <trkpt lat="45.16071" lon="5.92087">
        <ele>2190</ele>
        <time>2019-01-20T09:26:33.000Z</time>
      </trkpt>
      <trkpt lat="45.16072" lon="5.9209">
        <ele>2190</ele>
        <time>2019-01-20T09:26:34.000Z</time>
      </trkpt>
      <trkpt lat="45.16072" lon="5.9209">
        <ele>2191</ele>
        <time>2019-01-20T09:26:35.000Z</time>
      </trkpt>
      <trkpt lat="45.16072" lon="5.9209">
        <ele>2191</ele>
        <time>2019-01-20T09:26:36.000Z</time>
      </trkpt>
      <trkpt lat="45.16072" lon="5.9209">
        <ele>2191</ele>
        <time>2019-01-20T09:26:37.000Z</time>
      </trkpt>
      <trkpt lat="45.16072" lon="5.92094">
        <ele>2192</ele>
        <time>2019-01-20T09:26:38.000Z</time>
      </trkpt>
      <trkpt lat="45.16072" lon="5.92094">
        <ele>2192</ele>
        <time>2019-01-20T09:26:39.000Z</time>
      </trkpt>
      <trkpt lat="45.16072" lon="5.92094">
        <ele>2192</ele>
        <time>2019-01-20T09:26:40.000Z</time>
      </trkpt>
      <trkpt lat="45.16072" lon="5.92097">
        <ele>2192</ele>
        <time>2019-01-20T09:26:41.000Z</time>
      </trkpt>
      <trkpt lat="45.16072" lon="5.92097">
        <ele>2193</ele>
        <time>2019-01-20T09:26:42.000Z</time>
      </trkpt>
      <trkpt lat="45.16072" lon="5.92097">
        <ele>2193</ele>
        <time>2019-01-20T09:26:43.000Z</time>
      </trkpt>
      <trkpt lat="45.16073" lon="5.92099">
        <ele>2193</ele>
        <time>2019-01-20T09:26:44.000Z</time>
      </trkpt>
      <trkpt lat="45.16073" lon="5.92099">
        <ele>2193</ele>
        <time>2019-01-20T09:26:45.000Z</time>
      </trkpt>
      <trkpt lat="45.16073" lon="5.92099">
        <ele>2193</ele>
        <time>2019-01-20T09:26:46.000Z</time>
      </trkpt>
      <trkpt lat="45.16073" lon="5.92099">
        <ele>2193</ele>
        <time>2019-01-20T09:26:47.000Z</time>
      </trkpt>
      <trkpt lat="45.16073" lon="5.92102">
        <ele>2193</ele>
        <time>2019-01-20T09:26:48.000Z</time>
      </trkpt>
      <trkpt lat="45.16073" lon="5.92102">
        <ele>2193</ele>
        <time>2019-01-20T09:26:49.000Z</time>
      </trkpt>
      <trkpt lat="45.16073" lon="5.92102">
        <ele>2194</ele>
        <time>2019-01-20T09:26:50.000Z</time>
      </trkpt>
      <trkpt lat="45.16074" lon="5.92105">
        <ele>2194</ele>
        <time>2019-01-20T09:26:51.000Z</time>
      </trkpt>
      <trkpt lat="45.16074" lon="5.92105">
        <ele>2194</ele>
        <time>2019-01-20T09:26:52.000Z</time>
      </trkpt>
      <trkpt lat="45.16074" lon="5.92105">
        <ele>2194</ele>
        <time>2019-01-20T09:26:53.000Z</time>
      </trkpt>
      <trkpt lat="45.16074" lon="5.92105">
        <ele>2194</ele>
        <time>2019-01-20T09:26:54.000Z</time>
      </trkpt>
      <trkpt lat="45.16074" lon="5.92105">
        <ele>2194</ele>
        <time>2019-01-20T09:26:55.000Z</time>
      </trkpt>
      <trkpt lat="45.16074" lon="5.92105">
        <ele>2194</ele>
        <time>2019-01-20T09:26:56.000Z</time>
      </trkpt>
      <trkpt lat="45.16076" lon="5.92104">
        <ele>2194</ele>
        <time>2019-01-20T09:26:57.000Z</time>
      </trkpt>
      <trkpt lat="45.16076" lon="5.92104">
        <ele>2195</ele>
        <time>2019-01-20T09:26:58.000Z</time>
      </trkpt>
      <trkpt lat="45.16077" lon="5.92102">
        <ele>2195</ele>
        <time>2019-01-20T09:26:59.000Z</time>
      </trkpt>
      <trkpt lat="45.16077" lon="5.92102">
        <ele>2195</ele>
        <time>2019-01-20T09:27:00.000Z</time>
      </trkpt>
      <trkpt lat="45.16077" lon="5.92102">
        <ele>2195</ele>
        <time>2019-01-20T09:27:01.000Z</time>
      </trkpt>
      <trkpt lat="45.16078" lon="5.92099">
        <ele>2195</ele>
        <time>2019-01-20T09:27:02.000Z</time>
      </trkpt>
      <trkpt lat="45.16078" lon="5.92099">
        <ele>2195</ele>
        <time>2019-01-20T09:27:03.000Z</time>
      </trkpt>
      <trkpt lat="45.16079" lon="5.92097">
        <ele>2196</ele>
        <time>2019-01-20T09:27:04.000Z</time>
      </trkpt>
      <trkpt lat="45.16079" lon="5.92097">
        <ele>2196</ele>
        <time>2019-01-20T09:27:05.000Z</time>
      </trkpt>
      <trkpt lat="45.16079" lon="5.92097">
        <ele>2197</ele>
        <time>2019-01-20T09:27:06.000Z</time>
      </trkpt>
      <trkpt lat="45.1608" lon="5.92094">
        <ele>2197</ele>
        <time>2019-01-20T09:27:07.000Z</time>
      </trkpt>
      <trkpt lat="45.1608" lon="5.92094">
        <ele>2197</ele>
        <time>2019-01-20T09:27:08.000Z</time>
      </trkpt>
      <trkpt lat="45.1608" lon="5.92094">
        <ele>2197</ele>
        <time>2019-01-20T09:27:09.000Z</time>
      </trkpt>
      <trkpt lat="45.16082" lon="5.92091">
        <ele>2197</ele>
        <time>2019-01-20T09:27:10.000Z</time>
      </trkpt>
      <trkpt lat="45.16082" lon="5.92091">
        <ele>2197.6</ele>
        <time>2019-01-20T09:27:11.000Z</time>
      </trkpt>
      <trkpt lat="45.16082" lon="5.92091">
        <ele>2198</ele>
        <time>2019-01-20T09:27:12.000Z</time>
      </trkpt>
      <trkpt lat="45.16083" lon="5.92089">
        <ele>2199</ele>
        <time>2019-01-20T09:27:13.000Z</time>
      </trkpt>
      <trkpt lat="45.16083" lon="5.92089">
        <ele>2199</ele>
        <time>2019-01-20T09:27:14.000Z</time>
      </trkpt>
      <trkpt lat="45.16083" lon="5.92089">
        <ele>2200</ele>
        <time>2019-01-20T09:27:15.000Z</time>
      </trkpt>
      <trkpt lat="45.16083" lon="5.92089">
        <ele>2200</ele>
        <time>2019-01-20T09:27:16.000Z</time>
      </trkpt>
      <trkpt lat="45.16083" lon="5.92089">
        <ele>2200</ele>
        <time>2019-01-20T09:27:17.000Z</time>
      </trkpt>
      <trkpt lat="45.16083" lon="5.92089">
        <ele>2200</ele>
        <time>2019-01-20T09:27:18.000Z</time>
      </trkpt>
      <trkpt lat="45.16083" lon="5.92089">
        <ele>2200</ele>
        <time>2019-01-20T09:27:20.000Z</time>
      </trkpt>
      <trkpt lat="45.16085" lon="5.92088">
        <ele>2200</ele>
        <time>2019-01-20T09:27:21.000Z</time>
      </trkpt>
      <trkpt lat="45.16085" lon="5.92088">
        <ele>2200</ele>
        <time>2019-01-20T09:27:22.000Z</time>
      </trkpt>
      <trkpt lat="45.16085" lon="5.92088">
        <ele>2200</ele>
        <time>2019-01-20T09:27:23.000Z</time>
      </trkpt>
      <trkpt lat="45.16087" lon="5.92086">
        <ele>2200</ele>
        <time>2019-01-20T09:27:24.000Z</time>
      </trkpt>
      <trkpt lat="45.16087" lon="5.92086">
        <ele>2200</ele>
        <time>2019-01-20T09:27:25.000Z</time>
      </trkpt>
      <trkpt lat="45.16087" lon="5.92086">
        <ele>2201</ele>
        <time>2019-01-20T09:27:26.000Z</time>
      </trkpt>
      <trkpt lat="45.16089" lon="5.92085">
        <ele>2201</ele>
        <time>2019-01-20T09:27:27.000Z</time>
      </trkpt>
      <trkpt lat="45.16089" lon="5.92085">
        <ele>2201</ele>
        <time>2019-01-20T09:27:28.000Z</time>
      </trkpt>
      <trkpt lat="45.16091" lon="5.92085">
        <ele>2201</ele>
        <time>2019-01-20T09:27:30.000Z</time>
      </trkpt>
      <trkpt lat="45.16091" lon="5.92085">
        <ele>2201</ele>
        <time>2019-01-20T09:27:31.000Z</time>
      </trkpt>
      <trkpt lat="45.16091" lon="5.92085">
        <ele>2202</ele>
        <time>2019-01-20T09:27:32.000Z</time>
      </trkpt>
      <trkpt lat="45.16093" lon="5.92085">
        <ele>2202</ele>
        <time>2019-01-20T09:27:33.000Z</time>
      </trkpt>
      <trkpt lat="45.16093" lon="5.92085">
        <ele>2202.4</ele>
        <time>2019-01-20T09:27:35.000Z</time>
      </trkpt>
      <trkpt lat="45.16095" lon="5.92085">
        <ele>2203</ele>
        <time>2019-01-20T09:27:36.000Z</time>
      </trkpt>
      <trkpt lat="45.16095" lon="5.92085">
        <ele>2204</ele>
        <time>2019-01-20T09:27:37.000Z</time>
      </trkpt>
      <trkpt lat="45.16095" lon="5.92085">
        <ele>2204</ele>
        <time>2019-01-20T09:27:38.000Z</time>
      </trkpt>
      <trkpt lat="45.16095" lon="5.92085">
        <ele>2204</ele>
        <time>2019-01-20T09:27:40.000Z</time>
      </trkpt>
      <trkpt lat="45.16095" lon="5.92088">
        <ele>2204</ele>
        <time>2019-01-20T09:27:41.000Z</time>
      </trkpt>
      <trkpt lat="45.16095" lon="5.92088">
        <ele>2204</ele>
        <time>2019-01-20T09:27:42.000Z</time>
      </trkpt>
      <trkpt lat="45.16095" lon="5.92088">
        <ele>2204</ele>
        <time>2019-01-20T09:27:43.000Z</time>
      </trkpt>
      <trkpt lat="45.16095" lon="5.92088">
        <ele>2204</ele>
        <time>2019-01-20T09:27:44.000Z</time>
      </trkpt>
      <trkpt lat="45.16094" lon="5.9209">
        <ele>2205</ele>
        <time>2019-01-20T09:27:45.000Z</time>
      </trkpt>
      <trkpt lat="45.16094" lon="5.9209">
        <ele>2205</ele>
        <time>2019-01-20T09:27:46.000Z</time>
      </trkpt>
      <trkpt lat="45.16094" lon="5.9209">
        <ele>2205</ele>
        <time>2019-01-20T09:27:47.000Z</time>
      </trkpt>
      <trkpt lat="45.16093" lon="5.92094">
        <ele>2205</ele>
        <time>2019-01-20T09:27:48.000Z</time>
      </trkpt>
      <trkpt lat="45.16093" lon="5.92094">
        <ele>2205</ele>
        <time>2019-01-20T09:27:49.000Z</time>
      </trkpt>
      <trkpt lat="45.16093" lon="5.92094">
        <ele>2205</ele>
        <time>2019-01-20T09:27:50.000Z</time>
      </trkpt>
      <trkpt lat="45.16093" lon="5.92097">
        <ele>2205</ele>
        <time>2019-01-20T09:27:51.000Z</time>
      </trkpt>
      <trkpt lat="45.16093" lon="5.92097">
        <ele>2206</ele>
        <time>2019-01-20T09:27:52.000Z</time>
      </trkpt>
      <trkpt lat="45.16093" lon="5.92097">
        <ele>2206</ele>
        <time>2019-01-20T09:27:53.000Z</time>
      </trkpt>
      <trkpt lat="45.16093" lon="5.92101">
        <ele>2207</ele>
        <time>2019-01-20T09:27:54.000Z</time>
      </trkpt>
      <trkpt lat="45.16093" lon="5.92101">
        <ele>2207</ele>
        <time>2019-01-20T09:27:55.000Z</time>
      </trkpt>
      <trkpt lat="45.16093" lon="5.92101">
        <ele>2207</ele>
        <time>2019-01-20T09:27:56.000Z</time>
      </trkpt>
      <trkpt lat="45.16093" lon="5.92103">
        <ele>2207</ele>
        <time>2019-01-20T09:27:57.000Z</time>
      </trkpt>
      <trkpt lat="45.16093" lon="5.92103">
        <ele>2208</ele>
        <time>2019-01-20T09:27:58.000Z</time>
      </trkpt>
      <trkpt lat="45.16093" lon="5.92103">
        <ele>2208</ele>
        <time>2019-01-20T09:27:59.000Z</time>
      </trkpt>
      <trkpt lat="45.16093" lon="5.92107">
        <ele>2208</ele>
        <time>2019-01-20T09:28:00.000Z</time>
      </trkpt>
      <trkpt lat="45.16093" lon="5.92107">
        <ele>2208</ele>
        <time>2019-01-20T09:28:01.000Z</time>
      </trkpt>
      <trkpt lat="45.16093" lon="5.92107">
        <ele>2208</ele>
        <time>2019-01-20T09:28:02.000Z</time>
      </trkpt>
      <trkpt lat="45.16093" lon="5.92109">
        <ele>2209</ele>
        <time>2019-01-20T09:28:03.000Z</time>
      </trkpt>
      <trkpt lat="45.16093" lon="5.92109">
        <ele>2209</ele>
        <time>2019-01-20T09:28:04.000Z</time>
      </trkpt>
      <trkpt lat="45.16093" lon="5.92109">
        <ele>2209</ele>
        <time>2019-01-20T09:28:05.000Z</time>
      </trkpt>
      <trkpt lat="45.16094" lon="5.92112">
        <ele>2209</ele>
        <time>2019-01-20T09:28:06.000Z</time>
      </trkpt>
      <trkpt lat="45.16094" lon="5.92112">
        <ele>2210</ele>
        <time>2019-01-20T09:28:08.000Z</time>
      </trkpt>
      <trkpt lat="45.16094" lon="5.92112">
        <ele>2210</ele>
        <time>2019-01-20T09:28:09.000Z</time>
      </trkpt>
      <trkpt lat="45.16094" lon="5.92115">
        <ele>2210</ele>
        <time>2019-01-20T09:28:10.000Z</time>
      </trkpt>
      <trkpt lat="45.16094" lon="5.92115">
        <ele>2210</ele>
        <time>2019-01-20T09:28:11.000Z</time>
      </trkpt>
      <trkpt lat="45.16094" lon="5.92115">
        <ele>2210</ele>
        <time>2019-01-20T09:28:12.000Z</time>
      </trkpt>
      <trkpt lat="45.16094" lon="5.92115">
        <ele>2210</ele>
        <time>2019-01-20T09:28:13.000Z</time>
      </trkpt>
      <trkpt lat="45.16094" lon="5.92115">
        <ele>2210</ele>
        <time>2019-01-20T09:28:14.000Z</time>
      </trkpt>
      <trkpt lat="45.16094" lon="5.92115">
        <ele>2210</ele>
        <time>2019-01-20T09:28:15.000Z</time>
      </trkpt>
      <trkpt lat="45.16094" lon="5.92115">
        <ele>2209</ele>
        <time>2019-01-20T09:28:16.000Z</time>
      </trkpt>
      <trkpt lat="45.16094" lon="5.92115">
        <ele>2209</ele>
        <time>2019-01-20T09:28:17.000Z</time>
      </trkpt>
      <trkpt lat="45.16094" lon="5.92115">
        <ele>2209</ele>
        <time>2019-01-20T09:28:18.000Z</time>
      </trkpt>
      <trkpt lat="45.16094" lon="5.92115">
        <ele>2209</ele>
        <time>2019-01-20T09:28:19.000Z</time>
      </trkpt>
      <trkpt lat="45.16094" lon="5.92115">
        <ele>2209</ele>
        <time>2019-01-20T09:28:20.000Z</time>
      </trkpt>
      <trkpt lat="45.16094" lon="5.92115">
        <ele>2210</ele>
        <time>2019-01-20T09:28:21.000Z</time>
      </trkpt>
      <trkpt lat="45.16094" lon="5.92115">
        <ele>2210</ele>
        <time>2019-01-20T09:28:22.000Z</time>
      </trkpt>
      <trkpt lat="45.16094" lon="5.92115">
        <ele>2210</ele>
        <time>2019-01-20T09:28:23.000Z</time>
      </trkpt>
      <trkpt lat="45.16094" lon="5.92115">
        <ele>2210</ele>
        <time>2019-01-20T09:28:24.000Z</time>
      </trkpt>
      <trkpt lat="45.16094" lon="5.92115">
        <ele>2210</ele>
        <time>2019-01-20T09:28:25.000Z</time>
      </trkpt>
      <trkpt lat="45.16094" lon="5.92115">
        <ele>2210</ele>
        <time>2019-01-20T09:28:27.000Z</time>
      </trkpt>
      <trkpt lat="45.16094" lon="5.92115">
        <ele>2210</ele>
        <time>2019-01-20T09:28:28.000Z</time>
      </trkpt>
      <trkpt lat="45.16094" lon="5.92115">
        <ele>2210</ele>
        <time>2019-01-20T09:28:29.000Z</time>
      </trkpt>
      <trkpt lat="45.16094" lon="5.92115">
        <ele>2210</ele>
        <time>2019-01-20T09:28:30.000Z</time>
      </trkpt>
      <trkpt lat="45.16094" lon="5.92115">
        <ele>2210</ele>
        <time>2019-01-20T09:28:31.000Z</time>
      </trkpt>
      <trkpt lat="45.16094" lon="5.92115">
        <ele>2210</ele>
        <time>2019-01-20T09:28:32.000Z</time>
      </trkpt>
      <trkpt lat="45.16094" lon="5.92115">
        <ele>2210</ele>
        <time>2019-01-20T09:28:33.000Z</time>
      </trkpt>
      <trkpt lat="45.16094" lon="5.92115">
        <ele>2210</ele>
        <time>2019-01-20T09:28:34.000Z</time>
      </trkpt>
      <trkpt lat="45.16094" lon="5.92115">
        <ele>2210</ele>
        <time>2019-01-20T09:28:35.000Z</time>
      </trkpt>
      <trkpt lat="45.16095" lon="5.92113">
        <ele>2210</ele>
        <time>2019-01-20T09:28:36.000Z</time>
      </trkpt>
      <trkpt lat="45.16095" lon="5.92113">
        <ele>2210</ele>
        <time>2019-01-20T09:28:37.000Z</time>
      </trkpt>
      <trkpt lat="45.16095" lon="5.92113">
        <ele>2210</ele>
        <time>2019-01-20T09:28:38.000Z</time>
      </trkpt>
      <trkpt lat="45.16095" lon="5.92113">
        <ele>2211</ele>
        <time>2019-01-20T09:28:39.000Z</time>
      </trkpt>
      <trkpt lat="45.16095" lon="5.92113">
        <ele>2211</ele>
        <time>2019-01-20T09:28:40.000Z</time>
      </trkpt>
      <trkpt lat="45.16097" lon="5.92111">
        <ele>2211</ele>
        <time>2019-01-20T09:28:41.000Z</time>
      </trkpt>
      <trkpt lat="45.16097" lon="5.92111">
        <ele>2211</ele>
        <time>2019-01-20T09:28:42.000Z</time>
      </trkpt>
      <trkpt lat="45.16097" lon="5.92111">
        <ele>2211</ele>
        <time>2019-01-20T09:28:43.000Z</time>
      </trkpt>
      <trkpt lat="45.16097" lon="5.92111">
        <ele>2211</ele>
        <time>2019-01-20T09:28:44.000Z</time>
      </trkpt>
      <trkpt lat="45.16097" lon="5.92111">
        <ele>2211</ele>
        <time>2019-01-20T09:28:46.000Z</time>
      </trkpt>
      <trkpt lat="45.16098" lon="5.9211">
        <ele>2211</ele>
        <time>2019-01-20T09:28:47.000Z</time>
      </trkpt>
      <trkpt lat="45.16098" lon="5.9211">
        <ele>2213</ele>
        <time>2019-01-20T09:28:48.000Z</time>
      </trkpt>
      <trkpt lat="45.16098" lon="5.9211">
        <ele>2213</ele>
        <time>2019-01-20T09:28:49.000Z</time>
      </trkpt>
      <trkpt lat="45.16101" lon="5.92107">
        <ele>2213</ele>
        <time>2019-01-20T09:28:50.000Z</time>
      </trkpt>
      <trkpt lat="45.16101" lon="5.92107">
        <ele>2214</ele>
        <time>2019-01-20T09:28:51.000Z</time>
      </trkpt>
      <trkpt lat="45.16101" lon="5.92107">
        <ele>2214</ele>
        <time>2019-01-20T09:28:52.000Z</time>
      </trkpt>
      <trkpt lat="45.16102" lon="5.92106">
        <ele>2214</ele>
        <time>2019-01-20T09:28:53.000Z</time>
      </trkpt>
      <trkpt lat="45.16102" lon="5.92106">
        <ele>2214</ele>
        <time>2019-01-20T09:28:54.000Z</time>
      </trkpt>
      <trkpt lat="45.16102" lon="5.92106">
        <ele>2215</ele>
        <time>2019-01-20T09:28:55.000Z</time>
      </trkpt>
      <trkpt lat="45.16102" lon="5.92106">
        <ele>2215</ele>
        <time>2019-01-20T09:28:56.000Z</time>
      </trkpt>
      <trkpt lat="45.16104" lon="5.92105">
        <ele>2215</ele>
        <time>2019-01-20T09:28:57.000Z</time>
      </trkpt>
      <trkpt lat="45.16104" lon="5.92105">
        <ele>2215</ele>
        <time>2019-01-20T09:28:58.000Z</time>
      </trkpt>
      <trkpt lat="45.16104" lon="5.92105">
        <ele>2215</ele>
        <time>2019-01-20T09:28:59.000Z</time>
      </trkpt>
      <trkpt lat="45.16104" lon="5.92105">
        <ele>2215</ele>
        <time>2019-01-20T09:29:00.000Z</time>
      </trkpt>
      <trkpt lat="45.16104" lon="5.92105">
        <ele>2215</ele>
        <time>2019-01-20T09:29:01.000Z</time>
      </trkpt>
      <trkpt lat="45.16106" lon="5.92104">
        <ele>2215</ele>
        <time>2019-01-20T09:29:02.000Z</time>
      </trkpt>
      <trkpt lat="45.16106" lon="5.92104">
        <ele>2215</ele>
        <time>2019-01-20T09:29:03.000Z</time>
      </trkpt>
      <trkpt lat="45.16106" lon="5.92104">
        <ele>2216</ele>
        <time>2019-01-20T09:29:05.000Z</time>
      </trkpt>
      <trkpt lat="45.16106" lon="5.92104">
        <ele>2216</ele>
        <time>2019-01-20T09:29:06.000Z</time>
      </trkpt>
      <trkpt lat="45.16106" lon="5.92104">
        <ele>2216</ele>
        <time>2019-01-20T09:29:07.000Z</time>
      </trkpt>
      <trkpt lat="45.16106" lon="5.92104">
        <ele>2217</ele>
        <time>2019-01-20T09:29:08.000Z</time>
      </trkpt>
      <trkpt lat="45.16106" lon="5.92104">
        <ele>2217</ele>
        <time>2019-01-20T09:29:09.000Z</time>
      </trkpt>
      <trkpt lat="45.16106" lon="5.92104">
        <ele>2217</ele>
        <time>2019-01-20T09:29:10.000Z</time>
      </trkpt>
      <trkpt lat="45.16106" lon="5.92104">
        <ele>2217</ele>
        <time>2019-01-20T09:29:11.000Z</time>
      </trkpt>
      <trkpt lat="45.16107" lon="5.92106">
        <ele>2217</ele>
        <time>2019-01-20T09:29:12.000Z</time>
      </trkpt>
      <trkpt lat="45.16107" lon="5.92106">
        <ele>2217</ele>
        <time>2019-01-20T09:29:13.000Z</time>
      </trkpt>
      <trkpt lat="45.16107" lon="5.92106">
        <ele>2217</ele>
        <time>2019-01-20T09:29:14.000Z</time>
      </trkpt>
      <trkpt lat="45.16107" lon="5.92109">
        <ele>2217</ele>
        <time>2019-01-20T09:29:15.000Z</time>
      </trkpt>
      <trkpt lat="45.16107" lon="5.92109">
        <ele>2218</ele>
        <time>2019-01-20T09:29:16.000Z</time>
      </trkpt>
      <trkpt lat="45.16107" lon="5.92109">
        <ele>2218</ele>
        <time>2019-01-20T09:29:17.000Z</time>
      </trkpt>
      <trkpt lat="45.16106" lon="5.92112">
        <ele>2218</ele>
        <time>2019-01-20T09:29:18.000Z</time>
      </trkpt>
      <trkpt lat="45.16106" lon="5.92112">
        <ele>2219</ele>
        <time>2019-01-20T09:29:20.000Z</time>
      </trkpt>
      <trkpt lat="45.16106" lon="5.92115">
        <ele>2219</ele>
        <time>2019-01-20T09:29:21.000Z</time>
      </trkpt>
      <trkpt lat="45.16106" lon="5.92115">
        <ele>2219</ele>
        <time>2019-01-20T09:29:22.000Z</time>
      </trkpt>
      <trkpt lat="45.16106" lon="5.92115">
        <ele>2219</ele>
        <time>2019-01-20T09:29:24.000Z</time>
      </trkpt>
      <trkpt lat="45.16106" lon="5.92118">
        <ele>2220</ele>
        <time>2019-01-20T09:29:25.000Z</time>
      </trkpt>
      <trkpt lat="45.16106" lon="5.92118">
        <ele>2220</ele>
        <time>2019-01-20T09:29:26.000Z</time>
      </trkpt>
      <trkpt lat="45.16106" lon="5.92118">
        <ele>2220</ele>
        <time>2019-01-20T09:29:28.000Z</time>
      </trkpt>
      <trkpt lat="45.16107" lon="5.92121">
        <ele>2220</ele>
        <time>2019-01-20T09:29:29.000Z</time>
      </trkpt>
      <trkpt lat="45.16107" lon="5.92121">
        <ele>2220</ele>
        <time>2019-01-20T09:29:30.000Z</time>
      </trkpt>
      <trkpt lat="45.16107" lon="5.92121">
        <ele>2221</ele>
        <time>2019-01-20T09:29:31.000Z</time>
      </trkpt>
      <trkpt lat="45.16107" lon="5.92121">
        <ele>2221</ele>
        <time>2019-01-20T09:29:32.000Z</time>
      </trkpt>
      <trkpt lat="45.16107" lon="5.92124">
        <ele>2221</ele>
        <time>2019-01-20T09:29:33.000Z</time>
      </trkpt>
      <trkpt lat="45.16107" lon="5.92124">
        <ele>2221</ele>
        <time>2019-01-20T09:29:34.000Z</time>
      </trkpt>
      <trkpt lat="45.16107" lon="5.92124">
        <ele>2222</ele>
        <time>2019-01-20T09:29:35.000Z</time>
      </trkpt>
      <trkpt lat="45.16107" lon="5.92124">
        <ele>2222</ele>
        <time>2019-01-20T09:29:36.000Z</time>
      </trkpt>
      <trkpt lat="45.16107" lon="5.92127">
        <ele>2222</ele>
        <time>2019-01-20T09:29:37.000Z</time>
      </trkpt>
      <trkpt lat="45.16107" lon="5.92127">
        <ele>2222</ele>
        <time>2019-01-20T09:29:38.000Z</time>
      </trkpt>
      <trkpt lat="45.16107" lon="5.92127">
        <ele>2222</ele>
        <time>2019-01-20T09:29:39.000Z</time>
      </trkpt>
      <trkpt lat="45.16107" lon="5.92127">
        <ele>2222</ele>
        <time>2019-01-20T09:29:40.000Z</time>
      </trkpt>
      <trkpt lat="45.16107" lon="5.92127">
        <ele>2222</ele>
        <time>2019-01-20T09:29:41.000Z</time>
      </trkpt>
      <trkpt lat="45.16107" lon="5.92127">
        <ele>2222.4</ele>
        <time>2019-01-20T09:29:43.000Z</time>
      </trkpt>
      <trkpt lat="45.16107" lon="5.9213">
        <ele>2223</ele>
        <time>2019-01-20T09:29:44.000Z</time>
      </trkpt>
      <trkpt lat="45.16107" lon="5.9213">
        <ele>2223</ele>
        <time>2019-01-20T09:29:45.000Z</time>
      </trkpt>
      <trkpt lat="45.16107" lon="5.9213">
        <ele>2223</ele>
        <time>2019-01-20T09:29:46.000Z</time>
      </trkpt>
      <trkpt lat="45.16108" lon="5.92133">
        <ele>2223</ele>
        <time>2019-01-20T09:29:47.000Z</time>
      </trkpt>
      <trkpt lat="45.16108" lon="5.92133">
        <ele>2223</ele>
        <time>2019-01-20T09:29:48.000Z</time>
      </trkpt>
      <trkpt lat="45.16108" lon="5.92133">
        <ele>2224</ele>
        <time>2019-01-20T09:29:49.000Z</time>
      </trkpt>
      <trkpt lat="45.16108" lon="5.92133">
        <ele>2224</ele>
        <time>2019-01-20T09:29:50.000Z</time>
      </trkpt>
      <trkpt lat="45.16108" lon="5.92133">
        <ele>2224</ele>
        <time>2019-01-20T09:29:51.000Z</time>
      </trkpt>
      <trkpt lat="45.16108" lon="5.92133">
        <ele>2224</ele>
        <time>2019-01-20T09:29:52.000Z</time>
      </trkpt>
      <trkpt lat="45.16108" lon="5.92133">
        <ele>2224</ele>
        <time>2019-01-20T09:29:53.000Z</time>
      </trkpt>
      <trkpt lat="45.16108" lon="5.92133">
        <ele>2224</ele>
        <time>2019-01-20T09:29:54.000Z</time>
      </trkpt>
      <trkpt lat="45.16108" lon="5.92133">
        <ele>2224</ele>
        <time>2019-01-20T09:29:55.000Z</time>
      </trkpt>
      <trkpt lat="45.16108" lon="5.92133">
        <ele>2224</ele>
        <time>2019-01-20T09:29:56.000Z</time>
      </trkpt>
      <trkpt lat="45.16108" lon="5.92133">
        <ele>2224</ele>
        <time>2019-01-20T09:29:57.000Z</time>
      </trkpt>
      <trkpt lat="45.16108" lon="5.92133">
        <ele>2224</ele>
        <time>2019-01-20T09:29:58.000Z</time>
      </trkpt>
      <trkpt lat="45.16108" lon="5.92133">
        <ele>2224</ele>
        <time>2019-01-20T09:29:59.000Z</time>
      </trkpt>
      <trkpt lat="45.16108" lon="5.92133">
        <ele>2224</ele>
        <time>2019-01-20T09:30:00.000Z</time>
      </trkpt>
      <trkpt lat="45.16108" lon="5.92133">
        <ele>2224</ele>
        <time>2019-01-20T09:30:02.000Z</time>
      </trkpt>
      <trkpt lat="45.16108" lon="5.92133">
        <ele>2224</ele>
        <time>2019-01-20T09:30:03.000Z</time>
      </trkpt>
      <trkpt lat="45.1611" lon="5.92132">
        <ele>2224</ele>
        <time>2019-01-20T09:30:04.000Z</time>
      </trkpt>
      <trkpt lat="45.1611" lon="5.92132">
        <ele>2224</ele>
        <time>2019-01-20T09:30:05.000Z</time>
      </trkpt>
      <trkpt lat="45.1611" lon="5.92132">
        <ele>2224</ele>
        <time>2019-01-20T09:30:06.000Z</time>
      </trkpt>
      <trkpt lat="45.1611" lon="5.92132">
        <ele>2224</ele>
        <time>2019-01-20T09:30:07.000Z</time>
      </trkpt>
      <trkpt lat="45.1611" lon="5.92132">
        <ele>2224</ele>
        <time>2019-01-20T09:30:08.000Z</time>
      </trkpt>
      <trkpt lat="45.1611" lon="5.92132">
        <ele>2224</ele>
        <time>2019-01-20T09:30:09.000Z</time>
      </trkpt>
      <trkpt lat="45.1611" lon="5.92132">
        <ele>2224</ele>
        <time>2019-01-20T09:30:10.000Z</time>
      </trkpt>
      <trkpt lat="45.16111" lon="5.9213">
        <ele>2224</ele>
        <time>2019-01-20T09:30:11.000Z</time>
      </trkpt>
      <trkpt lat="45.16111" lon="5.9213">
        <ele>2224</ele>
        <time>2019-01-20T09:30:12.000Z</time>
      </trkpt>
      <trkpt lat="45.16111" lon="5.9213">
        <ele>2225</ele>
        <time>2019-01-20T09:30:13.000Z</time>
      </trkpt>
      <trkpt lat="45.16111" lon="5.9213">
        <ele>2225</ele>
        <time>2019-01-20T09:30:14.000Z</time>
      </trkpt>
      <trkpt lat="45.16111" lon="5.9213">
        <ele>2225</ele>
        <time>2019-01-20T09:30:15.000Z</time>
      </trkpt>
      <trkpt lat="45.16112" lon="5.92127">
        <ele>2225</ele>
        <time>2019-01-20T09:30:16.000Z</time>
      </trkpt>
      <trkpt lat="45.16112" lon="5.92127">
        <ele>2225</ele>
        <time>2019-01-20T09:30:17.000Z</time>
      </trkpt>
      <trkpt lat="45.16112" lon="5.92127">
        <ele>2225</ele>
        <time>2019-01-20T09:30:18.000Z</time>
      </trkpt>
      <trkpt lat="45.16114" lon="5.92125">
        <ele>2226</ele>
        <time>2019-01-20T09:30:19.000Z</time>
      </trkpt>
      <trkpt lat="45.16114" lon="5.92125">
        <ele>2226</ele>
        <time>2019-01-20T09:30:21.000Z</time>
      </trkpt>
      <trkpt lat="45.16114" lon="5.92125">
        <ele>2226</ele>
        <time>2019-01-20T09:30:22.000Z</time>
      </trkpt>
      <trkpt lat="45.16114" lon="5.92125">
        <ele>2226</ele>
        <time>2019-01-20T09:30:23.000Z</time>
      </trkpt>
      <trkpt lat="45.16114" lon="5.92125">
        <ele>2226</ele>
        <time>2019-01-20T09:30:24.000Z</time>
      </trkpt>
      <trkpt lat="45.16114" lon="5.92125">
        <ele>2226</ele>
        <time>2019-01-20T09:30:25.000Z</time>
      </trkpt>
      <trkpt lat="45.16114" lon="5.92125">
        <ele>2226</ele>
        <time>2019-01-20T09:30:26.000Z</time>
      </trkpt>
      <trkpt lat="45.16114" lon="5.92125">
        <ele>2227</ele>
        <time>2019-01-20T09:30:27.000Z</time>
      </trkpt>
      <trkpt lat="45.16114" lon="5.92125">
        <ele>2227</ele>
        <time>2019-01-20T09:30:28.000Z</time>
      </trkpt>
      <trkpt lat="45.16114" lon="5.92125">
        <ele>2227</ele>
        <time>2019-01-20T09:30:29.000Z</time>
      </trkpt>
      <trkpt lat="45.16114" lon="5.92125">
        <ele>2227</ele>
        <time>2019-01-20T09:30:30.000Z</time>
      </trkpt>
      <trkpt lat="45.16114" lon="5.92125">
        <ele>2227</ele>
        <time>2019-01-20T09:30:31.000Z</time>
      </trkpt>
      <trkpt lat="45.16114" lon="5.92125">
        <ele>2227</ele>
        <time>2019-01-20T09:30:32.000Z</time>
      </trkpt>
      <trkpt lat="45.16115" lon="5.92124">
        <ele>2227</ele>
        <time>2019-01-20T09:30:33.000Z</time>
      </trkpt>
      <trkpt lat="45.16115" lon="5.92124">
        <ele>2227</ele>
        <time>2019-01-20T09:30:34.000Z</time>
      </trkpt>
      <trkpt lat="45.16115" lon="5.92124">
        <ele>2227</ele>
        <time>2019-01-20T09:30:35.000Z</time>
      </trkpt>
      <trkpt lat="45.16115" lon="5.92124">
        <ele>2228</ele>
        <time>2019-01-20T09:30:36.000Z</time>
      </trkpt>
      <trkpt lat="45.16115" lon="5.92124">
        <ele>2228</ele>
        <time>2019-01-20T09:30:37.000Z</time>
      </trkpt>
      <trkpt lat="45.16115" lon="5.92124">
        <ele>2228</ele>
        <time>2019-01-20T09:30:38.000Z</time>
      </trkpt>
      <trkpt lat="45.16117" lon="5.92122">
        <ele>2228</ele>
        <time>2019-01-20T09:30:40.000Z</time>
      </trkpt>
      <trkpt lat="45.16117" lon="5.92122">
        <ele>2228</ele>
        <time>2019-01-20T09:30:41.000Z</time>
      </trkpt>
      <trkpt lat="45.16117" lon="5.92122">
        <ele>2228</ele>
        <time>2019-01-20T09:30:42.000Z</time>
      </trkpt>
      <trkpt lat="45.16117" lon="5.92122">
        <ele>2228</ele>
        <time>2019-01-20T09:30:43.000Z</time>
      </trkpt>
      <trkpt lat="45.16117" lon="5.92122">
        <ele>2228</ele>
        <time>2019-01-20T09:30:44.000Z</time>
      </trkpt>
      <trkpt lat="45.16117" lon="5.92122">
        <ele>2228</ele>
        <time>2019-01-20T09:30:45.000Z</time>
      </trkpt>
      <trkpt lat="45.16117" lon="5.92122">
        <ele>2228</ele>
        <time>2019-01-20T09:30:46.000Z</time>
      </trkpt>
      <trkpt lat="45.16117" lon="5.92122">
        <ele>2228</ele>
        <time>2019-01-20T09:30:47.000Z</time>
      </trkpt>
      <trkpt lat="45.16117" lon="5.92122">
        <ele>2228</ele>
        <time>2019-01-20T09:30:48.000Z</time>
      </trkpt>
      <trkpt lat="45.16119" lon="5.9212">
        <ele>2228</ele>
        <time>2019-01-20T09:30:49.000Z</time>
      </trkpt>
      <trkpt lat="45.16119" lon="5.9212">
        <ele>2228</ele>
        <time>2019-01-20T09:30:50.000Z</time>
      </trkpt>
      <trkpt lat="45.16119" lon="5.9212">
        <ele>2229</ele>
        <time>2019-01-20T09:30:51.000Z</time>
      </trkpt>
      <trkpt lat="45.16119" lon="5.9212">
        <ele>2229</ele>
        <time>2019-01-20T09:30:52.000Z</time>
      </trkpt>
      <trkpt lat="45.16119" lon="5.9212">
        <ele>2229</ele>
        <time>2019-01-20T09:30:53.000Z</time>
      </trkpt>
      <trkpt lat="45.16119" lon="5.9212">
        <ele>2230</ele>
        <time>2019-01-20T09:30:54.000Z</time>
      </trkpt>
      <trkpt lat="45.1612" lon="5.92119">
        <ele>2230</ele>
        <time>2019-01-20T09:30:55.000Z</time>
      </trkpt>
      <trkpt lat="45.1612" lon="5.92119">
        <ele>2230</ele>
        <time>2019-01-20T09:30:56.000Z</time>
      </trkpt>
      <trkpt lat="45.1612" lon="5.92119">
        <ele>2230</ele>
        <time>2019-01-20T09:30:57.000Z</time>
      </trkpt>
      <trkpt lat="45.1612" lon="5.92119">
        <ele>2230.4</ele>
        <time>2019-01-20T09:30:59.000Z</time>
      </trkpt>
      <trkpt lat="45.1612" lon="5.92119">
        <ele>2231</ele>
        <time>2019-01-20T09:31:00.000Z</time>
      </trkpt>
      <trkpt lat="45.1612" lon="5.92119">
        <ele>2231</ele>
        <time>2019-01-20T09:31:01.000Z</time>
      </trkpt>
      <trkpt lat="45.1612" lon="5.92119">
        <ele>2231</ele>
        <time>2019-01-20T09:31:02.000Z</time>
      </trkpt>
      <trkpt lat="45.1612" lon="5.92119">
        <ele>2231</ele>
        <time>2019-01-20T09:31:03.000Z</time>
      </trkpt>
      <trkpt lat="45.16122" lon="5.92121">
        <ele>2232</ele>
        <time>2019-01-20T09:31:04.000Z</time>
      </trkpt>
      <trkpt lat="45.16122" lon="5.92121">
        <ele>2232</ele>
        <time>2019-01-20T09:31:05.000Z</time>
      </trkpt>
      <trkpt lat="45.16122" lon="5.92121">
        <ele>2232</ele>
        <time>2019-01-20T09:31:06.000Z</time>
      </trkpt>
      <trkpt lat="45.16122" lon="5.92123">
        <ele>2232</ele>
        <time>2019-01-20T09:31:07.000Z</time>
      </trkpt>
      <trkpt lat="45.16122" lon="5.92123">
        <ele>2232</ele>
        <time>2019-01-20T09:31:08.000Z</time>
      </trkpt>
      <trkpt lat="45.16122" lon="5.92123">
        <ele>2232</ele>
        <time>2019-01-20T09:31:09.000Z</time>
      </trkpt>
      <trkpt lat="45.16122" lon="5.92123">
        <ele>2232</ele>
        <time>2019-01-20T09:31:10.000Z</time>
      </trkpt>
      <trkpt lat="45.16122" lon="5.92123">
        <ele>2232</ele>
        <time>2019-01-20T09:31:11.000Z</time>
      </trkpt>
      <trkpt lat="45.16122" lon="5.92123">
        <ele>2233</ele>
        <time>2019-01-20T09:31:12.000Z</time>
      </trkpt>
      <trkpt lat="45.16122" lon="5.92126">
        <ele>2234</ele>
        <time>2019-01-20T09:31:13.000Z</time>
      </trkpt>
      <trkpt lat="45.16122" lon="5.92126">
        <ele>2234</ele>
        <time>2019-01-20T09:31:14.000Z</time>
      </trkpt>
      <trkpt lat="45.16122" lon="5.92126">
        <ele>2234</ele>
        <time>2019-01-20T09:31:15.000Z</time>
      </trkpt>
      <trkpt lat="45.16122" lon="5.92126">
        <ele>2234</ele>
        <time>2019-01-20T09:31:16.000Z</time>
      </trkpt>
      <trkpt lat="45.16122" lon="5.92129">
        <ele>2234</ele>
        <time>2019-01-20T09:31:17.000Z</time>
      </trkpt>
      <trkpt lat="45.16122" lon="5.92129">
        <ele>2234</ele>
        <time>2019-01-20T09:31:18.000Z</time>
      </trkpt>
      <trkpt lat="45.16122" lon="5.92129">
        <ele>2234</ele>
        <time>2019-01-20T09:31:19.000Z</time>
      </trkpt>
      <trkpt lat="45.16122" lon="5.92129">
        <ele>2233</ele>
        <time>2019-01-20T09:31:20.000Z</time>
      </trkpt>
      <trkpt lat="45.16122" lon="5.92129">
        <ele>2233</ele>
        <time>2019-01-20T09:31:21.000Z</time>
      </trkpt>
      <trkpt lat="45.16122" lon="5.92129">
        <ele>2233</ele>
        <time>2019-01-20T09:31:22.000Z</time>
      </trkpt>
      <trkpt lat="45.16122" lon="5.92129">
        <ele>2233</ele>
        <time>2019-01-20T09:31:23.000Z</time>
      </trkpt>
      <trkpt lat="45.16122" lon="5.92129">
        <ele>2234</ele>
        <time>2019-01-20T09:31:24.000Z</time>
      </trkpt>
      <trkpt lat="45.16122" lon="5.92129">
        <ele>2234</ele>
        <time>2019-01-20T09:31:25.000Z</time>
      </trkpt>
      <trkpt lat="45.16122" lon="5.92129">
        <ele>2234</ele>
        <time>2019-01-20T09:31:26.000Z</time>
      </trkpt>
      <trkpt lat="45.16121" lon="5.92132">
        <ele>2234</ele>
        <time>2019-01-20T09:31:27.000Z</time>
      </trkpt>
      <trkpt lat="45.16121" lon="5.92132">
        <ele>2234</ele>
        <time>2019-01-20T09:31:28.000Z</time>
      </trkpt>
      <trkpt lat="45.16121" lon="5.92132">
        <ele>2235</ele>
        <time>2019-01-20T09:31:29.000Z</time>
      </trkpt>
      <trkpt lat="45.16121" lon="5.92132">
        <ele>2235</ele>
        <time>2019-01-20T09:31:30.000Z</time>
      </trkpt>
      <trkpt lat="45.16121" lon="5.92132">
        <ele>2235</ele>
        <time>2019-01-20T09:31:31.000Z</time>
      </trkpt>
      <trkpt lat="45.16121" lon="5.92132">
        <ele>2235</ele>
        <time>2019-01-20T09:31:32.000Z</time>
      </trkpt>
      <trkpt lat="45.16121" lon="5.92132">
        <ele>2235</ele>
        <time>2019-01-20T09:31:33.000Z</time>
      </trkpt>
      <trkpt lat="45.16121" lon="5.92132">
        <ele>2235</ele>
        <time>2019-01-20T09:31:34.000Z</time>
      </trkpt>
      <trkpt lat="45.16121" lon="5.92132">
        <ele>2235</ele>
        <time>2019-01-20T09:31:35.000Z</time>
      </trkpt>
      <trkpt lat="45.16121" lon="5.92132">
        <ele>2234.4</ele>
        <time>2019-01-20T09:31:37.000Z</time>
      </trkpt>
      <trkpt lat="45.16121" lon="5.92132">
        <ele>2234</ele>
        <time>2019-01-20T09:31:38.000Z</time>
      </trkpt>
      <trkpt lat="45.16123" lon="5.92131">
        <ele>2235</ele>
        <time>2019-01-20T09:31:39.000Z</time>
      </trkpt>
      <trkpt lat="45.16123" lon="5.92131">
        <ele>2235</ele>
        <time>2019-01-20T09:31:40.000Z</time>
      </trkpt>
      <trkpt lat="45.16123" lon="5.92131">
        <ele>2236</ele>
        <time>2019-01-20T09:31:41.000Z</time>
      </trkpt>
      <trkpt lat="45.16125" lon="5.92129">
        <ele>2236</ele>
        <time>2019-01-20T09:31:42.000Z</time>
      </trkpt>
      <trkpt lat="45.16125" lon="5.92129">
        <ele>2236</ele>
        <time>2019-01-20T09:31:43.000Z</time>
      </trkpt>
      <trkpt lat="45.16125" lon="5.92129">
        <ele>2236</ele>
        <time>2019-01-20T09:31:44.000Z</time>
      </trkpt>
      <trkpt lat="45.16127" lon="5.92129">
        <ele>2236</ele>
        <time>2019-01-20T09:31:45.000Z</time>
      </trkpt>
      <trkpt lat="45.16127" lon="5.92129">
        <ele>2236</ele>
        <time>2019-01-20T09:31:46.000Z</time>
      </trkpt>
      <trkpt lat="45.16127" lon="5.92129">
        <ele>2236</ele>
        <time>2019-01-20T09:31:47.000Z</time>
      </trkpt>
      <trkpt lat="45.16127" lon="5.92129">
        <ele>2236</ele>
        <time>2019-01-20T09:31:48.000Z</time>
      </trkpt>
      <trkpt lat="45.16127" lon="5.92129">
        <ele>2236</ele>
        <time>2019-01-20T09:31:49.000Z</time>
      </trkpt>
      <trkpt lat="45.16127" lon="5.92129">
        <ele>2236</ele>
        <time>2019-01-20T09:31:50.000Z</time>
      </trkpt>
      <trkpt lat="45.16127" lon="5.92129">
        <ele>2236</ele>
        <time>2019-01-20T09:31:51.000Z</time>
      </trkpt>
      <trkpt lat="45.16127" lon="5.92129">
        <ele>2236</ele>
        <time>2019-01-20T09:31:52.000Z</time>
      </trkpt>
      <trkpt lat="45.16129" lon="5.92127">
        <ele>2236</ele>
        <time>2019-01-20T09:31:53.000Z</time>
      </trkpt>
      <trkpt lat="45.16129" lon="5.92127">
        <ele>2236</ele>
        <time>2019-01-20T09:31:54.000Z</time>
      </trkpt>
      <trkpt lat="45.16129" lon="5.92127">
        <ele>2236</ele>
        <time>2019-01-20T09:31:56.000Z</time>
      </trkpt>
      <trkpt lat="45.16129" lon="5.92127">
        <ele>2236</ele>
        <time>2019-01-20T09:31:57.000Z</time>
      </trkpt>
      <trkpt lat="45.16129" lon="5.92127">
        <ele>2236</ele>
        <time>2019-01-20T09:31:58.000Z</time>
      </trkpt>
      <trkpt lat="45.16129" lon="5.92127">
        <ele>2236</ele>
        <time>2019-01-20T09:31:59.000Z</time>
      </trkpt>
      <trkpt lat="45.16129" lon="5.92127">
        <ele>2236</ele>
        <time>2019-01-20T09:32:00.000Z</time>
      </trkpt>
      <trkpt lat="45.1613" lon="5.92125">
        <ele>2236</ele>
        <time>2019-01-20T09:32:01.000Z</time>
      </trkpt>
      <trkpt lat="45.1613" lon="5.92125">
        <ele>2236</ele>
        <time>2019-01-20T09:32:02.000Z</time>
      </trkpt>
      <trkpt lat="45.1613" lon="5.92125">
        <ele>2236</ele>
        <time>2019-01-20T09:32:03.000Z</time>
      </trkpt>
      <trkpt lat="45.1613" lon="5.92125">
        <ele>2236</ele>
        <time>2019-01-20T09:32:04.000Z</time>
      </trkpt>
      <trkpt lat="45.1613" lon="5.92125">
        <ele>2236</ele>
        <time>2019-01-20T09:32:05.000Z</time>
      </trkpt>
      <trkpt lat="45.16132" lon="5.92125">
        <ele>2236</ele>
        <time>2019-01-20T09:32:06.000Z</time>
      </trkpt>
      <trkpt lat="45.16132" lon="5.92125">
        <ele>2235</ele>
        <time>2019-01-20T09:32:07.000Z</time>
      </trkpt>
      <trkpt lat="45.16132" lon="5.92125">
        <ele>2235</ele>
        <time>2019-01-20T09:32:08.000Z</time>
      </trkpt>
      <trkpt lat="45.16134" lon="5.92123">
        <ele>2235</ele>
        <time>2019-01-20T09:32:09.000Z</time>
      </trkpt>
      <trkpt lat="45.16134" lon="5.92123">
        <ele>2235</ele>
        <time>2019-01-20T09:32:11.000Z</time>
      </trkpt>
      <trkpt lat="45.16136" lon="5.92123">
        <ele>2235</ele>
        <time>2019-01-20T09:32:12.000Z</time>
      </trkpt>
      <trkpt lat="45.16136" lon="5.92123">
        <ele>2235</ele>
        <time>2019-01-20T09:32:13.000Z</time>
      </trkpt>
      <trkpt lat="45.16138" lon="5.92124">
        <ele>2235</ele>
        <time>2019-01-20T09:32:15.000Z</time>
      </trkpt>
      <trkpt lat="45.16138" lon="5.92124">
        <ele>2235</ele>
        <time>2019-01-20T09:32:16.000Z</time>
      </trkpt>
      <trkpt lat="45.16138" lon="5.92124">
        <ele>2235</ele>
        <time>2019-01-20T09:32:17.000Z</time>
      </trkpt>
      <trkpt lat="45.16138" lon="5.92124">
        <ele>2236</ele>
        <time>2019-01-20T09:32:18.000Z</time>
      </trkpt>
      <trkpt lat="45.1614" lon="5.92124">
        <ele>2236</ele>
        <time>2019-01-20T09:32:19.000Z</time>
      </trkpt>
      <trkpt lat="45.1614" lon="5.92124">
        <ele>2237</ele>
        <time>2019-01-20T09:32:20.000Z</time>
      </trkpt>
      <trkpt lat="45.1614" lon="5.92124">
        <ele>2237</ele>
        <time>2019-01-20T09:32:21.000Z</time>
      </trkpt>
      <trkpt lat="45.16142" lon="5.92125">
        <ele>2237</ele>
        <time>2019-01-20T09:32:22.000Z</time>
      </trkpt>
      <trkpt lat="45.16142" lon="5.92125">
        <ele>2237</ele>
        <time>2019-01-20T09:32:23.000Z</time>
      </trkpt>
      <trkpt lat="45.16142" lon="5.92125">
        <ele>2237</ele>
        <time>2019-01-20T09:32:24.000Z</time>
      </trkpt>
      <trkpt lat="45.16145" lon="5.92125">
        <ele>2237</ele>
        <time>2019-01-20T09:32:25.000Z</time>
      </trkpt>
      <trkpt lat="45.16145" lon="5.92125">
        <ele>2237</ele>
        <time>2019-01-20T09:32:26.000Z</time>
      </trkpt>
      <trkpt lat="45.16145" lon="5.92125">
        <ele>2237</ele>
        <time>2019-01-20T09:32:27.000Z</time>
      </trkpt>
      <trkpt lat="45.16147" lon="5.92125">
        <ele>2237</ele>
        <time>2019-01-20T09:32:28.000Z</time>
      </trkpt>
      <trkpt lat="45.16147" lon="5.92125">
        <ele>2237</ele>
        <time>2019-01-20T09:32:29.000Z</time>
      </trkpt>
      <trkpt lat="45.16147" lon="5.92125">
        <ele>2239</ele>
        <time>2019-01-20T09:32:30.000Z</time>
      </trkpt>
      <trkpt lat="45.16147" lon="5.92125">
        <ele>2239</ele>
        <time>2019-01-20T09:32:31.000Z</time>
      </trkpt>
      <trkpt lat="45.16147" lon="5.92125">
        <ele>2239</ele>
        <time>2019-01-20T09:32:32.000Z</time>
      </trkpt>
      <trkpt lat="45.16147" lon="5.92125">
        <ele>2239</ele>
        <time>2019-01-20T09:32:34.000Z</time>
      </trkpt>
      <trkpt lat="45.16147" lon="5.92125">
        <ele>2239</ele>
        <time>2019-01-20T09:32:35.000Z</time>
      </trkpt>
      <trkpt lat="45.16149" lon="5.92125">
        <ele>2239</ele>
        <time>2019-01-20T09:32:36.000Z</time>
      </trkpt>
      <trkpt lat="45.16149" lon="5.92125">
        <ele>2239</ele>
        <time>2019-01-20T09:32:37.000Z</time>
      </trkpt>
      <trkpt lat="45.16149" lon="5.92125">
        <ele>2239</ele>
        <time>2019-01-20T09:32:38.000Z</time>
      </trkpt>
      <trkpt lat="45.16151" lon="5.92125">
        <ele>2239</ele>
        <time>2019-01-20T09:32:39.000Z</time>
      </trkpt>
      <trkpt lat="45.16151" lon="5.92125">
        <ele>2239</ele>
        <time>2019-01-20T09:32:40.000Z</time>
      </trkpt>
      <trkpt lat="45.16151" lon="5.92125">
        <ele>2239</ele>
        <time>2019-01-20T09:32:41.000Z</time>
      </trkpt>
      <trkpt lat="45.16153" lon="5.92125">
        <ele>2239</ele>
        <time>2019-01-20T09:32:42.000Z</time>
      </trkpt>
      <trkpt lat="45.16153" lon="5.92125">
        <ele>2240</ele>
        <time>2019-01-20T09:32:43.000Z</time>
      </trkpt>
      <trkpt lat="45.16153" lon="5.92125">
        <ele>2240</ele>
        <time>2019-01-20T09:32:44.000Z</time>
      </trkpt>
      <trkpt lat="45.16155" lon="5.92125">
        <ele>2240</ele>
        <time>2019-01-20T09:32:45.000Z</time>
      </trkpt>
      <trkpt lat="45.16155" lon="5.92125">
        <ele>2240</ele>
        <time>2019-01-20T09:32:46.000Z</time>
      </trkpt>
      <trkpt lat="45.16155" lon="5.92125">
        <ele>2240</ele>
        <time>2019-01-20T09:32:47.000Z</time>
      </trkpt>
      <trkpt lat="45.16158" lon="5.92125">
        <ele>2240</ele>
        <time>2019-01-20T09:32:48.000Z</time>
      </trkpt>
      <trkpt lat="45.16158" lon="5.92125">
        <ele>2241</ele>
        <time>2019-01-20T09:32:49.000Z</time>
      </trkpt>
      <trkpt lat="45.1616" lon="5.92125">
        <ele>2241</ele>
        <time>2019-01-20T09:32:50.000Z</time>
      </trkpt>
      <trkpt lat="45.1616" lon="5.92125">
        <ele>2241</ele>
        <time>2019-01-20T09:32:51.000Z</time>
      </trkpt>
      <trkpt lat="45.16162" lon="5.92126">
        <ele>2241</ele>
        <time>2019-01-20T09:32:52.000Z</time>
      </trkpt>
      <trkpt lat="45.16162" lon="5.92126">
        <ele>2241</ele>
        <time>2019-01-20T09:32:53.000Z</time>
      </trkpt>
      <trkpt lat="45.16162" lon="5.92126">
        <ele>2241</ele>
        <time>2019-01-20T09:32:54.000Z</time>
      </trkpt>
      <trkpt lat="45.16162" lon="5.92126">
        <ele>2241</ele>
        <time>2019-01-20T09:32:55.000Z</time>
      </trkpt>
      <trkpt lat="45.16162" lon="5.92126">
        <ele>2240</ele>
        <time>2019-01-20T09:32:56.000Z</time>
      </trkpt>
      <trkpt lat="45.16162" lon="5.92126">
        <ele>2240</ele>
        <time>2019-01-20T09:32:57.000Z</time>
      </trkpt>
      <trkpt lat="45.16162" lon="5.92126">
        <ele>2240</ele>
        <time>2019-01-20T09:32:58.000Z</time>
      </trkpt>
      <trkpt lat="45.16162" lon="5.92126">
        <ele>2240</ele>
        <time>2019-01-20T09:32:59.000Z</time>
      </trkpt>
      <trkpt lat="45.16162" lon="5.92126">
        <ele>2240</ele>
        <time>2019-01-20T09:33:01.000Z</time>
      </trkpt>
      <trkpt lat="45.16162" lon="5.92126">
        <ele>2239.6</ele>
        <time>2019-01-20T09:33:02.000Z</time>
      </trkpt>
      <trkpt lat="45.16162" lon="5.92126">
        <ele>2239</ele>
        <time>2019-01-20T09:33:03.000Z</time>
      </trkpt>
      <trkpt lat="45.16162" lon="5.92125">
        <ele>2239</ele>
        <time>2019-01-20T09:33:04.000Z</time>
      </trkpt>
      <trkpt lat="45.16162" lon="5.92125">
        <ele>2238</ele>
        <time>2019-01-20T09:36:10.000Z</time>
      </trkpt>
      <trkpt lat="45.1615" lon="5.9214">
        <ele>2238</ele>
        <time>2019-01-20T09:36:11.000Z</time>
      </trkpt>
      <trkpt lat="45.1615" lon="5.9214">
        <ele>2238</ele>
        <time>2019-01-20T09:36:12.000Z</time>
      </trkpt>
      <trkpt lat="45.1615" lon="5.9214">
        <ele>2238</ele>
        <time>2019-01-20T09:36:13.000Z</time>
      </trkpt>
      <trkpt lat="45.1615" lon="5.9214">
        <ele>2238</ele>
        <time>2019-01-20T09:36:14.000Z</time>
      </trkpt>
      <trkpt lat="45.1615" lon="5.9214">
        <ele>2238</ele>
        <time>2019-01-20T09:36:15.000Z</time>
      </trkpt>
      <trkpt lat="45.1615" lon="5.9214">
        <ele>2238</ele>
        <time>2019-01-20T09:36:16.000Z</time>
      </trkpt>
      <trkpt lat="45.1615" lon="5.9214">
        <ele>2238</ele>
        <time>2019-01-20T09:36:17.000Z</time>
      </trkpt>
      <trkpt lat="45.1615" lon="5.9214">
        <ele>2238</ele>
        <time>2019-01-20T09:36:18.000Z</time>
      </trkpt>
      <trkpt lat="45.1615" lon="5.9214">
        <ele>2238</ele>
        <time>2019-01-20T09:36:19.000Z</time>
      </trkpt>
      <trkpt lat="45.1615" lon="5.9214">
        <ele>2238</ele>
        <time>2019-01-20T09:36:20.000Z</time>
      </trkpt>
      <trkpt lat="45.1615" lon="5.9214">
        <ele>2238</ele>
        <time>2019-01-20T09:36:21.000Z</time>
      </trkpt>
      <trkpt lat="45.1615" lon="5.9214">
        <ele>2238</ele>
        <time>2019-01-20T09:36:22.000Z</time>
      </trkpt>
      <trkpt lat="45.1615" lon="5.9214">
        <ele>2238</ele>
        <time>2019-01-20T09:36:23.000Z</time>
      </trkpt>
      <trkpt lat="45.1615" lon="5.9214">
        <ele>2238</ele>
        <time>2019-01-20T09:36:24.000Z</time>
      </trkpt>
      <trkpt lat="45.1615" lon="5.9214">
        <ele>2238</ele>
        <time>2019-01-20T09:36:25.000Z</time>
      </trkpt>
      <trkpt lat="45.1615" lon="5.9214">
        <ele>2238</ele>
        <time>2019-01-20T09:36:26.000Z</time>
      </trkpt>
      <trkpt lat="45.1615" lon="5.9214">
        <ele>2238</ele>
        <time>2019-01-20T09:36:27.000Z</time>
      </trkpt>
      <trkpt lat="45.1615" lon="5.9214">
        <ele>2237</ele>
        <time>2019-01-20T09:36:28.000Z</time>
      </trkpt>
      <trkpt lat="45.1615" lon="5.9214">
        <ele>2237</ele>
        <time>2019-01-20T09:36:30.000Z</time>
      </trkpt>
      <trkpt lat="45.1615" lon="5.9214">
        <ele>2237</ele>
        <time>2019-01-20T09:36:31.000Z</time>
      </trkpt>
      <trkpt lat="45.16151" lon="5.92141">
        <ele>2238</ele>
        <time>2019-01-20T09:36:32.000Z</time>
      </trkpt>
      <trkpt lat="45.16151" lon="5.92141">
        <ele>2238</ele>
        <time>2019-01-20T09:36:33.000Z</time>
      </trkpt>
      <trkpt lat="45.16151" lon="5.92141">
        <ele>2238</ele>
        <time>2019-01-20T09:36:34.000Z</time>
      </trkpt>
      <trkpt lat="45.16154" lon="5.92142">
        <ele>2238</ele>
        <time>2019-01-20T09:36:35.000Z</time>
      </trkpt>
      <trkpt lat="45.16154" lon="5.92142">
        <ele>2238</ele>
        <time>2019-01-20T09:36:36.000Z</time>
      </trkpt>
      <trkpt lat="45.16154" lon="5.92142">
        <ele>2239</ele>
        <time>2019-01-20T09:36:37.000Z</time>
      </trkpt>
      <trkpt lat="45.16154" lon="5.92142">
        <ele>2239</ele>
        <time>2019-01-20T09:36:38.000Z</time>
      </trkpt>
      <trkpt lat="45.16156" lon="5.92143">
        <ele>2239</ele>
        <time>2019-01-20T09:36:39.000Z</time>
      </trkpt>
      <trkpt lat="45.16156" lon="5.92143">
        <ele>2239</ele>
        <time>2019-01-20T09:36:40.000Z</time>
      </trkpt>
      <trkpt lat="45.16156" lon="5.92143">
        <ele>2239</ele>
        <time>2019-01-20T09:36:41.000Z</time>
      </trkpt>
      <trkpt lat="45.16158" lon="5.92144">
        <ele>2239</ele>
        <time>2019-01-20T09:36:42.000Z</time>
      </trkpt>
      <trkpt lat="45.16158" lon="5.92144">
        <ele>2239</ele>
        <time>2019-01-20T09:36:43.000Z</time>
      </trkpt>
      <trkpt lat="45.16158" lon="5.92144">
        <ele>2239</ele>
        <time>2019-01-20T09:36:44.000Z</time>
      </trkpt>
      <trkpt lat="45.1616" lon="5.92145">
        <ele>2239</ele>
        <time>2019-01-20T09:36:45.000Z</time>
      </trkpt>
      <trkpt lat="45.1616" lon="5.92145">
        <ele>2239</ele>
        <time>2019-01-20T09:36:46.000Z</time>
      </trkpt>
      <trkpt lat="45.1616" lon="5.92145">
        <ele>2239</ele>
        <time>2019-01-20T09:36:47.000Z</time>
      </trkpt>
      <trkpt lat="45.16161" lon="5.92146">
        <ele>2239</ele>
        <time>2019-01-20T09:36:48.000Z</time>
      </trkpt>
      <trkpt lat="45.16161" lon="5.92146">
        <ele>2240</ele>
        <time>2019-01-20T09:36:49.000Z</time>
      </trkpt>
      <trkpt lat="45.16161" lon="5.92146">
        <ele>2240</ele>
        <time>2019-01-20T09:36:50.000Z</time>
      </trkpt>
      <trkpt lat="45.16163" lon="5.92147">
        <ele>2241</ele>
        <time>2019-01-20T09:36:51.000Z</time>
      </trkpt>
      <trkpt lat="45.16163" lon="5.92147">
        <ele>2241</ele>
        <time>2019-01-20T09:36:52.000Z</time>
      </trkpt>
      <trkpt lat="45.16163" lon="5.92147">
        <ele>2241</ele>
        <time>2019-01-20T09:36:53.000Z</time>
      </trkpt>
      <trkpt lat="45.16163" lon="5.92147">
        <ele>2241</ele>
        <time>2019-01-20T09:36:54.000Z</time>
      </trkpt>
      <trkpt lat="45.16163" lon="5.92147">
        <ele>2241</ele>
        <time>2019-01-20T09:36:55.000Z</time>
      </trkpt>
      <trkpt lat="45.16163" lon="5.92147">
        <ele>2242</ele>
        <time>2019-01-20T09:36:56.000Z</time>
      </trkpt>
      <trkpt lat="45.16165" lon="5.92149">
        <ele>2242</ele>
        <time>2019-01-20T09:36:57.000Z</time>
      </trkpt>
      <trkpt lat="45.16165" lon="5.92149">
        <ele>2242</ele>
        <time>2019-01-20T09:36:58.000Z</time>
      </trkpt>
      <trkpt lat="45.16165" lon="5.92149">
        <ele>2242</ele>
        <time>2019-01-20T09:36:59.000Z</time>
      </trkpt>
      <trkpt lat="45.16166" lon="5.9215">
        <ele>2242</ele>
        <time>2019-01-20T09:37:00.000Z</time>
      </trkpt>
      <trkpt lat="45.16166" lon="5.9215">
        <ele>2242</ele>
        <time>2019-01-20T09:37:01.000Z</time>
      </trkpt>
      <trkpt lat="45.16166" lon="5.9215">
        <ele>2242</ele>
        <time>2019-01-20T09:37:02.000Z</time>
      </trkpt>
      <trkpt lat="45.16168" lon="5.92151">
        <ele>2242</ele>
        <time>2019-01-20T09:37:03.000Z</time>
      </trkpt>
      <trkpt lat="45.16168" lon="5.92151">
        <ele>2242</ele>
        <time>2019-01-20T09:37:04.000Z</time>
      </trkpt>
      <trkpt lat="45.16168" lon="5.92151">
        <ele>2243</ele>
        <time>2019-01-20T09:37:05.000Z</time>
      </trkpt>
      <trkpt lat="45.16168" lon="5.92151">
        <ele>2243</ele>
        <time>2019-01-20T09:37:06.000Z</time>
      </trkpt>
      <trkpt lat="45.16168" lon="5.92151">
        <ele>2243</ele>
        <time>2019-01-20T09:37:08.000Z</time>
      </trkpt>
      <trkpt lat="45.16168" lon="5.92151">
        <ele>2243</ele>
        <time>2019-01-20T09:37:09.000Z</time>
      </trkpt>
      <trkpt lat="45.16168" lon="5.92151">
        <ele>2243</ele>
        <time>2019-01-20T09:37:11.000Z</time>
      </trkpt>
      <trkpt lat="45.1617" lon="5.92152">
        <ele>2243</ele>
        <time>2019-01-20T09:37:12.000Z</time>
      </trkpt>
      <trkpt lat="45.1617" lon="5.92152">
        <ele>2243</ele>
        <time>2019-01-20T09:37:13.000Z</time>
      </trkpt>
      <trkpt lat="45.1617" lon="5.92152">
        <ele>2243</ele>
        <time>2019-01-20T09:37:14.000Z</time>
      </trkpt>
      <trkpt lat="45.1617" lon="5.92152">
        <ele>2243</ele>
        <time>2019-01-20T09:37:15.000Z</time>
      </trkpt>
      <trkpt lat="45.16172" lon="5.92153">
        <ele>2244</ele>
        <time>2019-01-20T09:37:16.000Z</time>
      </trkpt>
      <trkpt lat="45.16172" lon="5.92153">
        <ele>2244</ele>
        <time>2019-01-20T09:37:17.000Z</time>
      </trkpt>
      <trkpt lat="45.16172" lon="5.92153">
        <ele>2244</ele>
        <time>2019-01-20T09:37:18.000Z</time>
      </trkpt>
      <trkpt lat="45.16172" lon="5.92153">
        <ele>2244</ele>
        <time>2019-01-20T09:37:19.000Z</time>
      </trkpt>
      <trkpt lat="45.16174" lon="5.92156">
        <ele>2244</ele>
        <time>2019-01-20T09:37:20.000Z</time>
      </trkpt>
      <trkpt lat="45.16174" lon="5.92156">
        <ele>2244</ele>
        <time>2019-01-20T09:37:21.000Z</time>
      </trkpt>
      <trkpt lat="45.16174" lon="5.92156">
        <ele>2245</ele>
        <time>2019-01-20T09:37:22.000Z</time>
      </trkpt>
      <trkpt lat="45.16174" lon="5.92156">
        <ele>2245</ele>
        <time>2019-01-20T09:37:24.000Z</time>
      </trkpt>
      <trkpt lat="45.16176" lon="5.92158">
        <ele>2245</ele>
        <time>2019-01-20T09:37:25.000Z</time>
      </trkpt>
      <trkpt lat="45.16176" lon="5.92158">
        <ele>2245</ele>
        <time>2019-01-20T09:37:27.000Z</time>
      </trkpt>
      <trkpt lat="45.16177" lon="5.9216">
        <ele>2244</ele>
        <time>2019-01-20T09:37:28.000Z</time>
      </trkpt>
      <trkpt lat="45.16177" lon="5.9216">
        <ele>2245</ele>
        <time>2019-01-20T09:37:29.000Z</time>
      </trkpt>
      <trkpt lat="45.16177" lon="5.9216">
        <ele>2245</ele>
        <time>2019-01-20T09:37:30.000Z</time>
      </trkpt>
      <trkpt lat="45.16179" lon="5.92163">
        <ele>2245</ele>
        <time>2019-01-20T09:37:31.000Z</time>
      </trkpt>
      <trkpt lat="45.16179" lon="5.92163">
        <ele>2245</ele>
        <time>2019-01-20T09:37:32.000Z</time>
      </trkpt>
      <trkpt lat="45.16179" lon="5.92163">
        <ele>2246</ele>
        <time>2019-01-20T09:37:33.000Z</time>
      </trkpt>
      <trkpt lat="45.16181" lon="5.92165">
        <ele>2246</ele>
        <time>2019-01-20T09:37:34.000Z</time>
      </trkpt>
      <trkpt lat="45.16181" lon="5.92165">
        <ele>2247</ele>
        <time>2019-01-20T09:37:35.000Z</time>
      </trkpt>
      <trkpt lat="45.16181" lon="5.92165">
        <ele>2247</ele>
        <time>2019-01-20T09:37:36.000Z</time>
      </trkpt>
      <trkpt lat="45.16182" lon="5.92167">
        <ele>2247</ele>
        <time>2019-01-20T09:37:37.000Z</time>
      </trkpt>
      <trkpt lat="45.16182" lon="5.92167">
        <ele>2247</ele>
        <time>2019-01-20T09:37:38.000Z</time>
      </trkpt>
      <trkpt lat="45.16182" lon="5.92167">
        <ele>2247</ele>
        <time>2019-01-20T09:37:39.000Z</time>
      </trkpt>
      <trkpt lat="45.16184" lon="5.92169">
        <ele>2248</ele>
        <time>2019-01-20T09:37:40.000Z</time>
      </trkpt>
      <trkpt lat="45.16184" lon="5.92169">
        <ele>2248</ele>
        <time>2019-01-20T09:37:41.000Z</time>
      </trkpt>
      <trkpt lat="45.16186" lon="5.9217">
        <ele>2248</ele>
        <time>2019-01-20T09:37:42.000Z</time>
      </trkpt>
      <trkpt lat="45.16186" lon="5.9217">
        <ele>2248</ele>
        <time>2019-01-20T09:37:43.000Z</time>
      </trkpt>
      <trkpt lat="45.16186" lon="5.9217">
        <ele>2248</ele>
        <time>2019-01-20T09:37:44.000Z</time>
      </trkpt>
      <trkpt lat="45.16187" lon="5.92172">
        <ele>2248</ele>
        <time>2019-01-20T09:37:45.000Z</time>
      </trkpt>
      <trkpt lat="45.16187" lon="5.92172">
        <ele>2248</ele>
        <time>2019-01-20T09:37:46.000Z</time>
      </trkpt>
      <trkpt lat="45.16187" lon="5.92172">
        <ele>2248</ele>
        <time>2019-01-20T09:37:47.000Z</time>
      </trkpt>
      <trkpt lat="45.16189" lon="5.92174">
        <ele>2249</ele>
        <time>2019-01-20T09:37:48.000Z</time>
      </trkpt>
      <trkpt lat="45.16189" lon="5.92174">
        <ele>2249</ele>
        <time>2019-01-20T09:37:49.000Z</time>
      </trkpt>
      <trkpt lat="45.16189" lon="5.92174">
        <ele>2250</ele>
        <time>2019-01-20T09:37:50.000Z</time>
      </trkpt>
      <trkpt lat="45.16189" lon="5.92174">
        <ele>2250</ele>
        <time>2019-01-20T09:37:51.000Z</time>
      </trkpt>
      <trkpt lat="45.16189" lon="5.92174">
        <ele>2250</ele>
        <time>2019-01-20T09:37:52.000Z</time>
      </trkpt>
      <trkpt lat="45.1619" lon="5.92176">
        <ele>2250</ele>
        <time>2019-01-20T09:37:53.000Z</time>
      </trkpt>
      <trkpt lat="45.1619" lon="5.92176">
        <ele>2250</ele>
        <time>2019-01-20T09:37:54.000Z</time>
      </trkpt>
      <trkpt lat="45.1619" lon="5.92176">
        <ele>2250</ele>
        <time>2019-01-20T09:37:55.000Z</time>
      </trkpt>
      <trkpt lat="45.1619" lon="5.92176">
        <ele>2250</ele>
        <time>2019-01-20T09:37:56.000Z</time>
      </trkpt>
      <trkpt lat="45.16192" lon="5.92179">
        <ele>2251</ele>
        <time>2019-01-20T09:37:57.000Z</time>
      </trkpt>
      <trkpt lat="45.16192" lon="5.92179">
        <ele>2251</ele>
        <time>2019-01-20T09:37:58.000Z</time>
      </trkpt>
      <trkpt lat="45.16192" lon="5.92179">
        <ele>2252</ele>
        <time>2019-01-20T09:37:59.000Z</time>
      </trkpt>
      <trkpt lat="45.16194" lon="5.92181">
        <ele>2252</ele>
        <time>2019-01-20T09:38:00.000Z</time>
      </trkpt>
      <trkpt lat="45.16194" lon="5.92181">
        <ele>2252</ele>
        <time>2019-01-20T09:38:01.000Z</time>
      </trkpt>
      <trkpt lat="45.16194" lon="5.92181">
        <ele>2252</ele>
        <time>2019-01-20T09:38:02.000Z</time>
      </trkpt>
      <trkpt lat="45.16197" lon="5.92182">
        <ele>2252</ele>
        <time>2019-01-20T09:38:03.000Z</time>
      </trkpt>
      <trkpt lat="45.16197" lon="5.92182">
        <ele>2252</ele>
        <time>2019-01-20T09:38:05.000Z</time>
      </trkpt>
      <trkpt lat="45.16199" lon="5.92184">
        <ele>2252</ele>
        <time>2019-01-20T09:38:06.000Z</time>
      </trkpt>
      <trkpt lat="45.16199" lon="5.92184">
        <ele>2252</ele>
        <time>2019-01-20T09:38:07.000Z</time>
      </trkpt>
      <trkpt lat="45.16199" lon="5.92184">
        <ele>2253</ele>
        <time>2019-01-20T09:38:08.000Z</time>
      </trkpt>
      <trkpt lat="45.162" lon="5.92185">
        <ele>2253</ele>
        <time>2019-01-20T09:38:09.000Z</time>
      </trkpt>
      <trkpt lat="45.162" lon="5.92185">
        <ele>2253</ele>
        <time>2019-01-20T09:38:10.000Z</time>
      </trkpt>
      <trkpt lat="45.162" lon="5.92185">
        <ele>2253</ele>
        <time>2019-01-20T09:38:11.000Z</time>
      </trkpt>
      <trkpt lat="45.16203" lon="5.92187">
        <ele>2253</ele>
        <time>2019-01-20T09:38:12.000Z</time>
      </trkpt>
      <trkpt lat="45.16203" lon="5.92187">
        <ele>2253</ele>
        <time>2019-01-20T09:38:13.000Z</time>
      </trkpt>
      <trkpt lat="45.16203" lon="5.92187">
        <ele>2253</ele>
        <time>2019-01-20T09:38:14.000Z</time>
      </trkpt>
      <trkpt lat="45.16205" lon="5.92189">
        <ele>2253</ele>
        <time>2019-01-20T09:38:15.000Z</time>
      </trkpt>
      <trkpt lat="45.16205" lon="5.92189">
        <ele>2254</ele>
        <time>2019-01-20T09:38:16.000Z</time>
      </trkpt>
      <trkpt lat="45.16205" lon="5.92189">
        <ele>2254</ele>
        <time>2019-01-20T09:38:17.000Z</time>
      </trkpt>
      <trkpt lat="45.16208" lon="5.92191">
        <ele>2254</ele>
        <time>2019-01-20T09:38:18.000Z</time>
      </trkpt>
      <trkpt lat="45.16208" lon="5.92191">
        <ele>2254</ele>
        <time>2019-01-20T09:38:19.000Z</time>
      </trkpt>
      <trkpt lat="45.1621" lon="5.92192">
        <ele>2254</ele>
        <time>2019-01-20T09:38:20.000Z</time>
      </trkpt>
      <trkpt lat="45.1621" lon="5.92192">
        <ele>2255</ele>
        <time>2019-01-20T09:38:21.000Z</time>
      </trkpt>
      <trkpt lat="45.16211" lon="5.92194">
        <ele>2255</ele>
        <time>2019-01-20T09:38:22.000Z</time>
      </trkpt>
      <trkpt lat="45.16213" lon="5.92195">
        <ele>2255</ele>
        <time>2019-01-20T09:38:24.000Z</time>
      </trkpt>
      <trkpt lat="45.16213" lon="5.92195">
        <ele>2255</ele>
        <time>2019-01-20T09:38:25.000Z</time>
      </trkpt>
      <trkpt lat="45.16215" lon="5.92196">
        <ele>2255</ele>
        <time>2019-01-20T09:38:26.000Z</time>
      </trkpt>
      <trkpt lat="45.16215" lon="5.92196">
        <ele>2255</ele>
        <time>2019-01-20T09:38:27.000Z</time>
      </trkpt>
      <trkpt lat="45.16216" lon="5.92198">
        <ele>2256</ele>
        <time>2019-01-20T09:38:28.000Z</time>
      </trkpt>
      <trkpt lat="45.16216" lon="5.92198">
        <ele>2256</ele>
        <time>2019-01-20T09:38:29.000Z</time>
      </trkpt>
      <trkpt lat="45.16216" lon="5.92198">
        <ele>2256</ele>
        <time>2019-01-20T09:38:30.000Z</time>
      </trkpt>
      <trkpt lat="45.16219" lon="5.922">
        <ele>2256</ele>
        <time>2019-01-20T09:38:31.000Z</time>
      </trkpt>
      <trkpt lat="45.16219" lon="5.922">
        <ele>2257</ele>
        <time>2019-01-20T09:38:32.000Z</time>
      </trkpt>
      <trkpt lat="45.1622" lon="5.92202">
        <ele>2257</ele>
        <time>2019-01-20T09:38:33.000Z</time>
      </trkpt>
      <trkpt lat="45.1622" lon="5.92202">
        <ele>2257</ele>
        <time>2019-01-20T09:38:34.000Z</time>
      </trkpt>
      <trkpt lat="45.16222" lon="5.92203">
        <ele>2258</ele>
        <time>2019-01-20T09:38:35.000Z</time>
      </trkpt>
      <trkpt lat="45.16222" lon="5.92203">
        <ele>2258</ele>
        <time>2019-01-20T09:38:36.000Z</time>
      </trkpt>
      <trkpt lat="45.16224" lon="5.92205">
        <ele>2258</ele>
        <time>2019-01-20T09:38:37.000Z</time>
      </trkpt>
      <trkpt lat="45.16224" lon="5.92205">
        <ele>2258</ele>
        <time>2019-01-20T09:38:38.000Z</time>
      </trkpt>
      <trkpt lat="45.16225" lon="5.92207">
        <ele>2258</ele>
        <time>2019-01-20T09:38:39.000Z</time>
      </trkpt>
      <trkpt lat="45.16225" lon="5.92207">
        <ele>2258</ele>
        <time>2019-01-20T09:38:40.000Z</time>
      </trkpt>
      <trkpt lat="45.16227" lon="5.92209">
        <ele>2259</ele>
        <time>2019-01-20T09:38:41.000Z</time>
      </trkpt>
      <trkpt lat="45.16229" lon="5.9221">
        <ele>2259</ele>
        <time>2019-01-20T09:38:43.000Z</time>
      </trkpt>
      <trkpt lat="45.16229" lon="5.9221">
        <ele>2258</ele>
        <time>2019-01-20T09:38:44.000Z</time>
      </trkpt>
      <trkpt lat="45.16229" lon="5.9221">
        <ele>2258</ele>
        <time>2019-01-20T09:38:45.000Z</time>
      </trkpt>
      <trkpt lat="45.16231" lon="5.92213">
        <ele>2259</ele>
        <time>2019-01-20T09:38:46.000Z</time>
      </trkpt>
      <trkpt lat="45.16231" lon="5.92213">
        <ele>2259</ele>
        <time>2019-01-20T09:38:47.000Z</time>
      </trkpt>
      <trkpt lat="45.16231" lon="5.92213">
        <ele>2259</ele>
        <time>2019-01-20T09:38:48.000Z</time>
      </trkpt>
      <trkpt lat="45.16233" lon="5.92215">
        <ele>2259</ele>
        <time>2019-01-20T09:38:49.000Z</time>
      </trkpt>
      <trkpt lat="45.16233" lon="5.92215">
        <ele>2260</ele>
        <time>2019-01-20T09:38:50.000Z</time>
      </trkpt>
      <trkpt lat="45.16235" lon="5.92216">
        <ele>2260</ele>
        <time>2019-01-20T09:38:51.000Z</time>
      </trkpt>
      <trkpt lat="45.16235" lon="5.92216">
        <ele>2260</ele>
        <time>2019-01-20T09:38:52.000Z</time>
      </trkpt>
      <trkpt lat="45.16235" lon="5.92216">
        <ele>2260</ele>
        <time>2019-01-20T09:38:53.000Z</time>
      </trkpt>
      <trkpt lat="45.16235" lon="5.92216">
        <ele>2261</ele>
        <time>2019-01-20T09:38:54.000Z</time>
      </trkpt>
      <trkpt lat="45.16237" lon="5.92218">
        <ele>2261</ele>
        <time>2019-01-20T09:38:55.000Z</time>
      </trkpt>
      <trkpt lat="45.16237" lon="5.92218">
        <ele>2261</ele>
        <time>2019-01-20T09:38:56.000Z</time>
      </trkpt>
      <trkpt lat="45.16239" lon="5.92219">
        <ele>2261</ele>
        <time>2019-01-20T09:38:57.000Z</time>
      </trkpt>
      <trkpt lat="45.16239" lon="5.92219">
        <ele>2261</ele>
        <time>2019-01-20T09:38:58.000Z</time>
      </trkpt>
      <trkpt lat="45.16241" lon="5.92221">
        <ele>2261</ele>
        <time>2019-01-20T09:38:59.000Z</time>
      </trkpt>
      <trkpt lat="45.16241" lon="5.92221">
        <ele>2262</ele>
        <time>2019-01-20T09:39:00.000Z</time>
      </trkpt>
      <trkpt lat="45.16242" lon="5.92223">
        <ele>2262</ele>
        <time>2019-01-20T09:39:01.000Z</time>
      </trkpt>
      <trkpt lat="45.16242" lon="5.92223">
        <ele>2262</ele>
        <time>2019-01-20T09:39:02.000Z</time>
      </trkpt>
      <trkpt lat="45.16244" lon="5.92225">
        <ele>2262</ele>
        <time>2019-01-20T09:39:03.000Z</time>
      </trkpt>
      <trkpt lat="45.16244" lon="5.92225">
        <ele>2262</ele>
        <time>2019-01-20T09:39:04.000Z</time>
      </trkpt>
      <trkpt lat="45.16245" lon="5.92227">
        <ele>2262</ele>
        <time>2019-01-20T09:39:05.000Z</time>
      </trkpt>
      <trkpt lat="45.16245" lon="5.92227">
        <ele>2263</ele>
        <time>2019-01-20T09:39:06.000Z</time>
      </trkpt>
      <trkpt lat="45.16247" lon="5.92229">
        <ele>2263</ele>
        <time>2019-01-20T09:39:07.000Z</time>
      </trkpt>
      <trkpt lat="45.16247" lon="5.92229">
        <ele>2264</ele>
        <time>2019-01-20T09:39:08.000Z</time>
      </trkpt>
      <trkpt lat="45.16249" lon="5.9223">
        <ele>2264</ele>
        <time>2019-01-20T09:39:09.000Z</time>
      </trkpt>
      <trkpt lat="45.16249" lon="5.9223">
        <ele>2264</ele>
        <time>2019-01-20T09:39:10.000Z</time>
      </trkpt>
      <trkpt lat="45.1625" lon="5.92232">
        <ele>2264</ele>
        <time>2019-01-20T09:39:11.000Z</time>
      </trkpt>
      <trkpt lat="45.1625" lon="5.92232">
        <ele>2264.4</ele>
        <time>2019-01-20T09:39:13.000Z</time>
      </trkpt>
      <trkpt lat="45.16252" lon="5.92234">
        <ele>2265</ele>
        <time>2019-01-20T09:39:14.000Z</time>
      </trkpt>
      <trkpt lat="45.16252" lon="5.92234">
        <ele>2265</ele>
        <time>2019-01-20T09:39:15.000Z</time>
      </trkpt>
      <trkpt lat="45.16254" lon="5.92236">
        <ele>2265</ele>
        <time>2019-01-20T09:39:16.000Z</time>
      </trkpt>
      <trkpt lat="45.16254" lon="5.92236">
        <ele>2265</ele>
        <time>2019-01-20T09:39:17.000Z</time>
      </trkpt>
      <trkpt lat="45.16254" lon="5.92236">
        <ele>2265</ele>
        <time>2019-01-20T09:39:18.000Z</time>
      </trkpt>
      <trkpt lat="45.16256" lon="5.92239">
        <ele>2265</ele>
        <time>2019-01-20T09:39:19.000Z</time>
      </trkpt>
      <trkpt lat="45.16256" lon="5.92239">
        <ele>2265.6</ele>
        <time>2019-01-20T09:39:21.000Z</time>
      </trkpt>
      <trkpt lat="45.16258" lon="5.92241">
        <ele>2266</ele>
        <time>2019-01-20T09:39:22.000Z</time>
      </trkpt>
      <trkpt lat="45.16258" lon="5.92241">
        <ele>2266</ele>
        <time>2019-01-20T09:39:23.000Z</time>
      </trkpt>
      <trkpt lat="45.16258" lon="5.92241">
        <ele>2266</ele>
        <time>2019-01-20T09:39:24.000Z</time>
      </trkpt>
      <trkpt lat="45.1626" lon="5.92243">
        <ele>2266</ele>
        <time>2019-01-20T09:39:25.000Z</time>
      </trkpt>
      <trkpt lat="45.1626" lon="5.92243">
        <ele>2267</ele>
        <time>2019-01-20T09:39:26.000Z</time>
      </trkpt>
      <trkpt lat="45.1626" lon="5.92243">
        <ele>2267</ele>
        <time>2019-01-20T09:39:27.000Z</time>
      </trkpt>
      <trkpt lat="45.16262" lon="5.92246">
        <ele>2267</ele>
        <time>2019-01-20T09:39:28.000Z</time>
      </trkpt>
      <trkpt lat="45.16262" lon="5.92246">
        <ele>2267</ele>
        <time>2019-01-20T09:39:29.000Z</time>
      </trkpt>
      <trkpt lat="45.16262" lon="5.92246">
        <ele>2268</ele>
        <time>2019-01-20T09:39:30.000Z</time>
      </trkpt>
      <trkpt lat="45.16264" lon="5.92248">
        <ele>2268</ele>
        <time>2019-01-20T09:39:31.000Z</time>
      </trkpt>
      <trkpt lat="45.16264" lon="5.92248">
        <ele>2268</ele>
        <time>2019-01-20T09:39:32.000Z</time>
      </trkpt>
      <trkpt lat="45.16264" lon="5.92248">
        <ele>2268</ele>
        <time>2019-01-20T09:39:33.000Z</time>
      </trkpt>
      <trkpt lat="45.16264" lon="5.92248">
        <ele>2268</ele>
        <time>2019-01-20T09:39:34.000Z</time>
      </trkpt>
      <trkpt lat="45.16264" lon="5.92248">
        <ele>2269</ele>
        <time>2019-01-20T09:39:35.000Z</time>
      </trkpt>
      <trkpt lat="45.16266" lon="5.9225">
        <ele>2269</ele>
        <time>2019-01-20T09:39:36.000Z</time>
      </trkpt>
      <trkpt lat="45.16266" lon="5.9225">
        <ele>2269</ele>
        <time>2019-01-20T09:39:37.000Z</time>
      </trkpt>
      <trkpt lat="45.16266" lon="5.9225">
        <ele>2269</ele>
        <time>2019-01-20T09:39:38.000Z</time>
      </trkpt>
      <trkpt lat="45.16267" lon="5.92252">
        <ele>2269</ele>
        <time>2019-01-20T09:39:39.000Z</time>
      </trkpt>
      <trkpt lat="45.16267" lon="5.92252">
        <ele>2270</ele>
        <time>2019-01-20T09:39:40.000Z</time>
      </trkpt>
      <trkpt lat="45.16269" lon="5.92254">
        <ele>2270</ele>
        <time>2019-01-20T09:39:41.000Z</time>
      </trkpt>
      <trkpt lat="45.16269" lon="5.92254">
        <ele>2270</ele>
        <time>2019-01-20T09:39:42.000Z</time>
      </trkpt>
      <trkpt lat="45.16269" lon="5.92254">
        <ele>2270</ele>
        <time>2019-01-20T09:39:43.000Z</time>
      </trkpt>
      <trkpt lat="45.16271" lon="5.92257">
        <ele>2270</ele>
        <time>2019-01-20T09:39:44.000Z</time>
      </trkpt>
      <trkpt lat="45.16271" lon="5.92257">
        <ele>2270</ele>
        <time>2019-01-20T09:39:45.000Z</time>
      </trkpt>
      <trkpt lat="45.16272" lon="5.92259">
        <ele>2270</ele>
        <time>2019-01-20T09:39:46.000Z</time>
      </trkpt>
      <trkpt lat="45.16272" lon="5.92259">
        <ele>2271</ele>
        <time>2019-01-20T09:39:47.000Z</time>
      </trkpt>
      <trkpt lat="45.16272" lon="5.92259">
        <ele>2271</ele>
        <time>2019-01-20T09:39:48.000Z</time>
      </trkpt>
      <trkpt lat="45.16273" lon="5.92261">
        <ele>2271</ele>
        <time>2019-01-20T09:39:49.000Z</time>
      </trkpt>
      <trkpt lat="45.16273" lon="5.92261">
        <ele>2271</ele>
        <time>2019-01-20T09:39:50.000Z</time>
      </trkpt>
      <trkpt lat="45.16273" lon="5.92261">
        <ele>2271</ele>
        <time>2019-01-20T09:39:51.000Z</time>
      </trkpt>
      <trkpt lat="45.1627" lon="5.92262">
        <ele>2272</ele>
        <time>2019-01-20T09:39:52.000Z</time>
      </trkpt>
      <trkpt lat="45.1627" lon="5.92262">
        <ele>2272</ele>
        <time>2019-01-20T09:39:53.000Z</time>
      </trkpt>
      <trkpt lat="45.16268" lon="5.92262">
        <ele>2272</ele>
        <time>2019-01-20T09:39:54.000Z</time>
      </trkpt>
      <trkpt lat="45.16268" lon="5.92262">
        <ele>2272</ele>
        <time>2019-01-20T09:39:55.000Z</time>
      </trkpt>
      <trkpt lat="45.16268" lon="5.92262">
        <ele>2272</ele>
        <time>2019-01-20T09:39:56.000Z</time>
      </trkpt>
      <trkpt lat="45.16265" lon="5.92262">
        <ele>2273</ele>
        <time>2019-01-20T09:39:57.000Z</time>
      </trkpt>
      <trkpt lat="45.16264" lon="5.92262">
        <ele>2273</ele>
        <time>2019-01-20T09:39:59.000Z</time>
      </trkpt>
      <trkpt lat="45.16264" lon="5.92262">
        <ele>2273</ele>
        <time>2019-01-20T09:40:00.000Z</time>
      </trkpt>
      <trkpt lat="45.16262" lon="5.92262">
        <ele>2273</ele>
        <time>2019-01-20T09:40:01.000Z</time>
      </trkpt>
      <trkpt lat="45.16262" lon="5.92262">
        <ele>2274</ele>
        <time>2019-01-20T09:40:02.000Z</time>
      </trkpt>
      <trkpt lat="45.16259" lon="5.92263">
        <ele>2274</ele>
        <time>2019-01-20T09:40:03.000Z</time>
      </trkpt>
      <trkpt lat="45.16259" lon="5.92263">
        <ele>2274</ele>
        <time>2019-01-20T09:40:04.000Z</time>
      </trkpt>
      <trkpt lat="45.16257" lon="5.92263">
        <ele>2274</ele>
        <time>2019-01-20T09:40:05.000Z</time>
      </trkpt>
      <trkpt lat="45.16257" lon="5.92263">
        <ele>2274</ele>
        <time>2019-01-20T09:40:06.000Z</time>
      </trkpt>
      <trkpt lat="45.16255" lon="5.92263">
        <ele>2273</ele>
        <time>2019-01-20T09:40:07.000Z</time>
      </trkpt>
      <trkpt lat="45.16255" lon="5.92263">
        <ele>2273</ele>
        <time>2019-01-20T09:40:08.000Z</time>
      </trkpt>
      <trkpt lat="45.16252" lon="5.92264">
        <ele>2273</ele>
        <time>2019-01-20T09:40:09.000Z</time>
      </trkpt>
      <trkpt lat="45.16252" lon="5.92264">
        <ele>2275</ele>
        <time>2019-01-20T09:40:10.000Z</time>
      </trkpt>
      <trkpt lat="45.1625" lon="5.92264">
        <ele>2274</ele>
        <time>2019-01-20T09:40:11.000Z</time>
      </trkpt>
      <trkpt lat="45.1625" lon="5.92264">
        <ele>2274</ele>
        <time>2019-01-20T09:40:12.000Z</time>
      </trkpt>
      <trkpt lat="45.16248" lon="5.92264">
        <ele>2276</ele>
        <time>2019-01-20T09:40:13.000Z</time>
      </trkpt>
      <trkpt lat="45.16248" lon="5.92264">
        <ele>2276</ele>
        <time>2019-01-20T09:40:14.000Z</time>
      </trkpt>
      <trkpt lat="45.16248" lon="5.92264">
        <ele>2275</ele>
        <time>2019-01-20T09:40:15.000Z</time>
      </trkpt>
      <trkpt lat="45.16246" lon="5.92265">
        <ele>2277</ele>
        <time>2019-01-20T09:40:16.000Z</time>
      </trkpt>
      <trkpt lat="45.16244" lon="5.92266">
        <ele>2276</ele>
        <time>2019-01-20T09:40:18.000Z</time>
      </trkpt>
      <trkpt lat="45.16244" lon="5.92266">
        <ele>2276</ele>
        <time>2019-01-20T09:40:19.000Z</time>
      </trkpt>
      <trkpt lat="45.16242" lon="5.92268">
        <ele>2276</ele>
        <time>2019-01-20T09:40:20.000Z</time>
      </trkpt>
      <trkpt lat="45.16242" lon="5.92268">
        <ele>2276</ele>
        <time>2019-01-20T09:40:21.000Z</time>
      </trkpt>
      <trkpt lat="45.1624" lon="5.92269">
        <ele>2276</ele>
        <time>2019-01-20T09:40:22.000Z</time>
      </trkpt>
      <trkpt lat="45.1624" lon="5.92269">
        <ele>2276</ele>
        <time>2019-01-20T09:40:23.000Z</time>
      </trkpt>
      <trkpt lat="45.16238" lon="5.9227">
        <ele>2276</ele>
        <time>2019-01-20T09:40:24.000Z</time>
      </trkpt>
      <trkpt lat="45.16238" lon="5.9227">
        <ele>2277</ele>
        <time>2019-01-20T09:40:25.000Z</time>
      </trkpt>
      <trkpt lat="45.16236" lon="5.92272">
        <ele>2277</ele>
        <time>2019-01-20T09:40:26.000Z</time>
      </trkpt>
      <trkpt lat="45.16236" lon="5.92272">
        <ele>2277</ele>
        <time>2019-01-20T09:40:27.000Z</time>
      </trkpt>
      <trkpt lat="45.16234" lon="5.92273">
        <ele>2278</ele>
        <time>2019-01-20T09:40:28.000Z</time>
      </trkpt>
      <trkpt lat="45.16234" lon="5.92273">
        <ele>2278</ele>
        <time>2019-01-20T09:40:29.000Z</time>
      </trkpt>
      <trkpt lat="45.16233" lon="5.92274">
        <ele>2278</ele>
        <time>2019-01-20T09:40:30.000Z</time>
      </trkpt>
      <trkpt lat="45.16233" lon="5.92274">
        <ele>2279</ele>
        <time>2019-01-20T09:40:31.000Z</time>
      </trkpt>
      <trkpt lat="45.16233" lon="5.92274">
        <ele>2280</ele>
        <time>2019-01-20T09:40:32.000Z</time>
      </trkpt>
      <trkpt lat="45.16231" lon="5.92276">
        <ele>2280</ele>
        <time>2019-01-20T09:40:33.000Z</time>
      </trkpt>
      <trkpt lat="45.16231" lon="5.92276">
        <ele>2280</ele>
        <time>2019-01-20T09:40:34.000Z</time>
      </trkpt>
      <trkpt lat="45.16231" lon="5.92276">
        <ele>2281</ele>
        <time>2019-01-20T09:40:35.000Z</time>
      </trkpt>
      <trkpt lat="45.16229" lon="5.92278">
        <ele>2281</ele>
        <time>2019-01-20T09:40:36.000Z</time>
      </trkpt>
      <trkpt lat="45.16229" lon="5.92278">
        <ele>2281</ele>
        <time>2019-01-20T09:40:37.000Z</time>
      </trkpt>
      <trkpt lat="45.16229" lon="5.92278">
        <ele>2281</ele>
        <time>2019-01-20T09:40:38.000Z</time>
      </trkpt>
      <trkpt lat="45.16229" lon="5.92278">
        <ele>2281</ele>
        <time>2019-01-20T09:40:39.000Z</time>
      </trkpt>
      <trkpt lat="45.16228" lon="5.92281">
        <ele>2281</ele>
        <time>2019-01-20T09:40:40.000Z</time>
      </trkpt>
      <trkpt lat="45.16228" lon="5.92281">
        <ele>2281</ele>
        <time>2019-01-20T09:40:41.000Z</time>
      </trkpt>
      <trkpt lat="45.16228" lon="5.92281">
        <ele>2281</ele>
        <time>2019-01-20T09:40:42.000Z</time>
      </trkpt>
      <trkpt lat="45.16228" lon="5.92281">
        <ele>2281</ele>
        <time>2019-01-20T09:40:43.000Z</time>
      </trkpt>
      <trkpt lat="45.16229" lon="5.92283">
        <ele>2281</ele>
        <time>2019-01-20T09:40:44.000Z</time>
      </trkpt>
      <trkpt lat="45.16229" lon="5.92283">
        <ele>2282</ele>
        <time>2019-01-20T09:40:45.000Z</time>
      </trkpt>
      <trkpt lat="45.16229" lon="5.92283">
        <ele>2282</ele>
        <time>2019-01-20T09:40:46.000Z</time>
      </trkpt>
      <trkpt lat="45.1623" lon="5.92286">
        <ele>2282</ele>
        <time>2019-01-20T09:40:47.000Z</time>
      </trkpt>
      <trkpt lat="45.1623" lon="5.92286">
        <ele>2283</ele>
        <time>2019-01-20T09:40:48.000Z</time>
      </trkpt>
      <trkpt lat="45.1623" lon="5.92286">
        <ele>2283</ele>
        <time>2019-01-20T09:40:49.000Z</time>
      </trkpt>
      <trkpt lat="45.16232" lon="5.92288">
        <ele>2283</ele>
        <time>2019-01-20T09:40:50.000Z</time>
      </trkpt>
      <trkpt lat="45.16232" lon="5.92288">
        <ele>2284</ele>
        <time>2019-01-20T09:40:51.000Z</time>
      </trkpt>
      <trkpt lat="45.16232" lon="5.92288">
        <ele>2284</ele>
        <time>2019-01-20T09:40:52.000Z</time>
      </trkpt>
      <trkpt lat="45.16234" lon="5.92291">
        <ele>2284</ele>
        <time>2019-01-20T09:40:53.000Z</time>
      </trkpt>
      <trkpt lat="45.16234" lon="5.92291">
        <ele>2284</ele>
        <time>2019-01-20T09:40:54.000Z</time>
      </trkpt>
      <trkpt lat="45.16236" lon="5.92293">
        <ele>2284.4</ele>
        <time>2019-01-20T09:40:56.000Z</time>
      </trkpt>
      <trkpt lat="45.16236" lon="5.92293">
        <ele>2285</ele>
        <time>2019-01-20T09:40:57.000Z</time>
      </trkpt>
      <trkpt lat="45.16236" lon="5.92293">
        <ele>2285</ele>
        <time>2019-01-20T09:40:58.000Z</time>
      </trkpt>
      <trkpt lat="45.16237" lon="5.92295">
        <ele>2285</ele>
        <time>2019-01-20T09:40:59.000Z</time>
      </trkpt>
      <trkpt lat="45.16237" lon="5.92295">
        <ele>2286</ele>
        <time>2019-01-20T09:41:00.000Z</time>
      </trkpt>
      <trkpt lat="45.16239" lon="5.92297">
        <ele>2286</ele>
        <time>2019-01-20T09:41:01.000Z</time>
      </trkpt>
      <trkpt lat="45.16239" lon="5.92297">
        <ele>2286</ele>
        <time>2019-01-20T09:41:02.000Z</time>
      </trkpt>
      <trkpt lat="45.1624" lon="5.92299">
        <ele>2286</ele>
        <time>2019-01-20T09:41:03.000Z</time>
      </trkpt>
      <trkpt lat="45.1624" lon="5.92299">
        <ele>2286</ele>
        <time>2019-01-20T09:41:04.000Z</time>
      </trkpt>
      <trkpt lat="45.16242" lon="5.92301">
        <ele>2287</ele>
        <time>2019-01-20T09:41:05.000Z</time>
      </trkpt>
      <trkpt lat="45.16242" lon="5.92301">
        <ele>2287</ele>
        <time>2019-01-20T09:41:06.000Z</time>
      </trkpt>
      <trkpt lat="45.16243" lon="5.92303">
        <ele>2287</ele>
        <time>2019-01-20T09:41:07.000Z</time>
      </trkpt>
      <trkpt lat="45.16243" lon="5.92303">
        <ele>2287.6</ele>
        <time>2019-01-20T09:41:08.000Z</time>
      </trkpt>
      <trkpt lat="45.16244" lon="5.92305">
        <ele>2288</ele>
        <time>2019-01-20T09:41:09.000Z</time>
      </trkpt>
      <trkpt lat="45.16244" lon="5.92305">
        <ele>2288</ele>
        <time>2019-01-20T09:41:10.000Z</time>
      </trkpt>
      <trkpt lat="45.16246" lon="5.92307">
        <ele>2288</ele>
        <time>2019-01-20T09:41:11.000Z</time>
      </trkpt>
      <trkpt lat="45.16246" lon="5.92307">
        <ele>2289</ele>
        <time>2019-01-20T09:41:12.000Z</time>
      </trkpt>
      <trkpt lat="45.16246" lon="5.92307">
        <ele>2289</ele>
        <time>2019-01-20T09:41:13.000Z</time>
      </trkpt>
      <trkpt lat="45.16247" lon="5.92309">
        <ele>2289</ele>
        <time>2019-01-20T09:41:14.000Z</time>
      </trkpt>
      <trkpt lat="45.16247" lon="5.92309">
        <ele>2289</ele>
        <time>2019-01-20T09:41:15.000Z</time>
      </trkpt>
      <trkpt lat="45.16247" lon="5.92309">
        <ele>2289</ele>
        <time>2019-01-20T09:41:16.000Z</time>
      </trkpt>
      <trkpt lat="45.16249" lon="5.92312">
        <ele>2290</ele>
        <time>2019-01-20T09:41:17.000Z</time>
      </trkpt>
      <trkpt lat="45.16249" lon="5.92312">
        <ele>2291</ele>
        <time>2019-01-20T09:41:18.000Z</time>
      </trkpt>
      <trkpt lat="45.1625" lon="5.92314">
        <ele>2291</ele>
        <time>2019-01-20T09:41:19.000Z</time>
      </trkpt>
      <trkpt lat="45.1625" lon="5.92314">
        <ele>2291</ele>
        <time>2019-01-20T09:41:20.000Z</time>
      </trkpt>
      <trkpt lat="45.1625" lon="5.92314">
        <ele>2291</ele>
        <time>2019-01-20T09:41:21.000Z</time>
      </trkpt>
      <trkpt lat="45.16252" lon="5.92317">
        <ele>2291</ele>
        <time>2019-01-20T09:41:22.000Z</time>
      </trkpt>
      <trkpt lat="45.16252" lon="5.92317">
        <ele>2291</ele>
        <time>2019-01-20T09:41:23.000Z</time>
      </trkpt>
      <trkpt lat="45.16252" lon="5.92317">
        <ele>2291</ele>
        <time>2019-01-20T09:41:24.000Z</time>
      </trkpt>
      <trkpt lat="45.16253" lon="5.92319">
        <ele>2292</ele>
        <time>2019-01-20T09:41:25.000Z</time>
      </trkpt>
      <trkpt lat="45.16253" lon="5.92319">
        <ele>2292</ele>
        <time>2019-01-20T09:41:26.000Z</time>
      </trkpt>
      <trkpt lat="45.16253" lon="5.92319">
        <ele>2292</ele>
        <time>2019-01-20T09:41:27.000Z</time>
      </trkpt>
      <trkpt lat="45.16255" lon="5.92322">
        <ele>2293</ele>
        <time>2019-01-20T09:41:28.000Z</time>
      </trkpt>
      <trkpt lat="45.16255" lon="5.92322">
        <ele>2293</ele>
        <time>2019-01-20T09:41:29.000Z</time>
      </trkpt>
      <trkpt lat="45.16257" lon="5.92324">
        <ele>2293</ele>
        <time>2019-01-20T09:41:30.000Z</time>
      </trkpt>
      <trkpt lat="45.16257" lon="5.92324">
        <ele>2293</ele>
        <time>2019-01-20T09:41:31.000Z</time>
      </trkpt>
      <trkpt lat="45.16257" lon="5.92324">
        <ele>2294</ele>
        <time>2019-01-20T09:41:32.000Z</time>
      </trkpt>
      <trkpt lat="45.16259" lon="5.92326">
        <ele>2294</ele>
        <time>2019-01-20T09:41:33.000Z</time>
      </trkpt>
      <trkpt lat="45.16259" lon="5.92326">
        <ele>2294</ele>
        <time>2019-01-20T09:41:34.000Z</time>
      </trkpt>
      <trkpt lat="45.16259" lon="5.92326">
        <ele>2294</ele>
        <time>2019-01-20T09:41:35.000Z</time>
      </trkpt>
      <trkpt lat="45.16261" lon="5.92329">
        <ele>2294</ele>
        <time>2019-01-20T09:41:36.000Z</time>
      </trkpt>
      <trkpt lat="45.16261" lon="5.92329">
        <ele>2295</ele>
        <time>2019-01-20T09:41:37.000Z</time>
      </trkpt>
      <trkpt lat="45.16261" lon="5.92329">
        <ele>2295</ele>
        <time>2019-01-20T09:41:38.000Z</time>
      </trkpt>
      <trkpt lat="45.16262" lon="5.92331">
        <ele>2295</ele>
        <time>2019-01-20T09:41:39.000Z</time>
      </trkpt>
      <trkpt lat="45.16262" lon="5.92331">
        <ele>2296</ele>
        <time>2019-01-20T09:41:40.000Z</time>
      </trkpt>
      <trkpt lat="45.16263" lon="5.92333">
        <ele>2296</ele>
        <time>2019-01-20T09:41:41.000Z</time>
      </trkpt>
      <trkpt lat="45.16263" lon="5.92333">
        <ele>2296</ele>
        <time>2019-01-20T09:41:42.000Z</time>
      </trkpt>
      <trkpt lat="45.16263" lon="5.92333">
        <ele>2296</ele>
        <time>2019-01-20T09:41:43.000Z</time>
      </trkpt>
      <trkpt lat="45.16265" lon="5.92335">
        <ele>2296</ele>
        <time>2019-01-20T09:41:44.000Z</time>
      </trkpt>
      <trkpt lat="45.16265" lon="5.92335">
        <ele>2297</ele>
        <time>2019-01-20T09:41:45.000Z</time>
      </trkpt>
      <trkpt lat="45.16265" lon="5.92335">
        <ele>2297</ele>
        <time>2019-01-20T09:41:46.000Z</time>
      </trkpt>
      <trkpt lat="45.16267" lon="5.92337">
        <ele>2297</ele>
        <time>2019-01-20T09:41:47.000Z</time>
      </trkpt>
      <trkpt lat="45.16267" lon="5.92337">
        <ele>2297</ele>
        <time>2019-01-20T09:41:48.000Z</time>
      </trkpt>
      <trkpt lat="45.16268" lon="5.92339">
        <ele>2297</ele>
        <time>2019-01-20T09:41:49.000Z</time>
      </trkpt>
      <trkpt lat="45.16268" lon="5.92339">
        <ele>2298</ele>
        <time>2019-01-20T09:41:50.000Z</time>
      </trkpt>
      <trkpt lat="45.16268" lon="5.92339">
        <ele>2298</ele>
        <time>2019-01-20T09:41:51.000Z</time>
      </trkpt>
      <trkpt lat="45.1627" lon="5.92342">
        <ele>2298</ele>
        <time>2019-01-20T09:41:52.000Z</time>
      </trkpt>
      <trkpt lat="45.1627" lon="5.92342">
        <ele>2298</ele>
        <time>2019-01-20T09:41:53.000Z</time>
      </trkpt>
      <trkpt lat="45.1627" lon="5.92342">
        <ele>2298</ele>
        <time>2019-01-20T09:41:54.000Z</time>
      </trkpt>
      <trkpt lat="45.16271" lon="5.92344">
        <ele>2298</ele>
        <time>2019-01-20T09:41:55.000Z</time>
      </trkpt>
      <trkpt lat="45.16271" lon="5.92344">
        <ele>2299</ele>
        <time>2019-01-20T09:41:56.000Z</time>
      </trkpt>
      <trkpt lat="45.16273" lon="5.92347">
        <ele>2299</ele>
        <time>2019-01-20T09:41:57.000Z</time>
      </trkpt>
      <trkpt lat="45.16273" lon="5.92347">
        <ele>2299</ele>
        <time>2019-01-20T09:41:58.000Z</time>
      </trkpt>
      <trkpt lat="45.16273" lon="5.92347">
        <ele>2300</ele>
        <time>2019-01-20T09:41:59.000Z</time>
      </trkpt>
      <trkpt lat="45.16274" lon="5.92349">
        <ele>2300</ele>
        <time>2019-01-20T09:42:00.000Z</time>
      </trkpt>
      <trkpt lat="45.16274" lon="5.92349">
        <ele>2300</ele>
        <time>2019-01-20T09:42:01.000Z</time>
      </trkpt>
      <trkpt lat="45.16274" lon="5.92349">
        <ele>2300</ele>
        <time>2019-01-20T09:42:02.000Z</time>
      </trkpt>
      <trkpt lat="45.16276" lon="5.92352">
        <ele>2301</ele>
        <time>2019-01-20T09:42:03.000Z</time>
      </trkpt>
      <trkpt lat="45.16276" lon="5.92352">
        <ele>2301</ele>
        <time>2019-01-20T09:42:04.000Z</time>
      </trkpt>
      <trkpt lat="45.16276" lon="5.92352">
        <ele>2301.6</ele>
        <time>2019-01-20T09:42:06.000Z</time>
      </trkpt>
      <trkpt lat="45.16274" lon="5.92354">
        <ele>2302</ele>
        <time>2019-01-20T09:42:07.000Z</time>
      </trkpt>
      <trkpt lat="45.16274" lon="5.92354">
        <ele>2302</ele>
        <time>2019-01-20T09:42:08.000Z</time>
      </trkpt>
      <trkpt lat="45.16274" lon="5.92354">
        <ele>2303</ele>
        <time>2019-01-20T09:42:09.000Z</time>
      </trkpt>
      <trkpt lat="45.16271" lon="5.92355">
        <ele>2303</ele>
        <time>2019-01-20T09:42:10.000Z</time>
      </trkpt>
      <trkpt lat="45.16271" lon="5.92355">
        <ele>2303</ele>
        <time>2019-01-20T09:42:12.000Z</time>
      </trkpt>
      <trkpt lat="45.16269" lon="5.92356">
        <ele>2303</ele>
        <time>2019-01-20T09:42:13.000Z</time>
      </trkpt>
      <trkpt lat="45.16269" lon="5.92356">
        <ele>2303</ele>
        <time>2019-01-20T09:42:14.000Z</time>
      </trkpt>
      <trkpt lat="45.16269" lon="5.92356">
        <ele>2303</ele>
        <time>2019-01-20T09:42:15.000Z</time>
      </trkpt>
      <trkpt lat="45.16267" lon="5.92356">
        <ele>2303</ele>
        <time>2019-01-20T09:42:16.000Z</time>
      </trkpt>
      <trkpt lat="45.16267" lon="5.92356">
        <ele>2303</ele>
        <time>2019-01-20T09:42:17.000Z</time>
      </trkpt>
      <trkpt lat="45.16267" lon="5.92356">
        <ele>2304</ele>
        <time>2019-01-20T09:42:18.000Z</time>
      </trkpt>
      <trkpt lat="45.16264" lon="5.92356">
        <ele>2304</ele>
        <time>2019-01-20T09:42:19.000Z</time>
      </trkpt>
      <trkpt lat="45.16264" lon="5.92356">
        <ele>2304</ele>
        <time>2019-01-20T09:42:20.000Z</time>
      </trkpt>
      <trkpt lat="45.16264" lon="5.92356">
        <ele>2304</ele>
        <time>2019-01-20T09:42:21.000Z</time>
      </trkpt>
      <trkpt lat="45.16262" lon="5.92357">
        <ele>2305</ele>
        <time>2019-01-20T09:42:22.000Z</time>
      </trkpt>
      <trkpt lat="45.16262" lon="5.92357">
        <ele>2306</ele>
        <time>2019-01-20T09:42:23.000Z</time>
      </trkpt>
      <trkpt lat="45.16262" lon="5.92357">
        <ele>2306</ele>
        <time>2019-01-20T09:42:24.000Z</time>
      </trkpt>
      <trkpt lat="45.16262" lon="5.92357">
        <ele>2306</ele>
        <time>2019-01-20T09:42:25.000Z</time>
      </trkpt>
      <trkpt lat="45.16262" lon="5.92357">
        <ele>2306</ele>
        <time>2019-01-20T09:42:26.000Z</time>
      </trkpt>
      <trkpt lat="45.16261" lon="5.9236">
        <ele>2306</ele>
        <time>2019-01-20T09:42:27.000Z</time>
      </trkpt>
      <trkpt lat="45.16261" lon="5.9236">
        <ele>2306</ele>
        <time>2019-01-20T09:42:28.000Z</time>
      </trkpt>
      <trkpt lat="45.16261" lon="5.9236">
        <ele>2306</ele>
        <time>2019-01-20T09:42:29.000Z</time>
      </trkpt>
      <trkpt lat="45.16262" lon="5.92362">
        <ele>2306</ele>
        <time>2019-01-20T09:42:30.000Z</time>
      </trkpt>
      <trkpt lat="45.16262" lon="5.92362">
        <ele>2306</ele>
        <time>2019-01-20T09:42:31.000Z</time>
      </trkpt>
      <trkpt lat="45.16262" lon="5.92362">
        <ele>2306</ele>
        <time>2019-01-20T09:42:32.000Z</time>
      </trkpt>
      <trkpt lat="45.16263" lon="5.92365">
        <ele>2307</ele>
        <time>2019-01-20T09:42:33.000Z</time>
      </trkpt>
      <trkpt lat="45.16263" lon="5.92365">
        <ele>2307</ele>
        <time>2019-01-20T09:42:34.000Z</time>
      </trkpt>
      <trkpt lat="45.16263" lon="5.92365">
        <ele>2307</ele>
        <time>2019-01-20T09:42:35.000Z</time>
      </trkpt>
      <trkpt lat="45.16264" lon="5.92367">
        <ele>2307</ele>
        <time>2019-01-20T09:42:36.000Z</time>
      </trkpt>
      <trkpt lat="45.16264" lon="5.92367">
        <ele>2308</ele>
        <time>2019-01-20T09:42:37.000Z</time>
      </trkpt>
      <trkpt lat="45.16264" lon="5.92367">
        <ele>2308</ele>
        <time>2019-01-20T09:42:38.000Z</time>
      </trkpt>
      <trkpt lat="45.16266" lon="5.9237">
        <ele>2308</ele>
        <time>2019-01-20T09:42:39.000Z</time>
      </trkpt>
      <trkpt lat="45.16266" lon="5.9237">
        <ele>2308</ele>
        <time>2019-01-20T09:42:40.000Z</time>
      </trkpt>
      <trkpt lat="45.16266" lon="5.9237">
        <ele>2307</ele>
        <time>2019-01-20T09:42:41.000Z</time>
      </trkpt>
      <trkpt lat="45.16268" lon="5.92373">
        <ele>2309</ele>
        <time>2019-01-20T09:42:42.000Z</time>
      </trkpt>
      <trkpt lat="45.16268" lon="5.92373">
        <ele>2310</ele>
        <time>2019-01-20T09:42:43.000Z</time>
      </trkpt>
      <trkpt lat="45.16268" lon="5.92373">
        <ele>2310</ele>
        <time>2019-01-20T09:42:44.000Z</time>
      </trkpt>
      <trkpt lat="45.16269" lon="5.92376">
        <ele>2309</ele>
        <time>2019-01-20T09:42:45.000Z</time>
      </trkpt>
      <trkpt lat="45.16269" lon="5.92376">
        <ele>2309</ele>
        <time>2019-01-20T09:42:46.000Z</time>
      </trkpt>
      <trkpt lat="45.16269" lon="5.92376">
        <ele>2310</ele>
        <time>2019-01-20T09:42:47.000Z</time>
      </trkpt>
      <trkpt lat="45.16269" lon="5.92379">
        <ele>2310</ele>
        <time>2019-01-20T09:42:48.000Z</time>
      </trkpt>
      <trkpt lat="45.16269" lon="5.92379">
        <ele>2311</ele>
        <time>2019-01-20T09:42:50.000Z</time>
      </trkpt>
      <trkpt lat="45.16269" lon="5.92379">
        <ele>2311</ele>
        <time>2019-01-20T09:42:51.000Z</time>
      </trkpt>
      <trkpt lat="45.16267" lon="5.9238">
        <ele>2311</ele>
        <time>2019-01-20T09:42:52.000Z</time>
      </trkpt>
      <trkpt lat="45.16267" lon="5.9238">
        <ele>2311</ele>
        <time>2019-01-20T09:42:53.000Z</time>
      </trkpt>
      <trkpt lat="45.16267" lon="5.9238">
        <ele>2311</ele>
        <time>2019-01-20T09:42:54.000Z</time>
      </trkpt>
      <trkpt lat="45.16265" lon="5.9238">
        <ele>2312</ele>
        <time>2019-01-20T09:42:55.000Z</time>
      </trkpt>
      <trkpt lat="45.16265" lon="5.9238">
        <ele>2312</ele>
        <time>2019-01-20T09:42:56.000Z</time>
      </trkpt>
      <trkpt lat="45.16265" lon="5.9238">
        <ele>2312</ele>
        <time>2019-01-20T09:42:57.000Z</time>
      </trkpt>
      <trkpt lat="45.16263" lon="5.92381">
        <ele>2313</ele>
        <time>2019-01-20T09:42:58.000Z</time>
      </trkpt>
      <trkpt lat="45.16263" lon="5.92381">
        <ele>2313</ele>
        <time>2019-01-20T09:42:59.000Z</time>
      </trkpt>
      <trkpt lat="45.16261" lon="5.92381">
        <ele>2313</ele>
        <time>2019-01-20T09:43:00.000Z</time>
      </trkpt>
      <trkpt lat="45.16261" lon="5.92381">
        <ele>2313</ele>
        <time>2019-01-20T09:43:01.000Z</time>
      </trkpt>
      <trkpt lat="45.16261" lon="5.92381">
        <ele>2313</ele>
        <time>2019-01-20T09:43:02.000Z</time>
      </trkpt>
      <trkpt lat="45.16258" lon="5.92382">
        <ele>2313</ele>
        <time>2019-01-20T09:43:03.000Z</time>
      </trkpt>
      <trkpt lat="45.16258" lon="5.92382">
        <ele>2313</ele>
        <time>2019-01-20T09:43:04.000Z</time>
      </trkpt>
      <trkpt lat="45.16256" lon="5.92382">
        <ele>2314</ele>
        <time>2019-01-20T09:43:05.000Z</time>
      </trkpt>
      <trkpt lat="45.16256" lon="5.92382">
        <ele>2314</ele>
        <time>2019-01-20T09:43:06.000Z</time>
      </trkpt>
      <trkpt lat="45.16255" lon="5.92383">
        <ele>2314</ele>
        <time>2019-01-20T09:43:07.000Z</time>
      </trkpt>
      <trkpt lat="45.16255" lon="5.92383">
        <ele>2315</ele>
        <time>2019-01-20T09:43:09.000Z</time>
      </trkpt>
      <trkpt lat="45.16253" lon="5.92384">
        <ele>2315</ele>
        <time>2019-01-20T09:43:10.000Z</time>
      </trkpt>
      <trkpt lat="45.16253" lon="5.92384">
        <ele>2315</ele>
        <time>2019-01-20T09:43:11.000Z</time>
      </trkpt>
      <trkpt lat="45.16253" lon="5.92384">
        <ele>2315</ele>
        <time>2019-01-20T09:43:12.000Z</time>
      </trkpt>
      <trkpt lat="45.16253" lon="5.92384">
        <ele>2315</ele>
        <time>2019-01-20T09:43:13.000Z</time>
      </trkpt>
      <trkpt lat="45.16253" lon="5.92384">
        <ele>2315</ele>
        <time>2019-01-20T09:43:14.000Z</time>
      </trkpt>
      <trkpt lat="45.16253" lon="5.92384">
        <ele>2315</ele>
        <time>2019-01-20T09:43:15.000Z</time>
      </trkpt>
      <trkpt lat="45.16253" lon="5.92384">
        <ele>2315</ele>
        <time>2019-01-20T09:43:16.000Z</time>
      </trkpt>
      <trkpt lat="45.16251" lon="5.92386">
        <ele>2315</ele>
        <time>2019-01-20T09:43:17.000Z</time>
      </trkpt>
      <trkpt lat="45.16251" lon="5.92386">
        <ele>2315</ele>
        <time>2019-01-20T09:43:19.000Z</time>
      </trkpt>
      <trkpt lat="45.16249" lon="5.92387">
        <ele>2315</ele>
        <time>2019-01-20T09:43:20.000Z</time>
      </trkpt>
      <trkpt lat="45.16249" lon="5.92387">
        <ele>2317</ele>
        <time>2019-01-20T09:43:21.000Z</time>
      </trkpt>
      <trkpt lat="45.16249" lon="5.92387">
        <ele>2317</ele>
        <time>2019-01-20T09:43:22.000Z</time>
      </trkpt>
      <trkpt lat="45.16249" lon="5.92387">
        <ele>2317</ele>
        <time>2019-01-20T09:43:23.000Z</time>
      </trkpt>
      <trkpt lat="45.16249" lon="5.92387">
        <ele>2317</ele>
        <time>2019-01-20T09:43:24.000Z</time>
      </trkpt>
      <trkpt lat="45.16249" lon="5.92387">
        <ele>2317</ele>
        <time>2019-01-20T09:43:25.000Z</time>
      </trkpt>
      <trkpt lat="45.16249" lon="5.92387">
        <ele>2317</ele>
        <time>2019-01-20T09:43:26.000Z</time>
      </trkpt>
      <trkpt lat="45.1625" lon="5.92389">
        <ele>2317</ele>
        <time>2019-01-20T09:43:27.000Z</time>
      </trkpt>
      <trkpt lat="45.1625" lon="5.92389">
        <ele>2317</ele>
        <time>2019-01-20T09:43:28.000Z</time>
      </trkpt>
      <trkpt lat="45.1625" lon="5.92389">
        <ele>2317</ele>
        <time>2019-01-20T09:43:29.000Z</time>
      </trkpt>
      <trkpt lat="45.16251" lon="5.92392">
        <ele>2318</ele>
        <time>2019-01-20T09:43:30.000Z</time>
      </trkpt>
      <trkpt lat="45.16251" lon="5.92392">
        <ele>2318</ele>
        <time>2019-01-20T09:43:31.000Z</time>
      </trkpt>
      <trkpt lat="45.16251" lon="5.92392">
        <ele>2318</ele>
        <time>2019-01-20T09:43:32.000Z</time>
      </trkpt>
      <trkpt lat="45.16253" lon="5.92395">
        <ele>2318</ele>
        <time>2019-01-20T09:43:33.000Z</time>
      </trkpt>
      <trkpt lat="45.16253" lon="5.92395">
        <ele>2319</ele>
        <time>2019-01-20T09:43:34.000Z</time>
      </trkpt>
      <trkpt lat="45.16253" lon="5.92395">
        <ele>2319</ele>
        <time>2019-01-20T09:43:35.000Z</time>
      </trkpt>
      <trkpt lat="45.16254" lon="5.92398">
        <ele>2319</ele>
        <time>2019-01-20T09:43:36.000Z</time>
      </trkpt>
      <trkpt lat="45.16254" lon="5.92398">
        <ele>2320</ele>
        <time>2019-01-20T09:43:37.000Z</time>
      </trkpt>
      <trkpt lat="45.16254" lon="5.92398">
        <ele>2320</ele>
        <time>2019-01-20T09:43:38.000Z</time>
      </trkpt>
      <trkpt lat="45.16255" lon="5.924">
        <ele>2320</ele>
        <time>2019-01-20T09:43:39.000Z</time>
      </trkpt>
      <trkpt lat="45.16255" lon="5.924">
        <ele>2321</ele>
        <time>2019-01-20T09:43:40.000Z</time>
      </trkpt>
      <trkpt lat="45.16256" lon="5.92402">
        <ele>2321</ele>
        <time>2019-01-20T09:43:41.000Z</time>
      </trkpt>
      <trkpt lat="45.16256" lon="5.92402">
        <ele>2321</ele>
        <time>2019-01-20T09:43:42.000Z</time>
      </trkpt>
      <trkpt lat="45.16256" lon="5.92402">
        <ele>2321</ele>
        <time>2019-01-20T09:43:43.000Z</time>
      </trkpt>
      <trkpt lat="45.16258" lon="5.92405">
        <ele>2321</ele>
        <time>2019-01-20T09:43:44.000Z</time>
      </trkpt>
      <trkpt lat="45.16258" lon="5.92405">
        <ele>2321</ele>
        <time>2019-01-20T09:43:45.000Z</time>
      </trkpt>
      <trkpt lat="45.16259" lon="5.92407">
        <ele>2322</ele>
        <time>2019-01-20T09:43:47.000Z</time>
      </trkpt>
      <trkpt lat="45.16259" lon="5.92407">
        <ele>2322</ele>
        <time>2019-01-20T09:43:48.000Z</time>
      </trkpt>
      <trkpt lat="45.16259" lon="5.92407">
        <ele>2323</ele>
        <time>2019-01-20T09:43:49.000Z</time>
      </trkpt>
      <trkpt lat="45.1626" lon="5.9241">
        <ele>2323</ele>
        <time>2019-01-20T09:43:50.000Z</time>
      </trkpt>
      <trkpt lat="45.1626" lon="5.9241">
        <ele>2323</ele>
        <time>2019-01-20T09:43:51.000Z</time>
      </trkpt>
      <trkpt lat="45.1626" lon="5.9241">
        <ele>2323</ele>
        <time>2019-01-20T09:43:52.000Z</time>
      </trkpt>
      <trkpt lat="45.16262" lon="5.92413">
        <ele>2323</ele>
        <time>2019-01-20T09:43:53.000Z</time>
      </trkpt>
      <trkpt lat="45.16262" lon="5.92413">
        <ele>2324</ele>
        <time>2019-01-20T09:43:54.000Z</time>
      </trkpt>
      <trkpt lat="45.16262" lon="5.92413">
        <ele>2325</ele>
        <time>2019-01-20T09:43:55.000Z</time>
      </trkpt>
      <trkpt lat="45.16261" lon="5.92416">
        <ele>2325</ele>
        <time>2019-01-20T09:43:56.000Z</time>
      </trkpt>
      <trkpt lat="45.16261" lon="5.92416">
        <ele>2325</ele>
        <time>2019-01-20T09:43:57.000Z</time>
      </trkpt>
      <trkpt lat="45.16261" lon="5.92416">
        <ele>2325</ele>
        <time>2019-01-20T09:43:58.000Z</time>
      </trkpt>
      <trkpt lat="45.16259" lon="5.92417">
        <ele>2325</ele>
        <time>2019-01-20T09:43:59.000Z</time>
      </trkpt>
      <trkpt lat="45.16259" lon="5.92417">
        <ele>2326</ele>
        <time>2019-01-20T09:44:00.000Z</time>
      </trkpt>
      <trkpt lat="45.16259" lon="5.92417">
        <ele>2326</ele>
        <time>2019-01-20T09:44:01.000Z</time>
      </trkpt>
      <trkpt lat="45.16257" lon="5.92417">
        <ele>2326</ele>
        <time>2019-01-20T09:44:02.000Z</time>
      </trkpt>
      <trkpt lat="45.16257" lon="5.92417">
        <ele>2326</ele>
        <time>2019-01-20T09:44:03.000Z</time>
      </trkpt>
      <trkpt lat="45.16257" lon="5.92417">
        <ele>2326</ele>
        <time>2019-01-20T09:44:04.000Z</time>
      </trkpt>
      <trkpt lat="45.16254" lon="5.92418">
        <ele>2326</ele>
        <time>2019-01-20T09:44:05.000Z</time>
      </trkpt>
      <trkpt lat="45.16254" lon="5.92418">
        <ele>2327</ele>
        <time>2019-01-20T09:44:06.000Z</time>
      </trkpt>
      <trkpt lat="45.16254" lon="5.92418">
        <ele>2327</ele>
        <time>2019-01-20T09:44:07.000Z</time>
      </trkpt>
      <trkpt lat="45.16252" lon="5.92419">
        <ele>2327</ele>
        <time>2019-01-20T09:44:08.000Z</time>
      </trkpt>
      <trkpt lat="45.16252" lon="5.92419">
        <ele>2327</ele>
        <time>2019-01-20T09:44:10.000Z</time>
      </trkpt>
      <trkpt lat="45.1625" lon="5.92421">
        <ele>2327</ele>
        <time>2019-01-20T09:44:11.000Z</time>
      </trkpt>
      <trkpt lat="45.1625" lon="5.92421">
        <ele>2328</ele>
        <time>2019-01-20T09:44:12.000Z</time>
      </trkpt>
      <trkpt lat="45.1625" lon="5.92421">
        <ele>2328</ele>
        <time>2019-01-20T09:44:13.000Z</time>
      </trkpt>
      <trkpt lat="45.16248" lon="5.92422">
        <ele>2328</ele>
        <time>2019-01-20T09:44:14.000Z</time>
      </trkpt>
      <trkpt lat="45.16248" lon="5.92422">
        <ele>2329</ele>
        <time>2019-01-20T09:44:15.000Z</time>
      </trkpt>
      <trkpt lat="45.16248" lon="5.92422">
        <ele>2329</ele>
        <time>2019-01-20T09:44:16.000Z</time>
      </trkpt>
      <trkpt lat="45.16246" lon="5.92424">
        <ele>2329</ele>
        <time>2019-01-20T09:44:17.000Z</time>
      </trkpt>
      <trkpt lat="45.16246" lon="5.92424">
        <ele>2329</ele>
        <time>2019-01-20T09:44:18.000Z</time>
      </trkpt>
      <trkpt lat="45.16245" lon="5.92425">
        <ele>2330</ele>
        <time>2019-01-20T09:44:19.000Z</time>
      </trkpt>
      <trkpt lat="45.16245" lon="5.92425">
        <ele>2330</ele>
        <time>2019-01-20T09:44:20.000Z</time>
      </trkpt>
      <trkpt lat="45.16245" lon="5.92425">
        <ele>2330</ele>
        <time>2019-01-20T09:44:21.000Z</time>
      </trkpt>
      <trkpt lat="45.16243" lon="5.92428">
        <ele>2330</ele>
        <time>2019-01-20T09:44:22.000Z</time>
      </trkpt>
      <trkpt lat="45.16243" lon="5.92428">
        <ele>2330</ele>
        <time>2019-01-20T09:44:23.000Z</time>
      </trkpt>
      <trkpt lat="45.16244" lon="5.9243">
        <ele>2331</ele>
        <time>2019-01-20T09:44:25.000Z</time>
      </trkpt>
      <trkpt lat="45.16244" lon="5.9243">
        <ele>2331.6</ele>
        <time>2019-01-20T09:44:27.000Z</time>
      </trkpt>
      <trkpt lat="45.16245" lon="5.92433">
        <ele>2332</ele>
        <time>2019-01-20T09:44:28.000Z</time>
      </trkpt>
      <trkpt lat="45.16245" lon="5.92433">
        <ele>2332</ele>
        <time>2019-01-20T09:44:29.000Z</time>
      </trkpt>
      <trkpt lat="45.16245" lon="5.92433">
        <ele>2332</ele>
        <time>2019-01-20T09:44:30.000Z</time>
      </trkpt>
      <trkpt lat="45.16246" lon="5.92436">
        <ele>2333</ele>
        <time>2019-01-20T09:44:31.000Z</time>
      </trkpt>
      <trkpt lat="45.16246" lon="5.92436">
        <ele>2333</ele>
        <time>2019-01-20T09:44:32.000Z</time>
      </trkpt>
      <trkpt lat="45.16246" lon="5.92436">
        <ele>2333</ele>
        <time>2019-01-20T09:44:33.000Z</time>
      </trkpt>
      <trkpt lat="45.16248" lon="5.92439">
        <ele>2334</ele>
        <time>2019-01-20T09:44:34.000Z</time>
      </trkpt>
      <trkpt lat="45.16248" lon="5.92439">
        <ele>2334</ele>
        <time>2019-01-20T09:44:35.000Z</time>
      </trkpt>
      <trkpt lat="45.16248" lon="5.92439">
        <ele>2334</ele>
        <time>2019-01-20T09:44:36.000Z</time>
      </trkpt>
      <trkpt lat="45.1625" lon="5.92442">
        <ele>2334</ele>
        <time>2019-01-20T09:44:37.000Z</time>
      </trkpt>
      <trkpt lat="45.1625" lon="5.92442">
        <ele>2335</ele>
        <time>2019-01-20T09:44:38.000Z</time>
      </trkpt>
      <trkpt lat="45.1625" lon="5.92442">
        <ele>2335</ele>
        <time>2019-01-20T09:44:39.000Z</time>
      </trkpt>
      <trkpt lat="45.16251" lon="5.92445">
        <ele>2335</ele>
        <time>2019-01-20T09:44:40.000Z</time>
      </trkpt>
      <trkpt lat="45.16251" lon="5.92445">
        <ele>2335</ele>
        <time>2019-01-20T09:44:41.000Z</time>
      </trkpt>
      <trkpt lat="45.16251" lon="5.92445">
        <ele>2335</ele>
        <time>2019-01-20T09:44:42.000Z</time>
      </trkpt>
      <trkpt lat="45.16252" lon="5.92448">
        <ele>2335</ele>
        <time>2019-01-20T09:44:43.000Z</time>
      </trkpt>
      <trkpt lat="45.16252" lon="5.92448">
        <ele>2335.6</ele>
        <time>2019-01-20T09:44:44.000Z</time>
      </trkpt>
      <trkpt lat="45.16252" lon="5.92448">
        <ele>2336</ele>
        <time>2019-01-20T09:44:45.000Z</time>
      </trkpt>
      <trkpt lat="45.16252" lon="5.92448">
        <ele>2336</ele>
        <time>2019-01-20T09:44:46.000Z</time>
      </trkpt>
      <trkpt lat="45.16252" lon="5.92448">
        <ele>2337</ele>
        <time>2019-01-20T09:44:47.000Z</time>
      </trkpt>
      <trkpt lat="45.16251" lon="5.9245">
        <ele>2337</ele>
        <time>2019-01-20T09:44:48.000Z</time>
      </trkpt>
      <trkpt lat="45.16251" lon="5.9245">
        <ele>2337</ele>
        <time>2019-01-20T09:44:49.000Z</time>
      </trkpt>
      <trkpt lat="45.16251" lon="5.9245">
        <ele>2338</ele>
        <time>2019-01-20T09:44:50.000Z</time>
      </trkpt>
      <trkpt lat="45.16249" lon="5.92452">
        <ele>2338</ele>
        <time>2019-01-20T09:44:51.000Z</time>
      </trkpt>
      <trkpt lat="45.16249" lon="5.92452">
        <ele>2338</ele>
        <time>2019-01-20T09:44:52.000Z</time>
      </trkpt>
      <trkpt lat="45.16249" lon="5.92452">
        <ele>2338</ele>
        <time>2019-01-20T09:44:53.000Z</time>
      </trkpt>
      <trkpt lat="45.16248" lon="5.92455">
        <ele>2339</ele>
        <time>2019-01-20T09:44:54.000Z</time>
      </trkpt>
      <trkpt lat="45.16248" lon="5.92455">
        <ele>2339</ele>
        <time>2019-01-20T09:44:55.000Z</time>
      </trkpt>
      <trkpt lat="45.16248" lon="5.92455">
        <ele>2339</ele>
        <time>2019-01-20T09:44:56.000Z</time>
      </trkpt>
      <trkpt lat="45.16246" lon="5.92457">
        <ele>2340</ele>
        <time>2019-01-20T09:44:57.000Z</time>
      </trkpt>
      <trkpt lat="45.16246" lon="5.92457">
        <ele>2340</ele>
        <time>2019-01-20T09:44:58.000Z</time>
      </trkpt>
      <trkpt lat="45.16246" lon="5.92457">
        <ele>2340</ele>
        <time>2019-01-20T09:44:59.000Z</time>
      </trkpt>
      <trkpt lat="45.16245" lon="5.9246">
        <ele>2340</ele>
        <time>2019-01-20T09:45:00.000Z</time>
      </trkpt>
      <trkpt lat="45.16245" lon="5.9246">
        <ele>2340</ele>
        <time>2019-01-20T09:45:01.000Z</time>
      </trkpt>
      <trkpt lat="45.16245" lon="5.9246">
        <ele>2341</ele>
        <time>2019-01-20T09:45:03.000Z</time>
      </trkpt>
      <trkpt lat="45.16247" lon="5.92463">
        <ele>2341</ele>
        <time>2019-01-20T09:45:04.000Z</time>
      </trkpt>
      <trkpt lat="45.16247" lon="5.92463">
        <ele>2342</ele>
        <time>2019-01-20T09:45:05.000Z</time>
      </trkpt>
      <trkpt lat="45.16247" lon="5.92463">
        <ele>2342</ele>
        <time>2019-01-20T09:45:06.000Z</time>
      </trkpt>
      <trkpt lat="45.16248" lon="5.92465">
        <ele>2342</ele>
        <time>2019-01-20T09:45:07.000Z</time>
      </trkpt>
      <trkpt lat="45.16248" lon="5.92465">
        <ele>2343</ele>
        <time>2019-01-20T09:45:08.000Z</time>
      </trkpt>
      <trkpt lat="45.16248" lon="5.92465">
        <ele>2343</ele>
        <time>2019-01-20T09:45:09.000Z</time>
      </trkpt>
      <trkpt lat="45.1625" lon="5.92468">
        <ele>2343</ele>
        <time>2019-01-20T09:45:10.000Z</time>
      </trkpt>
      <trkpt lat="45.1625" lon="5.92468">
        <ele>2343</ele>
        <time>2019-01-20T09:45:11.000Z</time>
      </trkpt>
      <trkpt lat="45.1625" lon="5.92468">
        <ele>2343</ele>
        <time>2019-01-20T09:45:12.000Z</time>
      </trkpt>
      <trkpt lat="45.16251" lon="5.92471">
        <ele>2344</ele>
        <time>2019-01-20T09:45:13.000Z</time>
      </trkpt>
      <trkpt lat="45.16251" lon="5.92471">
        <ele>2344</ele>
        <time>2019-01-20T09:45:14.000Z</time>
      </trkpt>
      <trkpt lat="45.16253" lon="5.92473">
        <ele>2345</ele>
        <time>2019-01-20T09:45:15.000Z</time>
      </trkpt>
      <trkpt lat="45.16253" lon="5.92473">
        <ele>2345</ele>
        <time>2019-01-20T09:45:16.000Z</time>
      </trkpt>
      <trkpt lat="45.16253" lon="5.92473">
        <ele>2345</ele>
        <time>2019-01-20T09:45:17.000Z</time>
      </trkpt>
      <trkpt lat="45.16255" lon="5.92476">
        <ele>2345</ele>
        <time>2019-01-20T09:45:18.000Z</time>
      </trkpt>
      <trkpt lat="45.16255" lon="5.92476">
        <ele>2345</ele>
        <time>2019-01-20T09:45:19.000Z</time>
      </trkpt>
      <trkpt lat="45.16256" lon="5.92478">
        <ele>2345</ele>
        <time>2019-01-20T09:45:20.000Z</time>
      </trkpt>
      <trkpt lat="45.16256" lon="5.92478">
        <ele>2345</ele>
        <time>2019-01-20T09:45:22.000Z</time>
      </trkpt>
      <trkpt lat="45.16258" lon="5.92481">
        <ele>2345</ele>
        <time>2019-01-20T09:45:23.000Z</time>
      </trkpt>
      <trkpt lat="45.16258" lon="5.92481">
        <ele>2346</ele>
        <time>2019-01-20T09:45:24.000Z</time>
      </trkpt>
      <trkpt lat="45.16258" lon="5.92481">
        <ele>2346</ele>
        <time>2019-01-20T09:45:25.000Z</time>
      </trkpt>
      <trkpt lat="45.1626" lon="5.92483">
        <ele>2346</ele>
        <time>2019-01-20T09:45:26.000Z</time>
      </trkpt>
      <trkpt lat="45.1626" lon="5.92483">
        <ele>2346</ele>
        <time>2019-01-20T09:45:28.000Z</time>
      </trkpt>
      <trkpt lat="45.16262" lon="5.92486">
        <ele>2347</ele>
        <time>2019-01-20T09:45:29.000Z</time>
      </trkpt>
      <trkpt lat="45.16262" lon="5.92486">
        <ele>2347</ele>
        <time>2019-01-20T09:45:30.000Z</time>
      </trkpt>
      <trkpt lat="45.16263" lon="5.92488">
        <ele>2348</ele>
        <time>2019-01-20T09:45:31.000Z</time>
      </trkpt>
      <trkpt lat="45.16263" lon="5.92488">
        <ele>2348</ele>
        <time>2019-01-20T09:45:32.000Z</time>
      </trkpt>
      <trkpt lat="45.16263" lon="5.92488">
        <ele>2348</ele>
        <time>2019-01-20T09:45:33.000Z</time>
      </trkpt>
      <trkpt lat="45.16264" lon="5.9249">
        <ele>2348</ele>
        <time>2019-01-20T09:45:34.000Z</time>
      </trkpt>
      <trkpt lat="45.16264" lon="5.9249">
        <ele>2349</ele>
        <time>2019-01-20T09:45:35.000Z</time>
      </trkpt>
      <trkpt lat="45.16264" lon="5.9249">
        <ele>2349</ele>
        <time>2019-01-20T09:45:36.000Z</time>
      </trkpt>
      <trkpt lat="45.16263" lon="5.92493">
        <ele>2349</ele>
        <time>2019-01-20T09:45:37.000Z</time>
      </trkpt>
      <trkpt lat="45.16263" lon="5.92493">
        <ele>2349</ele>
        <time>2019-01-20T09:45:38.000Z</time>
      </trkpt>
      <trkpt lat="45.16263" lon="5.92493">
        <ele>2349</ele>
        <time>2019-01-20T09:45:39.000Z</time>
      </trkpt>
      <trkpt lat="45.16261" lon="5.92494">
        <ele>2349</ele>
        <time>2019-01-20T09:45:40.000Z</time>
      </trkpt>
      <trkpt lat="45.16261" lon="5.92494">
        <ele>2350</ele>
        <time>2019-01-20T09:45:41.000Z</time>
      </trkpt>
      <trkpt lat="45.16261" lon="5.92494">
        <ele>2350</ele>
        <time>2019-01-20T09:45:42.000Z</time>
      </trkpt>
      <trkpt lat="45.16259" lon="5.92496">
        <ele>2351</ele>
        <time>2019-01-20T09:45:43.000Z</time>
      </trkpt>
      <trkpt lat="45.16259" lon="5.92496">
        <ele>2351</ele>
        <time>2019-01-20T09:45:44.000Z</time>
      </trkpt>
      <trkpt lat="45.16259" lon="5.92496">
        <ele>2351</ele>
        <time>2019-01-20T09:45:45.000Z</time>
      </trkpt>
      <trkpt lat="45.16257" lon="5.92498">
        <ele>2351</ele>
        <time>2019-01-20T09:45:46.000Z</time>
      </trkpt>
      <trkpt lat="45.16257" lon="5.92498">
        <ele>2351</ele>
        <time>2019-01-20T09:45:47.000Z</time>
      </trkpt>
      <trkpt lat="45.16257" lon="5.92498">
        <ele>2351</ele>
        <time>2019-01-20T09:45:48.000Z</time>
      </trkpt>
      <trkpt lat="45.16255" lon="5.925">
        <ele>2352</ele>
        <time>2019-01-20T09:45:49.000Z</time>
      </trkpt>
      <trkpt lat="45.16255" lon="5.925">
        <ele>2352</ele>
        <time>2019-01-20T09:45:50.000Z</time>
      </trkpt>
      <trkpt lat="45.16255" lon="5.925">
        <ele>2352</ele>
        <time>2019-01-20T09:45:51.000Z</time>
      </trkpt>
      <trkpt lat="45.16254" lon="5.92503">
        <ele>2352</ele>
        <time>2019-01-20T09:45:52.000Z</time>
      </trkpt>
      <trkpt lat="45.16254" lon="5.92503">
        <ele>2353</ele>
        <time>2019-01-20T09:45:53.000Z</time>
      </trkpt>
      <trkpt lat="45.16254" lon="5.92503">
        <ele>2354</ele>
        <time>2019-01-20T09:45:54.000Z</time>
      </trkpt>
      <trkpt lat="45.16255" lon="5.92506">
        <ele>2354</ele>
        <time>2019-01-20T09:45:55.000Z</time>
      </trkpt>
      <trkpt lat="45.16255" lon="5.92506">
        <ele>2354</ele>
        <time>2019-01-20T09:45:56.000Z</time>
      </trkpt>
      <trkpt lat="45.16255" lon="5.92506">
        <ele>2354</ele>
        <time>2019-01-20T09:45:57.000Z</time>
      </trkpt>
      <trkpt lat="45.16257" lon="5.92508">
        <ele>2354</ele>
        <time>2019-01-20T09:45:58.000Z</time>
      </trkpt>
      <trkpt lat="45.16258" lon="5.9251">
        <ele>2354.4</ele>
        <time>2019-01-20T09:46:00.000Z</time>
      </trkpt>
      <trkpt lat="45.16258" lon="5.9251">
        <ele>2355</ele>
        <time>2019-01-20T09:46:01.000Z</time>
      </trkpt>
      <trkpt lat="45.16259" lon="5.92512">
        <ele>2355</ele>
        <time>2019-01-20T09:46:02.000Z</time>
      </trkpt>
      <trkpt lat="45.16259" lon="5.92512">
        <ele>2355</ele>
        <time>2019-01-20T09:46:03.000Z</time>
      </trkpt>
      <trkpt lat="45.16261" lon="5.92514">
        <ele>2355</ele>
        <time>2019-01-20T09:46:04.000Z</time>
      </trkpt>
      <trkpt lat="45.16261" lon="5.92514">
        <ele>2355</ele>
        <time>2019-01-20T09:46:05.000Z</time>
      </trkpt>
      <trkpt lat="45.16261" lon="5.92514">
        <ele>2356</ele>
        <time>2019-01-20T09:46:06.000Z</time>
      </trkpt>
      <trkpt lat="45.16263" lon="5.92516">
        <ele>2356</ele>
        <time>2019-01-20T09:46:07.000Z</time>
      </trkpt>
      <trkpt lat="45.16263" lon="5.92516">
        <ele>2356</ele>
        <time>2019-01-20T09:46:08.000Z</time>
      </trkpt>
      <trkpt lat="45.16264" lon="5.92518">
        <ele>2356</ele>
        <time>2019-01-20T09:46:09.000Z</time>
      </trkpt>
      <trkpt lat="45.16264" lon="5.92518">
        <ele>2357</ele>
        <time>2019-01-20T09:46:10.000Z</time>
      </trkpt>
      <trkpt lat="45.16264" lon="5.92518">
        <ele>2357</ele>
        <time>2019-01-20T09:46:11.000Z</time>
      </trkpt>
      <trkpt lat="45.16266" lon="5.92521">
        <ele>2357</ele>
        <time>2019-01-20T09:46:12.000Z</time>
      </trkpt>
      <trkpt lat="45.16266" lon="5.92521">
        <ele>2357</ele>
        <time>2019-01-20T09:46:13.000Z</time>
      </trkpt>
      <trkpt lat="45.16268" lon="5.92523">
        <ele>2358</ele>
        <time>2019-01-20T09:46:14.000Z</time>
      </trkpt>
      <trkpt lat="45.16268" lon="5.92523">
        <ele>2358</ele>
        <time>2019-01-20T09:46:15.000Z</time>
      </trkpt>
      <trkpt lat="45.16269" lon="5.92524">
        <ele>2358</ele>
        <time>2019-01-20T09:46:16.000Z</time>
      </trkpt>
      <trkpt lat="45.16269" lon="5.92524">
        <ele>2358</ele>
        <time>2019-01-20T09:46:17.000Z</time>
      </trkpt>
      <trkpt lat="45.1627" lon="5.92527">
        <ele>2359</ele>
        <time>2019-01-20T09:46:19.000Z</time>
      </trkpt>
      <trkpt lat="45.1627" lon="5.92527">
        <ele>2359</ele>
        <time>2019-01-20T09:46:20.000Z</time>
      </trkpt>
      <trkpt lat="45.1627" lon="5.92527">
        <ele>2360</ele>
        <time>2019-01-20T09:46:21.000Z</time>
      </trkpt>
      <trkpt lat="45.16269" lon="5.92529">
        <ele>2360</ele>
        <time>2019-01-20T09:46:22.000Z</time>
      </trkpt>
      <trkpt lat="45.16269" lon="5.92529">
        <ele>2360</ele>
        <time>2019-01-20T09:46:24.000Z</time>
      </trkpt>
      <trkpt lat="45.16267" lon="5.92531">
        <ele>2360</ele>
        <time>2019-01-20T09:46:25.000Z</time>
      </trkpt>
      <trkpt lat="45.16267" lon="5.92531">
        <ele>2360</ele>
        <time>2019-01-20T09:46:26.000Z</time>
      </trkpt>
      <trkpt lat="45.16267" lon="5.92531">
        <ele>2361</ele>
        <time>2019-01-20T09:46:27.000Z</time>
      </trkpt>
      <trkpt lat="45.16265" lon="5.92533">
        <ele>2361</ele>
        <time>2019-01-20T09:46:28.000Z</time>
      </trkpt>
      <trkpt lat="45.16265" lon="5.92533">
        <ele>2361</ele>
        <time>2019-01-20T09:46:30.000Z</time>
      </trkpt>
      <trkpt lat="45.16263" lon="5.92535">
        <ele>2361</ele>
        <time>2019-01-20T09:46:31.000Z</time>
      </trkpt>
      <trkpt lat="45.16263" lon="5.92535">
        <ele>2362</ele>
        <time>2019-01-20T09:46:32.000Z</time>
      </trkpt>
      <trkpt lat="45.16263" lon="5.92535">
        <ele>2362</ele>
        <time>2019-01-20T09:46:33.000Z</time>
      </trkpt>
      <trkpt lat="45.16261" lon="5.92537">
        <ele>2362</ele>
        <time>2019-01-20T09:46:34.000Z</time>
      </trkpt>
      <trkpt lat="45.16261" lon="5.92537">
        <ele>2363</ele>
        <time>2019-01-20T09:46:35.000Z</time>
      </trkpt>
      <trkpt lat="45.16261" lon="5.92537">
        <ele>2363</ele>
        <time>2019-01-20T09:46:36.000Z</time>
      </trkpt>
      <trkpt lat="45.16259" lon="5.92539">
        <ele>2363</ele>
        <time>2019-01-20T09:46:37.000Z</time>
      </trkpt>
      <trkpt lat="45.16259" lon="5.92539">
        <ele>2363</ele>
        <time>2019-01-20T09:46:38.000Z</time>
      </trkpt>
      <trkpt lat="45.16258" lon="5.92541">
        <ele>2363</ele>
        <time>2019-01-20T09:46:39.000Z</time>
      </trkpt>
      <trkpt lat="45.16258" lon="5.92541">
        <ele>2363</ele>
        <time>2019-01-20T09:46:40.000Z</time>
      </trkpt>
      <trkpt lat="45.16256" lon="5.92543">
        <ele>2364</ele>
        <time>2019-01-20T09:46:41.000Z</time>
      </trkpt>
      <trkpt lat="45.16256" lon="5.92543">
        <ele>2364</ele>
        <time>2019-01-20T09:46:42.000Z</time>
      </trkpt>
      <trkpt lat="45.16256" lon="5.92543">
        <ele>2365</ele>
        <time>2019-01-20T09:46:43.000Z</time>
      </trkpt>
      <trkpt lat="45.16255" lon="5.92546">
        <ele>2365</ele>
        <time>2019-01-20T09:46:44.000Z</time>
      </trkpt>
      <trkpt lat="45.16255" lon="5.92546">
        <ele>2365</ele>
        <time>2019-01-20T09:46:45.000Z</time>
      </trkpt>
      <trkpt lat="45.16255" lon="5.92546">
        <ele>2365</ele>
        <time>2019-01-20T09:46:46.000Z</time>
      </trkpt>
      <trkpt lat="45.16255" lon="5.92546">
        <ele>2365</ele>
        <time>2019-01-20T09:46:47.000Z</time>
      </trkpt>
      <trkpt lat="45.16256" lon="5.92549">
        <ele>2365</ele>
        <time>2019-01-20T09:46:48.000Z</time>
      </trkpt>
      <trkpt lat="45.16256" lon="5.92549">
        <ele>2365</ele>
        <time>2019-01-20T09:46:49.000Z</time>
      </trkpt>
      <trkpt lat="45.16258" lon="5.9255">
        <ele>2365</ele>
        <time>2019-01-20T09:46:50.000Z</time>
      </trkpt>
      <trkpt lat="45.16258" lon="5.9255">
        <ele>2365</ele>
        <time>2019-01-20T09:46:51.000Z</time>
      </trkpt>
      <trkpt lat="45.1626" lon="5.92551">
        <ele>2365</ele>
        <time>2019-01-20T09:46:52.000Z</time>
      </trkpt>
      <trkpt lat="45.1626" lon="5.92551">
        <ele>2366</ele>
        <time>2019-01-20T09:46:53.000Z</time>
      </trkpt>
      <trkpt lat="45.1626" lon="5.92551">
        <ele>2366</ele>
        <time>2019-01-20T09:46:54.000Z</time>
      </trkpt>
      <trkpt lat="45.16262" lon="5.92553">
        <ele>2367</ele>
        <time>2019-01-20T09:46:55.000Z</time>
      </trkpt>
      <trkpt lat="45.16262" lon="5.92553">
        <ele>2367</ele>
        <time>2019-01-20T09:46:57.000Z</time>
      </trkpt>
      <trkpt lat="45.16264" lon="5.92555">
        <ele>2367</ele>
        <time>2019-01-20T09:46:58.000Z</time>
      </trkpt>
      <trkpt lat="45.16264" lon="5.92555">
        <ele>2368</ele>
        <time>2019-01-20T09:46:59.000Z</time>
      </trkpt>
      <trkpt lat="45.16264" lon="5.92555">
        <ele>2368</ele>
        <time>2019-01-20T09:47:00.000Z</time>
      </trkpt>
      <trkpt lat="45.16266" lon="5.92557">
        <ele>2369</ele>
        <time>2019-01-20T09:47:01.000Z</time>
      </trkpt>
      <trkpt lat="45.16266" lon="5.92557">
        <ele>2369</ele>
        <time>2019-01-20T09:47:02.000Z</time>
      </trkpt>
      <trkpt lat="45.16268" lon="5.92558">
        <ele>2369</ele>
        <time>2019-01-20T09:47:03.000Z</time>
      </trkpt>
      <trkpt lat="45.16268" lon="5.92558">
        <ele>2370</ele>
        <time>2019-01-20T09:47:04.000Z</time>
      </trkpt>
      <trkpt lat="45.16268" lon="5.92558">
        <ele>2370</ele>
        <time>2019-01-20T09:47:05.000Z</time>
      </trkpt>
      <trkpt lat="45.1627" lon="5.92561">
        <ele>2370</ele>
        <time>2019-01-20T09:47:06.000Z</time>
      </trkpt>
      <trkpt lat="45.1627" lon="5.92561">
        <ele>2370</ele>
        <time>2019-01-20T09:47:07.000Z</time>
      </trkpt>
      <trkpt lat="45.1627" lon="5.92561">
        <ele>2370</ele>
        <time>2019-01-20T09:47:08.000Z</time>
      </trkpt>
      <trkpt lat="45.16271" lon="5.92563">
        <ele>2370</ele>
        <time>2019-01-20T09:47:09.000Z</time>
      </trkpt>
      <trkpt lat="45.16271" lon="5.92563">
        <ele>2370</ele>
        <time>2019-01-20T09:47:10.000Z</time>
      </trkpt>
      <trkpt lat="45.16273" lon="5.92565">
        <ele>2371</ele>
        <time>2019-01-20T09:47:11.000Z</time>
      </trkpt>
      <trkpt lat="45.16273" lon="5.92565">
        <ele>2371</ele>
        <time>2019-01-20T09:47:12.000Z</time>
      </trkpt>
      <trkpt lat="45.16274" lon="5.92567">
        <ele>2372</ele>
        <time>2019-01-20T09:47:13.000Z</time>
      </trkpt>
      <trkpt lat="45.16274" lon="5.92567">
        <ele>2372</ele>
        <time>2019-01-20T09:47:14.000Z</time>
      </trkpt>
      <trkpt lat="45.16273" lon="5.9257">
        <ele>2372</ele>
        <time>2019-01-20T09:47:16.000Z</time>
      </trkpt>
      <trkpt lat="45.16273" lon="5.9257">
        <ele>2372</ele>
        <time>2019-01-20T09:47:17.000Z</time>
      </trkpt>
      <trkpt lat="45.16273" lon="5.9257">
        <ele>2372</ele>
        <time>2019-01-20T09:47:18.000Z</time>
      </trkpt>
      <trkpt lat="45.16271" lon="5.92571">
        <ele>2372</ele>
        <time>2019-01-20T09:47:19.000Z</time>
      </trkpt>
      <trkpt lat="45.16271" lon="5.92571">
        <ele>2373</ele>
        <time>2019-01-20T09:47:20.000Z</time>
      </trkpt>
      <trkpt lat="45.1627" lon="5.92573">
        <ele>2373</ele>
        <time>2019-01-20T09:47:21.000Z</time>
      </trkpt>
      <trkpt lat="45.1627" lon="5.92573">
        <ele>2374</ele>
        <time>2019-01-20T09:47:22.000Z</time>
      </trkpt>
      <trkpt lat="45.1627" lon="5.92573">
        <ele>2374</ele>
        <time>2019-01-20T09:47:23.000Z</time>
      </trkpt>
      <trkpt lat="45.16268" lon="5.92575">
        <ele>2374</ele>
        <time>2019-01-20T09:47:24.000Z</time>
      </trkpt>
      <trkpt lat="45.16268" lon="5.92575">
        <ele>2374</ele>
        <time>2019-01-20T09:47:25.000Z</time>
      </trkpt>
      <trkpt lat="45.16268" lon="5.92575">
        <ele>2375</ele>
        <time>2019-01-20T09:47:26.000Z</time>
      </trkpt>
      <trkpt lat="45.16266" lon="5.92577">
        <ele>2375</ele>
        <time>2019-01-20T09:47:27.000Z</time>
      </trkpt>
      <trkpt lat="45.16266" lon="5.92577">
        <ele>2375</ele>
        <time>2019-01-20T09:47:28.000Z</time>
      </trkpt>
      <trkpt lat="45.16266" lon="5.92577">
        <ele>2376</ele>
        <time>2019-01-20T09:47:29.000Z</time>
      </trkpt>
      <trkpt lat="45.16265" lon="5.92579">
        <ele>2376</ele>
        <time>2019-01-20T09:47:30.000Z</time>
      </trkpt>
      <trkpt lat="45.16265" lon="5.92579">
        <ele>2376</ele>
        <time>2019-01-20T09:47:32.000Z</time>
      </trkpt>
      <trkpt lat="45.16263" lon="5.92582">
        <ele>2377</ele>
        <time>2019-01-20T09:47:33.000Z</time>
      </trkpt>
      <trkpt lat="45.16263" lon="5.92582">
        <ele>2377</ele>
        <time>2019-01-20T09:47:35.000Z</time>
      </trkpt>
      <trkpt lat="45.16261" lon="5.92584">
        <ele>2377</ele>
        <time>2019-01-20T09:47:36.000Z</time>
      </trkpt>
      <trkpt lat="45.16261" lon="5.92584">
        <ele>2377</ele>
        <time>2019-01-20T09:47:37.000Z</time>
      </trkpt>
      <trkpt lat="45.16261" lon="5.92584">
        <ele>2378</ele>
        <time>2019-01-20T09:47:38.000Z</time>
      </trkpt>
      <trkpt lat="45.1626" lon="5.92586">
        <ele>2378</ele>
        <time>2019-01-20T09:47:39.000Z</time>
      </trkpt>
      <trkpt lat="45.1626" lon="5.92586">
        <ele>2379</ele>
        <time>2019-01-20T09:47:40.000Z</time>
      </trkpt>
      <trkpt lat="45.1626" lon="5.92586">
        <ele>2379</ele>
        <time>2019-01-20T09:47:41.000Z</time>
      </trkpt>
      <trkpt lat="45.1626" lon="5.92586">
        <ele>2379</ele>
        <time>2019-01-20T09:47:42.000Z</time>
      </trkpt>
      <trkpt lat="45.16261" lon="5.92589">
        <ele>2379</ele>
        <time>2019-01-20T09:47:43.000Z</time>
      </trkpt>
      <trkpt lat="45.16261" lon="5.92589">
        <ele>2379</ele>
        <time>2019-01-20T09:47:44.000Z</time>
      </trkpt>
      <trkpt lat="45.16262" lon="5.92591">
        <ele>2379</ele>
        <time>2019-01-20T09:47:45.000Z</time>
      </trkpt>
      <trkpt lat="45.16262" lon="5.92591">
        <ele>2379</ele>
        <time>2019-01-20T09:47:46.000Z</time>
      </trkpt>
      <trkpt lat="45.16262" lon="5.92591">
        <ele>2379</ele>
        <time>2019-01-20T09:47:47.000Z</time>
      </trkpt>
      <trkpt lat="45.16264" lon="5.92593">
        <ele>2380</ele>
        <time>2019-01-20T09:47:48.000Z</time>
      </trkpt>
      <trkpt lat="45.16264" lon="5.92593">
        <ele>2380</ele>
        <time>2019-01-20T09:47:49.000Z</time>
      </trkpt>
      <trkpt lat="45.16265" lon="5.92595">
        <ele>2380</ele>
        <time>2019-01-20T09:47:50.000Z</time>
      </trkpt>
      <trkpt lat="45.16265" lon="5.92595">
        <ele>2380</ele>
        <time>2019-01-20T09:47:51.000Z</time>
      </trkpt>
      <trkpt lat="45.16266" lon="5.92597">
        <ele>2380</ele>
        <time>2019-01-20T09:47:52.000Z</time>
      </trkpt>
      <trkpt lat="45.16266" lon="5.92597">
        <ele>2380.4</ele>
        <time>2019-01-20T09:47:54.000Z</time>
      </trkpt>
      <trkpt lat="45.16268" lon="5.926">
        <ele>2381</ele>
        <time>2019-01-20T09:47:55.000Z</time>
      </trkpt>
      <trkpt lat="45.16268" lon="5.926">
        <ele>2381</ele>
        <time>2019-01-20T09:47:56.000Z</time>
      </trkpt>
      <trkpt lat="45.16269" lon="5.92602">
        <ele>2381</ele>
        <time>2019-01-20T09:47:57.000Z</time>
      </trkpt>
      <trkpt lat="45.16269" lon="5.92602">
        <ele>2382</ele>
        <time>2019-01-20T09:47:58.000Z</time>
      </trkpt>
      <trkpt lat="45.16269" lon="5.92602">
        <ele>2382</ele>
        <time>2019-01-20T09:47:59.000Z</time>
      </trkpt>
      <trkpt lat="45.16271" lon="5.92604">
        <ele>2382</ele>
        <time>2019-01-20T09:48:00.000Z</time>
      </trkpt>
      <trkpt lat="45.16271" lon="5.92604">
        <ele>2382</ele>
        <time>2019-01-20T09:48:01.000Z</time>
      </trkpt>
      <trkpt lat="45.16271" lon="5.92604">
        <ele>2382</ele>
        <time>2019-01-20T09:48:02.000Z</time>
      </trkpt>
      <trkpt lat="45.16272" lon="5.92607">
        <ele>2383</ele>
        <time>2019-01-20T09:48:03.000Z</time>
      </trkpt>
      <trkpt lat="45.16272" lon="5.92607">
        <ele>2383</ele>
        <time>2019-01-20T09:48:04.000Z</time>
      </trkpt>
      <trkpt lat="45.16274" lon="5.92609">
        <ele>2383</ele>
        <time>2019-01-20T09:48:05.000Z</time>
      </trkpt>
      <trkpt lat="45.16274" lon="5.92609">
        <ele>2384</ele>
        <time>2019-01-20T09:48:06.000Z</time>
      </trkpt>
      <trkpt lat="45.16275" lon="5.92611">
        <ele>2384</ele>
        <time>2019-01-20T09:48:07.000Z</time>
      </trkpt>
      <trkpt lat="45.16275" lon="5.92611">
        <ele>2384</ele>
        <time>2019-01-20T09:48:08.000Z</time>
      </trkpt>
      <trkpt lat="45.16276" lon="5.92613">
        <ele>2385</ele>
        <time>2019-01-20T09:48:09.000Z</time>
      </trkpt>
      <trkpt lat="45.16276" lon="5.92613">
        <ele>2385</ele>
        <time>2019-01-20T09:48:10.000Z</time>
      </trkpt>
      <trkpt lat="45.16277" lon="5.92616">
        <ele>2385</ele>
        <time>2019-01-20T09:48:11.000Z</time>
      </trkpt>
      <trkpt lat="45.16277" lon="5.92616">
        <ele>2386</ele>
        <time>2019-01-20T09:48:13.000Z</time>
      </trkpt>
      <trkpt lat="45.16279" lon="5.92618">
        <ele>2386</ele>
        <time>2019-01-20T09:48:14.000Z</time>
      </trkpt>
      <trkpt lat="45.16279" lon="5.92618">
        <ele>2386</ele>
        <time>2019-01-20T09:48:15.000Z</time>
      </trkpt>
      <trkpt lat="45.1628" lon="5.92621">
        <ele>2386</ele>
        <time>2019-01-20T09:48:16.000Z</time>
      </trkpt>
      <trkpt lat="45.1628" lon="5.92621">
        <ele>2386</ele>
        <time>2019-01-20T09:48:17.000Z</time>
      </trkpt>
      <trkpt lat="45.16282" lon="5.92623">
        <ele>2386</ele>
        <time>2019-01-20T09:48:18.000Z</time>
      </trkpt>
      <trkpt lat="45.16282" lon="5.92623">
        <ele>2386</ele>
        <time>2019-01-20T09:48:19.000Z</time>
      </trkpt>
      <trkpt lat="45.16283" lon="5.92626">
        <ele>2387</ele>
        <time>2019-01-20T09:48:20.000Z</time>
      </trkpt>
      <trkpt lat="45.16283" lon="5.92626">
        <ele>2387</ele>
        <time>2019-01-20T09:48:21.000Z</time>
      </trkpt>
      <trkpt lat="45.16284" lon="5.92628">
        <ele>2387</ele>
        <time>2019-01-20T09:48:22.000Z</time>
      </trkpt>
      <trkpt lat="45.16284" lon="5.92628">
        <ele>2388</ele>
        <time>2019-01-20T09:48:23.000Z</time>
      </trkpt>
      <trkpt lat="45.16285" lon="5.9263">
        <ele>2388</ele>
        <time>2019-01-20T09:48:24.000Z</time>
      </trkpt>
      <trkpt lat="45.16285" lon="5.9263">
        <ele>2388</ele>
        <time>2019-01-20T09:48:25.000Z</time>
      </trkpt>
      <trkpt lat="45.16285" lon="5.92633">
        <ele>2388</ele>
        <time>2019-01-20T09:48:26.000Z</time>
      </trkpt>
      <trkpt lat="45.16285" lon="5.92633">
        <ele>2388.4</ele>
        <time>2019-01-20T09:48:27.000Z</time>
      </trkpt>
      <trkpt lat="45.16286" lon="5.92635">
        <ele>2389</ele>
        <time>2019-01-20T09:48:28.000Z</time>
      </trkpt>
      <trkpt lat="45.16286" lon="5.92635">
        <ele>2389</ele>
        <time>2019-01-20T09:48:29.000Z</time>
      </trkpt>
      <trkpt lat="45.16287" lon="5.92637">
        <ele>2389</ele>
        <time>2019-01-20T09:48:30.000Z</time>
      </trkpt>
      <trkpt lat="45.16288" lon="5.9264">
        <ele>2389</ele>
        <time>2019-01-20T09:48:32.000Z</time>
      </trkpt>
      <trkpt lat="45.16288" lon="5.9264">
        <ele>2389</ele>
        <time>2019-01-20T09:48:33.000Z</time>
      </trkpt>
      <trkpt lat="45.16289" lon="5.92643">
        <ele>2390</ele>
        <time>2019-01-20T09:48:34.000Z</time>
      </trkpt>
      <trkpt lat="45.16289" lon="5.92643">
        <ele>2390</ele>
        <time>2019-01-20T09:48:35.000Z</time>
      </trkpt>
      <trkpt lat="45.1629" lon="5.92645">
        <ele>2390</ele>
        <time>2019-01-20T09:48:36.000Z</time>
      </trkpt>
      <trkpt lat="45.1629" lon="5.92645">
        <ele>2391</ele>
        <time>2019-01-20T09:48:37.000Z</time>
      </trkpt>
      <trkpt lat="45.16291" lon="5.92648">
        <ele>2391</ele>
        <time>2019-01-20T09:48:38.000Z</time>
      </trkpt>
      <trkpt lat="45.16291" lon="5.92648">
        <ele>2391</ele>
        <time>2019-01-20T09:48:39.000Z</time>
      </trkpt>
      <trkpt lat="45.16291" lon="5.92648">
        <ele>2391</ele>
        <time>2019-01-20T09:48:40.000Z</time>
      </trkpt>
      <trkpt lat="45.16292" lon="5.9265">
        <ele>2391</ele>
        <time>2019-01-20T09:48:41.000Z</time>
      </trkpt>
      <trkpt lat="45.16292" lon="5.9265">
        <ele>2391</ele>
        <time>2019-01-20T09:48:42.000Z</time>
      </trkpt>
      <trkpt lat="45.16292" lon="5.9265">
        <ele>2391</ele>
        <time>2019-01-20T09:48:43.000Z</time>
      </trkpt>
      <trkpt lat="45.16293" lon="5.92653">
        <ele>2392</ele>
        <time>2019-01-20T09:48:44.000Z</time>
      </trkpt>
      <trkpt lat="45.16293" lon="5.92653">
        <ele>2392</ele>
        <time>2019-01-20T09:48:45.000Z</time>
      </trkpt>
      <trkpt lat="45.16293" lon="5.92653">
        <ele>2392</ele>
        <time>2019-01-20T09:48:46.000Z</time>
      </trkpt>
      <trkpt lat="45.16295" lon="5.92656">
        <ele>2392</ele>
        <time>2019-01-20T09:48:47.000Z</time>
      </trkpt>
      <trkpt lat="45.16295" lon="5.92656">
        <ele>2393</ele>
        <time>2019-01-20T09:48:48.000Z</time>
      </trkpt>
      <trkpt lat="45.16295" lon="5.92656">
        <ele>2393</ele>
        <time>2019-01-20T09:48:49.000Z</time>
      </trkpt>
      <trkpt lat="45.16297" lon="5.9266">
        <ele>2393</ele>
        <time>2019-01-20T09:48:50.000Z</time>
      </trkpt>
      <trkpt lat="45.16297" lon="5.9266">
        <ele>2393</ele>
        <time>2019-01-20T09:48:51.000Z</time>
      </trkpt>
      <trkpt lat="45.16297" lon="5.9266">
        <ele>2393</ele>
        <time>2019-01-20T09:48:52.000Z</time>
      </trkpt>
      <trkpt lat="45.16298" lon="5.92662">
        <ele>2394</ele>
        <time>2019-01-20T09:48:53.000Z</time>
      </trkpt>
      <trkpt lat="45.16298" lon="5.92662">
        <ele>2394</ele>
        <time>2019-01-20T09:48:54.000Z</time>
      </trkpt>
      <trkpt lat="45.16298" lon="5.92662">
        <ele>2394</ele>
        <time>2019-01-20T09:48:55.000Z</time>
      </trkpt>
      <trkpt lat="45.16299" lon="5.92665">
        <ele>2394</ele>
        <time>2019-01-20T09:48:56.000Z</time>
      </trkpt>
      <trkpt lat="45.16299" lon="5.92665">
        <ele>2395</ele>
        <time>2019-01-20T09:48:57.000Z</time>
      </trkpt>
      <trkpt lat="45.16299" lon="5.92665">
        <ele>2395</ele>
        <time>2019-01-20T09:48:58.000Z</time>
      </trkpt>
      <trkpt lat="45.163" lon="5.92668">
        <ele>2395</ele>
        <time>2019-01-20T09:48:59.000Z</time>
      </trkpt>
      <trkpt lat="45.163" lon="5.92668">
        <ele>2395</ele>
        <time>2019-01-20T09:49:00.000Z</time>
      </trkpt>
      <trkpt lat="45.163" lon="5.92668">
        <ele>2396</ele>
        <time>2019-01-20T09:49:01.000Z</time>
      </trkpt>
      <trkpt lat="45.16301" lon="5.92671">
        <ele>2396</ele>
        <time>2019-01-20T09:49:02.000Z</time>
      </trkpt>
      <trkpt lat="45.16301" lon="5.92671">
        <ele>2396</ele>
        <time>2019-01-20T09:49:03.000Z</time>
      </trkpt>
      <trkpt lat="45.16301" lon="5.92671">
        <ele>2396</ele>
        <time>2019-01-20T09:49:04.000Z</time>
      </trkpt>
      <trkpt lat="45.16302" lon="5.92675">
        <ele>2397</ele>
        <time>2019-01-20T09:49:05.000Z</time>
      </trkpt>
      <trkpt lat="45.16302" lon="5.92675">
        <ele>2397</ele>
        <time>2019-01-20T09:49:06.000Z</time>
      </trkpt>
      <trkpt lat="45.16302" lon="5.92675">
        <ele>2397</ele>
        <time>2019-01-20T09:49:07.000Z</time>
      </trkpt>
      <trkpt lat="45.16304" lon="5.92677">
        <ele>2397</ele>
        <time>2019-01-20T09:49:08.000Z</time>
      </trkpt>
      <trkpt lat="45.16304" lon="5.92677">
        <ele>2397.6</ele>
        <time>2019-01-20T09:49:10.000Z</time>
      </trkpt>
      <trkpt lat="45.16306" lon="5.9268">
        <ele>2398</ele>
        <time>2019-01-20T09:49:11.000Z</time>
      </trkpt>
      <trkpt lat="45.16306" lon="5.9268">
        <ele>2398</ele>
        <time>2019-01-20T09:49:12.000Z</time>
      </trkpt>
      <trkpt lat="45.16306" lon="5.9268">
        <ele>2398</ele>
        <time>2019-01-20T09:49:13.000Z</time>
      </trkpt>
      <trkpt lat="45.16307" lon="5.92682">
        <ele>2398</ele>
        <time>2019-01-20T09:49:14.000Z</time>
      </trkpt>
      <trkpt lat="45.16307" lon="5.92682">
        <ele>2398</ele>
        <time>2019-01-20T09:49:15.000Z</time>
      </trkpt>
      <trkpt lat="45.16307" lon="5.92682">
        <ele>2398</ele>
        <time>2019-01-20T09:49:16.000Z</time>
      </trkpt>
      <trkpt lat="45.16307" lon="5.92682">
        <ele>2398</ele>
        <time>2019-01-20T09:49:17.000Z</time>
      </trkpt>
      <trkpt lat="45.16307" lon="5.92682">
        <ele>2398</ele>
        <time>2019-01-20T09:49:18.000Z</time>
      </trkpt>
      <trkpt lat="45.16307" lon="5.92682">
        <ele>2398</ele>
        <time>2019-01-20T09:49:19.000Z</time>
      </trkpt>
      <trkpt lat="45.16307" lon="5.92682">
        <ele>2398</ele>
        <time>2019-01-20T09:49:20.000Z</time>
      </trkpt>
      <trkpt lat="45.16307" lon="5.92682">
        <ele>2398</ele>
        <time>2019-01-20T09:49:21.000Z</time>
      </trkpt>
      <trkpt lat="45.16308" lon="5.92683">
        <ele>2398</ele>
        <time>2019-01-20T09:49:22.000Z</time>
      </trkpt>
      <trkpt lat="45.16308" lon="5.92683">
        <ele>2399</ele>
        <time>2019-01-20T09:54:56.000Z</time>
      </trkpt>
      <trkpt lat="45.16308" lon="5.92679">
        <ele>2399</ele>
        <time>2019-01-20T09:54:57.000Z</time>
      </trkpt>
      <trkpt lat="45.16308" lon="5.92678">
        <ele>2399</ele>
        <time>2019-01-20T09:54:58.000Z</time>
      </trkpt>
      <trkpt lat="45.16309" lon="5.92673">
        <ele>2399</ele>
        <time>2019-01-20T09:54:59.000Z</time>
      </trkpt>
      <trkpt lat="45.1631" lon="5.92671">
        <ele>2397.6</ele>
        <time>2019-01-20T09:55:00.000Z</time>
      </trkpt>
      <trkpt lat="45.16314" lon="5.92668">
        <ele>2396</ele>
        <time>2019-01-20T09:55:01.000Z</time>
      </trkpt>
      <trkpt lat="45.16318" lon="5.92666">
        <ele>2395</ele>
        <time>2019-01-20T09:55:02.000Z</time>
      </trkpt>
      <trkpt lat="45.16324" lon="5.92664">
        <ele>2395</ele>
        <time>2019-01-20T09:55:03.000Z</time>
      </trkpt>
      <trkpt lat="45.1633" lon="5.92663">
        <ele>2395</ele>
        <time>2019-01-20T09:55:04.000Z</time>
      </trkpt>
      <trkpt lat="45.16337" lon="5.92663">
        <ele>2394</ele>
        <time>2019-01-20T09:55:05.000Z</time>
      </trkpt>
      <trkpt lat="45.16344" lon="5.92663">
        <ele>2393</ele>
        <time>2019-01-20T09:55:06.000Z</time>
      </trkpt>
      <trkpt lat="45.1635" lon="5.92664">
        <ele>2392</ele>
        <time>2019-01-20T09:55:07.000Z</time>
      </trkpt>
      <trkpt lat="45.16358" lon="5.92665">
        <ele>2392</ele>
        <time>2019-01-20T09:55:08.000Z</time>
      </trkpt>
      <trkpt lat="45.16361" lon="5.92665">
        <ele>2391</ele>
        <time>2019-01-20T09:55:09.000Z</time>
      </trkpt>
      <trkpt lat="45.16367" lon="5.92665">
        <ele>2390</ele>
        <time>2019-01-20T09:55:10.000Z</time>
      </trkpt>
      <trkpt lat="45.16373" lon="5.92667">
        <ele>2390</ele>
        <time>2019-01-20T09:55:11.000Z</time>
      </trkpt>
      <trkpt lat="45.16377" lon="5.9267">
        <ele>2389</ele>
        <time>2019-01-20T09:55:12.000Z</time>
      </trkpt>
      <trkpt lat="45.16381" lon="5.92675">
        <ele>2388</ele>
        <time>2019-01-20T09:55:13.000Z</time>
      </trkpt>
      <trkpt lat="45.16387" lon="5.92685">
        <ele>2388</ele>
        <time>2019-01-20T09:55:14.000Z</time>
      </trkpt>
      <trkpt lat="45.16388" lon="5.92688">
        <ele>2386.4</ele>
        <time>2019-01-20T09:55:15.000Z</time>
      </trkpt>
      <trkpt lat="45.1639" lon="5.92696">
        <ele>2386</ele>
        <time>2019-01-20T09:55:16.000Z</time>
      </trkpt>
      <trkpt lat="45.16389" lon="5.92706">
        <ele>2386</ele>
        <time>2019-01-20T09:55:17.000Z</time>
      </trkpt>
      <trkpt lat="45.16389" lon="5.92709">
        <ele>2382.4</ele>
        <time>2019-01-20T09:55:18.000Z</time>
      </trkpt>
      <trkpt lat="45.16386" lon="5.92717">
        <ele>2382.4</ele>
        <time>2019-01-20T09:55:19.000Z</time>
      </trkpt>
      <trkpt lat="45.16385" lon="5.9272">
        <ele>2375.6</ele>
        <time>2019-01-20T09:55:20.000Z</time>
      </trkpt>
      <trkpt lat="45.16383" lon="5.92725">
        <ele>2373</ele>
        <time>2019-01-20T09:55:21.000Z</time>
      </trkpt>
      <trkpt lat="45.16381" lon="5.92729">
        <ele>2371</ele>
        <time>2019-01-20T09:55:22.000Z</time>
      </trkpt>
      <trkpt lat="45.16378" lon="5.92733">
        <ele>2369</ele>
        <time>2019-01-20T09:55:23.000Z</time>
      </trkpt>
      <trkpt lat="45.16376" lon="5.92736">
        <ele>2367</ele>
        <time>2019-01-20T09:55:24.000Z</time>
      </trkpt>
      <trkpt lat="45.16374" lon="5.9274">
        <ele>2365</ele>
        <time>2019-01-20T09:55:25.000Z</time>
      </trkpt>
      <trkpt lat="45.16371" lon="5.92743">
        <ele>2363</ele>
        <time>2019-01-20T09:55:26.000Z</time>
      </trkpt>
      <trkpt lat="45.16368" lon="5.92747">
        <ele>2361</ele>
        <time>2019-01-20T09:55:27.000Z</time>
      </trkpt>
      <trkpt lat="45.16366" lon="5.92751">
        <ele>2359</ele>
        <time>2019-01-20T09:55:28.000Z</time>
      </trkpt>
      <trkpt lat="45.16363" lon="5.92755">
        <ele>2357</ele>
        <time>2019-01-20T09:55:29.000Z</time>
      </trkpt>
      <trkpt lat="45.16361" lon="5.92758">
        <ele>2355</ele>
        <time>2019-01-20T09:55:30.000Z</time>
      </trkpt>
      <trkpt lat="45.16357" lon="5.92762">
        <ele>2355</ele>
        <time>2019-01-20T09:55:31.000Z</time>
      </trkpt>
      <trkpt lat="45.16356" lon="5.92764">
        <ele>2351</ele>
        <time>2019-01-20T09:55:32.000Z</time>
      </trkpt>
      <trkpt lat="45.16353" lon="5.92768">
        <ele>2351</ele>
        <time>2019-01-20T09:55:33.000Z</time>
      </trkpt>
      <trkpt lat="45.16352" lon="5.9277">
        <ele>2345.6</ele>
        <time>2019-01-20T09:55:34.000Z</time>
      </trkpt>
      <trkpt lat="45.1635" lon="5.92774">
        <ele>2344</ele>
        <time>2019-01-20T09:55:35.000Z</time>
      </trkpt>
      <trkpt lat="45.16347" lon="5.9278">
        <ele>2341</ele>
        <time>2019-01-20T09:55:36.000Z</time>
      </trkpt>
      <trkpt lat="45.16346" lon="5.92782">
        <ele>2338</ele>
        <time>2019-01-20T09:55:37.000Z</time>
      </trkpt>
      <trkpt lat="45.16345" lon="5.92783">
        <ele>2336</ele>
        <time>2019-01-20T09:55:38.000Z</time>
      </trkpt>
      <trkpt lat="45.16344" lon="5.92788">
        <ele>2333</ele>
        <time>2019-01-20T09:55:39.000Z</time>
      </trkpt>
      <trkpt lat="45.16342" lon="5.92792">
        <ele>2330</ele>
        <time>2019-01-20T09:55:40.000Z</time>
      </trkpt>
      <trkpt lat="45.1634" lon="5.92797">
        <ele>2326</ele>
        <time>2019-01-20T09:55:41.000Z</time>
      </trkpt>
      <trkpt lat="45.1634" lon="5.92797">
        <ele>2323</ele>
        <time>2019-01-20T09:55:42.000Z</time>
      </trkpt>
      <trkpt lat="45.16338" lon="5.92813">
        <ele>2320</ele>
        <time>2019-01-20T09:55:43.000Z</time>
      </trkpt>
      <trkpt lat="45.16338" lon="5.92813">
        <ele>2315.6</ele>
        <time>2019-01-20T09:55:45.000Z</time>
      </trkpt>
      <trkpt lat="45.16332" lon="5.9283">
        <ele>2311</ele>
        <time>2019-01-20T09:55:46.000Z</time>
      </trkpt>
      <trkpt lat="45.16331" lon="5.92834">
        <ele>2309</ele>
        <time>2019-01-20T09:55:47.000Z</time>
      </trkpt>
      <trkpt lat="45.1633" lon="5.92838">
        <ele>2307</ele>
        <time>2019-01-20T09:55:48.000Z</time>
      </trkpt>
      <trkpt lat="45.16329" lon="5.92842">
        <ele>2304</ele>
        <time>2019-01-20T09:55:49.000Z</time>
      </trkpt>
      <trkpt lat="45.16329" lon="5.92842">
        <ele>2301</ele>
        <time>2019-01-20T09:55:50.000Z</time>
      </trkpt>
      <trkpt lat="45.16324" lon="5.92857">
        <ele>2298</ele>
        <time>2019-01-20T09:55:51.000Z</time>
      </trkpt>
      <trkpt lat="45.16324" lon="5.92857">
        <ele>2294.4</ele>
        <time>2019-01-20T09:55:53.000Z</time>
      </trkpt>
      <trkpt lat="45.16317" lon="5.92869">
        <ele>2293</ele>
        <time>2019-01-20T09:55:54.000Z</time>
      </trkpt>
      <trkpt lat="45.16317" lon="5.92869">
        <ele>2290</ele>
        <time>2019-01-20T09:55:55.000Z</time>
      </trkpt>
      <trkpt lat="45.16315" lon="5.92873">
        <ele>2287</ele>
        <time>2019-01-20T09:55:56.000Z</time>
      </trkpt>
      <trkpt lat="45.16313" lon="5.92878">
        <ele>2287</ele>
        <time>2019-01-20T09:55:57.000Z</time>
      </trkpt>
      <trkpt lat="45.16312" lon="5.92883">
        <ele>2283.6</ele>
        <time>2019-01-20T09:55:58.000Z</time>
      </trkpt>
      <trkpt lat="45.16305" lon="5.92893">
        <ele>2280</ele>
        <time>2019-01-20T09:55:59.000Z</time>
      </trkpt>
      <trkpt lat="45.16305" lon="5.92893">
        <ele>2278</ele>
        <time>2019-01-20T09:56:00.000Z</time>
      </trkpt>
      <trkpt lat="45.16302" lon="5.92896">
        <ele>2277</ele>
        <time>2019-01-20T09:56:01.000Z</time>
      </trkpt>
      <trkpt lat="45.16299" lon="5.92899">
        <ele>2274</ele>
        <time>2019-01-20T09:56:02.000Z</time>
      </trkpt>
      <trkpt lat="45.16296" lon="5.92901">
        <ele>2273</ele>
        <time>2019-01-20T09:56:03.000Z</time>
      </trkpt>
      <trkpt lat="45.16293" lon="5.92904">
        <ele>2271</ele>
        <time>2019-01-20T09:56:04.000Z</time>
      </trkpt>
      <trkpt lat="45.16289" lon="5.92907">
        <ele>2270</ele>
        <time>2019-01-20T09:56:05.000Z</time>
      </trkpt>
      <trkpt lat="45.16286" lon="5.9291">
        <ele>2268</ele>
        <time>2019-01-20T09:56:06.000Z</time>
      </trkpt>
      <trkpt lat="45.16282" lon="5.92914">
        <ele>2267</ele>
        <time>2019-01-20T09:56:07.000Z</time>
      </trkpt>
      <trkpt lat="45.16279" lon="5.92917">
        <ele>2267</ele>
        <time>2019-01-20T09:56:08.000Z</time>
      </trkpt>
      <trkpt lat="45.16275" lon="5.92921">
        <ele>2265.6</ele>
        <time>2019-01-20T09:56:09.000Z</time>
      </trkpt>
      <trkpt lat="45.16266" lon="5.92925">
        <ele>2264</ele>
        <time>2019-01-20T09:56:10.000Z</time>
      </trkpt>
      <trkpt lat="45.16266" lon="5.92925">
        <ele>2261.6</ele>
        <time>2019-01-20T09:56:12.000Z</time>
      </trkpt>
      <trkpt lat="45.16256" lon="5.92937">
        <ele>2261</ele>
        <time>2019-01-20T09:56:13.000Z</time>
      </trkpt>
      <trkpt lat="45.16256" lon="5.92937">
        <ele>2260</ele>
        <time>2019-01-20T09:56:14.000Z</time>
      </trkpt>
      <trkpt lat="45.1625" lon="5.92939">
        <ele>2258</ele>
        <time>2019-01-20T09:56:15.000Z</time>
      </trkpt>
      <trkpt lat="45.16244" lon="5.9294">
        <ele>2256</ele>
        <time>2019-01-20T09:56:16.000Z</time>
      </trkpt>
      <trkpt lat="45.16244" lon="5.9294">
        <ele>2254</ele>
        <time>2019-01-20T09:56:17.000Z</time>
      </trkpt>
      <trkpt lat="45.16236" lon="5.92946">
        <ele>2253</ele>
        <time>2019-01-20T09:56:18.000Z</time>
      </trkpt>
      <trkpt lat="45.16236" lon="5.92946">
        <ele>2253</ele>
        <time>2019-01-20T09:56:19.000Z</time>
      </trkpt>
      <trkpt lat="45.16236" lon="5.92946">
        <ele>2253</ele>
        <time>2019-01-20T09:56:20.000Z</time>
      </trkpt>
      <trkpt lat="45.16227" lon="5.92946">
        <ele>2253</ele>
        <time>2019-01-20T09:56:21.000Z</time>
      </trkpt>
      <trkpt lat="45.16224" lon="5.92955">
        <ele>2249</ele>
        <time>2019-01-20T09:57:28.000Z</time>
      </trkpt>
      <trkpt lat="45.16224" lon="5.92955">
        <ele>2249</ele>
        <time>2019-01-20T09:57:29.000Z</time>
      </trkpt>
      <trkpt lat="45.16223" lon="5.92956">
        <ele>2249</ele>
        <time>2019-01-20T09:57:30.000Z</time>
      </trkpt>
      <trkpt lat="45.16223" lon="5.92956">
        <ele>2249</ele>
        <time>2019-01-20T09:57:31.000Z</time>
      </trkpt>
      <trkpt lat="45.16221" lon="5.92958">
        <ele>2249</ele>
        <time>2019-01-20T09:57:32.000Z</time>
      </trkpt>
      <trkpt lat="45.16221" lon="5.92958">
        <ele>2249</ele>
        <time>2019-01-20T09:57:33.000Z</time>
      </trkpt>
      <trkpt lat="45.16218" lon="5.92959">
        <ele>2248</ele>
        <time>2019-01-20T09:57:34.000Z</time>
      </trkpt>
      <trkpt lat="45.16218" lon="5.92959">
        <ele>2248</ele>
        <time>2019-01-20T09:57:35.000Z</time>
      </trkpt>
      <trkpt lat="45.16218" lon="5.92965">
        <ele>2248</ele>
        <time>2019-01-20T09:57:36.000Z</time>
      </trkpt>
      <trkpt lat="45.16217" lon="5.92966">
        <ele>2246</ele>
        <time>2019-01-20T09:57:37.000Z</time>
      </trkpt>
      <trkpt lat="45.16216" lon="5.92969">
        <ele>2243</ele>
        <time>2019-01-20T09:57:38.000Z</time>
      </trkpt>
      <trkpt lat="45.16214" lon="5.92972">
        <ele>2243</ele>
        <time>2019-01-20T09:57:39.000Z</time>
      </trkpt>
      <trkpt lat="45.16211" lon="5.92974">
        <ele>2241.6</ele>
        <time>2019-01-20T09:57:40.000Z</time>
      </trkpt>
      <trkpt lat="45.16209" lon="5.92976">
        <ele>2241</ele>
        <time>2019-01-20T09:57:41.000Z</time>
      </trkpt>
      <trkpt lat="45.16209" lon="5.92976">
        <ele>2238</ele>
        <time>2019-01-20T09:57:42.000Z</time>
      </trkpt>
      <trkpt lat="45.16208" lon="5.92979">
        <ele>2235</ele>
        <time>2019-01-20T09:57:43.000Z</time>
      </trkpt>
      <trkpt lat="45.16207" lon="5.92983">
        <ele>2232</ele>
        <time>2019-01-20T09:57:44.000Z</time>
      </trkpt>
      <trkpt lat="45.16204" lon="5.9299">
        <ele>2229</ele>
        <time>2019-01-20T09:57:45.000Z</time>
      </trkpt>
      <trkpt lat="45.16202" lon="5.93013">
        <ele>2229</ele>
        <time>2019-01-20T09:57:46.000Z</time>
      </trkpt>
      <trkpt lat="45.16202" lon="5.93019">
        <ele>2228</ele>
        <time>2019-01-20T09:57:47.000Z</time>
      </trkpt>
      <trkpt lat="45.16202" lon="5.93025">
        <ele>2227</ele>
        <time>2019-01-20T09:57:48.000Z</time>
      </trkpt>
      <trkpt lat="45.16201" lon="5.93034">
        <ele>2223</ele>
        <time>2019-01-20T09:57:49.000Z</time>
      </trkpt>
      <trkpt lat="45.16201" lon="5.93034">
        <ele>2222</ele>
        <time>2019-01-20T09:57:50.000Z</time>
      </trkpt>
      <trkpt lat="45.16202" lon="5.93039">
        <ele>2222</ele>
        <time>2019-01-20T09:57:51.000Z</time>
      </trkpt>
      <trkpt lat="45.16202" lon="5.93044">
        <ele>2222</ele>
        <time>2019-01-20T09:57:52.000Z</time>
      </trkpt>
      <trkpt lat="45.16202" lon="5.93048">
        <ele>2221</ele>
        <time>2019-01-20T09:57:53.000Z</time>
      </trkpt>
      <trkpt lat="45.16201" lon="5.93052">
        <ele>2220</ele>
        <time>2019-01-20T09:57:54.000Z</time>
      </trkpt>
      <trkpt lat="45.16201" lon="5.93055">
        <ele>2219</ele>
        <time>2019-01-20T09:57:55.000Z</time>
      </trkpt>
      <trkpt lat="45.162" lon="5.93059">
        <ele>2218</ele>
        <time>2019-01-20T09:57:56.000Z</time>
      </trkpt>
      <trkpt lat="45.162" lon="5.93062">
        <ele>2217</ele>
        <time>2019-01-20T09:57:57.000Z</time>
      </trkpt>
      <trkpt lat="45.16199" lon="5.93066">
        <ele>2217</ele>
        <time>2019-01-20T09:57:58.000Z</time>
      </trkpt>
      <trkpt lat="45.16199" lon="5.93066">
        <ele>2217</ele>
        <time>2019-01-20T09:57:59.000Z</time>
      </trkpt>
      <trkpt lat="45.16198" lon="5.93078">
        <ele>2217</ele>
        <time>2019-01-20T09:58:00.000Z</time>
      </trkpt>
      <trkpt lat="45.16198" lon="5.93078">
        <ele>2217</ele>
        <time>2019-01-20T09:58:01.000Z</time>
      </trkpt>
      <trkpt lat="45.16197" lon="5.93081">
        <ele>2217</ele>
        <time>2019-01-20T09:58:02.000Z</time>
      </trkpt>
      <trkpt lat="45.16197" lon="5.93081">
        <ele>2217</ele>
        <time>2019-01-20T09:58:03.000Z</time>
      </trkpt>
      <trkpt lat="45.16195" lon="5.93084">
        <ele>2216</ele>
        <time>2019-01-20T09:58:04.000Z</time>
      </trkpt>
      <trkpt lat="45.16191" lon="5.93087">
        <ele>2213</ele>
        <time>2019-01-20T09:58:06.000Z</time>
      </trkpt>
      <trkpt lat="45.1619" lon="5.93089">
        <ele>2212</ele>
        <time>2019-01-20T09:58:07.000Z</time>
      </trkpt>
      <trkpt lat="45.16188" lon="5.9309">
        <ele>2210</ele>
        <time>2019-01-20T09:58:08.000Z</time>
      </trkpt>
      <trkpt lat="45.16188" lon="5.9309">
        <ele>2207</ele>
        <time>2019-01-20T09:58:10.000Z</time>
      </trkpt>
      <trkpt lat="45.16183" lon="5.93095">
        <ele>2203</ele>
        <time>2019-01-20T09:58:11.000Z</time>
      </trkpt>
      <trkpt lat="45.16182" lon="5.93098">
        <ele>2202</ele>
        <time>2019-01-20T09:58:12.000Z</time>
      </trkpt>
      <trkpt lat="45.16183" lon="5.93102">
        <ele>2201</ele>
        <time>2019-01-20T09:58:13.000Z</time>
      </trkpt>
      <trkpt lat="45.16183" lon="5.93106">
        <ele>2200</ele>
        <time>2019-01-20T09:58:14.000Z</time>
      </trkpt>
      <trkpt lat="45.16184" lon="5.93111">
        <ele>2199</ele>
        <time>2019-01-20T09:58:15.000Z</time>
      </trkpt>
      <trkpt lat="45.16184" lon="5.93117">
        <ele>2197</ele>
        <time>2019-01-20T09:58:16.000Z</time>
      </trkpt>
      <trkpt lat="45.16184" lon="5.93122">
        <ele>2196</ele>
        <time>2019-01-20T09:58:17.000Z</time>
      </trkpt>
      <trkpt lat="45.16184" lon="5.93126">
        <ele>2195</ele>
        <time>2019-01-20T09:58:18.000Z</time>
      </trkpt>
      <trkpt lat="45.16184" lon="5.9313">
        <ele>2195</ele>
        <time>2019-01-20T09:58:19.000Z</time>
      </trkpt>
      <trkpt lat="45.16183" lon="5.93134">
        <ele>2192</ele>
        <time>2019-01-20T09:58:20.000Z</time>
      </trkpt>
      <trkpt lat="45.16183" lon="5.93137">
        <ele>2191</ele>
        <time>2019-01-20T09:58:21.000Z</time>
      </trkpt>
      <trkpt lat="45.16183" lon="5.93137">
        <ele>2190</ele>
        <time>2019-01-20T09:58:22.000Z</time>
      </trkpt>
      <trkpt lat="45.16183" lon="5.93137">
        <ele>2190</ele>
        <time>2019-01-20T09:58:23.000Z</time>
      </trkpt>
      <trkpt lat="45.16183" lon="5.93137">
        <ele>2190</ele>
        <time>2019-01-20T09:58:25.000Z</time>
      </trkpt>
      <trkpt lat="45.16182" lon="5.9314">
        <ele>2189</ele>
        <time>2019-01-20T09:58:26.000Z</time>
      </trkpt>
      <trkpt lat="45.16182" lon="5.9314">
        <ele>2188</ele>
        <time>2019-01-20T09:58:27.000Z</time>
      </trkpt>
      <trkpt lat="45.16178" lon="5.9314">
        <ele>2187</ele>
        <time>2019-01-20T09:58:28.000Z</time>
      </trkpt>
      <trkpt lat="45.16177" lon="5.93139">
        <ele>2185</ele>
        <time>2019-01-20T09:58:29.000Z</time>
      </trkpt>
      <trkpt lat="45.16177" lon="5.93139">
        <ele>2183</ele>
        <time>2019-01-20T09:58:30.000Z</time>
      </trkpt>
      <trkpt lat="45.16171" lon="5.93138">
        <ele>2181</ele>
        <time>2019-01-20T09:58:31.000Z</time>
      </trkpt>
      <trkpt lat="45.16171" lon="5.93137">
        <ele>2181</ele>
        <time>2019-01-20T09:58:32.000Z</time>
      </trkpt>
      <trkpt lat="45.1617" lon="5.93136">
        <ele>2179</ele>
        <time>2019-01-20T09:58:33.000Z</time>
      </trkpt>
      <trkpt lat="45.16165" lon="5.93137">
        <ele>2176</ele>
        <time>2019-01-20T09:58:34.000Z</time>
      </trkpt>
      <trkpt lat="45.16164" lon="5.93137">
        <ele>2174</ele>
        <time>2019-01-20T09:58:35.000Z</time>
      </trkpt>
      <trkpt lat="45.16163" lon="5.93137">
        <ele>2171</ele>
        <time>2019-01-20T09:58:36.000Z</time>
      </trkpt>
      <trkpt lat="45.16161" lon="5.93138">
        <ele>2169</ele>
        <time>2019-01-20T09:58:37.000Z</time>
      </trkpt>
      <trkpt lat="45.16158" lon="5.93139">
        <ele>2167</ele>
        <time>2019-01-20T09:58:38.000Z</time>
      </trkpt>
      <trkpt lat="45.16155" lon="5.9314">
        <ele>2165</ele>
        <time>2019-01-20T09:58:39.000Z</time>
      </trkpt>
      <trkpt lat="45.16153" lon="5.9314">
        <ele>2163</ele>
        <time>2019-01-20T09:58:40.000Z</time>
      </trkpt>
      <trkpt lat="45.16153" lon="5.9314">
        <ele>2161</ele>
        <time>2019-01-20T09:58:41.000Z</time>
      </trkpt>
      <trkpt lat="45.16142" lon="5.93142">
        <ele>2160</ele>
        <time>2019-01-20T09:58:42.000Z</time>
      </trkpt>
      <trkpt lat="45.16139" lon="5.93139">
        <ele>2158.4</ele>
        <time>2019-01-20T09:58:44.000Z</time>
      </trkpt>
      <trkpt lat="45.16138" lon="5.93139">
        <ele>2158</ele>
        <time>2019-01-20T09:58:45.000Z</time>
      </trkpt>
      <trkpt lat="45.16137" lon="5.93139">
        <ele>2156</ele>
        <time>2019-01-20T09:58:46.000Z</time>
      </trkpt>
      <trkpt lat="45.16137" lon="5.93139">
        <ele>2154</ele>
        <time>2019-01-20T09:58:47.000Z</time>
      </trkpt>
      <trkpt lat="45.16133" lon="5.9314">
        <ele>2152</ele>
        <time>2019-01-20T09:58:48.000Z</time>
      </trkpt>
      <trkpt lat="45.16131" lon="5.93141">
        <ele>2151</ele>
        <time>2019-01-20T09:58:49.000Z</time>
      </trkpt>
      <trkpt lat="45.16128" lon="5.9314">
        <ele>2149</ele>
        <time>2019-01-20T09:58:50.000Z</time>
      </trkpt>
      <trkpt lat="45.16126" lon="5.93141">
        <ele>2147</ele>
        <time>2019-01-20T09:58:51.000Z</time>
      </trkpt>
      <trkpt lat="45.16123" lon="5.93141">
        <ele>2145</ele>
        <time>2019-01-20T09:58:52.000Z</time>
      </trkpt>
      <trkpt lat="45.16123" lon="5.93141">
        <ele>2144</ele>
        <time>2019-01-20T09:58:53.000Z</time>
      </trkpt>
      <trkpt lat="45.16123" lon="5.93141">
        <ele>2142.4</ele>
        <time>2019-01-20T09:58:55.000Z</time>
      </trkpt>
      <trkpt lat="45.16116" lon="5.93149">
        <ele>2140</ele>
        <time>2019-01-20T09:58:56.000Z</time>
      </trkpt>
      <trkpt lat="45.16116" lon="5.93149">
        <ele>2139</ele>
        <time>2019-01-20T09:58:57.000Z</time>
      </trkpt>
      <trkpt lat="45.16115" lon="5.93158">
        <ele>2139</ele>
        <time>2019-01-20T09:58:58.000Z</time>
      </trkpt>
      <trkpt lat="45.16115" lon="5.93158">
        <ele>2139</ele>
        <time>2019-01-20T09:58:59.000Z</time>
      </trkpt>
      <trkpt lat="45.16115" lon="5.93158">
        <ele>2139</ele>
        <time>2019-01-20T09:59:00.000Z</time>
      </trkpt>
      <trkpt lat="45.16115" lon="5.93158">
        <ele>2139</ele>
        <time>2019-01-20T09:59:01.000Z</time>
      </trkpt>
      <trkpt lat="45.16115" lon="5.93158">
        <ele>2138.4</ele>
        <time>2019-01-20T09:59:03.000Z</time>
      </trkpt>
      <trkpt lat="45.16114" lon="5.93156">
        <ele>2138</ele>
        <time>2019-01-20T09:59:04.000Z</time>
      </trkpt>
      <trkpt lat="45.16112" lon="5.93155">
        <ele>2137</ele>
        <time>2019-01-20T09:59:05.000Z</time>
      </trkpt>
      <trkpt lat="45.16111" lon="5.93153">
        <ele>2136</ele>
        <time>2019-01-20T09:59:06.000Z</time>
      </trkpt>
      <trkpt lat="45.16109" lon="5.93152">
        <ele>2135</ele>
        <time>2019-01-20T09:59:07.000Z</time>
      </trkpt>
      <trkpt lat="45.16108" lon="5.9315">
        <ele>2133</ele>
        <time>2019-01-20T09:59:08.000Z</time>
      </trkpt>
      <trkpt lat="45.16105" lon="5.9315">
        <ele>2131</ele>
        <time>2019-01-20T09:59:09.000Z</time>
      </trkpt>
      <trkpt lat="45.16102" lon="5.9315">
        <ele>2130</ele>
        <time>2019-01-20T09:59:10.000Z</time>
      </trkpt>
      <trkpt lat="45.16098" lon="5.93149">
        <ele>2128</ele>
        <time>2019-01-20T09:59:11.000Z</time>
      </trkpt>
      <trkpt lat="45.16095" lon="5.93149">
        <ele>2126</ele>
        <time>2019-01-20T09:59:12.000Z</time>
      </trkpt>
      <trkpt lat="45.16092" lon="5.93148">
        <ele>2125</ele>
        <time>2019-01-20T09:59:13.000Z</time>
      </trkpt>
      <trkpt lat="45.16089" lon="5.93147">
        <ele>2123</ele>
        <time>2019-01-20T09:59:14.000Z</time>
      </trkpt>
      <trkpt lat="45.16089" lon="5.93147">
        <ele>2122</ele>
        <time>2019-01-20T09:59:15.000Z</time>
      </trkpt>
      <trkpt lat="45.16078" lon="5.93148">
        <ele>2119</ele>
        <time>2019-01-20T09:59:16.000Z</time>
      </trkpt>
      <trkpt lat="45.16078" lon="5.93148">
        <ele>2116</ele>
        <time>2019-01-20T09:59:18.000Z</time>
      </trkpt>
      <trkpt lat="45.16067" lon="5.93151">
        <ele>2113</ele>
        <time>2019-01-20T09:59:19.000Z</time>
      </trkpt>
      <trkpt lat="45.16065" lon="5.93151">
        <ele>2110</ele>
        <time>2019-01-20T09:59:20.000Z</time>
      </trkpt>
      <trkpt lat="45.16058" lon="5.9315">
        <ele>2108.4</ele>
        <time>2019-01-20T09:59:22.000Z</time>
      </trkpt>
      <trkpt lat="45.16058" lon="5.9315">
        <ele>2108</ele>
        <time>2019-01-20T09:59:23.000Z</time>
      </trkpt>
      <trkpt lat="45.16054" lon="5.93151">
        <ele>2107</ele>
        <time>2019-01-20T09:59:24.000Z</time>
      </trkpt>
      <trkpt lat="45.16051" lon="5.93151">
        <ele>2104</ele>
        <time>2019-01-20T09:59:25.000Z</time>
      </trkpt>
      <trkpt lat="45.16047" lon="5.93152">
        <ele>2101</ele>
        <time>2019-01-20T09:59:26.000Z</time>
      </trkpt>
      <trkpt lat="45.16041" lon="5.93151">
        <ele>2098</ele>
        <time>2019-01-20T09:59:27.000Z</time>
      </trkpt>
      <trkpt lat="45.16034" lon="5.93151">
        <ele>2098</ele>
        <time>2019-01-20T09:59:28.000Z</time>
      </trkpt>
      <trkpt lat="45.16028" lon="5.9315">
        <ele>2094.4</ele>
        <time>2019-01-20T09:59:29.000Z</time>
      </trkpt>
      <trkpt lat="45.16022" lon="5.93149">
        <ele>2090</ele>
        <time>2019-01-20T09:59:30.000Z</time>
      </trkpt>
      <trkpt lat="45.16019" lon="5.93148">
        <ele>2089</ele>
        <time>2019-01-20T09:59:31.000Z</time>
      </trkpt>
      <trkpt lat="45.16016" lon="5.93148">
        <ele>2087</ele>
        <time>2019-01-20T09:59:32.000Z</time>
      </trkpt>
      <trkpt lat="45.16007" lon="5.93145">
        <ele>2086</ele>
        <time>2019-01-20T09:59:33.000Z</time>
      </trkpt>
      <trkpt lat="45.16003" lon="5.93144">
        <ele>2084</ele>
        <time>2019-01-20T09:59:34.000Z</time>
      </trkpt>
      <trkpt lat="45.1599" lon="5.93137">
        <ele>2082</ele>
        <time>2019-01-20T09:59:35.000Z</time>
      </trkpt>
      <trkpt lat="45.15984" lon="5.93133">
        <ele>2082</ele>
        <time>2019-01-20T09:59:36.000Z</time>
      </trkpt>
      <trkpt lat="45.15978" lon="5.93129">
        <ele>2080.4</ele>
        <time>2019-01-20T09:59:37.000Z</time>
      </trkpt>
      <trkpt lat="45.15971" lon="5.93126">
        <ele>2079</ele>
        <time>2019-01-20T09:59:38.000Z</time>
      </trkpt>
      <trkpt lat="45.15969" lon="5.93126">
        <ele>2078</ele>
        <time>2019-01-20T09:59:39.000Z</time>
      </trkpt>
      <trkpt lat="45.15961" lon="5.93125">
        <ele>2076.4</ele>
        <time>2019-01-20T09:59:41.000Z</time>
      </trkpt>
      <trkpt lat="45.15956" lon="5.93127">
        <ele>2076</ele>
        <time>2019-01-20T09:59:42.000Z</time>
      </trkpt>
      <trkpt lat="45.15955" lon="5.93127">
        <ele>2076</ele>
        <time>2019-01-20T09:59:43.000Z</time>
      </trkpt>
      <trkpt lat="45.15954" lon="5.93127">
        <ele>2075</ele>
        <time>2019-01-20T09:59:44.000Z</time>
      </trkpt>
      <trkpt lat="45.15951" lon="5.93128">
        <ele>2074</ele>
        <time>2019-01-20T09:59:45.000Z</time>
      </trkpt>
      <trkpt lat="45.15947" lon="5.93129">
        <ele>2074</ele>
        <time>2019-01-20T09:59:46.000Z</time>
      </trkpt>
      <trkpt lat="45.15944" lon="5.9313">
        <ele>2073</ele>
        <time>2019-01-20T09:59:47.000Z</time>
      </trkpt>
      <trkpt lat="45.15944" lon="5.9313">
        <ele>2072</ele>
        <time>2019-01-20T09:59:48.000Z</time>
      </trkpt>
      <trkpt lat="45.15935" lon="5.93132">
        <ele>2072</ele>
        <time>2019-01-20T09:59:49.000Z</time>
      </trkpt>
      <trkpt lat="45.15935" lon="5.93132">
        <ele>2071</ele>
        <time>2019-01-20T09:59:51.000Z</time>
      </trkpt>
      <trkpt lat="45.15925" lon="5.93132">
        <ele>2071</ele>
        <time>2019-01-20T09:59:52.000Z</time>
      </trkpt>
      <trkpt lat="45.15925" lon="5.93132">
        <ele>2070</ele>
        <time>2019-01-20T09:59:53.000Z</time>
      </trkpt>
      <trkpt lat="45.15919" lon="5.9313">
        <ele>2069</ele>
        <time>2019-01-20T09:59:54.000Z</time>
      </trkpt>
      <trkpt lat="45.15912" lon="5.93127">
        <ele>2069</ele>
        <time>2019-01-20T09:59:55.000Z</time>
      </trkpt>
      <trkpt lat="45.15908" lon="5.93127">
        <ele>2066</ele>
        <time>2019-01-20T09:59:56.000Z</time>
      </trkpt>
      <trkpt lat="45.15904" lon="5.93126">
        <ele>2065</ele>
        <time>2019-01-20T09:59:57.000Z</time>
      </trkpt>
      <trkpt lat="45.15902" lon="5.93126">
        <ele>2063</ele>
        <time>2019-01-20T09:59:58.000Z</time>
      </trkpt>
      <trkpt lat="45.15899" lon="5.93125">
        <ele>2063</ele>
        <time>2019-01-20T09:59:59.000Z</time>
      </trkpt>
      <trkpt lat="45.15897" lon="5.93124">
        <ele>2061</ele>
        <time>2019-01-20T10:00:00.000Z</time>
      </trkpt>
      <trkpt lat="45.15897" lon="5.93124">
        <ele>2060</ele>
        <time>2019-01-20T10:00:01.000Z</time>
      </trkpt>
      <trkpt lat="45.15884" lon="5.93121">
        <ele>2057</ele>
        <time>2019-01-20T10:00:02.000Z</time>
      </trkpt>
      <trkpt lat="45.15884" lon="5.93121">
        <ele>2056</ele>
        <time>2019-01-20T10:00:03.000Z</time>
      </trkpt>
      <trkpt lat="45.15884" lon="5.93121">
        <ele>2055</ele>
        <time>2019-01-20T10:00:04.000Z</time>
      </trkpt>
      <trkpt lat="45.15884" lon="5.93121">
        <ele>2054</ele>
        <time>2019-01-20T10:00:05.000Z</time>
      </trkpt>
      <trkpt lat="45.15884" lon="5.93121">
        <ele>2054</ele>
        <time>2019-01-20T10:00:06.000Z</time>
      </trkpt>
      <trkpt lat="45.15884" lon="5.93121">
        <ele>2053</ele>
        <time>2019-01-20T10:00:07.000Z</time>
      </trkpt>
      <trkpt lat="45.15884" lon="5.93121">
        <ele>2053</ele>
        <time>2019-01-20T10:00:09.000Z</time>
      </trkpt>
      <trkpt lat="45.15881" lon="5.9313">
        <ele>2053</ele>
        <time>2019-01-20T10:00:10.000Z</time>
      </trkpt>
      <trkpt lat="45.15879" lon="5.93128">
        <ele>2052</ele>
        <time>2019-01-20T10:00:11.000Z</time>
      </trkpt>
      <trkpt lat="45.15875" lon="5.93124">
        <ele>2052</ele>
        <time>2019-01-20T10:00:12.000Z</time>
      </trkpt>
      <trkpt lat="45.15873" lon="5.93122">
        <ele>2051</ele>
        <time>2019-01-20T10:00:13.000Z</time>
      </trkpt>
      <trkpt lat="45.15871" lon="5.93121">
        <ele>2049</ele>
        <time>2019-01-20T10:00:14.000Z</time>
      </trkpt>
      <trkpt lat="45.15869" lon="5.9312">
        <ele>2047</ele>
        <time>2019-01-20T10:00:15.000Z</time>
      </trkpt>
      <trkpt lat="45.15866" lon="5.93127">
        <ele>2046</ele>
        <time>2019-01-20T10:00:16.000Z</time>
      </trkpt>
      <trkpt lat="45.15866" lon="5.93136">
        <ele>2046</ele>
        <time>2019-01-20T10:00:17.000Z</time>
      </trkpt>
      <trkpt lat="45.15867" lon="5.93146">
        <ele>2044</ele>
        <time>2019-01-20T10:00:18.000Z</time>
      </trkpt>
      <trkpt lat="45.15867" lon="5.93155">
        <ele>2043</ele>
        <time>2019-01-20T10:00:19.000Z</time>
      </trkpt>
      <trkpt lat="45.15867" lon="5.93155">
        <ele>2041</ele>
        <time>2019-01-20T10:00:20.000Z</time>
      </trkpt>
      <trkpt lat="45.15867" lon="5.93155">
        <ele>2041</ele>
        <time>2019-01-20T10:00:21.000Z</time>
      </trkpt>
      <trkpt lat="45.15867" lon="5.93155">
        <ele>2040</ele>
        <time>2019-01-20T10:00:22.000Z</time>
      </trkpt>
      <trkpt lat="45.15867" lon="5.93155">
        <ele>2040</ele>
        <time>2019-01-20T10:00:23.000Z</time>
      </trkpt>
      <trkpt lat="45.15867" lon="5.93155">
        <ele>2040</ele>
        <time>2019-01-20T10:00:24.000Z</time>
      </trkpt>
      <trkpt lat="45.15867" lon="5.93155">
        <ele>2040</ele>
        <time>2019-01-20T10:00:25.000Z</time>
      </trkpt>
      <trkpt lat="45.15867" lon="5.93155">
        <ele>2040</ele>
        <time>2019-01-20T10:00:26.000Z</time>
      </trkpt>
      <trkpt lat="45.15862" lon="5.93152">
        <ele>2040</ele>
        <time>2019-01-20T10:00:27.000Z</time>
      </trkpt>
      <trkpt lat="45.15862" lon="5.93153">
        <ele>2040</ele>
        <time>2019-01-20T10:00:29.000Z</time>
      </trkpt>
      <trkpt lat="45.15862" lon="5.93153">
        <ele>2039</ele>
        <time>2019-01-20T10:06:07.000Z</time>
      </trkpt>
      <trkpt lat="45.15857" lon="5.93165">
        <ele>2040</ele>
        <time>2019-01-20T10:06:08.000Z</time>
      </trkpt>
      <trkpt lat="45.15857" lon="5.93167">
        <ele>2040</ele>
        <time>2019-01-20T10:06:09.000Z</time>
      </trkpt>
      <trkpt lat="45.15857" lon="5.93167">
        <ele>2040</ele>
        <time>2019-01-20T10:06:10.000Z</time>
      </trkpt>
      <trkpt lat="45.15856" lon="5.93169">
        <ele>2039</ele>
        <time>2019-01-20T10:06:11.000Z</time>
      </trkpt>
      <trkpt lat="45.15856" lon="5.93169">
        <ele>2039</ele>
        <time>2019-01-20T10:06:12.000Z</time>
      </trkpt>
      <trkpt lat="45.15854" lon="5.93173">
        <ele>2039</ele>
        <time>2019-01-20T10:06:13.000Z</time>
      </trkpt>
      <trkpt lat="45.15853" lon="5.93175">
        <ele>2039</ele>
        <time>2019-01-20T10:06:14.000Z</time>
      </trkpt>
      <trkpt lat="45.15853" lon="5.93175">
        <ele>2039</ele>
        <time>2019-01-20T10:06:15.000Z</time>
      </trkpt>
      <trkpt lat="45.15851" lon="5.93178">
        <ele>2039</ele>
        <time>2019-01-20T10:06:16.000Z</time>
      </trkpt>
      <trkpt lat="45.15851" lon="5.93178">
        <ele>2039</ele>
        <time>2019-01-20T10:06:17.000Z</time>
      </trkpt>
      <trkpt lat="45.15848" lon="5.93182">
        <ele>2039</ele>
        <time>2019-01-20T10:06:18.000Z</time>
      </trkpt>
      <trkpt lat="45.15848" lon="5.93182">
        <ele>2039</ele>
        <time>2019-01-20T10:06:19.000Z</time>
      </trkpt>
      <trkpt lat="45.15846" lon="5.93186">
        <ele>2039</ele>
        <time>2019-01-20T10:06:20.000Z</time>
      </trkpt>
      <trkpt lat="45.15846" lon="5.93186">
        <ele>2039</ele>
        <time>2019-01-20T10:06:21.000Z</time>
      </trkpt>
      <trkpt lat="45.15844" lon="5.93189">
        <ele>2039</ele>
        <time>2019-01-20T10:06:22.000Z</time>
      </trkpt>
      <trkpt lat="45.15844" lon="5.93189">
        <ele>2041</ele>
        <time>2019-01-20T10:06:23.000Z</time>
      </trkpt>
      <trkpt lat="45.15841" lon="5.93192">
        <ele>2041</ele>
        <time>2019-01-20T10:06:24.000Z</time>
      </trkpt>
      <trkpt lat="45.15841" lon="5.93192">
        <ele>2041</ele>
        <time>2019-01-20T10:06:25.000Z</time>
      </trkpt>
      <trkpt lat="45.15839" lon="5.93196">
        <ele>2041</ele>
        <time>2019-01-20T10:06:26.000Z</time>
      </trkpt>
      <trkpt lat="45.15839" lon="5.93196">
        <ele>2040.4</ele>
        <time>2019-01-20T10:06:27.000Z</time>
      </trkpt>
      <trkpt lat="45.15837" lon="5.93199">
        <ele>2040</ele>
        <time>2019-01-20T10:06:28.000Z</time>
      </trkpt>
      <trkpt lat="45.15837" lon="5.93199">
        <ele>2040</ele>
        <time>2019-01-20T10:06:29.000Z</time>
      </trkpt>
      <trkpt lat="45.15835" lon="5.93202">
        <ele>2040</ele>
        <time>2019-01-20T10:06:30.000Z</time>
      </trkpt>
      <trkpt lat="45.15835" lon="5.93202">
        <ele>2040</ele>
        <time>2019-01-20T10:06:31.000Z</time>
      </trkpt>
      <trkpt lat="45.15833" lon="5.93206">
        <ele>2040</ele>
        <time>2019-01-20T10:06:32.000Z</time>
      </trkpt>
      <trkpt lat="45.15833" lon="5.93206">
        <ele>2040</ele>
        <time>2019-01-20T10:06:33.000Z</time>
      </trkpt>
      <trkpt lat="45.1583" lon="5.93209">
        <ele>2040</ele>
        <time>2019-01-20T10:06:34.000Z</time>
      </trkpt>
      <trkpt lat="45.15829" lon="5.93211">
        <ele>2040</ele>
        <time>2019-01-20T10:06:35.000Z</time>
      </trkpt>
      <trkpt lat="45.15829" lon="5.93211">
        <ele>2040</ele>
        <time>2019-01-20T10:06:36.000Z</time>
      </trkpt>
      <trkpt lat="45.15827" lon="5.93215">
        <ele>2040</ele>
        <time>2019-01-20T10:06:37.000Z</time>
      </trkpt>
      <trkpt lat="45.15827" lon="5.93215">
        <ele>2040</ele>
        <time>2019-01-20T10:06:38.000Z</time>
      </trkpt>
      <trkpt lat="45.15825" lon="5.93218">
        <ele>2040</ele>
        <time>2019-01-20T10:06:39.000Z</time>
      </trkpt>
      <trkpt lat="45.15825" lon="5.93218">
        <ele>2040</ele>
        <time>2019-01-20T10:06:40.000Z</time>
      </trkpt>
      <trkpt lat="45.15823" lon="5.93221">
        <ele>2040</ele>
        <time>2019-01-20T10:06:41.000Z</time>
      </trkpt>
      <trkpt lat="45.15823" lon="5.93221">
        <ele>2040</ele>
        <time>2019-01-20T10:06:42.000Z</time>
      </trkpt>
      <trkpt lat="45.15821" lon="5.93224">
        <ele>2040</ele>
        <time>2019-01-20T10:06:43.000Z</time>
      </trkpt>
      <trkpt lat="45.15821" lon="5.93224">
        <ele>2040</ele>
        <time>2019-01-20T10:06:44.000Z</time>
      </trkpt>
      <trkpt lat="45.15819" lon="5.93227">
        <ele>2040</ele>
        <time>2019-01-20T10:06:45.000Z</time>
      </trkpt>
      <trkpt lat="45.15819" lon="5.93227">
        <ele>2040</ele>
        <time>2019-01-20T10:06:46.000Z</time>
      </trkpt>
      <trkpt lat="45.15818" lon="5.9323">
        <ele>2040</ele>
        <time>2019-01-20T10:06:47.000Z</time>
      </trkpt>
      <trkpt lat="45.15818" lon="5.9323">
        <ele>2040</ele>
        <time>2019-01-20T10:06:48.000Z</time>
      </trkpt>
      <trkpt lat="45.15816" lon="5.93232">
        <ele>2040</ele>
        <time>2019-01-20T10:06:49.000Z</time>
      </trkpt>
      <trkpt lat="45.15816" lon="5.93232">
        <ele>2040</ele>
        <time>2019-01-20T10:06:50.000Z</time>
      </trkpt>
      <trkpt lat="45.15815" lon="5.93235">
        <ele>2040</ele>
        <time>2019-01-20T10:06:51.000Z</time>
      </trkpt>
      <trkpt lat="45.15815" lon="5.93235">
        <ele>2040</ele>
        <time>2019-01-20T10:06:52.000Z</time>
      </trkpt>
      <trkpt lat="45.15813" lon="5.93237">
        <ele>2040</ele>
        <time>2019-01-20T10:06:53.000Z</time>
      </trkpt>
      <trkpt lat="45.15813" lon="5.93237">
        <ele>2040</ele>
        <time>2019-01-20T10:06:54.000Z</time>
      </trkpt>
      <trkpt lat="45.15812" lon="5.9324">
        <ele>2040</ele>
        <time>2019-01-20T10:06:55.000Z</time>
      </trkpt>
      <trkpt lat="45.15812" lon="5.9324">
        <ele>2040</ele>
        <time>2019-01-20T10:06:56.000Z</time>
      </trkpt>
      <trkpt lat="45.1581" lon="5.93244">
        <ele>2040</ele>
        <time>2019-01-20T10:06:57.000Z</time>
      </trkpt>
      <trkpt lat="45.1581" lon="5.93244">
        <ele>2040</ele>
        <time>2019-01-20T10:06:58.000Z</time>
      </trkpt>
      <trkpt lat="45.15809" lon="5.93246">
        <ele>2040</ele>
        <time>2019-01-20T10:06:59.000Z</time>
      </trkpt>
      <trkpt lat="45.15809" lon="5.93246">
        <ele>2041</ele>
        <time>2019-01-20T10:07:00.000Z</time>
      </trkpt>
      <trkpt lat="45.15807" lon="5.9325">
        <ele>2041</ele>
        <time>2019-01-20T10:07:01.000Z</time>
      </trkpt>
      <trkpt lat="45.15807" lon="5.9325">
        <ele>2041</ele>
        <time>2019-01-20T10:07:02.000Z</time>
      </trkpt>
      <trkpt lat="45.15806" lon="5.93253">
        <ele>2041</ele>
        <time>2019-01-20T10:07:03.000Z</time>
      </trkpt>
      <trkpt lat="45.15804" lon="5.93256">
        <ele>2041</ele>
        <time>2019-01-20T10:07:05.000Z</time>
      </trkpt>
      <trkpt lat="45.15804" lon="5.93256">
        <ele>2041</ele>
        <time>2019-01-20T10:07:06.000Z</time>
      </trkpt>
      <trkpt lat="45.15803" lon="5.93259">
        <ele>2041</ele>
        <time>2019-01-20T10:07:07.000Z</time>
      </trkpt>
      <trkpt lat="45.15803" lon="5.93259">
        <ele>2041</ele>
        <time>2019-01-20T10:07:08.000Z</time>
      </trkpt>
      <trkpt lat="45.15802" lon="5.93262">
        <ele>2041</ele>
        <time>2019-01-20T10:07:09.000Z</time>
      </trkpt>
      <trkpt lat="45.15802" lon="5.93262">
        <ele>2041</ele>
        <time>2019-01-20T10:07:10.000Z</time>
      </trkpt>
      <trkpt lat="45.158" lon="5.93266">
        <ele>2041</ele>
        <time>2019-01-20T10:07:11.000Z</time>
      </trkpt>
      <trkpt lat="45.158" lon="5.93266">
        <ele>2041</ele>
        <time>2019-01-20T10:07:12.000Z</time>
      </trkpt>
      <trkpt lat="45.15799" lon="5.93269">
        <ele>2041</ele>
        <time>2019-01-20T10:07:13.000Z</time>
      </trkpt>
      <trkpt lat="45.15799" lon="5.93269">
        <ele>2041</ele>
        <time>2019-01-20T10:07:14.000Z</time>
      </trkpt>
      <trkpt lat="45.15798" lon="5.93273">
        <ele>2041</ele>
        <time>2019-01-20T10:07:15.000Z</time>
      </trkpt>
      <trkpt lat="45.15798" lon="5.93273">
        <ele>2041</ele>
        <time>2019-01-20T10:07:16.000Z</time>
      </trkpt>
      <trkpt lat="45.15797" lon="5.93277">
        <ele>2041</ele>
        <time>2019-01-20T10:07:17.000Z</time>
      </trkpt>
      <trkpt lat="45.15797" lon="5.93277">
        <ele>2041</ele>
        <time>2019-01-20T10:07:18.000Z</time>
      </trkpt>
      <trkpt lat="45.15795" lon="5.9328">
        <ele>2041</ele>
        <time>2019-01-20T10:07:19.000Z</time>
      </trkpt>
      <trkpt lat="45.15795" lon="5.9328">
        <ele>2041</ele>
        <time>2019-01-20T10:07:20.000Z</time>
      </trkpt>
      <trkpt lat="45.15793" lon="5.93284">
        <ele>2041</ele>
        <time>2019-01-20T10:07:21.000Z</time>
      </trkpt>
      <trkpt lat="45.15793" lon="5.93284">
        <ele>2041</ele>
        <time>2019-01-20T10:07:22.000Z</time>
      </trkpt>
      <trkpt lat="45.15791" lon="5.93289">
        <ele>2041</ele>
        <time>2019-01-20T10:07:23.000Z</time>
      </trkpt>
      <trkpt lat="45.15791" lon="5.93289">
        <ele>2041</ele>
        <time>2019-01-20T10:07:24.000Z</time>
      </trkpt>
      <trkpt lat="45.1579" lon="5.93292">
        <ele>2041</ele>
        <time>2019-01-20T10:07:25.000Z</time>
      </trkpt>
      <trkpt lat="45.1579" lon="5.93292">
        <ele>2041</ele>
        <time>2019-01-20T10:07:26.000Z</time>
      </trkpt>
      <trkpt lat="45.1579" lon="5.93292">
        <ele>2041</ele>
        <time>2019-01-20T10:07:27.000Z</time>
      </trkpt>
      <trkpt lat="45.1579" lon="5.93292">
        <ele>2041</ele>
        <time>2019-01-20T10:07:28.000Z</time>
      </trkpt>
      <trkpt lat="45.1579" lon="5.93292">
        <ele>2041</ele>
        <time>2019-01-20T10:07:29.000Z</time>
      </trkpt>
      <trkpt lat="45.1579" lon="5.93292">
        <ele>2041</ele>
        <time>2019-01-20T10:07:30.000Z</time>
      </trkpt>
      <trkpt lat="45.1579" lon="5.93292">
        <ele>2041</ele>
        <time>2019-01-20T10:07:31.000Z</time>
      </trkpt>
      <trkpt lat="45.1579" lon="5.93292">
        <ele>2041</ele>
        <time>2019-01-20T10:07:32.000Z</time>
      </trkpt>
      <trkpt lat="45.1579" lon="5.93292">
        <ele>2041</ele>
        <time>2019-01-20T10:07:33.000Z</time>
      </trkpt>
      <trkpt lat="45.1579" lon="5.93292">
        <ele>2041</ele>
        <time>2019-01-20T10:07:34.000Z</time>
      </trkpt>
      <trkpt lat="45.1579" lon="5.93292">
        <ele>2041</ele>
        <time>2019-01-20T10:07:35.000Z</time>
      </trkpt>
      <trkpt lat="45.1579" lon="5.93292">
        <ele>2041</ele>
        <time>2019-01-20T10:07:36.000Z</time>
      </trkpt>
      <trkpt lat="45.15789" lon="5.93296">
        <ele>2041</ele>
        <time>2019-01-20T10:07:37.000Z</time>
      </trkpt>
      <trkpt lat="45.15789" lon="5.93296">
        <ele>2041</ele>
        <time>2019-01-20T10:07:38.000Z</time>
      </trkpt>
      <trkpt lat="45.15788" lon="5.93299">
        <ele>2041</ele>
        <time>2019-01-20T10:07:39.000Z</time>
      </trkpt>
      <trkpt lat="45.15788" lon="5.93299">
        <ele>2041</ele>
        <time>2019-01-20T10:07:40.000Z</time>
      </trkpt>
      <trkpt lat="45.15787" lon="5.93303">
        <ele>2041</ele>
        <time>2019-01-20T10:07:41.000Z</time>
      </trkpt>
      <trkpt lat="45.15786" lon="5.93306">
        <ele>2041.6</ele>
        <time>2019-01-20T10:07:43.000Z</time>
      </trkpt>
      <trkpt lat="45.15786" lon="5.93306">
        <ele>2042</ele>
        <time>2019-01-20T10:07:44.000Z</time>
      </trkpt>
      <trkpt lat="45.15785" lon="5.9331">
        <ele>2042</ele>
        <time>2019-01-20T10:07:45.000Z</time>
      </trkpt>
      <trkpt lat="45.15785" lon="5.9331">
        <ele>2042</ele>
        <time>2019-01-20T10:07:46.000Z</time>
      </trkpt>
      <trkpt lat="45.15784" lon="5.93314">
        <ele>2042</ele>
        <time>2019-01-20T10:07:47.000Z</time>
      </trkpt>
      <trkpt lat="45.15784" lon="5.93314">
        <ele>2042</ele>
        <time>2019-01-20T10:07:48.000Z</time>
      </trkpt>
      <trkpt lat="45.15783" lon="5.93317">
        <ele>2041</ele>
        <time>2019-01-20T10:07:49.000Z</time>
      </trkpt>
      <trkpt lat="45.15783" lon="5.93317">
        <ele>2041</ele>
        <time>2019-01-20T10:07:50.000Z</time>
      </trkpt>
      <trkpt lat="45.15783" lon="5.93321">
        <ele>2041</ele>
        <time>2019-01-20T10:07:51.000Z</time>
      </trkpt>
      <trkpt lat="45.15783" lon="5.93321">
        <ele>2041</ele>
        <time>2019-01-20T10:07:52.000Z</time>
      </trkpt>
      <trkpt lat="45.15782" lon="5.93325">
        <ele>2041</ele>
        <time>2019-01-20T10:07:53.000Z</time>
      </trkpt>
      <trkpt lat="45.15782" lon="5.93325">
        <ele>2041</ele>
        <time>2019-01-20T10:07:54.000Z</time>
      </trkpt>
      <trkpt lat="45.15782" lon="5.9333">
        <ele>2041</ele>
        <time>2019-01-20T10:07:55.000Z</time>
      </trkpt>
      <trkpt lat="45.15782" lon="5.9333">
        <ele>2041</ele>
        <time>2019-01-20T10:07:56.000Z</time>
      </trkpt>
      <trkpt lat="45.15782" lon="5.93334">
        <ele>2041</ele>
        <time>2019-01-20T10:07:57.000Z</time>
      </trkpt>
      <trkpt lat="45.15782" lon="5.93334">
        <ele>2042</ele>
        <time>2019-01-20T10:07:58.000Z</time>
      </trkpt>
      <trkpt lat="45.15781" lon="5.93338">
        <ele>2042</ele>
        <time>2019-01-20T10:07:59.000Z</time>
      </trkpt>
      <trkpt lat="45.15781" lon="5.93338">
        <ele>2042</ele>
        <time>2019-01-20T10:08:00.000Z</time>
      </trkpt>
      <trkpt lat="45.15781" lon="5.93342">
        <ele>2042</ele>
        <time>2019-01-20T10:08:01.000Z</time>
      </trkpt>
      <trkpt lat="45.15781" lon="5.93342">
        <ele>2042.4</ele>
        <time>2019-01-20T10:08:02.000Z</time>
      </trkpt>
      <trkpt lat="45.1578" lon="5.93346">
        <ele>2043</ele>
        <time>2019-01-20T10:08:03.000Z</time>
      </trkpt>
      <trkpt lat="45.1578" lon="5.93346">
        <ele>2043</ele>
        <time>2019-01-20T10:08:04.000Z</time>
      </trkpt>
      <trkpt lat="45.15778" lon="5.93349">
        <ele>2043</ele>
        <time>2019-01-20T10:08:05.000Z</time>
      </trkpt>
      <trkpt lat="45.15778" lon="5.93349">
        <ele>2043</ele>
        <time>2019-01-20T10:08:06.000Z</time>
      </trkpt>
      <trkpt lat="45.15777" lon="5.93352">
        <ele>2043</ele>
        <time>2019-01-20T10:08:07.000Z</time>
      </trkpt>
      <trkpt lat="45.15777" lon="5.93352">
        <ele>2043</ele>
        <time>2019-01-20T10:08:08.000Z</time>
      </trkpt>
      <trkpt lat="45.15776" lon="5.93356">
        <ele>2043</ele>
        <time>2019-01-20T10:08:09.000Z</time>
      </trkpt>
      <trkpt lat="45.15776" lon="5.93356">
        <ele>2043</ele>
        <time>2019-01-20T10:08:10.000Z</time>
      </trkpt>
      <trkpt lat="45.15775" lon="5.93359">
        <ele>2043</ele>
        <time>2019-01-20T10:08:11.000Z</time>
      </trkpt>
      <trkpt lat="45.15775" lon="5.93359">
        <ele>2043</ele>
        <time>2019-01-20T10:08:12.000Z</time>
      </trkpt>
      <trkpt lat="45.15774" lon="5.93362">
        <ele>2043</ele>
        <time>2019-01-20T10:08:13.000Z</time>
      </trkpt>
      <trkpt lat="45.15774" lon="5.93362">
        <ele>2043</ele>
        <time>2019-01-20T10:08:14.000Z</time>
      </trkpt>
      <trkpt lat="45.15773" lon="5.93365">
        <ele>2043</ele>
        <time>2019-01-20T10:08:15.000Z</time>
      </trkpt>
      <trkpt lat="45.15773" lon="5.93365">
        <ele>2043</ele>
        <time>2019-01-20T10:08:16.000Z</time>
      </trkpt>
      <trkpt lat="45.15773" lon="5.93369">
        <ele>2043</ele>
        <time>2019-01-20T10:08:17.000Z</time>
      </trkpt>
      <trkpt lat="45.15773" lon="5.93372">
        <ele>2043</ele>
        <time>2019-01-20T10:08:18.000Z</time>
      </trkpt>
      <trkpt lat="45.15773" lon="5.93375">
        <ele>2043</ele>
        <time>2019-01-20T10:08:19.000Z</time>
      </trkpt>
      <trkpt lat="45.15773" lon="5.93377">
        <ele>2043</ele>
        <time>2019-01-20T10:08:20.000Z</time>
      </trkpt>
      <trkpt lat="45.15773" lon="5.93377">
        <ele>2043</ele>
        <time>2019-01-20T10:08:21.000Z</time>
      </trkpt>
      <trkpt lat="45.15773" lon="5.93381">
        <ele>2043</ele>
        <time>2019-01-20T10:08:22.000Z</time>
      </trkpt>
      <trkpt lat="45.15773" lon="5.93381">
        <ele>2043</ele>
        <time>2019-01-20T10:08:23.000Z</time>
      </trkpt>
      <trkpt lat="45.15773" lon="5.93385">
        <ele>2043</ele>
        <time>2019-01-20T10:08:24.000Z</time>
      </trkpt>
      <trkpt lat="45.15773" lon="5.93385">
        <ele>2043</ele>
        <time>2019-01-20T10:08:25.000Z</time>
      </trkpt>
      <trkpt lat="45.15772" lon="5.93389">
        <ele>2043</ele>
        <time>2019-01-20T10:08:26.000Z</time>
      </trkpt>
      <trkpt lat="45.15772" lon="5.93389">
        <ele>2042</ele>
        <time>2019-01-20T10:08:27.000Z</time>
      </trkpt>
      <trkpt lat="45.15772" lon="5.93394">
        <ele>2042</ele>
        <time>2019-01-20T10:08:28.000Z</time>
      </trkpt>
      <trkpt lat="45.15772" lon="5.93398">
        <ele>2042</ele>
        <time>2019-01-20T10:08:29.000Z</time>
      </trkpt>
      <trkpt lat="45.15772" lon="5.93403">
        <ele>2040.4</ele>
        <time>2019-01-20T10:08:30.000Z</time>
      </trkpt>
      <trkpt lat="45.15772" lon="5.93406">
        <ele>2039</ele>
        <time>2019-01-20T10:08:31.000Z</time>
      </trkpt>
      <trkpt lat="45.15772" lon="5.93408">
        <ele>2038</ele>
        <time>2019-01-20T10:08:32.000Z</time>
      </trkpt>
      <trkpt lat="45.15772" lon="5.93411">
        <ele>2038</ele>
        <time>2019-01-20T10:08:33.000Z</time>
      </trkpt>
      <trkpt lat="45.15772" lon="5.93411">
        <ele>2038</ele>
        <time>2019-01-20T10:08:34.000Z</time>
      </trkpt>
      <trkpt lat="45.15772" lon="5.93415">
        <ele>2038</ele>
        <time>2019-01-20T10:08:35.000Z</time>
      </trkpt>
      <trkpt lat="45.15772" lon="5.93415">
        <ele>2038</ele>
        <time>2019-01-20T10:08:36.000Z</time>
      </trkpt>
      <trkpt lat="45.15772" lon="5.93419">
        <ele>2038</ele>
        <time>2019-01-20T10:08:37.000Z</time>
      </trkpt>
      <trkpt lat="45.15772" lon="5.93419">
        <ele>2038</ele>
        <time>2019-01-20T10:08:38.000Z</time>
      </trkpt>
      <trkpt lat="45.15773" lon="5.93423">
        <ele>2038</ele>
        <time>2019-01-20T10:08:39.000Z</time>
      </trkpt>
      <trkpt lat="45.15773" lon="5.93423">
        <ele>2038</ele>
        <time>2019-01-20T10:08:40.000Z</time>
      </trkpt>
      <trkpt lat="45.15773" lon="5.93427">
        <ele>2038</ele>
        <time>2019-01-20T10:08:41.000Z</time>
      </trkpt>
      <trkpt lat="45.15773" lon="5.93427">
        <ele>2038</ele>
        <time>2019-01-20T10:08:42.000Z</time>
      </trkpt>
      <trkpt lat="45.15773" lon="5.9343">
        <ele>2038</ele>
        <time>2019-01-20T10:08:43.000Z</time>
      </trkpt>
      <trkpt lat="45.15773" lon="5.9343">
        <ele>2038</ele>
        <time>2019-01-20T10:08:44.000Z</time>
      </trkpt>
      <trkpt lat="45.15774" lon="5.93434">
        <ele>2039</ele>
        <time>2019-01-20T10:08:45.000Z</time>
      </trkpt>
      <trkpt lat="45.15774" lon="5.93434">
        <ele>2039</ele>
        <time>2019-01-20T10:08:46.000Z</time>
      </trkpt>
      <trkpt lat="45.15774" lon="5.93437">
        <ele>2039</ele>
        <time>2019-01-20T10:08:47.000Z</time>
      </trkpt>
      <trkpt lat="45.15774" lon="5.93437">
        <ele>2039</ele>
        <time>2019-01-20T10:08:48.000Z</time>
      </trkpt>
      <trkpt lat="45.15775" lon="5.93441">
        <ele>2039</ele>
        <time>2019-01-20T10:08:49.000Z</time>
      </trkpt>
      <trkpt lat="45.15775" lon="5.93441">
        <ele>2039</ele>
        <time>2019-01-20T10:08:50.000Z</time>
      </trkpt>
      <trkpt lat="45.15775" lon="5.93445">
        <ele>2039</ele>
        <time>2019-01-20T10:08:51.000Z</time>
      </trkpt>
      <trkpt lat="45.15775" lon="5.93445">
        <ele>2039</ele>
        <time>2019-01-20T10:08:52.000Z</time>
      </trkpt>
      <trkpt lat="45.15775" lon="5.93448">
        <ele>2039</ele>
        <time>2019-01-20T10:08:53.000Z</time>
      </trkpt>
      <trkpt lat="45.15775" lon="5.93448">
        <ele>2039</ele>
        <time>2019-01-20T10:08:54.000Z</time>
      </trkpt>
      <trkpt lat="45.15776" lon="5.93452">
        <ele>2039</ele>
        <time>2019-01-20T10:08:55.000Z</time>
      </trkpt>
      <trkpt lat="45.15776" lon="5.93452">
        <ele>2039</ele>
        <time>2019-01-20T10:08:56.000Z</time>
      </trkpt>
      <trkpt lat="45.15776" lon="5.93455">
        <ele>2041</ele>
        <time>2019-01-20T10:08:57.000Z</time>
      </trkpt>
      <trkpt lat="45.15777" lon="5.93459">
        <ele>2041</ele>
        <time>2019-01-20T10:08:59.000Z</time>
      </trkpt>
      <trkpt lat="45.15777" lon="5.93459">
        <ele>2041</ele>
        <time>2019-01-20T10:09:00.000Z</time>
      </trkpt>
      <trkpt lat="45.15777" lon="5.93462">
        <ele>2041</ele>
        <time>2019-01-20T10:09:01.000Z</time>
      </trkpt>
      <trkpt lat="45.15777" lon="5.93462">
        <ele>2041</ele>
        <time>2019-01-20T10:09:02.000Z</time>
      </trkpt>
      <trkpt lat="45.15778" lon="5.93464">
        <ele>2041</ele>
        <time>2019-01-20T10:09:03.000Z</time>
      </trkpt>
      <trkpt lat="45.15778" lon="5.93464">
        <ele>2041</ele>
        <time>2019-01-20T10:09:04.000Z</time>
      </trkpt>
      <trkpt lat="45.15779" lon="5.93467">
        <ele>2041</ele>
        <time>2019-01-20T10:09:05.000Z</time>
      </trkpt>
      <trkpt lat="45.15779" lon="5.93467">
        <ele>2042</ele>
        <time>2019-01-20T10:09:06.000Z</time>
      </trkpt>
      <trkpt lat="45.1578" lon="5.9347">
        <ele>2042</ele>
        <time>2019-01-20T10:09:07.000Z</time>
      </trkpt>
      <trkpt lat="45.1578" lon="5.9347">
        <ele>2042</ele>
        <time>2019-01-20T10:09:08.000Z</time>
      </trkpt>
      <trkpt lat="45.15781" lon="5.93473">
        <ele>2042</ele>
        <time>2019-01-20T10:09:09.000Z</time>
      </trkpt>
      <trkpt lat="45.15781" lon="5.93473">
        <ele>2042</ele>
        <time>2019-01-20T10:09:10.000Z</time>
      </trkpt>
      <trkpt lat="45.15783" lon="5.93475">
        <ele>2042</ele>
        <time>2019-01-20T10:09:11.000Z</time>
      </trkpt>
      <trkpt lat="45.15783" lon="5.93475">
        <ele>2042</ele>
        <time>2019-01-20T10:09:12.000Z</time>
      </trkpt>
      <trkpt lat="45.15784" lon="5.93478">
        <ele>2042</ele>
        <time>2019-01-20T10:09:13.000Z</time>
      </trkpt>
      <trkpt lat="45.15784" lon="5.93478">
        <ele>2042</ele>
        <time>2019-01-20T10:09:14.000Z</time>
      </trkpt>
      <trkpt lat="45.15785" lon="5.9348">
        <ele>2042</ele>
        <time>2019-01-20T10:09:15.000Z</time>
      </trkpt>
      <trkpt lat="45.15785" lon="5.9348">
        <ele>2043</ele>
        <time>2019-01-20T10:09:16.000Z</time>
      </trkpt>
      <trkpt lat="45.15787" lon="5.93482">
        <ele>2043</ele>
        <time>2019-01-20T10:09:17.000Z</time>
      </trkpt>
      <trkpt lat="45.15787" lon="5.93482">
        <ele>2043</ele>
        <time>2019-01-20T10:09:18.000Z</time>
      </trkpt>
      <trkpt lat="45.15789" lon="5.93484">
        <ele>2043</ele>
        <time>2019-01-20T10:09:19.000Z</time>
      </trkpt>
      <trkpt lat="45.15789" lon="5.93484">
        <ele>2043</ele>
        <time>2019-01-20T10:09:20.000Z</time>
      </trkpt>
      <trkpt lat="45.1579" lon="5.93486">
        <ele>2043</ele>
        <time>2019-01-20T10:09:21.000Z</time>
      </trkpt>
      <trkpt lat="45.1579" lon="5.93486">
        <ele>2043</ele>
        <time>2019-01-20T10:09:22.000Z</time>
      </trkpt>
      <trkpt lat="45.1579" lon="5.93486">
        <ele>2044</ele>
        <time>2019-01-20T10:09:23.000Z</time>
      </trkpt>
      <trkpt lat="45.15792" lon="5.93489">
        <ele>2044</ele>
        <time>2019-01-20T10:09:24.000Z</time>
      </trkpt>
      <trkpt lat="45.15792" lon="5.93489">
        <ele>2044</ele>
        <time>2019-01-20T10:09:25.000Z</time>
      </trkpt>
      <trkpt lat="45.15792" lon="5.93489">
        <ele>2044</ele>
        <time>2019-01-20T10:09:26.000Z</time>
      </trkpt>
      <trkpt lat="45.15794" lon="5.93491">
        <ele>2044</ele>
        <time>2019-01-20T10:09:27.000Z</time>
      </trkpt>
      <trkpt lat="45.15794" lon="5.93491">
        <ele>2044</ele>
        <time>2019-01-20T10:09:28.000Z</time>
      </trkpt>
      <trkpt lat="45.15796" lon="5.93493">
        <ele>2045</ele>
        <time>2019-01-20T10:09:29.000Z</time>
      </trkpt>
      <trkpt lat="45.15796" lon="5.93493">
        <ele>2045</ele>
        <time>2019-01-20T10:09:30.000Z</time>
      </trkpt>
      <trkpt lat="45.15798" lon="5.93495">
        <ele>2045</ele>
        <time>2019-01-20T10:09:31.000Z</time>
      </trkpt>
      <trkpt lat="45.15798" lon="5.93495">
        <ele>2045</ele>
        <time>2019-01-20T10:09:32.000Z</time>
      </trkpt>
      <trkpt lat="45.158" lon="5.93496">
        <ele>2045</ele>
        <time>2019-01-20T10:09:33.000Z</time>
      </trkpt>
      <trkpt lat="45.158" lon="5.93496">
        <ele>2046</ele>
        <time>2019-01-20T10:09:34.000Z</time>
      </trkpt>
      <trkpt lat="45.15802" lon="5.93498">
        <ele>2046</ele>
        <time>2019-01-20T10:09:35.000Z</time>
      </trkpt>
      <trkpt lat="45.15803" lon="5.935">
        <ele>2047</ele>
        <time>2019-01-20T10:09:37.000Z</time>
      </trkpt>
      <trkpt lat="45.15803" lon="5.935">
        <ele>2047</ele>
        <time>2019-01-20T10:09:38.000Z</time>
      </trkpt>
      <trkpt lat="45.15805" lon="5.93501">
        <ele>2047</ele>
        <time>2019-01-20T10:09:39.000Z</time>
      </trkpt>
      <trkpt lat="45.15805" lon="5.93501">
        <ele>2047</ele>
        <time>2019-01-20T10:09:40.000Z</time>
      </trkpt>
      <trkpt lat="45.15807" lon="5.93503">
        <ele>2047</ele>
        <time>2019-01-20T10:09:41.000Z</time>
      </trkpt>
      <trkpt lat="45.15807" lon="5.93503">
        <ele>2047</ele>
        <time>2019-01-20T10:09:42.000Z</time>
      </trkpt>
      <trkpt lat="45.15809" lon="5.93505">
        <ele>2047</ele>
        <time>2019-01-20T10:09:43.000Z</time>
      </trkpt>
      <trkpt lat="45.15809" lon="5.93505">
        <ele>2047</ele>
        <time>2019-01-20T10:09:44.000Z</time>
      </trkpt>
      <trkpt lat="45.15811" lon="5.93506">
        <ele>2047</ele>
        <time>2019-01-20T10:09:45.000Z</time>
      </trkpt>
      <trkpt lat="45.15811" lon="5.93506">
        <ele>2047</ele>
        <time>2019-01-20T10:09:46.000Z</time>
      </trkpt>
      <trkpt lat="45.15813" lon="5.93509">
        <ele>2047</ele>
        <time>2019-01-20T10:09:47.000Z</time>
      </trkpt>
      <trkpt lat="45.15813" lon="5.93509">
        <ele>2047</ele>
        <time>2019-01-20T10:09:48.000Z</time>
      </trkpt>
      <trkpt lat="45.15815" lon="5.93511">
        <ele>2047</ele>
        <time>2019-01-20T10:09:49.000Z</time>
      </trkpt>
      <trkpt lat="45.15815" lon="5.93511">
        <ele>2047</ele>
        <time>2019-01-20T10:09:50.000Z</time>
      </trkpt>
      <trkpt lat="45.15817" lon="5.93513">
        <ele>2048</ele>
        <time>2019-01-20T10:09:51.000Z</time>
      </trkpt>
      <trkpt lat="45.15817" lon="5.93513">
        <ele>2049</ele>
        <time>2019-01-20T10:09:52.000Z</time>
      </trkpt>
      <trkpt lat="45.15818" lon="5.93515">
        <ele>2049</ele>
        <time>2019-01-20T10:09:53.000Z</time>
      </trkpt>
      <trkpt lat="45.15818" lon="5.93515">
        <ele>2049</ele>
        <time>2019-01-20T10:09:54.000Z</time>
      </trkpt>
      <trkpt lat="45.1582" lon="5.93517">
        <ele>2049</ele>
        <time>2019-01-20T10:09:55.000Z</time>
      </trkpt>
      <trkpt lat="45.1582" lon="5.93517">
        <ele>2049</ele>
        <time>2019-01-20T10:09:56.000Z</time>
      </trkpt>
      <trkpt lat="45.15822" lon="5.93519">
        <ele>2049</ele>
        <time>2019-01-20T10:09:57.000Z</time>
      </trkpt>
      <trkpt lat="45.15822" lon="5.93519">
        <ele>2049</ele>
        <time>2019-01-20T10:09:58.000Z</time>
      </trkpt>
      <trkpt lat="45.15824" lon="5.93521">
        <ele>2049</ele>
        <time>2019-01-20T10:09:59.000Z</time>
      </trkpt>
      <trkpt lat="45.15824" lon="5.93521">
        <ele>2050</ele>
        <time>2019-01-20T10:10:00.000Z</time>
      </trkpt>
      <trkpt lat="45.15825" lon="5.93522">
        <ele>2050</ele>
        <time>2019-01-20T10:10:01.000Z</time>
      </trkpt>
      <trkpt lat="45.15825" lon="5.93522">
        <ele>2051</ele>
        <time>2019-01-20T10:10:02.000Z</time>
      </trkpt>
      <trkpt lat="45.15825" lon="5.93522">
        <ele>2051</ele>
        <time>2019-01-20T10:10:03.000Z</time>
      </trkpt>
      <trkpt lat="45.15827" lon="5.93524">
        <ele>2051</ele>
        <time>2019-01-20T10:10:04.000Z</time>
      </trkpt>
      <trkpt lat="45.15827" lon="5.93524">
        <ele>2051</ele>
        <time>2019-01-20T10:10:05.000Z</time>
      </trkpt>
      <trkpt lat="45.15827" lon="5.93524">
        <ele>2052</ele>
        <time>2019-01-20T10:10:06.000Z</time>
      </trkpt>
      <trkpt lat="45.15829" lon="5.93525">
        <ele>2052</ele>
        <time>2019-01-20T10:10:07.000Z</time>
      </trkpt>
      <trkpt lat="45.15829" lon="5.93525">
        <ele>2052</ele>
        <time>2019-01-20T10:10:08.000Z</time>
      </trkpt>
      <trkpt lat="45.15829" lon="5.93525">
        <ele>2052</ele>
        <time>2019-01-20T10:10:09.000Z</time>
      </trkpt>
      <trkpt lat="45.15831" lon="5.93527">
        <ele>2052</ele>
        <time>2019-01-20T10:10:10.000Z</time>
      </trkpt>
      <trkpt lat="45.15831" lon="5.93527">
        <ele>2052</ele>
        <time>2019-01-20T10:10:11.000Z</time>
      </trkpt>
      <trkpt lat="45.15831" lon="5.93527">
        <ele>2052</ele>
        <time>2019-01-20T10:10:12.000Z</time>
      </trkpt>
      <trkpt lat="45.15833" lon="5.93529">
        <ele>2053</ele>
        <time>2019-01-20T10:10:13.000Z</time>
      </trkpt>
      <trkpt lat="45.15833" lon="5.93529">
        <ele>2053</ele>
        <time>2019-01-20T10:10:15.000Z</time>
      </trkpt>
      <trkpt lat="45.15835" lon="5.9353">
        <ele>2053</ele>
        <time>2019-01-20T10:10:16.000Z</time>
      </trkpt>
      <trkpt lat="45.15835" lon="5.9353">
        <ele>2054</ele>
        <time>2019-01-20T10:10:17.000Z</time>
      </trkpt>
      <trkpt lat="45.15837" lon="5.93532">
        <ele>2054</ele>
        <time>2019-01-20T10:10:18.000Z</time>
      </trkpt>
      <trkpt lat="45.15837" lon="5.93532">
        <ele>2054</ele>
        <time>2019-01-20T10:10:19.000Z</time>
      </trkpt>
      <trkpt lat="45.15838" lon="5.93533">
        <ele>2054</ele>
        <time>2019-01-20T10:10:20.000Z</time>
      </trkpt>
      <trkpt lat="45.15838" lon="5.93533">
        <ele>2054</ele>
        <time>2019-01-20T10:10:21.000Z</time>
      </trkpt>
      <trkpt lat="45.1584" lon="5.93535">
        <ele>2054</ele>
        <time>2019-01-20T10:10:22.000Z</time>
      </trkpt>
      <trkpt lat="45.1584" lon="5.93535">
        <ele>2054</ele>
        <time>2019-01-20T10:10:23.000Z</time>
      </trkpt>
      <trkpt lat="45.1584" lon="5.93535">
        <ele>2055</ele>
        <time>2019-01-20T10:10:24.000Z</time>
      </trkpt>
      <trkpt lat="45.15842" lon="5.93538">
        <ele>2055</ele>
        <time>2019-01-20T10:10:25.000Z</time>
      </trkpt>
      <trkpt lat="45.15842" lon="5.93538">
        <ele>2055</ele>
        <time>2019-01-20T10:10:26.000Z</time>
      </trkpt>
      <trkpt lat="45.15842" lon="5.93538">
        <ele>2055</ele>
        <time>2019-01-20T10:10:27.000Z</time>
      </trkpt>
      <trkpt lat="45.15842" lon="5.93538">
        <ele>2055</ele>
        <time>2019-01-20T10:10:28.000Z</time>
      </trkpt>
      <trkpt lat="45.15844" lon="5.93539">
        <ele>2055</ele>
        <time>2019-01-20T10:10:29.000Z</time>
      </trkpt>
      <trkpt lat="45.15844" lon="5.93539">
        <ele>2056</ele>
        <time>2019-01-20T10:10:30.000Z</time>
      </trkpt>
      <trkpt lat="45.15844" lon="5.93539">
        <ele>2057</ele>
        <time>2019-01-20T10:10:31.000Z</time>
      </trkpt>
      <trkpt lat="45.15844" lon="5.93539">
        <ele>2057</ele>
        <time>2019-01-20T10:10:32.000Z</time>
      </trkpt>
      <trkpt lat="45.15846" lon="5.9354">
        <ele>2057</ele>
        <time>2019-01-20T10:10:33.000Z</time>
      </trkpt>
      <trkpt lat="45.15846" lon="5.9354">
        <ele>2058</ele>
        <time>2019-01-20T10:10:34.000Z</time>
      </trkpt>
      <trkpt lat="45.15846" lon="5.9354">
        <ele>2058</ele>
        <time>2019-01-20T10:10:35.000Z</time>
      </trkpt>
      <trkpt lat="45.15848" lon="5.93543">
        <ele>2058</ele>
        <time>2019-01-20T10:10:36.000Z</time>
      </trkpt>
      <trkpt lat="45.15848" lon="5.93543">
        <ele>2059</ele>
        <time>2019-01-20T10:10:37.000Z</time>
      </trkpt>
      <trkpt lat="45.15848" lon="5.93543">
        <ele>2059</ele>
        <time>2019-01-20T10:10:38.000Z</time>
      </trkpt>
      <trkpt lat="45.15849" lon="5.93545">
        <ele>2059</ele>
        <time>2019-01-20T10:10:39.000Z</time>
      </trkpt>
      <trkpt lat="45.15849" lon="5.93545">
        <ele>2059</ele>
        <time>2019-01-20T10:10:40.000Z</time>
      </trkpt>
      <trkpt lat="45.15849" lon="5.93547">
        <ele>2059</ele>
        <time>2019-01-20T10:10:41.000Z</time>
      </trkpt>
      <trkpt lat="45.15849" lon="5.93547">
        <ele>2059</ele>
        <time>2019-01-20T10:10:42.000Z</time>
      </trkpt>
      <trkpt lat="45.15849" lon="5.93547">
        <ele>2059</ele>
        <time>2019-01-20T10:10:43.000Z</time>
      </trkpt>
      <trkpt lat="45.1585" lon="5.93551">
        <ele>2060</ele>
        <time>2019-01-20T10:10:44.000Z</time>
      </trkpt>
      <trkpt lat="45.1585" lon="5.93551">
        <ele>2060</ele>
        <time>2019-01-20T10:10:45.000Z</time>
      </trkpt>
      <trkpt lat="45.15852" lon="5.93552">
        <ele>2060</ele>
        <time>2019-01-20T10:10:46.000Z</time>
      </trkpt>
      <trkpt lat="45.15852" lon="5.93552">
        <ele>2060</ele>
        <time>2019-01-20T10:10:47.000Z</time>
      </trkpt>
      <trkpt lat="45.15853" lon="5.93555">
        <ele>2060</ele>
        <time>2019-01-20T10:10:48.000Z</time>
      </trkpt>
      <trkpt lat="45.15853" lon="5.93555">
        <ele>2060</ele>
        <time>2019-01-20T10:10:49.000Z</time>
      </trkpt>
      <trkpt lat="45.15853" lon="5.93555">
        <ele>2061</ele>
        <time>2019-01-20T10:10:50.000Z</time>
      </trkpt>
      <trkpt lat="45.15855" lon="5.93557">
        <ele>2061</ele>
        <time>2019-01-20T10:10:51.000Z</time>
      </trkpt>
      <trkpt lat="45.15855" lon="5.93557">
        <ele>2061</ele>
        <time>2019-01-20T10:10:53.000Z</time>
      </trkpt>
      <trkpt lat="45.15856" lon="5.9356">
        <ele>2061</ele>
        <time>2019-01-20T10:10:54.000Z</time>
      </trkpt>
      <trkpt lat="45.15856" lon="5.9356">
        <ele>2062</ele>
        <time>2019-01-20T10:10:56.000Z</time>
      </trkpt>
      <trkpt lat="45.15858" lon="5.93563">
        <ele>2062</ele>
        <time>2019-01-20T10:10:57.000Z</time>
      </trkpt>
      <trkpt lat="45.15858" lon="5.93563">
        <ele>2062</ele>
        <time>2019-01-20T10:10:58.000Z</time>
      </trkpt>
      <trkpt lat="45.15858" lon="5.93563">
        <ele>2062</ele>
        <time>2019-01-20T10:10:59.000Z</time>
      </trkpt>
      <trkpt lat="45.1586" lon="5.93566">
        <ele>2062</ele>
        <time>2019-01-20T10:11:00.000Z</time>
      </trkpt>
      <trkpt lat="45.1586" lon="5.93566">
        <ele>2062</ele>
        <time>2019-01-20T10:11:01.000Z</time>
      </trkpt>
      <trkpt lat="45.15862" lon="5.93568">
        <ele>2063</ele>
        <time>2019-01-20T10:11:02.000Z</time>
      </trkpt>
      <trkpt lat="45.15862" lon="5.93568">
        <ele>2063</ele>
        <time>2019-01-20T10:11:03.000Z</time>
      </trkpt>
      <trkpt lat="45.15863" lon="5.9357">
        <ele>2063</ele>
        <time>2019-01-20T10:11:04.000Z</time>
      </trkpt>
      <trkpt lat="45.15863" lon="5.9357">
        <ele>2063</ele>
        <time>2019-01-20T10:11:05.000Z</time>
      </trkpt>
      <trkpt lat="45.15863" lon="5.9357">
        <ele>2064</ele>
        <time>2019-01-20T10:11:06.000Z</time>
      </trkpt>
      <trkpt lat="45.15864" lon="5.93572">
        <ele>2064</ele>
        <time>2019-01-20T10:11:07.000Z</time>
      </trkpt>
      <trkpt lat="45.15864" lon="5.93572">
        <ele>2064</ele>
        <time>2019-01-20T10:11:08.000Z</time>
      </trkpt>
      <trkpt lat="45.15864" lon="5.93572">
        <ele>2064</ele>
        <time>2019-01-20T10:11:09.000Z</time>
      </trkpt>
      <trkpt lat="45.15864" lon="5.93572">
        <ele>2064</ele>
        <time>2019-01-20T10:11:10.000Z</time>
      </trkpt>
      <trkpt lat="45.15865" lon="5.93575">
        <ele>2064</ele>
        <time>2019-01-20T10:11:11.000Z</time>
      </trkpt>
      <trkpt lat="45.15865" lon="5.93575">
        <ele>2065</ele>
        <time>2019-01-20T10:11:12.000Z</time>
      </trkpt>
      <trkpt lat="45.15865" lon="5.93575">
        <ele>2065</ele>
        <time>2019-01-20T10:11:13.000Z</time>
      </trkpt>
      <trkpt lat="45.15866" lon="5.93578">
        <ele>2066</ele>
        <time>2019-01-20T10:11:14.000Z</time>
      </trkpt>
      <trkpt lat="45.15866" lon="5.93578">
        <ele>2066</ele>
        <time>2019-01-20T10:11:15.000Z</time>
      </trkpt>
      <trkpt lat="45.15866" lon="5.93578">
        <ele>2066</ele>
        <time>2019-01-20T10:11:16.000Z</time>
      </trkpt>
      <trkpt lat="45.15867" lon="5.9358">
        <ele>2066</ele>
        <time>2019-01-20T10:11:17.000Z</time>
      </trkpt>
      <trkpt lat="45.15867" lon="5.9358">
        <ele>2066</ele>
        <time>2019-01-20T10:11:18.000Z</time>
      </trkpt>
      <trkpt lat="45.15867" lon="5.9358">
        <ele>2066</ele>
        <time>2019-01-20T10:11:19.000Z</time>
      </trkpt>
      <trkpt lat="45.15866" lon="5.93583">
        <ele>2067</ele>
        <time>2019-01-20T10:11:20.000Z</time>
      </trkpt>
      <trkpt lat="45.15866" lon="5.93583">
        <ele>2067</ele>
        <time>2019-01-20T10:11:21.000Z</time>
      </trkpt>
      <trkpt lat="45.15866" lon="5.93586">
        <ele>2067</ele>
        <time>2019-01-20T10:11:22.000Z</time>
      </trkpt>
      <trkpt lat="45.15866" lon="5.93586">
        <ele>2067</ele>
        <time>2019-01-20T10:11:23.000Z</time>
      </trkpt>
      <trkpt lat="45.15866" lon="5.93586">
        <ele>2068</ele>
        <time>2019-01-20T10:11:24.000Z</time>
      </trkpt>
      <trkpt lat="45.15866" lon="5.93589">
        <ele>2068</ele>
        <time>2019-01-20T10:11:25.000Z</time>
      </trkpt>
      <trkpt lat="45.15866" lon="5.93589">
        <ele>2068</ele>
        <time>2019-01-20T10:11:26.000Z</time>
      </trkpt>
      <trkpt lat="45.15866" lon="5.93589">
        <ele>2069</ele>
        <time>2019-01-20T10:11:27.000Z</time>
      </trkpt>
      <trkpt lat="45.15867" lon="5.93592">
        <ele>2069</ele>
        <time>2019-01-20T10:11:28.000Z</time>
      </trkpt>
      <trkpt lat="45.15867" lon="5.93592">
        <ele>2069</ele>
        <time>2019-01-20T10:11:29.000Z</time>
      </trkpt>
      <trkpt lat="45.15867" lon="5.93595">
        <ele>2069.6</ele>
        <time>2019-01-20T10:11:31.000Z</time>
      </trkpt>
      <trkpt lat="45.15867" lon="5.93595">
        <ele>2070</ele>
        <time>2019-01-20T10:11:32.000Z</time>
      </trkpt>
      <trkpt lat="45.15867" lon="5.93595">
        <ele>2070</ele>
        <time>2019-01-20T10:11:33.000Z</time>
      </trkpt>
      <trkpt lat="45.15867" lon="5.93595">
        <ele>2070</ele>
        <time>2019-01-20T10:11:34.000Z</time>
      </trkpt>
      <trkpt lat="45.15867" lon="5.93595">
        <ele>2070</ele>
        <time>2019-01-20T10:11:35.000Z</time>
      </trkpt>
      <trkpt lat="45.15867" lon="5.93595">
        <ele>2070</ele>
        <time>2019-01-20T10:11:36.000Z</time>
      </trkpt>
      <trkpt lat="45.15867" lon="5.93595">
        <ele>2070</ele>
        <time>2019-01-20T10:11:37.000Z</time>
      </trkpt>
      <trkpt lat="45.15867" lon="5.93595">
        <ele>2070</ele>
        <time>2019-01-20T10:11:38.000Z</time>
      </trkpt>
      <trkpt lat="45.15867" lon="5.93595">
        <ele>2070</ele>
        <time>2019-01-20T10:11:39.000Z</time>
      </trkpt>
      <trkpt lat="45.15867" lon="5.93595">
        <ele>2070</ele>
        <time>2019-01-20T10:11:40.000Z</time>
      </trkpt>
      <trkpt lat="45.15867" lon="5.93595">
        <ele>2070</ele>
        <time>2019-01-20T10:11:41.000Z</time>
      </trkpt>
      <trkpt lat="45.15867" lon="5.93595">
        <ele>2070</ele>
        <time>2019-01-20T10:11:42.000Z</time>
      </trkpt>
      <trkpt lat="45.15867" lon="5.93595">
        <ele>2070</ele>
        <time>2019-01-20T10:11:43.000Z</time>
      </trkpt>
      <trkpt lat="45.15867" lon="5.93595">
        <ele>2070</ele>
        <time>2019-01-20T10:11:44.000Z</time>
      </trkpt>
      <trkpt lat="45.15867" lon="5.93595">
        <ele>2070</ele>
        <time>2019-01-20T10:11:45.000Z</time>
      </trkpt>
      <trkpt lat="45.15867" lon="5.93595">
        <ele>2070</ele>
        <time>2019-01-20T10:11:46.000Z</time>
      </trkpt>
      <trkpt lat="45.15867" lon="5.93595">
        <ele>2070</ele>
        <time>2019-01-20T10:11:47.000Z</time>
      </trkpt>
      <trkpt lat="45.15867" lon="5.93595">
        <ele>2070</ele>
        <time>2019-01-20T10:11:48.000Z</time>
      </trkpt>
      <trkpt lat="45.15867" lon="5.93595">
        <ele>2070</ele>
        <time>2019-01-20T10:11:50.000Z</time>
      </trkpt>
      <trkpt lat="45.15867" lon="5.93595">
        <ele>2070</ele>
        <time>2019-01-20T10:11:51.000Z</time>
      </trkpt>
      <trkpt lat="45.15867" lon="5.93595">
        <ele>2070</ele>
        <time>2019-01-20T10:11:52.000Z</time>
      </trkpt>
      <trkpt lat="45.15867" lon="5.93595">
        <ele>2070</ele>
        <time>2019-01-20T10:11:53.000Z</time>
      </trkpt>
      <trkpt lat="45.15867" lon="5.93595">
        <ele>2070</ele>
        <time>2019-01-20T10:11:54.000Z</time>
      </trkpt>
      <trkpt lat="45.15867" lon="5.93595">
        <ele>2070</ele>
        <time>2019-01-20T10:11:55.000Z</time>
      </trkpt>
      <trkpt lat="45.15867" lon="5.93595">
        <ele>2070</ele>
        <time>2019-01-20T10:11:56.000Z</time>
      </trkpt>
      <trkpt lat="45.15867" lon="5.93595">
        <ele>2070</ele>
        <time>2019-01-20T10:11:57.000Z</time>
      </trkpt>
      <trkpt lat="45.15867" lon="5.93595">
        <ele>2070</ele>
        <time>2019-01-20T10:11:58.000Z</time>
      </trkpt>
      <trkpt lat="45.15867" lon="5.93595">
        <ele>2070</ele>
        <time>2019-01-20T10:11:59.000Z</time>
      </trkpt>
      <trkpt lat="45.15867" lon="5.93595">
        <ele>2070</ele>
        <time>2019-01-20T10:12:00.000Z</time>
      </trkpt>
      <trkpt lat="45.15867" lon="5.93595">
        <ele>2070</ele>
        <time>2019-01-20T10:12:01.000Z</time>
      </trkpt>
      <trkpt lat="45.15867" lon="5.93595">
        <ele>2070</ele>
        <time>2019-01-20T10:12:02.000Z</time>
      </trkpt>
      <trkpt lat="45.15867" lon="5.93595">
        <ele>2070</ele>
        <time>2019-01-20T10:12:03.000Z</time>
      </trkpt>
      <trkpt lat="45.15867" lon="5.93595">
        <ele>2070</ele>
        <time>2019-01-20T10:12:04.000Z</time>
      </trkpt>
      <trkpt lat="45.15867" lon="5.93595">
        <ele>2070</ele>
        <time>2019-01-20T10:12:05.000Z</time>
      </trkpt>
      <trkpt lat="45.15867" lon="5.93595">
        <ele>2070</ele>
        <time>2019-01-20T10:12:06.000Z</time>
      </trkpt>
      <trkpt lat="45.15867" lon="5.93595">
        <ele>2070</ele>
        <time>2019-01-20T10:12:07.000Z</time>
      </trkpt>
      <trkpt lat="45.15867" lon="5.93595">
        <ele>2070</ele>
        <time>2019-01-20T10:12:09.000Z</time>
      </trkpt>
      <trkpt lat="45.15867" lon="5.93595">
        <ele>2070</ele>
        <time>2019-01-20T10:12:10.000Z</time>
      </trkpt>
      <trkpt lat="45.15867" lon="5.93595">
        <ele>2070</ele>
        <time>2019-01-20T10:12:11.000Z</time>
      </trkpt>
      <trkpt lat="45.15867" lon="5.93595">
        <ele>2070</ele>
        <time>2019-01-20T10:12:12.000Z</time>
      </trkpt>
      <trkpt lat="45.15866" lon="5.93598">
        <ele>2070</ele>
        <time>2019-01-20T10:12:13.000Z</time>
      </trkpt>
      <trkpt lat="45.15866" lon="5.93598">
        <ele>2070</ele>
        <time>2019-01-20T10:12:14.000Z</time>
      </trkpt>
      <trkpt lat="45.15866" lon="5.93601">
        <ele>2070</ele>
        <time>2019-01-20T10:12:15.000Z</time>
      </trkpt>
      <trkpt lat="45.15866" lon="5.93601">
        <ele>2070</ele>
        <time>2019-01-20T10:12:16.000Z</time>
      </trkpt>
      <trkpt lat="45.15866" lon="5.93601">
        <ele>2070</ele>
        <time>2019-01-20T10:12:17.000Z</time>
      </trkpt>
      <trkpt lat="45.15866" lon="5.93604">
        <ele>2070</ele>
        <time>2019-01-20T10:12:18.000Z</time>
      </trkpt>
      <trkpt lat="45.15866" lon="5.93604">
        <ele>2070.4</ele>
        <time>2019-01-20T10:12:20.000Z</time>
      </trkpt>
      <trkpt lat="45.15867" lon="5.93607">
        <ele>2071</ele>
        <time>2019-01-20T10:12:21.000Z</time>
      </trkpt>
      <trkpt lat="45.15867" lon="5.93607">
        <ele>2071</ele>
        <time>2019-01-20T10:12:22.000Z</time>
      </trkpt>
      <trkpt lat="45.15869" lon="5.93609">
        <ele>2071</ele>
        <time>2019-01-20T10:12:23.000Z</time>
      </trkpt>
      <trkpt lat="45.15869" lon="5.93609">
        <ele>2072</ele>
        <time>2019-01-20T10:12:24.000Z</time>
      </trkpt>
      <trkpt lat="45.15869" lon="5.93609">
        <ele>2072</ele>
        <time>2019-01-20T10:12:25.000Z</time>
      </trkpt>
      <trkpt lat="45.1587" lon="5.93611">
        <ele>2072</ele>
        <time>2019-01-20T10:12:26.000Z</time>
      </trkpt>
      <trkpt lat="45.1587" lon="5.93611">
        <ele>2072</ele>
        <time>2019-01-20T10:12:28.000Z</time>
      </trkpt>
      <trkpt lat="45.15872" lon="5.93613">
        <ele>2073</ele>
        <time>2019-01-20T10:12:29.000Z</time>
      </trkpt>
      <trkpt lat="45.15872" lon="5.93613">
        <ele>2073</ele>
        <time>2019-01-20T10:12:30.000Z</time>
      </trkpt>
      <trkpt lat="45.15872" lon="5.93613">
        <ele>2073</ele>
        <time>2019-01-20T10:12:31.000Z</time>
      </trkpt>
      <trkpt lat="45.15872" lon="5.93613">
        <ele>2073</ele>
        <time>2019-01-20T10:12:32.000Z</time>
      </trkpt>
      <trkpt lat="45.15874" lon="5.93615">
        <ele>2073</ele>
        <time>2019-01-20T10:12:33.000Z</time>
      </trkpt>
      <trkpt lat="45.15874" lon="5.93615">
        <ele>2074</ele>
        <time>2019-01-20T10:12:34.000Z</time>
      </trkpt>
      <trkpt lat="45.15874" lon="5.93615">
        <ele>2074</ele>
        <time>2019-01-20T10:12:35.000Z</time>
      </trkpt>
      <trkpt lat="45.15875" lon="5.93617">
        <ele>2074</ele>
        <time>2019-01-20T10:12:36.000Z</time>
      </trkpt>
      <trkpt lat="45.15875" lon="5.93617">
        <ele>2074</ele>
        <time>2019-01-20T10:12:37.000Z</time>
      </trkpt>
      <trkpt lat="45.15875" lon="5.93617">
        <ele>2074</ele>
        <time>2019-01-20T10:12:38.000Z</time>
      </trkpt>
      <trkpt lat="45.15875" lon="5.9362">
        <ele>2074</ele>
        <time>2019-01-20T10:12:39.000Z</time>
      </trkpt>
      <trkpt lat="45.15875" lon="5.9362">
        <ele>2074</ele>
        <time>2019-01-20T10:12:40.000Z</time>
      </trkpt>
      <trkpt lat="45.15875" lon="5.9362">
        <ele>2075</ele>
        <time>2019-01-20T10:12:42.000Z</time>
      </trkpt>
      <trkpt lat="45.15875" lon="5.93624">
        <ele>2075</ele>
        <time>2019-01-20T10:12:43.000Z</time>
      </trkpt>
      <trkpt lat="45.15875" lon="5.93624">
        <ele>2075</ele>
        <time>2019-01-20T10:12:44.000Z</time>
      </trkpt>
      <trkpt lat="45.15875" lon="5.93624">
        <ele>2075</ele>
        <time>2019-01-20T10:12:45.000Z</time>
      </trkpt>
      <trkpt lat="45.15875" lon="5.93627">
        <ele>2075</ele>
        <time>2019-01-20T10:12:46.000Z</time>
      </trkpt>
      <trkpt lat="45.15875" lon="5.93627">
        <ele>2075</ele>
        <time>2019-01-20T10:12:47.000Z</time>
      </trkpt>
      <trkpt lat="45.15875" lon="5.93627">
        <ele>2075</ele>
        <time>2019-01-20T10:12:48.000Z</time>
      </trkpt>
      <trkpt lat="45.15875" lon="5.93629">
        <ele>2075</ele>
        <time>2019-01-20T10:12:49.000Z</time>
      </trkpt>
      <trkpt lat="45.15875" lon="5.93629">
        <ele>2075</ele>
        <time>2019-01-20T10:12:50.000Z</time>
      </trkpt>
      <trkpt lat="45.15875" lon="5.93629">
        <ele>2075</ele>
        <time>2019-01-20T10:12:51.000Z</time>
      </trkpt>
      <trkpt lat="45.15875" lon="5.93629">
        <ele>2075</ele>
        <time>2019-01-20T10:12:52.000Z</time>
      </trkpt>
      <trkpt lat="45.15875" lon="5.93633">
        <ele>2076</ele>
        <time>2019-01-20T10:12:53.000Z</time>
      </trkpt>
      <trkpt lat="45.15875" lon="5.93633">
        <ele>2076</ele>
        <time>2019-01-20T10:12:54.000Z</time>
      </trkpt>
      <trkpt lat="45.15875" lon="5.93633">
        <ele>2076</ele>
        <time>2019-01-20T10:12:55.000Z</time>
      </trkpt>
      <trkpt lat="45.15875" lon="5.93633">
        <ele>2076</ele>
        <time>2019-01-20T10:12:56.000Z</time>
      </trkpt>
      <trkpt lat="45.15875" lon="5.93633">
        <ele>2077</ele>
        <time>2019-01-20T10:12:57.000Z</time>
      </trkpt>
      <trkpt lat="45.15875" lon="5.93633">
        <ele>2077</ele>
        <time>2019-01-20T10:12:58.000Z</time>
      </trkpt>
      <trkpt lat="45.15875" lon="5.93633">
        <ele>2077</ele>
        <time>2019-01-20T10:12:59.000Z</time>
      </trkpt>
      <trkpt lat="45.15875" lon="5.93633">
        <ele>2077</ele>
        <time>2019-01-20T10:13:00.000Z</time>
      </trkpt>
      <trkpt lat="45.15875" lon="5.93633">
        <ele>2077</ele>
        <time>2019-01-20T10:13:01.000Z</time>
      </trkpt>
      <trkpt lat="45.15875" lon="5.93633">
        <ele>2077</ele>
        <time>2019-01-20T10:13:02.000Z</time>
      </trkpt>
      <trkpt lat="45.15875" lon="5.93633">
        <ele>2077</ele>
        <time>2019-01-20T10:13:03.000Z</time>
      </trkpt>
      <trkpt lat="45.15875" lon="5.93633">
        <ele>2077</ele>
        <time>2019-01-20T10:13:04.000Z</time>
      </trkpt>
      <trkpt lat="45.15875" lon="5.93633">
        <ele>2077</ele>
        <time>2019-01-20T10:13:06.000Z</time>
      </trkpt>
      <trkpt lat="45.15876" lon="5.93636">
        <ele>2077</ele>
        <time>2019-01-20T10:13:07.000Z</time>
      </trkpt>
      <trkpt lat="45.15876" lon="5.93636">
        <ele>2077</ele>
        <time>2019-01-20T10:13:08.000Z</time>
      </trkpt>
      <trkpt lat="45.15876" lon="5.93636">
        <ele>2078</ele>
        <time>2019-01-20T10:13:09.000Z</time>
      </trkpt>
      <trkpt lat="45.15877" lon="5.93639">
        <ele>2078</ele>
        <time>2019-01-20T10:13:10.000Z</time>
      </trkpt>
      <trkpt lat="45.15877" lon="5.93639">
        <ele>2078</ele>
        <time>2019-01-20T10:13:11.000Z</time>
      </trkpt>
      <trkpt lat="45.15877" lon="5.93639">
        <ele>2078</ele>
        <time>2019-01-20T10:13:12.000Z</time>
      </trkpt>
      <trkpt lat="45.15877" lon="5.93643">
        <ele>2078</ele>
        <time>2019-01-20T10:13:13.000Z</time>
      </trkpt>
      <trkpt lat="45.15877" lon="5.93643">
        <ele>2079</ele>
        <time>2019-01-20T10:13:14.000Z</time>
      </trkpt>
      <trkpt lat="45.15877" lon="5.93645">
        <ele>2079</ele>
        <time>2019-01-20T10:13:15.000Z</time>
      </trkpt>
      <trkpt lat="45.15877" lon="5.93645">
        <ele>2079</ele>
        <time>2019-01-20T10:13:16.000Z</time>
      </trkpt>
      <trkpt lat="45.15877" lon="5.93645">
        <ele>2079</ele>
        <time>2019-01-20T10:13:17.000Z</time>
      </trkpt>
      <trkpt lat="45.15878" lon="5.93648">
        <ele>2079</ele>
        <time>2019-01-20T10:13:18.000Z</time>
      </trkpt>
      <trkpt lat="45.15878" lon="5.93648">
        <ele>2079.6</ele>
        <time>2019-01-20T10:13:20.000Z</time>
      </trkpt>
      <trkpt lat="45.15878" lon="5.93651">
        <ele>2080</ele>
        <time>2019-01-20T10:13:21.000Z</time>
      </trkpt>
      <trkpt lat="45.15878" lon="5.93651">
        <ele>2080</ele>
        <time>2019-01-20T10:13:22.000Z</time>
      </trkpt>
      <trkpt lat="45.15878" lon="5.93651">
        <ele>2080</ele>
        <time>2019-01-20T10:13:23.000Z</time>
      </trkpt>
      <trkpt lat="45.15879" lon="5.93654">
        <ele>2080</ele>
        <time>2019-01-20T10:13:24.000Z</time>
      </trkpt>
      <trkpt lat="45.15879" lon="5.93654">
        <ele>2081</ele>
        <time>2019-01-20T10:13:25.000Z</time>
      </trkpt>
      <trkpt lat="45.15879" lon="5.93654">
        <ele>2081</ele>
        <time>2019-01-20T10:13:26.000Z</time>
      </trkpt>
      <trkpt lat="45.1588" lon="5.93656">
        <ele>2081</ele>
        <time>2019-01-20T10:13:27.000Z</time>
      </trkpt>
      <trkpt lat="45.1588" lon="5.93656">
        <ele>2082</ele>
        <time>2019-01-20T10:13:28.000Z</time>
      </trkpt>
      <trkpt lat="45.1588" lon="5.93656">
        <ele>2082</ele>
        <time>2019-01-20T10:13:29.000Z</time>
      </trkpt>
      <trkpt lat="45.15879" lon="5.93659">
        <ele>2083</ele>
        <time>2019-01-20T10:13:30.000Z</time>
      </trkpt>
      <trkpt lat="45.15879" lon="5.93659">
        <ele>2083</ele>
        <time>2019-01-20T10:13:31.000Z</time>
      </trkpt>
      <trkpt lat="45.15879" lon="5.93659">
        <ele>2083</ele>
        <time>2019-01-20T10:13:32.000Z</time>
      </trkpt>
      <trkpt lat="45.15879" lon="5.93662">
        <ele>2083</ele>
        <time>2019-01-20T10:13:33.000Z</time>
      </trkpt>
      <trkpt lat="45.15879" lon="5.93662">
        <ele>2083</ele>
        <time>2019-01-20T10:13:34.000Z</time>
      </trkpt>
      <trkpt lat="45.15879" lon="5.93662">
        <ele>2083</ele>
        <time>2019-01-20T10:13:35.000Z</time>
      </trkpt>
      <trkpt lat="45.15879" lon="5.93665">
        <ele>2083</ele>
        <time>2019-01-20T10:13:36.000Z</time>
      </trkpt>
      <trkpt lat="45.15879" lon="5.93665">
        <ele>2084</ele>
        <time>2019-01-20T10:13:37.000Z</time>
      </trkpt>
      <trkpt lat="45.15879" lon="5.93665">
        <ele>2084</ele>
        <time>2019-01-20T10:13:38.000Z</time>
      </trkpt>
      <trkpt lat="45.1588" lon="5.93669">
        <ele>2084</ele>
        <time>2019-01-20T10:13:39.000Z</time>
      </trkpt>
      <trkpt lat="45.1588" lon="5.93669">
        <ele>2085</ele>
        <time>2019-01-20T10:13:40.000Z</time>
      </trkpt>
      <trkpt lat="45.1588" lon="5.93669">
        <ele>2085</ele>
        <time>2019-01-20T10:13:41.000Z</time>
      </trkpt>
      <trkpt lat="45.15879" lon="5.93672">
        <ele>2085</ele>
        <time>2019-01-20T10:13:42.000Z</time>
      </trkpt>
      <trkpt lat="45.15879" lon="5.93672">
        <ele>2085</ele>
        <time>2019-01-20T10:13:44.000Z</time>
      </trkpt>
      <trkpt lat="45.15879" lon="5.93675">
        <ele>2085</ele>
        <time>2019-01-20T10:13:45.000Z</time>
      </trkpt>
      <trkpt lat="45.15879" lon="5.93675">
        <ele>2085</ele>
        <time>2019-01-20T10:13:46.000Z</time>
      </trkpt>
      <trkpt lat="45.15878" lon="5.93677">
        <ele>2086</ele>
        <time>2019-01-20T10:13:47.000Z</time>
      </trkpt>
      <trkpt lat="45.15878" lon="5.93677">
        <ele>2086</ele>
        <time>2019-01-20T10:13:48.000Z</time>
      </trkpt>
      <trkpt lat="45.15877" lon="5.9368">
        <ele>2086</ele>
        <time>2019-01-20T10:13:49.000Z</time>
      </trkpt>
      <trkpt lat="45.15877" lon="5.9368">
        <ele>2087</ele>
        <time>2019-01-20T10:13:50.000Z</time>
      </trkpt>
      <trkpt lat="45.15877" lon="5.9368">
        <ele>2087</ele>
        <time>2019-01-20T10:13:51.000Z</time>
      </trkpt>
      <trkpt lat="45.15877" lon="5.93683">
        <ele>2087</ele>
        <time>2019-01-20T10:13:52.000Z</time>
      </trkpt>
      <trkpt lat="45.15877" lon="5.93683">
        <ele>2087</ele>
        <time>2019-01-20T10:13:53.000Z</time>
      </trkpt>
      <trkpt lat="45.15877" lon="5.93683">
        <ele>2087</ele>
        <time>2019-01-20T10:13:54.000Z</time>
      </trkpt>
      <trkpt lat="45.15877" lon="5.93683">
        <ele>2088</ele>
        <time>2019-01-20T10:13:55.000Z</time>
      </trkpt>
      <trkpt lat="45.15876" lon="5.93686">
        <ele>2088</ele>
        <time>2019-01-20T10:13:56.000Z</time>
      </trkpt>
      <trkpt lat="45.15876" lon="5.93686">
        <ele>2088</ele>
        <time>2019-01-20T10:13:57.000Z</time>
      </trkpt>
      <trkpt lat="45.15876" lon="5.93686">
        <ele>2088</ele>
        <time>2019-01-20T10:13:58.000Z</time>
      </trkpt>
      <trkpt lat="45.15874" lon="5.93688">
        <ele>2088</ele>
        <time>2019-01-20T10:13:59.000Z</time>
      </trkpt>
      <trkpt lat="45.15874" lon="5.93688">
        <ele>2088.4</ele>
        <time>2019-01-20T10:14:00.000Z</time>
      </trkpt>
      <trkpt lat="45.15872" lon="5.9369">
        <ele>2089</ele>
        <time>2019-01-20T10:14:01.000Z</time>
      </trkpt>
      <trkpt lat="45.15871" lon="5.93691">
        <ele>2089</ele>
        <time>2019-01-20T10:14:03.000Z</time>
      </trkpt>
      <trkpt lat="45.15871" lon="5.93691">
        <ele>2089</ele>
        <time>2019-01-20T10:14:04.000Z</time>
      </trkpt>
      <trkpt lat="45.15869" lon="5.93693">
        <ele>2089</ele>
        <time>2019-01-20T10:14:05.000Z</time>
      </trkpt>
      <trkpt lat="45.15869" lon="5.93693">
        <ele>2089</ele>
        <time>2019-01-20T10:14:06.000Z</time>
      </trkpt>
      <trkpt lat="45.15868" lon="5.93694">
        <ele>2089</ele>
        <time>2019-01-20T10:14:07.000Z</time>
      </trkpt>
      <trkpt lat="45.15868" lon="5.93694">
        <ele>2090</ele>
        <time>2019-01-20T10:14:08.000Z</time>
      </trkpt>
      <trkpt lat="45.15868" lon="5.93694">
        <ele>2090</ele>
        <time>2019-01-20T10:14:09.000Z</time>
      </trkpt>
      <trkpt lat="45.15865" lon="5.93695">
        <ele>2090</ele>
        <time>2019-01-20T10:14:10.000Z</time>
      </trkpt>
      <trkpt lat="45.15865" lon="5.93695">
        <ele>2091</ele>
        <time>2019-01-20T10:14:11.000Z</time>
      </trkpt>
      <trkpt lat="45.15863" lon="5.93696">
        <ele>2091</ele>
        <time>2019-01-20T10:14:12.000Z</time>
      </trkpt>
      <trkpt lat="45.15863" lon="5.93696">
        <ele>2092</ele>
        <time>2019-01-20T10:14:13.000Z</time>
      </trkpt>
      <trkpt lat="45.15863" lon="5.93696">
        <ele>2092</ele>
        <time>2019-01-20T10:14:14.000Z</time>
      </trkpt>
      <trkpt lat="45.15863" lon="5.93696">
        <ele>2092</ele>
        <time>2019-01-20T10:14:15.000Z</time>
      </trkpt>
      <trkpt lat="45.15861" lon="5.93697">
        <ele>2092</ele>
        <time>2019-01-20T10:14:16.000Z</time>
      </trkpt>
      <trkpt lat="45.15861" lon="5.93697">
        <ele>2092</ele>
        <time>2019-01-20T10:14:17.000Z</time>
      </trkpt>
      <trkpt lat="45.15861" lon="5.93697">
        <ele>2092</ele>
        <time>2019-01-20T10:14:18.000Z</time>
      </trkpt>
      <trkpt lat="45.1586" lon="5.937">
        <ele>2092</ele>
        <time>2019-01-20T10:14:19.000Z</time>
      </trkpt>
      <trkpt lat="45.1586" lon="5.937">
        <ele>2092</ele>
        <time>2019-01-20T10:14:20.000Z</time>
      </trkpt>
      <trkpt lat="45.15859" lon="5.93704">
        <ele>2092</ele>
        <time>2019-01-20T10:14:22.000Z</time>
      </trkpt>
      <trkpt lat="45.15859" lon="5.93704">
        <ele>2092</ele>
        <time>2019-01-20T10:14:23.000Z</time>
      </trkpt>
      <trkpt lat="45.15859" lon="5.93704">
        <ele>2093</ele>
        <time>2019-01-20T10:14:24.000Z</time>
      </trkpt>
      <trkpt lat="45.15859" lon="5.93704">
        <ele>2094</ele>
        <time>2019-01-20T10:14:25.000Z</time>
      </trkpt>
      <trkpt lat="45.15859" lon="5.93704">
        <ele>2094</ele>
        <time>2019-01-20T10:14:26.000Z</time>
      </trkpt>
      <trkpt lat="45.15858" lon="5.93706">
        <ele>2094</ele>
        <time>2019-01-20T10:14:27.000Z</time>
      </trkpt>
      <trkpt lat="45.15858" lon="5.93706">
        <ele>2094</ele>
        <time>2019-01-20T10:14:28.000Z</time>
      </trkpt>
      <trkpt lat="45.15858" lon="5.93706">
        <ele>2094</ele>
        <time>2019-01-20T10:14:29.000Z</time>
      </trkpt>
      <trkpt lat="45.15857" lon="5.93709">
        <ele>2094</ele>
        <time>2019-01-20T10:14:30.000Z</time>
      </trkpt>
      <trkpt lat="45.15857" lon="5.93709">
        <ele>2094</ele>
        <time>2019-01-20T10:14:31.000Z</time>
      </trkpt>
      <trkpt lat="45.15857" lon="5.93709">
        <ele>2094</ele>
        <time>2019-01-20T10:14:32.000Z</time>
      </trkpt>
      <trkpt lat="45.15856" lon="5.93713">
        <ele>2094</ele>
        <time>2019-01-20T10:14:33.000Z</time>
      </trkpt>
      <trkpt lat="45.15856" lon="5.93713">
        <ele>2095</ele>
        <time>2019-01-20T10:14:34.000Z</time>
      </trkpt>
      <trkpt lat="45.15855" lon="5.93715">
        <ele>2095</ele>
        <time>2019-01-20T10:14:35.000Z</time>
      </trkpt>
      <trkpt lat="45.15855" lon="5.93715">
        <ele>2095</ele>
        <time>2019-01-20T10:14:36.000Z</time>
      </trkpt>
      <trkpt lat="45.15854" lon="5.93718">
        <ele>2095</ele>
        <time>2019-01-20T10:14:37.000Z</time>
      </trkpt>
      <trkpt lat="45.15854" lon="5.93718">
        <ele>2095</ele>
        <time>2019-01-20T10:14:38.000Z</time>
      </trkpt>
      <trkpt lat="45.15854" lon="5.9372">
        <ele>2095</ele>
        <time>2019-01-20T10:14:39.000Z</time>
      </trkpt>
      <trkpt lat="45.15854" lon="5.93723">
        <ele>2095</ele>
        <time>2019-01-20T10:14:41.000Z</time>
      </trkpt>
      <trkpt lat="45.15854" lon="5.93723">
        <ele>2095</ele>
        <time>2019-01-20T10:14:42.000Z</time>
      </trkpt>
      <trkpt lat="45.15853" lon="5.93726">
        <ele>2095</ele>
        <time>2019-01-20T10:14:43.000Z</time>
      </trkpt>
      <trkpt lat="45.15853" lon="5.93726">
        <ele>2095</ele>
        <time>2019-01-20T10:14:44.000Z</time>
      </trkpt>
      <trkpt lat="45.15852" lon="5.93729">
        <ele>2095</ele>
        <time>2019-01-20T10:14:45.000Z</time>
      </trkpt>
      <trkpt lat="45.15852" lon="5.93729">
        <ele>2095</ele>
        <time>2019-01-20T10:14:46.000Z</time>
      </trkpt>
      <trkpt lat="45.15852" lon="5.93731">
        <ele>2095</ele>
        <time>2019-01-20T10:14:47.000Z</time>
      </trkpt>
      <trkpt lat="45.15852" lon="5.93731">
        <ele>2094</ele>
        <time>2019-01-20T10:14:48.000Z</time>
      </trkpt>
      <trkpt lat="45.15851" lon="5.93734">
        <ele>2094</ele>
        <time>2019-01-20T10:14:49.000Z</time>
      </trkpt>
      <trkpt lat="45.15851" lon="5.93734">
        <ele>2094</ele>
        <time>2019-01-20T10:14:50.000Z</time>
      </trkpt>
      <trkpt lat="45.15851" lon="5.93737">
        <ele>2094</ele>
        <time>2019-01-20T10:14:51.000Z</time>
      </trkpt>
      <trkpt lat="45.15851" lon="5.93737">
        <ele>2094</ele>
        <time>2019-01-20T10:14:52.000Z</time>
      </trkpt>
      <trkpt lat="45.15851" lon="5.93737">
        <ele>2094</ele>
        <time>2019-01-20T10:14:53.000Z</time>
      </trkpt>
      <trkpt lat="45.1585" lon="5.9374">
        <ele>2094</ele>
        <time>2019-01-20T10:14:54.000Z</time>
      </trkpt>
      <trkpt lat="45.1585" lon="5.9374">
        <ele>2094</ele>
        <time>2019-01-20T10:14:55.000Z</time>
      </trkpt>
      <trkpt lat="45.1585" lon="5.9374">
        <ele>2094</ele>
        <time>2019-01-20T10:14:56.000Z</time>
      </trkpt>
      <trkpt lat="45.1585" lon="5.93744">
        <ele>2094</ele>
        <time>2019-01-20T10:14:57.000Z</time>
      </trkpt>
      <trkpt lat="45.1585" lon="5.93744">
        <ele>2094</ele>
        <time>2019-01-20T10:14:59.000Z</time>
      </trkpt>
      <trkpt lat="45.15849" lon="5.93747">
        <ele>2095</ele>
        <time>2019-01-20T10:15:00.000Z</time>
      </trkpt>
      <trkpt lat="45.15849" lon="5.93747">
        <ele>2095</ele>
        <time>2019-01-20T10:15:01.000Z</time>
      </trkpt>
      <trkpt lat="45.15849" lon="5.93747">
        <ele>2096</ele>
        <time>2019-01-20T10:15:02.000Z</time>
      </trkpt>
      <trkpt lat="45.15849" lon="5.9375">
        <ele>2096</ele>
        <time>2019-01-20T10:15:03.000Z</time>
      </trkpt>
      <trkpt lat="45.15849" lon="5.9375">
        <ele>2096</ele>
        <time>2019-01-20T10:15:04.000Z</time>
      </trkpt>
      <trkpt lat="45.15849" lon="5.93753">
        <ele>2096</ele>
        <time>2019-01-20T10:15:05.000Z</time>
      </trkpt>
      <trkpt lat="45.15849" lon="5.93753">
        <ele>2096</ele>
        <time>2019-01-20T10:15:06.000Z</time>
      </trkpt>
      <trkpt lat="45.15848" lon="5.93756">
        <ele>2096</ele>
        <time>2019-01-20T10:15:07.000Z</time>
      </trkpt>
      <trkpt lat="45.15848" lon="5.93756">
        <ele>2096</ele>
        <time>2019-01-20T10:15:08.000Z</time>
      </trkpt>
      <trkpt lat="45.15848" lon="5.93759">
        <ele>2096</ele>
        <time>2019-01-20T10:15:09.000Z</time>
      </trkpt>
      <trkpt lat="45.15848" lon="5.93759">
        <ele>2096</ele>
        <time>2019-01-20T10:15:10.000Z</time>
      </trkpt>
      <trkpt lat="45.15848" lon="5.93762">
        <ele>2096</ele>
        <time>2019-01-20T10:15:11.000Z</time>
      </trkpt>
      <trkpt lat="45.15848" lon="5.93762">
        <ele>2096</ele>
        <time>2019-01-20T10:15:12.000Z</time>
      </trkpt>
      <trkpt lat="45.15848" lon="5.93765">
        <ele>2096</ele>
        <time>2019-01-20T10:15:13.000Z</time>
      </trkpt>
      <trkpt lat="45.15848" lon="5.93765">
        <ele>2096</ele>
        <time>2019-01-20T10:15:14.000Z</time>
      </trkpt>
      <trkpt lat="45.15848" lon="5.93768">
        <ele>2096</ele>
        <time>2019-01-20T10:15:15.000Z</time>
      </trkpt>
      <trkpt lat="45.15848" lon="5.93768">
        <ele>2096</ele>
        <time>2019-01-20T10:15:16.000Z</time>
      </trkpt>
      <trkpt lat="45.15847" lon="5.93771">
        <ele>2096</ele>
        <time>2019-01-20T10:15:17.000Z</time>
      </trkpt>
      <trkpt lat="45.15848" lon="5.93775">
        <ele>2096</ele>
        <time>2019-01-20T10:15:19.000Z</time>
      </trkpt>
      <trkpt lat="45.15848" lon="5.93775">
        <ele>2096</ele>
        <time>2019-01-20T10:15:20.000Z</time>
      </trkpt>
      <trkpt lat="45.15848" lon="5.93778">
        <ele>2096</ele>
        <time>2019-01-20T10:15:21.000Z</time>
      </trkpt>
      <trkpt lat="45.15848" lon="5.93778">
        <ele>2096</ele>
        <time>2019-01-20T10:15:22.000Z</time>
      </trkpt>
      <trkpt lat="45.15849" lon="5.93782">
        <ele>2096</ele>
        <time>2019-01-20T10:15:23.000Z</time>
      </trkpt>
      <trkpt lat="45.15849" lon="5.93782">
        <ele>2096</ele>
        <time>2019-01-20T10:15:24.000Z</time>
      </trkpt>
      <trkpt lat="45.15849" lon="5.93785">
        <ele>2096</ele>
        <time>2019-01-20T10:15:25.000Z</time>
      </trkpt>
      <trkpt lat="45.15849" lon="5.93785">
        <ele>2096</ele>
        <time>2019-01-20T10:15:26.000Z</time>
      </trkpt>
      <trkpt lat="45.1585" lon="5.93789">
        <ele>2096</ele>
        <time>2019-01-20T10:15:27.000Z</time>
      </trkpt>
      <trkpt lat="45.1585" lon="5.93789">
        <ele>2096</ele>
        <time>2019-01-20T10:15:28.000Z</time>
      </trkpt>
      <trkpt lat="45.1585" lon="5.93792">
        <ele>2096</ele>
        <time>2019-01-20T10:15:29.000Z</time>
      </trkpt>
      <trkpt lat="45.1585" lon="5.93792">
        <ele>2096</ele>
        <time>2019-01-20T10:15:30.000Z</time>
      </trkpt>
      <trkpt lat="45.15851" lon="5.93794">
        <ele>2096</ele>
        <time>2019-01-20T10:15:31.000Z</time>
      </trkpt>
      <trkpt lat="45.15851" lon="5.93794">
        <ele>2097</ele>
        <time>2019-01-20T10:15:32.000Z</time>
      </trkpt>
      <trkpt lat="45.15853" lon="5.93798">
        <ele>2097</ele>
        <time>2019-01-20T10:15:33.000Z</time>
      </trkpt>
      <trkpt lat="45.15853" lon="5.93798">
        <ele>2097</ele>
        <time>2019-01-20T10:15:34.000Z</time>
      </trkpt>
      <trkpt lat="45.15853" lon="5.93798">
        <ele>2097</ele>
        <time>2019-01-20T10:15:35.000Z</time>
      </trkpt>
      <trkpt lat="45.15854" lon="5.93801">
        <ele>2097</ele>
        <time>2019-01-20T10:15:36.000Z</time>
      </trkpt>
      <trkpt lat="45.15855" lon="5.93804">
        <ele>2097</ele>
        <time>2019-01-20T10:15:38.000Z</time>
      </trkpt>
      <trkpt lat="45.15855" lon="5.93804">
        <ele>2097</ele>
        <time>2019-01-20T10:15:39.000Z</time>
      </trkpt>
      <trkpt lat="45.15855" lon="5.93807">
        <ele>2098</ele>
        <time>2019-01-20T10:15:40.000Z</time>
      </trkpt>
      <trkpt lat="45.15855" lon="5.93807">
        <ele>2098</ele>
        <time>2019-01-20T10:15:41.000Z</time>
      </trkpt>
      <trkpt lat="45.15855" lon="5.93807">
        <ele>2098</ele>
        <time>2019-01-20T10:15:42.000Z</time>
      </trkpt>
      <trkpt lat="45.15855" lon="5.93807">
        <ele>2098</ele>
        <time>2019-01-20T10:15:43.000Z</time>
      </trkpt>
      <trkpt lat="45.15855" lon="5.93807">
        <ele>2098</ele>
        <time>2019-01-20T10:15:44.000Z</time>
      </trkpt>
      <trkpt lat="45.15855" lon="5.93807">
        <ele>2098</ele>
        <time>2019-01-20T10:15:45.000Z</time>
      </trkpt>
      <trkpt lat="45.15855" lon="5.93807">
        <ele>2098</ele>
        <time>2019-01-20T10:15:46.000Z</time>
      </trkpt>
      <trkpt lat="45.15855" lon="5.93804">
        <ele>2098</ele>
        <time>2019-01-20T10:15:47.000Z</time>
      </trkpt>
      <trkpt lat="45.15854" lon="5.93802">
        <ele>2098</ele>
        <time>2019-01-20T10:15:48.000Z</time>
      </trkpt>
      <trkpt lat="45.15853" lon="5.93799">
        <ele>2098</ele>
        <time>2019-01-20T10:15:49.000Z</time>
      </trkpt>
      <trkpt lat="45.15852" lon="5.93796">
        <ele>2097</ele>
        <time>2019-01-20T10:15:50.000Z</time>
      </trkpt>
      <trkpt lat="45.15851" lon="5.93794">
        <ele>2097</ele>
        <time>2019-01-20T10:15:51.000Z</time>
      </trkpt>
      <trkpt lat="45.1585" lon="5.93792">
        <ele>2096</ele>
        <time>2019-01-20T10:15:52.000Z</time>
      </trkpt>
      <trkpt lat="45.1585" lon="5.93792">
        <ele>2096</ele>
        <time>2019-01-20T10:15:53.000Z</time>
      </trkpt>
      <trkpt lat="45.15851" lon="5.93788">
        <ele>2096</ele>
        <time>2019-01-20T10:15:54.000Z</time>
      </trkpt>
      <trkpt lat="45.15851" lon="5.93788">
        <ele>2096</ele>
        <time>2019-01-20T10:15:55.000Z</time>
      </trkpt>
      <trkpt lat="45.15854" lon="5.9379">
        <ele>2096</ele>
        <time>2019-01-20T10:15:57.000Z</time>
      </trkpt>
      <trkpt lat="45.15854" lon="5.9379">
        <ele>2096</ele>
        <time>2019-01-20T10:15:58.000Z</time>
      </trkpt>
      <trkpt lat="45.15856" lon="5.93792">
        <ele>2096</ele>
        <time>2019-01-20T10:15:59.000Z</time>
      </trkpt>
      <trkpt lat="45.15856" lon="5.93792">
        <ele>2096</ele>
        <time>2019-01-20T10:16:00.000Z</time>
      </trkpt>
      <trkpt lat="45.15858" lon="5.93796">
        <ele>2096</ele>
        <time>2019-01-20T10:16:01.000Z</time>
      </trkpt>
      <trkpt lat="45.15858" lon="5.93796">
        <ele>2096</ele>
        <time>2019-01-20T10:16:02.000Z</time>
      </trkpt>
      <trkpt lat="45.1586" lon="5.93799">
        <ele>2095</ele>
        <time>2019-01-20T10:16:03.000Z</time>
      </trkpt>
      <trkpt lat="45.15861" lon="5.93801">
        <ele>2095</ele>
        <time>2019-01-20T10:16:04.000Z</time>
      </trkpt>
      <trkpt lat="45.15861" lon="5.93801">
        <ele>2095</ele>
        <time>2019-01-20T10:16:05.000Z</time>
      </trkpt>
      <trkpt lat="45.15863" lon="5.93805">
        <ele>2095</ele>
        <time>2019-01-20T10:16:06.000Z</time>
      </trkpt>
      <trkpt lat="45.15863" lon="5.93805">
        <ele>2094</ele>
        <time>2019-01-20T10:16:07.000Z</time>
      </trkpt>
      <trkpt lat="45.15865" lon="5.93808">
        <ele>2094</ele>
        <time>2019-01-20T10:16:08.000Z</time>
      </trkpt>
      <trkpt lat="45.15865" lon="5.93808">
        <ele>2094</ele>
        <time>2019-01-20T10:16:09.000Z</time>
      </trkpt>
      <trkpt lat="45.15867" lon="5.93812">
        <ele>2094</ele>
        <time>2019-01-20T10:16:10.000Z</time>
      </trkpt>
      <trkpt lat="45.15867" lon="5.93812">
        <ele>2094</ele>
        <time>2019-01-20T10:16:11.000Z</time>
      </trkpt>
      <trkpt lat="45.15868" lon="5.93816">
        <ele>2094</ele>
        <time>2019-01-20T10:16:12.000Z</time>
      </trkpt>
      <trkpt lat="45.15868" lon="5.93816">
        <ele>2094</ele>
        <time>2019-01-20T10:16:13.000Z</time>
      </trkpt>
      <trkpt lat="45.15867" lon="5.9382">
        <ele>2094</ele>
        <time>2019-01-20T10:16:14.000Z</time>
      </trkpt>
      <trkpt lat="45.15866" lon="5.93822">
        <ele>2094</ele>
        <time>2019-01-20T10:16:15.000Z</time>
      </trkpt>
      <trkpt lat="45.15865" lon="5.93825">
        <ele>2094</ele>
        <time>2019-01-20T10:16:16.000Z</time>
      </trkpt>
      <trkpt lat="45.15862" lon="5.93828">
        <ele>2094</ele>
        <time>2019-01-20T10:16:17.000Z</time>
      </trkpt>
      <trkpt lat="45.15859" lon="5.93831">
        <ele>2091</ele>
        <time>2019-01-20T10:16:18.000Z</time>
      </trkpt>
      <trkpt lat="45.15857" lon="5.93835">
        <ele>2091</ele>
        <time>2019-01-20T10:16:19.000Z</time>
      </trkpt>
      <trkpt lat="45.15855" lon="5.93838">
        <ele>2090</ele>
        <time>2019-01-20T10:16:20.000Z</time>
      </trkpt>
      <trkpt lat="45.15854" lon="5.9384">
        <ele>2090</ele>
        <time>2019-01-20T10:16:21.000Z</time>
      </trkpt>
      <trkpt lat="45.15854" lon="5.9384">
        <ele>2090</ele>
        <time>2019-01-20T10:16:22.000Z</time>
      </trkpt>
      <trkpt lat="45.15853" lon="5.93842">
        <ele>2090</ele>
        <time>2019-01-20T10:16:23.000Z</time>
      </trkpt>
      <trkpt lat="45.15853" lon="5.93842">
        <ele>2090</ele>
        <time>2019-01-20T10:16:24.000Z</time>
      </trkpt>
      <trkpt lat="45.15851" lon="5.93846">
        <ele>2090</ele>
        <time>2019-01-20T10:16:25.000Z</time>
      </trkpt>
      <trkpt lat="45.15851" lon="5.93846">
        <ele>2090</ele>
        <time>2019-01-20T10:16:26.000Z</time>
      </trkpt>
      <trkpt lat="45.1585" lon="5.9385">
        <ele>2090</ele>
        <time>2019-01-20T10:16:27.000Z</time>
      </trkpt>
      <trkpt lat="45.1585" lon="5.9385">
        <ele>2089</ele>
        <time>2019-01-20T10:16:28.000Z</time>
      </trkpt>
      <trkpt lat="45.15848" lon="5.93854">
        <ele>2089</ele>
        <time>2019-01-20T10:16:29.000Z</time>
      </trkpt>
      <trkpt lat="45.15848" lon="5.93854">
        <ele>2089</ele>
        <time>2019-01-20T10:16:30.000Z</time>
      </trkpt>
      <trkpt lat="45.15846" lon="5.93858">
        <ele>2089</ele>
        <time>2019-01-20T10:16:31.000Z</time>
      </trkpt>
      <trkpt lat="45.15846" lon="5.93858">
        <ele>2089</ele>
        <time>2019-01-20T10:16:32.000Z</time>
      </trkpt>
      <trkpt lat="45.15845" lon="5.93862">
        <ele>2089</ele>
        <time>2019-01-20T10:16:33.000Z</time>
      </trkpt>
      <trkpt lat="45.15844" lon="5.93866">
        <ele>2089</ele>
        <time>2019-01-20T10:16:35.000Z</time>
      </trkpt>
      <trkpt lat="45.15844" lon="5.93866">
        <ele>2089</ele>
        <time>2019-01-20T10:16:36.000Z</time>
      </trkpt>
      <trkpt lat="45.15844" lon="5.9387">
        <ele>2088</ele>
        <time>2019-01-20T10:16:37.000Z</time>
      </trkpt>
      <trkpt lat="45.15844" lon="5.9387">
        <ele>2088</ele>
        <time>2019-01-20T10:16:38.000Z</time>
      </trkpt>
      <trkpt lat="45.15844" lon="5.93874">
        <ele>2088</ele>
        <time>2019-01-20T10:16:39.000Z</time>
      </trkpt>
      <trkpt lat="45.15844" lon="5.93874">
        <ele>2088</ele>
        <time>2019-01-20T10:16:40.000Z</time>
      </trkpt>
      <trkpt lat="45.15843" lon="5.93879">
        <ele>2088</ele>
        <time>2019-01-20T10:16:41.000Z</time>
      </trkpt>
      <trkpt lat="45.15843" lon="5.93879">
        <ele>2088</ele>
        <time>2019-01-20T10:16:42.000Z</time>
      </trkpt>
      <trkpt lat="45.15843" lon="5.93883">
        <ele>2088</ele>
        <time>2019-01-20T10:16:43.000Z</time>
      </trkpt>
      <trkpt lat="45.15843" lon="5.93883">
        <ele>2088</ele>
        <time>2019-01-20T10:16:44.000Z</time>
      </trkpt>
      <trkpt lat="45.15843" lon="5.93888">
        <ele>2088</ele>
        <time>2019-01-20T10:16:45.000Z</time>
      </trkpt>
      <trkpt lat="45.15843" lon="5.93888">
        <ele>2088</ele>
        <time>2019-01-20T10:16:46.000Z</time>
      </trkpt>
      <trkpt lat="45.15843" lon="5.93892">
        <ele>2088</ele>
        <time>2019-01-20T10:16:47.000Z</time>
      </trkpt>
      <trkpt lat="45.15843" lon="5.93892">
        <ele>2087</ele>
        <time>2019-01-20T10:16:48.000Z</time>
      </trkpt>
      <trkpt lat="45.15843" lon="5.93895">
        <ele>2087</ele>
        <time>2019-01-20T10:16:49.000Z</time>
      </trkpt>
      <trkpt lat="45.15843" lon="5.93895">
        <ele>2087</ele>
        <time>2019-01-20T10:16:50.000Z</time>
      </trkpt>
      <trkpt lat="45.15842" lon="5.93899">
        <ele>2087</ele>
        <time>2019-01-20T10:16:51.000Z</time>
      </trkpt>
      <trkpt lat="45.15842" lon="5.93899">
        <ele>2087</ele>
        <time>2019-01-20T10:16:52.000Z</time>
      </trkpt>
      <trkpt lat="45.15841" lon="5.93904">
        <ele>2087</ele>
        <time>2019-01-20T10:16:53.000Z</time>
      </trkpt>
      <trkpt lat="45.15841" lon="5.93904">
        <ele>2087</ele>
        <time>2019-01-20T10:16:54.000Z</time>
      </trkpt>
      <trkpt lat="45.15841" lon="5.93908">
        <ele>2087</ele>
        <time>2019-01-20T10:16:55.000Z</time>
      </trkpt>
      <trkpt lat="45.15841" lon="5.93908">
        <ele>2087</ele>
        <time>2019-01-20T10:16:56.000Z</time>
      </trkpt>
      <trkpt lat="45.15841" lon="5.93912">
        <ele>2087</ele>
        <time>2019-01-20T10:16:57.000Z</time>
      </trkpt>
      <trkpt lat="45.15841" lon="5.93912">
        <ele>2087</ele>
        <time>2019-01-20T10:16:58.000Z</time>
      </trkpt>
      <trkpt lat="45.15841" lon="5.93916">
        <ele>2087</ele>
        <time>2019-01-20T10:16:59.000Z</time>
      </trkpt>
      <trkpt lat="45.15841" lon="5.93916">
        <ele>2087</ele>
        <time>2019-01-20T10:17:00.000Z</time>
      </trkpt>
      <trkpt lat="45.15841" lon="5.9392">
        <ele>2087</ele>
        <time>2019-01-20T10:17:01.000Z</time>
      </trkpt>
      <trkpt lat="45.15841" lon="5.9392">
        <ele>2087</ele>
        <time>2019-01-20T10:17:02.000Z</time>
      </trkpt>
      <trkpt lat="45.15841" lon="5.93923">
        <ele>2087</ele>
        <time>2019-01-20T10:17:03.000Z</time>
      </trkpt>
      <trkpt lat="45.15841" lon="5.93923">
        <ele>2087</ele>
        <time>2019-01-20T10:17:04.000Z</time>
      </trkpt>
      <trkpt lat="45.15841" lon="5.93927">
        <ele>2087</ele>
        <time>2019-01-20T10:17:05.000Z</time>
      </trkpt>
      <trkpt lat="45.15841" lon="5.93927">
        <ele>2087</ele>
        <time>2019-01-20T10:17:06.000Z</time>
      </trkpt>
      <trkpt lat="45.1584" lon="5.93931">
        <ele>2087</ele>
        <time>2019-01-20T10:17:07.000Z</time>
      </trkpt>
      <trkpt lat="45.1584" lon="5.93931">
        <ele>2087</ele>
        <time>2019-01-20T10:17:08.000Z</time>
      </trkpt>
      <trkpt lat="45.1584" lon="5.93935">
        <ele>2087</ele>
        <time>2019-01-20T10:17:09.000Z</time>
      </trkpt>
      <trkpt lat="45.1584" lon="5.93935">
        <ele>2087</ele>
        <time>2019-01-20T10:17:10.000Z</time>
      </trkpt>
      <trkpt lat="45.15839" lon="5.93938">
        <ele>2088</ele>
        <time>2019-01-20T10:17:11.000Z</time>
      </trkpt>
      <trkpt lat="45.15839" lon="5.93942">
        <ele>2088</ele>
        <time>2019-01-20T10:17:13.000Z</time>
      </trkpt>
      <trkpt lat="45.15839" lon="5.93942">
        <ele>2088</ele>
        <time>2019-01-20T10:17:14.000Z</time>
      </trkpt>
      <trkpt lat="45.15838" lon="5.93946">
        <ele>2088</ele>
        <time>2019-01-20T10:17:15.000Z</time>
      </trkpt>
      <trkpt lat="45.15838" lon="5.93946">
        <ele>2088</ele>
        <time>2019-01-20T10:17:16.000Z</time>
      </trkpt>
      <trkpt lat="45.15837" lon="5.9395">
        <ele>2088</ele>
        <time>2019-01-20T10:17:17.000Z</time>
      </trkpt>
      <trkpt lat="45.15837" lon="5.9395">
        <ele>2088</ele>
        <time>2019-01-20T10:17:18.000Z</time>
      </trkpt>
      <trkpt lat="45.15838" lon="5.93954">
        <ele>2088</ele>
        <time>2019-01-20T10:17:19.000Z</time>
      </trkpt>
      <trkpt lat="45.15838" lon="5.93954">
        <ele>2089</ele>
        <time>2019-01-20T10:17:20.000Z</time>
      </trkpt>
      <trkpt lat="45.15838" lon="5.93957">
        <ele>2089</ele>
        <time>2019-01-20T10:17:21.000Z</time>
      </trkpt>
      <trkpt lat="45.15838" lon="5.93957">
        <ele>2089</ele>
        <time>2019-01-20T10:17:22.000Z</time>
      </trkpt>
      <trkpt lat="45.15837" lon="5.93961">
        <ele>2089</ele>
        <time>2019-01-20T10:17:23.000Z</time>
      </trkpt>
      <trkpt lat="45.15837" lon="5.93961">
        <ele>2089</ele>
        <time>2019-01-20T10:17:24.000Z</time>
      </trkpt>
      <trkpt lat="45.15837" lon="5.93964">
        <ele>2089</ele>
        <time>2019-01-20T10:17:25.000Z</time>
      </trkpt>
      <trkpt lat="45.15837" lon="5.93964">
        <ele>2089</ele>
        <time>2019-01-20T10:17:26.000Z</time>
      </trkpt>
      <trkpt lat="45.15836" lon="5.93967">
        <ele>2089</ele>
        <time>2019-01-20T10:17:27.000Z</time>
      </trkpt>
      <trkpt lat="45.15836" lon="5.93967">
        <ele>2089</ele>
        <time>2019-01-20T10:17:28.000Z</time>
      </trkpt>
      <trkpt lat="45.15836" lon="5.93971">
        <ele>2089</ele>
        <time>2019-01-20T10:17:29.000Z</time>
      </trkpt>
      <trkpt lat="45.15836" lon="5.93971">
        <ele>2089</ele>
        <time>2019-01-20T10:17:30.000Z</time>
      </trkpt>
      <trkpt lat="45.15835" lon="5.93974">
        <ele>2089</ele>
        <time>2019-01-20T10:17:31.000Z</time>
      </trkpt>
      <trkpt lat="45.15835" lon="5.93974">
        <ele>2089.6</ele>
        <time>2019-01-20T10:17:32.000Z</time>
      </trkpt>
      <trkpt lat="45.15834" lon="5.93977">
        <ele>2090</ele>
        <time>2019-01-20T10:17:33.000Z</time>
      </trkpt>
      <trkpt lat="45.15834" lon="5.93977">
        <ele>2091</ele>
        <time>2019-01-20T10:17:34.000Z</time>
      </trkpt>
      <trkpt lat="45.15834" lon="5.93977">
        <ele>2092</ele>
        <time>2019-01-20T10:17:35.000Z</time>
      </trkpt>
      <trkpt lat="45.15834" lon="5.9398">
        <ele>2092</ele>
        <time>2019-01-20T10:17:36.000Z</time>
      </trkpt>
      <trkpt lat="45.15834" lon="5.9398">
        <ele>2092</ele>
        <time>2019-01-20T10:17:37.000Z</time>
      </trkpt>
      <trkpt lat="45.15834" lon="5.9398">
        <ele>2092</ele>
        <time>2019-01-20T10:17:38.000Z</time>
      </trkpt>
      <trkpt lat="45.15833" lon="5.93983">
        <ele>2092</ele>
        <time>2019-01-20T10:17:39.000Z</time>
      </trkpt>
      <trkpt lat="45.15833" lon="5.93983">
        <ele>2092</ele>
        <time>2019-01-20T10:17:40.000Z</time>
      </trkpt>
      <trkpt lat="45.15833" lon="5.93986">
        <ele>2093</ele>
        <time>2019-01-20T10:17:41.000Z</time>
      </trkpt>
      <trkpt lat="45.15833" lon="5.93986">
        <ele>2093</ele>
        <time>2019-01-20T10:17:42.000Z</time>
      </trkpt>
      <trkpt lat="45.15833" lon="5.93986">
        <ele>2094</ele>
        <time>2019-01-20T10:17:43.000Z</time>
      </trkpt>
      <trkpt lat="45.15833" lon="5.93989">
        <ele>2094</ele>
        <time>2019-01-20T10:17:44.000Z</time>
      </trkpt>
      <trkpt lat="45.15833" lon="5.93989">
        <ele>2094</ele>
        <time>2019-01-20T10:17:45.000Z</time>
      </trkpt>
      <trkpt lat="45.15833" lon="5.93989">
        <ele>2094</ele>
        <time>2019-01-20T10:17:46.000Z</time>
      </trkpt>
      <trkpt lat="45.15833" lon="5.93992">
        <ele>2095</ele>
        <time>2019-01-20T10:17:47.000Z</time>
      </trkpt>
      <trkpt lat="45.15833" lon="5.93992">
        <ele>2095</ele>
        <time>2019-01-20T10:17:48.000Z</time>
      </trkpt>
      <trkpt lat="45.15833" lon="5.93992">
        <ele>2095</ele>
        <time>2019-01-20T10:17:49.000Z</time>
      </trkpt>
      <trkpt lat="45.15834" lon="5.93995">
        <ele>2095</ele>
        <time>2019-01-20T10:17:50.000Z</time>
      </trkpt>
      <trkpt lat="45.15834" lon="5.93995">
        <ele>2095</ele>
        <time>2019-01-20T10:17:51.000Z</time>
      </trkpt>
      <trkpt lat="45.15835" lon="5.93997">
        <ele>2095</ele>
        <time>2019-01-20T10:17:52.000Z</time>
      </trkpt>
      <trkpt lat="45.15835" lon="5.93997">
        <ele>2095</ele>
        <time>2019-01-20T10:17:53.000Z</time>
      </trkpt>
      <trkpt lat="45.15835" lon="5.93997">
        <ele>2096</ele>
        <time>2019-01-20T10:17:54.000Z</time>
      </trkpt>
      <trkpt lat="45.15836" lon="5.94">
        <ele>2096</ele>
        <time>2019-01-20T10:17:55.000Z</time>
      </trkpt>
      <trkpt lat="45.15836" lon="5.94">
        <ele>2096</ele>
        <time>2019-01-20T10:17:56.000Z</time>
      </trkpt>
      <trkpt lat="45.15836" lon="5.94">
        <ele>2097</ele>
        <time>2019-01-20T10:17:57.000Z</time>
      </trkpt>
      <trkpt lat="45.15837" lon="5.94004">
        <ele>2097</ele>
        <time>2019-01-20T10:17:58.000Z</time>
      </trkpt>
      <trkpt lat="45.15837" lon="5.94004">
        <ele>2097</ele>
        <time>2019-01-20T10:17:59.000Z</time>
      </trkpt>
      <trkpt lat="45.15838" lon="5.94006">
        <ele>2097</ele>
        <time>2019-01-20T10:18:00.000Z</time>
      </trkpt>
      <trkpt lat="45.15838" lon="5.94006">
        <ele>2097</ele>
        <time>2019-01-20T10:18:01.000Z</time>
      </trkpt>
      <trkpt lat="45.15838" lon="5.94006">
        <ele>2097</ele>
        <time>2019-01-20T10:18:02.000Z</time>
      </trkpt>
      <trkpt lat="45.15838" lon="5.94006">
        <ele>2098</ele>
        <time>2019-01-20T10:18:03.000Z</time>
      </trkpt>
      <trkpt lat="45.15838" lon="5.94006">
        <ele>2098</ele>
        <time>2019-01-20T10:18:04.000Z</time>
      </trkpt>
      <trkpt lat="45.15839" lon="5.9401">
        <ele>2098</ele>
        <time>2019-01-20T10:18:05.000Z</time>
      </trkpt>
      <trkpt lat="45.15839" lon="5.9401">
        <ele>2098</ele>
        <time>2019-01-20T10:18:06.000Z</time>
      </trkpt>
      <trkpt lat="45.1584" lon="5.94013">
        <ele>2098</ele>
        <time>2019-01-20T10:18:07.000Z</time>
      </trkpt>
      <trkpt lat="45.1584" lon="5.94013">
        <ele>2098</ele>
        <time>2019-01-20T10:18:08.000Z</time>
      </trkpt>
      <trkpt lat="45.15841" lon="5.94017">
        <ele>2098</ele>
        <time>2019-01-20T10:18:09.000Z</time>
      </trkpt>
      <trkpt lat="45.15841" lon="5.94017">
        <ele>2098</ele>
        <time>2019-01-20T10:18:10.000Z</time>
      </trkpt>
      <trkpt lat="45.15841" lon="5.9402">
        <ele>2098</ele>
        <time>2019-01-20T10:18:11.000Z</time>
      </trkpt>
      <trkpt lat="45.15841" lon="5.9402">
        <ele>2098</ele>
        <time>2019-01-20T10:18:12.000Z</time>
      </trkpt>
      <trkpt lat="45.15841" lon="5.94023">
        <ele>2098</ele>
        <time>2019-01-20T10:18:13.000Z</time>
      </trkpt>
      <trkpt lat="45.15841" lon="5.94023">
        <ele>2098</ele>
        <time>2019-01-20T10:18:14.000Z</time>
      </trkpt>
      <trkpt lat="45.15843" lon="5.94027">
        <ele>2099</ele>
        <time>2019-01-20T10:18:15.000Z</time>
      </trkpt>
      <trkpt lat="45.15843" lon="5.94027">
        <ele>2099</ele>
        <time>2019-01-20T10:18:16.000Z</time>
      </trkpt>
      <trkpt lat="45.15844" lon="5.9403">
        <ele>2099</ele>
        <time>2019-01-20T10:18:17.000Z</time>
      </trkpt>
      <trkpt lat="45.15844" lon="5.9403">
        <ele>2099</ele>
        <time>2019-01-20T10:18:18.000Z</time>
      </trkpt>
      <trkpt lat="45.15845" lon="5.94033">
        <ele>2099</ele>
        <time>2019-01-20T10:18:19.000Z</time>
      </trkpt>
      <trkpt lat="45.15845" lon="5.94033">
        <ele>2099</ele>
        <time>2019-01-20T10:18:20.000Z</time>
      </trkpt>
      <trkpt lat="45.15845" lon="5.94037">
        <ele>2099</ele>
        <time>2019-01-20T10:18:21.000Z</time>
      </trkpt>
      <trkpt lat="45.15845" lon="5.94037">
        <ele>2099</ele>
        <time>2019-01-20T10:18:22.000Z</time>
      </trkpt>
      <trkpt lat="45.15845" lon="5.9404">
        <ele>2099</ele>
        <time>2019-01-20T10:18:23.000Z</time>
      </trkpt>
      <trkpt lat="45.15845" lon="5.9404">
        <ele>2099</ele>
        <time>2019-01-20T10:18:24.000Z</time>
      </trkpt>
      <trkpt lat="45.15846" lon="5.94044">
        <ele>2099</ele>
        <time>2019-01-20T10:18:25.000Z</time>
      </trkpt>
      <trkpt lat="45.15846" lon="5.94044">
        <ele>2099</ele>
        <time>2019-01-20T10:18:26.000Z</time>
      </trkpt>
      <trkpt lat="45.15847" lon="5.94048">
        <ele>2099</ele>
        <time>2019-01-20T10:18:27.000Z</time>
      </trkpt>
      <trkpt lat="45.15847" lon="5.94052">
        <ele>2099</ele>
        <time>2019-01-20T10:18:29.000Z</time>
      </trkpt>
      <trkpt lat="45.15847" lon="5.94052">
        <ele>2099</ele>
        <time>2019-01-20T10:18:30.000Z</time>
      </trkpt>
      <trkpt lat="45.15848" lon="5.94055">
        <ele>2099</ele>
        <time>2019-01-20T10:18:31.000Z</time>
      </trkpt>
      <trkpt lat="45.15848" lon="5.94055">
        <ele>2099</ele>
        <time>2019-01-20T10:18:32.000Z</time>
      </trkpt>
      <trkpt lat="45.15849" lon="5.9406">
        <ele>2099</ele>
        <time>2019-01-20T10:18:33.000Z</time>
      </trkpt>
      <trkpt lat="45.15849" lon="5.9406">
        <ele>2099</ele>
        <time>2019-01-20T10:18:34.000Z</time>
      </trkpt>
      <trkpt lat="45.1585" lon="5.94063">
        <ele>2099</ele>
        <time>2019-01-20T10:18:35.000Z</time>
      </trkpt>
      <trkpt lat="45.1585" lon="5.94063">
        <ele>2099</ele>
        <time>2019-01-20T10:18:36.000Z</time>
      </trkpt>
      <trkpt lat="45.1585" lon="5.94067">
        <ele>2099</ele>
        <time>2019-01-20T10:18:37.000Z</time>
      </trkpt>
      <trkpt lat="45.1585" lon="5.94067">
        <ele>2099</ele>
        <time>2019-01-20T10:18:38.000Z</time>
      </trkpt>
      <trkpt lat="45.15851" lon="5.94071">
        <ele>2099</ele>
        <time>2019-01-20T10:18:39.000Z</time>
      </trkpt>
      <trkpt lat="45.15851" lon="5.94071">
        <ele>2099</ele>
        <time>2019-01-20T10:18:40.000Z</time>
      </trkpt>
      <trkpt lat="45.15851" lon="5.94074">
        <ele>2099</ele>
        <time>2019-01-20T10:18:41.000Z</time>
      </trkpt>
      <trkpt lat="45.15851" lon="5.94074">
        <ele>2099</ele>
        <time>2019-01-20T10:18:42.000Z</time>
      </trkpt>
      <trkpt lat="45.15852" lon="5.94078">
        <ele>2099</ele>
        <time>2019-01-20T10:18:43.000Z</time>
      </trkpt>
      <trkpt lat="45.15852" lon="5.94078">
        <ele>2099</ele>
        <time>2019-01-20T10:18:44.000Z</time>
      </trkpt>
      <trkpt lat="45.15852" lon="5.94081">
        <ele>2099</ele>
        <time>2019-01-20T10:18:45.000Z</time>
      </trkpt>
      <trkpt lat="45.15852" lon="5.94081">
        <ele>2100</ele>
        <time>2019-01-20T10:18:46.000Z</time>
      </trkpt>
      <trkpt lat="45.15853" lon="5.94085">
        <ele>2100</ele>
        <time>2019-01-20T10:18:47.000Z</time>
      </trkpt>
      <trkpt lat="45.15853" lon="5.94085">
        <ele>2100</ele>
        <time>2019-01-20T10:18:48.000Z</time>
      </trkpt>
      <trkpt lat="45.15853" lon="5.94088">
        <ele>2100</ele>
        <time>2019-01-20T10:18:49.000Z</time>
      </trkpt>
      <trkpt lat="45.15853" lon="5.94088">
        <ele>2100</ele>
        <time>2019-01-20T10:18:50.000Z</time>
      </trkpt>
      <trkpt lat="45.15854" lon="5.94091">
        <ele>2100</ele>
        <time>2019-01-20T10:18:51.000Z</time>
      </trkpt>
      <trkpt lat="45.15854" lon="5.94091">
        <ele>2100</ele>
        <time>2019-01-20T10:18:52.000Z</time>
      </trkpt>
      <trkpt lat="45.15855" lon="5.94094">
        <ele>2100</ele>
        <time>2019-01-20T10:18:53.000Z</time>
      </trkpt>
      <trkpt lat="45.15855" lon="5.94094">
        <ele>2100</ele>
        <time>2019-01-20T10:18:54.000Z</time>
      </trkpt>
      <trkpt lat="45.15856" lon="5.94097">
        <ele>2100</ele>
        <time>2019-01-20T10:18:55.000Z</time>
      </trkpt>
      <trkpt lat="45.15856" lon="5.94097">
        <ele>2100</ele>
        <time>2019-01-20T10:18:56.000Z</time>
      </trkpt>
      <trkpt lat="45.15858" lon="5.941">
        <ele>2101</ele>
        <time>2019-01-20T10:18:57.000Z</time>
      </trkpt>
      <trkpt lat="45.15858" lon="5.941">
        <ele>2101</ele>
        <time>2019-01-20T10:18:58.000Z</time>
      </trkpt>
      <trkpt lat="45.15859" lon="5.94103">
        <ele>2101</ele>
        <time>2019-01-20T10:18:59.000Z</time>
      </trkpt>
      <trkpt lat="45.15859" lon="5.94103">
        <ele>2101</ele>
        <time>2019-01-20T10:19:00.000Z</time>
      </trkpt>
      <trkpt lat="45.15861" lon="5.94106">
        <ele>2101</ele>
        <time>2019-01-20T10:19:01.000Z</time>
      </trkpt>
      <trkpt lat="45.15861" lon="5.94106">
        <ele>2101</ele>
        <time>2019-01-20T10:19:02.000Z</time>
      </trkpt>
      <trkpt lat="45.15862" lon="5.94108">
        <ele>2101</ele>
        <time>2019-01-20T10:19:03.000Z</time>
      </trkpt>
      <trkpt lat="45.15862" lon="5.94108">
        <ele>2101</ele>
        <time>2019-01-20T10:19:04.000Z</time>
      </trkpt>
      <trkpt lat="45.15863" lon="5.94111">
        <ele>2101</ele>
        <time>2019-01-20T10:19:05.000Z</time>
      </trkpt>
      <trkpt lat="45.15863" lon="5.94111">
        <ele>2101</ele>
        <time>2019-01-20T10:19:07.000Z</time>
      </trkpt>
      <trkpt lat="45.15863" lon="5.94114">
        <ele>2101</ele>
        <time>2019-01-20T10:19:08.000Z</time>
      </trkpt>
      <trkpt lat="45.15863" lon="5.94114">
        <ele>2102</ele>
        <time>2019-01-20T10:19:09.000Z</time>
      </trkpt>
      <trkpt lat="45.15864" lon="5.94117">
        <ele>2102</ele>
        <time>2019-01-20T10:19:10.000Z</time>
      </trkpt>
      <trkpt lat="45.15864" lon="5.94117">
        <ele>2102</ele>
        <time>2019-01-20T10:19:11.000Z</time>
      </trkpt>
      <trkpt lat="45.15865" lon="5.9412">
        <ele>2102</ele>
        <time>2019-01-20T10:19:12.000Z</time>
      </trkpt>
      <trkpt lat="45.15865" lon="5.9412">
        <ele>2102</ele>
        <time>2019-01-20T10:19:13.000Z</time>
      </trkpt>
      <trkpt lat="45.15866" lon="5.94122">
        <ele>2102</ele>
        <time>2019-01-20T10:19:14.000Z</time>
      </trkpt>
      <trkpt lat="45.15866" lon="5.94122">
        <ele>2102</ele>
        <time>2019-01-20T10:19:15.000Z</time>
      </trkpt>
      <trkpt lat="45.15866" lon="5.94125">
        <ele>2102</ele>
        <time>2019-01-20T10:19:16.000Z</time>
      </trkpt>
      <trkpt lat="45.15866" lon="5.94125">
        <ele>2101</ele>
        <time>2019-01-20T10:19:17.000Z</time>
      </trkpt>
      <trkpt lat="45.15868" lon="5.9413">
        <ele>2100</ele>
        <time>2019-01-20T10:19:18.000Z</time>
      </trkpt>
      <trkpt lat="45.1587" lon="5.94138">
        <ele>2100</ele>
        <time>2019-01-20T10:19:19.000Z</time>
      </trkpt>
      <trkpt lat="45.15871" lon="5.94141">
        <ele>2097.6</ele>
        <time>2019-01-20T10:19:20.000Z</time>
      </trkpt>
      <trkpt lat="45.15875" lon="5.94154">
        <ele>2097.6</ele>
        <time>2019-01-20T10:19:21.000Z</time>
      </trkpt>
      <trkpt lat="45.15876" lon="5.94158">
        <ele>2095.6</ele>
        <time>2019-01-20T10:19:22.000Z</time>
      </trkpt>
      <trkpt lat="45.15879" lon="5.94168">
        <ele>2091</ele>
        <time>2019-01-20T10:19:23.000Z</time>
      </trkpt>
      <trkpt lat="45.15879" lon="5.94178">
        <ele>2088</ele>
        <time>2019-01-20T10:19:24.000Z</time>
      </trkpt>
      <trkpt lat="45.15878" lon="5.94191">
        <ele>2088</ele>
        <time>2019-01-20T10:19:25.000Z</time>
      </trkpt>
      <trkpt lat="45.15877" lon="5.94196">
        <ele>2086.4</ele>
        <time>2019-01-20T10:19:26.000Z</time>
      </trkpt>
      <trkpt lat="45.15877" lon="5.94204">
        <ele>2086</ele>
        <time>2019-01-20T10:19:27.000Z</time>
      </trkpt>
      <trkpt lat="45.15879" lon="5.94212">
        <ele>2083</ele>
        <time>2019-01-20T10:19:28.000Z</time>
      </trkpt>
      <trkpt lat="45.1588" lon="5.94218">
        <ele>2082</ele>
        <time>2019-01-20T10:19:29.000Z</time>
      </trkpt>
      <trkpt lat="45.15882" lon="5.94221">
        <ele>2081</ele>
        <time>2019-01-20T10:19:30.000Z</time>
      </trkpt>
      <trkpt lat="45.15883" lon="5.94224">
        <ele>2081</ele>
        <time>2019-01-20T10:19:31.000Z</time>
      </trkpt>
      <trkpt lat="45.15884" lon="5.94227">
        <ele>2080</ele>
        <time>2019-01-20T10:19:32.000Z</time>
      </trkpt>
      <trkpt lat="45.15884" lon="5.94227">
        <ele>2079</ele>
        <time>2019-01-20T10:19:33.000Z</time>
      </trkpt>
      <trkpt lat="45.15886" lon="5.94231">
        <ele>2079</ele>
        <time>2019-01-20T10:19:34.000Z</time>
      </trkpt>
      <trkpt lat="45.15886" lon="5.94231">
        <ele>2079</ele>
        <time>2019-01-20T10:19:35.000Z</time>
      </trkpt>
      <trkpt lat="45.15887" lon="5.94235">
        <ele>2079</ele>
        <time>2019-01-20T10:19:36.000Z</time>
      </trkpt>
      <trkpt lat="45.15887" lon="5.94235">
        <ele>2079</ele>
        <time>2019-01-20T10:19:37.000Z</time>
      </trkpt>
      <trkpt lat="45.15886" lon="5.94239">
        <ele>2079</ele>
        <time>2019-01-20T10:19:38.000Z</time>
      </trkpt>
      <trkpt lat="45.15886" lon="5.94239">
        <ele>2079</ele>
        <time>2019-01-20T10:19:39.000Z</time>
      </trkpt>
      <trkpt lat="45.15885" lon="5.94242">
        <ele>2078</ele>
        <time>2019-01-20T10:19:40.000Z</time>
      </trkpt>
      <trkpt lat="45.15885" lon="5.94242">
        <ele>2078</ele>
        <time>2019-01-20T10:19:41.000Z</time>
      </trkpt>
      <trkpt lat="45.15885" lon="5.94246">
        <ele>2078</ele>
        <time>2019-01-20T10:19:42.000Z</time>
      </trkpt>
      <trkpt lat="45.15885" lon="5.94246">
        <ele>2078</ele>
        <time>2019-01-20T10:19:43.000Z</time>
      </trkpt>
      <trkpt lat="45.15885" lon="5.9425">
        <ele>2078</ele>
        <time>2019-01-20T10:19:44.000Z</time>
      </trkpt>
      <trkpt lat="45.15885" lon="5.9425">
        <ele>2078</ele>
        <time>2019-01-20T10:19:45.000Z</time>
      </trkpt>
      <trkpt lat="45.15884" lon="5.94254">
        <ele>2079</ele>
        <time>2019-01-20T10:19:46.000Z</time>
      </trkpt>
      <trkpt lat="45.15884" lon="5.94254">
        <ele>2079</ele>
        <time>2019-01-20T10:19:47.000Z</time>
      </trkpt>
      <trkpt lat="45.15884" lon="5.94258">
        <ele>2079</ele>
        <time>2019-01-20T10:19:48.000Z</time>
      </trkpt>
      <trkpt lat="45.15884" lon="5.94258">
        <ele>2079</ele>
        <time>2019-01-20T10:19:49.000Z</time>
      </trkpt>
      <trkpt lat="45.15884" lon="5.94262">
        <ele>2079</ele>
        <time>2019-01-20T10:19:50.000Z</time>
      </trkpt>
      <trkpt lat="45.15884" lon="5.94262">
        <ele>2079</ele>
        <time>2019-01-20T10:19:51.000Z</time>
      </trkpt>
      <trkpt lat="45.15884" lon="5.94266">
        <ele>2079</ele>
        <time>2019-01-20T10:19:52.000Z</time>
      </trkpt>
      <trkpt lat="45.15884" lon="5.94266">
        <ele>2079</ele>
        <time>2019-01-20T10:19:53.000Z</time>
      </trkpt>
      <trkpt lat="45.15884" lon="5.94269">
        <ele>2079</ele>
        <time>2019-01-20T10:19:54.000Z</time>
      </trkpt>
      <trkpt lat="45.15884" lon="5.94269">
        <ele>2078</ele>
        <time>2019-01-20T10:19:55.000Z</time>
      </trkpt>
      <trkpt lat="45.15884" lon="5.94273">
        <ele>2078</ele>
        <time>2019-01-20T10:19:56.000Z</time>
      </trkpt>
      <trkpt lat="45.15884" lon="5.94273">
        <ele>2078</ele>
        <time>2019-01-20T10:19:57.000Z</time>
      </trkpt>
      <trkpt lat="45.15884" lon="5.94276">
        <ele>2079</ele>
        <time>2019-01-20T10:19:58.000Z</time>
      </trkpt>
      <trkpt lat="45.15884" lon="5.94276">
        <ele>2081</ele>
        <time>2019-01-20T10:19:59.000Z</time>
      </trkpt>
      <trkpt lat="45.15883" lon="5.9428">
        <ele>2081</ele>
        <time>2019-01-20T10:20:00.000Z</time>
      </trkpt>
      <trkpt lat="45.15883" lon="5.9428">
        <ele>2081</ele>
        <time>2019-01-20T10:20:01.000Z</time>
      </trkpt>
      <trkpt lat="45.15882" lon="5.94283">
        <ele>2081</ele>
        <time>2019-01-20T10:20:02.000Z</time>
      </trkpt>
      <trkpt lat="45.15882" lon="5.94287">
        <ele>2081</ele>
        <time>2019-01-20T10:20:04.000Z</time>
      </trkpt>
      <trkpt lat="45.15882" lon="5.94287">
        <ele>2081</ele>
        <time>2019-01-20T10:20:05.000Z</time>
      </trkpt>
      <trkpt lat="45.15882" lon="5.9429">
        <ele>2081</ele>
        <time>2019-01-20T10:20:06.000Z</time>
      </trkpt>
      <trkpt lat="45.15882" lon="5.9429">
        <ele>2081</ele>
        <time>2019-01-20T10:20:07.000Z</time>
      </trkpt>
      <trkpt lat="45.15883" lon="5.94294">
        <ele>2081</ele>
        <time>2019-01-20T10:20:08.000Z</time>
      </trkpt>
      <trkpt lat="45.15883" lon="5.94298">
        <ele>2081</ele>
        <time>2019-01-20T10:20:10.000Z</time>
      </trkpt>
      <trkpt lat="45.15883" lon="5.94298">
        <ele>2081</ele>
        <time>2019-01-20T10:20:11.000Z</time>
      </trkpt>
      <trkpt lat="45.15883" lon="5.94301">
        <ele>2081</ele>
        <time>2019-01-20T10:20:12.000Z</time>
      </trkpt>
      <trkpt lat="45.15883" lon="5.94301">
        <ele>2082</ele>
        <time>2019-01-20T10:20:13.000Z</time>
      </trkpt>
      <trkpt lat="45.15882" lon="5.94305">
        <ele>2082</ele>
        <time>2019-01-20T10:20:14.000Z</time>
      </trkpt>
      <trkpt lat="45.15882" lon="5.94305">
        <ele>2082</ele>
        <time>2019-01-20T10:20:15.000Z</time>
      </trkpt>
      <trkpt lat="45.15882" lon="5.94309">
        <ele>2082</ele>
        <time>2019-01-20T10:20:16.000Z</time>
      </trkpt>
      <trkpt lat="45.15882" lon="5.94309">
        <ele>2082</ele>
        <time>2019-01-20T10:20:17.000Z</time>
      </trkpt>
      <trkpt lat="45.15882" lon="5.94312">
        <ele>2082</ele>
        <time>2019-01-20T10:20:18.000Z</time>
      </trkpt>
      <trkpt lat="45.15882" lon="5.94312">
        <ele>2082</ele>
        <time>2019-01-20T10:20:19.000Z</time>
      </trkpt>
      <trkpt lat="45.15882" lon="5.94315">
        <ele>2082</ele>
        <time>2019-01-20T10:20:20.000Z</time>
      </trkpt>
      <trkpt lat="45.15882" lon="5.94315">
        <ele>2082</ele>
        <time>2019-01-20T10:20:21.000Z</time>
      </trkpt>
      <trkpt lat="45.15881" lon="5.94319">
        <ele>2082</ele>
        <time>2019-01-20T10:20:22.000Z</time>
      </trkpt>
      <trkpt lat="45.15881" lon="5.94319">
        <ele>2082</ele>
        <time>2019-01-20T10:20:23.000Z</time>
      </trkpt>
      <trkpt lat="45.15881" lon="5.94322">
        <ele>2082</ele>
        <time>2019-01-20T10:20:24.000Z</time>
      </trkpt>
      <trkpt lat="45.15881" lon="5.94322">
        <ele>2082</ele>
        <time>2019-01-20T10:20:25.000Z</time>
      </trkpt>
      <trkpt lat="45.1588" lon="5.94325">
        <ele>2083</ele>
        <time>2019-01-20T10:20:26.000Z</time>
      </trkpt>
      <trkpt lat="45.1588" lon="5.94325">
        <ele>2083</ele>
        <time>2019-01-20T10:20:27.000Z</time>
      </trkpt>
      <trkpt lat="45.1588" lon="5.94329">
        <ele>2083</ele>
        <time>2019-01-20T10:20:28.000Z</time>
      </trkpt>
      <trkpt lat="45.1588" lon="5.94329">
        <ele>2083</ele>
        <time>2019-01-20T10:20:29.000Z</time>
      </trkpt>
      <trkpt lat="45.15879" lon="5.94332">
        <ele>2083</ele>
        <time>2019-01-20T10:20:30.000Z</time>
      </trkpt>
      <trkpt lat="45.15879" lon="5.94332">
        <ele>2083</ele>
        <time>2019-01-20T10:20:31.000Z</time>
      </trkpt>
      <trkpt lat="45.15878" lon="5.94335">
        <ele>2083</ele>
        <time>2019-01-20T10:20:32.000Z</time>
      </trkpt>
      <trkpt lat="45.15878" lon="5.94335">
        <ele>2083</ele>
        <time>2019-01-20T10:20:33.000Z</time>
      </trkpt>
      <trkpt lat="45.15876" lon="5.94338">
        <ele>2083</ele>
        <time>2019-01-20T10:20:34.000Z</time>
      </trkpt>
      <trkpt lat="45.15876" lon="5.94338">
        <ele>2083</ele>
        <time>2019-01-20T10:20:35.000Z</time>
      </trkpt>
      <trkpt lat="45.15875" lon="5.94341">
        <ele>2083</ele>
        <time>2019-01-20T10:20:36.000Z</time>
      </trkpt>
      <trkpt lat="45.15875" lon="5.94341">
        <ele>2083</ele>
        <time>2019-01-20T10:20:37.000Z</time>
      </trkpt>
      <trkpt lat="45.15874" lon="5.94343">
        <ele>2083</ele>
        <time>2019-01-20T10:20:38.000Z</time>
      </trkpt>
      <trkpt lat="45.15874" lon="5.94343">
        <ele>2083</ele>
        <time>2019-01-20T10:20:39.000Z</time>
      </trkpt>
      <trkpt lat="45.15873" lon="5.94346">
        <ele>2084</ele>
        <time>2019-01-20T10:20:40.000Z</time>
      </trkpt>
      <trkpt lat="45.15871" lon="5.94348">
        <ele>2084</ele>
        <time>2019-01-20T10:20:42.000Z</time>
      </trkpt>
      <trkpt lat="45.15871" lon="5.94348">
        <ele>2084</ele>
        <time>2019-01-20T10:20:43.000Z</time>
      </trkpt>
      <trkpt lat="45.1587" lon="5.94351">
        <ele>2084</ele>
        <time>2019-01-20T10:20:44.000Z</time>
      </trkpt>
      <trkpt lat="45.1587" lon="5.94351">
        <ele>2084</ele>
        <time>2019-01-20T10:20:45.000Z</time>
      </trkpt>
      <trkpt lat="45.15869" lon="5.94354">
        <ele>2084</ele>
        <time>2019-01-20T10:20:46.000Z</time>
      </trkpt>
      <trkpt lat="45.15869" lon="5.94354">
        <ele>2084</ele>
        <time>2019-01-20T10:20:47.000Z</time>
      </trkpt>
      <trkpt lat="45.15868" lon="5.94357">
        <ele>2084</ele>
        <time>2019-01-20T10:20:48.000Z</time>
      </trkpt>
      <trkpt lat="45.15868" lon="5.94357">
        <ele>2084</ele>
        <time>2019-01-20T10:20:49.000Z</time>
      </trkpt>
      <trkpt lat="45.15866" lon="5.9436">
        <ele>2084</ele>
        <time>2019-01-20T10:20:50.000Z</time>
      </trkpt>
      <trkpt lat="45.15866" lon="5.9436">
        <ele>2084</ele>
        <time>2019-01-20T10:20:51.000Z</time>
      </trkpt>
      <trkpt lat="45.15865" lon="5.94363">
        <ele>2084</ele>
        <time>2019-01-20T10:20:52.000Z</time>
      </trkpt>
      <trkpt lat="45.15865" lon="5.94363">
        <ele>2085</ele>
        <time>2019-01-20T10:20:53.000Z</time>
      </trkpt>
      <trkpt lat="45.15864" lon="5.94366">
        <ele>2085</ele>
        <time>2019-01-20T10:20:54.000Z</time>
      </trkpt>
      <trkpt lat="45.15864" lon="5.94366">
        <ele>2085</ele>
        <time>2019-01-20T10:20:55.000Z</time>
      </trkpt>
      <trkpt lat="45.15862" lon="5.9437">
        <ele>2085</ele>
        <time>2019-01-20T10:20:56.000Z</time>
      </trkpt>
      <trkpt lat="45.15861" lon="5.94372">
        <ele>2085</ele>
        <time>2019-01-20T10:20:57.000Z</time>
      </trkpt>
      <trkpt lat="45.15861" lon="5.94372">
        <ele>2085</ele>
        <time>2019-01-20T10:20:58.000Z</time>
      </trkpt>
      <trkpt lat="45.15859" lon="5.94375">
        <ele>2085</ele>
        <time>2019-01-20T10:20:59.000Z</time>
      </trkpt>
      <trkpt lat="45.15857" lon="5.94378">
        <ele>2085</ele>
        <time>2019-01-20T10:21:01.000Z</time>
      </trkpt>
      <trkpt lat="45.15857" lon="5.94378">
        <ele>2085</ele>
        <time>2019-01-20T10:21:02.000Z</time>
      </trkpt>
      <trkpt lat="45.15856" lon="5.9438">
        <ele>2085</ele>
        <time>2019-01-20T10:21:03.000Z</time>
      </trkpt>
      <trkpt lat="45.15856" lon="5.9438">
        <ele>2085</ele>
        <time>2019-01-20T10:21:04.000Z</time>
      </trkpt>
      <trkpt lat="45.15855" lon="5.94383">
        <ele>2086</ele>
        <time>2019-01-20T10:21:05.000Z</time>
      </trkpt>
      <trkpt lat="45.15855" lon="5.94383">
        <ele>2086</ele>
        <time>2019-01-20T10:21:06.000Z</time>
      </trkpt>
      <trkpt lat="45.15854" lon="5.94386">
        <ele>2086</ele>
        <time>2019-01-20T10:21:07.000Z</time>
      </trkpt>
      <trkpt lat="45.15854" lon="5.94386">
        <ele>2086</ele>
        <time>2019-01-20T10:21:08.000Z</time>
      </trkpt>
      <trkpt lat="45.15853" lon="5.94389">
        <ele>2086</ele>
        <time>2019-01-20T10:21:09.000Z</time>
      </trkpt>
      <trkpt lat="45.15853" lon="5.94389">
        <ele>2087</ele>
        <time>2019-01-20T10:21:10.000Z</time>
      </trkpt>
      <trkpt lat="45.15851" lon="5.94392">
        <ele>2087</ele>
        <time>2019-01-20T10:21:11.000Z</time>
      </trkpt>
      <trkpt lat="45.15851" lon="5.94392">
        <ele>2087</ele>
        <time>2019-01-20T10:21:12.000Z</time>
      </trkpt>
      <trkpt lat="45.1585" lon="5.94394">
        <ele>2087</ele>
        <time>2019-01-20T10:21:13.000Z</time>
      </trkpt>
      <trkpt lat="45.1585" lon="5.94394">
        <ele>2087</ele>
        <time>2019-01-20T10:21:14.000Z</time>
      </trkpt>
      <trkpt lat="45.15848" lon="5.94396">
        <ele>2087</ele>
        <time>2019-01-20T10:21:15.000Z</time>
      </trkpt>
      <trkpt lat="45.15848" lon="5.94396">
        <ele>2087</ele>
        <time>2019-01-20T10:21:16.000Z</time>
      </trkpt>
      <trkpt lat="45.15846" lon="5.94399">
        <ele>2087</ele>
        <time>2019-01-20T10:21:17.000Z</time>
      </trkpt>
      <trkpt lat="45.15846" lon="5.94399">
        <ele>2087</ele>
        <time>2019-01-20T10:21:18.000Z</time>
      </trkpt>
      <trkpt lat="45.15844" lon="5.94401">
        <ele>2087</ele>
        <time>2019-01-20T10:21:19.000Z</time>
      </trkpt>
      <trkpt lat="45.15844" lon="5.94401">
        <ele>2087</ele>
        <time>2019-01-20T10:21:20.000Z</time>
      </trkpt>
      <trkpt lat="45.15842" lon="5.94404">
        <ele>2087</ele>
        <time>2019-01-20T10:21:21.000Z</time>
      </trkpt>
      <trkpt lat="45.15842" lon="5.94404">
        <ele>2088</ele>
        <time>2019-01-20T10:21:22.000Z</time>
      </trkpt>
      <trkpt lat="45.15841" lon="5.94406">
        <ele>2088</ele>
        <time>2019-01-20T10:21:23.000Z</time>
      </trkpt>
      <trkpt lat="45.15841" lon="5.94406">
        <ele>2088</ele>
        <time>2019-01-20T10:21:24.000Z</time>
      </trkpt>
      <trkpt lat="45.15841" lon="5.94406">
        <ele>2088</ele>
        <time>2019-01-20T10:21:25.000Z</time>
      </trkpt>
      <trkpt lat="45.15839" lon="5.94408">
        <ele>2088</ele>
        <time>2019-01-20T10:21:26.000Z</time>
      </trkpt>
      <trkpt lat="45.15839" lon="5.94408">
        <ele>2088</ele>
        <time>2019-01-20T10:21:27.000Z</time>
      </trkpt>
      <trkpt lat="45.15837" lon="5.9441">
        <ele>2089</ele>
        <time>2019-01-20T10:21:28.000Z</time>
      </trkpt>
      <trkpt lat="45.15837" lon="5.9441">
        <ele>2089</ele>
        <time>2019-01-20T10:21:29.000Z</time>
      </trkpt>
      <trkpt lat="45.15835" lon="5.94411">
        <ele>2089</ele>
        <time>2019-01-20T10:21:30.000Z</time>
      </trkpt>
      <trkpt lat="45.15835" lon="5.94411">
        <ele>2089</ele>
        <time>2019-01-20T10:21:31.000Z</time>
      </trkpt>
      <trkpt lat="45.15833" lon="5.94413">
        <ele>2089</ele>
        <time>2019-01-20T10:21:32.000Z</time>
      </trkpt>
      <trkpt lat="45.15833" lon="5.94413">
        <ele>2090</ele>
        <time>2019-01-20T10:21:33.000Z</time>
      </trkpt>
      <trkpt lat="45.15833" lon="5.94413">
        <ele>2090</ele>
        <time>2019-01-20T10:21:34.000Z</time>
      </trkpt>
      <trkpt lat="45.15832" lon="5.94416">
        <ele>2090</ele>
        <time>2019-01-20T10:21:35.000Z</time>
      </trkpt>
      <trkpt lat="45.15832" lon="5.94416">
        <ele>2090</ele>
        <time>2019-01-20T10:21:37.000Z</time>
      </trkpt>
      <trkpt lat="45.15831" lon="5.94419">
        <ele>2090</ele>
        <time>2019-01-20T10:21:38.000Z</time>
      </trkpt>
      <trkpt lat="45.1583" lon="5.9442">
        <ele>2090</ele>
        <time>2019-01-20T10:21:39.000Z</time>
      </trkpt>
      <trkpt lat="45.1583" lon="5.9442">
        <ele>2090</ele>
        <time>2019-01-20T10:21:40.000Z</time>
      </trkpt>
      <trkpt lat="45.1583" lon="5.9442">
        <ele>2091</ele>
        <time>2019-01-20T10:21:41.000Z</time>
      </trkpt>
      <trkpt lat="45.15829" lon="5.94423">
        <ele>2091</ele>
        <time>2019-01-20T10:21:42.000Z</time>
      </trkpt>
      <trkpt lat="45.15829" lon="5.94423">
        <ele>2091</ele>
        <time>2019-01-20T10:21:43.000Z</time>
      </trkpt>
      <trkpt lat="45.15829" lon="5.94423">
        <ele>2092</ele>
        <time>2019-01-20T10:21:44.000Z</time>
      </trkpt>
      <trkpt lat="45.15829" lon="5.94426">
        <ele>2092</ele>
        <time>2019-01-20T10:21:45.000Z</time>
      </trkpt>
      <trkpt lat="45.15829" lon="5.94426">
        <ele>2092</ele>
        <time>2019-01-20T10:21:46.000Z</time>
      </trkpt>
      <trkpt lat="45.15829" lon="5.94426">
        <ele>2093</ele>
        <time>2019-01-20T10:21:47.000Z</time>
      </trkpt>
      <trkpt lat="45.15829" lon="5.94429">
        <ele>2093</ele>
        <time>2019-01-20T10:21:48.000Z</time>
      </trkpt>
      <trkpt lat="45.15829" lon="5.94429">
        <ele>2093</ele>
        <time>2019-01-20T10:21:49.000Z</time>
      </trkpt>
      <trkpt lat="45.15829" lon="5.94432">
        <ele>2093</ele>
        <time>2019-01-20T10:21:50.000Z</time>
      </trkpt>
      <trkpt lat="45.15829" lon="5.94432">
        <ele>2093</ele>
        <time>2019-01-20T10:21:51.000Z</time>
      </trkpt>
      <trkpt lat="45.15829" lon="5.94432">
        <ele>2094</ele>
        <time>2019-01-20T10:21:52.000Z</time>
      </trkpt>
      <trkpt lat="45.1583" lon="5.94435">
        <ele>2094</ele>
        <time>2019-01-20T10:21:53.000Z</time>
      </trkpt>
      <trkpt lat="45.1583" lon="5.94435">
        <ele>2094</ele>
        <time>2019-01-20T10:21:54.000Z</time>
      </trkpt>
      <trkpt lat="45.1583" lon="5.94435">
        <ele>2095</ele>
        <time>2019-01-20T10:21:55.000Z</time>
      </trkpt>
      <trkpt lat="45.15829" lon="5.94438">
        <ele>2095</ele>
        <time>2019-01-20T10:21:56.000Z</time>
      </trkpt>
      <trkpt lat="45.15829" lon="5.94438">
        <ele>2095</ele>
        <time>2019-01-20T10:21:58.000Z</time>
      </trkpt>
      <trkpt lat="45.15829" lon="5.94442">
        <ele>2095</ele>
        <time>2019-01-20T10:21:59.000Z</time>
      </trkpt>
      <trkpt lat="45.15829" lon="5.94442">
        <ele>2096</ele>
        <time>2019-01-20T10:22:00.000Z</time>
      </trkpt>
      <trkpt lat="45.15829" lon="5.94442">
        <ele>2096</ele>
        <time>2019-01-20T10:22:01.000Z</time>
      </trkpt>
      <trkpt lat="45.15829" lon="5.94445">
        <ele>2096</ele>
        <time>2019-01-20T10:22:02.000Z</time>
      </trkpt>
      <trkpt lat="45.15829" lon="5.94445">
        <ele>2096</ele>
        <time>2019-01-20T10:22:03.000Z</time>
      </trkpt>
      <trkpt lat="45.15829" lon="5.94445">
        <ele>2096</ele>
        <time>2019-01-20T10:22:04.000Z</time>
      </trkpt>
      <trkpt lat="45.15828" lon="5.94448">
        <ele>2096</ele>
        <time>2019-01-20T10:22:05.000Z</time>
      </trkpt>
      <trkpt lat="45.15828" lon="5.94448">
        <ele>2097</ele>
        <time>2019-01-20T10:22:06.000Z</time>
      </trkpt>
      <trkpt lat="45.15828" lon="5.94448">
        <ele>2097</ele>
        <time>2019-01-20T10:22:07.000Z</time>
      </trkpt>
      <trkpt lat="45.15829" lon="5.94451">
        <ele>2097</ele>
        <time>2019-01-20T10:22:08.000Z</time>
      </trkpt>
      <trkpt lat="45.15829" lon="5.94451">
        <ele>2097</ele>
        <time>2019-01-20T10:22:09.000Z</time>
      </trkpt>
      <trkpt lat="45.15829" lon="5.94451">
        <ele>2097</ele>
        <time>2019-01-20T10:22:10.000Z</time>
      </trkpt>
      <trkpt lat="45.15828" lon="5.94454">
        <ele>2097</ele>
        <time>2019-01-20T10:22:11.000Z</time>
      </trkpt>
      <trkpt lat="45.15828" lon="5.94454">
        <ele>2098</ele>
        <time>2019-01-20T10:22:12.000Z</time>
      </trkpt>
      <trkpt lat="45.15828" lon="5.94454">
        <ele>2098</ele>
        <time>2019-01-20T10:22:13.000Z</time>
      </trkpt>
      <trkpt lat="45.15828" lon="5.94457">
        <ele>2098</ele>
        <time>2019-01-20T10:22:14.000Z</time>
      </trkpt>
      <trkpt lat="45.15828" lon="5.94457">
        <ele>2099</ele>
        <time>2019-01-20T10:22:15.000Z</time>
      </trkpt>
      <trkpt lat="45.15828" lon="5.9446">
        <ele>2099</ele>
        <time>2019-01-20T10:22:17.000Z</time>
      </trkpt>
      <trkpt lat="45.15828" lon="5.9446">
        <ele>2099</ele>
        <time>2019-01-20T10:22:18.000Z</time>
      </trkpt>
      <trkpt lat="45.15828" lon="5.9446">
        <ele>2100</ele>
        <time>2019-01-20T10:22:19.000Z</time>
      </trkpt>
      <trkpt lat="45.15828" lon="5.94464">
        <ele>2100</ele>
        <time>2019-01-20T10:22:20.000Z</time>
      </trkpt>
      <trkpt lat="45.15828" lon="5.94464">
        <ele>2100</ele>
        <time>2019-01-20T10:22:21.000Z</time>
      </trkpt>
      <trkpt lat="45.15828" lon="5.94464">
        <ele>2100</ele>
        <time>2019-01-20T10:22:22.000Z</time>
      </trkpt>
      <trkpt lat="45.15829" lon="5.94466">
        <ele>2100</ele>
        <time>2019-01-20T10:22:23.000Z</time>
      </trkpt>
      <trkpt lat="45.15829" lon="5.94466">
        <ele>2100</ele>
        <time>2019-01-20T10:22:24.000Z</time>
      </trkpt>
      <trkpt lat="45.15829" lon="5.94466">
        <ele>2102</ele>
        <time>2019-01-20T10:22:25.000Z</time>
      </trkpt>
      <trkpt lat="45.15829" lon="5.94469">
        <ele>2102</ele>
        <time>2019-01-20T10:22:26.000Z</time>
      </trkpt>
      <trkpt lat="45.15829" lon="5.94469">
        <ele>2102</ele>
        <time>2019-01-20T10:22:27.000Z</time>
      </trkpt>
      <trkpt lat="45.15829" lon="5.94469">
        <ele>2102</ele>
        <time>2019-01-20T10:22:28.000Z</time>
      </trkpt>
      <trkpt lat="45.15829" lon="5.94472">
        <ele>2102</ele>
        <time>2019-01-20T10:22:29.000Z</time>
      </trkpt>
      <trkpt lat="45.15829" lon="5.94472">
        <ele>2103</ele>
        <time>2019-01-20T10:22:30.000Z</time>
      </trkpt>
      <trkpt lat="45.15829" lon="5.94472">
        <ele>2103</ele>
        <time>2019-01-20T10:22:31.000Z</time>
      </trkpt>
      <trkpt lat="45.15829" lon="5.94475">
        <ele>2103</ele>
        <time>2019-01-20T10:22:32.000Z</time>
      </trkpt>
      <trkpt lat="45.15829" lon="5.94475">
        <ele>2103</ele>
        <time>2019-01-20T10:22:33.000Z</time>
      </trkpt>
      <trkpt lat="45.15829" lon="5.94475">
        <ele>2103</ele>
        <time>2019-01-20T10:22:34.000Z</time>
      </trkpt>
      <trkpt lat="45.15829" lon="5.94478">
        <ele>2103</ele>
        <time>2019-01-20T10:22:35.000Z</time>
      </trkpt>
      <trkpt lat="45.15829" lon="5.94478">
        <ele>2103.6</ele>
        <time>2019-01-20T10:22:36.000Z</time>
      </trkpt>
      <trkpt lat="45.15829" lon="5.94478">
        <ele>2104</ele>
        <time>2019-01-20T10:22:37.000Z</time>
      </trkpt>
      <trkpt lat="45.15829" lon="5.9448">
        <ele>2104</ele>
        <time>2019-01-20T10:22:38.000Z</time>
      </trkpt>
      <trkpt lat="45.15829" lon="5.9448">
        <ele>2104</ele>
        <time>2019-01-20T10:22:39.000Z</time>
      </trkpt>
      <trkpt lat="45.15829" lon="5.9448">
        <ele>2104</ele>
        <time>2019-01-20T10:22:40.000Z</time>
      </trkpt>
      <trkpt lat="45.1583" lon="5.94483">
        <ele>2104</ele>
        <time>2019-01-20T10:22:41.000Z</time>
      </trkpt>
      <trkpt lat="45.1583" lon="5.94483">
        <ele>2104</ele>
        <time>2019-01-20T10:22:43.000Z</time>
      </trkpt>
      <trkpt lat="45.1583" lon="5.94486">
        <ele>2105</ele>
        <time>2019-01-20T10:22:44.000Z</time>
      </trkpt>
      <trkpt lat="45.1583" lon="5.94486">
        <ele>2105</ele>
        <time>2019-01-20T10:22:45.000Z</time>
      </trkpt>
      <trkpt lat="45.1583" lon="5.94486">
        <ele>2105</ele>
        <time>2019-01-20T10:22:46.000Z</time>
      </trkpt>
      <trkpt lat="45.15831" lon="5.94489">
        <ele>2105</ele>
        <time>2019-01-20T10:22:47.000Z</time>
      </trkpt>
      <trkpt lat="45.15831" lon="5.94489">
        <ele>2105</ele>
        <time>2019-01-20T10:22:48.000Z</time>
      </trkpt>
      <trkpt lat="45.15831" lon="5.94489">
        <ele>2105</ele>
        <time>2019-01-20T10:22:49.000Z</time>
      </trkpt>
      <trkpt lat="45.15832" lon="5.94492">
        <ele>2106</ele>
        <time>2019-01-20T10:22:50.000Z</time>
      </trkpt>
      <trkpt lat="45.15832" lon="5.94492">
        <ele>2106</ele>
        <time>2019-01-20T10:22:51.000Z</time>
      </trkpt>
      <trkpt lat="45.15832" lon="5.94492">
        <ele>2106</ele>
        <time>2019-01-20T10:22:52.000Z</time>
      </trkpt>
      <trkpt lat="45.15832" lon="5.94495">
        <ele>2107</ele>
        <time>2019-01-20T10:22:53.000Z</time>
      </trkpt>
      <trkpt lat="45.15832" lon="5.94495">
        <ele>2108</ele>
        <time>2019-01-20T10:22:55.000Z</time>
      </trkpt>
      <trkpt lat="45.15832" lon="5.94497">
        <ele>2108</ele>
        <time>2019-01-20T10:22:56.000Z</time>
      </trkpt>
      <trkpt lat="45.15832" lon="5.94497">
        <ele>2108</ele>
        <time>2019-01-20T10:22:57.000Z</time>
      </trkpt>
      <trkpt lat="45.15832" lon="5.94497">
        <ele>2108</ele>
        <time>2019-01-20T10:22:58.000Z</time>
      </trkpt>
      <trkpt lat="45.15832" lon="5.945">
        <ele>2108</ele>
        <time>2019-01-20T10:22:59.000Z</time>
      </trkpt>
      <trkpt lat="45.15832" lon="5.945">
        <ele>2109</ele>
        <time>2019-01-20T10:23:00.000Z</time>
      </trkpt>
      <trkpt lat="45.15832" lon="5.945">
        <ele>2109</ele>
        <time>2019-01-20T10:23:01.000Z</time>
      </trkpt>
      <trkpt lat="45.15832" lon="5.94503">
        <ele>2109</ele>
        <time>2019-01-20T10:23:02.000Z</time>
      </trkpt>
      <trkpt lat="45.15832" lon="5.94503">
        <ele>2109</ele>
        <time>2019-01-20T10:23:03.000Z</time>
      </trkpt>
      <trkpt lat="45.15832" lon="5.94503">
        <ele>2109</ele>
        <time>2019-01-20T10:23:04.000Z</time>
      </trkpt>
      <trkpt lat="45.15832" lon="5.94506">
        <ele>2109</ele>
        <time>2019-01-20T10:23:05.000Z</time>
      </trkpt>
      <trkpt lat="45.15832" lon="5.94506">
        <ele>2109</ele>
        <time>2019-01-20T10:23:06.000Z</time>
      </trkpt>
      <trkpt lat="45.15831" lon="5.94509">
        <ele>2109</ele>
        <time>2019-01-20T10:23:07.000Z</time>
      </trkpt>
      <trkpt lat="45.15831" lon="5.94509">
        <ele>2110</ele>
        <time>2019-01-20T10:23:08.000Z</time>
      </trkpt>
      <trkpt lat="45.1583" lon="5.94512">
        <ele>2110</ele>
        <time>2019-01-20T10:23:09.000Z</time>
      </trkpt>
      <trkpt lat="45.1583" lon="5.94512">
        <ele>2110</ele>
        <time>2019-01-20T10:23:10.000Z</time>
      </trkpt>
      <trkpt lat="45.1583" lon="5.94512">
        <ele>2110</ele>
        <time>2019-01-20T10:23:11.000Z</time>
      </trkpt>
      <trkpt lat="45.15829" lon="5.94514">
        <ele>2110</ele>
        <time>2019-01-20T10:23:12.000Z</time>
      </trkpt>
      <trkpt lat="45.15829" lon="5.94514">
        <ele>2110</ele>
        <time>2019-01-20T10:23:14.000Z</time>
      </trkpt>
      <trkpt lat="45.15829" lon="5.94517">
        <ele>2110</ele>
        <time>2019-01-20T10:23:15.000Z</time>
      </trkpt>
      <trkpt lat="45.15829" lon="5.94517">
        <ele>2111</ele>
        <time>2019-01-20T10:23:16.000Z</time>
      </trkpt>
      <trkpt lat="45.15829" lon="5.94517">
        <ele>2111</ele>
        <time>2019-01-20T10:23:17.000Z</time>
      </trkpt>
      <trkpt lat="45.15828" lon="5.94519">
        <ele>2112</ele>
        <time>2019-01-20T10:23:18.000Z</time>
      </trkpt>
      <trkpt lat="45.15828" lon="5.94519">
        <ele>2112.4</ele>
        <time>2019-01-20T10:23:20.000Z</time>
      </trkpt>
      <trkpt lat="45.15827" lon="5.94523">
        <ele>2113</ele>
        <time>2019-01-20T10:23:21.000Z</time>
      </trkpt>
      <trkpt lat="45.15827" lon="5.94523">
        <ele>2113</ele>
        <time>2019-01-20T10:23:22.000Z</time>
      </trkpt>
      <trkpt lat="45.15827" lon="5.94523">
        <ele>2114</ele>
        <time>2019-01-20T10:23:23.000Z</time>
      </trkpt>
      <trkpt lat="45.15826" lon="5.94526">
        <ele>2114</ele>
        <time>2019-01-20T10:23:24.000Z</time>
      </trkpt>
      <trkpt lat="45.15826" lon="5.94526">
        <ele>2114</ele>
        <time>2019-01-20T10:23:25.000Z</time>
      </trkpt>
      <trkpt lat="45.15826" lon="5.94526">
        <ele>2114</ele>
        <time>2019-01-20T10:23:26.000Z</time>
      </trkpt>
      <trkpt lat="45.15826" lon="5.94529">
        <ele>2114</ele>
        <time>2019-01-20T10:23:27.000Z</time>
      </trkpt>
      <trkpt lat="45.15826" lon="5.94529">
        <ele>2114</ele>
        <time>2019-01-20T10:23:28.000Z</time>
      </trkpt>
      <trkpt lat="45.15826" lon="5.94529">
        <ele>2114</ele>
        <time>2019-01-20T10:23:29.000Z</time>
      </trkpt>
      <trkpt lat="45.15826" lon="5.94532">
        <ele>2114</ele>
        <time>2019-01-20T10:23:30.000Z</time>
      </trkpt>
      <trkpt lat="45.15826" lon="5.94532">
        <ele>2114</ele>
        <time>2019-01-20T10:23:31.000Z</time>
      </trkpt>
      <trkpt lat="45.15826" lon="5.94532">
        <ele>2114.4</ele>
        <time>2019-01-20T10:23:33.000Z</time>
      </trkpt>
      <trkpt lat="45.15827" lon="5.94535">
        <ele>2115</ele>
        <time>2019-01-20T10:23:34.000Z</time>
      </trkpt>
      <trkpt lat="45.15827" lon="5.94535">
        <ele>2116</ele>
        <time>2019-01-20T10:23:35.000Z</time>
      </trkpt>
      <trkpt lat="45.15827" lon="5.94535">
        <ele>2116</ele>
        <time>2019-01-20T10:23:36.000Z</time>
      </trkpt>
      <trkpt lat="45.15827" lon="5.94538">
        <ele>2116</ele>
        <time>2019-01-20T10:23:37.000Z</time>
      </trkpt>
      <trkpt lat="45.15827" lon="5.94538">
        <ele>2116</ele>
        <time>2019-01-20T10:23:38.000Z</time>
      </trkpt>
      <trkpt lat="45.15827" lon="5.94538">
        <ele>2116</ele>
        <time>2019-01-20T10:23:39.000Z</time>
      </trkpt>
      <trkpt lat="45.15828" lon="5.94541">
        <ele>2116</ele>
        <time>2019-01-20T10:23:40.000Z</time>
      </trkpt>
      <trkpt lat="45.15828" lon="5.94541">
        <ele>2116</ele>
        <time>2019-01-20T10:23:41.000Z</time>
      </trkpt>
      <trkpt lat="45.15828" lon="5.94541">
        <ele>2117</ele>
        <time>2019-01-20T10:23:42.000Z</time>
      </trkpt>
      <trkpt lat="45.15828" lon="5.94541">
        <ele>2117</ele>
        <time>2019-01-20T10:23:43.000Z</time>
      </trkpt>
      <trkpt lat="45.15828" lon="5.94541">
        <ele>2117</ele>
        <time>2019-01-20T10:23:44.000Z</time>
      </trkpt>
      <trkpt lat="45.15829" lon="5.94544">
        <ele>2118</ele>
        <time>2019-01-20T10:23:45.000Z</time>
      </trkpt>
      <trkpt lat="45.15829" lon="5.94544">
        <ele>2118</ele>
        <time>2019-01-20T10:23:46.000Z</time>
      </trkpt>
      <trkpt lat="45.15829" lon="5.94544">
        <ele>2118</ele>
        <time>2019-01-20T10:23:47.000Z</time>
      </trkpt>
      <trkpt lat="45.1583" lon="5.94547">
        <ele>2118</ele>
        <time>2019-01-20T10:23:48.000Z</time>
      </trkpt>
      <trkpt lat="45.1583" lon="5.94547">
        <ele>2118</ele>
        <time>2019-01-20T10:23:49.000Z</time>
      </trkpt>
      <trkpt lat="45.1583" lon="5.94547">
        <ele>2118</ele>
        <time>2019-01-20T10:23:50.000Z</time>
      </trkpt>
      <trkpt lat="45.15831" lon="5.94549">
        <ele>2118</ele>
        <time>2019-01-20T10:23:51.000Z</time>
      </trkpt>
      <trkpt lat="45.15831" lon="5.94549">
        <ele>2118</ele>
        <time>2019-01-20T10:23:52.000Z</time>
      </trkpt>
      <trkpt lat="45.15831" lon="5.94549">
        <ele>2118</ele>
        <time>2019-01-20T10:23:53.000Z</time>
      </trkpt>
      <trkpt lat="45.15832" lon="5.94552">
        <ele>2118</ele>
        <time>2019-01-20T10:23:54.000Z</time>
      </trkpt>
      <trkpt lat="45.15832" lon="5.94552">
        <ele>2118</ele>
        <time>2019-01-20T10:23:55.000Z</time>
      </trkpt>
      <trkpt lat="45.15832" lon="5.94552">
        <ele>2119</ele>
        <time>2019-01-20T10:23:56.000Z</time>
      </trkpt>
      <trkpt lat="45.15832" lon="5.94552">
        <ele>2119</ele>
        <time>2019-01-20T10:23:57.000Z</time>
      </trkpt>
      <trkpt lat="45.15833" lon="5.94555">
        <ele>2119</ele>
        <time>2019-01-20T10:23:58.000Z</time>
      </trkpt>
      <trkpt lat="45.15833" lon="5.94555">
        <ele>2119</ele>
        <time>2019-01-20T10:23:59.000Z</time>
      </trkpt>
      <trkpt lat="45.15833" lon="5.94555">
        <ele>2119</ele>
        <time>2019-01-20T10:24:00.000Z</time>
      </trkpt>
      <trkpt lat="45.15833" lon="5.94555">
        <ele>2120</ele>
        <time>2019-01-20T10:24:01.000Z</time>
      </trkpt>
      <trkpt lat="45.15833" lon="5.94555">
        <ele>2121</ele>
        <time>2019-01-20T10:24:02.000Z</time>
      </trkpt>
      <trkpt lat="45.15833" lon="5.94555">
        <ele>2121</ele>
        <time>2019-01-20T10:24:03.000Z</time>
      </trkpt>
      <trkpt lat="45.15833" lon="5.94555">
        <ele>2121</ele>
        <time>2019-01-20T10:24:04.000Z</time>
      </trkpt>
      <trkpt lat="45.15833" lon="5.94555">
        <ele>2121</ele>
        <time>2019-01-20T10:24:05.000Z</time>
      </trkpt>
      <trkpt lat="45.15833" lon="5.94555">
        <ele>2121</ele>
        <time>2019-01-20T10:24:06.000Z</time>
      </trkpt>
      <trkpt lat="45.15831" lon="5.94557">
        <ele>2121</ele>
        <time>2019-01-20T10:24:07.000Z</time>
      </trkpt>
      <trkpt lat="45.15831" lon="5.94557">
        <ele>2121</ele>
        <time>2019-01-20T10:24:08.000Z</time>
      </trkpt>
      <trkpt lat="45.15829" lon="5.94557">
        <ele>2121</ele>
        <time>2019-01-20T10:24:09.000Z</time>
      </trkpt>
      <trkpt lat="45.15825" lon="5.94557">
        <ele>2121</ele>
        <time>2019-01-20T10:24:11.000Z</time>
      </trkpt>
      <trkpt lat="45.15825" lon="5.94557">
        <ele>2121</ele>
        <time>2019-01-20T10:24:12.000Z</time>
      </trkpt>
      <trkpt lat="45.15823" lon="5.94556">
        <ele>2122</ele>
        <time>2019-01-20T10:24:13.000Z</time>
      </trkpt>
      <trkpt lat="45.15823" lon="5.94556">
        <ele>2122</ele>
        <time>2019-01-20T10:24:14.000Z</time>
      </trkpt>
      <trkpt lat="45.15821" lon="5.94556">
        <ele>2122</ele>
        <time>2019-01-20T10:24:15.000Z</time>
      </trkpt>
      <trkpt lat="45.15821" lon="5.94556">
        <ele>2122</ele>
        <time>2019-01-20T10:24:16.000Z</time>
      </trkpt>
      <trkpt lat="45.15818" lon="5.94556">
        <ele>2122</ele>
        <time>2019-01-20T10:24:17.000Z</time>
      </trkpt>
      <trkpt lat="45.15818" lon="5.94556">
        <ele>2122</ele>
        <time>2019-01-20T10:24:18.000Z</time>
      </trkpt>
      <trkpt lat="45.15816" lon="5.94556">
        <ele>2122</ele>
        <time>2019-01-20T10:24:19.000Z</time>
      </trkpt>
      <trkpt lat="45.15816" lon="5.94556">
        <ele>2122</ele>
        <time>2019-01-20T10:24:20.000Z</time>
      </trkpt>
      <trkpt lat="45.15813" lon="5.94557">
        <ele>2122</ele>
        <time>2019-01-20T10:24:21.000Z</time>
      </trkpt>
      <trkpt lat="45.15813" lon="5.94557">
        <ele>2122</ele>
        <time>2019-01-20T10:24:22.000Z</time>
      </trkpt>
      <trkpt lat="45.15811" lon="5.94557">
        <ele>2122</ele>
        <time>2019-01-20T10:24:23.000Z</time>
      </trkpt>
      <trkpt lat="45.15811" lon="5.94557">
        <ele>2123</ele>
        <time>2019-01-20T10:24:24.000Z</time>
      </trkpt>
      <trkpt lat="45.15809" lon="5.94557">
        <ele>2123</ele>
        <time>2019-01-20T10:24:25.000Z</time>
      </trkpt>
      <trkpt lat="45.15809" lon="5.94557">
        <ele>2123</ele>
        <time>2019-01-20T10:24:26.000Z</time>
      </trkpt>
      <trkpt lat="45.15807" lon="5.94557">
        <ele>2124</ele>
        <time>2019-01-20T10:24:27.000Z</time>
      </trkpt>
      <trkpt lat="45.15807" lon="5.94557">
        <ele>2124</ele>
        <time>2019-01-20T10:24:28.000Z</time>
      </trkpt>
      <trkpt lat="45.15805" lon="5.94557">
        <ele>2124</ele>
        <time>2019-01-20T10:24:29.000Z</time>
      </trkpt>
      <trkpt lat="45.15805" lon="5.94557">
        <ele>2124.4</ele>
        <time>2019-01-20T10:24:30.000Z</time>
      </trkpt>
      <trkpt lat="45.15802" lon="5.94558">
        <ele>2125</ele>
        <time>2019-01-20T10:24:31.000Z</time>
      </trkpt>
      <trkpt lat="45.15802" lon="5.94558">
        <ele>2125</ele>
        <time>2019-01-20T10:24:32.000Z</time>
      </trkpt>
      <trkpt lat="45.158" lon="5.94558">
        <ele>2126</ele>
        <time>2019-01-20T10:24:33.000Z</time>
      </trkpt>
      <trkpt lat="45.158" lon="5.94558">
        <ele>2126</ele>
        <time>2019-01-20T10:24:34.000Z</time>
      </trkpt>
      <trkpt lat="45.15798" lon="5.94559">
        <ele>2126</ele>
        <time>2019-01-20T10:24:35.000Z</time>
      </trkpt>
      <trkpt lat="45.15798" lon="5.94559">
        <ele>2128</ele>
        <time>2019-01-20T10:24:36.000Z</time>
      </trkpt>
      <trkpt lat="45.15796" lon="5.94559">
        <ele>2128</ele>
        <time>2019-01-20T10:24:37.000Z</time>
      </trkpt>
      <trkpt lat="45.15796" lon="5.94559">
        <ele>2126</ele>
        <time>2019-01-20T10:24:38.000Z</time>
      </trkpt>
      <trkpt lat="45.15794" lon="5.94559">
        <ele>2126</ele>
        <time>2019-01-20T10:24:39.000Z</time>
      </trkpt>
      <trkpt lat="45.15794" lon="5.94559">
        <ele>2126</ele>
        <time>2019-01-20T10:24:40.000Z</time>
      </trkpt>
      <trkpt lat="45.15794" lon="5.94559">
        <ele>2128</ele>
        <time>2019-01-20T10:24:41.000Z</time>
      </trkpt>
      <trkpt lat="45.15792" lon="5.94559">
        <ele>2128</ele>
        <time>2019-01-20T10:24:42.000Z</time>
      </trkpt>
      <trkpt lat="45.15792" lon="5.94559">
        <ele>2128</ele>
        <time>2019-01-20T10:24:43.000Z</time>
      </trkpt>
      <trkpt lat="45.15792" lon="5.94559">
        <ele>2129</ele>
        <time>2019-01-20T10:24:44.000Z</time>
      </trkpt>
      <trkpt lat="45.15789" lon="5.9456">
        <ele>2129</ele>
        <time>2019-01-20T10:24:45.000Z</time>
      </trkpt>
      <trkpt lat="45.15789" lon="5.9456">
        <ele>2129</ele>
        <time>2019-01-20T10:24:46.000Z</time>
      </trkpt>
      <trkpt lat="45.15787" lon="5.9456">
        <ele>2129</ele>
        <time>2019-01-20T10:24:47.000Z</time>
      </trkpt>
      <trkpt lat="45.15787" lon="5.9456">
        <ele>2129</ele>
        <time>2019-01-20T10:24:48.000Z</time>
      </trkpt>
      <trkpt lat="45.15785" lon="5.94561">
        <ele>2130</ele>
        <time>2019-01-20T10:24:49.000Z</time>
      </trkpt>
      <trkpt lat="45.15785" lon="5.94561">
        <ele>2130</ele>
        <time>2019-01-20T10:24:50.000Z</time>
      </trkpt>
      <trkpt lat="45.15783" lon="5.94562">
        <ele>2130</ele>
        <time>2019-01-20T10:24:51.000Z</time>
      </trkpt>
      <trkpt lat="45.15783" lon="5.94562">
        <ele>2130</ele>
        <time>2019-01-20T10:24:52.000Z</time>
      </trkpt>
      <trkpt lat="45.15781" lon="5.94562">
        <ele>2131</ele>
        <time>2019-01-20T10:24:53.000Z</time>
      </trkpt>
      <trkpt lat="45.15781" lon="5.94562">
        <ele>2131</ele>
        <time>2019-01-20T10:24:54.000Z</time>
      </trkpt>
      <trkpt lat="45.15779" lon="5.94563">
        <ele>2131</ele>
        <time>2019-01-20T10:24:55.000Z</time>
      </trkpt>
      <trkpt lat="45.15779" lon="5.94563">
        <ele>2131</ele>
        <time>2019-01-20T10:24:56.000Z</time>
      </trkpt>
      <trkpt lat="45.15776" lon="5.94564">
        <ele>2132</ele>
        <time>2019-01-20T10:24:57.000Z</time>
      </trkpt>
      <trkpt lat="45.15776" lon="5.94564">
        <ele>2132</ele>
        <time>2019-01-20T10:24:58.000Z</time>
      </trkpt>
      <trkpt lat="45.15773" lon="5.94564">
        <ele>2133</ele>
        <time>2019-01-20T10:24:59.000Z</time>
      </trkpt>
      <trkpt lat="45.15773" lon="5.94564">
        <ele>2133</ele>
        <time>2019-01-20T10:25:00.000Z</time>
      </trkpt>
      <trkpt lat="45.15771" lon="5.94565">
        <ele>2133</ele>
        <time>2019-01-20T10:25:01.000Z</time>
      </trkpt>
      <trkpt lat="45.15771" lon="5.94565">
        <ele>2133</ele>
        <time>2019-01-20T10:25:02.000Z</time>
      </trkpt>
      <trkpt lat="45.15769" lon="5.94565">
        <ele>2133</ele>
        <time>2019-01-20T10:25:03.000Z</time>
      </trkpt>
      <trkpt lat="45.15769" lon="5.94565">
        <ele>2133</ele>
        <time>2019-01-20T10:25:04.000Z</time>
      </trkpt>
      <trkpt lat="45.15767" lon="5.94566">
        <ele>2133</ele>
        <time>2019-01-20T10:25:05.000Z</time>
      </trkpt>
      <trkpt lat="45.15767" lon="5.94566">
        <ele>2134</ele>
        <time>2019-01-20T10:25:06.000Z</time>
      </trkpt>
      <trkpt lat="45.15765" lon="5.94568">
        <ele>2134</ele>
        <time>2019-01-20T10:25:07.000Z</time>
      </trkpt>
      <trkpt lat="45.15765" lon="5.94568">
        <ele>2134</ele>
        <time>2019-01-20T10:25:08.000Z</time>
      </trkpt>
      <trkpt lat="45.15764" lon="5.94569">
        <ele>2134</ele>
        <time>2019-01-20T10:25:09.000Z</time>
      </trkpt>
      <trkpt lat="45.15764" lon="5.94569">
        <ele>2134</ele>
        <time>2019-01-20T10:25:10.000Z</time>
      </trkpt>
      <trkpt lat="45.15762" lon="5.94571">
        <ele>2134</ele>
        <time>2019-01-20T10:25:11.000Z</time>
      </trkpt>
      <trkpt lat="45.15762" lon="5.94571">
        <ele>2135</ele>
        <time>2019-01-20T10:25:12.000Z</time>
      </trkpt>
      <trkpt lat="45.15761" lon="5.94573">
        <ele>2135</ele>
        <time>2019-01-20T10:25:13.000Z</time>
      </trkpt>
      <trkpt lat="45.15761" lon="5.94573">
        <ele>2135</ele>
        <time>2019-01-20T10:25:14.000Z</time>
      </trkpt>
      <trkpt lat="45.15759" lon="5.94575">
        <ele>2135</ele>
        <time>2019-01-20T10:25:15.000Z</time>
      </trkpt>
      <trkpt lat="45.15759" lon="5.94575">
        <ele>2135</ele>
        <time>2019-01-20T10:25:16.000Z</time>
      </trkpt>
      <trkpt lat="45.15757" lon="5.94578">
        <ele>2135</ele>
        <time>2019-01-20T10:25:17.000Z</time>
      </trkpt>
      <trkpt lat="45.15757" lon="5.94578">
        <ele>2135</ele>
        <time>2019-01-20T10:25:18.000Z</time>
      </trkpt>
      <trkpt lat="45.15755" lon="5.9458">
        <ele>2135</ele>
        <time>2019-01-20T10:25:19.000Z</time>
      </trkpt>
      <trkpt lat="45.15753" lon="5.94582">
        <ele>2135</ele>
        <time>2019-01-20T10:25:20.000Z</time>
      </trkpt>
      <trkpt lat="45.15752" lon="5.94585">
        <ele>2135</ele>
        <time>2019-01-20T10:25:21.000Z</time>
      </trkpt>
      <trkpt lat="45.15752" lon="5.94585">
        <ele>2135</ele>
        <time>2019-01-20T10:25:22.000Z</time>
      </trkpt>
      <trkpt lat="45.1575" lon="5.94589">
        <ele>2135</ele>
        <time>2019-01-20T10:25:23.000Z</time>
      </trkpt>
      <trkpt lat="45.15749" lon="5.94591">
        <ele>2135</ele>
        <time>2019-01-20T10:25:24.000Z</time>
      </trkpt>
      <trkpt lat="45.15748" lon="5.94594">
        <ele>2135</ele>
        <time>2019-01-20T10:25:25.000Z</time>
      </trkpt>
      <trkpt lat="45.15747" lon="5.94596">
        <ele>2135</ele>
        <time>2019-01-20T10:25:26.000Z</time>
      </trkpt>
      <trkpt lat="45.15747" lon="5.94596">
        <ele>2135</ele>
        <time>2019-01-20T10:25:27.000Z</time>
      </trkpt>
      <trkpt lat="45.15745" lon="5.94599">
        <ele>2135</ele>
        <time>2019-01-20T10:25:28.000Z</time>
      </trkpt>
      <trkpt lat="45.15745" lon="5.94599">
        <ele>2135</ele>
        <time>2019-01-20T10:25:29.000Z</time>
      </trkpt>
      <trkpt lat="45.15744" lon="5.94602">
        <ele>2135</ele>
        <time>2019-01-20T10:25:30.000Z</time>
      </trkpt>
      <trkpt lat="45.15744" lon="5.94602">
        <ele>2135</ele>
        <time>2019-01-20T10:25:31.000Z</time>
      </trkpt>
      <trkpt lat="45.15744" lon="5.94606">
        <ele>2135</ele>
        <time>2019-01-20T10:25:32.000Z</time>
      </trkpt>
      <trkpt lat="45.15744" lon="5.94606">
        <ele>2135</ele>
        <time>2019-01-20T10:25:33.000Z</time>
      </trkpt>
      <trkpt lat="45.15744" lon="5.94609">
        <ele>2135</ele>
        <time>2019-01-20T10:25:34.000Z</time>
      </trkpt>
      <trkpt lat="45.15744" lon="5.94609">
        <ele>2135</ele>
        <time>2019-01-20T10:25:35.000Z</time>
      </trkpt>
      <trkpt lat="45.15745" lon="5.94612">
        <ele>2135</ele>
        <time>2019-01-20T10:25:36.000Z</time>
      </trkpt>
      <trkpt lat="45.15745" lon="5.94612">
        <ele>2135</ele>
        <time>2019-01-20T10:25:37.000Z</time>
      </trkpt>
      <trkpt lat="45.15746" lon="5.94616">
        <ele>2135</ele>
        <time>2019-01-20T10:25:38.000Z</time>
      </trkpt>
      <trkpt lat="45.15746" lon="5.94616">
        <ele>2135</ele>
        <time>2019-01-20T10:25:39.000Z</time>
      </trkpt>
      <trkpt lat="45.15748" lon="5.9462">
        <ele>2135</ele>
        <time>2019-01-20T10:25:40.000Z</time>
      </trkpt>
      <trkpt lat="45.15748" lon="5.9462">
        <ele>2135</ele>
        <time>2019-01-20T10:25:41.000Z</time>
      </trkpt>
      <trkpt lat="45.15749" lon="5.94624">
        <ele>2134</ele>
        <time>2019-01-20T10:25:42.000Z</time>
      </trkpt>
      <trkpt lat="45.15749" lon="5.94624">
        <ele>2134</ele>
        <time>2019-01-20T10:25:43.000Z</time>
      </trkpt>
      <trkpt lat="45.15749" lon="5.94629">
        <ele>2134</ele>
        <time>2019-01-20T10:25:44.000Z</time>
      </trkpt>
      <trkpt lat="45.15748" lon="5.94633">
        <ele>2134</ele>
        <time>2019-01-20T10:25:46.000Z</time>
      </trkpt>
      <trkpt lat="45.15747" lon="5.94635">
        <ele>2134</ele>
        <time>2019-01-20T10:25:47.000Z</time>
      </trkpt>
      <trkpt lat="45.15744" lon="5.94637">
        <ele>2133</ele>
        <time>2019-01-20T10:25:48.000Z</time>
      </trkpt>
      <trkpt lat="45.15742" lon="5.94637">
        <ele>2133</ele>
        <time>2019-01-20T10:25:49.000Z</time>
      </trkpt>
      <trkpt lat="45.15739" lon="5.94637">
        <ele>2133</ele>
        <time>2019-01-20T10:25:50.000Z</time>
      </trkpt>
      <trkpt lat="45.15737" lon="5.94637">
        <ele>2132</ele>
        <time>2019-01-20T10:25:51.000Z</time>
      </trkpt>
      <trkpt lat="45.15734" lon="5.94636">
        <ele>2132</ele>
        <time>2019-01-20T10:25:52.000Z</time>
      </trkpt>
      <trkpt lat="45.15734" lon="5.94636">
        <ele>2132</ele>
        <time>2019-01-20T10:25:53.000Z</time>
      </trkpt>
      <trkpt lat="45.15731" lon="5.94636">
        <ele>2132</ele>
        <time>2019-01-20T10:25:54.000Z</time>
      </trkpt>
      <trkpt lat="45.15731" lon="5.94636">
        <ele>2132</ele>
        <time>2019-01-20T10:25:55.000Z</time>
      </trkpt>
      <trkpt lat="45.15728" lon="5.94635">
        <ele>2132</ele>
        <time>2019-01-20T10:25:56.000Z</time>
      </trkpt>
      <trkpt lat="45.15728" lon="5.94635">
        <ele>2132</ele>
        <time>2019-01-20T10:25:57.000Z</time>
      </trkpt>
      <trkpt lat="45.15725" lon="5.94634">
        <ele>2133</ele>
        <time>2019-01-20T10:25:58.000Z</time>
      </trkpt>
      <trkpt lat="45.15725" lon="5.94634">
        <ele>2133</ele>
        <time>2019-01-20T10:25:59.000Z</time>
      </trkpt>
      <trkpt lat="45.15722" lon="5.94634">
        <ele>2133</ele>
        <time>2019-01-20T10:26:00.000Z</time>
      </trkpt>
      <trkpt lat="45.15722" lon="5.94634">
        <ele>2133</ele>
        <time>2019-01-20T10:26:01.000Z</time>
      </trkpt>
      <trkpt lat="45.15719" lon="5.94634">
        <ele>2133</ele>
        <time>2019-01-20T10:26:02.000Z</time>
      </trkpt>
      <trkpt lat="45.15719" lon="5.94634">
        <ele>2133</ele>
        <time>2019-01-20T10:26:03.000Z</time>
      </trkpt>
      <trkpt lat="45.15716" lon="5.94633">
        <ele>2133</ele>
        <time>2019-01-20T10:26:04.000Z</time>
      </trkpt>
      <trkpt lat="45.15716" lon="5.94633">
        <ele>2133</ele>
        <time>2019-01-20T10:26:05.000Z</time>
      </trkpt>
      <trkpt lat="45.15713" lon="5.94633">
        <ele>2133</ele>
        <time>2019-01-20T10:26:06.000Z</time>
      </trkpt>
      <trkpt lat="45.15713" lon="5.94633">
        <ele>2133</ele>
        <time>2019-01-20T10:26:07.000Z</time>
      </trkpt>
      <trkpt lat="45.1571" lon="5.94633">
        <ele>2133</ele>
        <time>2019-01-20T10:26:08.000Z</time>
      </trkpt>
      <trkpt lat="45.1571" lon="5.94633">
        <ele>2133</ele>
        <time>2019-01-20T10:26:09.000Z</time>
      </trkpt>
      <trkpt lat="45.15707" lon="5.94633">
        <ele>2133</ele>
        <time>2019-01-20T10:26:10.000Z</time>
      </trkpt>
      <trkpt lat="45.15707" lon="5.94633">
        <ele>2133</ele>
        <time>2019-01-20T10:26:11.000Z</time>
      </trkpt>
      <trkpt lat="45.15704" lon="5.94634">
        <ele>2133</ele>
        <time>2019-01-20T10:26:12.000Z</time>
      </trkpt>
      <trkpt lat="45.15704" lon="5.94634">
        <ele>2133</ele>
        <time>2019-01-20T10:26:13.000Z</time>
      </trkpt>
      <trkpt lat="45.15701" lon="5.94635">
        <ele>2133</ele>
        <time>2019-01-20T10:26:14.000Z</time>
      </trkpt>
      <trkpt lat="45.15701" lon="5.94635">
        <ele>2133</ele>
        <time>2019-01-20T10:26:15.000Z</time>
      </trkpt>
      <trkpt lat="45.15699" lon="5.94635">
        <ele>2133</ele>
        <time>2019-01-20T10:26:16.000Z</time>
      </trkpt>
      <trkpt lat="45.15699" lon="5.94635">
        <ele>2133</ele>
        <time>2019-01-20T10:26:17.000Z</time>
      </trkpt>
      <trkpt lat="45.15695" lon="5.94635">
        <ele>2133</ele>
        <time>2019-01-20T10:26:18.000Z</time>
      </trkpt>
      <trkpt lat="45.15692" lon="5.94635">
        <ele>2134</ele>
        <time>2019-01-20T10:26:20.000Z</time>
      </trkpt>
      <trkpt lat="45.1569" lon="5.94635">
        <ele>2134</ele>
        <time>2019-01-20T10:26:21.000Z</time>
      </trkpt>
      <trkpt lat="45.1569" lon="5.94635">
        <ele>2134</ele>
        <time>2019-01-20T10:26:22.000Z</time>
      </trkpt>
      <trkpt lat="45.15687" lon="5.94635">
        <ele>2134</ele>
        <time>2019-01-20T10:26:23.000Z</time>
      </trkpt>
      <trkpt lat="45.15687" lon="5.94635">
        <ele>2134</ele>
        <time>2019-01-20T10:26:24.000Z</time>
      </trkpt>
      <trkpt lat="45.15684" lon="5.94635">
        <ele>2134</ele>
        <time>2019-01-20T10:26:25.000Z</time>
      </trkpt>
      <trkpt lat="45.15684" lon="5.94635">
        <ele>2133</ele>
        <time>2019-01-20T10:26:26.000Z</time>
      </trkpt>
      <trkpt lat="45.15682" lon="5.94635">
        <ele>2133</ele>
        <time>2019-01-20T10:26:27.000Z</time>
      </trkpt>
      <trkpt lat="45.15682" lon="5.94635">
        <ele>2134</ele>
        <time>2019-01-20T10:26:28.000Z</time>
      </trkpt>
      <trkpt lat="45.15679" lon="5.94635">
        <ele>2134</ele>
        <time>2019-01-20T10:26:29.000Z</time>
      </trkpt>
      <trkpt lat="45.15679" lon="5.94635">
        <ele>2134</ele>
        <time>2019-01-20T10:26:30.000Z</time>
      </trkpt>
      <trkpt lat="45.15676" lon="5.94634">
        <ele>2134</ele>
        <time>2019-01-20T10:26:31.000Z</time>
      </trkpt>
      <trkpt lat="45.15676" lon="5.94634">
        <ele>2134.4</ele>
        <time>2019-01-20T10:26:32.000Z</time>
      </trkpt>
      <trkpt lat="45.15674" lon="5.94633">
        <ele>2135</ele>
        <time>2019-01-20T10:26:33.000Z</time>
      </trkpt>
      <trkpt lat="45.15674" lon="5.94633">
        <ele>2135</ele>
        <time>2019-01-20T10:26:34.000Z</time>
      </trkpt>
      <trkpt lat="45.15672" lon="5.94633">
        <ele>2135</ele>
        <time>2019-01-20T10:26:35.000Z</time>
      </trkpt>
      <trkpt lat="45.15672" lon="5.94633">
        <ele>2136</ele>
        <time>2019-01-20T10:26:36.000Z</time>
      </trkpt>
      <trkpt lat="45.1567" lon="5.94633">
        <ele>2136</ele>
        <time>2019-01-20T10:26:37.000Z</time>
      </trkpt>
      <trkpt lat="45.1567" lon="5.94633">
        <ele>2136</ele>
        <time>2019-01-20T10:26:38.000Z</time>
      </trkpt>
      <trkpt lat="45.15668" lon="5.94633">
        <ele>2136</ele>
        <time>2019-01-20T10:26:39.000Z</time>
      </trkpt>
      <trkpt lat="45.15668" lon="5.94633">
        <ele>2136</ele>
        <time>2019-01-20T10:26:40.000Z</time>
      </trkpt>
      <trkpt lat="45.15665" lon="5.94634">
        <ele>2136</ele>
        <time>2019-01-20T10:26:41.000Z</time>
      </trkpt>
      <trkpt lat="45.15664" lon="5.94636">
        <ele>2136</ele>
        <time>2019-01-20T10:26:43.000Z</time>
      </trkpt>
      <trkpt lat="45.15664" lon="5.94636">
        <ele>2136</ele>
        <time>2019-01-20T10:26:44.000Z</time>
      </trkpt>
      <trkpt lat="45.15664" lon="5.94636">
        <ele>2136</ele>
        <time>2019-01-20T10:26:45.000Z</time>
      </trkpt>
      <trkpt lat="45.15662" lon="5.94638">
        <ele>2136</ele>
        <time>2019-01-20T10:26:46.000Z</time>
      </trkpt>
      <trkpt lat="45.15662" lon="5.94638">
        <ele>2136</ele>
        <time>2019-01-20T10:26:47.000Z</time>
      </trkpt>
      <trkpt lat="45.15661" lon="5.94641">
        <ele>2136</ele>
        <time>2019-01-20T10:26:48.000Z</time>
      </trkpt>
      <trkpt lat="45.15661" lon="5.94641">
        <ele>2137</ele>
        <time>2019-01-20T10:26:49.000Z</time>
      </trkpt>
      <trkpt lat="45.1566" lon="5.94644">
        <ele>2137</ele>
        <time>2019-01-20T10:26:50.000Z</time>
      </trkpt>
      <trkpt lat="45.1566" lon="5.94644">
        <ele>2137</ele>
        <time>2019-01-20T10:26:51.000Z</time>
      </trkpt>
      <trkpt lat="45.15658" lon="5.94646">
        <ele>2137</ele>
        <time>2019-01-20T10:26:52.000Z</time>
      </trkpt>
      <trkpt lat="45.15658" lon="5.94646">
        <ele>2137</ele>
        <time>2019-01-20T10:26:53.000Z</time>
      </trkpt>
      <trkpt lat="45.15656" lon="5.94647">
        <ele>2137</ele>
        <time>2019-01-20T10:26:54.000Z</time>
      </trkpt>
      <trkpt lat="45.15656" lon="5.94647">
        <ele>2137</ele>
        <time>2019-01-20T10:26:55.000Z</time>
      </trkpt>
      <trkpt lat="45.15654" lon="5.94648">
        <ele>2137</ele>
        <time>2019-01-20T10:26:56.000Z</time>
      </trkpt>
      <trkpt lat="45.15654" lon="5.94648">
        <ele>2137</ele>
        <time>2019-01-20T10:26:57.000Z</time>
      </trkpt>
      <trkpt lat="45.15651" lon="5.94649">
        <ele>2137</ele>
        <time>2019-01-20T10:26:58.000Z</time>
      </trkpt>
      <trkpt lat="45.15651" lon="5.94649">
        <ele>2137</ele>
        <time>2019-01-20T10:26:59.000Z</time>
      </trkpt>
      <trkpt lat="45.15649" lon="5.94649">
        <ele>2137</ele>
        <time>2019-01-20T10:27:00.000Z</time>
      </trkpt>
      <trkpt lat="45.15647" lon="5.94649">
        <ele>2138</ele>
        <time>2019-01-20T10:27:02.000Z</time>
      </trkpt>
      <trkpt lat="45.15647" lon="5.94649">
        <ele>2138</ele>
        <time>2019-01-20T10:27:03.000Z</time>
      </trkpt>
      <trkpt lat="45.15647" lon="5.94649">
        <ele>2138</ele>
        <time>2019-01-20T10:27:04.000Z</time>
      </trkpt>
      <trkpt lat="45.15647" lon="5.94649">
        <ele>2139</ele>
        <time>2019-01-20T10:27:05.000Z</time>
      </trkpt>
      <trkpt lat="45.15647" lon="5.94649">
        <ele>2139</ele>
        <time>2019-01-20T10:27:06.000Z</time>
      </trkpt>
      <trkpt lat="45.15648" lon="5.94653">
        <ele>2140</ele>
        <time>2019-01-20T10:27:07.000Z</time>
      </trkpt>
      <trkpt lat="45.15648" lon="5.94653">
        <ele>2140</ele>
        <time>2019-01-20T10:27:08.000Z</time>
      </trkpt>
      <trkpt lat="45.15648" lon="5.94653">
        <ele>2140</ele>
        <time>2019-01-20T10:27:09.000Z</time>
      </trkpt>
      <trkpt lat="45.15648" lon="5.94653">
        <ele>2140</ele>
        <time>2019-01-20T10:27:10.000Z</time>
      </trkpt>
      <trkpt lat="45.15648" lon="5.94653">
        <ele>2140</ele>
        <time>2019-01-20T10:27:11.000Z</time>
      </trkpt>
      <trkpt lat="45.15645" lon="5.94654">
        <ele>2140</ele>
        <time>2019-01-20T10:27:12.000Z</time>
      </trkpt>
      <trkpt lat="45.15645" lon="5.94654">
        <ele>2140</ele>
        <time>2019-01-20T10:27:13.000Z</time>
      </trkpt>
      <trkpt lat="45.15643" lon="5.94654">
        <ele>2141</ele>
        <time>2019-01-20T10:27:14.000Z</time>
      </trkpt>
      <trkpt lat="45.15643" lon="5.94654">
        <ele>2141</ele>
        <time>2019-01-20T10:27:15.000Z</time>
      </trkpt>
      <trkpt lat="45.15641" lon="5.94654">
        <ele>2141</ele>
        <time>2019-01-20T10:27:16.000Z</time>
      </trkpt>
      <trkpt lat="45.15641" lon="5.94654">
        <ele>2141</ele>
        <time>2019-01-20T10:27:17.000Z</time>
      </trkpt>
      <trkpt lat="45.15639" lon="5.94654">
        <ele>2141</ele>
        <time>2019-01-20T10:27:18.000Z</time>
      </trkpt>
      <trkpt lat="45.15639" lon="5.94654">
        <ele>2142</ele>
        <time>2019-01-20T10:27:19.000Z</time>
      </trkpt>
      <trkpt lat="45.15636" lon="5.94655">
        <ele>2142</ele>
        <time>2019-01-20T10:27:20.000Z</time>
      </trkpt>
      <trkpt lat="45.15636" lon="5.94655">
        <ele>2142</ele>
        <time>2019-01-20T10:27:21.000Z</time>
      </trkpt>
      <trkpt lat="45.15633" lon="5.94655">
        <ele>2142</ele>
        <time>2019-01-20T10:27:22.000Z</time>
      </trkpt>
      <trkpt lat="45.15633" lon="5.94655">
        <ele>2142</ele>
        <time>2019-01-20T10:27:23.000Z</time>
      </trkpt>
      <trkpt lat="45.1563" lon="5.94655">
        <ele>2142</ele>
        <time>2019-01-20T10:27:24.000Z</time>
      </trkpt>
      <trkpt lat="45.1563" lon="5.94655">
        <ele>2142</ele>
        <time>2019-01-20T10:27:25.000Z</time>
      </trkpt>
      <trkpt lat="45.15627" lon="5.94654">
        <ele>2142</ele>
        <time>2019-01-20T10:27:26.000Z</time>
      </trkpt>
      <trkpt lat="45.15627" lon="5.94654">
        <ele>2142</ele>
        <time>2019-01-20T10:27:27.000Z</time>
      </trkpt>
      <trkpt lat="45.15624" lon="5.94654">
        <ele>2142</ele>
        <time>2019-01-20T10:27:28.000Z</time>
      </trkpt>
      <trkpt lat="45.15624" lon="5.94654">
        <ele>2142</ele>
        <time>2019-01-20T10:27:29.000Z</time>
      </trkpt>
      <trkpt lat="45.1562" lon="5.94653">
        <ele>2142</ele>
        <time>2019-01-20T10:27:30.000Z</time>
      </trkpt>
      <trkpt lat="45.1562" lon="5.94653">
        <ele>2143</ele>
        <time>2019-01-20T10:27:31.000Z</time>
      </trkpt>
      <trkpt lat="45.15618" lon="5.94653">
        <ele>2143</ele>
        <time>2019-01-20T10:27:32.000Z</time>
      </trkpt>
      <trkpt lat="45.15618" lon="5.94653">
        <ele>2143</ele>
        <time>2019-01-20T10:27:33.000Z</time>
      </trkpt>
      <trkpt lat="45.15615" lon="5.94652">
        <ele>2144</ele>
        <time>2019-01-20T10:27:34.000Z</time>
      </trkpt>
      <trkpt lat="45.15615" lon="5.94652">
        <ele>2144</ele>
        <time>2019-01-20T10:27:35.000Z</time>
      </trkpt>
      <trkpt lat="45.15613" lon="5.94652">
        <ele>2144</ele>
        <time>2019-01-20T10:27:36.000Z</time>
      </trkpt>
      <trkpt lat="45.15613" lon="5.94652">
        <ele>2144</ele>
        <time>2019-01-20T10:27:37.000Z</time>
      </trkpt>
      <trkpt lat="45.1561" lon="5.94651">
        <ele>2144</ele>
        <time>2019-01-20T10:27:38.000Z</time>
      </trkpt>
      <trkpt lat="45.15608" lon="5.9465">
        <ele>2144.4</ele>
        <time>2019-01-20T10:27:40.000Z</time>
      </trkpt>
      <trkpt lat="45.15608" lon="5.9465">
        <ele>2145</ele>
        <time>2019-01-20T10:27:41.000Z</time>
      </trkpt>
      <trkpt lat="45.15606" lon="5.9465">
        <ele>2145</ele>
        <time>2019-01-20T10:27:42.000Z</time>
      </trkpt>
      <trkpt lat="45.15606" lon="5.9465">
        <ele>2145</ele>
        <time>2019-01-20T10:27:43.000Z</time>
      </trkpt>
      <trkpt lat="45.15604" lon="5.9465">
        <ele>2145</ele>
        <time>2019-01-20T10:27:44.000Z</time>
      </trkpt>
      <trkpt lat="45.15604" lon="5.9465">
        <ele>2145</ele>
        <time>2019-01-20T10:27:45.000Z</time>
      </trkpt>
      <trkpt lat="45.15601" lon="5.94649">
        <ele>2145</ele>
        <time>2019-01-20T10:27:46.000Z</time>
      </trkpt>
      <trkpt lat="45.15601" lon="5.94649">
        <ele>2146</ele>
        <time>2019-01-20T10:27:47.000Z</time>
      </trkpt>
      <trkpt lat="45.15599" lon="5.9465">
        <ele>2146</ele>
        <time>2019-01-20T10:27:48.000Z</time>
      </trkpt>
      <trkpt lat="45.15599" lon="5.9465">
        <ele>2146</ele>
        <time>2019-01-20T10:27:49.000Z</time>
      </trkpt>
      <trkpt lat="45.15597" lon="5.9465">
        <ele>2147</ele>
        <time>2019-01-20T10:27:50.000Z</time>
      </trkpt>
      <trkpt lat="45.15597" lon="5.9465">
        <ele>2147</ele>
        <time>2019-01-20T10:27:51.000Z</time>
      </trkpt>
      <trkpt lat="45.15595" lon="5.9465">
        <ele>2147</ele>
        <time>2019-01-20T10:27:52.000Z</time>
      </trkpt>
      <trkpt lat="45.15595" lon="5.9465">
        <ele>2147</ele>
        <time>2019-01-20T10:27:53.000Z</time>
      </trkpt>
      <trkpt lat="45.15593" lon="5.9465">
        <ele>2147</ele>
        <time>2019-01-20T10:27:54.000Z</time>
      </trkpt>
      <trkpt lat="45.15593" lon="5.9465">
        <ele>2147</ele>
        <time>2019-01-20T10:27:55.000Z</time>
      </trkpt>
      <trkpt lat="45.15591" lon="5.9465">
        <ele>2147</ele>
        <time>2019-01-20T10:27:56.000Z</time>
      </trkpt>
      <trkpt lat="45.15591" lon="5.9465">
        <ele>2147</ele>
        <time>2019-01-20T10:27:57.000Z</time>
      </trkpt>
      <trkpt lat="45.15589" lon="5.9465">
        <ele>2147</ele>
        <time>2019-01-20T10:27:58.000Z</time>
      </trkpt>
      <trkpt lat="45.15589" lon="5.9465">
        <ele>2147.6</ele>
        <time>2019-01-20T10:27:59.000Z</time>
      </trkpt>
      <trkpt lat="45.15589" lon="5.9465">
        <ele>2148</ele>
        <time>2019-01-20T10:28:00.000Z</time>
      </trkpt>
      <trkpt lat="45.15586" lon="5.9465">
        <ele>2148</ele>
        <time>2019-01-20T10:28:01.000Z</time>
      </trkpt>
      <trkpt lat="45.15586" lon="5.9465">
        <ele>2148</ele>
        <time>2019-01-20T10:28:02.000Z</time>
      </trkpt>
      <trkpt lat="45.15584" lon="5.94651">
        <ele>2148</ele>
        <time>2019-01-20T10:28:03.000Z</time>
      </trkpt>
      <trkpt lat="45.15584" lon="5.94651">
        <ele>2148</ele>
        <time>2019-01-20T10:28:04.000Z</time>
      </trkpt>
      <trkpt lat="45.15584" lon="5.94651">
        <ele>2149</ele>
        <time>2019-01-20T10:28:05.000Z</time>
      </trkpt>
      <trkpt lat="45.15582" lon="5.94651">
        <ele>2149</ele>
        <time>2019-01-20T10:28:06.000Z</time>
      </trkpt>
      <trkpt lat="45.15582" lon="5.94651">
        <ele>2149</ele>
        <time>2019-01-20T10:28:07.000Z</time>
      </trkpt>
      <trkpt lat="45.15582" lon="5.94651">
        <ele>2149</ele>
        <time>2019-01-20T10:28:08.000Z</time>
      </trkpt>
      <trkpt lat="45.15579" lon="5.94652">
        <ele>2149</ele>
        <time>2019-01-20T10:28:09.000Z</time>
      </trkpt>
      <trkpt lat="45.15579" lon="5.94652">
        <ele>2149</ele>
        <time>2019-01-20T10:28:10.000Z</time>
      </trkpt>
      <trkpt lat="45.15579" lon="5.94652">
        <ele>2150</ele>
        <time>2019-01-20T10:28:11.000Z</time>
      </trkpt>
      <trkpt lat="45.15577" lon="5.94653">
        <ele>2150</ele>
        <time>2019-01-20T10:28:12.000Z</time>
      </trkpt>
      <trkpt lat="45.15577" lon="5.94653">
        <ele>2150</ele>
        <time>2019-01-20T10:28:13.000Z</time>
      </trkpt>
      <trkpt lat="45.15577" lon="5.94653">
        <ele>2150</ele>
        <time>2019-01-20T10:28:14.000Z</time>
      </trkpt>
      <trkpt lat="45.15575" lon="5.94654">
        <ele>2150</ele>
        <time>2019-01-20T10:28:15.000Z</time>
      </trkpt>
      <trkpt lat="45.15575" lon="5.94654">
        <ele>2150</ele>
        <time>2019-01-20T10:28:16.000Z</time>
      </trkpt>
      <trkpt lat="45.15573" lon="5.94656">
        <ele>2150</ele>
        <time>2019-01-20T10:28:18.000Z</time>
      </trkpt>
      <trkpt lat="45.15573" lon="5.94656">
        <ele>2150</ele>
        <time>2019-01-20T10:28:19.000Z</time>
      </trkpt>
      <trkpt lat="45.15571" lon="5.94656">
        <ele>2151</ele>
        <time>2019-01-20T10:28:20.000Z</time>
      </trkpt>
      <trkpt lat="45.15571" lon="5.94656">
        <ele>2151</ele>
        <time>2019-01-20T10:28:21.000Z</time>
      </trkpt>
      <trkpt lat="45.15571" lon="5.94656">
        <ele>2151</ele>
        <time>2019-01-20T10:28:22.000Z</time>
      </trkpt>
      <trkpt lat="45.15568" lon="5.94656">
        <ele>2151</ele>
        <time>2019-01-20T10:28:23.000Z</time>
      </trkpt>
      <trkpt lat="45.15568" lon="5.94656">
        <ele>2152</ele>
        <time>2019-01-20T10:28:24.000Z</time>
      </trkpt>
      <trkpt lat="45.15568" lon="5.94656">
        <ele>2152</ele>
        <time>2019-01-20T10:28:25.000Z</time>
      </trkpt>
      <trkpt lat="45.15566" lon="5.94656">
        <ele>2152</ele>
        <time>2019-01-20T10:28:26.000Z</time>
      </trkpt>
      <trkpt lat="45.15566" lon="5.94656">
        <ele>2153</ele>
        <time>2019-01-20T10:28:27.000Z</time>
      </trkpt>
      <trkpt lat="45.15566" lon="5.94656">
        <ele>2153</ele>
        <time>2019-01-20T10:28:28.000Z</time>
      </trkpt>
      <trkpt lat="45.15566" lon="5.94656">
        <ele>2153</ele>
        <time>2019-01-20T10:28:29.000Z</time>
      </trkpt>
      <trkpt lat="45.15566" lon="5.94656">
        <ele>2153</ele>
        <time>2019-01-20T10:28:30.000Z</time>
      </trkpt>
      <trkpt lat="45.15566" lon="5.94656">
        <ele>2153</ele>
        <time>2019-01-20T10:28:31.000Z</time>
      </trkpt>
      <trkpt lat="45.15568" lon="5.94655">
        <ele>2153</ele>
        <time>2019-01-20T10:28:32.000Z</time>
      </trkpt>
      <trkpt lat="45.15568" lon="5.94655">
        <ele>2153</ele>
        <time>2019-01-20T10:28:33.000Z</time>
      </trkpt>
      <trkpt lat="45.15568" lon="5.94655">
        <ele>2153</ele>
        <time>2019-01-20T10:28:34.000Z</time>
      </trkpt>
      <trkpt lat="45.15569" lon="5.94657">
        <ele>2153</ele>
        <time>2019-01-20T10:28:35.000Z</time>
      </trkpt>
      <trkpt lat="45.15569" lon="5.94657">
        <ele>2154</ele>
        <time>2019-01-20T10:28:37.000Z</time>
      </trkpt>
      <trkpt lat="45.15569" lon="5.9466">
        <ele>2154</ele>
        <time>2019-01-20T10:28:38.000Z</time>
      </trkpt>
      <trkpt lat="45.15569" lon="5.9466">
        <ele>2154</ele>
        <time>2019-01-20T10:28:39.000Z</time>
      </trkpt>
      <trkpt lat="45.15569" lon="5.9466">
        <ele>2154</ele>
        <time>2019-01-20T10:28:40.000Z</time>
      </trkpt>
      <trkpt lat="45.15569" lon="5.9466">
        <ele>2155</ele>
        <time>2019-01-20T10:28:41.000Z</time>
      </trkpt>
      <trkpt lat="45.1557" lon="5.94663">
        <ele>2155</ele>
        <time>2019-01-20T10:28:42.000Z</time>
      </trkpt>
      <trkpt lat="45.1557" lon="5.94663">
        <ele>2156</ele>
        <time>2019-01-20T10:28:43.000Z</time>
      </trkpt>
      <trkpt lat="45.1557" lon="5.94663">
        <ele>2156</ele>
        <time>2019-01-20T10:28:44.000Z</time>
      </trkpt>
      <trkpt lat="45.1557" lon="5.94663">
        <ele>2156</ele>
        <time>2019-01-20T10:28:45.000Z</time>
      </trkpt>
      <trkpt lat="45.1557" lon="5.94663">
        <ele>2156</ele>
        <time>2019-01-20T10:28:46.000Z</time>
      </trkpt>
      <trkpt lat="45.1557" lon="5.94663">
        <ele>2156</ele>
        <time>2019-01-20T10:28:47.000Z</time>
      </trkpt>
      <trkpt lat="45.1557" lon="5.94663">
        <ele>2156</ele>
        <time>2019-01-20T10:28:48.000Z</time>
      </trkpt>
      <trkpt lat="45.1557" lon="5.94663">
        <ele>2156</ele>
        <time>2019-01-20T10:28:49.000Z</time>
      </trkpt>
      <trkpt lat="45.1557" lon="5.94663">
        <ele>2156</ele>
        <time>2019-01-20T10:28:50.000Z</time>
      </trkpt>
      <trkpt lat="45.1557" lon="5.94663">
        <ele>2156</ele>
        <time>2019-01-20T10:28:51.000Z</time>
      </trkpt>
      <trkpt lat="45.1557" lon="5.94663">
        <ele>2156</ele>
        <time>2019-01-20T10:28:52.000Z</time>
      </trkpt>
      <trkpt lat="45.15568" lon="5.94664">
        <ele>2157</ele>
        <time>2019-01-20T10:28:53.000Z</time>
      </trkpt>
      <trkpt lat="45.15568" lon="5.94664">
        <ele>2157</ele>
        <time>2019-01-20T10:28:54.000Z</time>
      </trkpt>
      <trkpt lat="45.15566" lon="5.94664">
        <ele>2156.4</ele>
        <time>2019-01-20T10:28:56.000Z</time>
      </trkpt>
      <trkpt lat="45.15566" lon="5.94664">
        <ele>2157</ele>
        <time>2019-01-20T10:28:57.000Z</time>
      </trkpt>
      <trkpt lat="45.15566" lon="5.94664">
        <ele>2157</ele>
        <time>2019-01-20T10:28:58.000Z</time>
      </trkpt>
      <trkpt lat="45.15566" lon="5.94664">
        <ele>2158</ele>
        <time>2019-01-20T10:28:59.000Z</time>
      </trkpt>
      <trkpt lat="45.15566" lon="5.94664">
        <ele>2158</ele>
        <time>2019-01-20T10:29:00.000Z</time>
      </trkpt>
      <trkpt lat="45.15564" lon="5.94665">
        <ele>2158</ele>
        <time>2019-01-20T10:29:01.000Z</time>
      </trkpt>
      <trkpt lat="45.15564" lon="5.94665">
        <ele>2158</ele>
        <time>2019-01-20T10:29:02.000Z</time>
      </trkpt>
      <trkpt lat="45.15564" lon="5.94665">
        <ele>2158</ele>
        <time>2019-01-20T10:29:03.000Z</time>
      </trkpt>
      <trkpt lat="45.15564" lon="5.94665">
        <ele>2158</ele>
        <time>2019-01-20T10:29:04.000Z</time>
      </trkpt>
      <trkpt lat="45.15562" lon="5.94665">
        <ele>2158</ele>
        <time>2019-01-20T10:29:05.000Z</time>
      </trkpt>
      <trkpt lat="45.15562" lon="5.94665">
        <ele>2159</ele>
        <time>2019-01-20T10:29:06.000Z</time>
      </trkpt>
      <trkpt lat="45.15562" lon="5.94665">
        <ele>2159</ele>
        <time>2019-01-20T10:29:07.000Z</time>
      </trkpt>
      <trkpt lat="45.1556" lon="5.94665">
        <ele>2159</ele>
        <time>2019-01-20T10:29:08.000Z</time>
      </trkpt>
      <trkpt lat="45.1556" lon="5.94665">
        <ele>2160</ele>
        <time>2019-01-20T10:29:09.000Z</time>
      </trkpt>
      <trkpt lat="45.15558" lon="5.94666">
        <ele>2160</ele>
        <time>2019-01-20T10:29:10.000Z</time>
      </trkpt>
      <trkpt lat="45.15558" lon="5.94666">
        <ele>2160</ele>
        <time>2019-01-20T10:29:11.000Z</time>
      </trkpt>
      <trkpt lat="45.15556" lon="5.94666">
        <ele>2161</ele>
        <time>2019-01-20T10:29:12.000Z</time>
      </trkpt>
      <trkpt lat="45.15556" lon="5.94666">
        <ele>2161</ele>
        <time>2019-01-20T10:29:13.000Z</time>
      </trkpt>
      <trkpt lat="45.15553" lon="5.94667">
        <ele>2161</ele>
        <time>2019-01-20T10:29:15.000Z</time>
      </trkpt>
      <trkpt lat="45.15553" lon="5.94667">
        <ele>2161</ele>
        <time>2019-01-20T10:29:16.000Z</time>
      </trkpt>
      <trkpt lat="45.15552" lon="5.94668">
        <ele>2161</ele>
        <time>2019-01-20T10:29:17.000Z</time>
      </trkpt>
      <trkpt lat="45.15552" lon="5.94668">
        <ele>2161</ele>
        <time>2019-01-20T10:29:18.000Z</time>
      </trkpt>
      <trkpt lat="45.15552" lon="5.94668">
        <ele>2161</ele>
        <time>2019-01-20T10:29:19.000Z</time>
      </trkpt>
      <trkpt lat="45.15552" lon="5.94668">
        <ele>2161</ele>
        <time>2019-01-20T10:29:20.000Z</time>
      </trkpt>
      <trkpt lat="45.15552" lon="5.94668">
        <ele>2162</ele>
        <time>2019-01-20T10:29:21.000Z</time>
      </trkpt>
      <trkpt lat="45.15552" lon="5.94668">
        <ele>2162</ele>
        <time>2019-01-20T10:29:22.000Z</time>
      </trkpt>
      <trkpt lat="45.15552" lon="5.94668">
        <ele>2162</ele>
        <time>2019-01-20T10:29:23.000Z</time>
      </trkpt>
      <trkpt lat="45.15552" lon="5.94668">
        <ele>2162</ele>
        <time>2019-01-20T10:29:24.000Z</time>
      </trkpt>
      <trkpt lat="45.15554" lon="5.94669">
        <ele>2162</ele>
        <time>2019-01-20T10:29:25.000Z</time>
      </trkpt>
      <trkpt lat="45.15554" lon="5.94669">
        <ele>2162</ele>
        <time>2019-01-20T10:29:27.000Z</time>
      </trkpt>
      <trkpt lat="45.15555" lon="5.94672">
        <ele>2162</ele>
        <time>2019-01-20T10:29:28.000Z</time>
      </trkpt>
      <trkpt lat="45.15555" lon="5.94672">
        <ele>2163</ele>
        <time>2019-01-20T10:29:29.000Z</time>
      </trkpt>
      <trkpt lat="45.15557" lon="5.94673">
        <ele>2163</ele>
        <time>2019-01-20T10:29:30.000Z</time>
      </trkpt>
      <trkpt lat="45.15557" lon="5.94673">
        <ele>2164</ele>
        <time>2019-01-20T10:29:31.000Z</time>
      </trkpt>
      <trkpt lat="45.15557" lon="5.94673">
        <ele>2164</ele>
        <time>2019-01-20T10:29:32.000Z</time>
      </trkpt>
      <trkpt lat="45.15558" lon="5.94675">
        <ele>2164</ele>
        <time>2019-01-20T10:29:33.000Z</time>
      </trkpt>
      <trkpt lat="45.15558" lon="5.94675">
        <ele>2164</ele>
        <time>2019-01-20T10:29:34.000Z</time>
      </trkpt>
      <trkpt lat="45.15558" lon="5.94675">
        <ele>2164</ele>
        <time>2019-01-20T10:29:35.000Z</time>
      </trkpt>
      <trkpt lat="45.15559" lon="5.94677">
        <ele>2164</ele>
        <time>2019-01-20T10:29:36.000Z</time>
      </trkpt>
      <trkpt lat="45.15559" lon="5.94677">
        <ele>2165</ele>
        <time>2019-01-20T10:29:37.000Z</time>
      </trkpt>
      <trkpt lat="45.15559" lon="5.94677">
        <ele>2165</ele>
        <time>2019-01-20T10:29:38.000Z</time>
      </trkpt>
      <trkpt lat="45.15559" lon="5.94677">
        <ele>2165</ele>
        <time>2019-01-20T10:29:39.000Z</time>
      </trkpt>
      <trkpt lat="45.15557" lon="5.94678">
        <ele>2165</ele>
        <time>2019-01-20T10:29:40.000Z</time>
      </trkpt>
      <trkpt lat="45.15557" lon="5.94678">
        <ele>2165</ele>
        <time>2019-01-20T10:29:41.000Z</time>
      </trkpt>
      <trkpt lat="45.15555" lon="5.94678">
        <ele>2165</ele>
        <time>2019-01-20T10:29:42.000Z</time>
      </trkpt>
      <trkpt lat="45.15555" lon="5.94678">
        <ele>2165</ele>
        <time>2019-01-20T10:29:43.000Z</time>
      </trkpt>
      <trkpt lat="45.15555" lon="5.94678">
        <ele>2166</ele>
        <time>2019-01-20T10:29:44.000Z</time>
      </trkpt>
      <trkpt lat="45.15553" lon="5.94679">
        <ele>2166</ele>
        <time>2019-01-20T10:29:45.000Z</time>
      </trkpt>
      <trkpt lat="45.15553" lon="5.94679">
        <ele>2166</ele>
        <time>2019-01-20T10:29:46.000Z</time>
      </trkpt>
      <trkpt lat="45.15553" lon="5.94679">
        <ele>2167</ele>
        <time>2019-01-20T10:29:47.000Z</time>
      </trkpt>
      <trkpt lat="45.1555" lon="5.94679">
        <ele>2167</ele>
        <time>2019-01-20T10:29:48.000Z</time>
      </trkpt>
      <trkpt lat="45.1555" lon="5.94679">
        <ele>2167</ele>
        <time>2019-01-20T10:29:49.000Z</time>
      </trkpt>
      <trkpt lat="45.1555" lon="5.94679">
        <ele>2168</ele>
        <time>2019-01-20T10:29:50.000Z</time>
      </trkpt>
      <trkpt lat="45.15549" lon="5.9468">
        <ele>2168</ele>
        <time>2019-01-20T10:29:51.000Z</time>
      </trkpt>
      <trkpt lat="45.15549" lon="5.9468">
        <ele>2168</ele>
        <time>2019-01-20T10:29:53.000Z</time>
      </trkpt>
      <trkpt lat="45.15546" lon="5.94681">
        <ele>2168</ele>
        <time>2019-01-20T10:29:54.000Z</time>
      </trkpt>
      <trkpt lat="45.15546" lon="5.94681">
        <ele>2168</ele>
        <time>2019-01-20T10:29:55.000Z</time>
      </trkpt>
      <trkpt lat="45.15546" lon="5.94681">
        <ele>2168</ele>
        <time>2019-01-20T10:29:56.000Z</time>
      </trkpt>
      <trkpt lat="45.15544" lon="5.94683">
        <ele>2168</ele>
        <time>2019-01-20T10:29:57.000Z</time>
      </trkpt>
      <trkpt lat="45.15544" lon="5.94683">
        <ele>2169</ele>
        <time>2019-01-20T10:29:58.000Z</time>
      </trkpt>
      <trkpt lat="45.15544" lon="5.94683">
        <ele>2169</ele>
        <time>2019-01-20T10:29:59.000Z</time>
      </trkpt>
      <trkpt lat="45.15543" lon="5.94684">
        <ele>2169</ele>
        <time>2019-01-20T10:30:00.000Z</time>
      </trkpt>
      <trkpt lat="45.15543" lon="5.94684">
        <ele>2169</ele>
        <time>2019-01-20T10:30:01.000Z</time>
      </trkpt>
      <trkpt lat="45.15543" lon="5.94684">
        <ele>2169</ele>
        <time>2019-01-20T10:30:02.000Z</time>
      </trkpt>
      <trkpt lat="45.1554" lon="5.94685">
        <ele>2169</ele>
        <time>2019-01-20T10:30:03.000Z</time>
      </trkpt>
      <trkpt lat="45.1554" lon="5.94685">
        <ele>2169</ele>
        <time>2019-01-20T10:30:04.000Z</time>
      </trkpt>
      <trkpt lat="45.1554" lon="5.94685">
        <ele>2170</ele>
        <time>2019-01-20T10:30:05.000Z</time>
      </trkpt>
      <trkpt lat="45.15538" lon="5.94685">
        <ele>2170</ele>
        <time>2019-01-20T10:30:06.000Z</time>
      </trkpt>
      <trkpt lat="45.15538" lon="5.94685">
        <ele>2170</ele>
        <time>2019-01-20T10:30:07.000Z</time>
      </trkpt>
      <trkpt lat="45.15538" lon="5.94685">
        <ele>2171</ele>
        <time>2019-01-20T10:30:08.000Z</time>
      </trkpt>
      <trkpt lat="45.15536" lon="5.94686">
        <ele>2171</ele>
        <time>2019-01-20T10:30:09.000Z</time>
      </trkpt>
      <trkpt lat="45.15536" lon="5.94686">
        <ele>2171</ele>
        <time>2019-01-20T10:30:10.000Z</time>
      </trkpt>
      <trkpt lat="45.15533" lon="5.94687">
        <ele>2171</ele>
        <time>2019-01-20T10:30:12.000Z</time>
      </trkpt>
      <trkpt lat="45.15533" lon="5.94687">
        <ele>2171</ele>
        <time>2019-01-20T10:30:13.000Z</time>
      </trkpt>
      <trkpt lat="45.15533" lon="5.94687">
        <ele>2171</ele>
        <time>2019-01-20T10:30:14.000Z</time>
      </trkpt>
      <trkpt lat="45.15531" lon="5.94687">
        <ele>2172</ele>
        <time>2019-01-20T10:30:15.000Z</time>
      </trkpt>
      <trkpt lat="45.15531" lon="5.94687">
        <ele>2172</ele>
        <time>2019-01-20T10:30:16.000Z</time>
      </trkpt>
      <trkpt lat="45.15531" lon="5.94687">
        <ele>2173</ele>
        <time>2019-01-20T10:30:17.000Z</time>
      </trkpt>
      <trkpt lat="45.15528" lon="5.94687">
        <ele>2173</ele>
        <time>2019-01-20T10:30:18.000Z</time>
      </trkpt>
      <trkpt lat="45.15528" lon="5.94687">
        <ele>2173</ele>
        <time>2019-01-20T10:30:19.000Z</time>
      </trkpt>
      <trkpt lat="45.15526" lon="5.94687">
        <ele>2173</ele>
        <time>2019-01-20T10:30:20.000Z</time>
      </trkpt>
      <trkpt lat="45.15526" lon="5.94687">
        <ele>2173</ele>
        <time>2019-01-20T10:30:21.000Z</time>
      </trkpt>
      <trkpt lat="45.15526" lon="5.94687">
        <ele>2173</ele>
        <time>2019-01-20T10:30:22.000Z</time>
      </trkpt>
      <trkpt lat="45.15524" lon="5.94685">
        <ele>2173</ele>
        <time>2019-01-20T10:30:23.000Z</time>
      </trkpt>
      <trkpt lat="45.15524" lon="5.94685">
        <ele>2173</ele>
        <time>2019-01-20T10:30:24.000Z</time>
      </trkpt>
      <trkpt lat="45.15524" lon="5.94685">
        <ele>2173</ele>
        <time>2019-01-20T10:30:25.000Z</time>
      </trkpt>
      <trkpt lat="45.15521" lon="5.94685">
        <ele>2173</ele>
        <time>2019-01-20T10:30:26.000Z</time>
      </trkpt>
      <trkpt lat="45.15521" lon="5.94685">
        <ele>2174</ele>
        <time>2019-01-20T10:30:27.000Z</time>
      </trkpt>
      <trkpt lat="45.15521" lon="5.94685">
        <ele>2174</ele>
        <time>2019-01-20T10:30:28.000Z</time>
      </trkpt>
      <trkpt lat="45.15519" lon="5.94684">
        <ele>2174</ele>
        <time>2019-01-20T10:30:29.000Z</time>
      </trkpt>
      <trkpt lat="45.15519" lon="5.94684">
        <ele>2174</ele>
        <time>2019-01-20T10:30:31.000Z</time>
      </trkpt>
      <trkpt lat="45.15516" lon="5.94683">
        <ele>2174</ele>
        <time>2019-01-20T10:30:32.000Z</time>
      </trkpt>
      <trkpt lat="45.15516" lon="5.94683">
        <ele>2175</ele>
        <time>2019-01-20T10:30:33.000Z</time>
      </trkpt>
      <trkpt lat="45.15514" lon="5.94682">
        <ele>2175</ele>
        <time>2019-01-20T10:30:34.000Z</time>
      </trkpt>
      <trkpt lat="45.15514" lon="5.94682">
        <ele>2175</ele>
        <time>2019-01-20T10:30:35.000Z</time>
      </trkpt>
      <trkpt lat="45.15514" lon="5.94682">
        <ele>2175</ele>
        <time>2019-01-20T10:30:36.000Z</time>
      </trkpt>
      <trkpt lat="45.15512" lon="5.94681">
        <ele>2175</ele>
        <time>2019-01-20T10:30:37.000Z</time>
      </trkpt>
      <trkpt lat="45.15512" lon="5.94681">
        <ele>2175</ele>
        <time>2019-01-20T10:30:38.000Z</time>
      </trkpt>
      <trkpt lat="45.15512" lon="5.94681">
        <ele>2176</ele>
        <time>2019-01-20T10:30:39.000Z</time>
      </trkpt>
      <trkpt lat="45.1551" lon="5.9468">
        <ele>2176</ele>
        <time>2019-01-20T10:30:40.000Z</time>
      </trkpt>
      <trkpt lat="45.1551" lon="5.9468">
        <ele>2176</ele>
        <time>2019-01-20T10:30:41.000Z</time>
      </trkpt>
      <trkpt lat="45.15509" lon="5.94678">
        <ele>2176</ele>
        <time>2019-01-20T10:30:42.000Z</time>
      </trkpt>
      <trkpt lat="45.15509" lon="5.94678">
        <ele>2176</ele>
        <time>2019-01-20T10:30:43.000Z</time>
      </trkpt>
      <trkpt lat="45.15509" lon="5.94678">
        <ele>2176</ele>
        <time>2019-01-20T10:30:44.000Z</time>
      </trkpt>
      <trkpt lat="45.15506" lon="5.94677">
        <ele>2178</ele>
        <time>2019-01-20T10:30:45.000Z</time>
      </trkpt>
      <trkpt lat="45.15506" lon="5.94677">
        <ele>2178</ele>
        <time>2019-01-20T10:30:46.000Z</time>
      </trkpt>
      <trkpt lat="45.15505" lon="5.94676">
        <ele>2179</ele>
        <time>2019-01-20T10:30:47.000Z</time>
      </trkpt>
      <trkpt lat="45.15505" lon="5.94676">
        <ele>2179</ele>
        <time>2019-01-20T10:30:48.000Z</time>
      </trkpt>
      <trkpt lat="45.15502" lon="5.94674">
        <ele>2179.6</ele>
        <time>2019-01-20T10:30:50.000Z</time>
      </trkpt>
      <trkpt lat="45.15502" lon="5.94674">
        <ele>2180</ele>
        <time>2019-01-20T10:30:51.000Z</time>
      </trkpt>
      <trkpt lat="45.15501" lon="5.94673">
        <ele>2180</ele>
        <time>2019-01-20T10:30:52.000Z</time>
      </trkpt>
      <trkpt lat="45.15501" lon="5.94673">
        <ele>2180</ele>
        <time>2019-01-20T10:30:53.000Z</time>
      </trkpt>
      <trkpt lat="45.15501" lon="5.94673">
        <ele>2180</ele>
        <time>2019-01-20T10:30:54.000Z</time>
      </trkpt>
      <trkpt lat="45.15501" lon="5.94673">
        <ele>2180</ele>
        <time>2019-01-20T10:30:55.000Z</time>
      </trkpt>
      <trkpt lat="45.15501" lon="5.94673">
        <ele>2180</ele>
        <time>2019-01-20T10:30:56.000Z</time>
      </trkpt>
      <trkpt lat="45.15501" lon="5.94673">
        <ele>2180</ele>
        <time>2019-01-20T10:30:57.000Z</time>
      </trkpt>
      <trkpt lat="45.15501" lon="5.94673">
        <ele>2181</ele>
        <time>2019-01-20T10:30:58.000Z</time>
      </trkpt>
      <trkpt lat="45.15501" lon="5.94673">
        <ele>2181</ele>
        <time>2019-01-20T10:30:59.000Z</time>
      </trkpt>
      <trkpt lat="45.15501" lon="5.94673">
        <ele>2180</ele>
        <time>2019-01-20T10:31:00.000Z</time>
      </trkpt>
      <trkpt lat="45.15501" lon="5.94673">
        <ele>2180</ele>
        <time>2019-01-20T10:31:01.000Z</time>
      </trkpt>
      <trkpt lat="45.15501" lon="5.94673">
        <ele>2181</ele>
        <time>2019-01-20T10:31:02.000Z</time>
      </trkpt>
      <trkpt lat="45.15501" lon="5.94673">
        <ele>2181</ele>
        <time>2019-01-20T10:31:03.000Z</time>
      </trkpt>
      <trkpt lat="45.15501" lon="5.94673">
        <ele>2181</ele>
        <time>2019-01-20T10:31:04.000Z</time>
      </trkpt>
      <trkpt lat="45.15501" lon="5.94675">
        <ele>2181</ele>
        <time>2019-01-20T10:31:05.000Z</time>
      </trkpt>
      <trkpt lat="45.15501" lon="5.94675">
        <ele>2181</ele>
        <time>2019-01-20T10:31:06.000Z</time>
      </trkpt>
      <trkpt lat="45.15501" lon="5.94675">
        <ele>2181</ele>
        <time>2019-01-20T10:31:07.000Z</time>
      </trkpt>
      <trkpt lat="45.15502" lon="5.94678">
        <ele>2181</ele>
        <time>2019-01-20T10:31:08.000Z</time>
      </trkpt>
      <trkpt lat="45.15502" lon="5.94678">
        <ele>2182.4</ele>
        <time>2019-01-20T10:31:09.000Z</time>
      </trkpt>
      <trkpt lat="45.15502" lon="5.94678">
        <ele>2183</ele>
        <time>2019-01-20T10:31:10.000Z</time>
      </trkpt>
      <trkpt lat="45.15503" lon="5.9468">
        <ele>2183</ele>
        <time>2019-01-20T10:31:11.000Z</time>
      </trkpt>
      <trkpt lat="45.15503" lon="5.9468">
        <ele>2183</ele>
        <time>2019-01-20T10:31:12.000Z</time>
      </trkpt>
      <trkpt lat="45.15503" lon="5.9468">
        <ele>2183</ele>
        <time>2019-01-20T10:31:13.000Z</time>
      </trkpt>
      <trkpt lat="45.15505" lon="5.94683">
        <ele>2183</ele>
        <time>2019-01-20T10:31:14.000Z</time>
      </trkpt>
      <trkpt lat="45.15505" lon="5.94683">
        <ele>2183</ele>
        <time>2019-01-20T10:31:15.000Z</time>
      </trkpt>
      <trkpt lat="45.15505" lon="5.94686">
        <ele>2183</ele>
        <time>2019-01-20T10:31:16.000Z</time>
      </trkpt>
      <trkpt lat="45.15505" lon="5.94686">
        <ele>2183</ele>
        <time>2019-01-20T10:31:17.000Z</time>
      </trkpt>
      <trkpt lat="45.15505" lon="5.94686">
        <ele>2183</ele>
        <time>2019-01-20T10:31:18.000Z</time>
      </trkpt>
      <trkpt lat="45.15506" lon="5.94689">
        <ele>2183</ele>
        <time>2019-01-20T10:31:19.000Z</time>
      </trkpt>
      <trkpt lat="45.15506" lon="5.94689">
        <ele>2184</ele>
        <time>2019-01-20T10:31:20.000Z</time>
      </trkpt>
      <trkpt lat="45.15506" lon="5.94689">
        <ele>2184</ele>
        <time>2019-01-20T10:31:21.000Z</time>
      </trkpt>
      <trkpt lat="45.15508" lon="5.94692">
        <ele>2184</ele>
        <time>2019-01-20T10:31:22.000Z</time>
      </trkpt>
      <trkpt lat="45.15508" lon="5.94692">
        <ele>2185</ele>
        <time>2019-01-20T10:31:23.000Z</time>
      </trkpt>
      <trkpt lat="45.15508" lon="5.94692">
        <ele>2185</ele>
        <time>2019-01-20T10:31:24.000Z</time>
      </trkpt>
      <trkpt lat="45.15509" lon="5.94694">
        <ele>2185</ele>
        <time>2019-01-20T10:31:25.000Z</time>
      </trkpt>
      <trkpt lat="45.15509" lon="5.94694">
        <ele>2185</ele>
        <time>2019-01-20T10:31:26.000Z</time>
      </trkpt>
      <trkpt lat="45.15511" lon="5.94697">
        <ele>2185</ele>
        <time>2019-01-20T10:31:28.000Z</time>
      </trkpt>
      <trkpt lat="45.15511" lon="5.94697">
        <ele>2185</ele>
        <time>2019-01-20T10:31:29.000Z</time>
      </trkpt>
      <trkpt lat="45.15511" lon="5.94697">
        <ele>2185</ele>
        <time>2019-01-20T10:31:30.000Z</time>
      </trkpt>
      <trkpt lat="45.15512" lon="5.947">
        <ele>2186</ele>
        <time>2019-01-20T10:31:31.000Z</time>
      </trkpt>
      <trkpt lat="45.15512" lon="5.947">
        <ele>2186</ele>
        <time>2019-01-20T10:31:32.000Z</time>
      </trkpt>
      <trkpt lat="45.15512" lon="5.947">
        <ele>2186</ele>
        <time>2019-01-20T10:31:33.000Z</time>
      </trkpt>
      <trkpt lat="45.15513" lon="5.94703">
        <ele>2186</ele>
        <time>2019-01-20T10:31:34.000Z</time>
      </trkpt>
      <trkpt lat="45.15513" lon="5.94703">
        <ele>2186</ele>
        <time>2019-01-20T10:31:35.000Z</time>
      </trkpt>
      <trkpt lat="45.15514" lon="5.94705">
        <ele>2186</ele>
        <time>2019-01-20T10:31:36.000Z</time>
      </trkpt>
      <trkpt lat="45.15514" lon="5.94705">
        <ele>2187</ele>
        <time>2019-01-20T10:31:37.000Z</time>
      </trkpt>
      <trkpt lat="45.15515" lon="5.94708">
        <ele>2187</ele>
        <time>2019-01-20T10:31:38.000Z</time>
      </trkpt>
      <trkpt lat="45.15515" lon="5.94708">
        <ele>2187</ele>
        <time>2019-01-20T10:31:39.000Z</time>
      </trkpt>
      <trkpt lat="45.15516" lon="5.9471">
        <ele>2187</ele>
        <time>2019-01-20T10:31:40.000Z</time>
      </trkpt>
      <trkpt lat="45.15516" lon="5.9471">
        <ele>2187</ele>
        <time>2019-01-20T10:31:41.000Z</time>
      </trkpt>
      <trkpt lat="45.15516" lon="5.9471">
        <ele>2187</ele>
        <time>2019-01-20T10:31:42.000Z</time>
      </trkpt>
      <trkpt lat="45.15518" lon="5.94712">
        <ele>2187</ele>
        <time>2019-01-20T10:31:43.000Z</time>
      </trkpt>
      <trkpt lat="45.15518" lon="5.94712">
        <ele>2187</ele>
        <time>2019-01-20T10:31:44.000Z</time>
      </trkpt>
      <trkpt lat="45.15518" lon="5.94712">
        <ele>2188</ele>
        <time>2019-01-20T10:31:45.000Z</time>
      </trkpt>
      <trkpt lat="45.1552" lon="5.94715">
        <ele>2188</ele>
        <time>2019-01-20T10:31:46.000Z</time>
      </trkpt>
      <trkpt lat="45.1552" lon="5.94715">
        <ele>2188</ele>
        <time>2019-01-20T10:31:47.000Z</time>
      </trkpt>
      <trkpt lat="45.1552" lon="5.94715">
        <ele>2188</ele>
        <time>2019-01-20T10:31:48.000Z</time>
      </trkpt>
      <trkpt lat="45.15521" lon="5.94718">
        <ele>2188</ele>
        <time>2019-01-20T10:31:49.000Z</time>
      </trkpt>
      <trkpt lat="45.15521" lon="5.94718">
        <ele>2188</ele>
        <time>2019-01-20T10:31:50.000Z</time>
      </trkpt>
      <trkpt lat="45.15521" lon="5.94718">
        <ele>2189</ele>
        <time>2019-01-20T10:31:51.000Z</time>
      </trkpt>
      <trkpt lat="45.15523" lon="5.9472">
        <ele>2189</ele>
        <time>2019-01-20T10:31:52.000Z</time>
      </trkpt>
      <trkpt lat="45.15523" lon="5.9472">
        <ele>2189</ele>
        <time>2019-01-20T10:31:53.000Z</time>
      </trkpt>
      <trkpt lat="45.15525" lon="5.94722">
        <ele>2189</ele>
        <time>2019-01-20T10:31:54.000Z</time>
      </trkpt>
      <trkpt lat="45.15525" lon="5.94722">
        <ele>2190</ele>
        <time>2019-01-20T10:31:55.000Z</time>
      </trkpt>
      <trkpt lat="45.15525" lon="5.94722">
        <ele>2190</ele>
        <time>2019-01-20T10:31:56.000Z</time>
      </trkpt>
      <trkpt lat="45.15527" lon="5.94723">
        <ele>2190</ele>
        <time>2019-01-20T10:31:57.000Z</time>
      </trkpt>
      <trkpt lat="45.15527" lon="5.94723">
        <ele>2190</ele>
        <time>2019-01-20T10:31:58.000Z</time>
      </trkpt>
      <trkpt lat="45.15527" lon="5.94723">
        <ele>2190</ele>
        <time>2019-01-20T10:31:59.000Z</time>
      </trkpt>
      <trkpt lat="45.15529" lon="5.94725">
        <ele>2191</ele>
        <time>2019-01-20T10:32:00.000Z</time>
      </trkpt>
      <trkpt lat="45.15529" lon="5.94725">
        <ele>2191</ele>
        <time>2019-01-20T10:32:01.000Z</time>
      </trkpt>
      <trkpt lat="45.15531" lon="5.94726">
        <ele>2191</ele>
        <time>2019-01-20T10:32:02.000Z</time>
      </trkpt>
      <trkpt lat="45.15531" lon="5.94726">
        <ele>2191</ele>
        <time>2019-01-20T10:32:03.000Z</time>
      </trkpt>
      <trkpt lat="45.15531" lon="5.94726">
        <ele>2191</ele>
        <time>2019-01-20T10:32:04.000Z</time>
      </trkpt>
      <trkpt lat="45.15533" lon="5.94728">
        <ele>2191</ele>
        <time>2019-01-20T10:32:05.000Z</time>
      </trkpt>
      <trkpt lat="45.15533" lon="5.94728">
        <ele>2191.6</ele>
        <time>2019-01-20T10:32:06.000Z</time>
      </trkpt>
      <trkpt lat="45.15535" lon="5.9473">
        <ele>2192</ele>
        <time>2019-01-20T10:32:07.000Z</time>
      </trkpt>
      <trkpt lat="45.15535" lon="5.9473">
        <ele>2192</ele>
        <time>2019-01-20T10:32:08.000Z</time>
      </trkpt>
      <trkpt lat="45.15536" lon="5.94731">
        <ele>2192</ele>
        <time>2019-01-20T10:32:09.000Z</time>
      </trkpt>
      <trkpt lat="45.15536" lon="5.94731">
        <ele>2192</ele>
        <time>2019-01-20T10:32:10.000Z</time>
      </trkpt>
      <trkpt lat="45.15536" lon="5.94731">
        <ele>2192</ele>
        <time>2019-01-20T10:32:11.000Z</time>
      </trkpt>
      <trkpt lat="45.15538" lon="5.94733">
        <ele>2193</ele>
        <time>2019-01-20T10:32:12.000Z</time>
      </trkpt>
      <trkpt lat="45.15538" lon="5.94733">
        <ele>2193</ele>
        <time>2019-01-20T10:32:13.000Z</time>
      </trkpt>
      <trkpt lat="45.15538" lon="5.94733">
        <ele>2193</ele>
        <time>2019-01-20T10:32:14.000Z</time>
      </trkpt>
      <trkpt lat="45.1554" lon="5.94735">
        <ele>2193</ele>
        <time>2019-01-20T10:32:15.000Z</time>
      </trkpt>
      <trkpt lat="45.1554" lon="5.94735">
        <ele>2194</ele>
        <time>2019-01-20T10:32:16.000Z</time>
      </trkpt>
      <trkpt lat="45.1554" lon="5.94735">
        <ele>2194</ele>
        <time>2019-01-20T10:32:17.000Z</time>
      </trkpt>
      <trkpt lat="45.15542" lon="5.94736">
        <ele>2195</ele>
        <time>2019-01-20T10:32:18.000Z</time>
      </trkpt>
      <trkpt lat="45.15542" lon="5.94736">
        <ele>2195</ele>
        <time>2019-01-20T10:32:20.000Z</time>
      </trkpt>
      <trkpt lat="45.15544" lon="5.94738">
        <ele>2195</ele>
        <time>2019-01-20T10:32:21.000Z</time>
      </trkpt>
      <trkpt lat="45.15544" lon="5.94738">
        <ele>2195</ele>
        <time>2019-01-20T10:32:22.000Z</time>
      </trkpt>
      <trkpt lat="45.15546" lon="5.94739">
        <ele>2195</ele>
        <time>2019-01-20T10:32:23.000Z</time>
      </trkpt>
      <trkpt lat="45.15547" lon="5.94741">
        <ele>2196</ele>
        <time>2019-01-20T10:32:25.000Z</time>
      </trkpt>
      <trkpt lat="45.15547" lon="5.94741">
        <ele>2196</ele>
        <time>2019-01-20T10:32:26.000Z</time>
      </trkpt>
      <trkpt lat="45.15549" lon="5.94742">
        <ele>2196</ele>
        <time>2019-01-20T10:32:27.000Z</time>
      </trkpt>
      <trkpt lat="45.15549" lon="5.94742">
        <ele>2197</ele>
        <time>2019-01-20T10:32:28.000Z</time>
      </trkpt>
      <trkpt lat="45.15549" lon="5.94742">
        <ele>2197</ele>
        <time>2019-01-20T10:32:29.000Z</time>
      </trkpt>
      <trkpt lat="45.15551" lon="5.94743">
        <ele>2197</ele>
        <time>2019-01-20T10:32:30.000Z</time>
      </trkpt>
      <trkpt lat="45.15551" lon="5.94743">
        <ele>2197</ele>
        <time>2019-01-20T10:32:31.000Z</time>
      </trkpt>
      <trkpt lat="45.15552" lon="5.94745">
        <ele>2197</ele>
        <time>2019-01-20T10:32:32.000Z</time>
      </trkpt>
      <trkpt lat="45.15552" lon="5.94745">
        <ele>2197</ele>
        <time>2019-01-20T10:32:33.000Z</time>
      </trkpt>
      <trkpt lat="45.15552" lon="5.94745">
        <ele>2198</ele>
        <time>2019-01-20T10:32:34.000Z</time>
      </trkpt>
      <trkpt lat="45.15554" lon="5.94747">
        <ele>2198</ele>
        <time>2019-01-20T10:32:35.000Z</time>
      </trkpt>
      <trkpt lat="45.15554" lon="5.94747">
        <ele>2199</ele>
        <time>2019-01-20T10:32:36.000Z</time>
      </trkpt>
      <trkpt lat="45.15555" lon="5.9475">
        <ele>2199</ele>
        <time>2019-01-20T10:32:37.000Z</time>
      </trkpt>
      <trkpt lat="45.15555" lon="5.9475">
        <ele>2199</ele>
        <time>2019-01-20T10:32:39.000Z</time>
      </trkpt>
      <trkpt lat="45.15555" lon="5.94752">
        <ele>2199</ele>
        <time>2019-01-20T10:32:40.000Z</time>
      </trkpt>
      <trkpt lat="45.15555" lon="5.94752">
        <ele>2199</ele>
        <time>2019-01-20T10:32:41.000Z</time>
      </trkpt>
      <trkpt lat="45.15555" lon="5.94752">
        <ele>2199</ele>
        <time>2019-01-20T10:32:42.000Z</time>
      </trkpt>
      <trkpt lat="45.15553" lon="5.94752">
        <ele>2199</ele>
        <time>2019-01-20T10:32:43.000Z</time>
      </trkpt>
      <trkpt lat="45.15553" lon="5.94752">
        <ele>2200.4</ele>
        <time>2019-01-20T10:32:44.000Z</time>
      </trkpt>
      <trkpt lat="45.15553" lon="5.94752">
        <ele>2201</ele>
        <time>2019-01-20T10:32:45.000Z</time>
      </trkpt>
      <trkpt lat="45.15551" lon="5.94752">
        <ele>2201</ele>
        <time>2019-01-20T10:32:46.000Z</time>
      </trkpt>
      <trkpt lat="45.15551" lon="5.94752">
        <ele>2200</ele>
        <time>2019-01-20T10:32:47.000Z</time>
      </trkpt>
      <trkpt lat="45.15548" lon="5.94753">
        <ele>2200</ele>
        <time>2019-01-20T10:32:48.000Z</time>
      </trkpt>
      <trkpt lat="45.15548" lon="5.94753">
        <ele>2200</ele>
        <time>2019-01-20T10:32:49.000Z</time>
      </trkpt>
      <trkpt lat="45.15548" lon="5.94753">
        <ele>2200</ele>
        <time>2019-01-20T10:32:50.000Z</time>
      </trkpt>
      <trkpt lat="45.15546" lon="5.94753">
        <ele>2200</ele>
        <time>2019-01-20T10:32:51.000Z</time>
      </trkpt>
      <trkpt lat="45.15546" lon="5.94753">
        <ele>2201</ele>
        <time>2019-01-20T10:32:52.000Z</time>
      </trkpt>
      <trkpt lat="45.15546" lon="5.94753">
        <ele>2201</ele>
        <time>2019-01-20T10:32:53.000Z</time>
      </trkpt>
      <trkpt lat="45.15544" lon="5.94755">
        <ele>2202</ele>
        <time>2019-01-20T10:32:54.000Z</time>
      </trkpt>
      <trkpt lat="45.15544" lon="5.94755">
        <ele>2202</ele>
        <time>2019-01-20T10:32:55.000Z</time>
      </trkpt>
      <trkpt lat="45.15544" lon="5.94755">
        <ele>2202</ele>
        <time>2019-01-20T10:32:56.000Z</time>
      </trkpt>
      <trkpt lat="45.15542" lon="5.94757">
        <ele>2202</ele>
        <time>2019-01-20T10:32:57.000Z</time>
      </trkpt>
      <trkpt lat="45.15542" lon="5.94757">
        <ele>2202</ele>
        <time>2019-01-20T10:32:58.000Z</time>
      </trkpt>
      <trkpt lat="45.15542" lon="5.94757">
        <ele>2202</ele>
        <time>2019-01-20T10:32:59.000Z</time>
      </trkpt>
      <trkpt lat="45.1554" lon="5.94758">
        <ele>2202</ele>
        <time>2019-01-20T10:33:00.000Z</time>
      </trkpt>
      <trkpt lat="45.1554" lon="5.94758">
        <ele>2203</ele>
        <time>2019-01-20T10:33:01.000Z</time>
      </trkpt>
      <trkpt lat="45.15538" lon="5.94759">
        <ele>2203</ele>
        <time>2019-01-20T10:33:03.000Z</time>
      </trkpt>
      <trkpt lat="45.15538" lon="5.94759">
        <ele>2204</ele>
        <time>2019-01-20T10:33:05.000Z</time>
      </trkpt>
      <trkpt lat="45.15535" lon="5.9476">
        <ele>2204</ele>
        <time>2019-01-20T10:33:06.000Z</time>
      </trkpt>
      <trkpt lat="45.15535" lon="5.9476">
        <ele>2204</ele>
        <time>2019-01-20T10:33:07.000Z</time>
      </trkpt>
      <trkpt lat="45.15535" lon="5.9476">
        <ele>2204</ele>
        <time>2019-01-20T10:33:08.000Z</time>
      </trkpt>
      <trkpt lat="45.15533" lon="5.9476">
        <ele>2205</ele>
        <time>2019-01-20T10:33:09.000Z</time>
      </trkpt>
      <trkpt lat="45.15533" lon="5.9476">
        <ele>2205</ele>
        <time>2019-01-20T10:33:10.000Z</time>
      </trkpt>
      <trkpt lat="45.15533" lon="5.9476">
        <ele>2205</ele>
        <time>2019-01-20T10:33:11.000Z</time>
      </trkpt>
      <trkpt lat="45.15531" lon="5.94762">
        <ele>2206</ele>
        <time>2019-01-20T10:33:12.000Z</time>
      </trkpt>
      <trkpt lat="45.15531" lon="5.94762">
        <ele>2206</ele>
        <time>2019-01-20T10:33:13.000Z</time>
      </trkpt>
      <trkpt lat="45.15531" lon="5.94762">
        <ele>2206</ele>
        <time>2019-01-20T10:33:14.000Z</time>
      </trkpt>
      <trkpt lat="45.15528" lon="5.94763">
        <ele>2207</ele>
        <time>2019-01-20T10:33:15.000Z</time>
      </trkpt>
      <trkpt lat="45.15528" lon="5.94763">
        <ele>2207</ele>
        <time>2019-01-20T10:33:16.000Z</time>
      </trkpt>
      <trkpt lat="45.15528" lon="5.94763">
        <ele>2207</ele>
        <time>2019-01-20T10:33:17.000Z</time>
      </trkpt>
      <trkpt lat="45.15526" lon="5.94764">
        <ele>2207</ele>
        <time>2019-01-20T10:33:18.000Z</time>
      </trkpt>
      <trkpt lat="45.15526" lon="5.94764">
        <ele>2208</ele>
        <time>2019-01-20T10:33:19.000Z</time>
      </trkpt>
      <trkpt lat="45.15526" lon="5.94764">
        <ele>2208</ele>
        <time>2019-01-20T10:33:20.000Z</time>
      </trkpt>
      <trkpt lat="45.15526" lon="5.94764">
        <ele>2208</ele>
        <time>2019-01-20T10:33:22.000Z</time>
      </trkpt>
      <trkpt lat="45.15526" lon="5.94764">
        <ele>2208</ele>
        <time>2019-01-20T10:33:23.000Z</time>
      </trkpt>
      <trkpt lat="45.15526" lon="5.94764">
        <ele>2208</ele>
        <time>2019-01-20T10:33:24.000Z</time>
      </trkpt>
      <trkpt lat="45.15527" lon="5.94767">
        <ele>2209</ele>
        <time>2019-01-20T10:33:25.000Z</time>
      </trkpt>
      <trkpt lat="45.15527" lon="5.94767">
        <ele>2209</ele>
        <time>2019-01-20T10:33:26.000Z</time>
      </trkpt>
      <trkpt lat="45.15527" lon="5.94767">
        <ele>2209</ele>
        <time>2019-01-20T10:33:27.000Z</time>
      </trkpt>
      <trkpt lat="45.15529" lon="5.94768">
        <ele>2209</ele>
        <time>2019-01-20T10:33:28.000Z</time>
      </trkpt>
      <trkpt lat="45.15529" lon="5.94768">
        <ele>2210</ele>
        <time>2019-01-20T10:33:29.000Z</time>
      </trkpt>
      <trkpt lat="45.15529" lon="5.94768">
        <ele>2210</ele>
        <time>2019-01-20T10:33:30.000Z</time>
      </trkpt>
      <trkpt lat="45.15531" lon="5.9477">
        <ele>2211</ele>
        <time>2019-01-20T10:33:31.000Z</time>
      </trkpt>
      <trkpt lat="45.15531" lon="5.9477">
        <ele>2211</ele>
        <time>2019-01-20T10:33:32.000Z</time>
      </trkpt>
      <trkpt lat="45.15531" lon="5.9477">
        <ele>2210</ele>
        <time>2019-01-20T10:33:33.000Z</time>
      </trkpt>
      <trkpt lat="45.15533" lon="5.94772">
        <ele>2211</ele>
        <time>2019-01-20T10:33:34.000Z</time>
      </trkpt>
      <trkpt lat="45.15533" lon="5.94772">
        <ele>2211</ele>
        <time>2019-01-20T10:33:35.000Z</time>
      </trkpt>
      <trkpt lat="45.15533" lon="5.94772">
        <ele>2211</ele>
        <time>2019-01-20T10:33:36.000Z</time>
      </trkpt>
      <trkpt lat="45.15534" lon="5.94775">
        <ele>2211</ele>
        <time>2019-01-20T10:33:37.000Z</time>
      </trkpt>
      <trkpt lat="45.15534" lon="5.94775">
        <ele>2211</ele>
        <time>2019-01-20T10:33:38.000Z</time>
      </trkpt>
      <trkpt lat="45.15534" lon="5.94775">
        <ele>2211</ele>
        <time>2019-01-20T10:33:39.000Z</time>
      </trkpt>
      <trkpt lat="45.15536" lon="5.94777">
        <ele>2211</ele>
        <time>2019-01-20T10:33:40.000Z</time>
      </trkpt>
      <trkpt lat="45.15536" lon="5.94777">
        <ele>2212</ele>
        <time>2019-01-20T10:33:41.000Z</time>
      </trkpt>
      <trkpt lat="45.15538" lon="5.94779">
        <ele>2212</ele>
        <time>2019-01-20T10:33:42.000Z</time>
      </trkpt>
      <trkpt lat="45.15538" lon="5.94779">
        <ele>2212</ele>
        <time>2019-01-20T10:33:43.000Z</time>
      </trkpt>
      <trkpt lat="45.1554" lon="5.9478">
        <ele>2212</ele>
        <time>2019-01-20T10:33:44.000Z</time>
      </trkpt>
      <trkpt lat="45.1554" lon="5.9478">
        <ele>2213</ele>
        <time>2019-01-20T10:33:46.000Z</time>
      </trkpt>
      <trkpt lat="45.15542" lon="5.94781">
        <ele>2213</ele>
        <time>2019-01-20T10:33:47.000Z</time>
      </trkpt>
      <trkpt lat="45.15542" lon="5.94781">
        <ele>2213</ele>
        <time>2019-01-20T10:33:48.000Z</time>
      </trkpt>
      <trkpt lat="45.15543" lon="5.94783">
        <ele>2213</ele>
        <time>2019-01-20T10:33:49.000Z</time>
      </trkpt>
      <trkpt lat="45.15543" lon="5.94783">
        <ele>2213</ele>
        <time>2019-01-20T10:33:50.000Z</time>
      </trkpt>
      <trkpt lat="45.15543" lon="5.94783">
        <ele>2214</ele>
        <time>2019-01-20T10:33:51.000Z</time>
      </trkpt>
      <trkpt lat="45.15544" lon="5.94786">
        <ele>2214</ele>
        <time>2019-01-20T10:33:52.000Z</time>
      </trkpt>
      <trkpt lat="45.15544" lon="5.94786">
        <ele>2215</ele>
        <time>2019-01-20T10:33:53.000Z</time>
      </trkpt>
      <trkpt lat="45.15546" lon="5.94788">
        <ele>2215</ele>
        <time>2019-01-20T10:33:54.000Z</time>
      </trkpt>
      <trkpt lat="45.15546" lon="5.94788">
        <ele>2216</ele>
        <time>2019-01-20T10:33:55.000Z</time>
      </trkpt>
      <trkpt lat="45.15546" lon="5.94788">
        <ele>2216</ele>
        <time>2019-01-20T10:33:56.000Z</time>
      </trkpt>
      <trkpt lat="45.15547" lon="5.9479">
        <ele>2216</ele>
        <time>2019-01-20T10:33:57.000Z</time>
      </trkpt>
      <trkpt lat="45.15547" lon="5.9479">
        <ele>2216</ele>
        <time>2019-01-20T10:33:58.000Z</time>
      </trkpt>
      <trkpt lat="45.15544" lon="5.94791">
        <ele>2216</ele>
        <time>2019-01-20T10:34:00.000Z</time>
      </trkpt>
      <trkpt lat="45.15544" lon="5.94791">
        <ele>2216</ele>
        <time>2019-01-20T10:34:01.000Z</time>
      </trkpt>
      <trkpt lat="45.15544" lon="5.94791">
        <ele>2216</ele>
        <time>2019-01-20T10:34:02.000Z</time>
      </trkpt>
      <trkpt lat="45.15542" lon="5.94792">
        <ele>2216</ele>
        <time>2019-01-20T10:34:03.000Z</time>
      </trkpt>
      <trkpt lat="45.15542" lon="5.94792">
        <ele>2217</ele>
        <time>2019-01-20T10:34:04.000Z</time>
      </trkpt>
      <trkpt lat="45.15542" lon="5.94792">
        <ele>2217</ele>
        <time>2019-01-20T10:34:05.000Z</time>
      </trkpt>
      <trkpt lat="45.1554" lon="5.94793">
        <ele>2217</ele>
        <time>2019-01-20T10:34:06.000Z</time>
      </trkpt>
      <trkpt lat="45.1554" lon="5.94793">
        <ele>2218</ele>
        <time>2019-01-20T10:34:07.000Z</time>
      </trkpt>
      <trkpt lat="45.1554" lon="5.94793">
        <ele>2218</ele>
        <time>2019-01-20T10:34:08.000Z</time>
      </trkpt>
      <trkpt lat="45.1554" lon="5.94793">
        <ele>2218</ele>
        <time>2019-01-20T10:34:09.000Z</time>
      </trkpt>
      <trkpt lat="45.15537" lon="5.94794">
        <ele>2219</ele>
        <time>2019-01-20T10:34:10.000Z</time>
      </trkpt>
      <trkpt lat="45.15537" lon="5.94794">
        <ele>2219</ele>
        <time>2019-01-20T10:34:11.000Z</time>
      </trkpt>
      <trkpt lat="45.15537" lon="5.94794">
        <ele>2219</ele>
        <time>2019-01-20T10:34:12.000Z</time>
      </trkpt>
      <trkpt lat="45.15535" lon="5.94796">
        <ele>2219</ele>
        <time>2019-01-20T10:34:13.000Z</time>
      </trkpt>
      <trkpt lat="45.15535" lon="5.94796">
        <ele>2219</ele>
        <time>2019-01-20T10:34:14.000Z</time>
      </trkpt>
      <trkpt lat="45.15533" lon="5.94797">
        <ele>2219</ele>
        <time>2019-01-20T10:34:15.000Z</time>
      </trkpt>
      <trkpt lat="45.15533" lon="5.94797">
        <ele>2219</ele>
        <time>2019-01-20T10:34:16.000Z</time>
      </trkpt>
      <trkpt lat="45.15533" lon="5.94797">
        <ele>2220</ele>
        <time>2019-01-20T10:34:17.000Z</time>
      </trkpt>
      <trkpt lat="45.15531" lon="5.94798">
        <ele>2220</ele>
        <time>2019-01-20T10:34:18.000Z</time>
      </trkpt>
      <trkpt lat="45.15531" lon="5.94798">
        <ele>2221</ele>
        <time>2019-01-20T10:34:19.000Z</time>
      </trkpt>
      <trkpt lat="45.15531" lon="5.94798">
        <ele>2221</ele>
        <time>2019-01-20T10:34:20.000Z</time>
      </trkpt>
      <trkpt lat="45.15531" lon="5.94798">
        <ele>2221</ele>
        <time>2019-01-20T10:34:21.000Z</time>
      </trkpt>
      <trkpt lat="45.15531" lon="5.94798">
        <ele>2221</ele>
        <time>2019-01-20T10:34:22.000Z</time>
      </trkpt>
      <trkpt lat="45.15533" lon="5.94799">
        <ele>2221</ele>
        <time>2019-01-20T10:34:23.000Z</time>
      </trkpt>
      <trkpt lat="45.15533" lon="5.94799">
        <ele>2222</ele>
        <time>2019-01-20T10:34:24.000Z</time>
      </trkpt>
      <trkpt lat="45.15533" lon="5.94799">
        <ele>2222</ele>
        <time>2019-01-20T10:34:25.000Z</time>
      </trkpt>
      <trkpt lat="45.15535" lon="5.94801">
        <ele>2222</ele>
        <time>2019-01-20T10:34:26.000Z</time>
      </trkpt>
      <trkpt lat="45.15535" lon="5.94801">
        <ele>2222</ele>
        <time>2019-01-20T10:34:27.000Z</time>
      </trkpt>
      <trkpt lat="45.15535" lon="5.94801">
        <ele>2222</ele>
        <time>2019-01-20T10:34:28.000Z</time>
      </trkpt>
      <trkpt lat="45.15537" lon="5.94803">
        <ele>2222</ele>
        <time>2019-01-20T10:34:29.000Z</time>
      </trkpt>
      <trkpt lat="45.15537" lon="5.94803">
        <ele>2223</ele>
        <time>2019-01-20T10:34:30.000Z</time>
      </trkpt>
      <trkpt lat="45.15537" lon="5.94803">
        <ele>2223</ele>
        <time>2019-01-20T10:34:31.000Z</time>
      </trkpt>
      <trkpt lat="45.15538" lon="5.94805">
        <ele>2223</ele>
        <time>2019-01-20T10:34:32.000Z</time>
      </trkpt>
      <trkpt lat="45.15538" lon="5.94805">
        <ele>2225</ele>
        <time>2019-01-20T10:34:33.000Z</time>
      </trkpt>
      <trkpt lat="45.15539" lon="5.94807">
        <ele>2225</ele>
        <time>2019-01-20T10:34:34.000Z</time>
      </trkpt>
      <trkpt lat="45.15539" lon="5.94807">
        <ele>2225</ele>
        <time>2019-01-20T10:34:35.000Z</time>
      </trkpt>
      <trkpt lat="45.15539" lon="5.94807">
        <ele>2225</ele>
        <time>2019-01-20T10:34:36.000Z</time>
      </trkpt>
      <trkpt lat="45.15541" lon="5.94809">
        <ele>2225</ele>
        <time>2019-01-20T10:34:37.000Z</time>
      </trkpt>
      <trkpt lat="45.15541" lon="5.94809">
        <ele>2225.6</ele>
        <time>2019-01-20T10:34:38.000Z</time>
      </trkpt>
      <trkpt lat="45.15543" lon="5.94811">
        <ele>2226</ele>
        <time>2019-01-20T10:34:39.000Z</time>
      </trkpt>
      <trkpt lat="45.15543" lon="5.94811">
        <ele>2226</ele>
        <time>2019-01-20T10:34:40.000Z</time>
      </trkpt>
      <trkpt lat="45.15543" lon="5.94811">
        <ele>2226</ele>
        <time>2019-01-20T10:34:41.000Z</time>
      </trkpt>
      <trkpt lat="45.15545" lon="5.94813">
        <ele>2226</ele>
        <time>2019-01-20T10:34:42.000Z</time>
      </trkpt>
      <trkpt lat="45.15545" lon="5.94813">
        <ele>2227</ele>
        <time>2019-01-20T10:34:43.000Z</time>
      </trkpt>
      <trkpt lat="45.15546" lon="5.94814">
        <ele>2227</ele>
        <time>2019-01-20T10:34:44.000Z</time>
      </trkpt>
      <trkpt lat="45.15546" lon="5.94814">
        <ele>2227</ele>
        <time>2019-01-20T10:34:45.000Z</time>
      </trkpt>
      <trkpt lat="45.15546" lon="5.94814">
        <ele>2227</ele>
        <time>2019-01-20T10:34:46.000Z</time>
      </trkpt>
      <trkpt lat="45.15548" lon="5.94816">
        <ele>2227</ele>
        <time>2019-01-20T10:34:47.000Z</time>
      </trkpt>
      <trkpt lat="45.15548" lon="5.94816">
        <ele>2227.6</ele>
        <time>2019-01-20T10:34:48.000Z</time>
      </trkpt>
      <trkpt lat="45.1555" lon="5.94819">
        <ele>2228</ele>
        <time>2019-01-20T10:34:49.000Z</time>
      </trkpt>
      <trkpt lat="45.1555" lon="5.94819">
        <ele>2229</ele>
        <time>2019-01-20T10:34:50.000Z</time>
      </trkpt>
      <trkpt lat="45.1555" lon="5.94819">
        <ele>2229</ele>
        <time>2019-01-20T10:34:51.000Z</time>
      </trkpt>
      <trkpt lat="45.15551" lon="5.94821">
        <ele>2229</ele>
        <time>2019-01-20T10:34:52.000Z</time>
      </trkpt>
      <trkpt lat="45.15551" lon="5.94821">
        <ele>2230</ele>
        <time>2019-01-20T10:34:53.000Z</time>
      </trkpt>
      <trkpt lat="45.15551" lon="5.94821">
        <ele>2230</ele>
        <time>2019-01-20T10:34:54.000Z</time>
      </trkpt>
      <trkpt lat="45.15553" lon="5.94822">
        <ele>2230</ele>
        <time>2019-01-20T10:34:55.000Z</time>
      </trkpt>
      <trkpt lat="45.15555" lon="5.94824">
        <ele>2230</ele>
        <time>2019-01-20T10:34:57.000Z</time>
      </trkpt>
      <trkpt lat="45.15555" lon="5.94824">
        <ele>2230</ele>
        <time>2019-01-20T10:34:58.000Z</time>
      </trkpt>
      <trkpt lat="45.15555" lon="5.94824">
        <ele>2230</ele>
        <time>2019-01-20T10:34:59.000Z</time>
      </trkpt>
      <trkpt lat="45.15558" lon="5.94825">
        <ele>2230</ele>
        <time>2019-01-20T10:35:00.000Z</time>
      </trkpt>
      <trkpt lat="45.15558" lon="5.94825">
        <ele>2230</ele>
        <time>2019-01-20T10:35:01.000Z</time>
      </trkpt>
      <trkpt lat="45.15559" lon="5.94826">
        <ele>2230</ele>
        <time>2019-01-20T10:35:02.000Z</time>
      </trkpt>
      <trkpt lat="45.15559" lon="5.94826">
        <ele>2231</ele>
        <time>2019-01-20T10:35:03.000Z</time>
      </trkpt>
      <trkpt lat="45.15561" lon="5.94827">
        <ele>2231</ele>
        <time>2019-01-20T10:35:04.000Z</time>
      </trkpt>
      <trkpt lat="45.15561" lon="5.94827">
        <ele>2231</ele>
        <time>2019-01-20T10:35:05.000Z</time>
      </trkpt>
      <trkpt lat="45.15561" lon="5.94827">
        <ele>2232</ele>
        <time>2019-01-20T10:35:06.000Z</time>
      </trkpt>
      <trkpt lat="45.15561" lon="5.94827">
        <ele>2232</ele>
        <time>2019-01-20T10:35:07.000Z</time>
      </trkpt>
      <trkpt lat="45.15561" lon="5.94827">
        <ele>2232</ele>
        <time>2019-01-20T10:35:08.000Z</time>
      </trkpt>
      <trkpt lat="45.1556" lon="5.9483">
        <ele>2232</ele>
        <time>2019-01-20T10:35:10.000Z</time>
      </trkpt>
      <trkpt lat="45.1556" lon="5.9483">
        <ele>2232</ele>
        <time>2019-01-20T10:35:11.000Z</time>
      </trkpt>
      <trkpt lat="45.1556" lon="5.9483">
        <ele>2232</ele>
        <time>2019-01-20T10:35:12.000Z</time>
      </trkpt>
      <trkpt lat="45.15558" lon="5.94832">
        <ele>2233</ele>
        <time>2019-01-20T10:35:13.000Z</time>
      </trkpt>
      <trkpt lat="45.15558" lon="5.94832">
        <ele>2234</ele>
        <time>2019-01-20T10:35:14.000Z</time>
      </trkpt>
      <trkpt lat="45.15556" lon="5.94834">
        <ele>2234</ele>
        <time>2019-01-20T10:35:16.000Z</time>
      </trkpt>
      <trkpt lat="45.15556" lon="5.94834">
        <ele>2234</ele>
        <time>2019-01-20T10:35:17.000Z</time>
      </trkpt>
      <trkpt lat="45.15555" lon="5.94836">
        <ele>2234</ele>
        <time>2019-01-20T10:35:18.000Z</time>
      </trkpt>
      <trkpt lat="45.15555" lon="5.94836">
        <ele>2234</ele>
        <time>2019-01-20T10:35:19.000Z</time>
      </trkpt>
      <trkpt lat="45.15554" lon="5.94838">
        <ele>2234</ele>
        <time>2019-01-20T10:35:20.000Z</time>
      </trkpt>
      <trkpt lat="45.15554" lon="5.94838">
        <ele>2235.6</ele>
        <time>2019-01-20T10:35:22.000Z</time>
      </trkpt>
      <trkpt lat="45.15553" lon="5.94841">
        <ele>2236</ele>
        <time>2019-01-20T10:35:23.000Z</time>
      </trkpt>
      <trkpt lat="45.15553" lon="5.94841">
        <ele>2236</ele>
        <time>2019-01-20T10:35:24.000Z</time>
      </trkpt>
      <trkpt lat="45.15553" lon="5.94841">
        <ele>2236</ele>
        <time>2019-01-20T10:35:25.000Z</time>
      </trkpt>
      <trkpt lat="45.15554" lon="5.94843">
        <ele>2236</ele>
        <time>2019-01-20T10:35:26.000Z</time>
      </trkpt>
      <trkpt lat="45.15554" lon="5.94843">
        <ele>2236</ele>
        <time>2019-01-20T10:35:27.000Z</time>
      </trkpt>
      <trkpt lat="45.15554" lon="5.94843">
        <ele>2237</ele>
        <time>2019-01-20T10:35:28.000Z</time>
      </trkpt>
      <trkpt lat="45.15556" lon="5.94845">
        <ele>2237</ele>
        <time>2019-01-20T10:35:29.000Z</time>
      </trkpt>
      <trkpt lat="45.15556" lon="5.94845">
        <ele>2237</ele>
        <time>2019-01-20T10:35:30.000Z</time>
      </trkpt>
      <trkpt lat="45.15558" lon="5.94847">
        <ele>2237</ele>
        <time>2019-01-20T10:35:31.000Z</time>
      </trkpt>
      <trkpt lat="45.15558" lon="5.94847">
        <ele>2237</ele>
        <time>2019-01-20T10:35:32.000Z</time>
      </trkpt>
      <trkpt lat="45.1556" lon="5.94848">
        <ele>2238</ele>
        <time>2019-01-20T10:35:33.000Z</time>
      </trkpt>
      <trkpt lat="45.1556" lon="5.94848">
        <ele>2238</ele>
        <time>2019-01-20T10:35:35.000Z</time>
      </trkpt>
      <trkpt lat="45.15562" lon="5.94849">
        <ele>2238</ele>
        <time>2019-01-20T10:35:36.000Z</time>
      </trkpt>
      <trkpt lat="45.15562" lon="5.94849">
        <ele>2239</ele>
        <time>2019-01-20T10:35:37.000Z</time>
      </trkpt>
      <trkpt lat="45.15562" lon="5.94849">
        <ele>2240</ele>
        <time>2019-01-20T10:35:38.000Z</time>
      </trkpt>
      <trkpt lat="45.15565" lon="5.9485">
        <ele>2240</ele>
        <time>2019-01-20T10:35:39.000Z</time>
      </trkpt>
      <trkpt lat="45.15565" lon="5.9485">
        <ele>2240</ele>
        <time>2019-01-20T10:35:40.000Z</time>
      </trkpt>
      <trkpt lat="45.15565" lon="5.9485">
        <ele>2240</ele>
        <time>2019-01-20T10:35:41.000Z</time>
      </trkpt>
      <trkpt lat="45.15567" lon="5.94851">
        <ele>2241</ele>
        <time>2019-01-20T10:35:42.000Z</time>
      </trkpt>
      <trkpt lat="45.15567" lon="5.94851">
        <ele>2241</ele>
        <time>2019-01-20T10:35:43.000Z</time>
      </trkpt>
      <trkpt lat="45.15567" lon="5.94851">
        <ele>2241</ele>
        <time>2019-01-20T10:35:44.000Z</time>
      </trkpt>
      <trkpt lat="45.15569" lon="5.94852">
        <ele>2241</ele>
        <time>2019-01-20T10:35:45.000Z</time>
      </trkpt>
      <trkpt lat="45.15569" lon="5.94852">
        <ele>2241</ele>
        <time>2019-01-20T10:35:46.000Z</time>
      </trkpt>
      <trkpt lat="45.15571" lon="5.94853">
        <ele>2241</ele>
        <time>2019-01-20T10:35:47.000Z</time>
      </trkpt>
      <trkpt lat="45.15571" lon="5.94853">
        <ele>2242</ele>
        <time>2019-01-20T10:35:48.000Z</time>
      </trkpt>
      <trkpt lat="45.15571" lon="5.94853">
        <ele>2242</ele>
        <time>2019-01-20T10:35:49.000Z</time>
      </trkpt>
      <trkpt lat="45.15573" lon="5.94855">
        <ele>2242</ele>
        <time>2019-01-20T10:35:50.000Z</time>
      </trkpt>
      <trkpt lat="45.15573" lon="5.94855">
        <ele>2242</ele>
        <time>2019-01-20T10:35:51.000Z</time>
      </trkpt>
      <trkpt lat="45.15575" lon="5.94856">
        <ele>2242</ele>
        <time>2019-01-20T10:35:52.000Z</time>
      </trkpt>
      <trkpt lat="45.15577" lon="5.94857">
        <ele>2243</ele>
        <time>2019-01-20T10:35:54.000Z</time>
      </trkpt>
      <trkpt lat="45.15577" lon="5.94857">
        <ele>2243</ele>
        <time>2019-01-20T10:35:55.000Z</time>
      </trkpt>
      <trkpt lat="45.15578" lon="5.94859">
        <ele>2244</ele>
        <time>2019-01-20T10:35:56.000Z</time>
      </trkpt>
      <trkpt lat="45.15578" lon="5.94859">
        <ele>2244</ele>
        <time>2019-01-20T10:35:57.000Z</time>
      </trkpt>
      <trkpt lat="45.15578" lon="5.94859">
        <ele>2244</ele>
        <time>2019-01-20T10:35:58.000Z</time>
      </trkpt>
      <trkpt lat="45.1558" lon="5.94861">
        <ele>2244</ele>
        <time>2019-01-20T10:35:59.000Z</time>
      </trkpt>
      <trkpt lat="45.1558" lon="5.94861">
        <ele>2244</ele>
        <time>2019-01-20T10:36:00.000Z</time>
      </trkpt>
      <trkpt lat="45.15582" lon="5.94863">
        <ele>2245</ele>
        <time>2019-01-20T10:36:01.000Z</time>
      </trkpt>
      <trkpt lat="45.15582" lon="5.94863">
        <ele>2245</ele>
        <time>2019-01-20T10:36:02.000Z</time>
      </trkpt>
      <trkpt lat="45.15583" lon="5.94865">
        <ele>2245</ele>
        <time>2019-01-20T10:36:03.000Z</time>
      </trkpt>
      <trkpt lat="45.15583" lon="5.94865">
        <ele>2245</ele>
        <time>2019-01-20T10:36:04.000Z</time>
      </trkpt>
      <trkpt lat="45.15584" lon="5.94867">
        <ele>2245</ele>
        <time>2019-01-20T10:36:05.000Z</time>
      </trkpt>
      <trkpt lat="45.15584" lon="5.94867">
        <ele>2246</ele>
        <time>2019-01-20T10:36:06.000Z</time>
      </trkpt>
      <trkpt lat="45.15586" lon="5.94869">
        <ele>2246</ele>
        <time>2019-01-20T10:36:07.000Z</time>
      </trkpt>
      <trkpt lat="45.15586" lon="5.94869">
        <ele>2246</ele>
        <time>2019-01-20T10:36:08.000Z</time>
      </trkpt>
      <trkpt lat="45.15588" lon="5.9487">
        <ele>2246</ele>
        <time>2019-01-20T10:36:09.000Z</time>
      </trkpt>
      <trkpt lat="45.15588" lon="5.9487">
        <ele>2246</ele>
        <time>2019-01-20T10:36:10.000Z</time>
      </trkpt>
      <trkpt lat="45.15589" lon="5.94873">
        <ele>2246</ele>
        <time>2019-01-20T10:36:11.000Z</time>
      </trkpt>
      <trkpt lat="45.15589" lon="5.94873">
        <ele>2246.4</ele>
        <time>2019-01-20T10:36:13.000Z</time>
      </trkpt>
      <trkpt lat="45.15592" lon="5.94874">
        <ele>2247</ele>
        <time>2019-01-20T10:36:14.000Z</time>
      </trkpt>
      <trkpt lat="45.15592" lon="5.94874">
        <ele>2247</ele>
        <time>2019-01-20T10:36:15.000Z</time>
      </trkpt>
      <trkpt lat="45.15592" lon="5.94874">
        <ele>2248</ele>
        <time>2019-01-20T10:36:16.000Z</time>
      </trkpt>
      <trkpt lat="45.15592" lon="5.94874">
        <ele>2248</ele>
        <time>2019-01-20T10:36:17.000Z</time>
      </trkpt>
      <trkpt lat="45.15592" lon="5.94874">
        <ele>2248</ele>
        <time>2019-01-20T10:36:18.000Z</time>
      </trkpt>
      <trkpt lat="45.15592" lon="5.94876">
        <ele>2248</ele>
        <time>2019-01-20T10:36:19.000Z</time>
      </trkpt>
      <trkpt lat="45.15592" lon="5.94876">
        <ele>2248</ele>
        <time>2019-01-20T10:36:20.000Z</time>
      </trkpt>
      <trkpt lat="45.15592" lon="5.94876">
        <ele>2249</ele>
        <time>2019-01-20T10:36:21.000Z</time>
      </trkpt>
      <trkpt lat="45.1559" lon="5.94879">
        <ele>2249</ele>
        <time>2019-01-20T10:36:22.000Z</time>
      </trkpt>
      <trkpt lat="45.1559" lon="5.94879">
        <ele>2250</ele>
        <time>2019-01-20T10:36:23.000Z</time>
      </trkpt>
      <trkpt lat="45.15588" lon="5.94879">
        <ele>2250</ele>
        <time>2019-01-20T10:36:24.000Z</time>
      </trkpt>
      <trkpt lat="45.15588" lon="5.94879">
        <ele>2250</ele>
        <time>2019-01-20T10:36:25.000Z</time>
      </trkpt>
      <trkpt lat="45.15588" lon="5.94879">
        <ele>2251</ele>
        <time>2019-01-20T10:36:26.000Z</time>
      </trkpt>
      <trkpt lat="45.15586" lon="5.94881">
        <ele>2251</ele>
        <time>2019-01-20T10:36:27.000Z</time>
      </trkpt>
      <trkpt lat="45.15586" lon="5.94881">
        <ele>2251</ele>
        <time>2019-01-20T10:36:28.000Z</time>
      </trkpt>
      <trkpt lat="45.15586" lon="5.94881">
        <ele>2251</ele>
        <time>2019-01-20T10:36:29.000Z</time>
      </trkpt>
      <trkpt lat="45.15584" lon="5.94882">
        <ele>2251</ele>
        <time>2019-01-20T10:36:30.000Z</time>
      </trkpt>
      <trkpt lat="45.15582" lon="5.94883">
        <ele>2251</ele>
        <time>2019-01-20T10:36:32.000Z</time>
      </trkpt>
      <trkpt lat="45.15582" lon="5.94883">
        <ele>2251</ele>
        <time>2019-01-20T10:36:33.000Z</time>
      </trkpt>
      <trkpt lat="45.1558" lon="5.94884">
        <ele>2251</ele>
        <time>2019-01-20T10:36:34.000Z</time>
      </trkpt>
      <trkpt lat="45.1558" lon="5.94884">
        <ele>2252</ele>
        <time>2019-01-20T10:36:35.000Z</time>
      </trkpt>
      <trkpt lat="45.15578" lon="5.94886">
        <ele>2252</ele>
        <time>2019-01-20T10:36:36.000Z</time>
      </trkpt>
      <trkpt lat="45.15578" lon="5.94886">
        <ele>2252</ele>
        <time>2019-01-20T10:36:37.000Z</time>
      </trkpt>
      <trkpt lat="45.15576" lon="5.94887">
        <ele>2252</ele>
        <time>2019-01-20T10:36:38.000Z</time>
      </trkpt>
      <trkpt lat="45.15576" lon="5.94887">
        <ele>2252</ele>
        <time>2019-01-20T10:36:39.000Z</time>
      </trkpt>
      <trkpt lat="45.15574" lon="5.94888">
        <ele>2253</ele>
        <time>2019-01-20T10:36:40.000Z</time>
      </trkpt>
      <trkpt lat="45.15574" lon="5.94888">
        <ele>2253</ele>
        <time>2019-01-20T10:36:41.000Z</time>
      </trkpt>
      <trkpt lat="45.15573" lon="5.9489">
        <ele>2253</ele>
        <time>2019-01-20T10:36:42.000Z</time>
      </trkpt>
      <trkpt lat="45.15573" lon="5.9489">
        <ele>2253</ele>
        <time>2019-01-20T10:36:43.000Z</time>
      </trkpt>
      <trkpt lat="45.15573" lon="5.9489">
        <ele>2253</ele>
        <time>2019-01-20T10:36:44.000Z</time>
      </trkpt>
      <trkpt lat="45.15573" lon="5.9489">
        <ele>2253</ele>
        <time>2019-01-20T10:36:45.000Z</time>
      </trkpt>
      <trkpt lat="45.15571" lon="5.94891">
        <ele>2253</ele>
        <time>2019-01-20T10:36:46.000Z</time>
      </trkpt>
      <trkpt lat="45.15571" lon="5.94891">
        <ele>2254.4</ele>
        <time>2019-01-20T10:36:47.000Z</time>
      </trkpt>
      <trkpt lat="45.15569" lon="5.94893">
        <ele>2255</ele>
        <time>2019-01-20T10:36:48.000Z</time>
      </trkpt>
      <trkpt lat="45.15569" lon="5.94893">
        <ele>2255</ele>
        <time>2019-01-20T10:36:49.000Z</time>
      </trkpt>
      <trkpt lat="45.15567" lon="5.94894">
        <ele>2255</ele>
        <time>2019-01-20T10:36:50.000Z</time>
      </trkpt>
      <trkpt lat="45.15567" lon="5.94894">
        <ele>2256</ele>
        <time>2019-01-20T10:36:51.000Z</time>
      </trkpt>
      <trkpt lat="45.15565" lon="5.94896">
        <ele>2256</ele>
        <time>2019-01-20T10:36:52.000Z</time>
      </trkpt>
      <trkpt lat="45.15565" lon="5.94896">
        <ele>2256</ele>
        <time>2019-01-20T10:36:53.000Z</time>
      </trkpt>
      <trkpt lat="45.15563" lon="5.94897">
        <ele>2256</ele>
        <time>2019-01-20T10:36:54.000Z</time>
      </trkpt>
      <trkpt lat="45.15563" lon="5.94897">
        <ele>2256</ele>
        <time>2019-01-20T10:36:55.000Z</time>
      </trkpt>
      <trkpt lat="45.15563" lon="5.94897">
        <ele>2257</ele>
        <time>2019-01-20T10:36:56.000Z</time>
      </trkpt>
      <trkpt lat="45.15561" lon="5.94898">
        <ele>2257</ele>
        <time>2019-01-20T10:36:57.000Z</time>
      </trkpt>
      <trkpt lat="45.15561" lon="5.94898">
        <ele>2257</ele>
        <time>2019-01-20T10:36:58.000Z</time>
      </trkpt>
      <trkpt lat="45.15559" lon="5.94899">
        <ele>2257</ele>
        <time>2019-01-20T10:36:59.000Z</time>
      </trkpt>
      <trkpt lat="45.15559" lon="5.94899">
        <ele>2257</ele>
        <time>2019-01-20T10:37:00.000Z</time>
      </trkpt>
      <trkpt lat="45.15557" lon="5.949">
        <ele>2257</ele>
        <time>2019-01-20T10:37:01.000Z</time>
      </trkpt>
      <trkpt lat="45.15557" lon="5.949">
        <ele>2258</ele>
        <time>2019-01-20T10:37:02.000Z</time>
      </trkpt>
      <trkpt lat="45.15557" lon="5.949">
        <ele>2258</ele>
        <time>2019-01-20T10:37:03.000Z</time>
      </trkpt>
      <trkpt lat="45.15557" lon="5.949">
        <ele>2258</ele>
        <time>2019-01-20T10:37:04.000Z</time>
      </trkpt>
      <trkpt lat="45.15557" lon="5.949">
        <ele>2258</ele>
        <time>2019-01-20T10:37:05.000Z</time>
      </trkpt>
      <trkpt lat="45.15557" lon="5.949">
        <ele>2258</ele>
        <time>2019-01-20T10:37:06.000Z</time>
      </trkpt>
      <trkpt lat="45.15557" lon="5.949">
        <ele>2258</ele>
        <time>2019-01-20T10:37:07.000Z</time>
      </trkpt>
      <trkpt lat="45.15557" lon="5.949">
        <ele>2259</ele>
        <time>2019-01-20T10:37:08.000Z</time>
      </trkpt>
      <trkpt lat="45.15557" lon="5.94903">
        <ele>2259</ele>
        <time>2019-01-20T10:37:09.000Z</time>
      </trkpt>
      <trkpt lat="45.15557" lon="5.94903">
        <ele>2259</ele>
        <time>2019-01-20T10:37:10.000Z</time>
      </trkpt>
      <trkpt lat="45.15557" lon="5.94903">
        <ele>2259</ele>
        <time>2019-01-20T10:37:11.000Z</time>
      </trkpt>
      <trkpt lat="45.15559" lon="5.94905">
        <ele>2260</ele>
        <time>2019-01-20T10:37:12.000Z</time>
      </trkpt>
      <trkpt lat="45.15559" lon="5.94905">
        <ele>2260</ele>
        <time>2019-01-20T10:37:13.000Z</time>
      </trkpt>
      <trkpt lat="45.15559" lon="5.94905">
        <ele>2260</ele>
        <time>2019-01-20T10:37:14.000Z</time>
      </trkpt>
      <trkpt lat="45.1556" lon="5.94906">
        <ele>2260</ele>
        <time>2019-01-20T10:37:15.000Z</time>
      </trkpt>
      <trkpt lat="45.1556" lon="5.94906">
        <ele>2260</ele>
        <time>2019-01-20T10:37:16.000Z</time>
      </trkpt>
      <trkpt lat="45.15562" lon="5.94908">
        <ele>2260</ele>
        <time>2019-01-20T10:37:17.000Z</time>
      </trkpt>
      <trkpt lat="45.15562" lon="5.94908">
        <ele>2261</ele>
        <time>2019-01-20T10:37:18.000Z</time>
      </trkpt>
      <trkpt lat="45.15562" lon="5.94908">
        <ele>2261</ele>
        <time>2019-01-20T10:37:19.000Z</time>
      </trkpt>
      <trkpt lat="45.15564" lon="5.94909">
        <ele>2261</ele>
        <time>2019-01-20T10:37:20.000Z</time>
      </trkpt>
      <trkpt lat="45.15564" lon="5.94909">
        <ele>2262</ele>
        <time>2019-01-20T10:37:21.000Z</time>
      </trkpt>
      <trkpt lat="45.15564" lon="5.94909">
        <ele>2262</ele>
        <time>2019-01-20T10:37:22.000Z</time>
      </trkpt>
      <trkpt lat="45.15566" lon="5.9491">
        <ele>2262</ele>
        <time>2019-01-20T10:37:23.000Z</time>
      </trkpt>
      <trkpt lat="45.15566" lon="5.9491">
        <ele>2262</ele>
        <time>2019-01-20T10:37:24.000Z</time>
      </trkpt>
      <trkpt lat="45.15566" lon="5.9491">
        <ele>2262</ele>
        <time>2019-01-20T10:37:25.000Z</time>
      </trkpt>
      <trkpt lat="45.15568" lon="5.94912">
        <ele>2262</ele>
        <time>2019-01-20T10:37:26.000Z</time>
      </trkpt>
      <trkpt lat="45.15568" lon="5.94912">
        <ele>2262</ele>
        <time>2019-01-20T10:37:27.000Z</time>
      </trkpt>
      <trkpt lat="45.15571" lon="5.94914">
        <ele>2262.4</ele>
        <time>2019-01-20T10:37:29.000Z</time>
      </trkpt>
      <trkpt lat="45.15571" lon="5.94914">
        <ele>2263</ele>
        <time>2019-01-20T10:37:30.000Z</time>
      </trkpt>
      <trkpt lat="45.15571" lon="5.94914">
        <ele>2263</ele>
        <time>2019-01-20T10:37:31.000Z</time>
      </trkpt>
      <trkpt lat="45.15573" lon="5.94915">
        <ele>2263</ele>
        <time>2019-01-20T10:37:32.000Z</time>
      </trkpt>
      <trkpt lat="45.15573" lon="5.94915">
        <ele>2263</ele>
        <time>2019-01-20T10:37:33.000Z</time>
      </trkpt>
      <trkpt lat="45.15574" lon="5.94917">
        <ele>2264</ele>
        <time>2019-01-20T10:37:34.000Z</time>
      </trkpt>
      <trkpt lat="45.15574" lon="5.94917">
        <ele>2264</ele>
        <time>2019-01-20T10:37:35.000Z</time>
      </trkpt>
      <trkpt lat="45.15576" lon="5.94918">
        <ele>2264</ele>
        <time>2019-01-20T10:37:36.000Z</time>
      </trkpt>
      <trkpt lat="45.15576" lon="5.94918">
        <ele>2265</ele>
        <time>2019-01-20T10:37:37.000Z</time>
      </trkpt>
      <trkpt lat="45.15576" lon="5.94918">
        <ele>2265</ele>
        <time>2019-01-20T10:37:38.000Z</time>
      </trkpt>
      <trkpt lat="45.15578" lon="5.9492">
        <ele>2265</ele>
        <time>2019-01-20T10:37:39.000Z</time>
      </trkpt>
      <trkpt lat="45.15578" lon="5.9492">
        <ele>2266</ele>
        <time>2019-01-20T10:37:40.000Z</time>
      </trkpt>
      <trkpt lat="45.15578" lon="5.9492">
        <ele>2266</ele>
        <time>2019-01-20T10:37:41.000Z</time>
      </trkpt>
      <trkpt lat="45.15581" lon="5.94922">
        <ele>2266</ele>
        <time>2019-01-20T10:37:42.000Z</time>
      </trkpt>
      <trkpt lat="45.15581" lon="5.94922">
        <ele>2266</ele>
        <time>2019-01-20T10:37:43.000Z</time>
      </trkpt>
      <trkpt lat="45.15581" lon="5.94922">
        <ele>2266</ele>
        <time>2019-01-20T10:37:44.000Z</time>
      </trkpt>
      <trkpt lat="45.15583" lon="5.94923">
        <ele>2266</ele>
        <time>2019-01-20T10:37:45.000Z</time>
      </trkpt>
      <trkpt lat="45.15583" lon="5.94923">
        <ele>2266</ele>
        <time>2019-01-20T10:37:46.000Z</time>
      </trkpt>
      <trkpt lat="45.15584" lon="5.94925">
        <ele>2266.4</ele>
        <time>2019-01-20T10:37:48.000Z</time>
      </trkpt>
      <trkpt lat="45.15584" lon="5.94925">
        <ele>2267</ele>
        <time>2019-01-20T10:37:49.000Z</time>
      </trkpt>
      <trkpt lat="45.15584" lon="5.94925">
        <ele>2267</ele>
        <time>2019-01-20T10:37:50.000Z</time>
      </trkpt>
      <trkpt lat="45.15587" lon="5.94926">
        <ele>2268</ele>
        <time>2019-01-20T10:37:51.000Z</time>
      </trkpt>
      <trkpt lat="45.15587" lon="5.94926">
        <ele>2268</ele>
        <time>2019-01-20T10:37:53.000Z</time>
      </trkpt>
      <trkpt lat="45.15589" lon="5.94928">
        <ele>2269</ele>
        <time>2019-01-20T10:37:54.000Z</time>
      </trkpt>
      <trkpt lat="45.15589" lon="5.94928">
        <ele>2269</ele>
        <time>2019-01-20T10:37:55.000Z</time>
      </trkpt>
      <trkpt lat="45.1559" lon="5.9493">
        <ele>2269</ele>
        <time>2019-01-20T10:37:56.000Z</time>
      </trkpt>
      <trkpt lat="45.1559" lon="5.9493">
        <ele>2269</ele>
        <time>2019-01-20T10:37:57.000Z</time>
      </trkpt>
      <trkpt lat="45.15592" lon="5.94931">
        <ele>2270</ele>
        <time>2019-01-20T10:37:58.000Z</time>
      </trkpt>
      <trkpt lat="45.15592" lon="5.94931">
        <ele>2270</ele>
        <time>2019-01-20T10:37:59.000Z</time>
      </trkpt>
      <trkpt lat="45.15592" lon="5.94931">
        <ele>2270</ele>
        <time>2019-01-20T10:38:00.000Z</time>
      </trkpt>
      <trkpt lat="45.15594" lon="5.94933">
        <ele>2270</ele>
        <time>2019-01-20T10:38:01.000Z</time>
      </trkpt>
      <trkpt lat="45.15594" lon="5.94933">
        <ele>2270</ele>
        <time>2019-01-20T10:38:02.000Z</time>
      </trkpt>
      <trkpt lat="45.15596" lon="5.94935">
        <ele>2271</ele>
        <time>2019-01-20T10:38:03.000Z</time>
      </trkpt>
      <trkpt lat="45.15596" lon="5.94935">
        <ele>2271</ele>
        <time>2019-01-20T10:38:04.000Z</time>
      </trkpt>
      <trkpt lat="45.15596" lon="5.94935">
        <ele>2271</ele>
        <time>2019-01-20T10:38:05.000Z</time>
      </trkpt>
      <trkpt lat="45.15597" lon="5.94937">
        <ele>2271</ele>
        <time>2019-01-20T10:38:06.000Z</time>
      </trkpt>
      <trkpt lat="45.15597" lon="5.94937">
        <ele>2271.6</ele>
        <time>2019-01-20T10:38:07.000Z</time>
      </trkpt>
      <trkpt lat="45.15599" lon="5.94939">
        <ele>2272</ele>
        <time>2019-01-20T10:38:08.000Z</time>
      </trkpt>
      <trkpt lat="45.15599" lon="5.94939">
        <ele>2272</ele>
        <time>2019-01-20T10:38:09.000Z</time>
      </trkpt>
      <trkpt lat="45.15601" lon="5.9494">
        <ele>2272</ele>
        <time>2019-01-20T10:38:10.000Z</time>
      </trkpt>
      <trkpt lat="45.15601" lon="5.9494">
        <ele>2272</ele>
        <time>2019-01-20T10:38:11.000Z</time>
      </trkpt>
      <trkpt lat="45.15603" lon="5.94942">
        <ele>2272</ele>
        <time>2019-01-20T10:38:12.000Z</time>
      </trkpt>
      <trkpt lat="45.15603" lon="5.94942">
        <ele>2272</ele>
        <time>2019-01-20T10:38:13.000Z</time>
      </trkpt>
      <trkpt lat="45.15603" lon="5.94942">
        <ele>2272</ele>
        <time>2019-01-20T10:38:14.000Z</time>
      </trkpt>
      <trkpt lat="45.15603" lon="5.94942">
        <ele>2273</ele>
        <time>2019-01-20T10:38:15.000Z</time>
      </trkpt>
      <trkpt lat="45.15604" lon="5.94943">
        <ele>2273</ele>
        <time>2019-01-20T10:38:16.000Z</time>
      </trkpt>
      <trkpt lat="45.15604" lon="5.94943">
        <ele>2274</ele>
        <time>2019-01-20T10:38:17.000Z</time>
      </trkpt>
      <trkpt lat="45.15606" lon="5.94945">
        <ele>2274</ele>
        <time>2019-01-20T10:38:18.000Z</time>
      </trkpt>
      <trkpt lat="45.15606" lon="5.94945">
        <ele>2274</ele>
        <time>2019-01-20T10:38:19.000Z</time>
      </trkpt>
      <trkpt lat="45.15607" lon="5.94948">
        <ele>2275</ele>
        <time>2019-01-20T10:38:20.000Z</time>
      </trkpt>
      <trkpt lat="45.15607" lon="5.94948">
        <ele>2275</ele>
        <time>2019-01-20T10:38:21.000Z</time>
      </trkpt>
      <trkpt lat="45.15608" lon="5.9495">
        <ele>2275</ele>
        <time>2019-01-20T10:38:22.000Z</time>
      </trkpt>
      <trkpt lat="45.15608" lon="5.9495">
        <ele>2275</ele>
        <time>2019-01-20T10:38:23.000Z</time>
      </trkpt>
      <trkpt lat="45.1561" lon="5.94951">
        <ele>2275</ele>
        <time>2019-01-20T10:38:24.000Z</time>
      </trkpt>
      <trkpt lat="45.15611" lon="5.94954">
        <ele>2276</ele>
        <time>2019-01-20T10:38:26.000Z</time>
      </trkpt>
      <trkpt lat="45.15611" lon="5.94954">
        <ele>2276</ele>
        <time>2019-01-20T10:38:27.000Z</time>
      </trkpt>
      <trkpt lat="45.15612" lon="5.94956">
        <ele>2277</ele>
        <time>2019-01-20T10:38:28.000Z</time>
      </trkpt>
      <trkpt lat="45.15612" lon="5.94956">
        <ele>2277</ele>
        <time>2019-01-20T10:38:29.000Z</time>
      </trkpt>
      <trkpt lat="45.15614" lon="5.94958">
        <ele>2277</ele>
        <time>2019-01-20T10:38:30.000Z</time>
      </trkpt>
      <trkpt lat="45.15614" lon="5.94958">
        <ele>2277</ele>
        <time>2019-01-20T10:38:31.000Z</time>
      </trkpt>
      <trkpt lat="45.15615" lon="5.9496">
        <ele>2277</ele>
        <time>2019-01-20T10:38:32.000Z</time>
      </trkpt>
      <trkpt lat="45.15615" lon="5.9496">
        <ele>2277</ele>
        <time>2019-01-20T10:38:33.000Z</time>
      </trkpt>
      <trkpt lat="45.15617" lon="5.94962">
        <ele>2278</ele>
        <time>2019-01-20T10:38:34.000Z</time>
      </trkpt>
      <trkpt lat="45.15617" lon="5.94962">
        <ele>2278</ele>
        <time>2019-01-20T10:38:35.000Z</time>
      </trkpt>
      <trkpt lat="45.15619" lon="5.94965">
        <ele>2278</ele>
        <time>2019-01-20T10:38:36.000Z</time>
      </trkpt>
      <trkpt lat="45.15619" lon="5.94965">
        <ele>2279</ele>
        <time>2019-01-20T10:38:37.000Z</time>
      </trkpt>
      <trkpt lat="45.1562" lon="5.94967">
        <ele>2279</ele>
        <time>2019-01-20T10:38:38.000Z</time>
      </trkpt>
      <trkpt lat="45.1562" lon="5.94967">
        <ele>2279</ele>
        <time>2019-01-20T10:38:39.000Z</time>
      </trkpt>
      <trkpt lat="45.15622" lon="5.94969">
        <ele>2279</ele>
        <time>2019-01-20T10:38:40.000Z</time>
      </trkpt>
      <trkpt lat="45.15622" lon="5.94969">
        <ele>2279</ele>
        <time>2019-01-20T10:38:41.000Z</time>
      </trkpt>
      <trkpt lat="45.15623" lon="5.94971">
        <ele>2279</ele>
        <time>2019-01-20T10:38:42.000Z</time>
      </trkpt>
      <trkpt lat="45.15623" lon="5.94971">
        <ele>2280</ele>
        <time>2019-01-20T10:38:43.000Z</time>
      </trkpt>
      <trkpt lat="45.15624" lon="5.94973">
        <ele>2280</ele>
        <time>2019-01-20T10:38:44.000Z</time>
      </trkpt>
      <trkpt lat="45.15624" lon="5.94973">
        <ele>2280</ele>
        <time>2019-01-20T10:38:45.000Z</time>
      </trkpt>
      <trkpt lat="45.15624" lon="5.94973">
        <ele>2280</ele>
        <time>2019-01-20T10:38:46.000Z</time>
      </trkpt>
      <trkpt lat="45.15626" lon="5.94975">
        <ele>2281</ele>
        <time>2019-01-20T10:38:47.000Z</time>
      </trkpt>
      <trkpt lat="45.15626" lon="5.94975">
        <ele>2281</ele>
        <time>2019-01-20T10:38:48.000Z</time>
      </trkpt>
      <trkpt lat="45.15626" lon="5.94975">
        <ele>2282</ele>
        <time>2019-01-20T10:38:49.000Z</time>
      </trkpt>
      <trkpt lat="45.15624" lon="5.94976">
        <ele>2282</ele>
        <time>2019-01-20T10:38:50.000Z</time>
      </trkpt>
      <trkpt lat="45.15624" lon="5.94976">
        <ele>2282</ele>
        <time>2019-01-20T10:38:51.000Z</time>
      </trkpt>
      <trkpt lat="45.15622" lon="5.94977">
        <ele>2282</ele>
        <time>2019-01-20T10:38:52.000Z</time>
      </trkpt>
      <trkpt lat="45.15622" lon="5.94977">
        <ele>2282</ele>
        <time>2019-01-20T10:38:53.000Z</time>
      </trkpt>
      <trkpt lat="45.1562" lon="5.94977">
        <ele>2282</ele>
        <time>2019-01-20T10:38:54.000Z</time>
      </trkpt>
      <trkpt lat="45.1562" lon="5.94977">
        <ele>2282</ele>
        <time>2019-01-20T10:38:55.000Z</time>
      </trkpt>
      <trkpt lat="45.15618" lon="5.94978">
        <ele>2282</ele>
        <time>2019-01-20T10:38:56.000Z</time>
      </trkpt>
      <trkpt lat="45.15618" lon="5.94978">
        <ele>2283</ele>
        <time>2019-01-20T10:38:57.000Z</time>
      </trkpt>
      <trkpt lat="45.15615" lon="5.94979">
        <ele>2283</ele>
        <time>2019-01-20T10:38:58.000Z</time>
      </trkpt>
      <trkpt lat="45.15615" lon="5.94979">
        <ele>2283</ele>
        <time>2019-01-20T10:38:59.000Z</time>
      </trkpt>
      <trkpt lat="45.15613" lon="5.94979">
        <ele>2283</ele>
        <time>2019-01-20T10:39:00.000Z</time>
      </trkpt>
      <trkpt lat="45.15613" lon="5.94979">
        <ele>2283</ele>
        <time>2019-01-20T10:39:01.000Z</time>
      </trkpt>
      <trkpt lat="45.15611" lon="5.94978">
        <ele>2283</ele>
        <time>2019-01-20T10:39:02.000Z</time>
      </trkpt>
      <trkpt lat="45.15609" lon="5.94978">
        <ele>2284</ele>
        <time>2019-01-20T10:39:04.000Z</time>
      </trkpt>
      <trkpt lat="45.15609" lon="5.94978">
        <ele>2284</ele>
        <time>2019-01-20T10:39:05.000Z</time>
      </trkpt>
      <trkpt lat="45.15609" lon="5.94978">
        <ele>2284</ele>
        <time>2019-01-20T10:39:06.000Z</time>
      </trkpt>
      <trkpt lat="45.15606" lon="5.94977">
        <ele>2285</ele>
        <time>2019-01-20T10:39:07.000Z</time>
      </trkpt>
      <trkpt lat="45.15606" lon="5.94977">
        <ele>2285</ele>
        <time>2019-01-20T10:39:08.000Z</time>
      </trkpt>
      <trkpt lat="45.15606" lon="5.94977">
        <ele>2285</ele>
        <time>2019-01-20T10:39:09.000Z</time>
      </trkpt>
      <trkpt lat="45.15603" lon="5.94978">
        <ele>2286</ele>
        <time>2019-01-20T10:39:10.000Z</time>
      </trkpt>
      <trkpt lat="45.15603" lon="5.94978">
        <ele>2286</ele>
        <time>2019-01-20T10:39:11.000Z</time>
      </trkpt>
      <trkpt lat="45.15603" lon="5.94978">
        <ele>2286</ele>
        <time>2019-01-20T10:39:12.000Z</time>
      </trkpt>
      <trkpt lat="45.15601" lon="5.94977">
        <ele>2287</ele>
        <time>2019-01-20T10:39:13.000Z</time>
      </trkpt>
      <trkpt lat="45.15601" lon="5.94977">
        <ele>2287</ele>
        <time>2019-01-20T10:39:14.000Z</time>
      </trkpt>
      <trkpt lat="45.15601" lon="5.94977">
        <ele>2287</ele>
        <time>2019-01-20T10:39:15.000Z</time>
      </trkpt>
      <trkpt lat="45.15599" lon="5.94978">
        <ele>2287</ele>
        <time>2019-01-20T10:39:16.000Z</time>
      </trkpt>
      <trkpt lat="45.15599" lon="5.94978">
        <ele>2287</ele>
        <time>2019-01-20T10:39:17.000Z</time>
      </trkpt>
      <trkpt lat="45.15599" lon="5.94978">
        <ele>2288</ele>
        <time>2019-01-20T10:39:18.000Z</time>
      </trkpt>
      <trkpt lat="45.15596" lon="5.94977">
        <ele>2288</ele>
        <time>2019-01-20T10:39:19.000Z</time>
      </trkpt>
      <trkpt lat="45.15596" lon="5.94977">
        <ele>2288</ele>
        <time>2019-01-20T10:39:20.000Z</time>
      </trkpt>
      <trkpt lat="45.15596" lon="5.94977">
        <ele>2288</ele>
        <time>2019-01-20T10:39:21.000Z</time>
      </trkpt>
      <trkpt lat="45.15594" lon="5.94977">
        <ele>2288</ele>
        <time>2019-01-20T10:39:22.000Z</time>
      </trkpt>
      <trkpt lat="45.15594" lon="5.94977">
        <ele>2288</ele>
        <time>2019-01-20T10:39:23.000Z</time>
      </trkpt>
      <trkpt lat="45.15594" lon="5.94977">
        <ele>2288</ele>
        <time>2019-01-20T10:39:24.000Z</time>
      </trkpt>
      <trkpt lat="45.15591" lon="5.94977">
        <ele>2289</ele>
        <time>2019-01-20T10:39:25.000Z</time>
      </trkpt>
      <trkpt lat="45.15591" lon="5.94977">
        <ele>2289</ele>
        <time>2019-01-20T10:39:26.000Z</time>
      </trkpt>
      <trkpt lat="45.15589" lon="5.94977">
        <ele>2290</ele>
        <time>2019-01-20T10:39:27.000Z</time>
      </trkpt>
      <trkpt lat="45.15589" lon="5.94977">
        <ele>2290</ele>
        <time>2019-01-20T10:39:28.000Z</time>
      </trkpt>
      <trkpt lat="45.15589" lon="5.94977">
        <ele>2290</ele>
        <time>2019-01-20T10:39:29.000Z</time>
      </trkpt>
      <trkpt lat="45.15587" lon="5.94977">
        <ele>2290</ele>
        <time>2019-01-20T10:39:30.000Z</time>
      </trkpt>
      <trkpt lat="45.15587" lon="5.94977">
        <ele>2290</ele>
        <time>2019-01-20T10:39:31.000Z</time>
      </trkpt>
      <trkpt lat="45.15585" lon="5.94977">
        <ele>2290</ele>
        <time>2019-01-20T10:39:32.000Z</time>
      </trkpt>
      <trkpt lat="45.15585" lon="5.94977">
        <ele>2291</ele>
        <time>2019-01-20T10:39:33.000Z</time>
      </trkpt>
      <trkpt lat="45.15585" lon="5.94977">
        <ele>2291</ele>
        <time>2019-01-20T10:39:34.000Z</time>
      </trkpt>
      <trkpt lat="45.15582" lon="5.94977">
        <ele>2291</ele>
        <time>2019-01-20T10:39:35.000Z</time>
      </trkpt>
      <trkpt lat="45.15582" lon="5.94977">
        <ele>2291</ele>
        <time>2019-01-20T10:39:36.000Z</time>
      </trkpt>
      <trkpt lat="45.1558" lon="5.94977">
        <ele>2292</ele>
        <time>2019-01-20T10:39:37.000Z</time>
      </trkpt>
      <trkpt lat="45.1558" lon="5.94977">
        <ele>2292</ele>
        <time>2019-01-20T10:39:39.000Z</time>
      </trkpt>
      <trkpt lat="45.15577" lon="5.94977">
        <ele>2292</ele>
        <time>2019-01-20T10:39:40.000Z</time>
      </trkpt>
      <trkpt lat="45.15575" lon="5.94977">
        <ele>2292</ele>
        <time>2019-01-20T10:39:42.000Z</time>
      </trkpt>
      <trkpt lat="45.15575" lon="5.94977">
        <ele>2292</ele>
        <time>2019-01-20T10:39:43.000Z</time>
      </trkpt>
      <trkpt lat="45.15573" lon="5.94977">
        <ele>2292</ele>
        <time>2019-01-20T10:39:44.000Z</time>
      </trkpt>
      <trkpt lat="45.15573" lon="5.94977">
        <ele>2292</ele>
        <time>2019-01-20T10:39:45.000Z</time>
      </trkpt>
      <trkpt lat="45.15571" lon="5.94977">
        <ele>2293</ele>
        <time>2019-01-20T10:39:46.000Z</time>
      </trkpt>
      <trkpt lat="45.15571" lon="5.94977">
        <ele>2294</ele>
        <time>2019-01-20T10:39:47.000Z</time>
      </trkpt>
      <trkpt lat="45.15571" lon="5.94977">
        <ele>2294</ele>
        <time>2019-01-20T10:39:48.000Z</time>
      </trkpt>
      <trkpt lat="45.15569" lon="5.94977">
        <ele>2294</ele>
        <time>2019-01-20T10:39:49.000Z</time>
      </trkpt>
      <trkpt lat="45.15569" lon="5.94977">
        <ele>2294</ele>
        <time>2019-01-20T10:39:50.000Z</time>
      </trkpt>
      <trkpt lat="45.15567" lon="5.94977">
        <ele>2294</ele>
        <time>2019-01-20T10:39:51.000Z</time>
      </trkpt>
      <trkpt lat="45.15567" lon="5.94977">
        <ele>2294</ele>
        <time>2019-01-20T10:39:52.000Z</time>
      </trkpt>
      <trkpt lat="45.15564" lon="5.94977">
        <ele>2295</ele>
        <time>2019-01-20T10:39:53.000Z</time>
      </trkpt>
      <trkpt lat="45.15564" lon="5.94977">
        <ele>2295</ele>
        <time>2019-01-20T10:39:54.000Z</time>
      </trkpt>
      <trkpt lat="45.15562" lon="5.94977">
        <ele>2295</ele>
        <time>2019-01-20T10:39:55.000Z</time>
      </trkpt>
      <trkpt lat="45.15562" lon="5.94977">
        <ele>2295</ele>
        <time>2019-01-20T10:39:56.000Z</time>
      </trkpt>
      <trkpt lat="45.1556" lon="5.94977">
        <ele>2295</ele>
        <time>2019-01-20T10:39:57.000Z</time>
      </trkpt>
      <trkpt lat="45.1556" lon="5.94977">
        <ele>2296</ele>
        <time>2019-01-20T10:39:58.000Z</time>
      </trkpt>
      <trkpt lat="45.1556" lon="5.94977">
        <ele>2296</ele>
        <time>2019-01-20T10:39:59.000Z</time>
      </trkpt>
      <trkpt lat="45.15557" lon="5.94977">
        <ele>2296</ele>
        <time>2019-01-20T10:40:00.000Z</time>
      </trkpt>
      <trkpt lat="45.15557" lon="5.94977">
        <ele>2296.4</ele>
        <time>2019-01-20T10:40:01.000Z</time>
      </trkpt>
      <trkpt lat="45.15557" lon="5.94977">
        <ele>2297</ele>
        <time>2019-01-20T10:40:02.000Z</time>
      </trkpt>
      <trkpt lat="45.15557" lon="5.94977">
        <ele>2297</ele>
        <time>2019-01-20T10:40:03.000Z</time>
      </trkpt>
      <trkpt lat="45.15557" lon="5.94977">
        <ele>2297</ele>
        <time>2019-01-20T10:40:04.000Z</time>
      </trkpt>
      <trkpt lat="45.15557" lon="5.94977">
        <ele>2297</ele>
        <time>2019-01-20T10:40:05.000Z</time>
      </trkpt>
      <trkpt lat="45.15559" lon="5.94979">
        <ele>2297</ele>
        <time>2019-01-20T10:40:06.000Z</time>
      </trkpt>
      <trkpt lat="45.15559" lon="5.94979">
        <ele>2297</ele>
        <time>2019-01-20T10:40:07.000Z</time>
      </trkpt>
      <trkpt lat="45.1556" lon="5.94981">
        <ele>2297</ele>
        <time>2019-01-20T10:40:08.000Z</time>
      </trkpt>
      <trkpt lat="45.1556" lon="5.94981">
        <ele>2297</ele>
        <time>2019-01-20T10:40:09.000Z</time>
      </trkpt>
      <trkpt lat="45.1556" lon="5.94981">
        <ele>2298</ele>
        <time>2019-01-20T10:40:10.000Z</time>
      </trkpt>
      <trkpt lat="45.15562" lon="5.94984">
        <ele>2298</ele>
        <time>2019-01-20T10:40:11.000Z</time>
      </trkpt>
      <trkpt lat="45.15562" lon="5.94984">
        <ele>2298</ele>
        <time>2019-01-20T10:40:12.000Z</time>
      </trkpt>
      <trkpt lat="45.15562" lon="5.94984">
        <ele>2299</ele>
        <time>2019-01-20T10:40:13.000Z</time>
      </trkpt>
      <trkpt lat="45.15563" lon="5.94986">
        <ele>2299</ele>
        <time>2019-01-20T10:40:14.000Z</time>
      </trkpt>
      <trkpt lat="45.15563" lon="5.94986">
        <ele>2299</ele>
        <time>2019-01-20T10:40:15.000Z</time>
      </trkpt>
      <trkpt lat="45.15563" lon="5.94986">
        <ele>2299</ele>
        <time>2019-01-20T10:40:16.000Z</time>
      </trkpt>
      <trkpt lat="45.15566" lon="5.94988">
        <ele>2299</ele>
        <time>2019-01-20T10:40:17.000Z</time>
      </trkpt>
      <trkpt lat="45.15566" lon="5.94988">
        <ele>2299</ele>
        <time>2019-01-20T10:40:18.000Z</time>
      </trkpt>
      <trkpt lat="45.15568" lon="5.9499">
        <ele>2299.6</ele>
        <time>2019-01-20T10:40:20.000Z</time>
      </trkpt>
      <trkpt lat="45.15568" lon="5.9499">
        <ele>2300</ele>
        <time>2019-01-20T10:40:21.000Z</time>
      </trkpt>
      <trkpt lat="45.15568" lon="5.9499">
        <ele>2300</ele>
        <time>2019-01-20T10:40:22.000Z</time>
      </trkpt>
      <trkpt lat="45.15569" lon="5.94992">
        <ele>2300</ele>
        <time>2019-01-20T10:40:23.000Z</time>
      </trkpt>
      <trkpt lat="45.15569" lon="5.94992">
        <ele>2301</ele>
        <time>2019-01-20T10:40:24.000Z</time>
      </trkpt>
      <trkpt lat="45.15571" lon="5.94994">
        <ele>2301</ele>
        <time>2019-01-20T10:40:25.000Z</time>
      </trkpt>
      <trkpt lat="45.15571" lon="5.94994">
        <ele>2301</ele>
        <time>2019-01-20T10:40:26.000Z</time>
      </trkpt>
      <trkpt lat="45.15573" lon="5.94995">
        <ele>2301</ele>
        <time>2019-01-20T10:40:27.000Z</time>
      </trkpt>
      <trkpt lat="45.15573" lon="5.94995">
        <ele>2302</ele>
        <time>2019-01-20T10:40:28.000Z</time>
      </trkpt>
      <trkpt lat="45.15573" lon="5.94995">
        <ele>2302</ele>
        <time>2019-01-20T10:40:29.000Z</time>
      </trkpt>
      <trkpt lat="45.15575" lon="5.94996">
        <ele>2302</ele>
        <time>2019-01-20T10:40:30.000Z</time>
      </trkpt>
      <trkpt lat="45.15575" lon="5.94996">
        <ele>2302</ele>
        <time>2019-01-20T10:40:31.000Z</time>
      </trkpt>
      <trkpt lat="45.15575" lon="5.94996">
        <ele>2302</ele>
        <time>2019-01-20T10:40:32.000Z</time>
      </trkpt>
      <trkpt lat="45.15577" lon="5.94997">
        <ele>2302</ele>
        <time>2019-01-20T10:40:33.000Z</time>
      </trkpt>
      <trkpt lat="45.15577" lon="5.94997">
        <ele>2302</ele>
        <time>2019-01-20T10:40:34.000Z</time>
      </trkpt>
      <trkpt lat="45.15577" lon="5.94997">
        <ele>2302</ele>
        <time>2019-01-20T10:40:35.000Z</time>
      </trkpt>
      <trkpt lat="45.15579" lon="5.94999">
        <ele>2302</ele>
        <time>2019-01-20T10:40:36.000Z</time>
      </trkpt>
      <trkpt lat="45.15579" lon="5.94999">
        <ele>2303</ele>
        <time>2019-01-20T10:40:37.000Z</time>
      </trkpt>
      <trkpt lat="45.15579" lon="5.94999">
        <ele>2303</ele>
        <time>2019-01-20T10:40:39.000Z</time>
      </trkpt>
      <trkpt lat="45.15581" lon="5.95001">
        <ele>2303</ele>
        <time>2019-01-20T10:40:40.000Z</time>
      </trkpt>
      <trkpt lat="45.15581" lon="5.95001">
        <ele>2304</ele>
        <time>2019-01-20T10:40:41.000Z</time>
      </trkpt>
      <trkpt lat="45.15582" lon="5.95003">
        <ele>2305</ele>
        <time>2019-01-20T10:40:42.000Z</time>
      </trkpt>
      <trkpt lat="45.15582" lon="5.95003">
        <ele>2305</ele>
        <time>2019-01-20T10:40:43.000Z</time>
      </trkpt>
      <trkpt lat="45.15582" lon="5.95003">
        <ele>2305</ele>
        <time>2019-01-20T10:40:44.000Z</time>
      </trkpt>
      <trkpt lat="45.15582" lon="5.95003">
        <ele>2305</ele>
        <time>2019-01-20T10:40:45.000Z</time>
      </trkpt>
      <trkpt lat="45.15582" lon="5.95003">
        <ele>2305</ele>
        <time>2019-01-20T10:40:46.000Z</time>
      </trkpt>
      <trkpt lat="45.15582" lon="5.95003">
        <ele>2305</ele>
        <time>2019-01-20T10:40:47.000Z</time>
      </trkpt>
      <trkpt lat="45.15582" lon="5.95003">
        <ele>2305</ele>
        <time>2019-01-20T10:40:48.000Z</time>
      </trkpt>
      <trkpt lat="45.15582" lon="5.95003">
        <ele>2305</ele>
        <time>2019-01-20T10:40:49.000Z</time>
      </trkpt>
      <trkpt lat="45.15582" lon="5.95003">
        <ele>2305</ele>
        <time>2019-01-20T10:40:50.000Z</time>
      </trkpt>
      <trkpt lat="45.1558" lon="5.95002">
        <ele>2305</ele>
        <time>2019-01-20T10:40:51.000Z</time>
      </trkpt>
      <trkpt lat="45.1558" lon="5.95002">
        <ele>2305</ele>
        <time>2019-01-20T10:40:52.000Z</time>
      </trkpt>
      <trkpt lat="45.15578" lon="5.95002">
        <ele>2305</ele>
        <time>2019-01-20T10:40:53.000Z</time>
      </trkpt>
      <trkpt lat="45.15578" lon="5.95002">
        <ele>2305</ele>
        <time>2019-01-20T10:40:54.000Z</time>
      </trkpt>
      <trkpt lat="45.15576" lon="5.95002">
        <ele>2306</ele>
        <time>2019-01-20T10:40:55.000Z</time>
      </trkpt>
      <trkpt lat="45.15576" lon="5.95002">
        <ele>2306</ele>
        <time>2019-01-20T10:40:56.000Z</time>
      </trkpt>
      <trkpt lat="45.15574" lon="5.95002">
        <ele>2306</ele>
        <time>2019-01-20T10:40:57.000Z</time>
      </trkpt>
      <trkpt lat="45.15574" lon="5.95002">
        <ele>2307</ele>
        <time>2019-01-20T10:40:58.000Z</time>
      </trkpt>
      <trkpt lat="45.15574" lon="5.95002">
        <ele>2307</ele>
        <time>2019-01-20T10:40:59.000Z</time>
      </trkpt>
      <trkpt lat="45.15572" lon="5.95001">
        <ele>2307</ele>
        <time>2019-01-20T10:41:00.000Z</time>
      </trkpt>
      <trkpt lat="45.15572" lon="5.95001">
        <ele>2307</ele>
        <time>2019-01-20T10:41:01.000Z</time>
      </trkpt>
      <trkpt lat="45.1557" lon="5.95002">
        <ele>2307</ele>
        <time>2019-01-20T10:41:02.000Z</time>
      </trkpt>
      <trkpt lat="45.1557" lon="5.95002">
        <ele>2307</ele>
        <time>2019-01-20T10:41:03.000Z</time>
      </trkpt>
      <trkpt lat="45.15568" lon="5.95002">
        <ele>2308</ele>
        <time>2019-01-20T10:41:04.000Z</time>
      </trkpt>
      <trkpt lat="45.15568" lon="5.95002">
        <ele>2308</ele>
        <time>2019-01-20T10:41:05.000Z</time>
      </trkpt>
      <trkpt lat="45.15566" lon="5.95003">
        <ele>2308</ele>
        <time>2019-01-20T10:41:06.000Z</time>
      </trkpt>
      <trkpt lat="45.15566" lon="5.95003">
        <ele>2309</ele>
        <time>2019-01-20T10:41:07.000Z</time>
      </trkpt>
      <trkpt lat="45.15564" lon="5.95003">
        <ele>2309</ele>
        <time>2019-01-20T10:41:08.000Z</time>
      </trkpt>
      <trkpt lat="45.15564" lon="5.95003">
        <ele>2309</ele>
        <time>2019-01-20T10:41:09.000Z</time>
      </trkpt>
      <trkpt lat="45.15564" lon="5.95003">
        <ele>2309</ele>
        <time>2019-01-20T10:41:10.000Z</time>
      </trkpt>
      <trkpt lat="45.15564" lon="5.95003">
        <ele>2309</ele>
        <time>2019-01-20T10:41:11.000Z</time>
      </trkpt>
      <trkpt lat="45.15564" lon="5.95003">
        <ele>2309</ele>
        <time>2019-01-20T10:41:12.000Z</time>
      </trkpt>
      <trkpt lat="45.15564" lon="5.95003">
        <ele>2309</ele>
        <time>2019-01-20T10:41:13.000Z</time>
      </trkpt>
      <trkpt lat="45.15564" lon="5.95003">
        <ele>2309</ele>
        <time>2019-01-20T10:41:14.000Z</time>
      </trkpt>
      <trkpt lat="45.15564" lon="5.95003">
        <ele>2309</ele>
        <time>2019-01-20T10:41:15.000Z</time>
      </trkpt>
      <trkpt lat="45.15564" lon="5.95003">
        <ele>2309</ele>
        <time>2019-01-20T10:41:17.000Z</time>
      </trkpt>
      <trkpt lat="45.15564" lon="5.95003">
        <ele>2309</ele>
        <time>2019-01-20T10:41:18.000Z</time>
      </trkpt>
      <trkpt lat="45.15564" lon="5.95003">
        <ele>2309</ele>
        <time>2019-01-20T10:41:19.000Z</time>
      </trkpt>
      <trkpt lat="45.15564" lon="5.95003">
        <ele>2309</ele>
        <time>2019-01-20T10:41:20.000Z</time>
      </trkpt>
      <trkpt lat="45.15564" lon="5.95003">
        <ele>2309</ele>
        <time>2019-01-20T10:41:21.000Z</time>
      </trkpt>
      <trkpt lat="45.15564" lon="5.95003">
        <ele>2309</ele>
        <time>2019-01-20T10:41:22.000Z</time>
      </trkpt>
      <trkpt lat="45.15564" lon="5.95003">
        <ele>2309</ele>
        <time>2019-01-20T10:41:23.000Z</time>
      </trkpt>
      <trkpt lat="45.15566" lon="5.95003">
        <ele>2310</ele>
        <time>2019-01-20T10:41:24.000Z</time>
      </trkpt>
      <trkpt lat="45.15566" lon="5.95003">
        <ele>2310</ele>
        <time>2019-01-20T10:41:25.000Z</time>
      </trkpt>
      <trkpt lat="45.15568" lon="5.95005">
        <ele>2310</ele>
        <time>2019-01-20T10:41:26.000Z</time>
      </trkpt>
      <trkpt lat="45.15568" lon="5.95005">
        <ele>2310</ele>
        <time>2019-01-20T10:41:27.000Z</time>
      </trkpt>
      <trkpt lat="45.15569" lon="5.95007">
        <ele>2310</ele>
        <time>2019-01-20T10:41:28.000Z</time>
      </trkpt>
      <trkpt lat="45.15569" lon="5.95007">
        <ele>2310</ele>
        <time>2019-01-20T10:41:29.000Z</time>
      </trkpt>
      <trkpt lat="45.15571" lon="5.95009">
        <ele>2311</ele>
        <time>2019-01-20T10:41:30.000Z</time>
      </trkpt>
      <trkpt lat="45.15571" lon="5.95009">
        <ele>2311</ele>
        <time>2019-01-20T10:41:31.000Z</time>
      </trkpt>
      <trkpt lat="45.15572" lon="5.95011">
        <ele>2311</ele>
        <time>2019-01-20T10:41:32.000Z</time>
      </trkpt>
      <trkpt lat="45.15572" lon="5.95011">
        <ele>2312</ele>
        <time>2019-01-20T10:41:33.000Z</time>
      </trkpt>
      <trkpt lat="45.15572" lon="5.95011">
        <ele>2312</ele>
        <time>2019-01-20T10:41:34.000Z</time>
      </trkpt>
      <trkpt lat="45.15572" lon="5.95011">
        <ele>2312</ele>
        <time>2019-01-20T10:41:36.000Z</time>
      </trkpt>
      <trkpt lat="45.15572" lon="5.95011">
        <ele>2312</ele>
        <time>2019-01-20T10:41:37.000Z</time>
      </trkpt>
      <trkpt lat="45.1557" lon="5.95012">
        <ele>2312</ele>
        <time>2019-01-20T10:41:38.000Z</time>
      </trkpt>
      <trkpt lat="45.1557" lon="5.95012">
        <ele>2312</ele>
        <time>2019-01-20T10:41:39.000Z</time>
      </trkpt>
      <trkpt lat="45.1557" lon="5.95012">
        <ele>2313</ele>
        <time>2019-01-20T10:41:40.000Z</time>
      </trkpt>
      <trkpt lat="45.15568" lon="5.95012">
        <ele>2313</ele>
        <time>2019-01-20T10:41:41.000Z</time>
      </trkpt>
      <trkpt lat="45.15568" lon="5.95012">
        <ele>2313</ele>
        <time>2019-01-20T10:41:42.000Z</time>
      </trkpt>
      <trkpt lat="45.15568" lon="5.95012">
        <ele>2313</ele>
        <time>2019-01-20T10:41:43.000Z</time>
      </trkpt>
      <trkpt lat="45.15566" lon="5.95011">
        <ele>2313</ele>
        <time>2019-01-20T10:41:44.000Z</time>
      </trkpt>
      <trkpt lat="45.15566" lon="5.95011">
        <ele>2314</ele>
        <time>2019-01-20T10:41:45.000Z</time>
      </trkpt>
      <trkpt lat="45.15566" lon="5.95011">
        <ele>2314</ele>
        <time>2019-01-20T10:41:46.000Z</time>
      </trkpt>
      <trkpt lat="45.15566" lon="5.95011">
        <ele>2313</ele>
        <time>2019-01-20T10:41:47.000Z</time>
      </trkpt>
      <trkpt lat="45.15566" lon="5.95011">
        <ele>2313</ele>
        <time>2019-01-20T10:41:48.000Z</time>
      </trkpt>
      <trkpt lat="45.15564" lon="5.95012">
        <ele>2313</ele>
        <time>2019-01-20T10:41:49.000Z</time>
      </trkpt>
      <trkpt lat="45.15564" lon="5.95012">
        <ele>2313</ele>
        <time>2019-01-20T10:41:50.000Z</time>
      </trkpt>
      <trkpt lat="45.15564" lon="5.95012">
        <ele>2313</ele>
        <time>2019-01-20T10:41:51.000Z</time>
      </trkpt>
      <trkpt lat="45.15564" lon="5.95012">
        <ele>2313</ele>
        <time>2019-01-20T10:41:52.000Z</time>
      </trkpt>
      <trkpt lat="45.15564" lon="5.95012">
        <ele>2313</ele>
        <time>2019-01-20T10:41:53.000Z</time>
      </trkpt>
      <trkpt lat="45.15564" lon="5.95012">
        <ele>2313</ele>
        <time>2019-01-20T10:41:55.000Z</time>
      </trkpt>
      <trkpt lat="45.15564" lon="5.95012">
        <ele>2313</ele>
        <time>2019-01-20T10:41:56.000Z</time>
      </trkpt>
      <trkpt lat="45.15564" lon="5.95012">
        <ele>2313</ele>
        <time>2019-01-20T10:41:57.000Z</time>
      </trkpt>
      <trkpt lat="45.15564" lon="5.95012">
        <ele>2313</ele>
        <time>2019-01-20T10:41:58.000Z</time>
      </trkpt>
      <trkpt lat="45.15564" lon="5.95012">
        <ele>2313</ele>
        <time>2019-01-20T10:41:59.000Z</time>
      </trkpt>
      <trkpt lat="45.15564" lon="5.95012">
        <ele>2313</ele>
        <time>2019-01-20T10:42:00.000Z</time>
      </trkpt>
      <trkpt lat="45.15564" lon="5.95012">
        <ele>2313</ele>
        <time>2019-01-20T10:42:01.000Z</time>
      </trkpt>
      <trkpt lat="45.15564" lon="5.95012">
        <ele>2313</ele>
        <time>2019-01-20T10:42:02.000Z</time>
      </trkpt>
      <trkpt lat="45.15564" lon="5.95012">
        <ele>2313</ele>
        <time>2019-01-20T10:42:03.000Z</time>
      </trkpt>
      <trkpt lat="45.15564" lon="5.95012">
        <ele>2313</ele>
        <time>2019-01-20T10:42:04.000Z</time>
      </trkpt>
      <trkpt lat="45.15564" lon="5.95012">
        <ele>2313</ele>
        <time>2019-01-20T10:42:05.000Z</time>
      </trkpt>
      <trkpt lat="45.15564" lon="5.95012">
        <ele>2314</ele>
        <time>2019-01-20T10:42:06.000Z</time>
      </trkpt>
      <trkpt lat="45.15564" lon="5.95012">
        <ele>2314</ele>
        <time>2019-01-20T10:42:07.000Z</time>
      </trkpt>
      <trkpt lat="45.15566" lon="5.95014">
        <ele>2314</ele>
        <time>2019-01-20T10:42:08.000Z</time>
      </trkpt>
      <trkpt lat="45.15566" lon="5.95014">
        <ele>2314</ele>
        <time>2019-01-20T10:42:09.000Z</time>
      </trkpt>
      <trkpt lat="45.15566" lon="5.95014">
        <ele>2314</ele>
        <time>2019-01-20T10:42:10.000Z</time>
      </trkpt>
      <trkpt lat="45.15567" lon="5.95016">
        <ele>2314</ele>
        <time>2019-01-20T10:42:11.000Z</time>
      </trkpt>
      <trkpt lat="45.15567" lon="5.95016">
        <ele>2314</ele>
        <time>2019-01-20T10:42:12.000Z</time>
      </trkpt>
      <trkpt lat="45.15567" lon="5.95016">
        <ele>2314</ele>
        <time>2019-01-20T10:42:14.000Z</time>
      </trkpt>
      <trkpt lat="45.15569" lon="5.95018">
        <ele>2315</ele>
        <time>2019-01-20T10:42:15.000Z</time>
      </trkpt>
      <trkpt lat="45.15569" lon="5.95018">
        <ele>2315</ele>
        <time>2019-01-20T10:42:16.000Z</time>
      </trkpt>
      <trkpt lat="45.15569" lon="5.95018">
        <ele>2316</ele>
        <time>2019-01-20T10:42:17.000Z</time>
      </trkpt>
      <trkpt lat="45.15569" lon="5.95018">
        <ele>2316</ele>
        <time>2019-01-20T10:42:18.000Z</time>
      </trkpt>
      <trkpt lat="45.15569" lon="5.95018">
        <ele>2317</ele>
        <time>2019-01-20T10:42:19.000Z</time>
      </trkpt>
      <trkpt lat="45.15569" lon="5.95018">
        <ele>2317</ele>
        <time>2019-01-20T10:42:20.000Z</time>
      </trkpt>
      <trkpt lat="45.15569" lon="5.95018">
        <ele>2317</ele>
        <time>2019-01-20T10:42:21.000Z</time>
      </trkpt>
      <trkpt lat="45.15569" lon="5.95018">
        <ele>2317</ele>
        <time>2019-01-20T10:42:22.000Z</time>
      </trkpt>
      <trkpt lat="45.15569" lon="5.95018">
        <ele>2317</ele>
        <time>2019-01-20T10:42:23.000Z</time>
      </trkpt>
      <trkpt lat="45.15569" lon="5.95018">
        <ele>2317</ele>
        <time>2019-01-20T10:42:24.000Z</time>
      </trkpt>
      <trkpt lat="45.15569" lon="5.95018">
        <ele>2317</ele>
        <time>2019-01-20T10:42:25.000Z</time>
      </trkpt>
      <trkpt lat="45.15569" lon="5.95018">
        <ele>2317</ele>
        <time>2019-01-20T10:42:26.000Z</time>
      </trkpt>
      <trkpt lat="45.15569" lon="5.95018">
        <ele>2317</ele>
        <time>2019-01-20T10:42:27.000Z</time>
      </trkpt>
      <trkpt lat="45.15567" lon="5.95019">
        <ele>2317</ele>
        <time>2019-01-20T10:42:28.000Z</time>
      </trkpt>
      <trkpt lat="45.15567" lon="5.95019">
        <ele>2318</ele>
        <time>2019-01-20T10:42:29.000Z</time>
      </trkpt>
      <trkpt lat="45.15567" lon="5.95019">
        <ele>2318</ele>
        <time>2019-01-20T10:42:30.000Z</time>
      </trkpt>
      <trkpt lat="45.15567" lon="5.95019">
        <ele>2318</ele>
        <time>2019-01-20T10:42:31.000Z</time>
      </trkpt>
      <trkpt lat="45.15567" lon="5.95019">
        <ele>2318</ele>
        <time>2019-01-20T10:42:33.000Z</time>
      </trkpt>
      <trkpt lat="45.15567" lon="5.95019">
        <ele>2318</ele>
        <time>2019-01-20T10:42:34.000Z</time>
      </trkpt>
      <trkpt lat="45.15567" lon="5.95019">
        <ele>2318</ele>
        <time>2019-01-20T10:42:35.000Z</time>
      </trkpt>
      <trkpt lat="45.15567" lon="5.95019">
        <ele>2318</ele>
        <time>2019-01-20T10:42:36.000Z</time>
      </trkpt>
      <trkpt lat="45.15567" lon="5.95019">
        <ele>2318</ele>
        <time>2019-01-20T10:42:37.000Z</time>
      </trkpt>
      <trkpt lat="45.15569" lon="5.95021">
        <ele>2318</ele>
        <time>2019-01-20T10:42:38.000Z</time>
      </trkpt>
      <trkpt lat="45.15569" lon="5.95021">
        <ele>2318</ele>
        <time>2019-01-20T10:42:40.000Z</time>
      </trkpt>
      <trkpt lat="45.15569" lon="5.95021">
        <ele>2318</ele>
        <time>2019-01-20T10:42:41.000Z</time>
      </trkpt>
      <trkpt lat="45.1557" lon="5.95023">
        <ele>2318</ele>
        <time>2019-01-20T10:42:42.000Z</time>
      </trkpt>
      <trkpt lat="45.1557" lon="5.95023">
        <ele>2318</ele>
        <time>2019-01-20T10:42:43.000Z</time>
      </trkpt>
      <trkpt lat="45.1557" lon="5.95023">
        <ele>2319</ele>
        <time>2019-01-20T10:42:44.000Z</time>
      </trkpt>
      <trkpt lat="45.1557" lon="5.95023">
        <ele>2319</ele>
        <time>2019-01-20T10:42:45.000Z</time>
      </trkpt>
      <trkpt lat="45.1557" lon="5.95023">
        <ele>2319</ele>
        <time>2019-01-20T10:42:46.000Z</time>
      </trkpt>
      <trkpt lat="45.1557" lon="5.95023">
        <ele>2319</ele>
        <time>2019-01-20T10:42:47.000Z</time>
      </trkpt>
      <trkpt lat="45.1557" lon="5.95023">
        <ele>2320</ele>
        <time>2019-01-20T10:42:48.000Z</time>
      </trkpt>
      <trkpt lat="45.15568" lon="5.95024">
        <ele>2320</ele>
        <time>2019-01-20T10:42:49.000Z</time>
      </trkpt>
      <trkpt lat="45.15568" lon="5.95024">
        <ele>2320</ele>
        <time>2019-01-20T10:42:50.000Z</time>
      </trkpt>
      <trkpt lat="45.15566" lon="5.95025">
        <ele>2320.4</ele>
        <time>2019-01-20T10:42:52.000Z</time>
      </trkpt>
      <trkpt lat="45.15566" lon="5.95025">
        <ele>2321</ele>
        <time>2019-01-20T10:42:53.000Z</time>
      </trkpt>
      <trkpt lat="45.15566" lon="5.95025">
        <ele>2321</ele>
        <time>2019-01-20T10:42:54.000Z</time>
      </trkpt>
      <trkpt lat="45.15566" lon="5.95025">
        <ele>2321</ele>
        <time>2019-01-20T10:42:55.000Z</time>
      </trkpt>
      <trkpt lat="45.15566" lon="5.95025">
        <ele>2321</ele>
        <time>2019-01-20T10:42:56.000Z</time>
      </trkpt>
      <trkpt lat="45.15566" lon="5.95025">
        <ele>2321</ele>
        <time>2019-01-20T10:42:57.000Z</time>
      </trkpt>
      <trkpt lat="45.15566" lon="5.95025">
        <ele>2321</ele>
        <time>2019-01-20T10:42:58.000Z</time>
      </trkpt>
      <trkpt lat="45.15564" lon="5.95024">
        <ele>2321</ele>
        <time>2019-01-20T10:42:59.000Z</time>
      </trkpt>
      <trkpt lat="45.15564" lon="5.95024">
        <ele>2321</ele>
        <time>2019-01-20T10:43:00.000Z</time>
      </trkpt>
      <trkpt lat="45.15564" lon="5.95024">
        <ele>2320</ele>
        <time>2019-01-20T10:43:01.000Z</time>
      </trkpt>
      <trkpt lat="45.15564" lon="5.95024">
        <ele>2320</ele>
        <time>2019-01-20T10:43:02.000Z</time>
      </trkpt>
      <trkpt lat="45.15564" lon="5.95024">
        <ele>2320</ele>
        <time>2019-01-20T10:43:03.000Z</time>
      </trkpt>
      <trkpt lat="45.15564" lon="5.95024">
        <ele>2320</ele>
        <time>2019-01-20T10:43:04.000Z</time>
      </trkpt>
      <trkpt lat="45.15564" lon="5.95024">
        <ele>2321</ele>
        <time>2019-01-20T10:43:05.000Z</time>
      </trkpt>
      <trkpt lat="45.15564" lon="5.95024">
        <ele>2321</ele>
        <time>2019-01-20T10:43:06.000Z</time>
      </trkpt>
      <trkpt lat="45.15564" lon="5.95024">
        <ele>2321</ele>
        <time>2019-01-20T10:43:07.000Z</time>
      </trkpt>
      <trkpt lat="45.15564" lon="5.95024">
        <ele>2321</ele>
        <time>2019-01-20T10:43:08.000Z</time>
      </trkpt>
      <trkpt lat="45.15562" lon="5.95024">
        <ele>2321</ele>
        <time>2019-01-20T10:43:09.000Z</time>
      </trkpt>
      <trkpt lat="45.15562" lon="5.95024">
        <ele>2321</ele>
        <time>2019-01-20T10:43:11.000Z</time>
      </trkpt>
      <trkpt lat="45.1556" lon="5.95025">
        <ele>2321</ele>
        <time>2019-01-20T10:43:12.000Z</time>
      </trkpt>
      <trkpt lat="45.1556" lon="5.95025">
        <ele>2321</ele>
        <time>2019-01-20T10:43:13.000Z</time>
      </trkpt>
      <trkpt lat="45.1556" lon="5.95025">
        <ele>2321</ele>
        <time>2019-01-20T10:43:14.000Z</time>
      </trkpt>
      <trkpt lat="45.1556" lon="5.95025">
        <ele>2322</ele>
        <time>2019-01-20T10:43:15.000Z</time>
      </trkpt>
      <trkpt lat="45.1556" lon="5.95025">
        <ele>2322</ele>
        <time>2019-01-20T10:43:16.000Z</time>
      </trkpt>
      <trkpt lat="45.1556" lon="5.95025">
        <ele>2322</ele>
        <time>2019-01-20T10:43:17.000Z</time>
      </trkpt>
      <trkpt lat="45.15558" lon="5.95025">
        <ele>2322</ele>
        <time>2019-01-20T10:43:18.000Z</time>
      </trkpt>
      <trkpt lat="45.15558" lon="5.95025">
        <ele>2322</ele>
        <time>2019-01-20T10:43:19.000Z</time>
      </trkpt>
      <trkpt lat="45.15558" lon="5.95025">
        <ele>2322</ele>
        <time>2019-01-20T10:43:20.000Z</time>
      </trkpt>
      <trkpt lat="45.15558" lon="5.95025">
        <ele>2322</ele>
        <time>2019-01-20T10:43:21.000Z</time>
      </trkpt>
      <trkpt lat="45.15558" lon="5.95025">
        <ele>2323</ele>
        <time>2019-01-20T10:43:22.000Z</time>
      </trkpt>
      <trkpt lat="45.15557" lon="5.95026">
        <ele>2323</ele>
        <time>2019-01-20T10:43:23.000Z</time>
      </trkpt>
      <trkpt lat="45.15557" lon="5.95026">
        <ele>2323</ele>
        <time>2019-01-20T10:43:24.000Z</time>
      </trkpt>
      <trkpt lat="45.15557" lon="5.95026">
        <ele>2323</ele>
        <time>2019-01-20T10:43:25.000Z</time>
      </trkpt>
      <trkpt lat="45.15555" lon="5.95027">
        <ele>2323</ele>
        <time>2019-01-20T10:43:26.000Z</time>
      </trkpt>
      <trkpt lat="45.15555" lon="5.95027">
        <ele>2323</ele>
        <time>2019-01-20T10:43:27.000Z</time>
      </trkpt>
      <trkpt lat="45.15555" lon="5.95027">
        <ele>2323</ele>
        <time>2019-01-20T10:43:28.000Z</time>
      </trkpt>
      <trkpt lat="45.15555" lon="5.95027">
        <ele>2323.6</ele>
        <time>2019-01-20T10:43:30.000Z</time>
      </trkpt>
      <trkpt lat="45.15553" lon="5.95029">
        <ele>2324</ele>
        <time>2019-01-20T10:43:31.000Z</time>
      </trkpt>
      <trkpt lat="45.15553" lon="5.95029">
        <ele>2325</ele>
        <time>2019-01-20T10:43:32.000Z</time>
      </trkpt>
      <trkpt lat="45.15553" lon="5.95029">
        <ele>2325</ele>
        <time>2019-01-20T10:43:33.000Z</time>
      </trkpt>
      <trkpt lat="45.15554" lon="5.95032">
        <ele>2325</ele>
        <time>2019-01-20T10:43:34.000Z</time>
      </trkpt>
      <trkpt lat="45.15554" lon="5.95032">
        <ele>2325</ele>
        <time>2019-01-20T10:43:35.000Z</time>
      </trkpt>
      <trkpt lat="45.15555" lon="5.95034">
        <ele>2325</ele>
        <time>2019-01-20T10:43:36.000Z</time>
      </trkpt>
      <trkpt lat="45.15555" lon="5.95034">
        <ele>2325</ele>
        <time>2019-01-20T10:43:37.000Z</time>
      </trkpt>
      <trkpt lat="45.15555" lon="5.95034">
        <ele>2325</ele>
        <time>2019-01-20T10:43:38.000Z</time>
      </trkpt>
      <trkpt lat="45.15557" lon="5.95035">
        <ele>2325</ele>
        <time>2019-01-20T10:43:39.000Z</time>
      </trkpt>
      <trkpt lat="45.15557" lon="5.95035">
        <ele>2325</ele>
        <time>2019-01-20T10:43:40.000Z</time>
      </trkpt>
      <trkpt lat="45.15559" lon="5.95037">
        <ele>2325</ele>
        <time>2019-01-20T10:43:41.000Z</time>
      </trkpt>
      <trkpt lat="45.15559" lon="5.95037">
        <ele>2325</ele>
        <time>2019-01-20T10:43:42.000Z</time>
      </trkpt>
      <trkpt lat="45.15559" lon="5.95037">
        <ele>2325</ele>
        <time>2019-01-20T10:43:43.000Z</time>
      </trkpt>
      <trkpt lat="45.15561" lon="5.9504">
        <ele>2325</ele>
        <time>2019-01-20T10:43:44.000Z</time>
      </trkpt>
      <trkpt lat="45.15561" lon="5.9504">
        <ele>2325</ele>
        <time>2019-01-20T10:43:45.000Z</time>
      </trkpt>
      <trkpt lat="45.15563" lon="5.95042">
        <ele>2325</ele>
        <time>2019-01-20T10:43:46.000Z</time>
      </trkpt>
      <trkpt lat="45.15563" lon="5.95042">
        <ele>2326</ele>
        <time>2019-01-20T10:43:47.000Z</time>
      </trkpt>
      <trkpt lat="45.15565" lon="5.95046">
        <ele>2326.4</ele>
        <time>2019-01-20T10:43:49.000Z</time>
      </trkpt>
      <trkpt lat="45.15565" lon="5.95046">
        <ele>2327</ele>
        <time>2019-01-20T10:43:50.000Z</time>
      </trkpt>
      <trkpt lat="45.15565" lon="5.95046">
        <ele>2327</ele>
        <time>2019-01-20T10:43:51.000Z</time>
      </trkpt>
      <trkpt lat="45.15567" lon="5.9505">
        <ele>2327</ele>
        <time>2019-01-20T10:43:52.000Z</time>
      </trkpt>
      <trkpt lat="45.15567" lon="5.9505">
        <ele>2327</ele>
        <time>2019-01-20T10:43:53.000Z</time>
      </trkpt>
      <trkpt lat="45.15568" lon="5.95051">
        <ele>2327</ele>
        <time>2019-01-20T10:43:54.000Z</time>
      </trkpt>
      <trkpt lat="45.15568" lon="5.95051">
        <ele>2328</ele>
        <time>2019-01-20T10:43:55.000Z</time>
      </trkpt>
      <trkpt lat="45.1557" lon="5.95054">
        <ele>2328</ele>
        <time>2019-01-20T10:43:56.000Z</time>
      </trkpt>
      <trkpt lat="45.1557" lon="5.95054">
        <ele>2329</ele>
        <time>2019-01-20T10:43:57.000Z</time>
      </trkpt>
      <trkpt lat="45.15572" lon="5.95056">
        <ele>2329</ele>
        <time>2019-01-20T10:43:58.000Z</time>
      </trkpt>
      <trkpt lat="45.15572" lon="5.95056">
        <ele>2329</ele>
        <time>2019-01-20T10:43:59.000Z</time>
      </trkpt>
      <trkpt lat="45.15574" lon="5.95059">
        <ele>2329</ele>
        <time>2019-01-20T10:44:00.000Z</time>
      </trkpt>
      <trkpt lat="45.15574" lon="5.95059">
        <ele>2329</ele>
        <time>2019-01-20T10:44:01.000Z</time>
      </trkpt>
      <trkpt lat="45.15574" lon="5.95059">
        <ele>2329</ele>
        <time>2019-01-20T10:44:02.000Z</time>
      </trkpt>
      <trkpt lat="45.15575" lon="5.95062">
        <ele>2329</ele>
        <time>2019-01-20T10:44:03.000Z</time>
      </trkpt>
      <trkpt lat="45.15575" lon="5.95062">
        <ele>2329</ele>
        <time>2019-01-20T10:44:04.000Z</time>
      </trkpt>
      <trkpt lat="45.15576" lon="5.95066">
        <ele>2329</ele>
        <time>2019-01-20T10:44:05.000Z</time>
      </trkpt>
      <trkpt lat="45.15576" lon="5.95066">
        <ele>2329</ele>
        <time>2019-01-20T10:44:06.000Z</time>
      </trkpt>
      <trkpt lat="45.15578" lon="5.95067">
        <ele>2329</ele>
        <time>2019-01-20T10:44:07.000Z</time>
      </trkpt>
      <trkpt lat="45.15578" lon="5.95067">
        <ele>2329</ele>
        <time>2019-01-20T10:44:08.000Z</time>
      </trkpt>
      <trkpt lat="45.1558" lon="5.95069">
        <ele>2329</ele>
        <time>2019-01-20T10:44:09.000Z</time>
      </trkpt>
      <trkpt lat="45.1558" lon="5.95069">
        <ele>2330</ele>
        <time>2019-01-20T10:44:10.000Z</time>
      </trkpt>
      <trkpt lat="45.15582" lon="5.95072">
        <ele>2330</ele>
        <time>2019-01-20T10:44:11.000Z</time>
      </trkpt>
      <trkpt lat="45.15582" lon="5.95072">
        <ele>2330</ele>
        <time>2019-01-20T10:44:12.000Z</time>
      </trkpt>
      <trkpt lat="45.15583" lon="5.95075">
        <ele>2330</ele>
        <time>2019-01-20T10:44:13.000Z</time>
      </trkpt>
      <trkpt lat="45.15583" lon="5.95075">
        <ele>2331</ele>
        <time>2019-01-20T10:44:14.000Z</time>
      </trkpt>
      <trkpt lat="45.15584" lon="5.95077">
        <ele>2331</ele>
        <time>2019-01-20T10:44:15.000Z</time>
      </trkpt>
      <trkpt lat="45.15584" lon="5.95077">
        <ele>2331</ele>
        <time>2019-01-20T10:44:16.000Z</time>
      </trkpt>
      <trkpt lat="45.15586" lon="5.95079">
        <ele>2332</ele>
        <time>2019-01-20T10:44:17.000Z</time>
      </trkpt>
      <trkpt lat="45.15586" lon="5.95079">
        <ele>2332</ele>
        <time>2019-01-20T10:44:18.000Z</time>
      </trkpt>
      <trkpt lat="45.15588" lon="5.95081">
        <ele>2332</ele>
        <time>2019-01-20T10:44:19.000Z</time>
      </trkpt>
      <trkpt lat="45.15588" lon="5.95081">
        <ele>2332</ele>
        <time>2019-01-20T10:44:20.000Z</time>
      </trkpt>
      <trkpt lat="45.15589" lon="5.95083">
        <ele>2332</ele>
        <time>2019-01-20T10:44:21.000Z</time>
      </trkpt>
      <trkpt lat="45.15589" lon="5.95083">
        <ele>2332</ele>
        <time>2019-01-20T10:44:22.000Z</time>
      </trkpt>
      <trkpt lat="45.15591" lon="5.95084">
        <ele>2333</ele>
        <time>2019-01-20T10:44:23.000Z</time>
      </trkpt>
      <trkpt lat="45.15591" lon="5.95084">
        <ele>2334</ele>
        <time>2019-01-20T10:44:24.000Z</time>
      </trkpt>
      <trkpt lat="45.15591" lon="5.95084">
        <ele>2334</ele>
        <time>2019-01-20T10:44:25.000Z</time>
      </trkpt>
      <trkpt lat="45.15594" lon="5.95085">
        <ele>2334</ele>
        <time>2019-01-20T10:44:26.000Z</time>
      </trkpt>
      <trkpt lat="45.15594" lon="5.95085">
        <ele>2334</ele>
        <time>2019-01-20T10:44:27.000Z</time>
      </trkpt>
      <trkpt lat="45.15595" lon="5.95087">
        <ele>2334</ele>
        <time>2019-01-20T10:44:28.000Z</time>
      </trkpt>
      <trkpt lat="45.15595" lon="5.95087">
        <ele>2334</ele>
        <time>2019-01-20T10:44:29.000Z</time>
      </trkpt>
      <trkpt lat="45.15595" lon="5.95087">
        <ele>2335</ele>
        <time>2019-01-20T10:44:30.000Z</time>
      </trkpt>
      <trkpt lat="45.15598" lon="5.95088">
        <ele>2335</ele>
        <time>2019-01-20T10:44:31.000Z</time>
      </trkpt>
      <trkpt lat="45.15598" lon="5.95088">
        <ele>2335</ele>
        <time>2019-01-20T10:44:32.000Z</time>
      </trkpt>
      <trkpt lat="45.15599" lon="5.9509">
        <ele>2335</ele>
        <time>2019-01-20T10:44:33.000Z</time>
      </trkpt>
      <trkpt lat="45.15599" lon="5.9509">
        <ele>2336</ele>
        <time>2019-01-20T10:44:34.000Z</time>
      </trkpt>
      <trkpt lat="45.15601" lon="5.95092">
        <ele>2336</ele>
        <time>2019-01-20T10:44:35.000Z</time>
      </trkpt>
      <trkpt lat="45.15601" lon="5.95092">
        <ele>2337</ele>
        <time>2019-01-20T10:44:36.000Z</time>
      </trkpt>
      <trkpt lat="45.15602" lon="5.95093">
        <ele>2337</ele>
        <time>2019-01-20T10:44:37.000Z</time>
      </trkpt>
      <trkpt lat="45.15602" lon="5.95093">
        <ele>2337</ele>
        <time>2019-01-20T10:44:38.000Z</time>
      </trkpt>
      <trkpt lat="45.15604" lon="5.95094">
        <ele>2337</ele>
        <time>2019-01-20T10:44:39.000Z</time>
      </trkpt>
      <trkpt lat="45.15604" lon="5.95094">
        <ele>2337</ele>
        <time>2019-01-20T10:44:40.000Z</time>
      </trkpt>
      <trkpt lat="45.15604" lon="5.95094">
        <ele>2337</ele>
        <time>2019-01-20T10:44:41.000Z</time>
      </trkpt>
      <trkpt lat="45.15606" lon="5.95096">
        <ele>2337</ele>
        <time>2019-01-20T10:44:42.000Z</time>
      </trkpt>
      <trkpt lat="45.15606" lon="5.95096">
        <ele>2337</ele>
        <time>2019-01-20T10:44:43.000Z</time>
      </trkpt>
      <trkpt lat="45.15607" lon="5.95098">
        <ele>2337</ele>
        <time>2019-01-20T10:44:44.000Z</time>
      </trkpt>
      <trkpt lat="45.15607" lon="5.95101">
        <ele>2337.6</ele>
        <time>2019-01-20T10:44:46.000Z</time>
      </trkpt>
      <trkpt lat="45.15607" lon="5.95101">
        <ele>2338</ele>
        <time>2019-01-20T10:44:47.000Z</time>
      </trkpt>
      <trkpt lat="45.15607" lon="5.95101">
        <ele>2338</ele>
        <time>2019-01-20T10:44:48.000Z</time>
      </trkpt>
      <trkpt lat="45.15607" lon="5.95104">
        <ele>2339</ele>
        <time>2019-01-20T10:44:49.000Z</time>
      </trkpt>
      <trkpt lat="45.15607" lon="5.95104">
        <ele>2339</ele>
        <time>2019-01-20T10:44:51.000Z</time>
      </trkpt>
      <trkpt lat="45.15606" lon="5.95107">
        <ele>2339</ele>
        <time>2019-01-20T10:44:52.000Z</time>
      </trkpt>
      <trkpt lat="45.15606" lon="5.95107">
        <ele>2339</ele>
        <time>2019-01-20T10:44:53.000Z</time>
      </trkpt>
      <trkpt lat="45.15606" lon="5.9511">
        <ele>2340</ele>
        <time>2019-01-20T10:44:54.000Z</time>
      </trkpt>
      <trkpt lat="45.15606" lon="5.9511">
        <ele>2340</ele>
        <time>2019-01-20T10:44:55.000Z</time>
      </trkpt>
      <trkpt lat="45.15606" lon="5.9511">
        <ele>2341</ele>
        <time>2019-01-20T10:44:56.000Z</time>
      </trkpt>
      <trkpt lat="45.15605" lon="5.95113">
        <ele>2341</ele>
        <time>2019-01-20T10:44:57.000Z</time>
      </trkpt>
      <trkpt lat="45.15605" lon="5.95113">
        <ele>2341</ele>
        <time>2019-01-20T10:44:58.000Z</time>
      </trkpt>
      <trkpt lat="45.15605" lon="5.95113">
        <ele>2342</ele>
        <time>2019-01-20T10:44:59.000Z</time>
      </trkpt>
      <trkpt lat="45.15604" lon="5.95116">
        <ele>2342</ele>
        <time>2019-01-20T10:45:00.000Z</time>
      </trkpt>
      <trkpt lat="45.15604" lon="5.95116">
        <ele>2342</ele>
        <time>2019-01-20T10:45:01.000Z</time>
      </trkpt>
      <trkpt lat="45.15604" lon="5.95116">
        <ele>2342</ele>
        <time>2019-01-20T10:45:02.000Z</time>
      </trkpt>
      <trkpt lat="45.15603" lon="5.95119">
        <ele>2342</ele>
        <time>2019-01-20T10:45:03.000Z</time>
      </trkpt>
      <trkpt lat="45.15603" lon="5.95119">
        <ele>2343</ele>
        <time>2019-01-20T10:45:05.000Z</time>
      </trkpt>
      <trkpt lat="45.15602" lon="5.95122">
        <ele>2343</ele>
        <time>2019-01-20T10:45:06.000Z</time>
      </trkpt>
      <trkpt lat="45.15602" lon="5.95122">
        <ele>2344</ele>
        <time>2019-01-20T10:45:07.000Z</time>
      </trkpt>
      <trkpt lat="45.15601" lon="5.95124">
        <ele>2344</ele>
        <time>2019-01-20T10:45:08.000Z</time>
      </trkpt>
      <trkpt lat="45.15601" lon="5.95124">
        <ele>2344</ele>
        <time>2019-01-20T10:45:09.000Z</time>
      </trkpt>
      <trkpt lat="45.156" lon="5.95126">
        <ele>2345</ele>
        <time>2019-01-20T10:45:10.000Z</time>
      </trkpt>
      <trkpt lat="45.156" lon="5.95126">
        <ele>2345</ele>
        <time>2019-01-20T10:45:11.000Z</time>
      </trkpt>
      <trkpt lat="45.15598" lon="5.95128">
        <ele>2345</ele>
        <time>2019-01-20T10:45:12.000Z</time>
      </trkpt>
      <trkpt lat="45.15598" lon="5.95128">
        <ele>2345</ele>
        <time>2019-01-20T10:45:13.000Z</time>
      </trkpt>
      <trkpt lat="45.15598" lon="5.95128">
        <ele>2345</ele>
        <time>2019-01-20T10:45:14.000Z</time>
      </trkpt>
      <trkpt lat="45.15597" lon="5.9513">
        <ele>2345</ele>
        <time>2019-01-20T10:45:15.000Z</time>
      </trkpt>
      <trkpt lat="45.15597" lon="5.9513">
        <ele>2345</ele>
        <time>2019-01-20T10:45:16.000Z</time>
      </trkpt>
      <trkpt lat="45.15595" lon="5.95133">
        <ele>2345</ele>
        <time>2019-01-20T10:45:17.000Z</time>
      </trkpt>
      <trkpt lat="45.15595" lon="5.95133">
        <ele>2346</ele>
        <time>2019-01-20T10:45:18.000Z</time>
      </trkpt>
      <trkpt lat="45.15595" lon="5.95133">
        <ele>2346</ele>
        <time>2019-01-20T10:45:19.000Z</time>
      </trkpt>
      <trkpt lat="45.15594" lon="5.95135">
        <ele>2346</ele>
        <time>2019-01-20T10:45:20.000Z</time>
      </trkpt>
      <trkpt lat="45.15594" lon="5.95135">
        <ele>2347</ele>
        <time>2019-01-20T10:45:21.000Z</time>
      </trkpt>
      <trkpt lat="45.15594" lon="5.95135">
        <ele>2347</ele>
        <time>2019-01-20T10:45:22.000Z</time>
      </trkpt>
      <trkpt lat="45.15592" lon="5.95138">
        <ele>2347</ele>
        <time>2019-01-20T10:45:23.000Z</time>
      </trkpt>
      <trkpt lat="45.15592" lon="5.95138">
        <ele>2347</ele>
        <time>2019-01-20T10:45:24.000Z</time>
      </trkpt>
      <trkpt lat="45.15592" lon="5.95138">
        <ele>2347</ele>
        <time>2019-01-20T10:45:25.000Z</time>
      </trkpt>
      <trkpt lat="45.1559" lon="5.95141">
        <ele>2347</ele>
        <time>2019-01-20T10:45:26.000Z</time>
      </trkpt>
      <trkpt lat="45.1559" lon="5.95141">
        <ele>2348</ele>
        <time>2019-01-20T10:45:27.000Z</time>
      </trkpt>
      <trkpt lat="45.1559" lon="5.95141">
        <ele>2349</ele>
        <time>2019-01-20T10:45:28.000Z</time>
      </trkpt>
      <trkpt lat="45.15589" lon="5.95143">
        <ele>2349</ele>
        <time>2019-01-20T10:45:29.000Z</time>
      </trkpt>
      <trkpt lat="45.15589" lon="5.95143">
        <ele>2349</ele>
        <time>2019-01-20T10:45:30.000Z</time>
      </trkpt>
      <trkpt lat="45.15589" lon="5.95143">
        <ele>2349</ele>
        <time>2019-01-20T10:45:31.000Z</time>
      </trkpt>
      <trkpt lat="45.15588" lon="5.95145">
        <ele>2350</ele>
        <time>2019-01-20T10:45:32.000Z</time>
      </trkpt>
      <trkpt lat="45.15588" lon="5.95145">
        <ele>2350</ele>
        <time>2019-01-20T10:45:33.000Z</time>
      </trkpt>
      <trkpt lat="45.15588" lon="5.95145">
        <ele>2350</ele>
        <time>2019-01-20T10:45:34.000Z</time>
      </trkpt>
      <trkpt lat="45.15586" lon="5.95147">
        <ele>2350</ele>
        <time>2019-01-20T10:45:35.000Z</time>
      </trkpt>
      <trkpt lat="45.15586" lon="5.95147">
        <ele>2350</ele>
        <time>2019-01-20T10:45:36.000Z</time>
      </trkpt>
      <trkpt lat="45.15586" lon="5.95147">
        <ele>2351</ele>
        <time>2019-01-20T10:45:37.000Z</time>
      </trkpt>
      <trkpt lat="45.15585" lon="5.9515">
        <ele>2351</ele>
        <time>2019-01-20T10:45:38.000Z</time>
      </trkpt>
      <trkpt lat="45.15585" lon="5.9515">
        <ele>2351</ele>
        <time>2019-01-20T10:45:39.000Z</time>
      </trkpt>
      <trkpt lat="45.15585" lon="5.9515">
        <ele>2351</ele>
        <time>2019-01-20T10:45:40.000Z</time>
      </trkpt>
      <trkpt lat="45.15585" lon="5.9515">
        <ele>2351</ele>
        <time>2019-01-20T10:45:41.000Z</time>
      </trkpt>
      <trkpt lat="45.15585" lon="5.9515">
        <ele>2351</ele>
        <time>2019-01-20T10:45:43.000Z</time>
      </trkpt>
      <trkpt lat="45.15587" lon="5.95151">
        <ele>2351</ele>
        <time>2019-01-20T10:45:44.000Z</time>
      </trkpt>
      <trkpt lat="45.15587" lon="5.95151">
        <ele>2351</ele>
        <time>2019-01-20T10:45:45.000Z</time>
      </trkpt>
      <trkpt lat="45.15587" lon="5.95151">
        <ele>2351</ele>
        <time>2019-01-20T10:45:46.000Z</time>
      </trkpt>
      <trkpt lat="45.15589" lon="5.95153">
        <ele>2352</ele>
        <time>2019-01-20T10:45:47.000Z</time>
      </trkpt>
      <trkpt lat="45.15589" lon="5.95153">
        <ele>2352</ele>
        <time>2019-01-20T10:45:48.000Z</time>
      </trkpt>
      <trkpt lat="45.15589" lon="5.95153">
        <ele>2352</ele>
        <time>2019-01-20T10:45:49.000Z</time>
      </trkpt>
      <trkpt lat="45.15592" lon="5.95154">
        <ele>2352</ele>
        <time>2019-01-20T10:45:50.000Z</time>
      </trkpt>
      <trkpt lat="45.15592" lon="5.95154">
        <ele>2353</ele>
        <time>2019-01-20T10:45:51.000Z</time>
      </trkpt>
      <trkpt lat="45.15594" lon="5.95155">
        <ele>2353</ele>
        <time>2019-01-20T10:45:52.000Z</time>
      </trkpt>
      <trkpt lat="45.15594" lon="5.95155">
        <ele>2353</ele>
        <time>2019-01-20T10:45:53.000Z</time>
      </trkpt>
      <trkpt lat="45.15594" lon="5.95155">
        <ele>2353</ele>
        <time>2019-01-20T10:45:54.000Z</time>
      </trkpt>
      <trkpt lat="45.15596" lon="5.95154">
        <ele>2354</ele>
        <time>2019-01-20T10:45:55.000Z</time>
      </trkpt>
      <trkpt lat="45.15596" lon="5.95154">
        <ele>2354</ele>
        <time>2019-01-20T10:45:57.000Z</time>
      </trkpt>
      <trkpt lat="45.15598" lon="5.95156">
        <ele>2354</ele>
        <time>2019-01-20T10:45:58.000Z</time>
      </trkpt>
      <trkpt lat="45.15598" lon="5.95156">
        <ele>2354</ele>
        <time>2019-01-20T10:45:59.000Z</time>
      </trkpt>
      <trkpt lat="45.156" lon="5.95156">
        <ele>2354</ele>
        <time>2019-01-20T10:46:00.000Z</time>
      </trkpt>
      <trkpt lat="45.15602" lon="5.95157">
        <ele>2355</ele>
        <time>2019-01-20T10:46:02.000Z</time>
      </trkpt>
      <trkpt lat="45.15602" lon="5.95157">
        <ele>2355</ele>
        <time>2019-01-20T10:46:03.000Z</time>
      </trkpt>
      <trkpt lat="45.15602" lon="5.95157">
        <ele>2355</ele>
        <time>2019-01-20T10:46:04.000Z</time>
      </trkpt>
      <trkpt lat="45.15604" lon="5.95159">
        <ele>2355</ele>
        <time>2019-01-20T10:46:05.000Z</time>
      </trkpt>
      <trkpt lat="45.15604" lon="5.95159">
        <ele>2355</ele>
        <time>2019-01-20T10:46:06.000Z</time>
      </trkpt>
      <trkpt lat="45.15604" lon="5.95159">
        <ele>2356</ele>
        <time>2019-01-20T10:46:07.000Z</time>
      </trkpt>
      <trkpt lat="45.15606" lon="5.95161">
        <ele>2357</ele>
        <time>2019-01-20T10:46:08.000Z</time>
      </trkpt>
      <trkpt lat="45.15606" lon="5.95161">
        <ele>2357</ele>
        <time>2019-01-20T10:46:09.000Z</time>
      </trkpt>
      <trkpt lat="45.15606" lon="5.95161">
        <ele>2357</ele>
        <time>2019-01-20T10:46:10.000Z</time>
      </trkpt>
      <trkpt lat="45.15606" lon="5.95161">
        <ele>2357</ele>
        <time>2019-01-20T10:46:11.000Z</time>
      </trkpt>
      <trkpt lat="45.15606" lon="5.95161">
        <ele>2357</ele>
        <time>2019-01-20T10:46:12.000Z</time>
      </trkpt>
      <trkpt lat="45.15608" lon="5.95162">
        <ele>2358</ele>
        <time>2019-01-20T10:46:13.000Z</time>
      </trkpt>
      <trkpt lat="45.15608" lon="5.95162">
        <ele>2358</ele>
        <time>2019-01-20T10:46:14.000Z</time>
      </trkpt>
      <trkpt lat="45.15608" lon="5.95162">
        <ele>2358</ele>
        <time>2019-01-20T10:46:15.000Z</time>
      </trkpt>
      <trkpt lat="45.15611" lon="5.95165">
        <ele>2358</ele>
        <time>2019-01-20T10:46:16.000Z</time>
      </trkpt>
      <trkpt lat="45.15611" lon="5.95165">
        <ele>2358</ele>
        <time>2019-01-20T10:46:17.000Z</time>
      </trkpt>
      <trkpt lat="45.15612" lon="5.95166">
        <ele>2359</ele>
        <time>2019-01-20T10:46:18.000Z</time>
      </trkpt>
      <trkpt lat="45.15612" lon="5.95166">
        <ele>2359</ele>
        <time>2019-01-20T10:46:19.000Z</time>
      </trkpt>
      <trkpt lat="45.15612" lon="5.95166">
        <ele>2359</ele>
        <time>2019-01-20T10:46:21.000Z</time>
      </trkpt>
      <trkpt lat="45.15612" lon="5.95166">
        <ele>2359</ele>
        <time>2019-01-20T10:46:22.000Z</time>
      </trkpt>
      <trkpt lat="45.15612" lon="5.95166">
        <ele>2359</ele>
        <time>2019-01-20T10:46:23.000Z</time>
      </trkpt>
      <trkpt lat="45.15614" lon="5.95165">
        <ele>2359</ele>
        <time>2019-01-20T10:46:24.000Z</time>
      </trkpt>
      <trkpt lat="45.15614" lon="5.95165">
        <ele>2359</ele>
        <time>2019-01-20T10:46:55.000Z</time>
      </trkpt>
      <trkpt lat="45.15614" lon="5.95158">
        <ele>2359</ele>
        <time>2019-01-20T10:46:56.000Z</time>
      </trkpt>
      <trkpt lat="45.15614" lon="5.95158">
        <ele>2359</ele>
        <time>2019-01-20T10:46:57.000Z</time>
      </trkpt>
      <trkpt lat="45.15614" lon="5.95158">
        <ele>2359</ele>
        <time>2019-01-20T10:46:58.000Z</time>
      </trkpt>
      <trkpt lat="45.15614" lon="5.95158">
        <ele>2359</ele>
        <time>2019-01-20T10:46:59.000Z</time>
      </trkpt>
      <trkpt lat="45.15614" lon="5.95158">
        <ele>2359</ele>
        <time>2019-01-20T10:47:00.000Z</time>
      </trkpt>
      <trkpt lat="45.15614" lon="5.95158">
        <ele>2359</ele>
        <time>2019-01-20T10:47:01.000Z</time>
      </trkpt>
      <trkpt lat="45.15614" lon="5.95158">
        <ele>2359</ele>
        <time>2019-01-20T10:47:02.000Z</time>
      </trkpt>
      <trkpt lat="45.15614" lon="5.95158">
        <ele>2359</ele>
        <time>2019-01-20T10:47:03.000Z</time>
      </trkpt>
      <trkpt lat="45.15614" lon="5.95158">
        <ele>2359</ele>
        <time>2019-01-20T10:47:04.000Z</time>
      </trkpt>
      <trkpt lat="45.15614" lon="5.95158">
        <ele>2359</ele>
        <time>2019-01-20T10:47:05.000Z</time>
      </trkpt>
      <trkpt lat="45.15614" lon="5.95158">
        <ele>2360</ele>
        <time>2019-01-20T10:47:06.000Z</time>
      </trkpt>
      <trkpt lat="45.15614" lon="5.95158">
        <ele>2360</ele>
        <time>2019-01-20T10:47:07.000Z</time>
      </trkpt>
      <trkpt lat="45.15617" lon="5.95161">
        <ele>2360</ele>
        <time>2019-01-20T10:47:08.000Z</time>
      </trkpt>
      <trkpt lat="45.15617" lon="5.95161">
        <ele>2360</ele>
        <time>2019-01-20T10:47:09.000Z</time>
      </trkpt>
      <trkpt lat="45.15619" lon="5.95163">
        <ele>2360</ele>
        <time>2019-01-20T10:47:10.000Z</time>
      </trkpt>
      <trkpt lat="45.15619" lon="5.95163">
        <ele>2361</ele>
        <time>2019-01-20T10:47:11.000Z</time>
      </trkpt>
      <trkpt lat="45.1562" lon="5.95164">
        <ele>2361</ele>
        <time>2019-01-20T10:47:12.000Z</time>
      </trkpt>
      <trkpt lat="45.1562" lon="5.95164">
        <ele>2361</ele>
        <time>2019-01-20T10:47:13.000Z</time>
      </trkpt>
      <trkpt lat="45.15622" lon="5.95166">
        <ele>2361</ele>
        <time>2019-01-20T10:47:14.000Z</time>
      </trkpt>
      <trkpt lat="45.15622" lon="5.95166">
        <ele>2362</ele>
        <time>2019-01-20T10:47:15.000Z</time>
      </trkpt>
      <trkpt lat="45.15624" lon="5.95168">
        <ele>2362</ele>
        <time>2019-01-20T10:47:16.000Z</time>
      </trkpt>
      <trkpt lat="45.15624" lon="5.95168">
        <ele>2362</ele>
        <time>2019-01-20T10:47:17.000Z</time>
      </trkpt>
      <trkpt lat="45.15625" lon="5.95171">
        <ele>2363</ele>
        <time>2019-01-20T10:47:18.000Z</time>
      </trkpt>
      <trkpt lat="45.15625" lon="5.95171">
        <ele>2363</ele>
        <time>2019-01-20T10:47:19.000Z</time>
      </trkpt>
      <trkpt lat="45.15625" lon="5.95171">
        <ele>2364</ele>
        <time>2019-01-20T10:47:20.000Z</time>
      </trkpt>
      <trkpt lat="45.15625" lon="5.95171">
        <ele>2364</ele>
        <time>2019-01-20T10:47:21.000Z</time>
      </trkpt>
      <trkpt lat="45.15624" lon="5.95174">
        <ele>2364</ele>
        <time>2019-01-20T10:47:22.000Z</time>
      </trkpt>
      <trkpt lat="45.15624" lon="5.95174">
        <ele>2364</ele>
        <time>2019-01-20T10:47:23.000Z</time>
      </trkpt>
      <trkpt lat="45.15624" lon="5.95174">
        <ele>2365</ele>
        <time>2019-01-20T10:47:24.000Z</time>
      </trkpt>
      <trkpt lat="45.15622" lon="5.95176">
        <ele>2365</ele>
        <time>2019-01-20T10:47:25.000Z</time>
      </trkpt>
      <trkpt lat="45.15622" lon="5.95176">
        <ele>2365</ele>
        <time>2019-01-20T10:47:26.000Z</time>
      </trkpt>
      <trkpt lat="45.15622" lon="5.95176">
        <ele>2365</ele>
        <time>2019-01-20T10:47:27.000Z</time>
      </trkpt>
      <trkpt lat="45.1562" lon="5.95178">
        <ele>2365</ele>
        <time>2019-01-20T10:47:28.000Z</time>
      </trkpt>
      <trkpt lat="45.1562" lon="5.95178">
        <ele>2366</ele>
        <time>2019-01-20T10:47:29.000Z</time>
      </trkpt>
      <trkpt lat="45.1562" lon="5.95178">
        <ele>2366</ele>
        <time>2019-01-20T10:47:30.000Z</time>
      </trkpt>
      <trkpt lat="45.1562" lon="5.95178">
        <ele>2366</ele>
        <time>2019-01-20T10:47:31.000Z</time>
      </trkpt>
      <trkpt lat="45.1562" lon="5.95178">
        <ele>2366</ele>
        <time>2019-01-20T10:47:32.000Z</time>
      </trkpt>
      <trkpt lat="45.1562" lon="5.95178">
        <ele>2366</ele>
        <time>2019-01-20T10:47:34.000Z</time>
      </trkpt>
      <trkpt lat="45.1562" lon="5.95178">
        <ele>2366</ele>
        <time>2019-01-20T10:47:35.000Z</time>
      </trkpt>
      <trkpt lat="45.15621" lon="5.95181">
        <ele>2367</ele>
        <time>2019-01-20T10:47:36.000Z</time>
      </trkpt>
      <trkpt lat="45.15621" lon="5.95181">
        <ele>2367</ele>
        <time>2019-01-20T10:47:37.000Z</time>
      </trkpt>
      <trkpt lat="45.15623" lon="5.95182">
        <ele>2367</ele>
        <time>2019-01-20T10:47:38.000Z</time>
      </trkpt>
      <trkpt lat="45.15623" lon="5.95182">
        <ele>2368</ele>
        <time>2019-01-20T10:47:39.000Z</time>
      </trkpt>
      <trkpt lat="45.15624" lon="5.95184">
        <ele>2368</ele>
        <time>2019-01-20T10:47:40.000Z</time>
      </trkpt>
      <trkpt lat="45.15624" lon="5.95184">
        <ele>2368</ele>
        <time>2019-01-20T10:47:41.000Z</time>
      </trkpt>
      <trkpt lat="45.15626" lon="5.95185">
        <ele>2368</ele>
        <time>2019-01-20T10:47:42.000Z</time>
      </trkpt>
      <trkpt lat="45.15626" lon="5.95185">
        <ele>2368</ele>
        <time>2019-01-20T10:47:43.000Z</time>
      </trkpt>
      <trkpt lat="45.15626" lon="5.95185">
        <ele>2369</ele>
        <time>2019-01-20T10:47:44.000Z</time>
      </trkpt>
      <trkpt lat="45.15628" lon="5.95188">
        <ele>2369</ele>
        <time>2019-01-20T10:47:45.000Z</time>
      </trkpt>
      <trkpt lat="45.15628" lon="5.95188">
        <ele>2369</ele>
        <time>2019-01-20T10:47:46.000Z</time>
      </trkpt>
      <trkpt lat="45.1563" lon="5.95189">
        <ele>2369</ele>
        <time>2019-01-20T10:47:47.000Z</time>
      </trkpt>
      <trkpt lat="45.1563" lon="5.95189">
        <ele>2369</ele>
        <time>2019-01-20T10:47:48.000Z</time>
      </trkpt>
      <trkpt lat="45.15632" lon="5.9519">
        <ele>2370</ele>
        <time>2019-01-20T10:47:49.000Z</time>
      </trkpt>
      <trkpt lat="45.15632" lon="5.9519">
        <ele>2370</ele>
        <time>2019-01-20T10:47:50.000Z</time>
      </trkpt>
      <trkpt lat="45.15634" lon="5.95192">
        <ele>2370</ele>
        <time>2019-01-20T10:47:51.000Z</time>
      </trkpt>
      <trkpt lat="45.15636" lon="5.95194">
        <ele>2370</ele>
        <time>2019-01-20T10:47:53.000Z</time>
      </trkpt>
      <trkpt lat="45.15636" lon="5.95194">
        <ele>2370</ele>
        <time>2019-01-20T10:47:54.000Z</time>
      </trkpt>
      <trkpt lat="45.15636" lon="5.95194">
        <ele>2370</ele>
        <time>2019-01-20T10:47:55.000Z</time>
      </trkpt>
      <trkpt lat="45.15637" lon="5.95197">
        <ele>2371</ele>
        <time>2019-01-20T10:47:56.000Z</time>
      </trkpt>
      <trkpt lat="45.15637" lon="5.95197">
        <ele>2371</ele>
        <time>2019-01-20T10:47:57.000Z</time>
      </trkpt>
      <trkpt lat="45.15637" lon="5.95197">
        <ele>2371</ele>
        <time>2019-01-20T10:47:58.000Z</time>
      </trkpt>
      <trkpt lat="45.15638" lon="5.952">
        <ele>2372</ele>
        <time>2019-01-20T10:47:59.000Z</time>
      </trkpt>
      <trkpt lat="45.15638" lon="5.952">
        <ele>2372</ele>
        <time>2019-01-20T10:48:00.000Z</time>
      </trkpt>
      <trkpt lat="45.15638" lon="5.952">
        <ele>2373</ele>
        <time>2019-01-20T10:48:01.000Z</time>
      </trkpt>
      <trkpt lat="45.15639" lon="5.95203">
        <ele>2373</ele>
        <time>2019-01-20T10:48:02.000Z</time>
      </trkpt>
      <trkpt lat="45.15639" lon="5.95203">
        <ele>2373</ele>
        <time>2019-01-20T10:48:03.000Z</time>
      </trkpt>
      <trkpt lat="45.15639" lon="5.95203">
        <ele>2373</ele>
        <time>2019-01-20T10:48:04.000Z</time>
      </trkpt>
      <trkpt lat="45.15639" lon="5.95203">
        <ele>2374</ele>
        <time>2019-01-20T10:48:05.000Z</time>
      </trkpt>
      <trkpt lat="45.15639" lon="5.95203">
        <ele>2374</ele>
        <time>2019-01-20T10:48:06.000Z</time>
      </trkpt>
      <trkpt lat="45.15639" lon="5.95203">
        <ele>2374</ele>
        <time>2019-01-20T10:48:07.000Z</time>
      </trkpt>
      <trkpt lat="45.15639" lon="5.95203">
        <ele>2374</ele>
        <time>2019-01-20T10:48:08.000Z</time>
      </trkpt>
      <trkpt lat="45.15639" lon="5.95203">
        <ele>2374</ele>
        <time>2019-01-20T10:48:09.000Z</time>
      </trkpt>
      <trkpt lat="45.15639" lon="5.95203">
        <ele>2375</ele>
        <time>2019-01-20T10:48:10.000Z</time>
      </trkpt>
      <trkpt lat="45.15639" lon="5.95203">
        <ele>2375.6</ele>
        <time>2019-01-20T10:48:12.000Z</time>
      </trkpt>
      <trkpt lat="45.15645" lon="5.95212">
        <ele>2376</ele>
        <time>2019-01-20T10:48:13.000Z</time>
      </trkpt>
      <trkpt lat="45.15645" lon="5.95212">
        <ele>2376</ele>
        <time>2019-01-20T10:48:14.000Z</time>
      </trkpt>
      <trkpt lat="45.15645" lon="5.95212">
        <ele>2377</ele>
        <time>2019-01-20T10:48:15.000Z</time>
      </trkpt>
      <trkpt lat="45.15647" lon="5.95211">
        <ele>2377</ele>
        <time>2019-01-20T10:48:16.000Z</time>
      </trkpt>
      <trkpt lat="45.15647" lon="5.95211">
        <ele>2377</ele>
        <time>2019-01-20T10:48:17.000Z</time>
      </trkpt>
      <trkpt lat="45.15647" lon="5.95211">
        <ele>2377</ele>
        <time>2019-01-20T10:48:18.000Z</time>
      </trkpt>
      <trkpt lat="45.15648" lon="5.95209">
        <ele>2378</ele>
        <time>2019-01-20T10:48:19.000Z</time>
      </trkpt>
      <trkpt lat="45.15648" lon="5.95209">
        <ele>2378</ele>
        <time>2019-01-20T10:48:20.000Z</time>
      </trkpt>
      <trkpt lat="45.15648" lon="5.95209">
        <ele>2378</ele>
        <time>2019-01-20T10:48:21.000Z</time>
      </trkpt>
      <trkpt lat="45.1565" lon="5.95206">
        <ele>2378</ele>
        <time>2019-01-20T10:48:22.000Z</time>
      </trkpt>
      <trkpt lat="45.1565" lon="5.95206">
        <ele>2378</ele>
        <time>2019-01-20T10:48:23.000Z</time>
      </trkpt>
      <trkpt lat="45.15651" lon="5.95204">
        <ele>2379</ele>
        <time>2019-01-20T10:48:24.000Z</time>
      </trkpt>
      <trkpt lat="45.15651" lon="5.95204">
        <ele>2379</ele>
        <time>2019-01-20T10:48:25.000Z</time>
      </trkpt>
      <trkpt lat="45.15651" lon="5.95204">
        <ele>2379</ele>
        <time>2019-01-20T10:48:26.000Z</time>
      </trkpt>
      <trkpt lat="45.15652" lon="5.95201">
        <ele>2379</ele>
        <time>2019-01-20T10:48:27.000Z</time>
      </trkpt>
      <trkpt lat="45.15652" lon="5.95201">
        <ele>2379</ele>
        <time>2019-01-20T10:48:28.000Z</time>
      </trkpt>
      <trkpt lat="45.15654" lon="5.95199">
        <ele>2379</ele>
        <time>2019-01-20T10:48:29.000Z</time>
      </trkpt>
      <trkpt lat="45.15654" lon="5.95199">
        <ele>2380</ele>
        <time>2019-01-20T10:48:31.000Z</time>
      </trkpt>
      <trkpt lat="45.15655" lon="5.95196">
        <ele>2380</ele>
        <time>2019-01-20T10:48:32.000Z</time>
      </trkpt>
      <trkpt lat="45.15655" lon="5.95196">
        <ele>2380</ele>
        <time>2019-01-20T10:48:33.000Z</time>
      </trkpt>
      <trkpt lat="45.15655" lon="5.95194">
        <ele>2381</ele>
        <time>2019-01-20T10:48:34.000Z</time>
      </trkpt>
      <trkpt lat="45.15655" lon="5.95194">
        <ele>2381</ele>
        <time>2019-01-20T10:48:35.000Z</time>
      </trkpt>
      <trkpt lat="45.15655" lon="5.95194">
        <ele>2382</ele>
        <time>2019-01-20T10:48:36.000Z</time>
      </trkpt>
      <trkpt lat="45.15655" lon="5.95194">
        <ele>2382</ele>
        <time>2019-01-20T10:48:37.000Z</time>
      </trkpt>
      <trkpt lat="45.15655" lon="5.95194">
        <ele>2382</ele>
        <time>2019-01-20T10:48:38.000Z</time>
      </trkpt>
      <trkpt lat="45.15655" lon="5.95194">
        <ele>2382</ele>
        <time>2019-01-20T10:48:39.000Z</time>
      </trkpt>
      <trkpt lat="45.15655" lon="5.95194">
        <ele>2382</ele>
        <time>2019-01-20T10:48:40.000Z</time>
      </trkpt>
      <trkpt lat="45.15657" lon="5.95195">
        <ele>2382</ele>
        <time>2019-01-20T10:48:41.000Z</time>
      </trkpt>
      <trkpt lat="45.15657" lon="5.95195">
        <ele>2382</ele>
        <time>2019-01-20T10:48:42.000Z</time>
      </trkpt>
      <trkpt lat="45.15657" lon="5.95195">
        <ele>2382</ele>
        <time>2019-01-20T10:48:43.000Z</time>
      </trkpt>
      <trkpt lat="45.15658" lon="5.95197">
        <ele>2382</ele>
        <time>2019-01-20T10:48:44.000Z</time>
      </trkpt>
      <trkpt lat="45.15658" lon="5.95197">
        <ele>2383</ele>
        <time>2019-01-20T10:48:45.000Z</time>
      </trkpt>
      <trkpt lat="45.15658" lon="5.95197">
        <ele>2383</ele>
        <time>2019-01-20T10:48:46.000Z</time>
      </trkpt>
      <trkpt lat="45.15659" lon="5.952">
        <ele>2383</ele>
        <time>2019-01-20T10:48:47.000Z</time>
      </trkpt>
      <trkpt lat="45.15659" lon="5.952">
        <ele>2383</ele>
        <time>2019-01-20T10:48:48.000Z</time>
      </trkpt>
      <trkpt lat="45.1566" lon="5.95204">
        <ele>2383</ele>
        <time>2019-01-20T10:48:50.000Z</time>
      </trkpt>
      <trkpt lat="45.1566" lon="5.95204">
        <ele>2383</ele>
        <time>2019-01-20T10:48:51.000Z</time>
      </trkpt>
      <trkpt lat="45.1566" lon="5.95207">
        <ele>2384</ele>
        <time>2019-01-20T10:48:52.000Z</time>
      </trkpt>
      <trkpt lat="45.1566" lon="5.95207">
        <ele>2384</ele>
        <time>2019-01-20T10:48:53.000Z</time>
      </trkpt>
      <trkpt lat="45.1566" lon="5.95207">
        <ele>2385</ele>
        <time>2019-01-20T10:48:54.000Z</time>
      </trkpt>
      <trkpt lat="45.1566" lon="5.9521">
        <ele>2385</ele>
        <time>2019-01-20T10:48:55.000Z</time>
      </trkpt>
      <trkpt lat="45.1566" lon="5.9521">
        <ele>2385</ele>
        <time>2019-01-20T10:48:56.000Z</time>
      </trkpt>
      <trkpt lat="45.1566" lon="5.9521">
        <ele>2386</ele>
        <time>2019-01-20T10:48:57.000Z</time>
      </trkpt>
      <trkpt lat="45.1566" lon="5.95213">
        <ele>2386</ele>
        <time>2019-01-20T10:48:58.000Z</time>
      </trkpt>
      <trkpt lat="45.1566" lon="5.95213">
        <ele>2386</ele>
        <time>2019-01-20T10:48:59.000Z</time>
      </trkpt>
      <trkpt lat="45.1566" lon="5.95213">
        <ele>2386</ele>
        <time>2019-01-20T10:49:00.000Z</time>
      </trkpt>
      <trkpt lat="45.1566" lon="5.95213">
        <ele>2386</ele>
        <time>2019-01-20T10:49:01.000Z</time>
      </trkpt>
      <trkpt lat="45.1566" lon="5.95213">
        <ele>2386</ele>
        <time>2019-01-20T10:49:02.000Z</time>
      </trkpt>
      <trkpt lat="45.1566" lon="5.95213">
        <ele>2386</ele>
        <time>2019-01-20T10:49:03.000Z</time>
      </trkpt>
      <trkpt lat="45.15661" lon="5.9521">
        <ele>2386</ele>
        <time>2019-01-20T10:49:04.000Z</time>
      </trkpt>
      <trkpt lat="45.15661" lon="5.9521">
        <ele>2386</ele>
        <time>2019-01-20T10:49:05.000Z</time>
      </trkpt>
      <trkpt lat="45.15663" lon="5.95208">
        <ele>2386</ele>
        <time>2019-01-20T10:49:06.000Z</time>
      </trkpt>
      <trkpt lat="45.15663" lon="5.95208">
        <ele>2386</ele>
        <time>2019-01-20T10:49:07.000Z</time>
      </trkpt>
      <trkpt lat="45.15664" lon="5.95206">
        <ele>2386</ele>
        <time>2019-01-20T10:49:08.000Z</time>
      </trkpt>
      <trkpt lat="45.15664" lon="5.95206">
        <ele>2386</ele>
        <time>2019-01-20T10:49:09.000Z</time>
      </trkpt>
      <trkpt lat="45.15665" lon="5.95203">
        <ele>2386</ele>
        <time>2019-01-20T10:49:10.000Z</time>
      </trkpt>
      <trkpt lat="45.15665" lon="5.95203">
        <ele>2387</ele>
        <time>2019-01-20T10:49:11.000Z</time>
      </trkpt>
      <trkpt lat="45.15666" lon="5.95201">
        <ele>2388</ele>
        <time>2019-01-20T10:49:12.000Z</time>
      </trkpt>
      <trkpt lat="45.15666" lon="5.95201">
        <ele>2388</ele>
        <time>2019-01-20T10:49:13.000Z</time>
      </trkpt>
      <trkpt lat="45.15667" lon="5.95199">
        <ele>2388</ele>
        <time>2019-01-20T10:49:14.000Z</time>
      </trkpt>
      <trkpt lat="45.15667" lon="5.95199">
        <ele>2388</ele>
        <time>2019-01-20T10:49:15.000Z</time>
      </trkpt>
      <trkpt lat="45.15667" lon="5.95196">
        <ele>2388</ele>
        <time>2019-01-20T10:49:16.000Z</time>
      </trkpt>
      <trkpt lat="45.15667" lon="5.95196">
        <ele>2388</ele>
        <time>2019-01-20T10:49:17.000Z</time>
      </trkpt>
      <trkpt lat="45.15668" lon="5.95193">
        <ele>2388</ele>
        <time>2019-01-20T10:49:18.000Z</time>
      </trkpt>
      <trkpt lat="45.15668" lon="5.95193">
        <ele>2388</ele>
        <time>2019-01-20T10:49:19.000Z</time>
      </trkpt>
      <trkpt lat="45.15668" lon="5.95191">
        <ele>2388</ele>
        <time>2019-01-20T10:49:20.000Z</time>
      </trkpt>
      <trkpt lat="45.15668" lon="5.95191">
        <ele>2389</ele>
        <time>2019-01-20T10:49:21.000Z</time>
      </trkpt>
      <trkpt lat="45.15668" lon="5.95188">
        <ele>2389</ele>
        <time>2019-01-20T10:49:22.000Z</time>
      </trkpt>
      <trkpt lat="45.15668" lon="5.95188">
        <ele>2389</ele>
        <time>2019-01-20T10:49:23.000Z</time>
      </trkpt>
      <trkpt lat="45.15669" lon="5.95186">
        <ele>2390</ele>
        <time>2019-01-20T10:49:24.000Z</time>
      </trkpt>
      <trkpt lat="45.15669" lon="5.95186">
        <ele>2390</ele>
        <time>2019-01-20T10:49:25.000Z</time>
      </trkpt>
      <trkpt lat="45.15669" lon="5.95186">
        <ele>2390</ele>
        <time>2019-01-20T10:49:26.000Z</time>
      </trkpt>
      <trkpt lat="45.15669" lon="5.95182">
        <ele>2390</ele>
        <time>2019-01-20T10:49:27.000Z</time>
      </trkpt>
      <trkpt lat="45.15669" lon="5.95182">
        <ele>2391</ele>
        <time>2019-01-20T10:49:28.000Z</time>
      </trkpt>
      <trkpt lat="45.15669" lon="5.95182">
        <ele>2391</ele>
        <time>2019-01-20T10:49:29.000Z</time>
      </trkpt>
      <trkpt lat="45.1567" lon="5.9518">
        <ele>2391</ele>
        <time>2019-01-20T10:49:30.000Z</time>
      </trkpt>
      <trkpt lat="45.1567" lon="5.9518">
        <ele>2391</ele>
        <time>2019-01-20T10:49:31.000Z</time>
      </trkpt>
      <trkpt lat="45.1567" lon="5.9518">
        <ele>2392</ele>
        <time>2019-01-20T10:49:32.000Z</time>
      </trkpt>
      <trkpt lat="45.1567" lon="5.9518">
        <ele>2392</ele>
        <time>2019-01-20T10:49:33.000Z</time>
      </trkpt>
      <trkpt lat="45.15671" lon="5.95182">
        <ele>2392</ele>
        <time>2019-01-20T10:49:34.000Z</time>
      </trkpt>
      <trkpt lat="45.15671" lon="5.95182">
        <ele>2393</ele>
        <time>2019-01-20T10:49:35.000Z</time>
      </trkpt>
      <trkpt lat="45.15671" lon="5.95182">
        <ele>2393</ele>
        <time>2019-01-20T10:49:36.000Z</time>
      </trkpt>
      <trkpt lat="45.15672" lon="5.95185">
        <ele>2393</ele>
        <time>2019-01-20T10:49:37.000Z</time>
      </trkpt>
      <trkpt lat="45.15672" lon="5.95185">
        <ele>2393</ele>
        <time>2019-01-20T10:49:38.000Z</time>
      </trkpt>
      <trkpt lat="45.15672" lon="5.95185">
        <ele>2393</ele>
        <time>2019-01-20T10:49:39.000Z</time>
      </trkpt>
      <trkpt lat="45.15674" lon="5.95188">
        <ele>2393</ele>
        <time>2019-01-20T10:49:40.000Z</time>
      </trkpt>
      <trkpt lat="45.15674" lon="5.95188">
        <ele>2394</ele>
        <time>2019-01-20T10:49:41.000Z</time>
      </trkpt>
      <trkpt lat="45.15674" lon="5.95188">
        <ele>2395</ele>
        <time>2019-01-20T10:49:42.000Z</time>
      </trkpt>
      <trkpt lat="45.15675" lon="5.95191">
        <ele>2395</ele>
        <time>2019-01-20T10:49:43.000Z</time>
      </trkpt>
      <trkpt lat="45.15675" lon="5.95191">
        <ele>2395</ele>
        <time>2019-01-20T10:49:44.000Z</time>
      </trkpt>
      <trkpt lat="45.15675" lon="5.95191">
        <ele>2396</ele>
        <time>2019-01-20T10:49:45.000Z</time>
      </trkpt>
      <trkpt lat="45.15676" lon="5.95194">
        <ele>2396</ele>
        <time>2019-01-20T10:49:46.000Z</time>
      </trkpt>
      <trkpt lat="45.15676" lon="5.95194">
        <ele>2396</ele>
        <time>2019-01-20T10:49:47.000Z</time>
      </trkpt>
      <trkpt lat="45.15676" lon="5.95194">
        <ele>2396</ele>
        <time>2019-01-20T10:49:48.000Z</time>
      </trkpt>
      <trkpt lat="45.15676" lon="5.95194">
        <ele>2396</ele>
        <time>2019-01-20T10:49:49.000Z</time>
      </trkpt>
      <trkpt lat="45.15676" lon="5.95194">
        <ele>2396</ele>
        <time>2019-01-20T10:49:50.000Z</time>
      </trkpt>
      <trkpt lat="45.15676" lon="5.95194">
        <ele>2396</ele>
        <time>2019-01-20T10:49:51.000Z</time>
      </trkpt>
      <trkpt lat="45.15676" lon="5.95194">
        <ele>2396</ele>
        <time>2019-01-20T10:49:52.000Z</time>
      </trkpt>
      <trkpt lat="45.15676" lon="5.95194">
        <ele>2396</ele>
        <time>2019-01-20T10:49:53.000Z</time>
      </trkpt>
      <trkpt lat="45.15676" lon="5.95194">
        <ele>2396</ele>
        <time>2019-01-20T10:49:54.000Z</time>
      </trkpt>
      <trkpt lat="45.15676" lon="5.95194">
        <ele>2396</ele>
        <time>2019-01-20T10:49:55.000Z</time>
      </trkpt>
      <trkpt lat="45.15676" lon="5.95194">
        <ele>2397</ele>
        <time>2019-01-20T10:49:56.000Z</time>
      </trkpt>
      <trkpt lat="45.15678" lon="5.95191">
        <ele>2397</ele>
        <time>2019-01-20T10:49:57.000Z</time>
      </trkpt>
      <trkpt lat="45.15678" lon="5.95191">
        <ele>2398</ele>
        <time>2019-01-20T10:49:58.000Z</time>
      </trkpt>
      <trkpt lat="45.15678" lon="5.95191">
        <ele>2398</ele>
        <time>2019-01-20T10:49:59.000Z</time>
      </trkpt>
      <trkpt lat="45.15678" lon="5.95191">
        <ele>2398</ele>
        <time>2019-01-20T10:50:00.000Z</time>
      </trkpt>
      <trkpt lat="45.15678" lon="5.95191">
        <ele>2398</ele>
        <time>2019-01-20T10:50:01.000Z</time>
      </trkpt>
      <trkpt lat="45.15678" lon="5.95191">
        <ele>2398</ele>
        <time>2019-01-20T10:50:02.000Z</time>
      </trkpt>
      <trkpt lat="45.15678" lon="5.95191">
        <ele>2398</ele>
        <time>2019-01-20T10:50:03.000Z</time>
      </trkpt>
      <trkpt lat="45.15679" lon="5.95192">
        <ele>2398</ele>
        <time>2019-01-20T10:50:04.000Z</time>
      </trkpt>
      <trkpt lat="45.15679" lon="5.95192">
        <ele>2398</ele>
        <time>2019-01-20T10:50:06.000Z</time>
      </trkpt>
      <trkpt lat="45.1568" lon="5.95196">
        <ele>2398</ele>
        <time>2019-01-20T10:50:07.000Z</time>
      </trkpt>
      <trkpt lat="45.1568" lon="5.95196">
        <ele>2398</ele>
        <time>2019-01-20T10:50:08.000Z</time>
      </trkpt>
      <trkpt lat="45.15681" lon="5.95198">
        <ele>2399</ele>
        <time>2019-01-20T10:50:10.000Z</time>
      </trkpt>
      <trkpt lat="45.15681" lon="5.95198">
        <ele>2399</ele>
        <time>2019-01-20T10:50:11.000Z</time>
      </trkpt>
      <trkpt lat="45.15681" lon="5.95198">
        <ele>2400</ele>
        <time>2019-01-20T10:50:12.000Z</time>
      </trkpt>
      <trkpt lat="45.15681" lon="5.95202">
        <ele>2400</ele>
        <time>2019-01-20T10:50:13.000Z</time>
      </trkpt>
      <trkpt lat="45.15681" lon="5.95202">
        <ele>2400</ele>
        <time>2019-01-20T10:50:14.000Z</time>
      </trkpt>
      <trkpt lat="45.15681" lon="5.95202">
        <ele>2401</ele>
        <time>2019-01-20T10:50:15.000Z</time>
      </trkpt>
      <trkpt lat="45.15682" lon="5.95205">
        <ele>2401</ele>
        <time>2019-01-20T10:50:16.000Z</time>
      </trkpt>
      <trkpt lat="45.15682" lon="5.95205">
        <ele>2402</ele>
        <time>2019-01-20T10:50:17.000Z</time>
      </trkpt>
      <trkpt lat="45.15682" lon="5.95205">
        <ele>2402</ele>
        <time>2019-01-20T10:50:18.000Z</time>
      </trkpt>
      <trkpt lat="45.15683" lon="5.95208">
        <ele>2402</ele>
        <time>2019-01-20T10:50:19.000Z</time>
      </trkpt>
      <trkpt lat="45.15683" lon="5.95208">
        <ele>2402</ele>
        <time>2019-01-20T10:50:20.000Z</time>
      </trkpt>
      <trkpt lat="45.15684" lon="5.9521">
        <ele>2402</ele>
        <time>2019-01-20T10:50:21.000Z</time>
      </trkpt>
      <trkpt lat="45.15684" lon="5.9521">
        <ele>2402</ele>
        <time>2019-01-20T10:50:22.000Z</time>
      </trkpt>
      <trkpt lat="45.15684" lon="5.9521">
        <ele>2402</ele>
        <time>2019-01-20T10:50:23.000Z</time>
      </trkpt>
      <trkpt lat="45.15684" lon="5.95214">
        <ele>2402</ele>
        <time>2019-01-20T10:50:24.000Z</time>
      </trkpt>
      <trkpt lat="45.15684" lon="5.95214">
        <ele>2402</ele>
        <time>2019-01-20T10:50:25.000Z</time>
      </trkpt>
      <trkpt lat="45.15684" lon="5.95214">
        <ele>2402</ele>
        <time>2019-01-20T10:50:26.000Z</time>
      </trkpt>
      <trkpt lat="45.15685" lon="5.95217">
        <ele>2403</ele>
        <time>2019-01-20T10:50:27.000Z</time>
      </trkpt>
      <trkpt lat="45.15685" lon="5.95217">
        <ele>2403</ele>
        <time>2019-01-20T10:50:28.000Z</time>
      </trkpt>
      <trkpt lat="45.15685" lon="5.9522">
        <ele>2403</ele>
        <time>2019-01-20T10:50:29.000Z</time>
      </trkpt>
      <trkpt lat="45.15685" lon="5.9522">
        <ele>2404</ele>
        <time>2019-01-20T10:50:30.000Z</time>
      </trkpt>
      <trkpt lat="45.15686" lon="5.95222">
        <ele>2404</ele>
        <time>2019-01-20T10:50:31.000Z</time>
      </trkpt>
      <trkpt lat="45.15686" lon="5.95222">
        <ele>2404</ele>
        <time>2019-01-20T10:50:32.000Z</time>
      </trkpt>
      <trkpt lat="45.15686" lon="5.95222">
        <ele>2405</ele>
        <time>2019-01-20T10:50:33.000Z</time>
      </trkpt>
      <trkpt lat="45.15686" lon="5.95226">
        <ele>2405</ele>
        <time>2019-01-20T10:50:34.000Z</time>
      </trkpt>
      <trkpt lat="45.15686" lon="5.95226">
        <ele>2405</ele>
        <time>2019-01-20T10:50:35.000Z</time>
      </trkpt>
      <trkpt lat="45.15686" lon="5.95226">
        <ele>2405</ele>
        <time>2019-01-20T10:50:36.000Z</time>
      </trkpt>
      <trkpt lat="45.15686" lon="5.9523">
        <ele>2405</ele>
        <time>2019-01-20T10:50:37.000Z</time>
      </trkpt>
      <trkpt lat="45.15686" lon="5.9523">
        <ele>2405</ele>
        <time>2019-01-20T10:50:38.000Z</time>
      </trkpt>
      <trkpt lat="45.15686" lon="5.9523">
        <ele>2406</ele>
        <time>2019-01-20T10:50:39.000Z</time>
      </trkpt>
      <trkpt lat="45.15686" lon="5.95233">
        <ele>2406</ele>
        <time>2019-01-20T10:50:40.000Z</time>
      </trkpt>
      <trkpt lat="45.15686" lon="5.95233">
        <ele>2406</ele>
        <time>2019-01-20T10:50:41.000Z</time>
      </trkpt>
      <trkpt lat="45.15686" lon="5.95233">
        <ele>2407</ele>
        <time>2019-01-20T10:50:42.000Z</time>
      </trkpt>
      <trkpt lat="45.15686" lon="5.95233">
        <ele>2407</ele>
        <time>2019-01-20T10:50:44.000Z</time>
      </trkpt>
      <trkpt lat="45.15686" lon="5.95233">
        <ele>2407</ele>
        <time>2019-01-20T10:50:45.000Z</time>
      </trkpt>
      <trkpt lat="45.15686" lon="5.95233">
        <ele>2407</ele>
        <time>2019-01-20T10:50:46.000Z</time>
      </trkpt>
      <trkpt lat="45.15689" lon="5.95233">
        <ele>2407</ele>
        <time>2019-01-20T10:50:47.000Z</time>
      </trkpt>
      <trkpt lat="45.15689" lon="5.95233">
        <ele>2408</ele>
        <time>2019-01-20T10:50:48.000Z</time>
      </trkpt>
      <trkpt lat="45.15689" lon="5.95233">
        <ele>2408</ele>
        <time>2019-01-20T10:50:49.000Z</time>
      </trkpt>
      <trkpt lat="45.15691" lon="5.95232">
        <ele>2408</ele>
        <time>2019-01-20T10:50:50.000Z</time>
      </trkpt>
      <trkpt lat="45.15691" lon="5.95232">
        <ele>2408</ele>
        <time>2019-01-20T10:50:51.000Z</time>
      </trkpt>
      <trkpt lat="45.15693" lon="5.9523">
        <ele>2408</ele>
        <time>2019-01-20T10:50:52.000Z</time>
      </trkpt>
      <trkpt lat="45.15693" lon="5.9523">
        <ele>2409</ele>
        <time>2019-01-20T10:50:53.000Z</time>
      </trkpt>
      <trkpt lat="45.15694" lon="5.95228">
        <ele>2409</ele>
        <time>2019-01-20T10:50:54.000Z</time>
      </trkpt>
      <trkpt lat="45.15694" lon="5.95228">
        <ele>2409</ele>
        <time>2019-01-20T10:50:55.000Z</time>
      </trkpt>
      <trkpt lat="45.15694" lon="5.95228">
        <ele>2410</ele>
        <time>2019-01-20T10:50:56.000Z</time>
      </trkpt>
      <trkpt lat="45.15696" lon="5.95225">
        <ele>2410</ele>
        <time>2019-01-20T10:50:57.000Z</time>
      </trkpt>
      <trkpt lat="45.15696" lon="5.95225">
        <ele>2410</ele>
        <time>2019-01-20T10:50:58.000Z</time>
      </trkpt>
      <trkpt lat="45.15696" lon="5.95225">
        <ele>2410</ele>
        <time>2019-01-20T10:50:59.000Z</time>
      </trkpt>
      <trkpt lat="45.15697" lon="5.95221">
        <ele>2410</ele>
        <time>2019-01-20T10:51:00.000Z</time>
      </trkpt>
      <trkpt lat="45.15697" lon="5.95221">
        <ele>2411</ele>
        <time>2019-01-20T10:51:01.000Z</time>
      </trkpt>
      <trkpt lat="45.15698" lon="5.9522">
        <ele>2411</ele>
        <time>2019-01-20T10:51:03.000Z</time>
      </trkpt>
      <trkpt lat="45.15698" lon="5.9522">
        <ele>2411</ele>
        <time>2019-01-20T10:51:04.000Z</time>
      </trkpt>
      <trkpt lat="45.15699" lon="5.95223">
        <ele>2412</ele>
        <time>2019-01-20T10:51:05.000Z</time>
      </trkpt>
      <trkpt lat="45.15699" lon="5.95223">
        <ele>2412</ele>
        <time>2019-01-20T10:51:06.000Z</time>
      </trkpt>
      <trkpt lat="45.15699" lon="5.95223">
        <ele>2412</ele>
        <time>2019-01-20T10:51:07.000Z</time>
      </trkpt>
      <trkpt lat="45.157" lon="5.95226">
        <ele>2412</ele>
        <time>2019-01-20T10:51:08.000Z</time>
      </trkpt>
      <trkpt lat="45.157" lon="5.95226">
        <ele>2412</ele>
        <time>2019-01-20T10:51:10.000Z</time>
      </trkpt>
      <trkpt lat="45.157" lon="5.95228">
        <ele>2413</ele>
        <time>2019-01-20T10:51:11.000Z</time>
      </trkpt>
      <trkpt lat="45.157" lon="5.95228">
        <ele>2413</ele>
        <time>2019-01-20T10:51:12.000Z</time>
      </trkpt>
      <trkpt lat="45.15701" lon="5.95231">
        <ele>2413</ele>
        <time>2019-01-20T10:51:13.000Z</time>
      </trkpt>
      <trkpt lat="45.15701" lon="5.95231">
        <ele>2413</ele>
        <time>2019-01-20T10:51:14.000Z</time>
      </trkpt>
      <trkpt lat="45.15701" lon="5.95231">
        <ele>2413</ele>
        <time>2019-01-20T10:51:15.000Z</time>
      </trkpt>
      <trkpt lat="45.15702" lon="5.95234">
        <ele>2413</ele>
        <time>2019-01-20T10:51:16.000Z</time>
      </trkpt>
      <trkpt lat="45.15702" lon="5.95234">
        <ele>2413</ele>
        <time>2019-01-20T10:51:17.000Z</time>
      </trkpt>
      <trkpt lat="45.15702" lon="5.95234">
        <ele>2414</ele>
        <time>2019-01-20T10:51:18.000Z</time>
      </trkpt>
      <trkpt lat="45.15702" lon="5.95237">
        <ele>2414</ele>
        <time>2019-01-20T10:51:19.000Z</time>
      </trkpt>
      <trkpt lat="45.15702" lon="5.95237">
        <ele>2414</ele>
        <time>2019-01-20T10:51:20.000Z</time>
      </trkpt>
      <trkpt lat="45.15702" lon="5.95241">
        <ele>2415.6</ele>
        <time>2019-01-20T10:51:22.000Z</time>
      </trkpt>
      <trkpt lat="45.15702" lon="5.95241">
        <ele>2416</ele>
        <time>2019-01-20T10:51:23.000Z</time>
      </trkpt>
      <trkpt lat="45.15702" lon="5.95241">
        <ele>2416</ele>
        <time>2019-01-20T10:51:24.000Z</time>
      </trkpt>
      <trkpt lat="45.15701" lon="5.95244">
        <ele>2417</ele>
        <time>2019-01-20T10:51:25.000Z</time>
      </trkpt>
      <trkpt lat="45.15701" lon="5.95244">
        <ele>2417</ele>
        <time>2019-01-20T10:51:26.000Z</time>
      </trkpt>
      <trkpt lat="45.157" lon="5.95246">
        <ele>2417</ele>
        <time>2019-01-20T10:51:27.000Z</time>
      </trkpt>
      <trkpt lat="45.157" lon="5.95246">
        <ele>2418</ele>
        <time>2019-01-20T10:51:28.000Z</time>
      </trkpt>
      <trkpt lat="45.157" lon="5.95246">
        <ele>2418</ele>
        <time>2019-01-20T10:51:29.000Z</time>
      </trkpt>
      <trkpt lat="45.15698" lon="5.95248">
        <ele>2418</ele>
        <time>2019-01-20T10:51:30.000Z</time>
      </trkpt>
      <trkpt lat="45.15698" lon="5.95248">
        <ele>2419</ele>
        <time>2019-01-20T10:51:31.000Z</time>
      </trkpt>
      <trkpt lat="45.15698" lon="5.95248">
        <ele>2419</ele>
        <time>2019-01-20T10:51:32.000Z</time>
      </trkpt>
      <trkpt lat="45.15698" lon="5.95248">
        <ele>2419</ele>
        <time>2019-01-20T10:51:33.000Z</time>
      </trkpt>
      <trkpt lat="45.15698" lon="5.95248">
        <ele>2419</ele>
        <time>2019-01-20T10:51:34.000Z</time>
      </trkpt>
      <trkpt lat="45.15701" lon="5.95247">
        <ele>2419</ele>
        <time>2019-01-20T10:51:35.000Z</time>
      </trkpt>
      <trkpt lat="45.15701" lon="5.95247">
        <ele>2419</ele>
        <time>2019-01-20T10:51:36.000Z</time>
      </trkpt>
      <trkpt lat="45.15701" lon="5.95247">
        <ele>2419</ele>
        <time>2019-01-20T10:51:37.000Z</time>
      </trkpt>
      <trkpt lat="45.15703" lon="5.95247">
        <ele>2419</ele>
        <time>2019-01-20T10:51:38.000Z</time>
      </trkpt>
      <trkpt lat="45.15703" lon="5.95247">
        <ele>2419</ele>
        <time>2019-01-20T10:51:39.000Z</time>
      </trkpt>
      <trkpt lat="45.15705" lon="5.95247">
        <ele>2419</ele>
        <time>2019-01-20T10:51:41.000Z</time>
      </trkpt>
      <trkpt lat="45.15705" lon="5.95247">
        <ele>2419</ele>
        <time>2019-01-20T10:51:42.000Z</time>
      </trkpt>
      <trkpt lat="45.15705" lon="5.95247">
        <ele>2420</ele>
        <time>2019-01-20T10:51:43.000Z</time>
      </trkpt>
      <trkpt lat="45.15708" lon="5.95246">
        <ele>2420</ele>
        <time>2019-01-20T10:51:44.000Z</time>
      </trkpt>
      <trkpt lat="45.15708" lon="5.95246">
        <ele>2421</ele>
        <time>2019-01-20T10:51:45.000Z</time>
      </trkpt>
      <trkpt lat="45.15708" lon="5.95246">
        <ele>2421</ele>
        <time>2019-01-20T10:51:46.000Z</time>
      </trkpt>
      <trkpt lat="45.1571" lon="5.95244">
        <ele>2421</ele>
        <time>2019-01-20T10:51:47.000Z</time>
      </trkpt>
      <trkpt lat="45.1571" lon="5.95244">
        <ele>2421</ele>
        <time>2019-01-20T10:51:48.000Z</time>
      </trkpt>
      <trkpt lat="45.1571" lon="5.95244">
        <ele>2421</ele>
        <time>2019-01-20T10:51:49.000Z</time>
      </trkpt>
      <trkpt lat="45.15712" lon="5.95242">
        <ele>2422</ele>
        <time>2019-01-20T10:51:50.000Z</time>
      </trkpt>
      <trkpt lat="45.15712" lon="5.95242">
        <ele>2422</ele>
        <time>2019-01-20T10:51:51.000Z</time>
      </trkpt>
      <trkpt lat="45.15712" lon="5.95242">
        <ele>2423</ele>
        <time>2019-01-20T10:51:52.000Z</time>
      </trkpt>
      <trkpt lat="45.15714" lon="5.9524">
        <ele>2423</ele>
        <time>2019-01-20T10:51:53.000Z</time>
      </trkpt>
      <trkpt lat="45.15714" lon="5.9524">
        <ele>2423</ele>
        <time>2019-01-20T10:51:54.000Z</time>
      </trkpt>
      <trkpt lat="45.15715" lon="5.95237">
        <ele>2423</ele>
        <time>2019-01-20T10:51:55.000Z</time>
      </trkpt>
      <trkpt lat="45.15715" lon="5.95237">
        <ele>2423</ele>
        <time>2019-01-20T10:51:56.000Z</time>
      </trkpt>
      <trkpt lat="45.15715" lon="5.95237">
        <ele>2423</ele>
        <time>2019-01-20T10:51:57.000Z</time>
      </trkpt>
      <trkpt lat="45.15716" lon="5.95235">
        <ele>2424</ele>
        <time>2019-01-20T10:51:58.000Z</time>
      </trkpt>
      <trkpt lat="45.15716" lon="5.95235">
        <ele>2424</ele>
        <time>2019-01-20T10:52:00.000Z</time>
      </trkpt>
      <trkpt lat="45.15716" lon="5.95235">
        <ele>2424</ele>
        <time>2019-01-20T10:52:01.000Z</time>
      </trkpt>
      <trkpt lat="45.15717" lon="5.95237">
        <ele>2424</ele>
        <time>2019-01-20T10:52:02.000Z</time>
      </trkpt>
      <trkpt lat="45.15717" lon="5.95237">
        <ele>2424</ele>
        <time>2019-01-20T10:52:03.000Z</time>
      </trkpt>
      <trkpt lat="45.15717" lon="5.95237">
        <ele>2425</ele>
        <time>2019-01-20T10:52:04.000Z</time>
      </trkpt>
      <trkpt lat="45.15718" lon="5.95241">
        <ele>2425</ele>
        <time>2019-01-20T10:52:05.000Z</time>
      </trkpt>
      <trkpt lat="45.15718" lon="5.95241">
        <ele>2425</ele>
        <time>2019-01-20T10:52:06.000Z</time>
      </trkpt>
      <trkpt lat="45.15718" lon="5.95241">
        <ele>2425</ele>
        <time>2019-01-20T10:52:07.000Z</time>
      </trkpt>
      <trkpt lat="45.15718" lon="5.95244">
        <ele>2426</ele>
        <time>2019-01-20T10:52:08.000Z</time>
      </trkpt>
      <trkpt lat="45.15718" lon="5.95244">
        <ele>2426</ele>
        <time>2019-01-20T10:52:09.000Z</time>
      </trkpt>
      <trkpt lat="45.15719" lon="5.95247">
        <ele>2426</ele>
        <time>2019-01-20T10:52:10.000Z</time>
      </trkpt>
      <trkpt lat="45.15719" lon="5.95247">
        <ele>2426</ele>
        <time>2019-01-20T10:52:11.000Z</time>
      </trkpt>
      <trkpt lat="45.1572" lon="5.95249">
        <ele>2426</ele>
        <time>2019-01-20T10:52:12.000Z</time>
      </trkpt>
      <trkpt lat="45.1572" lon="5.95249">
        <ele>2427</ele>
        <time>2019-01-20T10:52:13.000Z</time>
      </trkpt>
      <trkpt lat="45.15719" lon="5.95252">
        <ele>2428</ele>
        <time>2019-01-20T10:52:14.000Z</time>
      </trkpt>
      <trkpt lat="45.15719" lon="5.95252">
        <ele>2428</ele>
        <time>2019-01-20T10:52:15.000Z</time>
      </trkpt>
      <trkpt lat="45.15719" lon="5.95252">
        <ele>2428</ele>
        <time>2019-01-20T10:52:16.000Z</time>
      </trkpt>
      <trkpt lat="45.1572" lon="5.95256">
        <ele>2428</ele>
        <time>2019-01-20T10:52:17.000Z</time>
      </trkpt>
      <trkpt lat="45.1572" lon="5.95256">
        <ele>2428</ele>
        <time>2019-01-20T10:52:19.000Z</time>
      </trkpt>
      <trkpt lat="45.15719" lon="5.95259">
        <ele>2428</ele>
        <time>2019-01-20T10:52:20.000Z</time>
      </trkpt>
      <trkpt lat="45.15719" lon="5.95259">
        <ele>2428</ele>
        <time>2019-01-20T10:52:21.000Z</time>
      </trkpt>
      <trkpt lat="45.15719" lon="5.95259">
        <ele>2429</ele>
        <time>2019-01-20T10:52:22.000Z</time>
      </trkpt>
      <trkpt lat="45.15719" lon="5.95262">
        <ele>2429</ele>
        <time>2019-01-20T10:52:23.000Z</time>
      </trkpt>
      <trkpt lat="45.15719" lon="5.95262">
        <ele>2429</ele>
        <time>2019-01-20T10:52:24.000Z</time>
      </trkpt>
      <trkpt lat="45.15719" lon="5.95262">
        <ele>2429</ele>
        <time>2019-01-20T10:52:25.000Z</time>
      </trkpt>
      <trkpt lat="45.15719" lon="5.95265">
        <ele>2429</ele>
        <time>2019-01-20T10:52:26.000Z</time>
      </trkpt>
      <trkpt lat="45.15719" lon="5.95265">
        <ele>2430</ele>
        <time>2019-01-20T10:52:27.000Z</time>
      </trkpt>
      <trkpt lat="45.15719" lon="5.95265">
        <ele>2430</ele>
        <time>2019-01-20T10:52:28.000Z</time>
      </trkpt>
      <trkpt lat="45.15719" lon="5.95265">
        <ele>2430</ele>
        <time>2019-01-20T10:52:29.000Z</time>
      </trkpt>
      <trkpt lat="45.15719" lon="5.95265">
        <ele>2430</ele>
        <time>2019-01-20T10:52:30.000Z</time>
      </trkpt>
      <trkpt lat="45.15719" lon="5.95265">
        <ele>2430</ele>
        <time>2019-01-20T10:52:31.000Z</time>
      </trkpt>
      <trkpt lat="45.15721" lon="5.95265">
        <ele>2430</ele>
        <time>2019-01-20T10:52:32.000Z</time>
      </trkpt>
      <trkpt lat="45.15721" lon="5.95265">
        <ele>2431</ele>
        <time>2019-01-20T10:52:33.000Z</time>
      </trkpt>
      <trkpt lat="45.15721" lon="5.95265">
        <ele>2431</ele>
        <time>2019-01-20T10:52:34.000Z</time>
      </trkpt>
      <trkpt lat="45.15723" lon="5.95264">
        <ele>2432</ele>
        <time>2019-01-20T10:52:35.000Z</time>
      </trkpt>
      <trkpt lat="45.15723" lon="5.95264">
        <ele>2432</ele>
        <time>2019-01-20T10:52:36.000Z</time>
      </trkpt>
      <trkpt lat="45.15725" lon="5.95263">
        <ele>2432</ele>
        <time>2019-01-20T10:52:38.000Z</time>
      </trkpt>
      <trkpt lat="45.15725" lon="5.95263">
        <ele>2432</ele>
        <time>2019-01-20T10:52:39.000Z</time>
      </trkpt>
      <trkpt lat="45.15725" lon="5.95263">
        <ele>2432</ele>
        <time>2019-01-20T10:52:40.000Z</time>
      </trkpt>
      <trkpt lat="45.15728" lon="5.95262">
        <ele>2432</ele>
        <time>2019-01-20T10:52:41.000Z</time>
      </trkpt>
      <trkpt lat="45.15728" lon="5.95262">
        <ele>2432</ele>
        <time>2019-01-20T10:52:42.000Z</time>
      </trkpt>
      <trkpt lat="45.1573" lon="5.95261">
        <ele>2433</ele>
        <time>2019-01-20T10:52:43.000Z</time>
      </trkpt>
      <trkpt lat="45.1573" lon="5.95261">
        <ele>2433</ele>
        <time>2019-01-20T10:52:44.000Z</time>
      </trkpt>
      <trkpt lat="45.15732" lon="5.9526">
        <ele>2434</ele>
        <time>2019-01-20T10:52:45.000Z</time>
      </trkpt>
      <trkpt lat="45.15732" lon="5.9526">
        <ele>2434</ele>
        <time>2019-01-20T10:52:46.000Z</time>
      </trkpt>
      <trkpt lat="45.15732" lon="5.9526">
        <ele>2434</ele>
        <time>2019-01-20T10:52:47.000Z</time>
      </trkpt>
      <trkpt lat="45.15734" lon="5.95258">
        <ele>2434</ele>
        <time>2019-01-20T10:52:48.000Z</time>
      </trkpt>
      <trkpt lat="45.15734" lon="5.95258">
        <ele>2434</ele>
        <time>2019-01-20T10:52:49.000Z</time>
      </trkpt>
      <trkpt lat="45.15735" lon="5.95256">
        <ele>2434</ele>
        <time>2019-01-20T10:52:50.000Z</time>
      </trkpt>
      <trkpt lat="45.15735" lon="5.95256">
        <ele>2434</ele>
        <time>2019-01-20T10:52:51.000Z</time>
      </trkpt>
      <trkpt lat="45.15735" lon="5.95256">
        <ele>2434</ele>
        <time>2019-01-20T10:52:52.000Z</time>
      </trkpt>
      <trkpt lat="45.15737" lon="5.95254">
        <ele>2434</ele>
        <time>2019-01-20T10:52:53.000Z</time>
      </trkpt>
      <trkpt lat="45.15737" lon="5.95254">
        <ele>2435</ele>
        <time>2019-01-20T10:52:54.000Z</time>
      </trkpt>
      <trkpt lat="45.15737" lon="5.95254">
        <ele>2435</ele>
        <time>2019-01-20T10:52:55.000Z</time>
      </trkpt>
      <trkpt lat="45.15739" lon="5.95254">
        <ele>2435</ele>
        <time>2019-01-20T10:52:56.000Z</time>
      </trkpt>
      <trkpt lat="45.15739" lon="5.95254">
        <ele>2435</ele>
        <time>2019-01-20T10:52:57.000Z</time>
      </trkpt>
      <trkpt lat="45.15739" lon="5.95254">
        <ele>2435</ele>
        <time>2019-01-20T10:52:58.000Z</time>
      </trkpt>
      <trkpt lat="45.15741" lon="5.95257">
        <ele>2436</ele>
        <time>2019-01-20T10:52:59.000Z</time>
      </trkpt>
      <trkpt lat="45.15741" lon="5.95257">
        <ele>2436</ele>
        <time>2019-01-20T10:53:00.000Z</time>
      </trkpt>
      <trkpt lat="45.15741" lon="5.95259">
        <ele>2437</ele>
        <time>2019-01-20T10:53:01.000Z</time>
      </trkpt>
      <trkpt lat="45.15741" lon="5.95259">
        <ele>2437</ele>
        <time>2019-01-20T10:53:02.000Z</time>
      </trkpt>
      <trkpt lat="45.15743" lon="5.95262">
        <ele>2438</ele>
        <time>2019-01-20T10:53:03.000Z</time>
      </trkpt>
      <trkpt lat="45.15743" lon="5.95262">
        <ele>2438</ele>
        <time>2019-01-20T10:53:04.000Z</time>
      </trkpt>
      <trkpt lat="45.15743" lon="5.95262">
        <ele>2438</ele>
        <time>2019-01-20T10:53:05.000Z</time>
      </trkpt>
      <trkpt lat="45.15744" lon="5.95263">
        <ele>2438</ele>
        <time>2019-01-20T10:53:06.000Z</time>
      </trkpt>
      <trkpt lat="45.15744" lon="5.95263">
        <ele>2438</ele>
        <time>2019-01-20T10:53:07.000Z</time>
      </trkpt>
      <trkpt lat="45.15744" lon="5.95263">
        <ele>2439</ele>
        <time>2019-01-20T10:53:08.000Z</time>
      </trkpt>
      <trkpt lat="45.15747" lon="5.95265">
        <ele>2439</ele>
        <time>2019-01-20T10:53:09.000Z</time>
      </trkpt>
      <trkpt lat="45.15747" lon="5.95265">
        <ele>2440</ele>
        <time>2019-01-20T10:53:10.000Z</time>
      </trkpt>
      <trkpt lat="45.15748" lon="5.95266">
        <ele>2440</ele>
        <time>2019-01-20T10:53:11.000Z</time>
      </trkpt>
      <trkpt lat="45.15748" lon="5.95266">
        <ele>2440</ele>
        <time>2019-01-20T10:53:12.000Z</time>
      </trkpt>
      <trkpt lat="45.15748" lon="5.95266">
        <ele>2440</ele>
        <time>2019-01-20T10:53:13.000Z</time>
      </trkpt>
      <trkpt lat="45.15749" lon="5.95269">
        <ele>2440</ele>
        <time>2019-01-20T10:53:14.000Z</time>
      </trkpt>
      <trkpt lat="45.15749" lon="5.95269">
        <ele>2440.4</ele>
        <time>2019-01-20T10:53:16.000Z</time>
      </trkpt>
      <trkpt lat="45.1575" lon="5.95272">
        <ele>2441</ele>
        <time>2019-01-20T10:53:17.000Z</time>
      </trkpt>
      <trkpt lat="45.1575" lon="5.95272">
        <ele>2441</ele>
        <time>2019-01-20T10:53:18.000Z</time>
      </trkpt>
      <trkpt lat="45.1575" lon="5.95272">
        <ele>2442</ele>
        <time>2019-01-20T10:53:20.000Z</time>
      </trkpt>
      <trkpt lat="45.15751" lon="5.95275">
        <ele>2442</ele>
        <time>2019-01-20T10:53:21.000Z</time>
      </trkpt>
      <trkpt lat="45.15751" lon="5.95275">
        <ele>2442</ele>
        <time>2019-01-20T10:53:22.000Z</time>
      </trkpt>
      <trkpt lat="45.15751" lon="5.95275">
        <ele>2442</ele>
        <time>2019-01-20T10:53:23.000Z</time>
      </trkpt>
      <trkpt lat="45.15753" lon="5.95276">
        <ele>2443</ele>
        <time>2019-01-20T10:53:24.000Z</time>
      </trkpt>
      <trkpt lat="45.15753" lon="5.95276">
        <ele>2443</ele>
        <time>2019-01-20T10:53:25.000Z</time>
      </trkpt>
      <trkpt lat="45.15753" lon="5.95276">
        <ele>2443</ele>
        <time>2019-01-20T10:53:26.000Z</time>
      </trkpt>
      <trkpt lat="45.15755" lon="5.95278">
        <ele>2443</ele>
        <time>2019-01-20T10:53:27.000Z</time>
      </trkpt>
      <trkpt lat="45.15755" lon="5.95278">
        <ele>2443</ele>
        <time>2019-01-20T10:53:28.000Z</time>
      </trkpt>
      <trkpt lat="45.15755" lon="5.95278">
        <ele>2443</ele>
        <time>2019-01-20T10:53:29.000Z</time>
      </trkpt>
      <trkpt lat="45.15758" lon="5.95279">
        <ele>2444</ele>
        <time>2019-01-20T10:53:30.000Z</time>
      </trkpt>
      <trkpt lat="45.15758" lon="5.95279">
        <ele>2444</ele>
        <time>2019-01-20T10:53:31.000Z</time>
      </trkpt>
      <trkpt lat="45.1576" lon="5.95279">
        <ele>2445</ele>
        <time>2019-01-20T10:53:32.000Z</time>
      </trkpt>
      <trkpt lat="45.1576" lon="5.95279">
        <ele>2445</ele>
        <time>2019-01-20T10:53:33.000Z</time>
      </trkpt>
      <trkpt lat="45.15763" lon="5.9528">
        <ele>2445</ele>
        <time>2019-01-20T10:53:35.000Z</time>
      </trkpt>
      <trkpt lat="45.15763" lon="5.9528">
        <ele>2445</ele>
        <time>2019-01-20T10:53:36.000Z</time>
      </trkpt>
      <trkpt lat="45.15765" lon="5.9528">
        <ele>2445</ele>
        <time>2019-01-20T10:53:37.000Z</time>
      </trkpt>
      <trkpt lat="45.15765" lon="5.9528">
        <ele>2445</ele>
        <time>2019-01-20T10:53:38.000Z</time>
      </trkpt>
      <trkpt lat="45.15765" lon="5.9528">
        <ele>2446</ele>
        <time>2019-01-20T10:53:39.000Z</time>
      </trkpt>
      <trkpt lat="45.15767" lon="5.95281">
        <ele>2446</ele>
        <time>2019-01-20T10:53:40.000Z</time>
      </trkpt>
      <trkpt lat="45.15767" lon="5.95281">
        <ele>2447</ele>
        <time>2019-01-20T10:53:41.000Z</time>
      </trkpt>
      <trkpt lat="45.15767" lon="5.95281">
        <ele>2447</ele>
        <time>2019-01-20T10:53:42.000Z</time>
      </trkpt>
      <trkpt lat="45.15768" lon="5.95283">
        <ele>2447</ele>
        <time>2019-01-20T10:53:43.000Z</time>
      </trkpt>
      <trkpt lat="45.15768" lon="5.95283">
        <ele>2447</ele>
        <time>2019-01-20T10:53:44.000Z</time>
      </trkpt>
      <trkpt lat="45.1577" lon="5.95285">
        <ele>2447</ele>
        <time>2019-01-20T10:53:45.000Z</time>
      </trkpt>
      <trkpt lat="45.1577" lon="5.95285">
        <ele>2448</ele>
        <time>2019-01-20T10:53:46.000Z</time>
      </trkpt>
      <trkpt lat="45.1577" lon="5.95285">
        <ele>2448</ele>
        <time>2019-01-20T10:53:47.000Z</time>
      </trkpt>
      <trkpt lat="45.15772" lon="5.95286">
        <ele>2448</ele>
        <time>2019-01-20T10:53:48.000Z</time>
      </trkpt>
      <trkpt lat="45.15772" lon="5.95286">
        <ele>2449</ele>
        <time>2019-01-20T10:53:49.000Z</time>
      </trkpt>
      <trkpt lat="45.15774" lon="5.95288">
        <ele>2449</ele>
        <time>2019-01-20T10:53:50.000Z</time>
      </trkpt>
      <trkpt lat="45.15774" lon="5.95288">
        <ele>2449</ele>
        <time>2019-01-20T10:53:51.000Z</time>
      </trkpt>
      <trkpt lat="45.15774" lon="5.95288">
        <ele>2449</ele>
        <time>2019-01-20T10:53:52.000Z</time>
      </trkpt>
      <trkpt lat="45.15774" lon="5.95288">
        <ele>2449.6</ele>
        <time>2019-01-20T10:53:54.000Z</time>
      </trkpt>
      <trkpt lat="45.15774" lon="5.95288">
        <ele>2450</ele>
        <time>2019-01-20T10:53:55.000Z</time>
      </trkpt>
      <trkpt lat="45.15773" lon="5.95291">
        <ele>2450</ele>
        <time>2019-01-20T10:53:56.000Z</time>
      </trkpt>
      <trkpt lat="45.15773" lon="5.95291">
        <ele>2450</ele>
        <time>2019-01-20T10:53:57.000Z</time>
      </trkpt>
      <trkpt lat="45.15773" lon="5.95291">
        <ele>2450</ele>
        <time>2019-01-20T10:53:58.000Z</time>
      </trkpt>
      <trkpt lat="45.15773" lon="5.95291">
        <ele>2450</ele>
        <time>2019-01-20T10:53:59.000Z</time>
      </trkpt>
      <trkpt lat="45.15772" lon="5.95292">
        <ele>2451</ele>
        <time>2019-01-20T10:54:00.000Z</time>
      </trkpt>
      <trkpt lat="45.15772" lon="5.95292">
        <ele>2451</ele>
        <time>2019-01-20T10:54:01.000Z</time>
      </trkpt>
      <trkpt lat="45.15772" lon="5.95292">
        <ele>2452</ele>
        <time>2019-01-20T10:54:02.000Z</time>
      </trkpt>
      <trkpt lat="45.15772" lon="5.95292">
        <ele>2452</ele>
        <time>2019-01-20T10:54:03.000Z</time>
      </trkpt>
      <trkpt lat="45.1577" lon="5.95295">
        <ele>2452</ele>
        <time>2019-01-20T10:54:04.000Z</time>
      </trkpt>
      <trkpt lat="45.1577" lon="5.95295">
        <ele>2452</ele>
        <time>2019-01-20T10:54:05.000Z</time>
      </trkpt>
      <trkpt lat="45.1577" lon="5.95295">
        <ele>2452</ele>
        <time>2019-01-20T10:54:06.000Z</time>
      </trkpt>
      <trkpt lat="45.15769" lon="5.95298">
        <ele>2452</ele>
        <time>2019-01-20T10:54:07.000Z</time>
      </trkpt>
      <trkpt lat="45.15769" lon="5.95298">
        <ele>2453</ele>
        <time>2019-01-20T10:54:08.000Z</time>
      </trkpt>
      <trkpt lat="45.15769" lon="5.95298">
        <ele>2453</ele>
        <time>2019-01-20T10:54:09.000Z</time>
      </trkpt>
      <trkpt lat="45.15767" lon="5.95301">
        <ele>2453</ele>
        <time>2019-01-20T10:54:10.000Z</time>
      </trkpt>
      <trkpt lat="45.15767" lon="5.95301">
        <ele>2453</ele>
        <time>2019-01-20T10:54:11.000Z</time>
      </trkpt>
      <trkpt lat="45.15766" lon="5.95302">
        <ele>2453</ele>
        <time>2019-01-20T10:54:12.000Z</time>
      </trkpt>
      <trkpt lat="45.15766" lon="5.95302">
        <ele>2454</ele>
        <time>2019-01-20T10:54:13.000Z</time>
      </trkpt>
      <trkpt lat="45.15766" lon="5.95302">
        <ele>2454</ele>
        <time>2019-01-20T10:54:14.000Z</time>
      </trkpt>
      <trkpt lat="45.15764" lon="5.95305">
        <ele>2454</ele>
        <time>2019-01-20T10:54:15.000Z</time>
      </trkpt>
      <trkpt lat="45.15764" lon="5.95305">
        <ele>2455</ele>
        <time>2019-01-20T10:54:16.000Z</time>
      </trkpt>
      <trkpt lat="45.15764" lon="5.95305">
        <ele>2455</ele>
        <time>2019-01-20T10:54:17.000Z</time>
      </trkpt>
      <trkpt lat="45.15763" lon="5.95308">
        <ele>2455</ele>
        <time>2019-01-20T10:54:18.000Z</time>
      </trkpt>
      <trkpt lat="45.15763" lon="5.95308">
        <ele>2455.6</ele>
        <time>2019-01-20T10:54:20.000Z</time>
      </trkpt>
      <trkpt lat="45.15761" lon="5.9531">
        <ele>2456</ele>
        <time>2019-01-20T10:54:21.000Z</time>
      </trkpt>
      <trkpt lat="45.15761" lon="5.9531">
        <ele>2456</ele>
        <time>2019-01-20T10:54:22.000Z</time>
      </trkpt>
      <trkpt lat="45.15761" lon="5.9531">
        <ele>2457</ele>
        <time>2019-01-20T10:54:24.000Z</time>
      </trkpt>
      <trkpt lat="45.1576" lon="5.95312">
        <ele>2457</ele>
        <time>2019-01-20T10:54:25.000Z</time>
      </trkpt>
      <trkpt lat="45.1576" lon="5.95312">
        <ele>2457</ele>
        <time>2019-01-20T10:54:26.000Z</time>
      </trkpt>
      <trkpt lat="45.15758" lon="5.95314">
        <ele>2457</ele>
        <time>2019-01-20T10:54:27.000Z</time>
      </trkpt>
      <trkpt lat="45.15758" lon="5.95314">
        <ele>2457</ele>
        <time>2019-01-20T10:54:28.000Z</time>
      </trkpt>
      <trkpt lat="45.15758" lon="5.95314">
        <ele>2458</ele>
        <time>2019-01-20T10:54:29.000Z</time>
      </trkpt>
      <trkpt lat="45.15756" lon="5.95316">
        <ele>2458</ele>
        <time>2019-01-20T10:54:30.000Z</time>
      </trkpt>
      <trkpt lat="45.15755" lon="5.95318">
        <ele>2458</ele>
        <time>2019-01-20T10:54:32.000Z</time>
      </trkpt>
      <trkpt lat="45.15755" lon="5.95318">
        <ele>2458</ele>
        <time>2019-01-20T10:54:33.000Z</time>
      </trkpt>
      <trkpt lat="45.15755" lon="5.95318">
        <ele>2458</ele>
        <time>2019-01-20T10:54:34.000Z</time>
      </trkpt>
      <trkpt lat="45.15753" lon="5.9532">
        <ele>2459</ele>
        <time>2019-01-20T10:54:35.000Z</time>
      </trkpt>
      <trkpt lat="45.15753" lon="5.9532">
        <ele>2460</ele>
        <time>2019-01-20T10:54:36.000Z</time>
      </trkpt>
      <trkpt lat="45.15751" lon="5.95322">
        <ele>2460</ele>
        <time>2019-01-20T10:54:37.000Z</time>
      </trkpt>
      <trkpt lat="45.15751" lon="5.95322">
        <ele>2460</ele>
        <time>2019-01-20T10:54:38.000Z</time>
      </trkpt>
      <trkpt lat="45.15749" lon="5.95323">
        <ele>2460</ele>
        <time>2019-01-20T10:54:39.000Z</time>
      </trkpt>
      <trkpt lat="45.15749" lon="5.95323">
        <ele>2461</ele>
        <time>2019-01-20T10:54:40.000Z</time>
      </trkpt>
      <trkpt lat="45.15747" lon="5.95324">
        <ele>2461</ele>
        <time>2019-01-20T10:54:41.000Z</time>
      </trkpt>
      <trkpt lat="45.15747" lon="5.95324">
        <ele>2461</ele>
        <time>2019-01-20T10:54:42.000Z</time>
      </trkpt>
      <trkpt lat="45.15745" lon="5.95325">
        <ele>2462</ele>
        <time>2019-01-20T10:54:43.000Z</time>
      </trkpt>
      <trkpt lat="45.15745" lon="5.95325">
        <ele>2462</ele>
        <time>2019-01-20T10:54:44.000Z</time>
      </trkpt>
      <trkpt lat="45.15745" lon="5.95325">
        <ele>2462</ele>
        <time>2019-01-20T10:54:45.000Z</time>
      </trkpt>
      <trkpt lat="45.15743" lon="5.95325">
        <ele>2462</ele>
        <time>2019-01-20T10:54:46.000Z</time>
      </trkpt>
      <trkpt lat="45.15743" lon="5.95325">
        <ele>2461</ele>
        <time>2019-01-20T10:54:47.000Z</time>
      </trkpt>
      <trkpt lat="45.15743" lon="5.95325">
        <ele>2461</ele>
        <time>2019-01-20T10:54:48.000Z</time>
      </trkpt>
      <trkpt lat="45.15743" lon="5.95325">
        <ele>2462</ele>
        <time>2019-01-20T10:54:49.000Z</time>
      </trkpt>
      <trkpt lat="45.15743" lon="5.95325">
        <ele>2462</ele>
        <time>2019-01-20T10:54:51.000Z</time>
      </trkpt>
      <trkpt lat="45.15746" lon="5.95326">
        <ele>2462</ele>
        <time>2019-01-20T10:54:52.000Z</time>
      </trkpt>
      <trkpt lat="45.15746" lon="5.95326">
        <ele>2462</ele>
        <time>2019-01-20T10:54:53.000Z</time>
      </trkpt>
      <trkpt lat="45.15746" lon="5.95326">
        <ele>2462</ele>
        <time>2019-01-20T10:54:54.000Z</time>
      </trkpt>
      <trkpt lat="45.15748" lon="5.95328">
        <ele>2462</ele>
        <time>2019-01-20T10:54:55.000Z</time>
      </trkpt>
      <trkpt lat="45.15748" lon="5.95328">
        <ele>2462</ele>
        <time>2019-01-20T10:54:56.000Z</time>
      </trkpt>
      <trkpt lat="45.1575" lon="5.9533">
        <ele>2463</ele>
        <time>2019-01-20T10:54:57.000Z</time>
      </trkpt>
      <trkpt lat="45.1575" lon="5.9533">
        <ele>2463</ele>
        <time>2019-01-20T10:54:58.000Z</time>
      </trkpt>
      <trkpt lat="45.1575" lon="5.9533">
        <ele>2463</ele>
        <time>2019-01-20T10:54:59.000Z</time>
      </trkpt>
      <trkpt lat="45.15752" lon="5.95332">
        <ele>2463</ele>
        <time>2019-01-20T10:55:00.000Z</time>
      </trkpt>
      <trkpt lat="45.15752" lon="5.95332">
        <ele>2463</ele>
        <time>2019-01-20T10:55:01.000Z</time>
      </trkpt>
      <trkpt lat="45.15752" lon="5.95332">
        <ele>2463</ele>
        <time>2019-01-20T10:55:02.000Z</time>
      </trkpt>
      <trkpt lat="45.15754" lon="5.95333">
        <ele>2464</ele>
        <time>2019-01-20T10:55:03.000Z</time>
      </trkpt>
      <trkpt lat="45.15754" lon="5.95333">
        <ele>2464</ele>
        <time>2019-01-20T10:55:04.000Z</time>
      </trkpt>
      <trkpt lat="45.15756" lon="5.95334">
        <ele>2464</ele>
        <time>2019-01-20T10:55:05.000Z</time>
      </trkpt>
      <trkpt lat="45.15756" lon="5.95334">
        <ele>2464</ele>
        <time>2019-01-20T10:55:06.000Z</time>
      </trkpt>
      <trkpt lat="45.15758" lon="5.95335">
        <ele>2464</ele>
        <time>2019-01-20T10:55:07.000Z</time>
      </trkpt>
      <trkpt lat="45.15758" lon="5.95335">
        <ele>2465</ele>
        <time>2019-01-20T10:55:08.000Z</time>
      </trkpt>
      <trkpt lat="45.1576" lon="5.95336">
        <ele>2465</ele>
        <time>2019-01-20T10:55:10.000Z</time>
      </trkpt>
      <trkpt lat="45.1576" lon="5.95336">
        <ele>2465</ele>
        <time>2019-01-20T10:55:11.000Z</time>
      </trkpt>
      <trkpt lat="45.1576" lon="5.95336">
        <ele>2466</ele>
        <time>2019-01-20T10:55:12.000Z</time>
      </trkpt>
      <trkpt lat="45.15762" lon="5.95337">
        <ele>2466</ele>
        <time>2019-01-20T10:55:13.000Z</time>
      </trkpt>
      <trkpt lat="45.15762" lon="5.95337">
        <ele>2466</ele>
        <time>2019-01-20T10:55:14.000Z</time>
      </trkpt>
      <trkpt lat="45.15764" lon="5.95337">
        <ele>2467</ele>
        <time>2019-01-20T10:55:15.000Z</time>
      </trkpt>
      <trkpt lat="45.15764" lon="5.95337">
        <ele>2467</ele>
        <time>2019-01-20T10:55:16.000Z</time>
      </trkpt>
      <trkpt lat="45.15766" lon="5.95338">
        <ele>2467</ele>
        <time>2019-01-20T10:55:17.000Z</time>
      </trkpt>
      <trkpt lat="45.15766" lon="5.95338">
        <ele>2467</ele>
        <time>2019-01-20T10:55:18.000Z</time>
      </trkpt>
      <trkpt lat="45.15766" lon="5.95338">
        <ele>2468</ele>
        <time>2019-01-20T10:55:19.000Z</time>
      </trkpt>
      <trkpt lat="45.15769" lon="5.95339">
        <ele>2468</ele>
        <time>2019-01-20T10:55:20.000Z</time>
      </trkpt>
      <trkpt lat="45.15769" lon="5.95339">
        <ele>2468</ele>
        <time>2019-01-20T10:55:21.000Z</time>
      </trkpt>
      <trkpt lat="45.1577" lon="5.9534">
        <ele>2468</ele>
        <time>2019-01-20T10:55:22.000Z</time>
      </trkpt>
      <trkpt lat="45.1577" lon="5.9534">
        <ele>2469</ele>
        <time>2019-01-20T10:55:24.000Z</time>
      </trkpt>
      <trkpt lat="45.15773" lon="5.95341">
        <ele>2469</ele>
        <time>2019-01-20T10:55:25.000Z</time>
      </trkpt>
      <trkpt lat="45.15773" lon="5.95341">
        <ele>2469</ele>
        <time>2019-01-20T10:55:26.000Z</time>
      </trkpt>
      <trkpt lat="45.15775" lon="5.95342">
        <ele>2470</ele>
        <time>2019-01-20T10:55:27.000Z</time>
      </trkpt>
      <trkpt lat="45.15777" lon="5.95343">
        <ele>2470</ele>
        <time>2019-01-20T10:55:29.000Z</time>
      </trkpt>
      <trkpt lat="45.15777" lon="5.95343">
        <ele>2470</ele>
        <time>2019-01-20T10:55:30.000Z</time>
      </trkpt>
      <trkpt lat="45.15777" lon="5.95343">
        <ele>2470</ele>
        <time>2019-01-20T10:55:31.000Z</time>
      </trkpt>
      <trkpt lat="45.1578" lon="5.95343">
        <ele>2470</ele>
        <time>2019-01-20T10:55:32.000Z</time>
      </trkpt>
      <trkpt lat="45.1578" lon="5.95343">
        <ele>2471</ele>
        <time>2019-01-20T10:55:33.000Z</time>
      </trkpt>
      <trkpt lat="45.15782" lon="5.95344">
        <ele>2471</ele>
        <time>2019-01-20T10:55:34.000Z</time>
      </trkpt>
      <trkpt lat="45.15782" lon="5.95344">
        <ele>2471</ele>
        <time>2019-01-20T10:55:35.000Z</time>
      </trkpt>
      <trkpt lat="45.15782" lon="5.95344">
        <ele>2472</ele>
        <time>2019-01-20T10:55:36.000Z</time>
      </trkpt>
      <trkpt lat="45.15784" lon="5.95344">
        <ele>2472</ele>
        <time>2019-01-20T10:55:37.000Z</time>
      </trkpt>
      <trkpt lat="45.15784" lon="5.95344">
        <ele>2472</ele>
        <time>2019-01-20T10:55:38.000Z</time>
      </trkpt>
      <trkpt lat="45.15786" lon="5.95344">
        <ele>2473</ele>
        <time>2019-01-20T10:55:39.000Z</time>
      </trkpt>
      <trkpt lat="45.15786" lon="5.95344">
        <ele>2473</ele>
        <time>2019-01-20T10:55:40.000Z</time>
      </trkpt>
      <trkpt lat="45.15786" lon="5.95344">
        <ele>2473</ele>
        <time>2019-01-20T10:55:41.000Z</time>
      </trkpt>
      <trkpt lat="45.15786" lon="5.95344">
        <ele>2473</ele>
        <time>2019-01-20T10:55:42.000Z</time>
      </trkpt>
      <trkpt lat="45.15786" lon="5.95344">
        <ele>2473</ele>
        <time>2019-01-20T10:55:43.000Z</time>
      </trkpt>
      <trkpt lat="45.15786" lon="5.95344">
        <ele>2474</ele>
        <time>2019-01-20T10:55:44.000Z</time>
      </trkpt>
      <trkpt lat="45.15786" lon="5.95344">
        <ele>2474</ele>
        <time>2019-01-20T10:55:45.000Z</time>
      </trkpt>
      <trkpt lat="45.15784" lon="5.95346">
        <ele>2474</ele>
        <time>2019-01-20T10:55:46.000Z</time>
      </trkpt>
      <trkpt lat="45.15784" lon="5.95346">
        <ele>2474</ele>
        <time>2019-01-20T10:55:48.000Z</time>
      </trkpt>
      <trkpt lat="45.15783" lon="5.95348">
        <ele>2474</ele>
        <time>2019-01-20T10:55:49.000Z</time>
      </trkpt>
      <trkpt lat="45.15783" lon="5.95348">
        <ele>2475</ele>
        <time>2019-01-20T10:55:50.000Z</time>
      </trkpt>
      <trkpt lat="45.15783" lon="5.95348">
        <ele>2475</ele>
        <time>2019-01-20T10:55:51.000Z</time>
      </trkpt>
      <trkpt lat="45.15781" lon="5.9535">
        <ele>2475</ele>
        <time>2019-01-20T10:55:52.000Z</time>
      </trkpt>
      <trkpt lat="45.15781" lon="5.9535">
        <ele>2475</ele>
        <time>2019-01-20T10:55:53.000Z</time>
      </trkpt>
      <trkpt lat="45.15781" lon="5.9535">
        <ele>2475</ele>
        <time>2019-01-20T10:55:54.000Z</time>
      </trkpt>
      <trkpt lat="45.15779" lon="5.95353">
        <ele>2475</ele>
        <time>2019-01-20T10:55:55.000Z</time>
      </trkpt>
      <trkpt lat="45.15779" lon="5.95353">
        <ele>2475</ele>
        <time>2019-01-20T10:55:56.000Z</time>
      </trkpt>
      <trkpt lat="45.15777" lon="5.95354">
        <ele>2476</ele>
        <time>2019-01-20T10:55:57.000Z</time>
      </trkpt>
      <trkpt lat="45.15777" lon="5.95354">
        <ele>2476</ele>
        <time>2019-01-20T10:55:58.000Z</time>
      </trkpt>
      <trkpt lat="45.15777" lon="5.95354">
        <ele>2476</ele>
        <time>2019-01-20T10:55:59.000Z</time>
      </trkpt>
      <trkpt lat="45.15775" lon="5.95357">
        <ele>2477</ele>
        <time>2019-01-20T10:56:00.000Z</time>
      </trkpt>
      <trkpt lat="45.15775" lon="5.95357">
        <ele>2477</ele>
        <time>2019-01-20T10:56:01.000Z</time>
      </trkpt>
      <trkpt lat="45.15775" lon="5.95357">
        <ele>2478</ele>
        <time>2019-01-20T10:56:02.000Z</time>
      </trkpt>
      <trkpt lat="45.15775" lon="5.95357">
        <ele>2478</ele>
        <time>2019-01-20T10:56:03.000Z</time>
      </trkpt>
      <trkpt lat="45.15774" lon="5.95359">
        <ele>2478</ele>
        <time>2019-01-20T10:56:04.000Z</time>
      </trkpt>
      <trkpt lat="45.15774" lon="5.95359">
        <ele>2478</ele>
        <time>2019-01-20T10:56:05.000Z</time>
      </trkpt>
      <trkpt lat="45.15772" lon="5.95362">
        <ele>2478</ele>
        <time>2019-01-20T10:56:07.000Z</time>
      </trkpt>
      <trkpt lat="45.15772" lon="5.95362">
        <ele>2478</ele>
        <time>2019-01-20T10:56:08.000Z</time>
      </trkpt>
      <trkpt lat="45.15771" lon="5.95364">
        <ele>2478</ele>
        <time>2019-01-20T10:56:09.000Z</time>
      </trkpt>
      <trkpt lat="45.15771" lon="5.95364">
        <ele>2479</ele>
        <time>2019-01-20T10:56:10.000Z</time>
      </trkpt>
      <trkpt lat="45.15769" lon="5.95366">
        <ele>2479</ele>
        <time>2019-01-20T10:56:11.000Z</time>
      </trkpt>
      <trkpt lat="45.15769" lon="5.95366">
        <ele>2479</ele>
        <time>2019-01-20T10:56:12.000Z</time>
      </trkpt>
      <trkpt lat="45.15767" lon="5.95368">
        <ele>2479</ele>
        <time>2019-01-20T10:56:13.000Z</time>
      </trkpt>
      <trkpt lat="45.15767" lon="5.95368">
        <ele>2479</ele>
        <time>2019-01-20T10:56:14.000Z</time>
      </trkpt>
      <trkpt lat="45.15765" lon="5.9537">
        <ele>2480</ele>
        <time>2019-01-20T10:56:15.000Z</time>
      </trkpt>
      <trkpt lat="45.15765" lon="5.9537">
        <ele>2480</ele>
        <time>2019-01-20T10:56:16.000Z</time>
      </trkpt>
      <trkpt lat="45.15765" lon="5.9537">
        <ele>2480</ele>
        <time>2019-01-20T10:56:17.000Z</time>
      </trkpt>
      <trkpt lat="45.15765" lon="5.9537">
        <ele>2480</ele>
        <time>2019-01-20T10:56:18.000Z</time>
      </trkpt>
      <trkpt lat="45.15765" lon="5.9537">
        <ele>2480</ele>
        <time>2019-01-20T10:56:19.000Z</time>
      </trkpt>
      <trkpt lat="45.15765" lon="5.9537">
        <ele>2480</ele>
        <time>2019-01-20T10:56:20.000Z</time>
      </trkpt>
      <trkpt lat="45.15765" lon="5.9537">
        <ele>2480</ele>
        <time>2019-01-20T10:56:21.000Z</time>
      </trkpt>
      <trkpt lat="45.15765" lon="5.9537">
        <ele>2480</ele>
        <time>2019-01-20T10:56:23.000Z</time>
      </trkpt>
      <trkpt lat="45.15759" lon="5.95377">
        <ele>2480</ele>
        <time>2019-01-20T10:56:24.000Z</time>
      </trkpt>
      <trkpt lat="45.15757" lon="5.95378">
        <ele>2480.4</ele>
        <time>2019-01-20T10:56:26.000Z</time>
      </trkpt>
      <trkpt lat="45.15757" lon="5.95378">
        <ele>2481</ele>
        <time>2019-01-20T10:56:27.000Z</time>
      </trkpt>
      <trkpt lat="45.15755" lon="5.95379">
        <ele>2481</ele>
        <time>2019-01-20T10:56:28.000Z</time>
      </trkpt>
      <trkpt lat="45.15755" lon="5.95379">
        <ele>2482</ele>
        <time>2019-01-20T10:56:29.000Z</time>
      </trkpt>
      <trkpt lat="45.15753" lon="5.95381">
        <ele>2482</ele>
        <time>2019-01-20T10:56:30.000Z</time>
      </trkpt>
      <trkpt lat="45.15753" lon="5.95381">
        <ele>2483</ele>
        <time>2019-01-20T10:56:31.000Z</time>
      </trkpt>
      <trkpt lat="45.15752" lon="5.95382">
        <ele>2483</ele>
        <time>2019-01-20T10:56:32.000Z</time>
      </trkpt>
      <trkpt lat="45.15752" lon="5.95382">
        <ele>2483</ele>
        <time>2019-01-20T10:56:33.000Z</time>
      </trkpt>
      <trkpt lat="45.1575" lon="5.95382">
        <ele>2483</ele>
        <time>2019-01-20T10:56:34.000Z</time>
      </trkpt>
      <trkpt lat="45.1575" lon="5.95382">
        <ele>2483</ele>
        <time>2019-01-20T10:56:35.000Z</time>
      </trkpt>
      <trkpt lat="45.15748" lon="5.95383">
        <ele>2483</ele>
        <time>2019-01-20T10:56:36.000Z</time>
      </trkpt>
      <trkpt lat="45.15748" lon="5.95383">
        <ele>2483</ele>
        <time>2019-01-20T10:56:37.000Z</time>
      </trkpt>
      <trkpt lat="45.15748" lon="5.95383">
        <ele>2483</ele>
        <time>2019-01-20T10:56:38.000Z</time>
      </trkpt>
      <trkpt lat="45.15745" lon="5.95383">
        <ele>2484</ele>
        <time>2019-01-20T10:56:39.000Z</time>
      </trkpt>
      <trkpt lat="45.15745" lon="5.95383">
        <ele>2484</ele>
        <time>2019-01-20T10:56:40.000Z</time>
      </trkpt>
      <trkpt lat="45.15743" lon="5.95384">
        <ele>2484</ele>
        <time>2019-01-20T10:56:41.000Z</time>
      </trkpt>
      <trkpt lat="45.15743" lon="5.95384">
        <ele>2485</ele>
        <time>2019-01-20T10:56:42.000Z</time>
      </trkpt>
      <trkpt lat="45.15741" lon="5.95384">
        <ele>2485</ele>
        <time>2019-01-20T10:56:43.000Z</time>
      </trkpt>
      <trkpt lat="45.15739" lon="5.95385">
        <ele>2485</ele>
        <time>2019-01-20T10:56:45.000Z</time>
      </trkpt>
      <trkpt lat="45.15739" lon="5.95385">
        <ele>2485</ele>
        <time>2019-01-20T10:56:46.000Z</time>
      </trkpt>
      <trkpt lat="45.15737" lon="5.95385">
        <ele>2485</ele>
        <time>2019-01-20T10:56:47.000Z</time>
      </trkpt>
      <trkpt lat="45.15737" lon="5.95385">
        <ele>2486</ele>
        <time>2019-01-20T10:56:48.000Z</time>
      </trkpt>
      <trkpt lat="45.15737" lon="5.95385">
        <ele>2486</ele>
        <time>2019-01-20T10:56:49.000Z</time>
      </trkpt>
      <trkpt lat="45.15734" lon="5.95386">
        <ele>2486</ele>
        <time>2019-01-20T10:56:50.000Z</time>
      </trkpt>
      <trkpt lat="45.15734" lon="5.95386">
        <ele>2487</ele>
        <time>2019-01-20T10:56:51.000Z</time>
      </trkpt>
      <trkpt lat="45.15732" lon="5.95386">
        <ele>2487</ele>
        <time>2019-01-20T10:56:52.000Z</time>
      </trkpt>
      <trkpt lat="45.15732" lon="5.95386">
        <ele>2487</ele>
        <time>2019-01-20T10:56:53.000Z</time>
      </trkpt>
      <trkpt lat="45.15732" lon="5.95386">
        <ele>2487</ele>
        <time>2019-01-20T10:56:54.000Z</time>
      </trkpt>
      <trkpt lat="45.1573" lon="5.95385">
        <ele>2487</ele>
        <time>2019-01-20T10:56:55.000Z</time>
      </trkpt>
      <trkpt lat="45.1573" lon="5.95385">
        <ele>2487</ele>
        <time>2019-01-20T10:56:56.000Z</time>
      </trkpt>
      <trkpt lat="45.1573" lon="5.95385">
        <ele>2487</ele>
        <time>2019-01-20T10:56:57.000Z</time>
      </trkpt>
      <trkpt lat="45.15728" lon="5.95384">
        <ele>2488</ele>
        <time>2019-01-20T10:56:58.000Z</time>
      </trkpt>
      <trkpt lat="45.15728" lon="5.95384">
        <ele>2488</ele>
        <time>2019-01-20T10:56:59.000Z</time>
      </trkpt>
      <trkpt lat="45.15728" lon="5.95384">
        <ele>2490</ele>
        <time>2019-01-20T10:57:00.000Z</time>
      </trkpt>
      <trkpt lat="45.15726" lon="5.95384">
        <ele>2490</ele>
        <time>2019-01-20T10:57:01.000Z</time>
      </trkpt>
      <trkpt lat="45.15726" lon="5.95384">
        <ele>2490</ele>
        <time>2019-01-20T10:57:02.000Z</time>
      </trkpt>
      <trkpt lat="45.15726" lon="5.95384">
        <ele>2490</ele>
        <time>2019-01-20T10:57:04.000Z</time>
      </trkpt>
      <trkpt lat="45.15726" lon="5.95384">
        <ele>2490</ele>
        <time>2019-01-20T10:57:05.000Z</time>
      </trkpt>
      <trkpt lat="45.15726" lon="5.95384">
        <ele>2490</ele>
        <time>2019-01-20T10:57:06.000Z</time>
      </trkpt>
      <trkpt lat="45.15726" lon="5.95384">
        <ele>2490</ele>
        <time>2019-01-20T10:57:07.000Z</time>
      </trkpt>
      <trkpt lat="45.15726" lon="5.95384">
        <ele>2491</ele>
        <time>2019-01-20T10:57:08.000Z</time>
      </trkpt>
      <trkpt lat="45.15726" lon="5.95384">
        <ele>2491</ele>
        <time>2019-01-20T10:57:09.000Z</time>
      </trkpt>
      <trkpt lat="45.15727" lon="5.95386">
        <ele>2491</ele>
        <time>2019-01-20T10:57:10.000Z</time>
      </trkpt>
      <trkpt lat="45.15727" lon="5.95386">
        <ele>2491</ele>
        <time>2019-01-20T10:57:11.000Z</time>
      </trkpt>
      <trkpt lat="45.15727" lon="5.95386">
        <ele>2491</ele>
        <time>2019-01-20T10:57:12.000Z</time>
      </trkpt>
      <trkpt lat="45.15728" lon="5.95389">
        <ele>2491</ele>
        <time>2019-01-20T10:57:13.000Z</time>
      </trkpt>
      <trkpt lat="45.15728" lon="5.95389">
        <ele>2492</ele>
        <time>2019-01-20T10:57:14.000Z</time>
      </trkpt>
      <trkpt lat="45.15728" lon="5.95389">
        <ele>2492</ele>
        <time>2019-01-20T10:57:15.000Z</time>
      </trkpt>
      <trkpt lat="45.15729" lon="5.95392">
        <ele>2492</ele>
        <time>2019-01-20T10:57:16.000Z</time>
      </trkpt>
      <trkpt lat="45.15729" lon="5.95392">
        <ele>2492</ele>
        <time>2019-01-20T10:57:17.000Z</time>
      </trkpt>
      <trkpt lat="45.15729" lon="5.95392">
        <ele>2492</ele>
        <time>2019-01-20T10:57:18.000Z</time>
      </trkpt>
      <trkpt lat="45.15731" lon="5.95395">
        <ele>2492</ele>
        <time>2019-01-20T10:57:19.000Z</time>
      </trkpt>
      <trkpt lat="45.15731" lon="5.95395">
        <ele>2492.4</ele>
        <time>2019-01-20T10:57:20.000Z</time>
      </trkpt>
      <trkpt lat="45.15732" lon="5.95397">
        <ele>2493</ele>
        <time>2019-01-20T10:57:21.000Z</time>
      </trkpt>
      <trkpt lat="45.15734" lon="5.95399">
        <ele>2493</ele>
        <time>2019-01-20T10:57:23.000Z</time>
      </trkpt>
      <trkpt lat="45.15734" lon="5.95399">
        <ele>2493</ele>
        <time>2019-01-20T10:57:24.000Z</time>
      </trkpt>
      <trkpt lat="45.15735" lon="5.95401">
        <ele>2494</ele>
        <time>2019-01-20T10:57:25.000Z</time>
      </trkpt>
      <trkpt lat="45.15735" lon="5.95401">
        <ele>2494</ele>
        <time>2019-01-20T10:57:26.000Z</time>
      </trkpt>
      <trkpt lat="45.15736" lon="5.95403">
        <ele>2494</ele>
        <time>2019-01-20T10:57:27.000Z</time>
      </trkpt>
      <trkpt lat="45.15736" lon="5.95403">
        <ele>2494</ele>
        <time>2019-01-20T10:57:28.000Z</time>
      </trkpt>
      <trkpt lat="45.15738" lon="5.95405">
        <ele>2494</ele>
        <time>2019-01-20T10:57:29.000Z</time>
      </trkpt>
      <trkpt lat="45.15738" lon="5.95405">
        <ele>2495</ele>
        <time>2019-01-20T10:57:30.000Z</time>
      </trkpt>
      <trkpt lat="45.15738" lon="5.95405">
        <ele>2495</ele>
        <time>2019-01-20T10:57:31.000Z</time>
      </trkpt>
      <trkpt lat="45.1574" lon="5.95407">
        <ele>2495</ele>
        <time>2019-01-20T10:57:32.000Z</time>
      </trkpt>
      <trkpt lat="45.1574" lon="5.95407">
        <ele>2496</ele>
        <time>2019-01-20T10:57:33.000Z</time>
      </trkpt>
      <trkpt lat="45.15742" lon="5.95409">
        <ele>2496</ele>
        <time>2019-01-20T10:57:34.000Z</time>
      </trkpt>
      <trkpt lat="45.15742" lon="5.95409">
        <ele>2496</ele>
        <time>2019-01-20T10:57:35.000Z</time>
      </trkpt>
      <trkpt lat="45.15744" lon="5.9541">
        <ele>2496</ele>
        <time>2019-01-20T10:57:36.000Z</time>
      </trkpt>
      <trkpt lat="45.15744" lon="5.9541">
        <ele>2496</ele>
        <time>2019-01-20T10:57:37.000Z</time>
      </trkpt>
      <trkpt lat="45.15745" lon="5.95411">
        <ele>2496</ele>
        <time>2019-01-20T10:57:38.000Z</time>
      </trkpt>
      <trkpt lat="45.15747" lon="5.95412">
        <ele>2496</ele>
        <time>2019-01-20T10:57:40.000Z</time>
      </trkpt>
      <trkpt lat="45.15749" lon="5.95414">
        <ele>2496.4</ele>
        <time>2019-01-20T10:57:42.000Z</time>
      </trkpt>
      <trkpt lat="45.15749" lon="5.95414">
        <ele>2497</ele>
        <time>2019-01-20T10:57:43.000Z</time>
      </trkpt>
      <trkpt lat="45.15749" lon="5.95414">
        <ele>2498</ele>
        <time>2019-01-20T10:57:44.000Z</time>
      </trkpt>
      <trkpt lat="45.15752" lon="5.95416">
        <ele>2498</ele>
        <time>2019-01-20T10:57:45.000Z</time>
      </trkpt>
      <trkpt lat="45.15752" lon="5.95416">
        <ele>2498</ele>
        <time>2019-01-20T10:57:46.000Z</time>
      </trkpt>
      <trkpt lat="45.15752" lon="5.95416">
        <ele>2498</ele>
        <time>2019-01-20T10:57:47.000Z</time>
      </trkpt>
      <trkpt lat="45.15754" lon="5.95416">
        <ele>2498</ele>
        <time>2019-01-20T10:57:48.000Z</time>
      </trkpt>
      <trkpt lat="45.15754" lon="5.95416">
        <ele>2498</ele>
        <time>2019-01-20T10:57:49.000Z</time>
      </trkpt>
      <trkpt lat="45.15754" lon="5.95416">
        <ele>2499</ele>
        <time>2019-01-20T10:57:50.000Z</time>
      </trkpt>
      <trkpt lat="45.15754" lon="5.95416">
        <ele>2499</ele>
        <time>2019-01-20T10:57:51.000Z</time>
      </trkpt>
      <trkpt lat="45.15754" lon="5.95416">
        <ele>2499</ele>
        <time>2019-01-20T10:57:52.000Z</time>
      </trkpt>
      <trkpt lat="45.15754" lon="5.95416">
        <ele>2499</ele>
        <time>2019-01-20T10:57:53.000Z</time>
      </trkpt>
      <trkpt lat="45.15754" lon="5.95416">
        <ele>2500</ele>
        <time>2019-01-20T10:57:54.000Z</time>
      </trkpt>
      <trkpt lat="45.15754" lon="5.95416">
        <ele>2500</ele>
        <time>2019-01-20T10:57:55.000Z</time>
      </trkpt>
      <trkpt lat="45.15754" lon="5.95416">
        <ele>2500</ele>
        <time>2019-01-20T10:57:56.000Z</time>
      </trkpt>
      <trkpt lat="45.15753" lon="5.95419">
        <ele>2501</ele>
        <time>2019-01-20T10:57:57.000Z</time>
      </trkpt>
      <trkpt lat="45.15753" lon="5.95419">
        <ele>2501</ele>
        <time>2019-01-20T10:57:58.000Z</time>
      </trkpt>
      <trkpt lat="45.15752" lon="5.95421">
        <ele>2501</ele>
        <time>2019-01-20T10:57:59.000Z</time>
      </trkpt>
      <trkpt lat="45.15752" lon="5.95421">
        <ele>2501</ele>
        <time>2019-01-20T10:58:01.000Z</time>
      </trkpt>
      <trkpt lat="45.1575" lon="5.95422">
        <ele>2501</ele>
        <time>2019-01-20T10:58:02.000Z</time>
      </trkpt>
      <trkpt lat="45.1575" lon="5.95422">
        <ele>2501</ele>
        <time>2019-01-20T10:58:03.000Z</time>
      </trkpt>
      <trkpt lat="45.15749" lon="5.95422">
        <ele>2501</ele>
        <time>2019-01-20T10:58:04.000Z</time>
      </trkpt>
      <trkpt lat="45.15749" lon="5.95423">
        <ele>2502</ele>
        <time>2019-01-20T10:58:05.000Z</time>
      </trkpt>
      <trkpt lat="45.15748" lon="5.95423">
        <ele>2502</ele>
        <time>2019-01-20T10:58:06.000Z</time>
      </trkpt>
      <trkpt lat="45.15748" lon="5.95423">
        <ele>2503</ele>
        <time>2019-01-20T10:58:07.000Z</time>
      </trkpt>
      <trkpt lat="45.15748" lon="5.95423">
        <ele>2503</ele>
        <time>2019-01-20T10:58:08.000Z</time>
      </trkpt>
      <trkpt lat="45.15742" lon="5.95428">
        <ele>2503</ele>
        <time>2019-01-20T10:58:09.000Z</time>
      </trkpt>
      <trkpt lat="45.15742" lon="5.95428">
        <ele>2503</ele>
        <time>2019-01-20T10:58:10.000Z</time>
      </trkpt>
      <trkpt lat="45.15742" lon="5.95428">
        <ele>2503</ele>
        <time>2019-01-20T10:58:11.000Z</time>
      </trkpt>
      <trkpt lat="45.15741" lon="5.95429">
        <ele>2504</ele>
        <time>2019-01-20T10:58:12.000Z</time>
      </trkpt>
      <trkpt lat="45.15741" lon="5.95429">
        <ele>2504</ele>
        <time>2019-01-20T10:58:13.000Z</time>
      </trkpt>
      <trkpt lat="45.15741" lon="5.95429">
        <ele>2504</ele>
        <time>2019-01-20T10:58:14.000Z</time>
      </trkpt>
      <trkpt lat="45.15739" lon="5.95431">
        <ele>2504</ele>
        <time>2019-01-20T10:58:15.000Z</time>
      </trkpt>
      <trkpt lat="45.15739" lon="5.95431">
        <ele>2504</ele>
        <time>2019-01-20T10:58:16.000Z</time>
      </trkpt>
      <trkpt lat="45.15737" lon="5.95432">
        <ele>2505</ele>
        <time>2019-01-20T10:58:17.000Z</time>
      </trkpt>
      <trkpt lat="45.15737" lon="5.95432">
        <ele>2505</ele>
        <time>2019-01-20T10:58:18.000Z</time>
      </trkpt>
      <trkpt lat="45.15735" lon="5.95433">
        <ele>2505</ele>
        <time>2019-01-20T10:58:19.000Z</time>
      </trkpt>
      <trkpt lat="45.15735" lon="5.95433">
        <ele>2506</ele>
        <time>2019-01-20T10:58:20.000Z</time>
      </trkpt>
      <trkpt lat="45.15735" lon="5.95433">
        <ele>2506</ele>
        <time>2019-01-20T10:58:21.000Z</time>
      </trkpt>
      <trkpt lat="45.15735" lon="5.95433">
        <ele>2506</ele>
        <time>2019-01-20T10:58:22.000Z</time>
      </trkpt>
      <trkpt lat="45.15732" lon="5.95434">
        <ele>2506</ele>
        <time>2019-01-20T10:58:23.000Z</time>
      </trkpt>
      <trkpt lat="45.15732" lon="5.95434">
        <ele>2506</ele>
        <time>2019-01-20T10:58:24.000Z</time>
      </trkpt>
      <trkpt lat="45.15729" lon="5.95435">
        <ele>2508</ele>
        <time>2019-01-20T10:58:25.000Z</time>
      </trkpt>
      <trkpt lat="45.15729" lon="5.95435">
        <ele>2508</ele>
        <time>2019-01-20T10:58:26.000Z</time>
      </trkpt>
      <trkpt lat="45.15727" lon="5.95435">
        <ele>2508</ele>
        <time>2019-01-20T10:58:27.000Z</time>
      </trkpt>
      <trkpt lat="45.15727" lon="5.95435">
        <ele>2508</ele>
        <time>2019-01-20T10:58:28.000Z</time>
      </trkpt>
      <trkpt lat="45.15725" lon="5.95436">
        <ele>2508</ele>
        <time>2019-01-20T10:58:29.000Z</time>
      </trkpt>
      <trkpt lat="45.15725" lon="5.95436">
        <ele>2509</ele>
        <time>2019-01-20T10:58:30.000Z</time>
      </trkpt>
      <trkpt lat="45.15723" lon="5.95436">
        <ele>2509</ele>
        <time>2019-01-20T10:58:31.000Z</time>
      </trkpt>
      <trkpt lat="45.15723" lon="5.95436">
        <ele>2509</ele>
        <time>2019-01-20T10:58:32.000Z</time>
      </trkpt>
      <trkpt lat="45.1572" lon="5.95436">
        <ele>2509</ele>
        <time>2019-01-20T10:58:33.000Z</time>
      </trkpt>
      <trkpt lat="45.1572" lon="5.95436">
        <ele>2509</ele>
        <time>2019-01-20T10:58:34.000Z</time>
      </trkpt>
      <trkpt lat="45.15718" lon="5.95436">
        <ele>2510</ele>
        <time>2019-01-20T10:58:35.000Z</time>
      </trkpt>
      <trkpt lat="45.15718" lon="5.95436">
        <ele>2510</ele>
        <time>2019-01-20T10:58:36.000Z</time>
      </trkpt>
      <trkpt lat="45.15718" lon="5.95436">
        <ele>2510</ele>
        <time>2019-01-20T10:58:37.000Z</time>
      </trkpt>
      <trkpt lat="45.15716" lon="5.95435">
        <ele>2510</ele>
        <time>2019-01-20T10:58:38.000Z</time>
      </trkpt>
      <trkpt lat="45.15716" lon="5.95435">
        <ele>2510</ele>
        <time>2019-01-20T10:58:39.000Z</time>
      </trkpt>
      <trkpt lat="45.15716" lon="5.95435">
        <ele>2510</ele>
        <time>2019-01-20T10:58:40.000Z</time>
      </trkpt>
      <trkpt lat="45.15712" lon="5.95434">
        <ele>2511</ele>
        <time>2019-01-20T10:58:41.000Z</time>
      </trkpt>
      <trkpt lat="45.15712" lon="5.95434">
        <ele>2512</ele>
        <time>2019-01-20T10:58:42.000Z</time>
      </trkpt>
      <trkpt lat="45.1571" lon="5.95433">
        <ele>2512</ele>
        <time>2019-01-20T10:58:43.000Z</time>
      </trkpt>
      <trkpt lat="45.1571" lon="5.95433">
        <ele>2512</ele>
        <time>2019-01-20T10:58:44.000Z</time>
      </trkpt>
      <trkpt lat="45.1571" lon="5.95433">
        <ele>2512</ele>
        <time>2019-01-20T10:58:45.000Z</time>
      </trkpt>
      <trkpt lat="45.15709" lon="5.95431">
        <ele>2513</ele>
        <time>2019-01-20T10:58:46.000Z</time>
      </trkpt>
      <trkpt lat="45.15709" lon="5.95431">
        <ele>2513</ele>
        <time>2019-01-20T10:58:47.000Z</time>
      </trkpt>
      <trkpt lat="45.15709" lon="5.95431">
        <ele>2513</ele>
        <time>2019-01-20T10:58:48.000Z</time>
      </trkpt>
      <trkpt lat="45.15709" lon="5.95431">
        <ele>2513</ele>
        <time>2019-01-20T10:58:49.000Z</time>
      </trkpt>
      <trkpt lat="45.15709" lon="5.95431">
        <ele>2513</ele>
        <time>2019-01-20T10:58:50.000Z</time>
      </trkpt>
      <trkpt lat="45.15709" lon="5.95431">
        <ele>2513</ele>
        <time>2019-01-20T10:58:51.000Z</time>
      </trkpt>
      <trkpt lat="45.15709" lon="5.95431">
        <ele>2513</ele>
        <time>2019-01-20T10:58:52.000Z</time>
      </trkpt>
      <trkpt lat="45.1571" lon="5.95434">
        <ele>2513</ele>
        <time>2019-01-20T10:58:53.000Z</time>
      </trkpt>
      <trkpt lat="45.1571" lon="5.95434">
        <ele>2513</ele>
        <time>2019-01-20T10:58:54.000Z</time>
      </trkpt>
      <trkpt lat="45.1571" lon="5.95434">
        <ele>2514</ele>
        <time>2019-01-20T10:58:55.000Z</time>
      </trkpt>
      <trkpt lat="45.15711" lon="5.95438">
        <ele>2514</ele>
        <time>2019-01-20T10:58:56.000Z</time>
      </trkpt>
      <trkpt lat="45.15711" lon="5.95438">
        <ele>2514</ele>
        <time>2019-01-20T10:58:58.000Z</time>
      </trkpt>
      <trkpt lat="45.1571" lon="5.95442">
        <ele>2514</ele>
        <time>2019-01-20T10:58:59.000Z</time>
      </trkpt>
      <trkpt lat="45.1571" lon="5.95442">
        <ele>2514</ele>
        <time>2019-01-20T10:59:00.000Z</time>
      </trkpt>
      <trkpt lat="45.15711" lon="5.95446">
        <ele>2514</ele>
        <time>2019-01-20T10:59:01.000Z</time>
      </trkpt>
      <trkpt lat="45.15711" lon="5.95446">
        <ele>2514</ele>
        <time>2019-01-20T10:59:02.000Z</time>
      </trkpt>
      <trkpt lat="45.15711" lon="5.95446">
        <ele>2515</ele>
        <time>2019-01-20T10:59:03.000Z</time>
      </trkpt>
      <trkpt lat="45.15712" lon="5.95449">
        <ele>2515</ele>
        <time>2019-01-20T10:59:04.000Z</time>
      </trkpt>
      <trkpt lat="45.15712" lon="5.95449">
        <ele>2515</ele>
        <time>2019-01-20T10:59:05.000Z</time>
      </trkpt>
      <trkpt lat="45.15712" lon="5.95449">
        <ele>2515</ele>
        <time>2019-01-20T10:59:06.000Z</time>
      </trkpt>
      <trkpt lat="45.15712" lon="5.95449">
        <ele>2516</ele>
        <time>2019-01-20T10:59:07.000Z</time>
      </trkpt>
      <trkpt lat="45.15713" lon="5.95452">
        <ele>2516</ele>
        <time>2019-01-20T10:59:08.000Z</time>
      </trkpt>
      <trkpt lat="45.15713" lon="5.95452">
        <ele>2516</ele>
        <time>2019-01-20T10:59:09.000Z</time>
      </trkpt>
      <trkpt lat="45.15713" lon="5.95452">
        <ele>2516</ele>
        <time>2019-01-20T10:59:10.000Z</time>
      </trkpt>
      <trkpt lat="45.15715" lon="5.95454">
        <ele>2516</ele>
        <time>2019-01-20T10:59:11.000Z</time>
      </trkpt>
      <trkpt lat="45.15715" lon="5.95454">
        <ele>2517</ele>
        <time>2019-01-20T10:59:12.000Z</time>
      </trkpt>
      <trkpt lat="45.15715" lon="5.95454">
        <ele>2517</ele>
        <time>2019-01-20T10:59:13.000Z</time>
      </trkpt>
      <trkpt lat="45.15715" lon="5.95454">
        <ele>2517</ele>
        <time>2019-01-20T10:59:14.000Z</time>
      </trkpt>
      <trkpt lat="45.15715" lon="5.95454">
        <ele>2518</ele>
        <time>2019-01-20T10:59:15.000Z</time>
      </trkpt>
      <trkpt lat="45.15716" lon="5.95458">
        <ele>2518</ele>
        <time>2019-01-20T10:59:16.000Z</time>
      </trkpt>
      <trkpt lat="45.15716" lon="5.95458">
        <ele>2518</ele>
        <time>2019-01-20T10:59:17.000Z</time>
      </trkpt>
      <trkpt lat="45.15716" lon="5.95458">
        <ele>2518</ele>
        <time>2019-01-20T10:59:18.000Z</time>
      </trkpt>
      <trkpt lat="45.15718" lon="5.95461">
        <ele>2518</ele>
        <time>2019-01-20T10:59:19.000Z</time>
      </trkpt>
      <trkpt lat="45.15718" lon="5.95461">
        <ele>2518</ele>
        <time>2019-01-20T10:59:20.000Z</time>
      </trkpt>
      <trkpt lat="45.1572" lon="5.95463">
        <ele>2518</ele>
        <time>2019-01-20T10:59:21.000Z</time>
      </trkpt>
      <trkpt lat="45.1572" lon="5.95463">
        <ele>2520</ele>
        <time>2019-01-20T10:59:23.000Z</time>
      </trkpt>
      <trkpt lat="45.15722" lon="5.95465">
        <ele>2520</ele>
        <time>2019-01-20T10:59:24.000Z</time>
      </trkpt>
      <trkpt lat="45.15722" lon="5.95465">
        <ele>2520</ele>
        <time>2019-01-20T10:59:25.000Z</time>
      </trkpt>
      <trkpt lat="45.15722" lon="5.95466">
        <ele>2520</ele>
        <time>2019-01-20T10:59:26.000Z</time>
      </trkpt>
      <trkpt lat="45.15722" lon="5.95466">
        <ele>2520</ele>
        <time>2019-01-20T10:59:27.000Z</time>
      </trkpt>
      <trkpt lat="45.15723" lon="5.95466">
        <ele>2521</ele>
        <time>2019-01-20T10:59:28.000Z</time>
      </trkpt>
      <trkpt lat="45.15723" lon="5.95466">
        <ele>2521</ele>
        <time>2019-01-20T10:59:29.000Z</time>
      </trkpt>
      <trkpt lat="45.15723" lon="5.95467">
        <ele>2521</ele>
        <time>2019-01-20T10:59:30.000Z</time>
      </trkpt>
      <trkpt lat="45.15723" lon="5.95467">
        <ele>2521</ele>
        <time>2019-01-20T10:59:31.000Z</time>
      </trkpt>
      <trkpt lat="45.15724" lon="5.95467">
        <ele>2522</ele>
        <time>2019-01-20T10:59:32.000Z</time>
      </trkpt>
      <trkpt lat="45.15724" lon="5.95467">
        <ele>2522</ele>
        <time>2019-01-20T10:59:33.000Z</time>
      </trkpt>
      <trkpt lat="45.15724" lon="5.95468">
        <ele>2522</ele>
        <time>2019-01-20T10:59:34.000Z</time>
      </trkpt>
      <trkpt lat="45.1573" lon="5.95474">
        <ele>2523</ele>
        <time>2019-01-20T10:59:36.000Z</time>
      </trkpt>
      <trkpt lat="45.1573" lon="5.95474">
        <ele>2523</ele>
        <time>2019-01-20T10:59:37.000Z</time>
      </trkpt>
      <trkpt lat="45.1573" lon="5.95474">
        <ele>2524</ele>
        <time>2019-01-20T10:59:38.000Z</time>
      </trkpt>
      <trkpt lat="45.1573" lon="5.95474">
        <ele>2524</ele>
        <time>2019-01-20T10:59:39.000Z</time>
      </trkpt>
      <trkpt lat="45.1573" lon="5.95474">
        <ele>2524</ele>
        <time>2019-01-20T10:59:40.000Z</time>
      </trkpt>
      <trkpt lat="45.1573" lon="5.95474">
        <ele>2524</ele>
        <time>2019-01-20T10:59:41.000Z</time>
      </trkpt>
      <trkpt lat="45.1573" lon="5.95474">
        <ele>2524</ele>
        <time>2019-01-20T10:59:42.000Z</time>
      </trkpt>
      <trkpt lat="45.1573" lon="5.95474">
        <ele>2525</ele>
        <time>2019-01-20T10:59:43.000Z</time>
      </trkpt>
      <trkpt lat="45.1573" lon="5.95474">
        <ele>2525</ele>
        <time>2019-01-20T10:59:44.000Z</time>
      </trkpt>
      <trkpt lat="45.15729" lon="5.95477">
        <ele>2525</ele>
        <time>2019-01-20T10:59:45.000Z</time>
      </trkpt>
      <trkpt lat="45.15729" lon="5.95477">
        <ele>2525</ele>
        <time>2019-01-20T10:59:46.000Z</time>
      </trkpt>
      <trkpt lat="45.15729" lon="5.95477">
        <ele>2526</ele>
        <time>2019-01-20T10:59:47.000Z</time>
      </trkpt>
      <trkpt lat="45.15728" lon="5.95479">
        <ele>2526</ele>
        <time>2019-01-20T10:59:48.000Z</time>
      </trkpt>
      <trkpt lat="45.15728" lon="5.95479">
        <ele>2526</ele>
        <time>2019-01-20T10:59:49.000Z</time>
      </trkpt>
      <trkpt lat="45.15727" lon="5.95479">
        <ele>2526</ele>
        <time>2019-01-20T10:59:50.000Z</time>
      </trkpt>
      <trkpt lat="45.15727" lon="5.95479">
        <ele>2526</ele>
        <time>2019-01-20T10:59:51.000Z</time>
      </trkpt>
      <trkpt lat="45.15727" lon="5.9548">
        <ele>2526</ele>
        <time>2019-01-20T10:59:52.000Z</time>
      </trkpt>
      <trkpt lat="45.15726" lon="5.9548">
        <ele>2526</ele>
        <time>2019-01-20T10:59:53.000Z</time>
      </trkpt>
      <trkpt lat="45.15726" lon="5.9548">
        <ele>2526.4</ele>
        <time>2019-01-20T10:59:55.000Z</time>
      </trkpt>
      <trkpt lat="45.15726" lon="5.9548">
        <ele>2527</ele>
        <time>2019-01-20T10:59:56.000Z</time>
      </trkpt>
      <trkpt lat="45.15726" lon="5.9548">
        <ele>2527</ele>
        <time>2019-01-20T10:59:57.000Z</time>
      </trkpt>
      <trkpt lat="45.15724" lon="5.95481">
        <ele>2527</ele>
        <time>2019-01-20T10:59:58.000Z</time>
      </trkpt>
      <trkpt lat="45.15723" lon="5.95481">
        <ele>2528</ele>
        <time>2019-01-20T10:59:59.000Z</time>
      </trkpt>
      <trkpt lat="45.15722" lon="5.95482">
        <ele>2528</ele>
        <time>2019-01-20T11:00:00.000Z</time>
      </trkpt>
      <trkpt lat="45.15721" lon="5.95482">
        <ele>2528</ele>
        <time>2019-01-20T11:00:01.000Z</time>
      </trkpt>
      <trkpt lat="45.15719" lon="5.95483">
        <ele>2529</ele>
        <time>2019-01-20T11:00:02.000Z</time>
      </trkpt>
      <trkpt lat="45.15718" lon="5.95483">
        <ele>2529</ele>
        <time>2019-01-20T11:00:03.000Z</time>
      </trkpt>
      <trkpt lat="45.15717" lon="5.95484">
        <ele>2529</ele>
        <time>2019-01-20T11:00:04.000Z</time>
      </trkpt>
      <trkpt lat="45.15717" lon="5.95484">
        <ele>2529</ele>
        <time>2019-01-20T11:00:05.000Z</time>
      </trkpt>
      <trkpt lat="45.1571" lon="5.95487">
        <ele>2529</ele>
        <time>2019-01-20T11:00:06.000Z</time>
      </trkpt>
      <trkpt lat="45.1571" lon="5.95487">
        <ele>2529</ele>
        <time>2019-01-20T11:00:07.000Z</time>
      </trkpt>
      <trkpt lat="45.1571" lon="5.95487">
        <ele>2530</ele>
        <time>2019-01-20T11:00:08.000Z</time>
      </trkpt>
      <trkpt lat="45.15708" lon="5.95488">
        <ele>2530</ele>
        <time>2019-01-20T11:00:09.000Z</time>
      </trkpt>
      <trkpt lat="45.15708" lon="5.95488">
        <ele>2530</ele>
        <time>2019-01-20T11:00:10.000Z</time>
      </trkpt>
      <trkpt lat="45.15706" lon="5.95488">
        <ele>2530</ele>
        <time>2019-01-20T11:00:11.000Z</time>
      </trkpt>
      <trkpt lat="45.15706" lon="5.95488">
        <ele>2530</ele>
        <time>2019-01-20T11:00:12.000Z</time>
      </trkpt>
      <trkpt lat="45.15703" lon="5.95489">
        <ele>2530</ele>
        <time>2019-01-20T11:00:14.000Z</time>
      </trkpt>
      <trkpt lat="45.15703" lon="5.95489">
        <ele>2530</ele>
        <time>2019-01-20T11:00:15.000Z</time>
      </trkpt>
      <trkpt lat="45.15701" lon="5.95489">
        <ele>2532</ele>
        <time>2019-01-20T11:00:16.000Z</time>
      </trkpt>
      <trkpt lat="45.15701" lon="5.95489">
        <ele>2532</ele>
        <time>2019-01-20T11:00:17.000Z</time>
      </trkpt>
      <trkpt lat="45.15701" lon="5.95489">
        <ele>2533</ele>
        <time>2019-01-20T11:00:18.000Z</time>
      </trkpt>
      <trkpt lat="45.15698" lon="5.95488">
        <ele>2533</ele>
        <time>2019-01-20T11:00:19.000Z</time>
      </trkpt>
      <trkpt lat="45.15698" lon="5.95488">
        <ele>2533</ele>
        <time>2019-01-20T11:00:20.000Z</time>
      </trkpt>
      <trkpt lat="45.15698" lon="5.95488">
        <ele>2534</ele>
        <time>2019-01-20T11:00:21.000Z</time>
      </trkpt>
      <trkpt lat="45.15696" lon="5.95487">
        <ele>2534</ele>
        <time>2019-01-20T11:00:22.000Z</time>
      </trkpt>
      <trkpt lat="45.15696" lon="5.95487">
        <ele>2534</ele>
        <time>2019-01-20T11:00:23.000Z</time>
      </trkpt>
      <trkpt lat="45.15696" lon="5.95487">
        <ele>2534</ele>
        <time>2019-01-20T11:00:25.000Z</time>
      </trkpt>
      <trkpt lat="45.15694" lon="5.95487">
        <ele>2534</ele>
        <time>2019-01-20T11:00:26.000Z</time>
      </trkpt>
      <trkpt lat="45.15694" lon="5.95487">
        <ele>2534</ele>
        <time>2019-01-20T11:00:27.000Z</time>
      </trkpt>
      <trkpt lat="45.15694" lon="5.95487">
        <ele>2534</ele>
        <time>2019-01-20T11:00:28.000Z</time>
      </trkpt>
      <trkpt lat="45.15694" lon="5.95487">
        <ele>2534</ele>
        <time>2019-01-20T11:00:29.000Z</time>
      </trkpt>
      <trkpt lat="45.15694" lon="5.95487">
        <ele>2534</ele>
        <time>2019-01-20T11:00:30.000Z</time>
      </trkpt>
      <trkpt lat="45.15694" lon="5.95488">
        <ele>2535</ele>
        <time>2019-01-20T11:00:31.000Z</time>
      </trkpt>
      <trkpt lat="45.15695" lon="5.95488">
        <ele>2535</ele>
        <time>2019-01-20T11:00:33.000Z</time>
      </trkpt>
      <trkpt lat="45.15695" lon="5.95488">
        <ele>2535</ele>
        <time>2019-01-20T11:00:34.000Z</time>
      </trkpt>
      <trkpt lat="45.15695" lon="5.95489">
        <ele>2535</ele>
        <time>2019-01-20T11:00:35.000Z</time>
      </trkpt>
      <trkpt lat="45.15695" lon="5.95489">
        <ele>2535</ele>
        <time>2019-01-20T11:00:36.000Z</time>
      </trkpt>
      <trkpt lat="45.15695" lon="5.95489">
        <ele>2536</ele>
        <time>2019-01-20T11:00:37.000Z</time>
      </trkpt>
      <trkpt lat="45.15695" lon="5.95489">
        <ele>2536</ele>
        <time>2019-01-20T11:00:38.000Z</time>
      </trkpt>
      <trkpt lat="45.15699" lon="5.95497">
        <ele>2536</ele>
        <time>2019-01-20T11:00:39.000Z</time>
      </trkpt>
      <trkpt lat="45.15699" lon="5.95497">
        <ele>2536</ele>
        <time>2019-01-20T11:00:40.000Z</time>
      </trkpt>
      <trkpt lat="45.15701" lon="5.95499">
        <ele>2537</ele>
        <time>2019-01-20T11:00:41.000Z</time>
      </trkpt>
      <trkpt lat="45.15701" lon="5.95499">
        <ele>2537</ele>
        <time>2019-01-20T11:00:42.000Z</time>
      </trkpt>
      <trkpt lat="45.15704" lon="5.95502">
        <ele>2537</ele>
        <time>2019-01-20T11:00:43.000Z</time>
      </trkpt>
      <trkpt lat="45.15704" lon="5.95502">
        <ele>2537</ele>
        <time>2019-01-20T11:00:44.000Z</time>
      </trkpt>
      <trkpt lat="45.15704" lon="5.95502">
        <ele>2537</ele>
        <time>2019-01-20T11:00:45.000Z</time>
      </trkpt>
      <trkpt lat="45.15705" lon="5.95504">
        <ele>2538</ele>
        <time>2019-01-20T11:00:46.000Z</time>
      </trkpt>
      <trkpt lat="45.15705" lon="5.95504">
        <ele>2538</ele>
        <time>2019-01-20T11:00:47.000Z</time>
      </trkpt>
      <trkpt lat="45.15707" lon="5.95506">
        <ele>2538</ele>
        <time>2019-01-20T11:00:48.000Z</time>
      </trkpt>
      <trkpt lat="45.15707" lon="5.95506">
        <ele>2538</ele>
        <time>2019-01-20T11:00:49.000Z</time>
      </trkpt>
      <trkpt lat="45.15709" lon="5.95507">
        <ele>2538</ele>
        <time>2019-01-20T11:00:50.000Z</time>
      </trkpt>
      <trkpt lat="45.15709" lon="5.95507">
        <ele>2539</ele>
        <time>2019-01-20T11:00:52.000Z</time>
      </trkpt>
      <trkpt lat="45.15711" lon="5.95509">
        <ele>2539</ele>
        <time>2019-01-20T11:00:53.000Z</time>
      </trkpt>
      <trkpt lat="45.15711" lon="5.95509">
        <ele>2540</ele>
        <time>2019-01-20T11:00:55.000Z</time>
      </trkpt>
      <trkpt lat="45.15713" lon="5.95511">
        <ele>2540</ele>
        <time>2019-01-20T11:00:56.000Z</time>
      </trkpt>
      <trkpt lat="45.15713" lon="5.95511">
        <ele>2540</ele>
        <time>2019-01-20T11:00:57.000Z</time>
      </trkpt>
      <trkpt lat="45.15714" lon="5.95511">
        <ele>2541</ele>
        <time>2019-01-20T11:00:58.000Z</time>
      </trkpt>
      <trkpt lat="45.15714" lon="5.95511">
        <ele>2541</ele>
        <time>2019-01-20T11:00:59.000Z</time>
      </trkpt>
      <trkpt lat="45.15714" lon="5.95511">
        <ele>2541</ele>
        <time>2019-01-20T11:01:00.000Z</time>
      </trkpt>
      <trkpt lat="45.15714" lon="5.95511">
        <ele>2542</ele>
        <time>2019-01-20T11:01:01.000Z</time>
      </trkpt>
      <trkpt lat="45.15715" lon="5.95511">
        <ele>2542</ele>
        <time>2019-01-20T11:01:02.000Z</time>
      </trkpt>
      <trkpt lat="45.15715" lon="5.95511">
        <ele>2542</ele>
        <time>2019-01-20T11:01:03.000Z</time>
      </trkpt>
      <trkpt lat="45.15715" lon="5.95512">
        <ele>2543</ele>
        <time>2019-01-20T11:01:04.000Z</time>
      </trkpt>
      <trkpt lat="45.15716" lon="5.95512">
        <ele>2543</ele>
        <time>2019-01-20T11:01:05.000Z</time>
      </trkpt>
      <trkpt lat="45.15716" lon="5.95512">
        <ele>2543</ele>
        <time>2019-01-20T11:01:06.000Z</time>
      </trkpt>
      <trkpt lat="45.15725" lon="5.95517">
        <ele>2543</ele>
        <time>2019-01-20T11:01:07.000Z</time>
      </trkpt>
      <trkpt lat="45.15725" lon="5.95517">
        <ele>2545</ele>
        <time>2019-01-20T11:01:08.000Z</time>
      </trkpt>
      <trkpt lat="45.15725" lon="5.95517">
        <ele>2545</ele>
        <time>2019-01-20T11:01:09.000Z</time>
      </trkpt>
      <trkpt lat="45.15725" lon="5.95517">
        <ele>2545</ele>
        <time>2019-01-20T11:01:11.000Z</time>
      </trkpt>
      <trkpt lat="45.15725" lon="5.95517">
        <ele>2545</ele>
        <time>2019-01-20T11:01:12.000Z</time>
      </trkpt>
      <trkpt lat="45.15725" lon="5.95517">
        <ele>2545</ele>
        <time>2019-01-20T11:01:13.000Z</time>
      </trkpt>
      <trkpt lat="45.15725" lon="5.95517">
        <ele>2545</ele>
        <time>2019-01-20T11:01:14.000Z</time>
      </trkpt>
      <trkpt lat="45.15725" lon="5.95517">
        <ele>2545</ele>
        <time>2019-01-20T11:01:15.000Z</time>
      </trkpt>
      <trkpt lat="45.15725" lon="5.95517">
        <ele>2545</ele>
        <time>2019-01-20T11:01:16.000Z</time>
      </trkpt>
      <trkpt lat="45.15725" lon="5.95517">
        <ele>2546</ele>
        <time>2019-01-20T11:01:17.000Z</time>
      </trkpt>
      <trkpt lat="45.15725" lon="5.95517">
        <ele>2546</ele>
        <time>2019-01-20T11:01:18.000Z</time>
      </trkpt>
      <trkpt lat="45.15725" lon="5.95517">
        <ele>2546.4</ele>
        <time>2019-01-20T11:01:20.000Z</time>
      </trkpt>
      <trkpt lat="45.15716" lon="5.95523">
        <ele>2547</ele>
        <time>2019-01-20T11:01:21.000Z</time>
      </trkpt>
      <trkpt lat="45.15716" lon="5.95523">
        <ele>2547</ele>
        <time>2019-01-20T11:01:22.000Z</time>
      </trkpt>
      <trkpt lat="45.15716" lon="5.95523">
        <ele>2547</ele>
        <time>2019-01-20T11:01:23.000Z</time>
      </trkpt>
      <trkpt lat="45.15716" lon="5.95523">
        <ele>2547</ele>
        <time>2019-01-20T11:01:24.000Z</time>
      </trkpt>
      <trkpt lat="45.15716" lon="5.95523">
        <ele>2548</ele>
        <time>2019-01-20T11:01:25.000Z</time>
      </trkpt>
      <trkpt lat="45.15716" lon="5.95523">
        <ele>2548</ele>
        <time>2019-01-20T11:01:26.000Z</time>
      </trkpt>
      <trkpt lat="45.15716" lon="5.95523">
        <ele>2548</ele>
        <time>2019-01-20T11:01:27.000Z</time>
      </trkpt>
      <trkpt lat="45.15716" lon="5.95523">
        <ele>2548</ele>
        <time>2019-01-20T11:01:28.000Z</time>
      </trkpt>
      <trkpt lat="45.15716" lon="5.95523">
        <ele>2549</ele>
        <time>2019-01-20T11:01:30.000Z</time>
      </trkpt>
      <trkpt lat="45.15707" lon="5.95525">
        <ele>2549</ele>
        <time>2019-01-20T11:01:31.000Z</time>
      </trkpt>
      <trkpt lat="45.15707" lon="5.95525">
        <ele>2549</ele>
        <time>2019-01-20T11:01:32.000Z</time>
      </trkpt>
      <trkpt lat="45.15707" lon="5.95525">
        <ele>2549</ele>
        <time>2019-01-20T11:01:33.000Z</time>
      </trkpt>
      <trkpt lat="45.15706" lon="5.95525">
        <ele>2549</ele>
        <time>2019-01-20T11:01:34.000Z</time>
      </trkpt>
      <trkpt lat="45.15706" lon="5.95525">
        <ele>2550</ele>
        <time>2019-01-20T11:01:35.000Z</time>
      </trkpt>
      <trkpt lat="45.15706" lon="5.95525">
        <ele>2550</ele>
        <time>2019-01-20T11:01:36.000Z</time>
      </trkpt>
      <trkpt lat="45.15706" lon="5.95525">
        <ele>2550</ele>
        <time>2019-01-20T11:01:37.000Z</time>
      </trkpt>
      <trkpt lat="45.15705" lon="5.95525">
        <ele>2550</ele>
        <time>2019-01-20T11:01:38.000Z</time>
      </trkpt>
      <trkpt lat="45.15705" lon="5.95525">
        <ele>2551</ele>
        <time>2019-01-20T11:01:39.000Z</time>
      </trkpt>
      <trkpt lat="45.15705" lon="5.95525">
        <ele>2551</ele>
        <time>2019-01-20T11:01:40.000Z</time>
      </trkpt>
      <trkpt lat="45.15704" lon="5.95525">
        <ele>2551</ele>
        <time>2019-01-20T11:01:41.000Z</time>
      </trkpt>
      <trkpt lat="45.15704" lon="5.95525">
        <ele>2552</ele>
        <time>2019-01-20T11:01:42.000Z</time>
      </trkpt>
      <trkpt lat="45.15695" lon="5.95524">
        <ele>2552</ele>
        <time>2019-01-20T11:01:43.000Z</time>
      </trkpt>
      <trkpt lat="45.15695" lon="5.95524">
        <ele>2552</ele>
        <time>2019-01-20T11:01:44.000Z</time>
      </trkpt>
      <trkpt lat="45.15695" lon="5.95524">
        <ele>2552</ele>
        <time>2019-01-20T11:01:45.000Z</time>
      </trkpt>
      <trkpt lat="45.15695" lon="5.95524">
        <ele>2552</ele>
        <time>2019-01-20T11:01:46.000Z</time>
      </trkpt>
      <trkpt lat="45.15695" lon="5.95524">
        <ele>2552</ele>
        <time>2019-01-20T11:01:47.000Z</time>
      </trkpt>
      <trkpt lat="45.15695" lon="5.95524">
        <ele>2553</ele>
        <time>2019-01-20T11:01:49.000Z</time>
      </trkpt>
      <trkpt lat="45.15695" lon="5.95524">
        <ele>2553</ele>
        <time>2019-01-20T11:01:50.000Z</time>
      </trkpt>
      <trkpt lat="45.15695" lon="5.95524">
        <ele>2553</ele>
        <time>2019-01-20T11:01:51.000Z</time>
      </trkpt>
      <trkpt lat="45.15695" lon="5.95524">
        <ele>2553</ele>
        <time>2019-01-20T11:01:52.000Z</time>
      </trkpt>
      <trkpt lat="45.15695" lon="5.95524">
        <ele>2553</ele>
        <time>2019-01-20T11:01:53.000Z</time>
      </trkpt>
      <trkpt lat="45.15695" lon="5.95524">
        <ele>2553</ele>
        <time>2019-01-20T11:01:54.000Z</time>
      </trkpt>
      <trkpt lat="45.15695" lon="5.95524">
        <ele>2553</ele>
        <time>2019-01-20T11:01:55.000Z</time>
      </trkpt>
      <trkpt lat="45.15695" lon="5.95524">
        <ele>2553</ele>
        <time>2019-01-20T11:01:56.000Z</time>
      </trkpt>
      <trkpt lat="45.15695" lon="5.95524">
        <ele>2553</ele>
        <time>2019-01-20T11:01:57.000Z</time>
      </trkpt>
      <trkpt lat="45.15695" lon="5.95524">
        <ele>2553</ele>
        <time>2019-01-20T11:01:58.000Z</time>
      </trkpt>
      <trkpt lat="45.15695" lon="5.95524">
        <ele>2553</ele>
        <time>2019-01-20T11:01:59.000Z</time>
      </trkpt>
      <trkpt lat="45.15695" lon="5.95524">
        <ele>2554</ele>
        <time>2019-01-20T11:02:00.000Z</time>
      </trkpt>
      <trkpt lat="45.15695" lon="5.95524">
        <ele>2554</ele>
        <time>2019-01-20T11:02:01.000Z</time>
      </trkpt>
      <trkpt lat="45.15695" lon="5.95524">
        <ele>2554</ele>
        <time>2019-01-20T11:02:02.000Z</time>
      </trkpt>
      <trkpt lat="45.15695" lon="5.95524">
        <ele>2554</ele>
        <time>2019-01-20T11:02:03.000Z</time>
      </trkpt>
      <trkpt lat="45.15695" lon="5.95524">
        <ele>2554</ele>
        <time>2019-01-20T11:02:04.000Z</time>
      </trkpt>
      <trkpt lat="45.15695" lon="5.95524">
        <ele>2555</ele>
        <time>2019-01-20T11:02:05.000Z</time>
      </trkpt>
      <trkpt lat="45.15695" lon="5.95524">
        <ele>2555</ele>
        <time>2019-01-20T11:02:06.000Z</time>
      </trkpt>
      <trkpt lat="45.15695" lon="5.95524">
        <ele>2555</ele>
        <time>2019-01-20T11:02:08.000Z</time>
      </trkpt>
      <trkpt lat="45.15702" lon="5.95533">
        <ele>2555</ele>
        <time>2019-01-20T11:02:09.000Z</time>
      </trkpt>
      <trkpt lat="45.15702" lon="5.95533">
        <ele>2555</ele>
        <time>2019-01-20T11:02:10.000Z</time>
      </trkpt>
      <trkpt lat="45.15702" lon="5.95533">
        <ele>2557</ele>
        <time>2019-01-20T11:02:11.000Z</time>
      </trkpt>
      <trkpt lat="45.15702" lon="5.95533">
        <ele>2557</ele>
        <time>2019-01-20T11:02:12.000Z</time>
      </trkpt>
      <trkpt lat="45.15702" lon="5.95533">
        <ele>2557</ele>
        <time>2019-01-20T11:02:13.000Z</time>
      </trkpt>
      <trkpt lat="45.15702" lon="5.95533">
        <ele>2557</ele>
        <time>2019-01-20T11:02:14.000Z</time>
      </trkpt>
      <trkpt lat="45.15702" lon="5.95533">
        <ele>2557</ele>
        <time>2019-01-20T11:02:15.000Z</time>
      </trkpt>
      <trkpt lat="45.15702" lon="5.95533">
        <ele>2557</ele>
        <time>2019-01-20T11:02:16.000Z</time>
      </trkpt>
      <trkpt lat="45.15702" lon="5.95533">
        <ele>2558</ele>
        <time>2019-01-20T11:02:17.000Z</time>
      </trkpt>
      <trkpt lat="45.15702" lon="5.95534">
        <ele>2558</ele>
        <time>2019-01-20T11:02:18.000Z</time>
      </trkpt>
      <trkpt lat="45.15702" lon="5.95535">
        <ele>2558</ele>
        <time>2019-01-20T11:02:19.000Z</time>
      </trkpt>
      <trkpt lat="45.15703" lon="5.95537">
        <ele>2558</ele>
        <time>2019-01-20T11:02:20.000Z</time>
      </trkpt>
      <trkpt lat="45.15703" lon="5.95538">
        <ele>2559</ele>
        <time>2019-01-20T11:02:21.000Z</time>
      </trkpt>
      <trkpt lat="45.15703" lon="5.95539">
        <ele>2559</ele>
        <time>2019-01-20T11:02:22.000Z</time>
      </trkpt>
      <trkpt lat="45.15704" lon="5.9554">
        <ele>2559</ele>
        <time>2019-01-20T11:02:23.000Z</time>
      </trkpt>
      <trkpt lat="45.15704" lon="5.95541">
        <ele>2559</ele>
        <time>2019-01-20T11:02:24.000Z</time>
      </trkpt>
      <trkpt lat="45.15704" lon="5.95542">
        <ele>2559</ele>
        <time>2019-01-20T11:02:25.000Z</time>
      </trkpt>
      <trkpt lat="45.15705" lon="5.95543">
        <ele>2559.6</ele>
        <time>2019-01-20T11:02:27.000Z</time>
      </trkpt>
      <trkpt lat="45.15705" lon="5.95545">
        <ele>2560</ele>
        <time>2019-01-20T11:02:28.000Z</time>
      </trkpt>
      <trkpt lat="45.15705" lon="5.95546">
        <ele>2561</ele>
        <time>2019-01-20T11:02:29.000Z</time>
      </trkpt>
      <trkpt lat="45.15705" lon="5.95546">
        <ele>2561</ele>
        <time>2019-01-20T11:02:30.000Z</time>
      </trkpt>
      <trkpt lat="45.15714" lon="5.95552">
        <ele>2561</ele>
        <time>2019-01-20T11:02:31.000Z</time>
      </trkpt>
      <trkpt lat="45.15714" lon="5.95552">
        <ele>2561</ele>
        <time>2019-01-20T11:02:32.000Z</time>
      </trkpt>
      <trkpt lat="45.15714" lon="5.95552">
        <ele>2561</ele>
        <time>2019-01-20T11:02:33.000Z</time>
      </trkpt>
      <trkpt lat="45.15714" lon="5.95552">
        <ele>2562</ele>
        <time>2019-01-20T11:02:34.000Z</time>
      </trkpt>
      <trkpt lat="45.15714" lon="5.95552">
        <ele>2562</ele>
        <time>2019-01-20T11:02:35.000Z</time>
      </trkpt>
      <trkpt lat="45.15714" lon="5.95552">
        <ele>2562</ele>
        <time>2019-01-20T11:02:36.000Z</time>
      </trkpt>
      <trkpt lat="45.15714" lon="5.95552">
        <ele>2562</ele>
        <time>2019-01-20T11:02:37.000Z</time>
      </trkpt>
      <trkpt lat="45.15714" lon="5.95552">
        <ele>2562</ele>
        <time>2019-01-20T11:02:38.000Z</time>
      </trkpt>
      <trkpt lat="45.15714" lon="5.95552">
        <ele>2563</ele>
        <time>2019-01-20T11:02:40.000Z</time>
      </trkpt>
      <trkpt lat="45.15724" lon="5.95554">
        <ele>2564</ele>
        <time>2019-01-20T11:02:41.000Z</time>
      </trkpt>
      <trkpt lat="45.15724" lon="5.95554">
        <ele>2564</ele>
        <time>2019-01-20T11:02:42.000Z</time>
      </trkpt>
      <trkpt lat="45.15724" lon="5.95554">
        <ele>2564</ele>
        <time>2019-01-20T11:02:43.000Z</time>
      </trkpt>
      <trkpt lat="45.15724" lon="5.95554">
        <ele>2564</ele>
        <time>2019-01-20T11:02:44.000Z</time>
      </trkpt>
      <trkpt lat="45.15724" lon="5.95554">
        <ele>2565</ele>
        <time>2019-01-20T11:02:46.000Z</time>
      </trkpt>
      <trkpt lat="45.15724" lon="5.95554">
        <ele>2565</ele>
        <time>2019-01-20T11:02:47.000Z</time>
      </trkpt>
      <trkpt lat="45.15724" lon="5.95554">
        <ele>2565</ele>
        <time>2019-01-20T11:02:48.000Z</time>
      </trkpt>
      <trkpt lat="45.15724" lon="5.95554">
        <ele>2565</ele>
        <time>2019-01-20T11:02:49.000Z</time>
      </trkpt>
      <trkpt lat="45.15724" lon="5.95554">
        <ele>2565</ele>
        <time>2019-01-20T11:02:50.000Z</time>
      </trkpt>
      <trkpt lat="45.15724" lon="5.95554">
        <ele>2566</ele>
        <time>2019-01-20T11:02:51.000Z</time>
      </trkpt>
      <trkpt lat="45.15717" lon="5.95563">
        <ele>2566</ele>
        <time>2019-01-20T11:02:52.000Z</time>
      </trkpt>
      <trkpt lat="45.15717" lon="5.95563">
        <ele>2566</ele>
        <time>2019-01-20T11:02:53.000Z</time>
      </trkpt>
      <trkpt lat="45.15717" lon="5.95563">
        <ele>2566</ele>
        <time>2019-01-20T11:02:54.000Z</time>
      </trkpt>
      <trkpt lat="45.15717" lon="5.95563">
        <ele>2566</ele>
        <time>2019-01-20T11:02:55.000Z</time>
      </trkpt>
      <trkpt lat="45.15714" lon="5.95566">
        <ele>2566</ele>
        <time>2019-01-20T11:02:56.000Z</time>
      </trkpt>
      <trkpt lat="45.15714" lon="5.95566">
        <ele>2567</ele>
        <time>2019-01-20T11:02:57.000Z</time>
      </trkpt>
      <trkpt lat="45.15711" lon="5.95568">
        <ele>2567</ele>
        <time>2019-01-20T11:02:58.000Z</time>
      </trkpt>
      <trkpt lat="45.15711" lon="5.95568">
        <ele>2567</ele>
        <time>2019-01-20T11:02:59.000Z</time>
      </trkpt>
      <trkpt lat="45.1571" lon="5.95569">
        <ele>2567</ele>
        <time>2019-01-20T11:03:00.000Z</time>
      </trkpt>
      <trkpt lat="45.1571" lon="5.95569">
        <ele>2567</ele>
        <time>2019-01-20T11:03:01.000Z</time>
      </trkpt>
      <trkpt lat="45.15709" lon="5.95569">
        <ele>2569</ele>
        <time>2019-01-20T11:03:02.000Z</time>
      </trkpt>
      <trkpt lat="45.15709" lon="5.95569">
        <ele>2570</ele>
        <time>2019-01-20T11:03:03.000Z</time>
      </trkpt>
      <trkpt lat="45.15709" lon="5.9557">
        <ele>2570</ele>
        <time>2019-01-20T11:03:05.000Z</time>
      </trkpt>
      <trkpt lat="45.15709" lon="5.9557">
        <ele>2570</ele>
        <time>2019-01-20T11:03:06.000Z</time>
      </trkpt>
      <trkpt lat="45.15709" lon="5.9557">
        <ele>2570</ele>
        <time>2019-01-20T11:03:07.000Z</time>
      </trkpt>
      <trkpt lat="45.15709" lon="5.9557">
        <ele>2570</ele>
        <time>2019-01-20T11:03:08.000Z</time>
      </trkpt>
      <trkpt lat="45.15709" lon="5.9557">
        <ele>2570</ele>
        <time>2019-01-20T11:03:09.000Z</time>
      </trkpt>
      <trkpt lat="45.15708" lon="5.9557">
        <ele>2570</ele>
        <time>2019-01-20T11:03:10.000Z</time>
      </trkpt>
      <trkpt lat="45.15708" lon="5.9557">
        <ele>2571</ele>
        <time>2019-01-20T11:03:11.000Z</time>
      </trkpt>
      <trkpt lat="45.15708" lon="5.9557">
        <ele>2571</ele>
        <time>2019-01-20T11:03:12.000Z</time>
      </trkpt>
      <trkpt lat="45.15708" lon="5.9557">
        <ele>2571</ele>
        <time>2019-01-20T11:03:13.000Z</time>
      </trkpt>
      <trkpt lat="45.15707" lon="5.9557">
        <ele>2572</ele>
        <time>2019-01-20T11:03:14.000Z</time>
      </trkpt>
      <trkpt lat="45.15706" lon="5.9557">
        <ele>2572</ele>
        <time>2019-01-20T11:03:15.000Z</time>
      </trkpt>
      <trkpt lat="45.15705" lon="5.9557">
        <ele>2572</ele>
        <time>2019-01-20T11:03:16.000Z</time>
      </trkpt>
      <trkpt lat="45.15704" lon="5.9557">
        <ele>2572</ele>
        <time>2019-01-20T11:03:17.000Z</time>
      </trkpt>
      <trkpt lat="45.15703" lon="5.95571">
        <ele>2572</ele>
        <time>2019-01-20T11:03:18.000Z</time>
      </trkpt>
      <trkpt lat="45.15702" lon="5.95571">
        <ele>2572</ele>
        <time>2019-01-20T11:03:19.000Z</time>
      </trkpt>
      <trkpt lat="45.15701" lon="5.95571">
        <ele>2573</ele>
        <time>2019-01-20T11:03:20.000Z</time>
      </trkpt>
      <trkpt lat="45.157" lon="5.95571">
        <ele>2573</ele>
        <time>2019-01-20T11:03:21.000Z</time>
      </trkpt>
      <trkpt lat="45.15699" lon="5.95571">
        <ele>2573</ele>
        <time>2019-01-20T11:03:22.000Z</time>
      </trkpt>
      <trkpt lat="45.15689" lon="5.95571">
        <ele>2573.6</ele>
        <time>2019-01-20T11:03:24.000Z</time>
      </trkpt>
      <trkpt lat="45.15689" lon="5.95571">
        <ele>2574</ele>
        <time>2019-01-20T11:03:25.000Z</time>
      </trkpt>
      <trkpt lat="45.15689" lon="5.95571">
        <ele>2574</ele>
        <time>2019-01-20T11:03:26.000Z</time>
      </trkpt>
      <trkpt lat="45.15689" lon="5.95571">
        <ele>2574</ele>
        <time>2019-01-20T11:03:27.000Z</time>
      </trkpt>
      <trkpt lat="45.15689" lon="5.95571">
        <ele>2575</ele>
        <time>2019-01-20T11:03:28.000Z</time>
      </trkpt>
      <trkpt lat="45.15689" lon="5.95571">
        <ele>2575</ele>
        <time>2019-01-20T11:03:30.000Z</time>
      </trkpt>
      <trkpt lat="45.15684" lon="5.95568">
        <ele>2575</ele>
        <time>2019-01-20T11:03:31.000Z</time>
      </trkpt>
      <trkpt lat="45.15684" lon="5.95568">
        <ele>2575</ele>
        <time>2019-01-20T11:03:32.000Z</time>
      </trkpt>
      <trkpt lat="45.15684" lon="5.95568">
        <ele>2576</ele>
        <time>2019-01-20T11:03:33.000Z</time>
      </trkpt>
      <trkpt lat="45.15684" lon="5.95568">
        <ele>2577</ele>
        <time>2019-01-20T11:03:34.000Z</time>
      </trkpt>
      <trkpt lat="45.15684" lon="5.95568">
        <ele>2577</ele>
        <time>2019-01-20T11:03:35.000Z</time>
      </trkpt>
      <trkpt lat="45.15684" lon="5.95568">
        <ele>2577</ele>
        <time>2019-01-20T11:03:36.000Z</time>
      </trkpt>
      <trkpt lat="45.15683" lon="5.95567">
        <ele>2577</ele>
        <time>2019-01-20T11:03:37.000Z</time>
      </trkpt>
      <trkpt lat="45.15683" lon="5.95567">
        <ele>2576</ele>
        <time>2019-01-20T11:03:38.000Z</time>
      </trkpt>
      <trkpt lat="45.15683" lon="5.95567">
        <ele>2576</ele>
        <time>2019-01-20T11:03:39.000Z</time>
      </trkpt>
      <trkpt lat="45.15683" lon="5.95567">
        <ele>2576</ele>
        <time>2019-01-20T11:03:40.000Z</time>
      </trkpt>
      <trkpt lat="45.15683" lon="5.95567">
        <ele>2576</ele>
        <time>2019-01-20T11:03:41.000Z</time>
      </trkpt>
      <trkpt lat="45.15683" lon="5.95567">
        <ele>2576</ele>
        <time>2019-01-20T11:03:43.000Z</time>
      </trkpt>
      <trkpt lat="45.15683" lon="5.95567">
        <ele>2576</ele>
        <time>2019-01-20T11:03:44.000Z</time>
      </trkpt>
      <trkpt lat="45.15683" lon="5.95567">
        <ele>2576</ele>
        <time>2019-01-20T11:03:45.000Z</time>
      </trkpt>
      <trkpt lat="45.15683" lon="5.95567">
        <ele>2577</ele>
        <time>2019-01-20T11:03:46.000Z</time>
      </trkpt>
      <trkpt lat="45.15683" lon="5.95567">
        <ele>2577</ele>
        <time>2019-01-20T11:03:47.000Z</time>
      </trkpt>
      <trkpt lat="45.15682" lon="5.95567">
        <ele>2577</ele>
        <time>2019-01-20T11:03:48.000Z</time>
      </trkpt>
      <trkpt lat="45.15682" lon="5.95566">
        <ele>2577</ele>
        <time>2019-01-20T11:03:49.000Z</time>
      </trkpt>
      <trkpt lat="45.15684" lon="5.95569">
        <ele>2578</ele>
        <time>2019-01-20T11:03:50.000Z</time>
      </trkpt>
      <trkpt lat="45.15685" lon="5.95571">
        <ele>2578</ele>
        <time>2019-01-20T11:03:51.000Z</time>
      </trkpt>
      <trkpt lat="45.15686" lon="5.95573">
        <ele>2578</ele>
        <time>2019-01-20T11:03:52.000Z</time>
      </trkpt>
      <trkpt lat="45.15687" lon="5.95575">
        <ele>2578</ele>
        <time>2019-01-20T11:03:53.000Z</time>
      </trkpt>
      <trkpt lat="45.15688" lon="5.95577">
        <ele>2578</ele>
        <time>2019-01-20T11:03:54.000Z</time>
      </trkpt>
      <trkpt lat="45.15688" lon="5.95577">
        <ele>2579</ele>
        <time>2019-01-20T11:03:55.000Z</time>
      </trkpt>
      <trkpt lat="45.15691" lon="5.95583">
        <ele>2579</ele>
        <time>2019-01-20T11:03:56.000Z</time>
      </trkpt>
      <trkpt lat="45.15691" lon="5.95583">
        <ele>2581</ele>
        <time>2019-01-20T11:03:57.000Z</time>
      </trkpt>
      <trkpt lat="45.15691" lon="5.95583">
        <ele>2581</ele>
        <time>2019-01-20T11:03:58.000Z</time>
      </trkpt>
      <trkpt lat="45.15692" lon="5.95586">
        <ele>2581</ele>
        <time>2019-01-20T11:03:59.000Z</time>
      </trkpt>
      <trkpt lat="45.15692" lon="5.95586">
        <ele>2581</ele>
        <time>2019-01-20T11:04:00.000Z</time>
      </trkpt>
      <trkpt lat="45.15693" lon="5.95589">
        <ele>2581</ele>
        <time>2019-01-20T11:04:02.000Z</time>
      </trkpt>
      <trkpt lat="45.15693" lon="5.95589">
        <ele>2581</ele>
        <time>2019-01-20T11:04:03.000Z</time>
      </trkpt>
      <trkpt lat="45.15693" lon="5.95589">
        <ele>2582</ele>
        <time>2019-01-20T11:04:04.000Z</time>
      </trkpt>
      <trkpt lat="45.15693" lon="5.95589">
        <ele>2582</ele>
        <time>2019-01-20T11:04:05.000Z</time>
      </trkpt>
      <trkpt lat="45.15693" lon="5.95589">
        <ele>2582</ele>
        <time>2019-01-20T11:04:06.000Z</time>
      </trkpt>
      <trkpt lat="45.15696" lon="5.95594">
        <ele>2582</ele>
        <time>2019-01-20T11:04:07.000Z</time>
      </trkpt>
      <trkpt lat="45.15696" lon="5.95594">
        <ele>2583</ele>
        <time>2019-01-20T11:04:08.000Z</time>
      </trkpt>
      <trkpt lat="45.15696" lon="5.95594">
        <ele>2583</ele>
        <time>2019-01-20T11:04:09.000Z</time>
      </trkpt>
      <trkpt lat="45.15698" lon="5.95597">
        <ele>2583</ele>
        <time>2019-01-20T11:04:10.000Z</time>
      </trkpt>
      <trkpt lat="45.15698" lon="5.95597">
        <ele>2583</ele>
        <time>2019-01-20T11:04:11.000Z</time>
      </trkpt>
      <trkpt lat="45.15698" lon="5.95597">
        <ele>2583</ele>
        <time>2019-01-20T11:04:12.000Z</time>
      </trkpt>
      <trkpt lat="45.15698" lon="5.95597">
        <ele>2583</ele>
        <time>2019-01-20T11:04:13.000Z</time>
      </trkpt>
      <trkpt lat="45.157" lon="5.956">
        <ele>2583</ele>
        <time>2019-01-20T11:04:14.000Z</time>
      </trkpt>
      <trkpt lat="45.157" lon="5.956">
        <ele>2584</ele>
        <time>2019-01-20T11:04:15.000Z</time>
      </trkpt>
      <trkpt lat="45.15701" lon="5.95602">
        <ele>2584</ele>
        <time>2019-01-20T11:04:16.000Z</time>
      </trkpt>
      <trkpt lat="45.15701" lon="5.95602">
        <ele>2584</ele>
        <time>2019-01-20T11:04:17.000Z</time>
      </trkpt>
      <trkpt lat="45.15703" lon="5.95603">
        <ele>2584</ele>
        <time>2019-01-20T11:04:18.000Z</time>
      </trkpt>
      <trkpt lat="45.15703" lon="5.95603">
        <ele>2584</ele>
        <time>2019-01-20T11:04:19.000Z</time>
      </trkpt>
      <trkpt lat="45.15704" lon="5.95605">
        <ele>2584</ele>
        <time>2019-01-20T11:04:20.000Z</time>
      </trkpt>
      <trkpt lat="45.15704" lon="5.95605">
        <ele>2585</ele>
        <time>2019-01-20T11:04:21.000Z</time>
      </trkpt>
      <trkpt lat="45.15707" lon="5.95606">
        <ele>2585</ele>
        <time>2019-01-20T11:04:22.000Z</time>
      </trkpt>
      <trkpt lat="45.15707" lon="5.95606">
        <ele>2585</ele>
        <time>2019-01-20T11:04:23.000Z</time>
      </trkpt>
      <trkpt lat="45.15709" lon="5.95607">
        <ele>2586</ele>
        <time>2019-01-20T11:04:24.000Z</time>
      </trkpt>
      <trkpt lat="45.15709" lon="5.95607">
        <ele>2586</ele>
        <time>2019-01-20T11:04:25.000Z</time>
      </trkpt>
      <trkpt lat="45.15711" lon="5.95607">
        <ele>2586</ele>
        <time>2019-01-20T11:04:26.000Z</time>
      </trkpt>
      <trkpt lat="45.15711" lon="5.95607">
        <ele>2586</ele>
        <time>2019-01-20T11:04:27.000Z</time>
      </trkpt>
      <trkpt lat="45.15712" lon="5.95608">
        <ele>2586</ele>
        <time>2019-01-20T11:04:28.000Z</time>
      </trkpt>
      <trkpt lat="45.15712" lon="5.95608">
        <ele>2586</ele>
        <time>2019-01-20T11:04:29.000Z</time>
      </trkpt>
      <trkpt lat="45.15715" lon="5.95608">
        <ele>2587</ele>
        <time>2019-01-20T11:04:30.000Z</time>
      </trkpt>
      <trkpt lat="45.15715" lon="5.95608">
        <ele>2587</ele>
        <time>2019-01-20T11:04:31.000Z</time>
      </trkpt>
      <trkpt lat="45.15715" lon="5.95608">
        <ele>2587</ele>
        <time>2019-01-20T11:04:32.000Z</time>
      </trkpt>
      <trkpt lat="45.15715" lon="5.95608">
        <ele>2587</ele>
        <time>2019-01-20T11:04:33.000Z</time>
      </trkpt>
      <trkpt lat="45.15715" lon="5.95608">
        <ele>2587</ele>
        <time>2019-01-20T11:04:34.000Z</time>
      </trkpt>
      <trkpt lat="45.15715" lon="5.95608">
        <ele>2587</ele>
        <time>2019-01-20T11:04:35.000Z</time>
      </trkpt>
      <trkpt lat="45.15715" lon="5.95608">
        <ele>2587</ele>
        <time>2019-01-20T11:04:36.000Z</time>
      </trkpt>
      <trkpt lat="45.15715" lon="5.95608">
        <ele>2587</ele>
        <time>2019-01-20T11:04:37.000Z</time>
      </trkpt>
      <trkpt lat="45.15715" lon="5.95608">
        <ele>2587</ele>
        <time>2019-01-20T11:04:38.000Z</time>
      </trkpt>
      <trkpt lat="45.15715" lon="5.95608">
        <ele>2588</ele>
        <time>2019-01-20T11:04:40.000Z</time>
      </trkpt>
      <trkpt lat="45.1571" lon="5.95616">
        <ele>2588</ele>
        <time>2019-01-20T11:04:41.000Z</time>
      </trkpt>
      <trkpt lat="45.1571" lon="5.95616">
        <ele>2588</ele>
        <time>2019-01-20T11:04:42.000Z</time>
      </trkpt>
      <trkpt lat="45.1571" lon="5.95616">
        <ele>2589</ele>
        <time>2019-01-20T11:04:43.000Z</time>
      </trkpt>
      <trkpt lat="45.15709" lon="5.95618">
        <ele>2590</ele>
        <time>2019-01-20T11:04:44.000Z</time>
      </trkpt>
      <trkpt lat="45.15709" lon="5.95618">
        <ele>2590</ele>
        <time>2019-01-20T11:04:45.000Z</time>
      </trkpt>
      <trkpt lat="45.15709" lon="5.95618">
        <ele>2590</ele>
        <time>2019-01-20T11:04:46.000Z</time>
      </trkpt>
      <trkpt lat="45.15706" lon="5.95619">
        <ele>2590</ele>
        <time>2019-01-20T11:04:47.000Z</time>
      </trkpt>
      <trkpt lat="45.15706" lon="5.95619">
        <ele>2591</ele>
        <time>2019-01-20T11:04:48.000Z</time>
      </trkpt>
      <trkpt lat="45.15706" lon="5.95619">
        <ele>2591</ele>
        <time>2019-01-20T11:04:49.000Z</time>
      </trkpt>
      <trkpt lat="45.15704" lon="5.95619">
        <ele>2591</ele>
        <time>2019-01-20T11:04:50.000Z</time>
      </trkpt>
      <trkpt lat="45.15704" lon="5.95619">
        <ele>2591</ele>
        <time>2019-01-20T11:04:51.000Z</time>
      </trkpt>
      <trkpt lat="45.15704" lon="5.95619">
        <ele>2591</ele>
        <time>2019-01-20T11:04:52.000Z</time>
      </trkpt>
      <trkpt lat="45.15701" lon="5.9562">
        <ele>2593</ele>
        <time>2019-01-20T11:04:53.000Z</time>
      </trkpt>
      <trkpt lat="45.15701" lon="5.9562">
        <ele>2593</ele>
        <time>2019-01-20T11:04:54.000Z</time>
      </trkpt>
      <trkpt lat="45.15699" lon="5.9562">
        <ele>2593</ele>
        <time>2019-01-20T11:04:55.000Z</time>
      </trkpt>
      <trkpt lat="45.15699" lon="5.9562">
        <ele>2593</ele>
        <time>2019-01-20T11:04:56.000Z</time>
      </trkpt>
      <trkpt lat="45.15699" lon="5.9562">
        <ele>2593</ele>
        <time>2019-01-20T11:04:57.000Z</time>
      </trkpt>
      <trkpt lat="45.15696" lon="5.95621">
        <ele>2593</ele>
        <time>2019-01-20T11:04:59.000Z</time>
      </trkpt>
      <trkpt lat="45.15696" lon="5.95621">
        <ele>2593</ele>
        <time>2019-01-20T11:05:00.000Z</time>
      </trkpt>
      <trkpt lat="45.15696" lon="5.95621">
        <ele>2594</ele>
        <time>2019-01-20T11:05:01.000Z</time>
      </trkpt>
      <trkpt lat="45.15696" lon="5.95621">
        <ele>2594</ele>
        <time>2019-01-20T11:05:02.000Z</time>
      </trkpt>
      <trkpt lat="45.15696" lon="5.95621">
        <ele>2594</ele>
        <time>2019-01-20T11:05:03.000Z</time>
      </trkpt>
      <trkpt lat="45.15696" lon="5.95623">
        <ele>2594</ele>
        <time>2019-01-20T11:05:04.000Z</time>
      </trkpt>
      <trkpt lat="45.15696" lon="5.95623">
        <ele>2595</ele>
        <time>2019-01-20T11:05:05.000Z</time>
      </trkpt>
      <trkpt lat="45.15696" lon="5.95623">
        <ele>2595</ele>
        <time>2019-01-20T11:05:06.000Z</time>
      </trkpt>
      <trkpt lat="45.15698" lon="5.95626">
        <ele>2595</ele>
        <time>2019-01-20T11:05:07.000Z</time>
      </trkpt>
      <trkpt lat="45.15698" lon="5.95626">
        <ele>2595</ele>
        <time>2019-01-20T11:05:08.000Z</time>
      </trkpt>
      <trkpt lat="45.15699" lon="5.95628">
        <ele>2595</ele>
        <time>2019-01-20T11:05:10.000Z</time>
      </trkpt>
      <trkpt lat="45.15699" lon="5.95628">
        <ele>2595</ele>
        <time>2019-01-20T11:05:11.000Z</time>
      </trkpt>
      <trkpt lat="45.15699" lon="5.95628">
        <ele>2596</ele>
        <time>2019-01-20T11:05:12.000Z</time>
      </trkpt>
      <trkpt lat="45.157" lon="5.95631">
        <ele>2596</ele>
        <time>2019-01-20T11:05:13.000Z</time>
      </trkpt>
      <trkpt lat="45.157" lon="5.95631">
        <ele>2596</ele>
        <time>2019-01-20T11:05:14.000Z</time>
      </trkpt>
      <trkpt lat="45.157" lon="5.95631">
        <ele>2596</ele>
        <time>2019-01-20T11:05:15.000Z</time>
      </trkpt>
      <trkpt lat="45.15702" lon="5.95634">
        <ele>2597</ele>
        <time>2019-01-20T11:05:16.000Z</time>
      </trkpt>
      <trkpt lat="45.15702" lon="5.95634">
        <ele>2597</ele>
        <time>2019-01-20T11:05:18.000Z</time>
      </trkpt>
      <trkpt lat="45.15703" lon="5.95636">
        <ele>2597</ele>
        <time>2019-01-20T11:05:19.000Z</time>
      </trkpt>
      <trkpt lat="45.15703" lon="5.95636">
        <ele>2597.6</ele>
        <time>2019-01-20T11:05:20.000Z</time>
      </trkpt>
      <trkpt lat="45.15705" lon="5.95638">
        <ele>2598</ele>
        <time>2019-01-20T11:05:21.000Z</time>
      </trkpt>
      <trkpt lat="45.15705" lon="5.95638">
        <ele>2598</ele>
        <time>2019-01-20T11:05:22.000Z</time>
      </trkpt>
      <trkpt lat="45.15705" lon="5.95638">
        <ele>2598</ele>
        <time>2019-01-20T11:05:23.000Z</time>
      </trkpt>
      <trkpt lat="45.15707" lon="5.9564">
        <ele>2598</ele>
        <time>2019-01-20T11:05:24.000Z</time>
      </trkpt>
      <trkpt lat="45.15707" lon="5.9564">
        <ele>2598</ele>
        <time>2019-01-20T11:05:25.000Z</time>
      </trkpt>
      <trkpt lat="45.15707" lon="5.9564">
        <ele>2598</ele>
        <time>2019-01-20T11:05:26.000Z</time>
      </trkpt>
      <trkpt lat="45.1571" lon="5.9564">
        <ele>2599</ele>
        <time>2019-01-20T11:05:27.000Z</time>
      </trkpt>
      <trkpt lat="45.1571" lon="5.9564">
        <ele>2600</ele>
        <time>2019-01-20T11:05:28.000Z</time>
      </trkpt>
      <trkpt lat="45.15713" lon="5.95641">
        <ele>2600</ele>
        <time>2019-01-20T11:05:29.000Z</time>
      </trkpt>
      <trkpt lat="45.15713" lon="5.95641">
        <ele>2601</ele>
        <time>2019-01-20T11:05:30.000Z</time>
      </trkpt>
      <trkpt lat="45.15716" lon="5.95642">
        <ele>2601</ele>
        <time>2019-01-20T11:05:31.000Z</time>
      </trkpt>
      <trkpt lat="45.15716" lon="5.95642">
        <ele>2601</ele>
        <time>2019-01-20T11:05:32.000Z</time>
      </trkpt>
      <trkpt lat="45.15718" lon="5.95641">
        <ele>2601</ele>
        <time>2019-01-20T11:05:33.000Z</time>
      </trkpt>
      <trkpt lat="45.15718" lon="5.95641">
        <ele>2601</ele>
        <time>2019-01-20T11:05:34.000Z</time>
      </trkpt>
      <trkpt lat="45.15718" lon="5.95641">
        <ele>2601</ele>
        <time>2019-01-20T11:05:35.000Z</time>
      </trkpt>
      <trkpt lat="45.1572" lon="5.95643">
        <ele>2601</ele>
        <time>2019-01-20T11:05:36.000Z</time>
      </trkpt>
      <trkpt lat="45.1572" lon="5.95643">
        <ele>2602.4</ele>
        <time>2019-01-20T11:05:37.000Z</time>
      </trkpt>
      <trkpt lat="45.1572" lon="5.95643">
        <ele>2603</ele>
        <time>2019-01-20T11:05:38.000Z</time>
      </trkpt>
      <trkpt lat="45.1572" lon="5.95643">
        <ele>2603</ele>
        <time>2019-01-20T11:05:39.000Z</time>
      </trkpt>
      <trkpt lat="45.1572" lon="5.95645">
        <ele>2603</ele>
        <time>2019-01-20T11:05:40.000Z</time>
      </trkpt>
      <trkpt lat="45.1572" lon="5.95645">
        <ele>2603</ele>
        <time>2019-01-20T11:05:41.000Z</time>
      </trkpt>
      <trkpt lat="45.1572" lon="5.95645">
        <ele>2603</ele>
        <time>2019-01-20T11:05:42.000Z</time>
      </trkpt>
      <trkpt lat="45.15718" lon="5.95648">
        <ele>2603</ele>
        <time>2019-01-20T11:05:43.000Z</time>
      </trkpt>
      <trkpt lat="45.15718" lon="5.95648">
        <ele>2603</ele>
        <time>2019-01-20T11:05:44.000Z</time>
      </trkpt>
      <trkpt lat="45.15717" lon="5.9565">
        <ele>2605</ele>
        <time>2019-01-20T11:05:45.000Z</time>
      </trkpt>
      <trkpt lat="45.15717" lon="5.9565">
        <ele>2605</ele>
        <time>2019-01-20T11:05:46.000Z</time>
      </trkpt>
      <trkpt lat="45.15717" lon="5.9565">
        <ele>2605</ele>
        <time>2019-01-20T11:05:47.000Z</time>
      </trkpt>
      <trkpt lat="45.15717" lon="5.9565">
        <ele>2605</ele>
        <time>2019-01-20T11:05:48.000Z</time>
      </trkpt>
      <trkpt lat="45.15715" lon="5.95653">
        <ele>2605</ele>
        <time>2019-01-20T11:05:49.000Z</time>
      </trkpt>
      <trkpt lat="45.15715" lon="5.95653">
        <ele>2605</ele>
        <time>2019-01-20T11:05:50.000Z</time>
      </trkpt>
      <trkpt lat="45.15715" lon="5.95653">
        <ele>2605</ele>
        <time>2019-01-20T11:05:51.000Z</time>
      </trkpt>
      <trkpt lat="45.15715" lon="5.95653">
        <ele>2606</ele>
        <time>2019-01-20T11:05:52.000Z</time>
      </trkpt>
      <trkpt lat="45.15714" lon="5.95656">
        <ele>2606</ele>
        <time>2019-01-20T11:05:53.000Z</time>
      </trkpt>
      <trkpt lat="45.15714" lon="5.95656">
        <ele>2606</ele>
        <time>2019-01-20T11:05:54.000Z</time>
      </trkpt>
      <trkpt lat="45.15713" lon="5.95658">
        <ele>2606</ele>
        <time>2019-01-20T11:05:55.000Z</time>
      </trkpt>
      <trkpt lat="45.15713" lon="5.95658">
        <ele>2606.4</ele>
        <time>2019-01-20T11:05:56.000Z</time>
      </trkpt>
      <trkpt lat="45.15713" lon="5.95658">
        <ele>2607</ele>
        <time>2019-01-20T11:05:57.000Z</time>
      </trkpt>
      <trkpt lat="45.15712" lon="5.95662">
        <ele>2607</ele>
        <time>2019-01-20T11:05:58.000Z</time>
      </trkpt>
      <trkpt lat="45.15712" lon="5.95662">
        <ele>2608</ele>
        <time>2019-01-20T11:05:59.000Z</time>
      </trkpt>
      <trkpt lat="45.15712" lon="5.95662">
        <ele>2608</ele>
        <time>2019-01-20T11:06:00.000Z</time>
      </trkpt>
      <trkpt lat="45.15711" lon="5.95664">
        <ele>2608</ele>
        <time>2019-01-20T11:06:01.000Z</time>
      </trkpt>
      <trkpt lat="45.15711" lon="5.95664">
        <ele>2609</ele>
        <time>2019-01-20T11:06:02.000Z</time>
      </trkpt>
      <trkpt lat="45.15711" lon="5.95664">
        <ele>2609</ele>
        <time>2019-01-20T11:06:03.000Z</time>
      </trkpt>
      <trkpt lat="45.15711" lon="5.95664">
        <ele>2609</ele>
        <time>2019-01-20T11:06:04.000Z</time>
      </trkpt>
      <trkpt lat="45.1571" lon="5.95667">
        <ele>2609</ele>
        <time>2019-01-20T11:06:05.000Z</time>
      </trkpt>
      <trkpt lat="45.1571" lon="5.95667">
        <ele>2610</ele>
        <time>2019-01-20T11:06:06.000Z</time>
      </trkpt>
      <trkpt lat="45.1571" lon="5.95667">
        <ele>2610</ele>
        <time>2019-01-20T11:06:07.000Z</time>
      </trkpt>
      <trkpt lat="45.15712" lon="5.95669">
        <ele>2610</ele>
        <time>2019-01-20T11:06:08.000Z</time>
      </trkpt>
      <trkpt lat="45.15712" lon="5.95669">
        <ele>2610</ele>
        <time>2019-01-20T11:06:09.000Z</time>
      </trkpt>
      <trkpt lat="45.15712" lon="5.95669">
        <ele>2610</ele>
        <time>2019-01-20T11:06:10.000Z</time>
      </trkpt>
      <trkpt lat="45.15713" lon="5.95672">
        <ele>2610</ele>
        <time>2019-01-20T11:06:11.000Z</time>
      </trkpt>
      <trkpt lat="45.15713" lon="5.95672">
        <ele>2610</ele>
        <time>2019-01-20T11:06:12.000Z</time>
      </trkpt>
      <trkpt lat="45.15713" lon="5.95672">
        <ele>2610</ele>
        <time>2019-01-20T11:06:13.000Z</time>
      </trkpt>
      <trkpt lat="45.15715" lon="5.95675">
        <ele>2610</ele>
        <time>2019-01-20T11:06:14.000Z</time>
      </trkpt>
      <trkpt lat="45.15715" lon="5.95675">
        <ele>2611</ele>
        <time>2019-01-20T11:06:15.000Z</time>
      </trkpt>
      <trkpt lat="45.15717" lon="5.95675">
        <ele>2611</ele>
        <time>2019-01-20T11:06:16.000Z</time>
      </trkpt>
      <trkpt lat="45.15717" lon="5.95675">
        <ele>2612</ele>
        <time>2019-01-20T11:06:17.000Z</time>
      </trkpt>
      <trkpt lat="45.15717" lon="5.95675">
        <ele>2612</ele>
        <time>2019-01-20T11:06:18.000Z</time>
      </trkpt>
      <trkpt lat="45.1572" lon="5.95676">
        <ele>2613</ele>
        <time>2019-01-20T11:06:19.000Z</time>
      </trkpt>
      <trkpt lat="45.1572" lon="5.95676">
        <ele>2613</ele>
        <time>2019-01-20T11:06:20.000Z</time>
      </trkpt>
      <trkpt lat="45.1572" lon="5.95676">
        <ele>2613</ele>
        <time>2019-01-20T11:06:21.000Z</time>
      </trkpt>
      <trkpt lat="45.1572" lon="5.95676">
        <ele>2613</ele>
        <time>2019-01-20T11:06:22.000Z</time>
      </trkpt>
      <trkpt lat="45.15722" lon="5.95676">
        <ele>2613</ele>
        <time>2019-01-20T11:06:23.000Z</time>
      </trkpt>
      <trkpt lat="45.15722" lon="5.95676">
        <ele>2613</ele>
        <time>2019-01-20T11:06:24.000Z</time>
      </trkpt>
      <trkpt lat="45.15724" lon="5.95676">
        <ele>2613</ele>
        <time>2019-01-20T11:06:25.000Z</time>
      </trkpt>
      <trkpt lat="45.15724" lon="5.95676">
        <ele>2613</ele>
        <time>2019-01-20T11:06:26.000Z</time>
      </trkpt>
      <trkpt lat="45.15724" lon="5.95676">
        <ele>2613</ele>
        <time>2019-01-20T11:06:27.000Z</time>
      </trkpt>
      <trkpt lat="45.15726" lon="5.95675">
        <ele>2613</ele>
        <time>2019-01-20T11:06:28.000Z</time>
      </trkpt>
      <trkpt lat="45.15726" lon="5.95675">
        <ele>2614</ele>
        <time>2019-01-20T11:06:29.000Z</time>
      </trkpt>
      <trkpt lat="45.15726" lon="5.95675">
        <ele>2614</ele>
        <time>2019-01-20T11:06:30.000Z</time>
      </trkpt>
      <trkpt lat="45.15728" lon="5.95675">
        <ele>2614</ele>
        <time>2019-01-20T11:06:31.000Z</time>
      </trkpt>
      <trkpt lat="45.15728" lon="5.95675">
        <ele>2615</ele>
        <time>2019-01-20T11:06:32.000Z</time>
      </trkpt>
      <trkpt lat="45.1573" lon="5.95674">
        <ele>2615</ele>
        <time>2019-01-20T11:06:34.000Z</time>
      </trkpt>
      <trkpt lat="45.1573" lon="5.95674">
        <ele>2616</ele>
        <time>2019-01-20T11:06:36.000Z</time>
      </trkpt>
      <trkpt lat="45.15732" lon="5.95673">
        <ele>2617</ele>
        <time>2019-01-20T11:06:37.000Z</time>
      </trkpt>
      <trkpt lat="45.15732" lon="5.95673">
        <ele>2617</ele>
        <time>2019-01-20T11:06:38.000Z</time>
      </trkpt>
      <trkpt lat="45.15734" lon="5.95672">
        <ele>2617</ele>
        <time>2019-01-20T11:06:39.000Z</time>
      </trkpt>
      <trkpt lat="45.15734" lon="5.95672">
        <ele>2617</ele>
        <time>2019-01-20T11:06:40.000Z</time>
      </trkpt>
      <trkpt lat="45.15734" lon="5.95672">
        <ele>2617</ele>
        <time>2019-01-20T11:06:41.000Z</time>
      </trkpt>
      <trkpt lat="45.15736" lon="5.9567">
        <ele>2617</ele>
        <time>2019-01-20T11:06:42.000Z</time>
      </trkpt>
      <trkpt lat="45.15736" lon="5.9567">
        <ele>2618</ele>
        <time>2019-01-20T11:06:43.000Z</time>
      </trkpt>
      <trkpt lat="45.15736" lon="5.9567">
        <ele>2618</ele>
        <time>2019-01-20T11:06:44.000Z</time>
      </trkpt>
      <trkpt lat="45.15738" lon="5.95668">
        <ele>2618</ele>
        <time>2019-01-20T11:06:45.000Z</time>
      </trkpt>
      <trkpt lat="45.15738" lon="5.95668">
        <ele>2618</ele>
        <time>2019-01-20T11:06:46.000Z</time>
      </trkpt>
      <trkpt lat="45.15738" lon="5.95668">
        <ele>2618</ele>
        <time>2019-01-20T11:06:47.000Z</time>
      </trkpt>
      <trkpt lat="45.1574" lon="5.95666">
        <ele>2619</ele>
        <time>2019-01-20T11:06:48.000Z</time>
      </trkpt>
      <trkpt lat="45.1574" lon="5.95666">
        <ele>2619</ele>
        <time>2019-01-20T11:06:49.000Z</time>
      </trkpt>
      <trkpt lat="45.1574" lon="5.95666">
        <ele>2619</ele>
        <time>2019-01-20T11:06:50.000Z</time>
      </trkpt>
      <trkpt lat="45.15743" lon="5.95665">
        <ele>2619</ele>
        <time>2019-01-20T11:06:51.000Z</time>
      </trkpt>
      <trkpt lat="45.15743" lon="5.95665">
        <ele>2619</ele>
        <time>2019-01-20T11:06:53.000Z</time>
      </trkpt>
      <trkpt lat="45.15743" lon="5.95665">
        <ele>2619</ele>
        <time>2019-01-20T11:06:54.000Z</time>
      </trkpt>
      <trkpt lat="45.15743" lon="5.95665">
        <ele>2619</ele>
        <time>2019-01-20T11:06:55.000Z</time>
      </trkpt>
      <trkpt lat="45.15743" lon="5.95665">
        <ele>2620</ele>
        <time>2019-01-20T11:06:56.000Z</time>
      </trkpt>
      <trkpt lat="45.15744" lon="5.95668">
        <ele>2620</ele>
        <time>2019-01-20T11:06:57.000Z</time>
      </trkpt>
      <trkpt lat="45.15744" lon="5.95668">
        <ele>2620</ele>
        <time>2019-01-20T11:06:58.000Z</time>
      </trkpt>
      <trkpt lat="45.15744" lon="5.95668">
        <ele>2621</ele>
        <time>2019-01-20T11:06:59.000Z</time>
      </trkpt>
      <trkpt lat="45.15744" lon="5.95671">
        <ele>2621</ele>
        <time>2019-01-20T11:07:00.000Z</time>
      </trkpt>
      <trkpt lat="45.15744" lon="5.95671">
        <ele>2621</ele>
        <time>2019-01-20T11:07:01.000Z</time>
      </trkpt>
      <trkpt lat="45.15744" lon="5.95671">
        <ele>2621</ele>
        <time>2019-01-20T11:07:02.000Z</time>
      </trkpt>
      <trkpt lat="45.15743" lon="5.95674">
        <ele>2621</ele>
        <time>2019-01-20T11:07:03.000Z</time>
      </trkpt>
      <trkpt lat="45.15743" lon="5.95674">
        <ele>2622</ele>
        <time>2019-01-20T11:07:04.000Z</time>
      </trkpt>
      <trkpt lat="45.15743" lon="5.95674">
        <ele>2622</ele>
        <time>2019-01-20T11:07:05.000Z</time>
      </trkpt>
      <trkpt lat="45.15743" lon="5.95676">
        <ele>2622</ele>
        <time>2019-01-20T11:07:06.000Z</time>
      </trkpt>
      <trkpt lat="45.15743" lon="5.95676">
        <ele>2622</ele>
        <time>2019-01-20T11:07:07.000Z</time>
      </trkpt>
      <trkpt lat="45.15743" lon="5.95676">
        <ele>2623</ele>
        <time>2019-01-20T11:07:08.000Z</time>
      </trkpt>
      <trkpt lat="45.15742" lon="5.95679">
        <ele>2623</ele>
        <time>2019-01-20T11:07:09.000Z</time>
      </trkpt>
      <trkpt lat="45.15742" lon="5.95679">
        <ele>2623</ele>
        <time>2019-01-20T11:07:10.000Z</time>
      </trkpt>
      <trkpt lat="45.15741" lon="5.95683">
        <ele>2623</ele>
        <time>2019-01-20T11:07:12.000Z</time>
      </trkpt>
      <trkpt lat="45.15741" lon="5.95683">
        <ele>2623</ele>
        <time>2019-01-20T11:07:13.000Z</time>
      </trkpt>
      <trkpt lat="45.15741" lon="5.95683">
        <ele>2623</ele>
        <time>2019-01-20T11:07:14.000Z</time>
      </trkpt>
      <trkpt lat="45.1574" lon="5.95686">
        <ele>2624</ele>
        <time>2019-01-20T11:07:15.000Z</time>
      </trkpt>
      <trkpt lat="45.1574" lon="5.95686">
        <ele>2624</ele>
        <time>2019-01-20T11:07:16.000Z</time>
      </trkpt>
      <trkpt lat="45.15739" lon="5.95688">
        <ele>2624</ele>
        <time>2019-01-20T11:07:17.000Z</time>
      </trkpt>
      <trkpt lat="45.15739" lon="5.95688">
        <ele>2624</ele>
        <time>2019-01-20T11:07:18.000Z</time>
      </trkpt>
      <trkpt lat="45.15739" lon="5.95688">
        <ele>2625</ele>
        <time>2019-01-20T11:07:19.000Z</time>
      </trkpt>
      <trkpt lat="45.15738" lon="5.95691">
        <ele>2625</ele>
        <time>2019-01-20T11:07:20.000Z</time>
      </trkpt>
      <trkpt lat="45.15738" lon="5.95691">
        <ele>2625</ele>
        <time>2019-01-20T11:07:21.000Z</time>
      </trkpt>
      <trkpt lat="45.15737" lon="5.95693">
        <ele>2625</ele>
        <time>2019-01-20T11:07:22.000Z</time>
      </trkpt>
      <trkpt lat="45.15737" lon="5.95693">
        <ele>2625</ele>
        <time>2019-01-20T11:07:23.000Z</time>
      </trkpt>
      <trkpt lat="45.15737" lon="5.95693">
        <ele>2625</ele>
        <time>2019-01-20T11:07:24.000Z</time>
      </trkpt>
      <trkpt lat="45.15736" lon="5.95697">
        <ele>2626</ele>
        <time>2019-01-20T11:07:25.000Z</time>
      </trkpt>
      <trkpt lat="45.15736" lon="5.95697">
        <ele>2626</ele>
        <time>2019-01-20T11:07:26.000Z</time>
      </trkpt>
      <trkpt lat="45.15736" lon="5.95697">
        <ele>2626</ele>
        <time>2019-01-20T11:07:27.000Z</time>
      </trkpt>
      <trkpt lat="45.15735" lon="5.957">
        <ele>2625</ele>
        <time>2019-01-20T11:07:28.000Z</time>
      </trkpt>
      <trkpt lat="45.15735" lon="5.957">
        <ele>2626</ele>
        <time>2019-01-20T11:07:29.000Z</time>
      </trkpt>
      <trkpt lat="45.15734" lon="5.95702">
        <ele>2626</ele>
        <time>2019-01-20T11:07:30.000Z</time>
      </trkpt>
      <trkpt lat="45.15734" lon="5.95702">
        <ele>2626</ele>
        <time>2019-01-20T11:07:31.000Z</time>
      </trkpt>
      <trkpt lat="45.15734" lon="5.95705">
        <ele>2626</ele>
        <time>2019-01-20T11:07:32.000Z</time>
      </trkpt>
      <trkpt lat="45.15734" lon="5.95705">
        <ele>2626</ele>
        <time>2019-01-20T11:07:33.000Z</time>
      </trkpt>
      <trkpt lat="45.15734" lon="5.95705">
        <ele>2626</ele>
        <time>2019-01-20T11:07:34.000Z</time>
      </trkpt>
      <trkpt lat="45.15733" lon="5.95709">
        <ele>2627</ele>
        <time>2019-01-20T11:07:35.000Z</time>
      </trkpt>
      <trkpt lat="45.15733" lon="5.95709">
        <ele>2627</ele>
        <time>2019-01-20T11:07:36.000Z</time>
      </trkpt>
      <trkpt lat="45.15732" lon="5.95712">
        <ele>2627</ele>
        <time>2019-01-20T11:07:37.000Z</time>
      </trkpt>
      <trkpt lat="45.15732" lon="5.95712">
        <ele>2627</ele>
        <time>2019-01-20T11:07:38.000Z</time>
      </trkpt>
      <trkpt lat="45.15732" lon="5.95712">
        <ele>2627</ele>
        <time>2019-01-20T11:07:39.000Z</time>
      </trkpt>
      <trkpt lat="45.15732" lon="5.95712">
        <ele>2627</ele>
        <time>2019-01-20T11:07:40.000Z</time>
      </trkpt>
      <trkpt lat="45.15732" lon="5.95712">
        <ele>2629</ele>
        <time>2019-01-20T11:07:41.000Z</time>
      </trkpt>
      <trkpt lat="45.15732" lon="5.95712">
        <ele>2630</ele>
        <time>2019-01-20T11:07:42.000Z</time>
      </trkpt>
      <trkpt lat="45.15732" lon="5.95712">
        <ele>2630</ele>
        <time>2019-01-20T11:07:43.000Z</time>
      </trkpt>
      <trkpt lat="45.15732" lon="5.95712">
        <ele>2630</ele>
        <time>2019-01-20T11:07:44.000Z</time>
      </trkpt>
      <trkpt lat="45.15732" lon="5.95712">
        <ele>2630</ele>
        <time>2019-01-20T11:07:45.000Z</time>
      </trkpt>
      <trkpt lat="45.15732" lon="5.95712">
        <ele>2630</ele>
        <time>2019-01-20T11:07:46.000Z</time>
      </trkpt>
      <trkpt lat="45.15732" lon="5.95712">
        <ele>2630</ele>
        <time>2019-01-20T11:07:47.000Z</time>
      </trkpt>
      <trkpt lat="45.15732" lon="5.95712">
        <ele>2630</ele>
        <time>2019-01-20T11:07:48.000Z</time>
      </trkpt>
      <trkpt lat="45.15732" lon="5.95712">
        <ele>2630</ele>
        <time>2019-01-20T11:07:50.000Z</time>
      </trkpt>
      <trkpt lat="45.15732" lon="5.95712">
        <ele>2630</ele>
        <time>2019-01-20T11:07:51.000Z</time>
      </trkpt>
      <trkpt lat="45.15732" lon="5.95712">
        <ele>2631</ele>
        <time>2019-01-20T11:07:52.000Z</time>
      </trkpt>
      <trkpt lat="45.15732" lon="5.95712">
        <ele>2631</ele>
        <time>2019-01-20T11:07:53.000Z</time>
      </trkpt>
      <trkpt lat="45.15732" lon="5.95712">
        <ele>2631</ele>
        <time>2019-01-20T11:07:55.000Z</time>
      </trkpt>
      <trkpt lat="45.15735" lon="5.95714">
        <ele>2631</ele>
        <time>2019-01-20T11:07:56.000Z</time>
      </trkpt>
      <trkpt lat="45.15735" lon="5.95714">
        <ele>2632</ele>
        <time>2019-01-20T11:07:57.000Z</time>
      </trkpt>
      <trkpt lat="45.15735" lon="5.95714">
        <ele>2632</ele>
        <time>2019-01-20T11:07:58.000Z</time>
      </trkpt>
      <trkpt lat="45.15736" lon="5.95712">
        <ele>2632</ele>
        <time>2019-01-20T11:07:59.000Z</time>
      </trkpt>
      <trkpt lat="45.15736" lon="5.95712">
        <ele>2632</ele>
        <time>2019-01-20T11:08:00.000Z</time>
      </trkpt>
      <trkpt lat="45.15736" lon="5.95712">
        <ele>2633</ele>
        <time>2019-01-20T11:08:01.000Z</time>
      </trkpt>
      <trkpt lat="45.15738" lon="5.9571">
        <ele>2633</ele>
        <time>2019-01-20T11:08:02.000Z</time>
      </trkpt>
      <trkpt lat="45.15738" lon="5.9571">
        <ele>2633</ele>
        <time>2019-01-20T11:08:03.000Z</time>
      </trkpt>
      <trkpt lat="45.15738" lon="5.9571">
        <ele>2633</ele>
        <time>2019-01-20T11:08:04.000Z</time>
      </trkpt>
      <trkpt lat="45.1574" lon="5.95709">
        <ele>2633</ele>
        <time>2019-01-20T11:08:05.000Z</time>
      </trkpt>
      <trkpt lat="45.1574" lon="5.95709">
        <ele>2633</ele>
        <time>2019-01-20T11:08:06.000Z</time>
      </trkpt>
      <trkpt lat="45.15741" lon="5.95707">
        <ele>2634</ele>
        <time>2019-01-20T11:08:07.000Z</time>
      </trkpt>
      <trkpt lat="45.15743" lon="5.95706">
        <ele>2634</ele>
        <time>2019-01-20T11:08:09.000Z</time>
      </trkpt>
      <trkpt lat="45.15743" lon="5.95706">
        <ele>2634</ele>
        <time>2019-01-20T11:08:10.000Z</time>
      </trkpt>
      <trkpt lat="45.15745" lon="5.95704">
        <ele>2635</ele>
        <time>2019-01-20T11:08:11.000Z</time>
      </trkpt>
      <trkpt lat="45.15745" lon="5.95704">
        <ele>2636</ele>
        <time>2019-01-20T11:08:12.000Z</time>
      </trkpt>
      <trkpt lat="45.15745" lon="5.95704">
        <ele>2636</ele>
        <time>2019-01-20T11:08:13.000Z</time>
      </trkpt>
      <trkpt lat="45.15745" lon="5.95704">
        <ele>2636</ele>
        <time>2019-01-20T11:08:14.000Z</time>
      </trkpt>
      <trkpt lat="45.15745" lon="5.95704">
        <ele>2636</ele>
        <time>2019-01-20T11:08:15.000Z</time>
      </trkpt>
      <trkpt lat="45.15745" lon="5.95704">
        <ele>2636</ele>
        <time>2019-01-20T11:08:16.000Z</time>
      </trkpt>
      <trkpt lat="45.15745" lon="5.95704">
        <ele>2636</ele>
        <time>2019-01-20T11:08:17.000Z</time>
      </trkpt>
      <trkpt lat="45.15745" lon="5.95704">
        <ele>2636</ele>
        <time>2019-01-20T11:08:18.000Z</time>
      </trkpt>
      <trkpt lat="45.15746" lon="5.95706">
        <ele>2636</ele>
        <time>2019-01-20T11:08:19.000Z</time>
      </trkpt>
      <trkpt lat="45.15746" lon="5.95706">
        <ele>2637</ele>
        <time>2019-01-20T11:08:20.000Z</time>
      </trkpt>
      <trkpt lat="45.15746" lon="5.95706">
        <ele>2637</ele>
        <time>2019-01-20T11:08:21.000Z</time>
      </trkpt>
      <trkpt lat="45.15747" lon="5.95709">
        <ele>2637</ele>
        <time>2019-01-20T11:08:22.000Z</time>
      </trkpt>
      <trkpt lat="45.15747" lon="5.95709">
        <ele>2636</ele>
        <time>2019-01-20T11:08:23.000Z</time>
      </trkpt>
      <trkpt lat="45.15747" lon="5.95709">
        <ele>2637</ele>
        <time>2019-01-20T11:08:24.000Z</time>
      </trkpt>
      <trkpt lat="45.15746" lon="5.95712">
        <ele>2637</ele>
        <time>2019-01-20T11:08:25.000Z</time>
      </trkpt>
      <trkpt lat="45.15746" lon="5.95712">
        <ele>2637</ele>
        <time>2019-01-20T11:08:26.000Z</time>
      </trkpt>
      <trkpt lat="45.15745" lon="5.95715">
        <ele>2637</ele>
        <time>2019-01-20T11:08:27.000Z</time>
      </trkpt>
      <trkpt lat="45.15745" lon="5.95715">
        <ele>2638</ele>
        <time>2019-01-20T11:08:28.000Z</time>
      </trkpt>
      <trkpt lat="45.15744" lon="5.95718">
        <ele>2638</ele>
        <time>2019-01-20T11:08:29.000Z</time>
      </trkpt>
      <trkpt lat="45.15744" lon="5.95718">
        <ele>2638</ele>
        <time>2019-01-20T11:08:30.000Z</time>
      </trkpt>
      <trkpt lat="45.15744" lon="5.95718">
        <ele>2638</ele>
        <time>2019-01-20T11:08:31.000Z</time>
      </trkpt>
      <trkpt lat="45.15744" lon="5.95719">
        <ele>2639</ele>
        <time>2019-01-20T11:08:32.000Z</time>
      </trkpt>
      <trkpt lat="45.15744" lon="5.9572">
        <ele>2639</ele>
        <time>2019-01-20T11:08:33.000Z</time>
      </trkpt>
      <trkpt lat="45.15744" lon="5.95721">
        <ele>2639</ele>
        <time>2019-01-20T11:08:34.000Z</time>
      </trkpt>
      <trkpt lat="45.15743" lon="5.95721">
        <ele>2639</ele>
        <time>2019-01-20T11:08:35.000Z</time>
      </trkpt>
      <trkpt lat="45.15743" lon="5.95721">
        <ele>2641</ele>
        <time>2019-01-20T11:08:36.000Z</time>
      </trkpt>
      <trkpt lat="45.15742" lon="5.95727">
        <ele>2641</ele>
        <time>2019-01-20T11:08:37.000Z</time>
      </trkpt>
      <trkpt lat="45.15742" lon="5.95727">
        <ele>2639</ele>
        <time>2019-01-20T11:08:38.000Z</time>
      </trkpt>
      <trkpt lat="45.15742" lon="5.95727">
        <ele>2641</ele>
        <time>2019-01-20T11:08:39.000Z</time>
      </trkpt>
      <trkpt lat="45.15742" lon="5.9573">
        <ele>2641</ele>
        <time>2019-01-20T11:08:40.000Z</time>
      </trkpt>
      <trkpt lat="45.15742" lon="5.9573">
        <ele>2641</ele>
        <time>2019-01-20T11:08:41.000Z</time>
      </trkpt>
      <trkpt lat="45.15742" lon="5.9573">
        <ele>2641</ele>
        <time>2019-01-20T11:08:42.000Z</time>
      </trkpt>
      <trkpt lat="45.15741" lon="5.95733">
        <ele>2642</ele>
        <time>2019-01-20T11:08:43.000Z</time>
      </trkpt>
      <trkpt lat="45.15741" lon="5.95733">
        <ele>2642</ele>
        <time>2019-01-20T11:08:44.000Z</time>
      </trkpt>
      <trkpt lat="45.15741" lon="5.95733">
        <ele>2642</ele>
        <time>2019-01-20T11:08:45.000Z</time>
      </trkpt>
      <trkpt lat="45.15741" lon="5.95733">
        <ele>2642</ele>
        <time>2019-01-20T11:08:47.000Z</time>
      </trkpt>
      <trkpt lat="45.15741" lon="5.95733">
        <ele>2642</ele>
        <time>2019-01-20T11:08:48.000Z</time>
      </trkpt>
      <trkpt lat="45.15741" lon="5.95733">
        <ele>2642</ele>
        <time>2019-01-20T11:08:49.000Z</time>
      </trkpt>
      <trkpt lat="45.15741" lon="5.95733">
        <ele>2642</ele>
        <time>2019-01-20T11:08:50.000Z</time>
      </trkpt>
      <trkpt lat="45.15741" lon="5.95733">
        <ele>2642</ele>
        <time>2019-01-20T11:08:51.000Z</time>
      </trkpt>
      <trkpt lat="45.15743" lon="5.95731">
        <ele>2642</ele>
        <time>2019-01-20T11:08:52.000Z</time>
      </trkpt>
      <trkpt lat="45.15743" lon="5.95731">
        <ele>2642</ele>
        <time>2019-01-20T11:08:53.000Z</time>
      </trkpt>
      <trkpt lat="45.15743" lon="5.95731">
        <ele>2643</ele>
        <time>2019-01-20T11:08:54.000Z</time>
      </trkpt>
      <trkpt lat="45.15745" lon="5.9573">
        <ele>2643</ele>
        <time>2019-01-20T11:08:55.000Z</time>
      </trkpt>
      <trkpt lat="45.15745" lon="5.9573">
        <ele>2643</ele>
        <time>2019-01-20T11:08:56.000Z</time>
      </trkpt>
      <trkpt lat="45.15745" lon="5.9573">
        <ele>2643</ele>
        <time>2019-01-20T11:08:57.000Z</time>
      </trkpt>
      <trkpt lat="45.15747" lon="5.95729">
        <ele>2643</ele>
        <time>2019-01-20T11:08:58.000Z</time>
      </trkpt>
      <trkpt lat="45.15747" lon="5.95729">
        <ele>2643</ele>
        <time>2019-01-20T11:08:59.000Z</time>
      </trkpt>
      <trkpt lat="45.15747" lon="5.95729">
        <ele>2643</ele>
        <time>2019-01-20T11:09:00.000Z</time>
      </trkpt>
      <trkpt lat="45.15749" lon="5.95727">
        <ele>2644</ele>
        <time>2019-01-20T11:09:01.000Z</time>
      </trkpt>
      <trkpt lat="45.15749" lon="5.95727">
        <ele>2644</ele>
        <time>2019-01-20T11:09:02.000Z</time>
      </trkpt>
      <trkpt lat="45.15749" lon="5.95727">
        <ele>2644</ele>
        <time>2019-01-20T11:09:03.000Z</time>
      </trkpt>
      <trkpt lat="45.15749" lon="5.95727">
        <ele>2645</ele>
        <time>2019-01-20T11:09:04.000Z</time>
      </trkpt>
      <trkpt lat="45.15751" lon="5.95726">
        <ele>2645</ele>
        <time>2019-01-20T11:09:06.000Z</time>
      </trkpt>
      <trkpt lat="45.15751" lon="5.95726">
        <ele>2645</ele>
        <time>2019-01-20T11:09:08.000Z</time>
      </trkpt>
      <trkpt lat="45.15753" lon="5.95723">
        <ele>2645</ele>
        <time>2019-01-20T11:09:09.000Z</time>
      </trkpt>
      <trkpt lat="45.15753" lon="5.95723">
        <ele>2645</ele>
        <time>2019-01-20T11:09:10.000Z</time>
      </trkpt>
      <trkpt lat="45.15753" lon="5.95723">
        <ele>2646</ele>
        <time>2019-01-20T11:09:11.000Z</time>
      </trkpt>
      <trkpt lat="45.15755" lon="5.95721">
        <ele>2646</ele>
        <time>2019-01-20T11:09:12.000Z</time>
      </trkpt>
      <trkpt lat="45.15755" lon="5.95721">
        <ele>2646</ele>
        <time>2019-01-20T11:09:13.000Z</time>
      </trkpt>
      <trkpt lat="45.15755" lon="5.95721">
        <ele>2647</ele>
        <time>2019-01-20T11:09:14.000Z</time>
      </trkpt>
      <trkpt lat="45.15757" lon="5.95719">
        <ele>2647</ele>
        <time>2019-01-20T11:09:15.000Z</time>
      </trkpt>
      <trkpt lat="45.15757" lon="5.95719">
        <ele>2647</ele>
        <time>2019-01-20T11:09:16.000Z</time>
      </trkpt>
      <trkpt lat="45.15757" lon="5.95719">
        <ele>2647</ele>
        <time>2019-01-20T11:09:17.000Z</time>
      </trkpt>
      <trkpt lat="45.15759" lon="5.95716">
        <ele>2647</ele>
        <time>2019-01-20T11:09:18.000Z</time>
      </trkpt>
      <trkpt lat="45.15759" lon="5.95716">
        <ele>2647</ele>
        <time>2019-01-20T11:09:19.000Z</time>
      </trkpt>
      <trkpt lat="45.15759" lon="5.95716">
        <ele>2648</ele>
        <time>2019-01-20T11:09:20.000Z</time>
      </trkpt>
      <trkpt lat="45.15759" lon="5.95716">
        <ele>2648</ele>
        <time>2019-01-20T11:09:21.000Z</time>
      </trkpt>
      <trkpt lat="45.15759" lon="5.95716">
        <ele>2648</ele>
        <time>2019-01-20T11:09:22.000Z</time>
      </trkpt>
      <trkpt lat="45.1576" lon="5.95713">
        <ele>2648</ele>
        <time>2019-01-20T11:09:23.000Z</time>
      </trkpt>
      <trkpt lat="45.1576" lon="5.95713">
        <ele>2648</ele>
        <time>2019-01-20T11:09:25.000Z</time>
      </trkpt>
      <trkpt lat="45.1576" lon="5.95713">
        <ele>2648</ele>
        <time>2019-01-20T11:09:26.000Z</time>
      </trkpt>
      <trkpt lat="45.1576" lon="5.95713">
        <ele>2648</ele>
        <time>2019-01-20T11:09:27.000Z</time>
      </trkpt>
      <trkpt lat="45.1576" lon="5.95713">
        <ele>2649</ele>
        <time>2019-01-20T11:09:28.000Z</time>
      </trkpt>
      <trkpt lat="45.15761" lon="5.95716">
        <ele>2649</ele>
        <time>2019-01-20T11:09:29.000Z</time>
      </trkpt>
      <trkpt lat="45.15761" lon="5.95716">
        <ele>2649</ele>
        <time>2019-01-20T11:09:30.000Z</time>
      </trkpt>
      <trkpt lat="45.15761" lon="5.95716">
        <ele>2649</ele>
        <time>2019-01-20T11:09:31.000Z</time>
      </trkpt>
      <trkpt lat="45.15761" lon="5.95719">
        <ele>2650</ele>
        <time>2019-01-20T11:09:32.000Z</time>
      </trkpt>
      <trkpt lat="45.15761" lon="5.95719">
        <ele>2650</ele>
        <time>2019-01-20T11:09:33.000Z</time>
      </trkpt>
      <trkpt lat="45.15761" lon="5.95719">
        <ele>2651</ele>
        <time>2019-01-20T11:09:34.000Z</time>
      </trkpt>
      <trkpt lat="45.15761" lon="5.95722">
        <ele>2651</ele>
        <time>2019-01-20T11:09:35.000Z</time>
      </trkpt>
      <trkpt lat="45.15761" lon="5.95722">
        <ele>2651</ele>
        <time>2019-01-20T11:09:36.000Z</time>
      </trkpt>
      <trkpt lat="45.15761" lon="5.95722">
        <ele>2651</ele>
        <time>2019-01-20T11:09:37.000Z</time>
      </trkpt>
      <trkpt lat="45.15761" lon="5.95726">
        <ele>2651</ele>
        <time>2019-01-20T11:09:38.000Z</time>
      </trkpt>
      <trkpt lat="45.15761" lon="5.95726">
        <ele>2651</ele>
        <time>2019-01-20T11:09:39.000Z</time>
      </trkpt>
      <trkpt lat="45.1576" lon="5.95729">
        <ele>2651</ele>
        <time>2019-01-20T11:09:40.000Z</time>
      </trkpt>
      <trkpt lat="45.1576" lon="5.95729">
        <ele>2651</ele>
        <time>2019-01-20T11:09:41.000Z</time>
      </trkpt>
      <trkpt lat="45.1576" lon="5.95731">
        <ele>2651</ele>
        <time>2019-01-20T11:09:42.000Z</time>
      </trkpt>
      <trkpt lat="45.1576" lon="5.95731">
        <ele>2652.4</ele>
        <time>2019-01-20T11:09:44.000Z</time>
      </trkpt>
      <trkpt lat="45.1576" lon="5.95734">
        <ele>2653</ele>
        <time>2019-01-20T11:09:45.000Z</time>
      </trkpt>
      <trkpt lat="45.1576" lon="5.95734">
        <ele>2653</ele>
        <time>2019-01-20T11:09:46.000Z</time>
      </trkpt>
      <trkpt lat="45.1576" lon="5.95734">
        <ele>2653</ele>
        <time>2019-01-20T11:09:47.000Z</time>
      </trkpt>
      <trkpt lat="45.15759" lon="5.95737">
        <ele>2653</ele>
        <time>2019-01-20T11:09:48.000Z</time>
      </trkpt>
      <trkpt lat="45.15759" lon="5.95737">
        <ele>2653</ele>
        <time>2019-01-20T11:09:49.000Z</time>
      </trkpt>
      <trkpt lat="45.15759" lon="5.95737">
        <ele>2653</ele>
        <time>2019-01-20T11:09:50.000Z</time>
      </trkpt>
      <trkpt lat="45.15759" lon="5.9574">
        <ele>2653</ele>
        <time>2019-01-20T11:09:51.000Z</time>
      </trkpt>
      <trkpt lat="45.15759" lon="5.9574">
        <ele>2654</ele>
        <time>2019-01-20T11:09:52.000Z</time>
      </trkpt>
      <trkpt lat="45.15758" lon="5.95743">
        <ele>2655</ele>
        <time>2019-01-20T11:09:53.000Z</time>
      </trkpt>
      <trkpt lat="45.15758" lon="5.95743">
        <ele>2655</ele>
        <time>2019-01-20T11:09:54.000Z</time>
      </trkpt>
      <trkpt lat="45.15758" lon="5.95743">
        <ele>2655</ele>
        <time>2019-01-20T11:09:55.000Z</time>
      </trkpt>
      <trkpt lat="45.15758" lon="5.95743">
        <ele>2655</ele>
        <time>2019-01-20T11:09:56.000Z</time>
      </trkpt>
      <trkpt lat="45.15758" lon="5.95743">
        <ele>2655</ele>
        <time>2019-01-20T11:09:57.000Z</time>
      </trkpt>
      <trkpt lat="45.15758" lon="5.95743">
        <ele>2655</ele>
        <time>2019-01-20T11:09:58.000Z</time>
      </trkpt>
      <trkpt lat="45.15758" lon="5.95743">
        <ele>2655</ele>
        <time>2019-01-20T11:09:59.000Z</time>
      </trkpt>
      <trkpt lat="45.15758" lon="5.95743">
        <ele>2655</ele>
        <time>2019-01-20T11:10:00.000Z</time>
      </trkpt>
      <trkpt lat="45.15758" lon="5.95743">
        <ele>2655</ele>
        <time>2019-01-20T11:10:01.000Z</time>
      </trkpt>
      <trkpt lat="45.1576" lon="5.95743">
        <ele>2656</ele>
        <time>2019-01-20T11:10:03.000Z</time>
      </trkpt>
      <trkpt lat="45.1576" lon="5.95743">
        <ele>2656</ele>
        <time>2019-01-20T11:10:04.000Z</time>
      </trkpt>
      <trkpt lat="45.1576" lon="5.95743">
        <ele>2656</ele>
        <time>2019-01-20T11:10:05.000Z</time>
      </trkpt>
      <trkpt lat="45.15762" lon="5.95742">
        <ele>2656</ele>
        <time>2019-01-20T11:10:06.000Z</time>
      </trkpt>
      <trkpt lat="45.15762" lon="5.95742">
        <ele>2656</ele>
        <time>2019-01-20T11:10:07.000Z</time>
      </trkpt>
      <trkpt lat="45.15763" lon="5.9574">
        <ele>2656</ele>
        <time>2019-01-20T11:10:08.000Z</time>
      </trkpt>
      <trkpt lat="45.15763" lon="5.9574">
        <ele>2657</ele>
        <time>2019-01-20T11:10:09.000Z</time>
      </trkpt>
      <trkpt lat="45.15764" lon="5.95738">
        <ele>2657</ele>
        <time>2019-01-20T11:10:10.000Z</time>
      </trkpt>
      <trkpt lat="45.15764" lon="5.95738">
        <ele>2657</ele>
        <time>2019-01-20T11:10:11.000Z</time>
      </trkpt>
      <trkpt lat="45.15766" lon="5.95736">
        <ele>2657</ele>
        <time>2019-01-20T11:10:12.000Z</time>
      </trkpt>
      <trkpt lat="45.15766" lon="5.95736">
        <ele>2657</ele>
        <time>2019-01-20T11:10:13.000Z</time>
      </trkpt>
      <trkpt lat="45.15766" lon="5.95736">
        <ele>2657</ele>
        <time>2019-01-20T11:10:14.000Z</time>
      </trkpt>
      <trkpt lat="45.15766" lon="5.95736">
        <ele>2657</ele>
        <time>2019-01-20T11:10:15.000Z</time>
      </trkpt>
      <trkpt lat="45.15767" lon="5.95734">
        <ele>2659</ele>
        <time>2019-01-20T11:10:16.000Z</time>
      </trkpt>
      <trkpt lat="45.15767" lon="5.95734">
        <ele>2659</ele>
        <time>2019-01-20T11:10:17.000Z</time>
      </trkpt>
      <trkpt lat="45.15769" lon="5.95732">
        <ele>2659</ele>
        <time>2019-01-20T11:10:18.000Z</time>
      </trkpt>
      <trkpt lat="45.15769" lon="5.95732">
        <ele>2659</ele>
        <time>2019-01-20T11:10:19.000Z</time>
      </trkpt>
      <trkpt lat="45.1577" lon="5.95731">
        <ele>2659</ele>
        <time>2019-01-20T11:10:20.000Z</time>
      </trkpt>
      <trkpt lat="45.1577" lon="5.95731">
        <ele>2660</ele>
        <time>2019-01-20T11:10:21.000Z</time>
      </trkpt>
      <trkpt lat="45.15772" lon="5.95729">
        <ele>2660</ele>
        <time>2019-01-20T11:10:22.000Z</time>
      </trkpt>
      <trkpt lat="45.15772" lon="5.95729">
        <ele>2660</ele>
        <time>2019-01-20T11:10:23.000Z</time>
      </trkpt>
      <trkpt lat="45.15772" lon="5.95729">
        <ele>2660</ele>
        <time>2019-01-20T11:10:24.000Z</time>
      </trkpt>
      <trkpt lat="45.15774" lon="5.95726">
        <ele>2660</ele>
        <time>2019-01-20T11:10:25.000Z</time>
      </trkpt>
      <trkpt lat="45.15774" lon="5.95726">
        <ele>2661</ele>
        <time>2019-01-20T11:10:26.000Z</time>
      </trkpt>
      <trkpt lat="45.15774" lon="5.95726">
        <ele>2661</ele>
        <time>2019-01-20T11:10:27.000Z</time>
      </trkpt>
      <trkpt lat="45.15775" lon="5.95723">
        <ele>2661</ele>
        <time>2019-01-20T11:10:28.000Z</time>
      </trkpt>
      <trkpt lat="45.15775" lon="5.95723">
        <ele>2662</ele>
        <time>2019-01-20T11:10:29.000Z</time>
      </trkpt>
      <trkpt lat="45.15775" lon="5.95723">
        <ele>2662</ele>
        <time>2019-01-20T11:10:30.000Z</time>
      </trkpt>
      <trkpt lat="45.15776" lon="5.9572">
        <ele>2662</ele>
        <time>2019-01-20T11:10:31.000Z</time>
      </trkpt>
      <trkpt lat="45.15776" lon="5.9572">
        <ele>2662</ele>
        <time>2019-01-20T11:10:32.000Z</time>
      </trkpt>
      <trkpt lat="45.15777" lon="5.95718">
        <ele>2662</ele>
        <time>2019-01-20T11:10:33.000Z</time>
      </trkpt>
      <trkpt lat="45.15777" lon="5.95718">
        <ele>2663</ele>
        <time>2019-01-20T11:10:34.000Z</time>
      </trkpt>
      <trkpt lat="45.15778" lon="5.95716">
        <ele>2663</ele>
        <time>2019-01-20T11:10:35.000Z</time>
      </trkpt>
      <trkpt lat="45.15778" lon="5.95716">
        <ele>2663</ele>
        <time>2019-01-20T11:10:36.000Z</time>
      </trkpt>
      <trkpt lat="45.15779" lon="5.95714">
        <ele>2663</ele>
        <time>2019-01-20T11:10:37.000Z</time>
      </trkpt>
      <trkpt lat="45.15779" lon="5.95714">
        <ele>2664</ele>
        <time>2019-01-20T11:10:38.000Z</time>
      </trkpt>
      <trkpt lat="45.15781" lon="5.95712">
        <ele>2664</ele>
        <time>2019-01-20T11:10:39.000Z</time>
      </trkpt>
      <trkpt lat="45.15781" lon="5.95712">
        <ele>2664.4</ele>
        <time>2019-01-20T11:10:41.000Z</time>
      </trkpt>
      <trkpt lat="45.15781" lon="5.95712">
        <ele>2665</ele>
        <time>2019-01-20T11:10:42.000Z</time>
      </trkpt>
      <trkpt lat="45.15781" lon="5.95715">
        <ele>2665</ele>
        <time>2019-01-20T11:10:43.000Z</time>
      </trkpt>
      <trkpt lat="45.15781" lon="5.95715">
        <ele>2665</ele>
        <time>2019-01-20T11:10:44.000Z</time>
      </trkpt>
      <trkpt lat="45.15781" lon="5.95715">
        <ele>2666</ele>
        <time>2019-01-20T11:10:45.000Z</time>
      </trkpt>
      <trkpt lat="45.15782" lon="5.95719">
        <ele>2666</ele>
        <time>2019-01-20T11:10:46.000Z</time>
      </trkpt>
      <trkpt lat="45.15782" lon="5.95719">
        <ele>2666</ele>
        <time>2019-01-20T11:10:47.000Z</time>
      </trkpt>
      <trkpt lat="45.15782" lon="5.95719">
        <ele>2666</ele>
        <time>2019-01-20T11:10:48.000Z</time>
      </trkpt>
      <trkpt lat="45.15783" lon="5.95722">
        <ele>2666</ele>
        <time>2019-01-20T11:10:49.000Z</time>
      </trkpt>
      <trkpt lat="45.15783" lon="5.95722">
        <ele>2666</ele>
        <time>2019-01-20T11:10:50.000Z</time>
      </trkpt>
      <trkpt lat="45.15783" lon="5.95722">
        <ele>2666</ele>
        <time>2019-01-20T11:10:51.000Z</time>
      </trkpt>
      <trkpt lat="45.15783" lon="5.95725">
        <ele>2666</ele>
        <time>2019-01-20T11:10:52.000Z</time>
      </trkpt>
      <trkpt lat="45.15783" lon="5.95725">
        <ele>2667</ele>
        <time>2019-01-20T11:10:53.000Z</time>
      </trkpt>
      <trkpt lat="45.15783" lon="5.95725">
        <ele>2667</ele>
        <time>2019-01-20T11:10:54.000Z</time>
      </trkpt>
      <trkpt lat="45.15784" lon="5.95729">
        <ele>2667</ele>
        <time>2019-01-20T11:10:55.000Z</time>
      </trkpt>
      <trkpt lat="45.15784" lon="5.95729">
        <ele>2668</ele>
        <time>2019-01-20T11:10:56.000Z</time>
      </trkpt>
      <trkpt lat="45.15784" lon="5.95729">
        <ele>2668</ele>
        <time>2019-01-20T11:10:57.000Z</time>
      </trkpt>
      <trkpt lat="45.15784" lon="5.95733">
        <ele>2668</ele>
        <time>2019-01-20T11:10:58.000Z</time>
      </trkpt>
      <trkpt lat="45.15784" lon="5.95733">
        <ele>2668</ele>
        <time>2019-01-20T11:11:00.000Z</time>
      </trkpt>
      <trkpt lat="45.15783" lon="5.95735">
        <ele>2668</ele>
        <time>2019-01-20T11:11:01.000Z</time>
      </trkpt>
      <trkpt lat="45.15783" lon="5.95735">
        <ele>2668</ele>
        <time>2019-01-20T11:11:02.000Z</time>
      </trkpt>
      <trkpt lat="45.15783" lon="5.95735">
        <ele>2668</ele>
        <time>2019-01-20T11:11:03.000Z</time>
      </trkpt>
      <trkpt lat="45.15783" lon="5.95738">
        <ele>2668</ele>
        <time>2019-01-20T11:11:04.000Z</time>
      </trkpt>
      <trkpt lat="45.15783" lon="5.95738">
        <ele>2668</ele>
        <time>2019-01-20T11:11:05.000Z</time>
      </trkpt>
      <trkpt lat="45.15783" lon="5.95738">
        <ele>2668</ele>
        <time>2019-01-20T11:11:06.000Z</time>
      </trkpt>
      <trkpt lat="45.15783" lon="5.95742">
        <ele>2669</ele>
        <time>2019-01-20T11:11:07.000Z</time>
      </trkpt>
      <trkpt lat="45.15783" lon="5.95742">
        <ele>2669</ele>
        <time>2019-01-20T11:11:08.000Z</time>
      </trkpt>
      <trkpt lat="45.15783" lon="5.95742">
        <ele>2670</ele>
        <time>2019-01-20T11:11:09.000Z</time>
      </trkpt>
      <trkpt lat="45.15783" lon="5.95745">
        <ele>2670</ele>
        <time>2019-01-20T11:11:10.000Z</time>
      </trkpt>
      <trkpt lat="45.15783" lon="5.95745">
        <ele>2670</ele>
        <time>2019-01-20T11:11:11.000Z</time>
      </trkpt>
      <trkpt lat="45.15783" lon="5.95745">
        <ele>2670</ele>
        <time>2019-01-20T11:11:12.000Z</time>
      </trkpt>
      <trkpt lat="45.15782" lon="5.95748">
        <ele>2670</ele>
        <time>2019-01-20T11:11:13.000Z</time>
      </trkpt>
      <trkpt lat="45.15782" lon="5.95748">
        <ele>2670</ele>
        <time>2019-01-20T11:11:14.000Z</time>
      </trkpt>
      <trkpt lat="45.15782" lon="5.95748">
        <ele>2671</ele>
        <time>2019-01-20T11:11:15.000Z</time>
      </trkpt>
      <trkpt lat="45.15781" lon="5.95751">
        <ele>2672</ele>
        <time>2019-01-20T11:11:16.000Z</time>
      </trkpt>
      <trkpt lat="45.15781" lon="5.95751">
        <ele>2672</ele>
        <time>2019-01-20T11:11:17.000Z</time>
      </trkpt>
      <trkpt lat="45.15781" lon="5.95751">
        <ele>2672</ele>
        <time>2019-01-20T11:11:19.000Z</time>
      </trkpt>
      <trkpt lat="45.1578" lon="5.95756">
        <ele>2672</ele>
        <time>2019-01-20T11:11:20.000Z</time>
      </trkpt>
      <trkpt lat="45.1578" lon="5.95756">
        <ele>2673</ele>
        <time>2019-01-20T11:11:22.000Z</time>
      </trkpt>
      <trkpt lat="45.15779" lon="5.95758">
        <ele>2673</ele>
        <time>2019-01-20T11:11:23.000Z</time>
      </trkpt>
      <trkpt lat="45.15779" lon="5.95758">
        <ele>2673</ele>
        <time>2019-01-20T11:11:24.000Z</time>
      </trkpt>
      <trkpt lat="45.15779" lon="5.95758">
        <ele>2673</ele>
        <time>2019-01-20T11:11:25.000Z</time>
      </trkpt>
      <trkpt lat="45.15779" lon="5.95758">
        <ele>2673</ele>
        <time>2019-01-20T11:11:26.000Z</time>
      </trkpt>
      <trkpt lat="45.15779" lon="5.95758">
        <ele>2673</ele>
        <time>2019-01-20T11:11:27.000Z</time>
      </trkpt>
      <trkpt lat="45.15779" lon="5.95758">
        <ele>2673</ele>
        <time>2019-01-20T11:11:28.000Z</time>
      </trkpt>
      <trkpt lat="45.15779" lon="5.95758">
        <ele>2673</ele>
        <time>2019-01-20T11:11:29.000Z</time>
      </trkpt>
      <trkpt lat="45.15779" lon="5.95758">
        <ele>2673</ele>
        <time>2019-01-20T11:11:30.000Z</time>
      </trkpt>
      <trkpt lat="45.15779" lon="5.95758">
        <ele>2673</ele>
        <time>2019-01-20T11:11:31.000Z</time>
      </trkpt>
      <trkpt lat="45.15779" lon="5.95758">
        <ele>2673</ele>
        <time>2019-01-20T11:11:32.000Z</time>
      </trkpt>
      <trkpt lat="45.15779" lon="5.95758">
        <ele>2673</ele>
        <time>2019-01-20T11:11:33.000Z</time>
      </trkpt>
      <trkpt lat="45.15779" lon="5.95758">
        <ele>2673</ele>
        <time>2019-01-20T11:11:34.000Z</time>
      </trkpt>
      <trkpt lat="45.15779" lon="5.95758">
        <ele>2673</ele>
        <time>2019-01-20T11:11:35.000Z</time>
      </trkpt>
      <trkpt lat="45.15779" lon="5.95758">
        <ele>2673</ele>
        <time>2019-01-20T11:11:36.000Z</time>
      </trkpt>
      <trkpt lat="45.15781" lon="5.95756">
        <ele>2673</ele>
        <time>2019-01-20T11:11:37.000Z</time>
      </trkpt>
      <trkpt lat="45.15781" lon="5.95756">
        <ele>2673.6</ele>
        <time>2019-01-20T11:11:38.000Z</time>
      </trkpt>
      <trkpt lat="45.15783" lon="5.95755">
        <ele>2674</ele>
        <time>2019-01-20T11:11:39.000Z</time>
      </trkpt>
      <trkpt lat="45.15783" lon="5.95755">
        <ele>2674</ele>
        <time>2019-01-20T11:11:40.000Z</time>
      </trkpt>
      <trkpt lat="45.15783" lon="5.95755">
        <ele>2674</ele>
        <time>2019-01-20T11:11:41.000Z</time>
      </trkpt>
      <trkpt lat="45.15785" lon="5.95753">
        <ele>2674</ele>
        <time>2019-01-20T11:11:42.000Z</time>
      </trkpt>
      <trkpt lat="45.15785" lon="5.95753">
        <ele>2674</ele>
        <time>2019-01-20T11:11:43.000Z</time>
      </trkpt>
      <trkpt lat="45.15787" lon="5.95752">
        <ele>2674</ele>
        <time>2019-01-20T11:11:44.000Z</time>
      </trkpt>
      <trkpt lat="45.15787" lon="5.95752">
        <ele>2674</ele>
        <time>2019-01-20T11:11:45.000Z</time>
      </trkpt>
      <trkpt lat="45.15788" lon="5.95751">
        <ele>2674</ele>
        <time>2019-01-20T11:11:46.000Z</time>
      </trkpt>
      <trkpt lat="45.15788" lon="5.95751">
        <ele>2675</ele>
        <time>2019-01-20T11:11:47.000Z</time>
      </trkpt>
      <trkpt lat="45.1579" lon="5.95749">
        <ele>2675</ele>
        <time>2019-01-20T11:11:48.000Z</time>
      </trkpt>
      <trkpt lat="45.1579" lon="5.95749">
        <ele>2676</ele>
        <time>2019-01-20T11:11:49.000Z</time>
      </trkpt>
      <trkpt lat="45.15791" lon="5.95748">
        <ele>2676</ele>
        <time>2019-01-20T11:11:50.000Z</time>
      </trkpt>
      <trkpt lat="45.15791" lon="5.95748">
        <ele>2676</ele>
        <time>2019-01-20T11:11:51.000Z</time>
      </trkpt>
      <trkpt lat="45.15791" lon="5.95748">
        <ele>2676</ele>
        <time>2019-01-20T11:11:52.000Z</time>
      </trkpt>
      <trkpt lat="45.15793" lon="5.95746">
        <ele>2676</ele>
        <time>2019-01-20T11:11:53.000Z</time>
      </trkpt>
      <trkpt lat="45.15793" lon="5.95746">
        <ele>2676</ele>
        <time>2019-01-20T11:11:54.000Z</time>
      </trkpt>
      <trkpt lat="45.15793" lon="5.95746">
        <ele>2677</ele>
        <time>2019-01-20T11:11:55.000Z</time>
      </trkpt>
      <trkpt lat="45.15795" lon="5.95744">
        <ele>2677</ele>
        <time>2019-01-20T11:11:56.000Z</time>
      </trkpt>
      <trkpt lat="45.15795" lon="5.95744">
        <ele>2677</ele>
        <time>2019-01-20T11:11:57.000Z</time>
      </trkpt>
      <trkpt lat="45.15795" lon="5.95744">
        <ele>2677</ele>
        <time>2019-01-20T11:11:58.000Z</time>
      </trkpt>
      <trkpt lat="45.15796" lon="5.95741">
        <ele>2677</ele>
        <time>2019-01-20T11:11:59.000Z</time>
      </trkpt>
      <trkpt lat="45.15796" lon="5.95741">
        <ele>2677</ele>
        <time>2019-01-20T11:12:00.000Z</time>
      </trkpt>
      <trkpt lat="45.15796" lon="5.95741">
        <ele>2677</ele>
        <time>2019-01-20T11:12:01.000Z</time>
      </trkpt>
      <trkpt lat="45.15798" lon="5.95739">
        <ele>2677</ele>
        <time>2019-01-20T11:12:02.000Z</time>
      </trkpt>
      <trkpt lat="45.15798" lon="5.95739">
        <ele>2677</ele>
        <time>2019-01-20T11:12:03.000Z</time>
      </trkpt>
      <trkpt lat="45.15798" lon="5.95739">
        <ele>2678</ele>
        <time>2019-01-20T11:12:04.000Z</time>
      </trkpt>
      <trkpt lat="45.15798" lon="5.95736">
        <ele>2678</ele>
        <time>2019-01-20T11:12:05.000Z</time>
      </trkpt>
      <trkpt lat="45.15798" lon="5.95736">
        <ele>2678</ele>
        <time>2019-01-20T11:12:06.000Z</time>
      </trkpt>
      <trkpt lat="45.15799" lon="5.95734">
        <ele>2678</ele>
        <time>2019-01-20T11:12:07.000Z</time>
      </trkpt>
      <trkpt lat="45.15799" lon="5.95734">
        <ele>2678</ele>
        <time>2019-01-20T11:12:08.000Z</time>
      </trkpt>
      <trkpt lat="45.15799" lon="5.95734">
        <ele>2679</ele>
        <time>2019-01-20T11:12:09.000Z</time>
      </trkpt>
      <trkpt lat="45.15801" lon="5.95731">
        <ele>2679</ele>
        <time>2019-01-20T11:12:10.000Z</time>
      </trkpt>
      <trkpt lat="45.15801" lon="5.95731">
        <ele>2679</ele>
        <time>2019-01-20T11:12:11.000Z</time>
      </trkpt>
      <trkpt lat="45.15801" lon="5.95731">
        <ele>2679</ele>
        <time>2019-01-20T11:12:12.000Z</time>
      </trkpt>
      <trkpt lat="45.15801" lon="5.95731">
        <ele>2679</ele>
        <time>2019-01-20T11:12:13.000Z</time>
      </trkpt>
      <trkpt lat="45.15801" lon="5.95731">
        <ele>2680</ele>
        <time>2019-01-20T11:12:14.000Z</time>
      </trkpt>
      <trkpt lat="45.15801" lon="5.95735">
        <ele>2680</ele>
        <time>2019-01-20T11:12:15.000Z</time>
      </trkpt>
      <trkpt lat="45.15801" lon="5.95735">
        <ele>2681</ele>
        <time>2019-01-20T11:12:16.000Z</time>
      </trkpt>
      <trkpt lat="45.15801" lon="5.95735">
        <ele>2681</ele>
        <time>2019-01-20T11:12:17.000Z</time>
      </trkpt>
      <trkpt lat="45.15801" lon="5.95738">
        <ele>2681</ele>
        <time>2019-01-20T11:12:18.000Z</time>
      </trkpt>
      <trkpt lat="45.15801" lon="5.95738">
        <ele>2681</ele>
        <time>2019-01-20T11:12:20.000Z</time>
      </trkpt>
      <trkpt lat="45.15802" lon="5.95742">
        <ele>2681</ele>
        <time>2019-01-20T11:12:21.000Z</time>
      </trkpt>
      <trkpt lat="45.15802" lon="5.95742">
        <ele>2681</ele>
        <time>2019-01-20T11:12:22.000Z</time>
      </trkpt>
      <trkpt lat="45.15802" lon="5.95742">
        <ele>2682</ele>
        <time>2019-01-20T11:12:23.000Z</time>
      </trkpt>
      <trkpt lat="45.15801" lon="5.95746">
        <ele>2683</ele>
        <time>2019-01-20T11:12:24.000Z</time>
      </trkpt>
      <trkpt lat="45.15801" lon="5.95746">
        <ele>2683</ele>
        <time>2019-01-20T11:12:25.000Z</time>
      </trkpt>
      <trkpt lat="45.15801" lon="5.95746">
        <ele>2682</ele>
        <time>2019-01-20T11:12:26.000Z</time>
      </trkpt>
      <trkpt lat="45.15801" lon="5.95749">
        <ele>2682</ele>
        <time>2019-01-20T11:12:27.000Z</time>
      </trkpt>
      <trkpt lat="45.15801" lon="5.95749">
        <ele>2683</ele>
        <time>2019-01-20T11:12:28.000Z</time>
      </trkpt>
      <trkpt lat="45.15801" lon="5.95749">
        <ele>2683</ele>
        <time>2019-01-20T11:12:29.000Z</time>
      </trkpt>
      <trkpt lat="45.15801" lon="5.95752">
        <ele>2683</ele>
        <time>2019-01-20T11:12:30.000Z</time>
      </trkpt>
      <trkpt lat="45.15801" lon="5.95752">
        <ele>2683</ele>
        <time>2019-01-20T11:12:31.000Z</time>
      </trkpt>
      <trkpt lat="45.15801" lon="5.95752">
        <ele>2683</ele>
        <time>2019-01-20T11:12:32.000Z</time>
      </trkpt>
      <trkpt lat="45.15801" lon="5.95754">
        <ele>2684</ele>
        <time>2019-01-20T11:12:33.000Z</time>
      </trkpt>
      <trkpt lat="45.15801" lon="5.95754">
        <ele>2684</ele>
        <time>2019-01-20T11:12:35.000Z</time>
      </trkpt>
      <trkpt lat="45.158" lon="5.95758">
        <ele>2684</ele>
        <time>2019-01-20T11:12:36.000Z</time>
      </trkpt>
      <trkpt lat="45.158" lon="5.95758">
        <ele>2685</ele>
        <time>2019-01-20T11:12:38.000Z</time>
      </trkpt>
      <trkpt lat="45.15799" lon="5.95761">
        <ele>2685</ele>
        <time>2019-01-20T11:12:39.000Z</time>
      </trkpt>
      <trkpt lat="45.15799" lon="5.95761">
        <ele>2685</ele>
        <time>2019-01-20T11:12:40.000Z</time>
      </trkpt>
      <trkpt lat="45.15799" lon="5.95761">
        <ele>2685</ele>
        <time>2019-01-20T11:12:41.000Z</time>
      </trkpt>
      <trkpt lat="45.15798" lon="5.95764">
        <ele>2685</ele>
        <time>2019-01-20T11:12:42.000Z</time>
      </trkpt>
      <trkpt lat="45.15798" lon="5.95764">
        <ele>2686</ele>
        <time>2019-01-20T11:12:43.000Z</time>
      </trkpt>
      <trkpt lat="45.15798" lon="5.95764">
        <ele>2686</ele>
        <time>2019-01-20T11:12:44.000Z</time>
      </trkpt>
      <trkpt lat="45.15797" lon="5.95767">
        <ele>2686</ele>
        <time>2019-01-20T11:12:45.000Z</time>
      </trkpt>
      <trkpt lat="45.15797" lon="5.95767">
        <ele>2687</ele>
        <time>2019-01-20T11:12:46.000Z</time>
      </trkpt>
      <trkpt lat="45.15797" lon="5.95767">
        <ele>2687</ele>
        <time>2019-01-20T11:12:47.000Z</time>
      </trkpt>
      <trkpt lat="45.15796" lon="5.95771">
        <ele>2687</ele>
        <time>2019-01-20T11:12:48.000Z</time>
      </trkpt>
      <trkpt lat="45.15796" lon="5.95771">
        <ele>2687</ele>
        <time>2019-01-20T11:12:49.000Z</time>
      </trkpt>
      <trkpt lat="45.15796" lon="5.95771">
        <ele>2687</ele>
        <time>2019-01-20T11:12:50.000Z</time>
      </trkpt>
      <trkpt lat="45.15795" lon="5.95775">
        <ele>2687</ele>
        <time>2019-01-20T11:12:51.000Z</time>
      </trkpt>
      <trkpt lat="45.15795" lon="5.95775">
        <ele>2687</ele>
        <time>2019-01-20T11:12:52.000Z</time>
      </trkpt>
      <trkpt lat="45.15793" lon="5.95777">
        <ele>2688</ele>
        <time>2019-01-20T11:12:54.000Z</time>
      </trkpt>
      <trkpt lat="45.15793" lon="5.95777">
        <ele>2688</ele>
        <time>2019-01-20T11:12:55.000Z</time>
      </trkpt>
      <trkpt lat="45.15793" lon="5.95777">
        <ele>2688</ele>
        <time>2019-01-20T11:12:56.000Z</time>
      </trkpt>
      <trkpt lat="45.15793" lon="5.95777">
        <ele>2689</ele>
        <time>2019-01-20T11:12:57.000Z</time>
      </trkpt>
      <trkpt lat="45.15793" lon="5.95777">
        <ele>2689</ele>
        <time>2019-01-20T11:12:58.000Z</time>
      </trkpt>
      <trkpt lat="45.15793" lon="5.95777">
        <ele>2689</ele>
        <time>2019-01-20T11:12:59.000Z</time>
      </trkpt>
      <trkpt lat="45.15793" lon="5.95777">
        <ele>2689</ele>
        <time>2019-01-20T11:13:00.000Z</time>
      </trkpt>
      <trkpt lat="45.15793" lon="5.95777">
        <ele>2689</ele>
        <time>2019-01-20T11:13:01.000Z</time>
      </trkpt>
      <trkpt lat="45.15793" lon="5.95777">
        <ele>2689</ele>
        <time>2019-01-20T11:13:02.000Z</time>
      </trkpt>
      <trkpt lat="45.15793" lon="5.95777">
        <ele>2689</ele>
        <time>2019-01-20T11:13:03.000Z</time>
      </trkpt>
      <trkpt lat="45.15793" lon="5.95777">
        <ele>2689</ele>
        <time>2019-01-20T11:13:04.000Z</time>
      </trkpt>
      <trkpt lat="45.15793" lon="5.95777">
        <ele>2689</ele>
        <time>2019-01-20T11:13:05.000Z</time>
      </trkpt>
      <trkpt lat="45.15793" lon="5.95777">
        <ele>2689</ele>
        <time>2019-01-20T11:13:06.000Z</time>
      </trkpt>
      <trkpt lat="45.15793" lon="5.95777">
        <ele>2689</ele>
        <time>2019-01-20T11:13:07.000Z</time>
      </trkpt>
      <trkpt lat="45.15793" lon="5.95777">
        <ele>2690</ele>
        <time>2019-01-20T11:13:08.000Z</time>
      </trkpt>
      <trkpt lat="45.15793" lon="5.95777">
        <ele>2690</ele>
        <time>2019-01-20T11:13:09.000Z</time>
      </trkpt>
      <trkpt lat="45.15793" lon="5.95777">
        <ele>2690</ele>
        <time>2019-01-20T11:13:10.000Z</time>
      </trkpt>
      <trkpt lat="45.15793" lon="5.95777">
        <ele>2690</ele>
        <time>2019-01-20T11:13:11.000Z</time>
      </trkpt>
      <trkpt lat="45.15799" lon="5.95776">
        <ele>2691</ele>
        <time>2019-01-20T11:13:13.000Z</time>
      </trkpt>
      <trkpt lat="45.15799" lon="5.95776">
        <ele>2691</ele>
        <time>2019-01-20T11:13:14.000Z</time>
      </trkpt>
      <trkpt lat="45.15799" lon="5.95776">
        <ele>2691</ele>
        <time>2019-01-20T11:13:15.000Z</time>
      </trkpt>
      <trkpt lat="45.15799" lon="5.95776">
        <ele>2691</ele>
        <time>2019-01-20T11:13:16.000Z</time>
      </trkpt>
      <trkpt lat="45.15799" lon="5.95776">
        <ele>2691</ele>
        <time>2019-01-20T11:13:17.000Z</time>
      </trkpt>
      <trkpt lat="45.15799" lon="5.95776">
        <ele>2692</ele>
        <time>2019-01-20T11:13:18.000Z</time>
      </trkpt>
      <trkpt lat="45.15799" lon="5.95776">
        <ele>2692</ele>
        <time>2019-01-20T11:13:20.000Z</time>
      </trkpt>
      <trkpt lat="45.15804" lon="5.95774">
        <ele>2692</ele>
        <time>2019-01-20T11:13:21.000Z</time>
      </trkpt>
      <trkpt lat="45.15804" lon="5.95774">
        <ele>2692</ele>
        <time>2019-01-20T11:13:22.000Z</time>
      </trkpt>
      <trkpt lat="45.15804" lon="5.95774">
        <ele>2692</ele>
        <time>2019-01-20T11:13:23.000Z</time>
      </trkpt>
      <trkpt lat="45.15806" lon="5.95772">
        <ele>2693</ele>
        <time>2019-01-20T11:13:24.000Z</time>
      </trkpt>
      <trkpt lat="45.15806" lon="5.95772">
        <ele>2693</ele>
        <time>2019-01-20T11:13:25.000Z</time>
      </trkpt>
      <trkpt lat="45.15808" lon="5.9577">
        <ele>2693</ele>
        <time>2019-01-20T11:13:26.000Z</time>
      </trkpt>
      <trkpt lat="45.15808" lon="5.9577">
        <ele>2693</ele>
        <time>2019-01-20T11:13:27.000Z</time>
      </trkpt>
      <trkpt lat="45.15808" lon="5.9577">
        <ele>2693</ele>
        <time>2019-01-20T11:13:28.000Z</time>
      </trkpt>
      <trkpt lat="45.1581" lon="5.95769">
        <ele>2693</ele>
        <time>2019-01-20T11:13:29.000Z</time>
      </trkpt>
      <trkpt lat="45.1581" lon="5.95769">
        <ele>2693</ele>
        <time>2019-01-20T11:13:30.000Z</time>
      </trkpt>
      <trkpt lat="45.1581" lon="5.95769">
        <ele>2694</ele>
        <time>2019-01-20T11:13:32.000Z</time>
      </trkpt>
      <trkpt lat="45.1581" lon="5.95769">
        <ele>2694</ele>
        <time>2019-01-20T11:13:33.000Z</time>
      </trkpt>
      <trkpt lat="45.1581" lon="5.95769">
        <ele>2694</ele>
        <time>2019-01-20T11:13:34.000Z</time>
      </trkpt>
      <trkpt lat="45.1581" lon="5.95769">
        <ele>2694</ele>
        <time>2019-01-20T11:13:35.000Z</time>
      </trkpt>
      <trkpt lat="45.1581" lon="5.95769">
        <ele>2694</ele>
        <time>2019-01-20T11:13:36.000Z</time>
      </trkpt>
      <trkpt lat="45.1581" lon="5.95769">
        <ele>2695</ele>
        <time>2019-01-20T11:13:37.000Z</time>
      </trkpt>
      <trkpt lat="45.1581" lon="5.95769">
        <ele>2695</ele>
        <time>2019-01-20T11:13:38.000Z</time>
      </trkpt>
      <trkpt lat="45.1581" lon="5.95769">
        <ele>2695</ele>
        <time>2019-01-20T11:13:39.000Z</time>
      </trkpt>
      <trkpt lat="45.15811" lon="5.95771">
        <ele>2695</ele>
        <time>2019-01-20T11:13:40.000Z</time>
      </trkpt>
      <trkpt lat="45.15811" lon="5.95771">
        <ele>2695</ele>
        <time>2019-01-20T11:13:41.000Z</time>
      </trkpt>
      <trkpt lat="45.15811" lon="5.95771">
        <ele>2695</ele>
        <time>2019-01-20T11:13:42.000Z</time>
      </trkpt>
      <trkpt lat="45.15811" lon="5.95774">
        <ele>2696</ele>
        <time>2019-01-20T11:13:43.000Z</time>
      </trkpt>
      <trkpt lat="45.15811" lon="5.95774">
        <ele>2696</ele>
        <time>2019-01-20T11:13:44.000Z</time>
      </trkpt>
      <trkpt lat="45.15811" lon="5.95774">
        <ele>2696</ele>
        <time>2019-01-20T11:13:45.000Z</time>
      </trkpt>
      <trkpt lat="45.1581" lon="5.95778">
        <ele>2696</ele>
        <time>2019-01-20T11:13:46.000Z</time>
      </trkpt>
      <trkpt lat="45.1581" lon="5.95778">
        <ele>2696</ele>
        <time>2019-01-20T11:13:47.000Z</time>
      </trkpt>
      <trkpt lat="45.1581" lon="5.95778">
        <ele>2697</ele>
        <time>2019-01-20T11:13:48.000Z</time>
      </trkpt>
      <trkpt lat="45.15809" lon="5.95781">
        <ele>2697</ele>
        <time>2019-01-20T11:13:49.000Z</time>
      </trkpt>
      <trkpt lat="45.15809" lon="5.95781">
        <ele>2697</ele>
        <time>2019-01-20T11:13:51.000Z</time>
      </trkpt>
      <trkpt lat="45.15808" lon="5.95784">
        <ele>2697</ele>
        <time>2019-01-20T11:13:52.000Z</time>
      </trkpt>
      <trkpt lat="45.15808" lon="5.95784">
        <ele>2698</ele>
        <time>2019-01-20T11:13:53.000Z</time>
      </trkpt>
      <trkpt lat="45.15808" lon="5.95784">
        <ele>2698</ele>
        <time>2019-01-20T11:13:54.000Z</time>
      </trkpt>
      <trkpt lat="45.15807" lon="5.95787">
        <ele>2699</ele>
        <time>2019-01-20T11:13:55.000Z</time>
      </trkpt>
      <trkpt lat="45.15807" lon="5.95787">
        <ele>2699</ele>
        <time>2019-01-20T11:13:56.000Z</time>
      </trkpt>
      <trkpt lat="45.15805" lon="5.95789">
        <ele>2699</ele>
        <time>2019-01-20T11:13:57.000Z</time>
      </trkpt>
      <trkpt lat="45.15805" lon="5.95789">
        <ele>2699</ele>
        <time>2019-01-20T11:13:59.000Z</time>
      </trkpt>
      <trkpt lat="45.15804" lon="5.95792">
        <ele>2699</ele>
        <time>2019-01-20T11:14:00.000Z</time>
      </trkpt>
      <trkpt lat="45.15804" lon="5.95792">
        <ele>2699</ele>
        <time>2019-01-20T11:14:01.000Z</time>
      </trkpt>
      <trkpt lat="45.15804" lon="5.95792">
        <ele>2699</ele>
        <time>2019-01-20T11:14:02.000Z</time>
      </trkpt>
      <trkpt lat="45.15803" lon="5.95794">
        <ele>2699</ele>
        <time>2019-01-20T11:14:03.000Z</time>
      </trkpt>
      <trkpt lat="45.15803" lon="5.95794">
        <ele>2700</ele>
        <time>2019-01-20T11:14:04.000Z</time>
      </trkpt>
      <trkpt lat="45.15803" lon="5.95794">
        <ele>2701</ele>
        <time>2019-01-20T11:14:05.000Z</time>
      </trkpt>
      <trkpt lat="45.15801" lon="5.95796">
        <ele>2701</ele>
        <time>2019-01-20T11:14:06.000Z</time>
      </trkpt>
      <trkpt lat="45.15801" lon="5.95796">
        <ele>2701</ele>
        <time>2019-01-20T11:14:07.000Z</time>
      </trkpt>
      <trkpt lat="45.15801" lon="5.95796">
        <ele>2701</ele>
        <time>2019-01-20T11:14:08.000Z</time>
      </trkpt>
      <trkpt lat="45.15801" lon="5.95796">
        <ele>2701</ele>
        <time>2019-01-20T11:14:10.000Z</time>
      </trkpt>
      <trkpt lat="45.15801" lon="5.95796">
        <ele>2701</ele>
        <time>2019-01-20T11:14:11.000Z</time>
      </trkpt>
      <trkpt lat="45.15801" lon="5.95796">
        <ele>2701</ele>
        <time>2019-01-20T11:14:12.000Z</time>
      </trkpt>
      <trkpt lat="45.15801" lon="5.95796">
        <ele>2701</ele>
        <time>2019-01-20T11:14:13.000Z</time>
      </trkpt>
      <trkpt lat="45.15801" lon="5.95796">
        <ele>2701</ele>
        <time>2019-01-20T11:14:14.000Z</time>
      </trkpt>
      <trkpt lat="45.15801" lon="5.95796">
        <ele>2701</ele>
        <time>2019-01-20T11:14:15.000Z</time>
      </trkpt>
      <trkpt lat="45.15801" lon="5.95796">
        <ele>2701</ele>
        <time>2019-01-20T11:14:16.000Z</time>
      </trkpt>
      <trkpt lat="45.15803" lon="5.95797">
        <ele>2701</ele>
        <time>2019-01-20T11:14:17.000Z</time>
      </trkpt>
      <trkpt lat="45.15803" lon="5.95797">
        <ele>2701</ele>
        <time>2019-01-20T11:14:18.000Z</time>
      </trkpt>
      <trkpt lat="45.15803" lon="5.95797">
        <ele>2702</ele>
        <time>2019-01-20T11:14:19.000Z</time>
      </trkpt>
      <trkpt lat="45.15805" lon="5.95796">
        <ele>2702</ele>
        <time>2019-01-20T11:14:20.000Z</time>
      </trkpt>
      <trkpt lat="45.15805" lon="5.95796">
        <ele>2703</ele>
        <time>2019-01-20T11:14:21.000Z</time>
      </trkpt>
      <trkpt lat="45.15807" lon="5.95796">
        <ele>2703</ele>
        <time>2019-01-20T11:14:22.000Z</time>
      </trkpt>
      <trkpt lat="45.15807" lon="5.95796">
        <ele>2703</ele>
        <time>2019-01-20T11:14:23.000Z</time>
      </trkpt>
      <trkpt lat="45.15807" lon="5.95796">
        <ele>2703</ele>
        <time>2019-01-20T11:14:24.000Z</time>
      </trkpt>
      <trkpt lat="45.15809" lon="5.95795">
        <ele>2703</ele>
        <time>2019-01-20T11:14:25.000Z</time>
      </trkpt>
      <trkpt lat="45.15809" lon="5.95795">
        <ele>2703</ele>
        <time>2019-01-20T11:14:26.000Z</time>
      </trkpt>
      <trkpt lat="45.15809" lon="5.95795">
        <ele>2703</ele>
        <time>2019-01-20T11:14:27.000Z</time>
      </trkpt>
      <trkpt lat="45.15812" lon="5.95793">
        <ele>2703</ele>
        <time>2019-01-20T11:14:28.000Z</time>
      </trkpt>
      <trkpt lat="45.15812" lon="5.95793">
        <ele>2703</ele>
        <time>2019-01-20T11:14:29.000Z</time>
      </trkpt>
      <trkpt lat="45.15812" lon="5.95793">
        <ele>2703</ele>
        <time>2019-01-20T11:14:30.000Z</time>
      </trkpt>
      <trkpt lat="45.15814" lon="5.95791">
        <ele>2704</ele>
        <time>2019-01-20T11:14:31.000Z</time>
      </trkpt>
      <trkpt lat="45.15814" lon="5.95791">
        <ele>2704</ele>
        <time>2019-01-20T11:14:32.000Z</time>
      </trkpt>
      <trkpt lat="45.15814" lon="5.95791">
        <ele>2704</ele>
        <time>2019-01-20T11:14:33.000Z</time>
      </trkpt>
      <trkpt lat="45.15816" lon="5.9579">
        <ele>2704</ele>
        <time>2019-01-20T11:14:34.000Z</time>
      </trkpt>
      <trkpt lat="45.15816" lon="5.9579">
        <ele>2704</ele>
        <time>2019-01-20T11:14:35.000Z</time>
      </trkpt>
      <trkpt lat="45.15816" lon="5.9579">
        <ele>2704</ele>
        <time>2019-01-20T11:14:36.000Z</time>
      </trkpt>
      <trkpt lat="45.15817" lon="5.95788">
        <ele>2704</ele>
        <time>2019-01-20T11:14:37.000Z</time>
      </trkpt>
      <trkpt lat="45.15817" lon="5.95788">
        <ele>2705</ele>
        <time>2019-01-20T11:14:38.000Z</time>
      </trkpt>
      <trkpt lat="45.15817" lon="5.95788">
        <ele>2705</ele>
        <time>2019-01-20T11:14:39.000Z</time>
      </trkpt>
      <trkpt lat="45.15819" lon="5.95787">
        <ele>2705</ele>
        <time>2019-01-20T11:14:40.000Z</time>
      </trkpt>
      <trkpt lat="45.15819" lon="5.95787">
        <ele>2706</ele>
        <time>2019-01-20T11:14:41.000Z</time>
      </trkpt>
      <trkpt lat="45.15819" lon="5.95787">
        <ele>2706</ele>
        <time>2019-01-20T11:14:42.000Z</time>
      </trkpt>
      <trkpt lat="45.15821" lon="5.95785">
        <ele>2706</ele>
        <time>2019-01-20T11:14:43.000Z</time>
      </trkpt>
      <trkpt lat="45.15821" lon="5.95785">
        <ele>2707</ele>
        <time>2019-01-20T11:14:44.000Z</time>
      </trkpt>
      <trkpt lat="45.15821" lon="5.95785">
        <ele>2707</ele>
        <time>2019-01-20T11:14:45.000Z</time>
      </trkpt>
      <trkpt lat="45.15821" lon="5.95785">
        <ele>2707</ele>
        <time>2019-01-20T11:14:46.000Z</time>
      </trkpt>
      <trkpt lat="45.15821" lon="5.95785">
        <ele>2707.6</ele>
        <time>2019-01-20T11:14:48.000Z</time>
      </trkpt>
      <trkpt lat="45.15821" lon="5.95785">
        <ele>2708</ele>
        <time>2019-01-20T11:14:49.000Z</time>
      </trkpt>
      <trkpt lat="45.15822" lon="5.95787">
        <ele>2708</ele>
        <time>2019-01-20T11:14:50.000Z</time>
      </trkpt>
      <trkpt lat="45.15822" lon="5.95787">
        <ele>2708</ele>
        <time>2019-01-20T11:14:51.000Z</time>
      </trkpt>
      <trkpt lat="45.15822" lon="5.95787">
        <ele>2708</ele>
        <time>2019-01-20T11:14:52.000Z</time>
      </trkpt>
      <trkpt lat="45.15822" lon="5.9579">
        <ele>2708</ele>
        <time>2019-01-20T11:14:53.000Z</time>
      </trkpt>
      <trkpt lat="45.15822" lon="5.9579">
        <ele>2708</ele>
        <time>2019-01-20T11:14:54.000Z</time>
      </trkpt>
      <trkpt lat="45.15822" lon="5.9579">
        <ele>2708</ele>
        <time>2019-01-20T11:14:55.000Z</time>
      </trkpt>
      <trkpt lat="45.15822" lon="5.95793">
        <ele>2708</ele>
        <time>2019-01-20T11:14:56.000Z</time>
      </trkpt>
      <trkpt lat="45.15822" lon="5.95793">
        <ele>2709</ele>
        <time>2019-01-20T11:14:57.000Z</time>
      </trkpt>
      <trkpt lat="45.15822" lon="5.95793">
        <ele>2709</ele>
        <time>2019-01-20T11:14:58.000Z</time>
      </trkpt>
      <trkpt lat="45.15821" lon="5.95797">
        <ele>2709</ele>
        <time>2019-01-20T11:14:59.000Z</time>
      </trkpt>
      <trkpt lat="45.15821" lon="5.95797">
        <ele>2709</ele>
        <time>2019-01-20T11:15:00.000Z</time>
      </trkpt>
      <trkpt lat="45.15821" lon="5.95797">
        <ele>2710</ele>
        <time>2019-01-20T11:15:01.000Z</time>
      </trkpt>
      <trkpt lat="45.1582" lon="5.95799">
        <ele>2710</ele>
        <time>2019-01-20T11:15:02.000Z</time>
      </trkpt>
      <trkpt lat="45.1582" lon="5.95799">
        <ele>2710</ele>
        <time>2019-01-20T11:15:03.000Z</time>
      </trkpt>
      <trkpt lat="45.1582" lon="5.95799">
        <ele>2710</ele>
        <time>2019-01-20T11:15:04.000Z</time>
      </trkpt>
      <trkpt lat="45.15819" lon="5.95802">
        <ele>2710</ele>
        <time>2019-01-20T11:15:05.000Z</time>
      </trkpt>
      <trkpt lat="45.15819" lon="5.95802">
        <ele>2710.4</ele>
        <time>2019-01-20T11:15:07.000Z</time>
      </trkpt>
      <trkpt lat="45.15817" lon="5.95805">
        <ele>2711</ele>
        <time>2019-01-20T11:15:08.000Z</time>
      </trkpt>
      <trkpt lat="45.15817" lon="5.95805">
        <ele>2711</ele>
        <time>2019-01-20T11:15:09.000Z</time>
      </trkpt>
      <trkpt lat="45.15816" lon="5.95807">
        <ele>2711</ele>
        <time>2019-01-20T11:15:10.000Z</time>
      </trkpt>
      <trkpt lat="45.15816" lon="5.95807">
        <ele>2712</ele>
        <time>2019-01-20T11:15:11.000Z</time>
      </trkpt>
      <trkpt lat="45.15816" lon="5.95807">
        <ele>2712</ele>
        <time>2019-01-20T11:15:12.000Z</time>
      </trkpt>
      <trkpt lat="45.15814" lon="5.95809">
        <ele>2712</ele>
        <time>2019-01-20T11:15:13.000Z</time>
      </trkpt>
      <trkpt lat="45.15814" lon="5.95809">
        <ele>2712</ele>
        <time>2019-01-20T11:15:14.000Z</time>
      </trkpt>
      <trkpt lat="45.15814" lon="5.95809">
        <ele>2713</ele>
        <time>2019-01-20T11:15:15.000Z</time>
      </trkpt>
      <trkpt lat="45.15812" lon="5.95812">
        <ele>2713</ele>
        <time>2019-01-20T11:15:16.000Z</time>
      </trkpt>
      <trkpt lat="45.15812" lon="5.95812">
        <ele>2713</ele>
        <time>2019-01-20T11:15:18.000Z</time>
      </trkpt>
      <trkpt lat="45.15811" lon="5.95814">
        <ele>2713</ele>
        <time>2019-01-20T11:15:19.000Z</time>
      </trkpt>
      <trkpt lat="45.15811" lon="5.95814">
        <ele>2713</ele>
        <time>2019-01-20T11:15:20.000Z</time>
      </trkpt>
      <trkpt lat="45.15809" lon="5.95815">
        <ele>2713</ele>
        <time>2019-01-20T11:15:21.000Z</time>
      </trkpt>
      <trkpt lat="45.15809" lon="5.95815">
        <ele>2713</ele>
        <time>2019-01-20T11:15:22.000Z</time>
      </trkpt>
      <trkpt lat="45.15808" lon="5.95817">
        <ele>2714</ele>
        <time>2019-01-20T11:15:23.000Z</time>
      </trkpt>
      <trkpt lat="45.15808" lon="5.95817">
        <ele>2714</ele>
        <time>2019-01-20T11:15:24.000Z</time>
      </trkpt>
      <trkpt lat="45.15806" lon="5.95819">
        <ele>2714</ele>
        <time>2019-01-20T11:15:26.000Z</time>
      </trkpt>
      <trkpt lat="45.15806" lon="5.95819">
        <ele>2714</ele>
        <time>2019-01-20T11:15:27.000Z</time>
      </trkpt>
      <trkpt lat="45.15804" lon="5.9582">
        <ele>2714</ele>
        <time>2019-01-20T11:15:28.000Z</time>
      </trkpt>
      <trkpt lat="45.15804" lon="5.9582">
        <ele>2714</ele>
        <time>2019-01-20T11:15:29.000Z</time>
      </trkpt>
      <trkpt lat="45.15804" lon="5.9582">
        <ele>2715</ele>
        <time>2019-01-20T11:15:30.000Z</time>
      </trkpt>
      <trkpt lat="45.15803" lon="5.95821">
        <ele>2715</ele>
        <time>2019-01-20T11:15:31.000Z</time>
      </trkpt>
      <trkpt lat="45.15803" lon="5.95821">
        <ele>2715</ele>
        <time>2019-01-20T11:15:32.000Z</time>
      </trkpt>
      <trkpt lat="45.15803" lon="5.95821">
        <ele>2715</ele>
        <time>2019-01-20T11:15:33.000Z</time>
      </trkpt>
      <trkpt lat="45.158" lon="5.95823">
        <ele>2715</ele>
        <time>2019-01-20T11:15:34.000Z</time>
      </trkpt>
      <trkpt lat="45.158" lon="5.95823">
        <ele>2716</ele>
        <time>2019-01-20T11:15:35.000Z</time>
      </trkpt>
      <trkpt lat="45.158" lon="5.95823">
        <ele>2716</ele>
        <time>2019-01-20T11:15:36.000Z</time>
      </trkpt>
      <trkpt lat="45.158" lon="5.95823">
        <ele>2716</ele>
        <time>2019-01-20T11:15:37.000Z</time>
      </trkpt>
      <trkpt lat="45.15798" lon="5.95825">
        <ele>2717</ele>
        <time>2019-01-20T11:15:38.000Z</time>
      </trkpt>
      <trkpt lat="45.15798" lon="5.95825">
        <ele>2717</ele>
        <time>2019-01-20T11:15:39.000Z</time>
      </trkpt>
      <trkpt lat="45.15798" lon="5.95825">
        <ele>2717</ele>
        <time>2019-01-20T11:15:40.000Z</time>
      </trkpt>
      <trkpt lat="45.15798" lon="5.95825">
        <ele>2717</ele>
        <time>2019-01-20T11:15:41.000Z</time>
      </trkpt>
      <trkpt lat="45.15798" lon="5.95825">
        <ele>2717</ele>
        <time>2019-01-20T11:15:42.000Z</time>
      </trkpt>
      <trkpt lat="45.15798" lon="5.95825">
        <ele>2717</ele>
        <time>2019-01-20T11:15:43.000Z</time>
      </trkpt>
      <trkpt lat="45.15798" lon="5.95825">
        <ele>2717</ele>
        <time>2019-01-20T11:15:45.000Z</time>
      </trkpt>
      <trkpt lat="45.15798" lon="5.95825">
        <ele>2717</ele>
        <time>2019-01-20T11:15:46.000Z</time>
      </trkpt>
      <trkpt lat="45.15798" lon="5.95825">
        <ele>2718</ele>
        <time>2019-01-20T11:15:47.000Z</time>
      </trkpt>
      <trkpt lat="45.15799" lon="5.95827">
        <ele>2718</ele>
        <time>2019-01-20T11:15:48.000Z</time>
      </trkpt>
      <trkpt lat="45.15799" lon="5.95827">
        <ele>2718</ele>
        <time>2019-01-20T11:15:49.000Z</time>
      </trkpt>
      <trkpt lat="45.15799" lon="5.95827">
        <ele>2718</ele>
        <time>2019-01-20T11:15:50.000Z</time>
      </trkpt>
      <trkpt lat="45.15801" lon="5.95828">
        <ele>2718</ele>
        <time>2019-01-20T11:15:51.000Z</time>
      </trkpt>
      <trkpt lat="45.15801" lon="5.95828">
        <ele>2718</ele>
        <time>2019-01-20T11:15:52.000Z</time>
      </trkpt>
      <trkpt lat="45.15803" lon="5.95829">
        <ele>2719</ele>
        <time>2019-01-20T11:15:53.000Z</time>
      </trkpt>
      <trkpt lat="45.15803" lon="5.95829">
        <ele>2719</ele>
        <time>2019-01-20T11:15:54.000Z</time>
      </trkpt>
      <trkpt lat="45.15803" lon="5.95829">
        <ele>2719</ele>
        <time>2019-01-20T11:15:55.000Z</time>
      </trkpt>
      <trkpt lat="45.15805" lon="5.95829">
        <ele>2720</ele>
        <time>2019-01-20T11:15:56.000Z</time>
      </trkpt>
      <trkpt lat="45.15805" lon="5.95829">
        <ele>2720</ele>
        <time>2019-01-20T11:15:57.000Z</time>
      </trkpt>
      <trkpt lat="45.15805" lon="5.95829">
        <ele>2720</ele>
        <time>2019-01-20T11:15:58.000Z</time>
      </trkpt>
      <trkpt lat="45.15807" lon="5.95829">
        <ele>2720</ele>
        <time>2019-01-20T11:15:59.000Z</time>
      </trkpt>
      <trkpt lat="45.15807" lon="5.95829">
        <ele>2720</ele>
        <time>2019-01-20T11:16:00.000Z</time>
      </trkpt>
      <trkpt lat="45.15807" lon="5.95829">
        <ele>2720</ele>
        <time>2019-01-20T11:16:01.000Z</time>
      </trkpt>
      <trkpt lat="45.15809" lon="5.95828">
        <ele>2721</ele>
        <time>2019-01-20T11:16:02.000Z</time>
      </trkpt>
      <trkpt lat="45.15809" lon="5.95828">
        <ele>2721</ele>
        <time>2019-01-20T11:16:04.000Z</time>
      </trkpt>
      <trkpt lat="45.15811" lon="5.95828">
        <ele>2721</ele>
        <time>2019-01-20T11:16:05.000Z</time>
      </trkpt>
      <trkpt lat="45.15811" lon="5.95828">
        <ele>2721</ele>
        <time>2019-01-20T11:16:06.000Z</time>
      </trkpt>
      <trkpt lat="45.15811" lon="5.95828">
        <ele>2720</ele>
        <time>2019-01-20T11:16:07.000Z</time>
      </trkpt>
      <trkpt lat="45.15811" lon="5.95828">
        <ele>2720</ele>
        <time>2019-01-20T11:16:08.000Z</time>
      </trkpt>
      <trkpt lat="45.15811" lon="5.95828">
        <ele>2722</ele>
        <time>2019-01-20T11:16:09.000Z</time>
      </trkpt>
      <trkpt lat="45.15811" lon="5.95828">
        <ele>2722</ele>
        <time>2019-01-20T11:16:10.000Z</time>
      </trkpt>
      <trkpt lat="45.15811" lon="5.95828">
        <ele>2721</ele>
        <time>2019-01-20T11:16:11.000Z</time>
      </trkpt>
      <trkpt lat="45.15811" lon="5.95828">
        <ele>2721</ele>
        <time>2019-01-20T11:16:12.000Z</time>
      </trkpt>
      <trkpt lat="45.15811" lon="5.95828">
        <ele>2721</ele>
        <time>2019-01-20T11:16:13.000Z</time>
      </trkpt>
      <trkpt lat="45.15811" lon="5.95828">
        <ele>2721</ele>
        <time>2019-01-20T11:16:14.000Z</time>
      </trkpt>
      <trkpt lat="45.15811" lon="5.95828">
        <ele>2721</ele>
        <time>2019-01-20T11:16:15.000Z</time>
      </trkpt>
      <trkpt lat="45.15811" lon="5.95828">
        <ele>2721</ele>
        <time>2019-01-20T11:16:16.000Z</time>
      </trkpt>
      <trkpt lat="45.1581" lon="5.95831">
        <ele>2721</ele>
        <time>2019-01-20T11:16:17.000Z</time>
      </trkpt>
      <trkpt lat="45.1581" lon="5.95831">
        <ele>2721</ele>
        <time>2019-01-20T11:16:18.000Z</time>
      </trkpt>
      <trkpt lat="45.1581" lon="5.95831">
        <ele>2721</ele>
        <time>2019-01-20T11:16:19.000Z</time>
      </trkpt>
      <trkpt lat="45.15809" lon="5.95833">
        <ele>2722</ele>
        <time>2019-01-20T11:16:20.000Z</time>
      </trkpt>
      <trkpt lat="45.15809" lon="5.95833">
        <ele>2723</ele>
        <time>2019-01-20T11:16:21.000Z</time>
      </trkpt>
      <trkpt lat="45.15808" lon="5.95836">
        <ele>2723</ele>
        <time>2019-01-20T11:16:23.000Z</time>
      </trkpt>
      <trkpt lat="45.15808" lon="5.95836">
        <ele>2723</ele>
        <time>2019-01-20T11:16:24.000Z</time>
      </trkpt>
      <trkpt lat="45.15808" lon="5.95836">
        <ele>2723</ele>
        <time>2019-01-20T11:16:25.000Z</time>
      </trkpt>
      <trkpt lat="45.15806" lon="5.95838">
        <ele>2724</ele>
        <time>2019-01-20T11:16:26.000Z</time>
      </trkpt>
      <trkpt lat="45.15806" lon="5.95838">
        <ele>2724</ele>
        <time>2019-01-20T11:16:27.000Z</time>
      </trkpt>
      <trkpt lat="45.15806" lon="5.95838">
        <ele>2724</ele>
        <time>2019-01-20T11:16:28.000Z</time>
      </trkpt>
      <trkpt lat="45.15806" lon="5.95838">
        <ele>2724</ele>
        <time>2019-01-20T11:16:29.000Z</time>
      </trkpt>
      <trkpt lat="45.15806" lon="5.95838">
        <ele>2724</ele>
        <time>2019-01-20T11:16:30.000Z</time>
      </trkpt>
      <trkpt lat="45.15806" lon="5.95838">
        <ele>2724</ele>
        <time>2019-01-20T11:16:31.000Z</time>
      </trkpt>
      <trkpt lat="45.15806" lon="5.95838">
        <ele>2724</ele>
        <time>2019-01-20T11:16:32.000Z</time>
      </trkpt>
      <trkpt lat="45.15806" lon="5.95838">
        <ele>2724</ele>
        <time>2019-01-20T11:16:33.000Z</time>
      </trkpt>
      <trkpt lat="45.15806" lon="5.95838">
        <ele>2724</ele>
        <time>2019-01-20T11:16:34.000Z</time>
      </trkpt>
      <trkpt lat="45.15808" lon="5.9584">
        <ele>2724</ele>
        <time>2019-01-20T11:16:35.000Z</time>
      </trkpt>
      <trkpt lat="45.15808" lon="5.9584">
        <ele>2724</ele>
        <time>2019-01-20T11:16:36.000Z</time>
      </trkpt>
      <trkpt lat="45.15808" lon="5.9584">
        <ele>2724</ele>
        <time>2019-01-20T11:16:37.000Z</time>
      </trkpt>
      <trkpt lat="45.15808" lon="5.9584">
        <ele>2725</ele>
        <time>2019-01-20T11:16:38.000Z</time>
      </trkpt>
      <trkpt lat="45.1581" lon="5.9584">
        <ele>2726</ele>
        <time>2019-01-20T11:16:39.000Z</time>
      </trkpt>
      <trkpt lat="45.1581" lon="5.9584">
        <ele>2726</ele>
        <time>2019-01-20T11:16:40.000Z</time>
      </trkpt>
      <trkpt lat="45.15812" lon="5.95841">
        <ele>2726</ele>
        <time>2019-01-20T11:16:42.000Z</time>
      </trkpt>
      <trkpt lat="45.15812" lon="5.95841">
        <ele>2726</ele>
        <time>2019-01-20T11:16:43.000Z</time>
      </trkpt>
      <trkpt lat="45.15812" lon="5.95841">
        <ele>2726</ele>
        <time>2019-01-20T11:16:44.000Z</time>
      </trkpt>
      <trkpt lat="45.15812" lon="5.95841">
        <ele>2726</ele>
        <time>2019-01-20T11:16:45.000Z</time>
      </trkpt>
      <trkpt lat="45.15812" lon="5.95841">
        <ele>2727</ele>
        <time>2019-01-20T11:16:46.000Z</time>
      </trkpt>
      <trkpt lat="45.15812" lon="5.95841">
        <ele>2727</ele>
        <time>2019-01-20T11:16:47.000Z</time>
      </trkpt>
      <trkpt lat="45.1581" lon="5.95844">
        <ele>2727</ele>
        <time>2019-01-20T11:16:48.000Z</time>
      </trkpt>
      <trkpt lat="45.1581" lon="5.95844">
        <ele>2727</ele>
        <time>2019-01-20T11:16:49.000Z</time>
      </trkpt>
      <trkpt lat="45.1581" lon="5.95844">
        <ele>2727</ele>
        <time>2019-01-20T11:16:50.000Z</time>
      </trkpt>
      <trkpt lat="45.15808" lon="5.95846">
        <ele>2728</ele>
        <time>2019-01-20T11:16:51.000Z</time>
      </trkpt>
      <trkpt lat="45.15808" lon="5.95846">
        <ele>2728</ele>
        <time>2019-01-20T11:16:53.000Z</time>
      </trkpt>
      <trkpt lat="45.15806" lon="5.95847">
        <ele>2728</ele>
        <time>2019-01-20T11:16:54.000Z</time>
      </trkpt>
      <trkpt lat="45.15806" lon="5.95847">
        <ele>2728</ele>
        <time>2019-01-20T11:16:55.000Z</time>
      </trkpt>
      <trkpt lat="45.15806" lon="5.95847">
        <ele>2728</ele>
        <time>2019-01-20T11:16:56.000Z</time>
      </trkpt>
      <trkpt lat="45.15805" lon="5.95848">
        <ele>2728</ele>
        <time>2019-01-20T11:16:57.000Z</time>
      </trkpt>
      <trkpt lat="45.15805" lon="5.95848">
        <ele>2729</ele>
        <time>2019-01-20T11:16:58.000Z</time>
      </trkpt>
      <trkpt lat="45.15805" lon="5.95848">
        <ele>2729</ele>
        <time>2019-01-20T11:16:59.000Z</time>
      </trkpt>
      <trkpt lat="45.15805" lon="5.95848">
        <ele>2729</ele>
        <time>2019-01-20T11:17:01.000Z</time>
      </trkpt>
      <trkpt lat="45.15805" lon="5.95848">
        <ele>2729</ele>
        <time>2019-01-20T11:17:02.000Z</time>
      </trkpt>
      <trkpt lat="45.15805" lon="5.95851">
        <ele>2729</ele>
        <time>2019-01-20T11:17:03.000Z</time>
      </trkpt>
      <trkpt lat="45.15805" lon="5.95851">
        <ele>2730</ele>
        <time>2019-01-20T11:17:04.000Z</time>
      </trkpt>
      <trkpt lat="45.15805" lon="5.95851">
        <ele>2730</ele>
        <time>2019-01-20T11:17:05.000Z</time>
      </trkpt>
      <trkpt lat="45.15805" lon="5.95854">
        <ele>2730</ele>
        <time>2019-01-20T11:17:06.000Z</time>
      </trkpt>
      <trkpt lat="45.15805" lon="5.95854">
        <ele>2731</ele>
        <time>2019-01-20T11:17:07.000Z</time>
      </trkpt>
      <trkpt lat="45.15805" lon="5.95854">
        <ele>2731</ele>
        <time>2019-01-20T11:17:08.000Z</time>
      </trkpt>
      <trkpt lat="45.15807" lon="5.95856">
        <ele>2731</ele>
        <time>2019-01-20T11:17:09.000Z</time>
      </trkpt>
      <trkpt lat="45.15807" lon="5.95856">
        <ele>2731</ele>
        <time>2019-01-20T11:17:10.000Z</time>
      </trkpt>
      <trkpt lat="45.15807" lon="5.95856">
        <ele>2731</ele>
        <time>2019-01-20T11:17:11.000Z</time>
      </trkpt>
      <trkpt lat="45.15809" lon="5.95857">
        <ele>2731</ele>
        <time>2019-01-20T11:17:12.000Z</time>
      </trkpt>
      <trkpt lat="45.15809" lon="5.95857">
        <ele>2731</ele>
        <time>2019-01-20T11:17:13.000Z</time>
      </trkpt>
      <trkpt lat="45.15809" lon="5.95857">
        <ele>2731</ele>
        <time>2019-01-20T11:17:14.000Z</time>
      </trkpt>
      <trkpt lat="45.15809" lon="5.95857">
        <ele>2731</ele>
        <time>2019-01-20T11:17:15.000Z</time>
      </trkpt>
      <trkpt lat="45.15811" lon="5.95856">
        <ele>2731</ele>
        <time>2019-01-20T11:17:16.000Z</time>
      </trkpt>
      <trkpt lat="45.15811" lon="5.95856">
        <ele>2731</ele>
        <time>2019-01-20T11:17:17.000Z</time>
      </trkpt>
      <trkpt lat="45.15812" lon="5.95856">
        <ele>2731</ele>
        <time>2019-01-20T11:17:18.000Z</time>
      </trkpt>
      <trkpt lat="45.15812" lon="5.95857">
        <ele>2731</ele>
        <time>2019-01-20T11:17:19.000Z</time>
      </trkpt>
      <trkpt lat="45.15813" lon="5.95857">
        <ele>2730.4</ele>
        <time>2019-01-20T11:17:20.000Z</time>
      </trkpt>
      <trkpt lat="45.15813" lon="5.95862">
        <ele>2730</ele>
        <time>2019-01-20T11:17:21.000Z</time>
      </trkpt>
      <trkpt lat="45.15813" lon="5.95865">
        <ele>2730</ele>
        <time>2019-01-20T11:17:22.000Z</time>
      </trkpt>
      <trkpt lat="45.15813" lon="5.95869">
        <ele>2729</ele>
        <time>2019-01-20T11:17:23.000Z</time>
      </trkpt>
      <trkpt lat="45.15812" lon="5.95872">
        <ele>2729</ele>
        <time>2019-01-20T11:17:24.000Z</time>
      </trkpt>
      <trkpt lat="45.15812" lon="5.95876">
        <ele>2729</ele>
        <time>2019-01-20T11:17:25.000Z</time>
      </trkpt>
      <trkpt lat="45.15812" lon="5.9588">
        <ele>2729</ele>
        <time>2019-01-20T11:17:26.000Z</time>
      </trkpt>
      <trkpt lat="45.15813" lon="5.95883">
        <ele>2728</ele>
        <time>2019-01-20T11:17:27.000Z</time>
      </trkpt>
      <trkpt lat="45.15813" lon="5.95887">
        <ele>2727</ele>
        <time>2019-01-20T11:17:28.000Z</time>
      </trkpt>
      <trkpt lat="45.15814" lon="5.9589">
        <ele>2726</ele>
        <time>2019-01-20T11:17:29.000Z</time>
      </trkpt>
      <trkpt lat="45.15814" lon="5.95894">
        <ele>2726</ele>
        <time>2019-01-20T11:17:30.000Z</time>
      </trkpt>
      <trkpt lat="45.15815" lon="5.95899">
        <ele>2726</ele>
        <time>2019-01-20T11:17:31.000Z</time>
      </trkpt>
      <trkpt lat="45.15815" lon="5.95901">
        <ele>2725</ele>
        <time>2019-01-20T11:17:32.000Z</time>
      </trkpt>
      <trkpt lat="45.15816" lon="5.95905">
        <ele>2723</ele>
        <time>2019-01-20T11:17:33.000Z</time>
      </trkpt>
      <trkpt lat="45.15817" lon="5.95907">
        <ele>2723</ele>
        <time>2019-01-20T11:17:34.000Z</time>
      </trkpt>
      <trkpt lat="45.15818" lon="5.9591">
        <ele>2723</ele>
        <time>2019-01-20T11:17:35.000Z</time>
      </trkpt>
      <trkpt lat="45.15819" lon="5.95913">
        <ele>2722</ele>
        <time>2019-01-20T11:17:36.000Z</time>
      </trkpt>
      <trkpt lat="45.1582" lon="5.95916">
        <ele>2722</ele>
        <time>2019-01-20T11:17:37.000Z</time>
      </trkpt>
      <trkpt lat="45.15821" lon="5.95921">
        <ele>2722</ele>
        <time>2019-01-20T11:17:38.000Z</time>
      </trkpt>
      <trkpt lat="45.15821" lon="5.95923">
        <ele>2721.6</ele>
        <time>2019-01-20T11:17:39.000Z</time>
      </trkpt>
      <trkpt lat="45.15821" lon="5.95929">
        <ele>2721</ele>
        <time>2019-01-20T11:17:40.000Z</time>
      </trkpt>
      <trkpt lat="45.15822" lon="5.95936">
        <ele>2719</ele>
        <time>2019-01-20T11:17:41.000Z</time>
      </trkpt>
      <trkpt lat="45.15824" lon="5.95944">
        <ele>2716</ele>
        <time>2019-01-20T11:17:42.000Z</time>
      </trkpt>
      <trkpt lat="45.15826" lon="5.95961">
        <ele>2716</ele>
        <time>2019-01-20T11:17:43.000Z</time>
      </trkpt>
      <trkpt lat="45.15827" lon="5.95967">
        <ele>2710.4</ele>
        <time>2019-01-20T11:17:44.000Z</time>
      </trkpt>
      <trkpt lat="45.15829" lon="5.95981">
        <ele>2707</ele>
        <time>2019-01-20T11:17:45.000Z</time>
      </trkpt>
      <trkpt lat="45.15831" lon="5.95994">
        <ele>2706</ele>
        <time>2019-01-20T11:17:46.000Z</time>
      </trkpt>
      <trkpt lat="45.15832" lon="5.96002">
        <ele>2706</ele>
        <time>2019-01-20T11:17:47.000Z</time>
      </trkpt>
      <trkpt lat="45.15832" lon="5.96006">
        <ele>2706</ele>
        <time>2019-01-20T11:17:48.000Z</time>
      </trkpt>
      <trkpt lat="45.15832" lon="5.96009">
        <ele>2705</ele>
        <time>2019-01-20T11:17:49.000Z</time>
      </trkpt>
      <trkpt lat="45.15832" lon="5.96013">
        <ele>2705</ele>
        <time>2019-01-20T11:17:50.000Z</time>
      </trkpt>
      <trkpt lat="45.15832" lon="5.96013">
        <ele>2705</ele>
        <time>2019-01-20T11:17:51.000Z</time>
      </trkpt>
      <trkpt lat="45.15832" lon="5.96016">
        <ele>2705</ele>
        <time>2019-01-20T11:17:52.000Z</time>
      </trkpt>
      <trkpt lat="45.15832" lon="5.96016">
        <ele>2704</ele>
        <time>2019-01-20T11:17:53.000Z</time>
      </trkpt>
      <trkpt lat="45.15831" lon="5.9602">
        <ele>2704</ele>
        <time>2019-01-20T11:17:54.000Z</time>
      </trkpt>
      <trkpt lat="45.15831" lon="5.9602">
        <ele>2704</ele>
        <time>2019-01-20T11:17:55.000Z</time>
      </trkpt>
      <trkpt lat="45.1583" lon="5.96022">
        <ele>2704</ele>
        <time>2019-01-20T11:17:56.000Z</time>
      </trkpt>
      <trkpt lat="45.15829" lon="5.96025">
        <ele>2704</ele>
        <time>2019-01-20T11:17:58.000Z</time>
      </trkpt>
      <trkpt lat="45.15829" lon="5.96025">
        <ele>2704</ele>
        <time>2019-01-20T11:17:59.000Z</time>
      </trkpt>
      <trkpt lat="45.15827" lon="5.96029">
        <ele>2704</ele>
        <time>2019-01-20T11:18:00.000Z</time>
      </trkpt>
      <trkpt lat="45.15827" lon="5.96029">
        <ele>2704</ele>
        <time>2019-01-20T11:18:01.000Z</time>
      </trkpt>
      <trkpt lat="45.15826" lon="5.96031">
        <ele>2704</ele>
        <time>2019-01-20T11:18:02.000Z</time>
      </trkpt>
      <trkpt lat="45.15826" lon="5.96031">
        <ele>2704</ele>
        <time>2019-01-20T11:18:03.000Z</time>
      </trkpt>
      <trkpt lat="45.15825" lon="5.96033">
        <ele>2704</ele>
        <time>2019-01-20T11:18:04.000Z</time>
      </trkpt>
      <trkpt lat="45.15825" lon="5.96033">
        <ele>2704</ele>
        <time>2019-01-20T11:18:05.000Z</time>
      </trkpt>
      <trkpt lat="45.15824" lon="5.96037">
        <ele>2704</ele>
        <time>2019-01-20T11:18:06.000Z</time>
      </trkpt>
      <trkpt lat="45.15824" lon="5.96037">
        <ele>2704</ele>
        <time>2019-01-20T11:18:07.000Z</time>
      </trkpt>
      <trkpt lat="45.15824" lon="5.96041">
        <ele>2704</ele>
        <time>2019-01-20T11:18:08.000Z</time>
      </trkpt>
      <trkpt lat="45.15824" lon="5.96041">
        <ele>2704</ele>
        <time>2019-01-20T11:18:09.000Z</time>
      </trkpt>
      <trkpt lat="45.15824" lon="5.96045">
        <ele>2703</ele>
        <time>2019-01-20T11:18:10.000Z</time>
      </trkpt>
      <trkpt lat="45.15824" lon="5.96045">
        <ele>2703</ele>
        <time>2019-01-20T11:18:11.000Z</time>
      </trkpt>
      <trkpt lat="45.15824" lon="5.96048">
        <ele>2703</ele>
        <time>2019-01-20T11:18:12.000Z</time>
      </trkpt>
      <trkpt lat="45.15824" lon="5.96048">
        <ele>2703</ele>
        <time>2019-01-20T11:18:13.000Z</time>
      </trkpt>
      <trkpt lat="45.15824" lon="5.96048">
        <ele>2703</ele>
        <time>2019-01-20T11:18:14.000Z</time>
      </trkpt>
      <trkpt lat="45.15826" lon="5.96051">
        <ele>2704</ele>
        <time>2019-01-20T11:18:15.000Z</time>
      </trkpt>
      <trkpt lat="45.15826" lon="5.96051">
        <ele>2704</ele>
        <time>2019-01-20T11:18:17.000Z</time>
      </trkpt>
      <trkpt lat="45.15827" lon="5.96054">
        <ele>2704</ele>
        <time>2019-01-20T11:18:18.000Z</time>
      </trkpt>
      <trkpt lat="45.15827" lon="5.96054">
        <ele>2704</ele>
        <time>2019-01-20T11:18:19.000Z</time>
      </trkpt>
      <trkpt lat="45.15829" lon="5.96056">
        <ele>2704</ele>
        <time>2019-01-20T11:18:20.000Z</time>
      </trkpt>
      <trkpt lat="45.15829" lon="5.96056">
        <ele>2704</ele>
        <time>2019-01-20T11:18:21.000Z</time>
      </trkpt>
      <trkpt lat="45.1583" lon="5.96057">
        <ele>2704</ele>
        <time>2019-01-20T11:18:22.000Z</time>
      </trkpt>
      <trkpt lat="45.1583" lon="5.96057">
        <ele>2704</ele>
        <time>2019-01-20T11:18:23.000Z</time>
      </trkpt>
      <trkpt lat="45.15832" lon="5.96059">
        <ele>2704</ele>
        <time>2019-01-20T11:18:24.000Z</time>
      </trkpt>
      <trkpt lat="45.15832" lon="5.96059">
        <ele>2705</ele>
        <time>2019-01-20T11:18:25.000Z</time>
      </trkpt>
      <trkpt lat="45.15834" lon="5.9606">
        <ele>2705</ele>
        <time>2019-01-20T11:18:26.000Z</time>
      </trkpt>
      <trkpt lat="45.15834" lon="5.9606">
        <ele>2705</ele>
        <time>2019-01-20T11:18:27.000Z</time>
      </trkpt>
      <trkpt lat="45.15835" lon="5.96061">
        <ele>2705</ele>
        <time>2019-01-20T11:18:28.000Z</time>
      </trkpt>
      <trkpt lat="45.15835" lon="5.96061">
        <ele>2705</ele>
        <time>2019-01-20T11:18:29.000Z</time>
      </trkpt>
      <trkpt lat="45.15838" lon="5.96062">
        <ele>2705</ele>
        <time>2019-01-20T11:18:30.000Z</time>
      </trkpt>
      <trkpt lat="45.15838" lon="5.96062">
        <ele>2705</ele>
        <time>2019-01-20T11:18:31.000Z</time>
      </trkpt>
      <trkpt lat="45.15839" lon="5.96064">
        <ele>2705</ele>
        <time>2019-01-20T11:18:32.000Z</time>
      </trkpt>
      <trkpt lat="45.15839" lon="5.96064">
        <ele>2705</ele>
        <time>2019-01-20T11:18:33.000Z</time>
      </trkpt>
      <trkpt lat="45.15839" lon="5.96064">
        <ele>2705</ele>
        <time>2019-01-20T11:18:34.000Z</time>
      </trkpt>
      <trkpt lat="45.15841" lon="5.96066">
        <ele>2705</ele>
        <time>2019-01-20T11:18:35.000Z</time>
      </trkpt>
      <trkpt lat="45.15841" lon="5.96066">
        <ele>2705</ele>
        <time>2019-01-20T11:18:36.000Z</time>
      </trkpt>
      <trkpt lat="45.15841" lon="5.96066">
        <ele>2705</ele>
        <time>2019-01-20T11:18:37.000Z</time>
      </trkpt>
      <trkpt lat="45.1584" lon="5.96069">
        <ele>2705</ele>
        <time>2019-01-20T11:18:38.000Z</time>
      </trkpt>
      <trkpt lat="45.1584" lon="5.96069">
        <ele>2705</ele>
        <time>2019-01-20T11:18:39.000Z</time>
      </trkpt>
      <trkpt lat="45.1584" lon="5.96069">
        <ele>2705</ele>
        <time>2019-01-20T11:18:40.000Z</time>
      </trkpt>
      <trkpt lat="45.15839" lon="5.96072">
        <ele>2705</ele>
        <time>2019-01-20T11:18:41.000Z</time>
      </trkpt>
      <trkpt lat="45.15839" lon="5.96072">
        <ele>2705</ele>
        <time>2019-01-20T11:18:42.000Z</time>
      </trkpt>
      <trkpt lat="45.15837" lon="5.96074">
        <ele>2705</ele>
        <time>2019-01-20T11:18:43.000Z</time>
      </trkpt>
      <trkpt lat="45.15837" lon="5.96074">
        <ele>2705</ele>
        <time>2019-01-20T11:18:44.000Z</time>
      </trkpt>
      <trkpt lat="45.15836" lon="5.96076">
        <ele>2705</ele>
        <time>2019-01-20T11:18:45.000Z</time>
      </trkpt>
      <trkpt lat="45.15836" lon="5.96076">
        <ele>2705</ele>
        <time>2019-01-20T11:18:46.000Z</time>
      </trkpt>
      <trkpt lat="45.15835" lon="5.96078">
        <ele>2705</ele>
        <time>2019-01-20T11:18:47.000Z</time>
      </trkpt>
      <trkpt lat="45.15835" lon="5.96078">
        <ele>2705</ele>
        <time>2019-01-20T11:18:48.000Z</time>
      </trkpt>
      <trkpt lat="45.15832" lon="5.96082">
        <ele>2704</ele>
        <time>2019-01-20T11:18:49.000Z</time>
      </trkpt>
      <trkpt lat="45.15829" lon="5.96088">
        <ele>2704</ele>
        <time>2019-01-20T11:18:50.000Z</time>
      </trkpt>
      <trkpt lat="45.15828" lon="5.96091">
        <ele>2703</ele>
        <time>2019-01-20T11:18:51.000Z</time>
      </trkpt>
      <trkpt lat="45.15825" lon="5.96098">
        <ele>2701</ele>
        <time>2019-01-20T11:18:52.000Z</time>
      </trkpt>
      <trkpt lat="45.15823" lon="5.96107">
        <ele>2700</ele>
        <time>2019-01-20T11:18:53.000Z</time>
      </trkpt>
      <trkpt lat="45.1582" lon="5.96122">
        <ele>2700</ele>
        <time>2019-01-20T11:18:54.000Z</time>
      </trkpt>
      <trkpt lat="45.15819" lon="5.96126">
        <ele>2696.4</ele>
        <time>2019-01-20T11:18:55.000Z</time>
      </trkpt>
      <trkpt lat="45.15818" lon="5.96134">
        <ele>2695</ele>
        <time>2019-01-20T11:18:56.000Z</time>
      </trkpt>
      <trkpt lat="45.15818" lon="5.96142">
        <ele>2694</ele>
        <time>2019-01-20T11:18:57.000Z</time>
      </trkpt>
      <trkpt lat="45.15818" lon="5.96147">
        <ele>2693</ele>
        <time>2019-01-20T11:18:58.000Z</time>
      </trkpt>
      <trkpt lat="45.15818" lon="5.96151">
        <ele>2693</ele>
        <time>2019-01-20T11:18:59.000Z</time>
      </trkpt>
      <trkpt lat="45.15818" lon="5.96155">
        <ele>2693</ele>
        <time>2019-01-20T11:19:00.000Z</time>
      </trkpt>
      <trkpt lat="45.15818" lon="5.96155">
        <ele>2693</ele>
        <time>2019-01-20T11:19:01.000Z</time>
      </trkpt>
      <trkpt lat="45.15818" lon="5.96159">
        <ele>2693</ele>
        <time>2019-01-20T11:19:02.000Z</time>
      </trkpt>
      <trkpt lat="45.15818" lon="5.96159">
        <ele>2693</ele>
        <time>2019-01-20T11:19:03.000Z</time>
      </trkpt>
      <trkpt lat="45.15817" lon="5.96162">
        <ele>2693</ele>
        <time>2019-01-20T11:19:04.000Z</time>
      </trkpt>
      <trkpt lat="45.15817" lon="5.96162">
        <ele>2693</ele>
        <time>2019-01-20T11:19:05.000Z</time>
      </trkpt>
      <trkpt lat="45.15817" lon="5.96165">
        <ele>2693</ele>
        <time>2019-01-20T11:19:06.000Z</time>
      </trkpt>
      <trkpt lat="45.15817" lon="5.96165">
        <ele>2693</ele>
        <time>2019-01-20T11:19:07.000Z</time>
      </trkpt>
      <trkpt lat="45.15817" lon="5.96165">
        <ele>2693</ele>
        <time>2019-01-20T11:19:08.000Z</time>
      </trkpt>
      <trkpt lat="45.15817" lon="5.96169">
        <ele>2693</ele>
        <time>2019-01-20T11:19:09.000Z</time>
      </trkpt>
      <trkpt lat="45.15817" lon="5.96169">
        <ele>2693</ele>
        <time>2019-01-20T11:19:10.000Z</time>
      </trkpt>
      <trkpt lat="45.15817" lon="5.96173">
        <ele>2693</ele>
        <time>2019-01-20T11:19:11.000Z</time>
      </trkpt>
      <trkpt lat="45.15817" lon="5.96173">
        <ele>2693</ele>
        <time>2019-01-20T11:19:12.000Z</time>
      </trkpt>
      <trkpt lat="45.15817" lon="5.96176">
        <ele>2693</ele>
        <time>2019-01-20T11:19:13.000Z</time>
      </trkpt>
      <trkpt lat="45.15817" lon="5.96176">
        <ele>2693</ele>
        <time>2019-01-20T11:19:14.000Z</time>
      </trkpt>
      <trkpt lat="45.15818" lon="5.9618">
        <ele>2693</ele>
        <time>2019-01-20T11:19:15.000Z</time>
      </trkpt>
      <trkpt lat="45.15818" lon="5.9618">
        <ele>2693</ele>
        <time>2019-01-20T11:19:16.000Z</time>
      </trkpt>
      <trkpt lat="45.15819" lon="5.96183">
        <ele>2693</ele>
        <time>2019-01-20T11:19:17.000Z</time>
      </trkpt>
      <trkpt lat="45.15819" lon="5.96183">
        <ele>2693</ele>
        <time>2019-01-20T11:19:18.000Z</time>
      </trkpt>
      <trkpt lat="45.1582" lon="5.96185">
        <ele>2693</ele>
        <time>2019-01-20T11:19:19.000Z</time>
      </trkpt>
      <trkpt lat="45.1582" lon="5.96185">
        <ele>2693</ele>
        <time>2019-01-20T11:19:20.000Z</time>
      </trkpt>
      <trkpt lat="45.1582" lon="5.96185">
        <ele>2694</ele>
        <time>2019-01-20T11:19:21.000Z</time>
      </trkpt>
      <trkpt lat="45.15821" lon="5.96188">
        <ele>2694</ele>
        <time>2019-01-20T11:19:22.000Z</time>
      </trkpt>
      <trkpt lat="45.15821" lon="5.96188">
        <ele>2694</ele>
        <time>2019-01-20T11:19:23.000Z</time>
      </trkpt>
      <trkpt lat="45.15821" lon="5.96188">
        <ele>2694</ele>
        <time>2019-01-20T11:19:24.000Z</time>
      </trkpt>
      <trkpt lat="45.15822" lon="5.96193">
        <ele>2694</ele>
        <time>2019-01-20T11:19:25.000Z</time>
      </trkpt>
      <trkpt lat="45.15822" lon="5.96193">
        <ele>2694</ele>
        <time>2019-01-20T11:19:26.000Z</time>
      </trkpt>
      <trkpt lat="45.15823" lon="5.96197">
        <ele>2694</ele>
        <time>2019-01-20T11:19:27.000Z</time>
      </trkpt>
      <trkpt lat="45.15823" lon="5.96199">
        <ele>2694</ele>
        <time>2019-01-20T11:19:28.000Z</time>
      </trkpt>
      <trkpt lat="45.15824" lon="5.96202">
        <ele>2694</ele>
        <time>2019-01-20T11:19:29.000Z</time>
      </trkpt>
      <trkpt lat="45.15824" lon="5.96206">
        <ele>2694</ele>
        <time>2019-01-20T11:19:30.000Z</time>
      </trkpt>
      <trkpt lat="45.15825" lon="5.96208">
        <ele>2694</ele>
        <time>2019-01-20T11:19:31.000Z</time>
      </trkpt>
      <trkpt lat="45.15825" lon="5.96212">
        <ele>2694</ele>
        <time>2019-01-20T11:19:33.000Z</time>
      </trkpt>
      <trkpt lat="45.15825" lon="5.96212">
        <ele>2694</ele>
        <time>2019-01-20T11:19:34.000Z</time>
      </trkpt>
      <trkpt lat="45.15825" lon="5.96214">
        <ele>2694</ele>
        <time>2019-01-20T11:19:35.000Z</time>
      </trkpt>
      <trkpt lat="45.15825" lon="5.96214">
        <ele>2694</ele>
        <time>2019-01-20T11:19:36.000Z</time>
      </trkpt>
      <trkpt lat="45.15826" lon="5.96217">
        <ele>2694</ele>
        <time>2019-01-20T11:19:37.000Z</time>
      </trkpt>
      <trkpt lat="45.15826" lon="5.96217">
        <ele>2694</ele>
        <time>2019-01-20T11:19:38.000Z</time>
      </trkpt>
      <trkpt lat="45.15826" lon="5.96219">
        <ele>2694</ele>
        <time>2019-01-20T11:19:39.000Z</time>
      </trkpt>
      <trkpt lat="45.15826" lon="5.96219">
        <ele>2694</ele>
        <time>2019-01-20T11:19:40.000Z</time>
      </trkpt>
      <trkpt lat="45.15827" lon="5.96224">
        <ele>2694</ele>
        <time>2019-01-20T11:19:41.000Z</time>
      </trkpt>
      <trkpt lat="45.15827" lon="5.96224">
        <ele>2693</ele>
        <time>2019-01-20T11:19:42.000Z</time>
      </trkpt>
      <trkpt lat="45.15828" lon="5.96228">
        <ele>2693</ele>
        <time>2019-01-20T11:19:43.000Z</time>
      </trkpt>
      <trkpt lat="45.15828" lon="5.96228">
        <ele>2693</ele>
        <time>2019-01-20T11:19:45.000Z</time>
      </trkpt>
      <trkpt lat="45.15829" lon="5.96232">
        <ele>2694</ele>
        <time>2019-01-20T11:19:46.000Z</time>
      </trkpt>
      <trkpt lat="45.15829" lon="5.96232">
        <ele>2694</ele>
        <time>2019-01-20T11:19:47.000Z</time>
      </trkpt>
      <trkpt lat="45.1583" lon="5.96234">
        <ele>2694</ele>
        <time>2019-01-20T11:19:48.000Z</time>
      </trkpt>
      <trkpt lat="45.1583" lon="5.96234">
        <ele>2694</ele>
        <time>2019-01-20T11:19:49.000Z</time>
      </trkpt>
      <trkpt lat="45.15831" lon="5.96237">
        <ele>2694</ele>
        <time>2019-01-20T11:19:50.000Z</time>
      </trkpt>
      <trkpt lat="45.15831" lon="5.9624">
        <ele>2694</ele>
        <time>2019-01-20T11:19:52.000Z</time>
      </trkpt>
      <trkpt lat="45.15831" lon="5.9624">
        <ele>2694</ele>
        <time>2019-01-20T11:19:53.000Z</time>
      </trkpt>
      <trkpt lat="45.15832" lon="5.96243">
        <ele>2694</ele>
        <time>2019-01-20T11:19:54.000Z</time>
      </trkpt>
      <trkpt lat="45.15832" lon="5.96243">
        <ele>2694</ele>
        <time>2019-01-20T11:19:55.000Z</time>
      </trkpt>
      <trkpt lat="45.15832" lon="5.96246">
        <ele>2694</ele>
        <time>2019-01-20T11:19:56.000Z</time>
      </trkpt>
      <trkpt lat="45.15832" lon="5.96246">
        <ele>2694</ele>
        <time>2019-01-20T11:19:57.000Z</time>
      </trkpt>
      <trkpt lat="45.15832" lon="5.96249">
        <ele>2694</ele>
        <time>2019-01-20T11:19:58.000Z</time>
      </trkpt>
      <trkpt lat="45.15832" lon="5.96249">
        <ele>2695</ele>
        <time>2019-01-20T11:19:59.000Z</time>
      </trkpt>
      <trkpt lat="45.15832" lon="5.96252">
        <ele>2695</ele>
        <time>2019-01-20T11:20:00.000Z</time>
      </trkpt>
      <trkpt lat="45.15832" lon="5.96252">
        <ele>2695</ele>
        <time>2019-01-20T11:20:01.000Z</time>
      </trkpt>
      <trkpt lat="45.15831" lon="5.96255">
        <ele>2695</ele>
        <time>2019-01-20T11:20:02.000Z</time>
      </trkpt>
      <trkpt lat="45.15831" lon="5.96255">
        <ele>2695</ele>
        <time>2019-01-20T11:20:03.000Z</time>
      </trkpt>
      <trkpt lat="45.15831" lon="5.96255">
        <ele>2695</ele>
        <time>2019-01-20T11:20:04.000Z</time>
      </trkpt>
      <trkpt lat="45.15831" lon="5.96255">
        <ele>2695</ele>
        <time>2019-01-20T11:20:05.000Z</time>
      </trkpt>
      <trkpt lat="45.15831" lon="5.96255">
        <ele>2695</ele>
        <time>2019-01-20T11:20:06.000Z</time>
      </trkpt>
      <trkpt lat="45.15831" lon="5.96255">
        <ele>2695</ele>
        <time>2019-01-20T11:20:07.000Z</time>
      </trkpt>
      <trkpt lat="45.15831" lon="5.96255">
        <ele>2695</ele>
        <time>2019-01-20T11:20:08.000Z</time>
      </trkpt>
      <trkpt lat="45.15831" lon="5.96255">
        <ele>2695</ele>
        <time>2019-01-20T11:20:10.000Z</time>
      </trkpt>
      <trkpt lat="45.15829" lon="5.96256">
        <ele>2695</ele>
        <time>2019-01-20T11:20:11.000Z</time>
      </trkpt>
      <trkpt lat="45.15829" lon="5.96256">
        <ele>2695</ele>
        <time>2019-01-20T11:20:12.000Z</time>
      </trkpt>
      <trkpt lat="45.15828" lon="5.96254">
        <ele>2694</ele>
        <time>2019-01-20T11:20:13.000Z</time>
      </trkpt>
      <trkpt lat="45.15828" lon="5.96254">
        <ele>2694</ele>
        <time>2019-01-20T11:20:14.000Z</time>
      </trkpt>
      <trkpt lat="45.15828" lon="5.96254">
        <ele>2694</ele>
        <time>2019-01-20T11:20:15.000Z</time>
      </trkpt>
      <trkpt lat="45.15827" lon="5.9625">
        <ele>2695</ele>
        <time>2019-01-20T11:20:16.000Z</time>
      </trkpt>
      <trkpt lat="45.15827" lon="5.9625">
        <ele>2695</ele>
        <time>2019-01-20T11:20:17.000Z</time>
      </trkpt>
      <trkpt lat="45.15827" lon="5.96247">
        <ele>2695</ele>
        <time>2019-01-20T11:20:18.000Z</time>
      </trkpt>
      <trkpt lat="45.15827" lon="5.96247">
        <ele>2695</ele>
        <time>2019-01-20T11:20:19.000Z</time>
      </trkpt>
      <trkpt lat="45.15827" lon="5.96243">
        <ele>2695</ele>
        <time>2019-01-20T11:20:20.000Z</time>
      </trkpt>
      <trkpt lat="45.15827" lon="5.96243">
        <ele>2695</ele>
        <time>2019-01-20T11:20:21.000Z</time>
      </trkpt>
      <trkpt lat="45.15827" lon="5.96239">
        <ele>2695</ele>
        <time>2019-01-20T11:20:22.000Z</time>
      </trkpt>
      <trkpt lat="45.15827" lon="5.96239">
        <ele>2695</ele>
        <time>2019-01-20T11:20:23.000Z</time>
      </trkpt>
      <trkpt lat="45.15827" lon="5.96235">
        <ele>2695</ele>
        <time>2019-01-20T11:20:24.000Z</time>
      </trkpt>
      <trkpt lat="45.15827" lon="5.96235">
        <ele>2695</ele>
        <time>2019-01-20T11:20:25.000Z</time>
      </trkpt>
      <trkpt lat="45.15827" lon="5.9623">
        <ele>2695</ele>
        <time>2019-01-20T11:20:26.000Z</time>
      </trkpt>
      <trkpt lat="45.15826" lon="5.96227">
        <ele>2695</ele>
        <time>2019-01-20T11:20:27.000Z</time>
      </trkpt>
      <trkpt lat="45.15825" lon="5.96223">
        <ele>2695</ele>
        <time>2019-01-20T11:20:28.000Z</time>
      </trkpt>
      <trkpt lat="45.15825" lon="5.9622">
        <ele>2694.4</ele>
        <time>2019-01-20T11:20:30.000Z</time>
      </trkpt>
      <trkpt lat="45.15825" lon="5.9622">
        <ele>2694</ele>
        <time>2019-01-20T11:20:32.000Z</time>
      </trkpt>
      <trkpt lat="45.15824" lon="5.96216">
        <ele>2694</ele>
        <time>2019-01-20T11:20:33.000Z</time>
      </trkpt>
      <trkpt lat="45.15824" lon="5.96216">
        <ele>2694</ele>
        <time>2019-01-20T11:20:34.000Z</time>
      </trkpt>
      <trkpt lat="45.15823" lon="5.96211">
        <ele>2694</ele>
        <time>2019-01-20T11:20:35.000Z</time>
      </trkpt>
      <trkpt lat="45.15823" lon="5.96207">
        <ele>2694</ele>
        <time>2019-01-20T11:20:36.000Z</time>
      </trkpt>
      <trkpt lat="45.15823" lon="5.96204">
        <ele>2694</ele>
        <time>2019-01-20T11:20:37.000Z</time>
      </trkpt>
      <trkpt lat="45.15823" lon="5.96204">
        <ele>2694</ele>
        <time>2019-01-20T11:20:38.000Z</time>
      </trkpt>
      <trkpt lat="45.15822" lon="5.962">
        <ele>2694</ele>
        <time>2019-01-20T11:20:39.000Z</time>
      </trkpt>
      <trkpt lat="45.15822" lon="5.962">
        <ele>2694</ele>
        <time>2019-01-20T11:20:40.000Z</time>
      </trkpt>
      <trkpt lat="45.15822" lon="5.96197">
        <ele>2694</ele>
        <time>2019-01-20T11:20:41.000Z</time>
      </trkpt>
      <trkpt lat="45.15822" lon="5.96197">
        <ele>2694</ele>
        <time>2019-01-20T11:20:42.000Z</time>
      </trkpt>
      <trkpt lat="45.15822" lon="5.96194">
        <ele>2694</ele>
        <time>2019-01-20T11:20:43.000Z</time>
      </trkpt>
      <trkpt lat="45.15822" lon="5.96194">
        <ele>2695</ele>
        <time>2019-01-20T11:20:44.000Z</time>
      </trkpt>
      <trkpt lat="45.15821" lon="5.96191">
        <ele>2695</ele>
        <time>2019-01-20T11:20:45.000Z</time>
      </trkpt>
      <trkpt lat="45.15821" lon="5.96191">
        <ele>2695</ele>
        <time>2019-01-20T11:20:46.000Z</time>
      </trkpt>
      <trkpt lat="45.1582" lon="5.96188">
        <ele>2695</ele>
        <time>2019-01-20T11:20:47.000Z</time>
      </trkpt>
      <trkpt lat="45.15819" lon="5.96184">
        <ele>2695</ele>
        <time>2019-01-20T11:20:49.000Z</time>
      </trkpt>
      <trkpt lat="45.15818" lon="5.96182">
        <ele>2695</ele>
        <time>2019-01-20T11:20:50.000Z</time>
      </trkpt>
      <trkpt lat="45.15818" lon="5.96182">
        <ele>2694</ele>
        <time>2019-01-20T11:20:51.000Z</time>
      </trkpt>
      <trkpt lat="45.15816" lon="5.96177">
        <ele>2694</ele>
        <time>2019-01-20T11:20:52.000Z</time>
      </trkpt>
      <trkpt lat="45.15816" lon="5.96177">
        <ele>2694</ele>
        <time>2019-01-20T11:20:53.000Z</time>
      </trkpt>
      <trkpt lat="45.15815" lon="5.96173">
        <ele>2694</ele>
        <time>2019-01-20T11:20:54.000Z</time>
      </trkpt>
      <trkpt lat="45.15815" lon="5.96173">
        <ele>2694</ele>
        <time>2019-01-20T11:20:55.000Z</time>
      </trkpt>
      <trkpt lat="45.15814" lon="5.96169">
        <ele>2694</ele>
        <time>2019-01-20T11:20:56.000Z</time>
      </trkpt>
      <trkpt lat="45.15814" lon="5.96169">
        <ele>2694</ele>
        <time>2019-01-20T11:20:57.000Z</time>
      </trkpt>
      <trkpt lat="45.15813" lon="5.96166">
        <ele>2694</ele>
        <time>2019-01-20T11:20:58.000Z</time>
      </trkpt>
      <trkpt lat="45.15813" lon="5.96166">
        <ele>2693</ele>
        <time>2019-01-20T11:20:59.000Z</time>
      </trkpt>
      <trkpt lat="45.15812" lon="5.96162">
        <ele>2692</ele>
        <time>2019-01-20T11:21:00.000Z</time>
      </trkpt>
      <trkpt lat="45.15812" lon="5.96162">
        <ele>2692</ele>
        <time>2019-01-20T11:21:01.000Z</time>
      </trkpt>
      <trkpt lat="45.1581" lon="5.9616">
        <ele>2692</ele>
        <time>2019-01-20T11:21:02.000Z</time>
      </trkpt>
      <trkpt lat="45.1581" lon="5.9616">
        <ele>2692</ele>
        <time>2019-01-20T11:21:03.000Z</time>
      </trkpt>
      <trkpt lat="45.15809" lon="5.96156">
        <ele>2692</ele>
        <time>2019-01-20T11:21:04.000Z</time>
      </trkpt>
      <trkpt lat="45.15809" lon="5.96156">
        <ele>2692</ele>
        <time>2019-01-20T11:21:05.000Z</time>
      </trkpt>
      <trkpt lat="45.15807" lon="5.96153">
        <ele>2692</ele>
        <time>2019-01-20T11:21:06.000Z</time>
      </trkpt>
      <trkpt lat="45.15807" lon="5.96153">
        <ele>2693</ele>
        <time>2019-01-20T11:21:07.000Z</time>
      </trkpt>
      <trkpt lat="45.15806" lon="5.96151">
        <ele>2693</ele>
        <time>2019-01-20T11:21:08.000Z</time>
      </trkpt>
      <trkpt lat="45.15806" lon="5.96151">
        <ele>2693</ele>
        <time>2019-01-20T11:21:09.000Z</time>
      </trkpt>
      <trkpt lat="45.15805" lon="5.96148">
        <ele>2693</ele>
        <time>2019-01-20T11:21:10.000Z</time>
      </trkpt>
      <trkpt lat="45.15805" lon="5.96148">
        <ele>2693</ele>
        <time>2019-01-20T11:21:11.000Z</time>
      </trkpt>
      <trkpt lat="45.15804" lon="5.96145">
        <ele>2695</ele>
        <time>2019-01-20T11:21:12.000Z</time>
      </trkpt>
      <trkpt lat="45.15804" lon="5.96145">
        <ele>2695</ele>
        <time>2019-01-20T11:21:13.000Z</time>
      </trkpt>
      <trkpt lat="45.15803" lon="5.96143">
        <ele>2695</ele>
        <time>2019-01-20T11:21:14.000Z</time>
      </trkpt>
      <trkpt lat="45.15803" lon="5.96143">
        <ele>2694</ele>
        <time>2019-01-20T11:21:15.000Z</time>
      </trkpt>
      <trkpt lat="45.15802" lon="5.9614">
        <ele>2694</ele>
        <time>2019-01-20T11:21:16.000Z</time>
      </trkpt>
      <trkpt lat="45.15802" lon="5.9614">
        <ele>2696</ele>
        <time>2019-01-20T11:21:17.000Z</time>
      </trkpt>
      <trkpt lat="45.158" lon="5.96137">
        <ele>2696</ele>
        <time>2019-01-20T11:21:18.000Z</time>
      </trkpt>
      <trkpt lat="45.158" lon="5.96137">
        <ele>2696</ele>
        <time>2019-01-20T11:21:19.000Z</time>
      </trkpt>
      <trkpt lat="45.158" lon="5.96134">
        <ele>2696</ele>
        <time>2019-01-20T11:21:20.000Z</time>
      </trkpt>
      <trkpt lat="45.158" lon="5.96134">
        <ele>2696</ele>
        <time>2019-01-20T11:21:21.000Z</time>
      </trkpt>
      <trkpt lat="45.15798" lon="5.96132">
        <ele>2696</ele>
        <time>2019-01-20T11:21:22.000Z</time>
      </trkpt>
      <trkpt lat="45.15798" lon="5.96132">
        <ele>2696</ele>
        <time>2019-01-20T11:21:23.000Z</time>
      </trkpt>
      <trkpt lat="45.15797" lon="5.96129">
        <ele>2695</ele>
        <time>2019-01-20T11:21:24.000Z</time>
      </trkpt>
      <trkpt lat="45.15797" lon="5.96129">
        <ele>2695</ele>
        <time>2019-01-20T11:21:25.000Z</time>
      </trkpt>
      <trkpt lat="45.15797" lon="5.96126">
        <ele>2695</ele>
        <time>2019-01-20T11:21:26.000Z</time>
      </trkpt>
      <trkpt lat="45.15797" lon="5.96126">
        <ele>2697</ele>
        <time>2019-01-20T11:21:27.000Z</time>
      </trkpt>
      <trkpt lat="45.15796" lon="5.96123">
        <ele>2697</ele>
        <time>2019-01-20T11:21:28.000Z</time>
      </trkpt>
      <trkpt lat="45.15796" lon="5.96123">
        <ele>2695</ele>
        <time>2019-01-20T11:21:29.000Z</time>
      </trkpt>
      <trkpt lat="45.15795" lon="5.9612">
        <ele>2697</ele>
        <time>2019-01-20T11:21:30.000Z</time>
      </trkpt>
      <trkpt lat="45.15795" lon="5.9612">
        <ele>2697</ele>
        <time>2019-01-20T11:21:31.000Z</time>
      </trkpt>
      <trkpt lat="45.15794" lon="5.96117">
        <ele>2697</ele>
        <time>2019-01-20T11:21:32.000Z</time>
      </trkpt>
      <trkpt lat="45.15794" lon="5.96117">
        <ele>2696</ele>
        <time>2019-01-20T11:21:33.000Z</time>
      </trkpt>
      <trkpt lat="45.15793" lon="5.96114">
        <ele>2696</ele>
        <time>2019-01-20T11:21:34.000Z</time>
      </trkpt>
      <trkpt lat="45.15793" lon="5.96114">
        <ele>2696</ele>
        <time>2019-01-20T11:21:35.000Z</time>
      </trkpt>
      <trkpt lat="45.15792" lon="5.96112">
        <ele>2696</ele>
        <time>2019-01-20T11:21:36.000Z</time>
      </trkpt>
      <trkpt lat="45.15792" lon="5.96112">
        <ele>2698</ele>
        <time>2019-01-20T11:21:37.000Z</time>
      </trkpt>
      <trkpt lat="45.15791" lon="5.96109">
        <ele>2698</ele>
        <time>2019-01-20T11:21:38.000Z</time>
      </trkpt>
      <trkpt lat="45.15791" lon="5.96109">
        <ele>2698</ele>
        <time>2019-01-20T11:21:39.000Z</time>
      </trkpt>
      <trkpt lat="45.1579" lon="5.96106">
        <ele>2698</ele>
        <time>2019-01-20T11:21:40.000Z</time>
      </trkpt>
      <trkpt lat="45.1579" lon="5.96106">
        <ele>2698</ele>
        <time>2019-01-20T11:21:41.000Z</time>
      </trkpt>
      <trkpt lat="45.15789" lon="5.96104">
        <ele>2697</ele>
        <time>2019-01-20T11:21:42.000Z</time>
      </trkpt>
      <trkpt lat="45.15789" lon="5.96104">
        <ele>2699</ele>
        <time>2019-01-20T11:21:43.000Z</time>
      </trkpt>
      <trkpt lat="45.15787" lon="5.96101">
        <ele>2699</ele>
        <time>2019-01-20T11:21:44.000Z</time>
      </trkpt>
      <trkpt lat="45.15786" lon="5.96098">
        <ele>2699</ele>
        <time>2019-01-20T11:21:46.000Z</time>
      </trkpt>
      <trkpt lat="45.15786" lon="5.96098">
        <ele>2699</ele>
        <time>2019-01-20T11:21:47.000Z</time>
      </trkpt>
      <trkpt lat="45.15785" lon="5.96095">
        <ele>2699</ele>
        <time>2019-01-20T11:21:48.000Z</time>
      </trkpt>
      <trkpt lat="45.15785" lon="5.96095">
        <ele>2699</ele>
        <time>2019-01-20T11:21:49.000Z</time>
      </trkpt>
      <trkpt lat="45.15783" lon="5.96093">
        <ele>2699</ele>
        <time>2019-01-20T11:21:50.000Z</time>
      </trkpt>
      <trkpt lat="45.15783" lon="5.96093">
        <ele>2698</ele>
        <time>2019-01-20T11:21:51.000Z</time>
      </trkpt>
      <trkpt lat="45.15782" lon="5.96091">
        <ele>2698</ele>
        <time>2019-01-20T11:21:52.000Z</time>
      </trkpt>
      <trkpt lat="45.15782" lon="5.96091">
        <ele>2698</ele>
        <time>2019-01-20T11:21:53.000Z</time>
      </trkpt>
      <trkpt lat="45.1578" lon="5.96088">
        <ele>2700</ele>
        <time>2019-01-20T11:21:54.000Z</time>
      </trkpt>
      <trkpt lat="45.1578" lon="5.96088">
        <ele>2700</ele>
        <time>2019-01-20T11:21:55.000Z</time>
      </trkpt>
      <trkpt lat="45.15779" lon="5.96085">
        <ele>2700</ele>
        <time>2019-01-20T11:21:56.000Z</time>
      </trkpt>
      <trkpt lat="45.15779" lon="5.96085">
        <ele>2700</ele>
        <time>2019-01-20T11:21:57.000Z</time>
      </trkpt>
      <trkpt lat="45.15777" lon="5.96083">
        <ele>2700</ele>
        <time>2019-01-20T11:21:58.000Z</time>
      </trkpt>
      <trkpt lat="45.15777" lon="5.96083">
        <ele>2700</ele>
        <time>2019-01-20T11:21:59.000Z</time>
      </trkpt>
      <trkpt lat="45.15776" lon="5.9608">
        <ele>2699</ele>
        <time>2019-01-20T11:22:00.000Z</time>
      </trkpt>
      <trkpt lat="45.15776" lon="5.9608">
        <ele>2699</ele>
        <time>2019-01-20T11:22:01.000Z</time>
      </trkpt>
      <trkpt lat="45.15774" lon="5.96078">
        <ele>2701</ele>
        <time>2019-01-20T11:22:02.000Z</time>
      </trkpt>
      <trkpt lat="45.15774" lon="5.96078">
        <ele>2701</ele>
        <time>2019-01-20T11:22:03.000Z</time>
      </trkpt>
      <trkpt lat="45.15773" lon="5.96075">
        <ele>2701</ele>
        <time>2019-01-20T11:22:04.000Z</time>
      </trkpt>
      <trkpt lat="45.15773" lon="5.96075">
        <ele>2701</ele>
        <time>2019-01-20T11:22:05.000Z</time>
      </trkpt>
      <trkpt lat="45.15771" lon="5.96072">
        <ele>2701</ele>
        <time>2019-01-20T11:22:06.000Z</time>
      </trkpt>
      <trkpt lat="45.15771" lon="5.96072">
        <ele>2701</ele>
        <time>2019-01-20T11:22:07.000Z</time>
      </trkpt>
      <trkpt lat="45.1577" lon="5.96068">
        <ele>2701</ele>
        <time>2019-01-20T11:22:08.000Z</time>
      </trkpt>
      <trkpt lat="45.1577" lon="5.96068">
        <ele>2700</ele>
        <time>2019-01-20T11:22:09.000Z</time>
      </trkpt>
      <trkpt lat="45.15769" lon="5.96066">
        <ele>2700</ele>
        <time>2019-01-20T11:22:10.000Z</time>
      </trkpt>
      <trkpt lat="45.15769" lon="5.96066">
        <ele>2700</ele>
        <time>2019-01-20T11:22:11.000Z</time>
      </trkpt>
      <trkpt lat="45.15768" lon="5.96062">
        <ele>2700</ele>
        <time>2019-01-20T11:22:12.000Z</time>
      </trkpt>
      <trkpt lat="45.15768" lon="5.96062">
        <ele>2700</ele>
        <time>2019-01-20T11:22:13.000Z</time>
      </trkpt>
      <trkpt lat="45.15767" lon="5.96059">
        <ele>2700</ele>
        <time>2019-01-20T11:22:14.000Z</time>
      </trkpt>
      <trkpt lat="45.15767" lon="5.96059">
        <ele>2700</ele>
        <time>2019-01-20T11:22:15.000Z</time>
      </trkpt>
      <trkpt lat="45.15766" lon="5.96057">
        <ele>2700</ele>
        <time>2019-01-20T11:22:16.000Z</time>
      </trkpt>
      <trkpt lat="45.15766" lon="5.96057">
        <ele>2700</ele>
        <time>2019-01-20T11:22:17.000Z</time>
      </trkpt>
      <trkpt lat="45.15764" lon="5.96054">
        <ele>2701</ele>
        <time>2019-01-20T11:22:18.000Z</time>
      </trkpt>
      <trkpt lat="45.15764" lon="5.96054">
        <ele>2701</ele>
        <time>2019-01-20T11:22:19.000Z</time>
      </trkpt>
      <trkpt lat="45.15763" lon="5.96051">
        <ele>2701</ele>
        <time>2019-01-20T11:22:20.000Z</time>
      </trkpt>
      <trkpt lat="45.15763" lon="5.96051">
        <ele>2701</ele>
        <time>2019-01-20T11:22:21.000Z</time>
      </trkpt>
      <trkpt lat="45.15762" lon="5.96048">
        <ele>2703</ele>
        <time>2019-01-20T11:22:22.000Z</time>
      </trkpt>
      <trkpt lat="45.15761" lon="5.96046">
        <ele>2704</ele>
        <time>2019-01-20T11:22:24.000Z</time>
      </trkpt>
      <trkpt lat="45.15761" lon="5.96046">
        <ele>2704</ele>
        <time>2019-01-20T11:22:25.000Z</time>
      </trkpt>
      <trkpt lat="45.1576" lon="5.96044">
        <ele>2704</ele>
        <time>2019-01-20T11:22:26.000Z</time>
      </trkpt>
      <trkpt lat="45.1576" lon="5.96044">
        <ele>2705</ele>
        <time>2019-01-20T11:22:27.000Z</time>
      </trkpt>
      <trkpt lat="45.15759" lon="5.96042">
        <ele>2705</ele>
        <time>2019-01-20T11:22:28.000Z</time>
      </trkpt>
      <trkpt lat="45.15759" lon="5.96042">
        <ele>2705</ele>
        <time>2019-01-20T11:22:29.000Z</time>
      </trkpt>
      <trkpt lat="45.15758" lon="5.9604">
        <ele>2705</ele>
        <time>2019-01-20T11:22:30.000Z</time>
      </trkpt>
      <trkpt lat="45.15758" lon="5.9604">
        <ele>2706</ele>
        <time>2019-01-20T11:22:31.000Z</time>
      </trkpt>
      <trkpt lat="45.15757" lon="5.96037">
        <ele>2706</ele>
        <time>2019-01-20T11:22:32.000Z</time>
      </trkpt>
      <trkpt lat="45.15757" lon="5.96037">
        <ele>2706</ele>
        <time>2019-01-20T11:22:33.000Z</time>
      </trkpt>
      <trkpt lat="45.15757" lon="5.96035">
        <ele>2706</ele>
        <time>2019-01-20T11:22:34.000Z</time>
      </trkpt>
      <trkpt lat="45.15757" lon="5.96035">
        <ele>2706</ele>
        <time>2019-01-20T11:22:35.000Z</time>
      </trkpt>
      <trkpt lat="45.15756" lon="5.96031">
        <ele>2706</ele>
        <time>2019-01-20T11:22:36.000Z</time>
      </trkpt>
      <trkpt lat="45.15756" lon="5.96031">
        <ele>2707</ele>
        <time>2019-01-20T11:22:37.000Z</time>
      </trkpt>
      <trkpt lat="45.15755" lon="5.96029">
        <ele>2707</ele>
        <time>2019-01-20T11:22:38.000Z</time>
      </trkpt>
      <trkpt lat="45.15755" lon="5.96029">
        <ele>2707</ele>
        <time>2019-01-20T11:22:39.000Z</time>
      </trkpt>
      <trkpt lat="45.15755" lon="5.96026">
        <ele>2707</ele>
        <time>2019-01-20T11:22:40.000Z</time>
      </trkpt>
      <trkpt lat="45.15755" lon="5.96026">
        <ele>2707</ele>
        <time>2019-01-20T11:22:41.000Z</time>
      </trkpt>
      <trkpt lat="45.15754" lon="5.96023">
        <ele>2707</ele>
        <time>2019-01-20T11:22:42.000Z</time>
      </trkpt>
      <trkpt lat="45.15754" lon="5.96023">
        <ele>2708</ele>
        <time>2019-01-20T11:22:43.000Z</time>
      </trkpt>
      <trkpt lat="45.15753" lon="5.9602">
        <ele>2708</ele>
        <time>2019-01-20T11:22:44.000Z</time>
      </trkpt>
      <trkpt lat="45.15753" lon="5.9602">
        <ele>2708</ele>
        <time>2019-01-20T11:22:45.000Z</time>
      </trkpt>
      <trkpt lat="45.15752" lon="5.96017">
        <ele>2708</ele>
        <time>2019-01-20T11:22:46.000Z</time>
      </trkpt>
      <trkpt lat="45.15752" lon="5.96017">
        <ele>2709</ele>
        <time>2019-01-20T11:22:47.000Z</time>
      </trkpt>
      <trkpt lat="45.15751" lon="5.96014">
        <ele>2709</ele>
        <time>2019-01-20T11:22:48.000Z</time>
      </trkpt>
      <trkpt lat="45.15751" lon="5.96014">
        <ele>2709</ele>
        <time>2019-01-20T11:22:49.000Z</time>
      </trkpt>
      <trkpt lat="45.1575" lon="5.96012">
        <ele>2709</ele>
        <time>2019-01-20T11:22:50.000Z</time>
      </trkpt>
      <trkpt lat="45.1575" lon="5.96012">
        <ele>2709</ele>
        <time>2019-01-20T11:22:51.000Z</time>
      </trkpt>
      <trkpt lat="45.1575" lon="5.96009">
        <ele>2709</ele>
        <time>2019-01-20T11:22:52.000Z</time>
      </trkpt>
      <trkpt lat="45.1575" lon="5.96009">
        <ele>2710</ele>
        <time>2019-01-20T11:22:53.000Z</time>
      </trkpt>
      <trkpt lat="45.15749" lon="5.96006">
        <ele>2710</ele>
        <time>2019-01-20T11:22:54.000Z</time>
      </trkpt>
      <trkpt lat="45.15749" lon="5.96006">
        <ele>2710</ele>
        <time>2019-01-20T11:22:55.000Z</time>
      </trkpt>
      <trkpt lat="45.15749" lon="5.96006">
        <ele>2710</ele>
        <time>2019-01-20T11:22:56.000Z</time>
      </trkpt>
      <trkpt lat="45.15749" lon="5.96002">
        <ele>2710</ele>
        <time>2019-01-20T11:22:57.000Z</time>
      </trkpt>
      <trkpt lat="45.15749" lon="5.96002">
        <ele>2710</ele>
        <time>2019-01-20T11:22:58.000Z</time>
      </trkpt>
      <trkpt lat="45.15749" lon="5.96002">
        <ele>2710</ele>
        <time>2019-01-20T11:22:59.000Z</time>
      </trkpt>
      <trkpt lat="45.15749" lon="5.95998">
        <ele>2710</ele>
        <time>2019-01-20T11:23:00.000Z</time>
      </trkpt>
      <trkpt lat="45.15749" lon="5.95998">
        <ele>2711.6</ele>
        <time>2019-01-20T11:23:02.000Z</time>
      </trkpt>
      <trkpt lat="45.15749" lon="5.95995">
        <ele>2712</ele>
        <time>2019-01-20T11:23:03.000Z</time>
      </trkpt>
      <trkpt lat="45.15749" lon="5.95995">
        <ele>2712</ele>
        <time>2019-01-20T11:23:04.000Z</time>
      </trkpt>
      <trkpt lat="45.15749" lon="5.95992">
        <ele>2712</ele>
        <time>2019-01-20T11:23:05.000Z</time>
      </trkpt>
      <trkpt lat="45.15749" lon="5.95992">
        <ele>2713</ele>
        <time>2019-01-20T11:23:06.000Z</time>
      </trkpt>
      <trkpt lat="45.15748" lon="5.9599">
        <ele>2713</ele>
        <time>2019-01-20T11:23:07.000Z</time>
      </trkpt>
      <trkpt lat="45.15748" lon="5.9599">
        <ele>2713</ele>
        <time>2019-01-20T11:23:08.000Z</time>
      </trkpt>
      <trkpt lat="45.15748" lon="5.9599">
        <ele>2713</ele>
        <time>2019-01-20T11:23:09.000Z</time>
      </trkpt>
      <trkpt lat="45.15749" lon="5.95986">
        <ele>2713</ele>
        <time>2019-01-20T11:23:10.000Z</time>
      </trkpt>
      <trkpt lat="45.15749" lon="5.95986">
        <ele>2714</ele>
        <time>2019-01-20T11:23:11.000Z</time>
      </trkpt>
      <trkpt lat="45.15749" lon="5.95986">
        <ele>2714</ele>
        <time>2019-01-20T11:23:12.000Z</time>
      </trkpt>
      <trkpt lat="45.15749" lon="5.95982">
        <ele>2714</ele>
        <time>2019-01-20T11:23:13.000Z</time>
      </trkpt>
      <trkpt lat="45.15749" lon="5.95982">
        <ele>2715</ele>
        <time>2019-01-20T11:23:14.000Z</time>
      </trkpt>
      <trkpt lat="45.15749" lon="5.95982">
        <ele>2715</ele>
        <time>2019-01-20T11:23:15.000Z</time>
      </trkpt>
      <trkpt lat="45.15748" lon="5.95979">
        <ele>2715</ele>
        <time>2019-01-20T11:23:16.000Z</time>
      </trkpt>
      <trkpt lat="45.15748" lon="5.95979">
        <ele>2716</ele>
        <time>2019-01-20T11:23:17.000Z</time>
      </trkpt>
      <trkpt lat="45.15748" lon="5.95979">
        <ele>2717</ele>
        <time>2019-01-20T11:23:18.000Z</time>
      </trkpt>
      <trkpt lat="45.15748" lon="5.95976">
        <ele>2717</ele>
        <time>2019-01-20T11:23:19.000Z</time>
      </trkpt>
      <trkpt lat="45.15748" lon="5.95976">
        <ele>2717</ele>
        <time>2019-01-20T11:23:21.000Z</time>
      </trkpt>
      <trkpt lat="45.15748" lon="5.95972">
        <ele>2717</ele>
        <time>2019-01-20T11:23:22.000Z</time>
      </trkpt>
      <trkpt lat="45.15748" lon="5.95972">
        <ele>2717</ele>
        <time>2019-01-20T11:23:23.000Z</time>
      </trkpt>
      <trkpt lat="45.15748" lon="5.95972">
        <ele>2718</ele>
        <time>2019-01-20T11:23:24.000Z</time>
      </trkpt>
      <trkpt lat="45.15749" lon="5.95969">
        <ele>2718</ele>
        <time>2019-01-20T11:23:25.000Z</time>
      </trkpt>
      <trkpt lat="45.15749" lon="5.95969">
        <ele>2718</ele>
        <time>2019-01-20T11:23:26.000Z</time>
      </trkpt>
      <trkpt lat="45.15748" lon="5.95965">
        <ele>2719</ele>
        <time>2019-01-20T11:23:27.000Z</time>
      </trkpt>
      <trkpt lat="45.15748" lon="5.95965">
        <ele>2719</ele>
        <time>2019-01-20T11:23:28.000Z</time>
      </trkpt>
      <trkpt lat="45.15748" lon="5.95965">
        <ele>2719</ele>
        <time>2019-01-20T11:23:29.000Z</time>
      </trkpt>
      <trkpt lat="45.15748" lon="5.95962">
        <ele>2719</ele>
        <time>2019-01-20T11:23:30.000Z</time>
      </trkpt>
      <trkpt lat="45.15748" lon="5.95962">
        <ele>2720</ele>
        <time>2019-01-20T11:23:32.000Z</time>
      </trkpt>
      <trkpt lat="45.15748" lon="5.95958">
        <ele>2720</ele>
        <time>2019-01-20T11:23:33.000Z</time>
      </trkpt>
      <trkpt lat="45.15748" lon="5.95958">
        <ele>2720</ele>
        <time>2019-01-20T11:23:34.000Z</time>
      </trkpt>
      <trkpt lat="45.15748" lon="5.95958">
        <ele>2721</ele>
        <time>2019-01-20T11:23:35.000Z</time>
      </trkpt>
      <trkpt lat="45.15748" lon="5.95954">
        <ele>2721</ele>
        <time>2019-01-20T11:23:36.000Z</time>
      </trkpt>
      <trkpt lat="45.15748" lon="5.95954">
        <ele>2721</ele>
        <time>2019-01-20T11:23:37.000Z</time>
      </trkpt>
      <trkpt lat="45.15749" lon="5.95952">
        <ele>2721</ele>
        <time>2019-01-20T11:23:38.000Z</time>
      </trkpt>
      <trkpt lat="45.15749" lon="5.95949">
        <ele>2721</ele>
        <time>2019-01-20T11:23:40.000Z</time>
      </trkpt>
      <trkpt lat="45.15749" lon="5.95949">
        <ele>2721</ele>
        <time>2019-01-20T11:23:41.000Z</time>
      </trkpt>
      <trkpt lat="45.1575" lon="5.95946">
        <ele>2722</ele>
        <time>2019-01-20T11:23:42.000Z</time>
      </trkpt>
      <trkpt lat="45.1575" lon="5.95946">
        <ele>2722</ele>
        <time>2019-01-20T11:23:43.000Z</time>
      </trkpt>
      <trkpt lat="45.1575" lon="5.95946">
        <ele>2723</ele>
        <time>2019-01-20T11:23:44.000Z</time>
      </trkpt>
      <trkpt lat="45.15751" lon="5.95942">
        <ele>2723</ele>
        <time>2019-01-20T11:23:45.000Z</time>
      </trkpt>
      <trkpt lat="45.15751" lon="5.95942">
        <ele>2723</ele>
        <time>2019-01-20T11:23:46.000Z</time>
      </trkpt>
      <trkpt lat="45.15751" lon="5.95942">
        <ele>2723</ele>
        <time>2019-01-20T11:23:47.000Z</time>
      </trkpt>
      <trkpt lat="45.15753" lon="5.9594">
        <ele>2723</ele>
        <time>2019-01-20T11:23:48.000Z</time>
      </trkpt>
      <trkpt lat="45.15753" lon="5.9594">
        <ele>2724</ele>
        <time>2019-01-20T11:23:49.000Z</time>
      </trkpt>
      <trkpt lat="45.15753" lon="5.9594">
        <ele>2724</ele>
        <time>2019-01-20T11:23:50.000Z</time>
      </trkpt>
      <trkpt lat="45.15754" lon="5.95937">
        <ele>2724</ele>
        <time>2019-01-20T11:23:51.000Z</time>
      </trkpt>
      <trkpt lat="45.15754" lon="5.95937">
        <ele>2724</ele>
        <time>2019-01-20T11:23:52.000Z</time>
      </trkpt>
      <trkpt lat="45.15755" lon="5.95934">
        <ele>2724</ele>
        <time>2019-01-20T11:23:53.000Z</time>
      </trkpt>
      <trkpt lat="45.15755" lon="5.95934">
        <ele>2724</ele>
        <time>2019-01-20T11:23:54.000Z</time>
      </trkpt>
      <trkpt lat="45.15755" lon="5.95934">
        <ele>2724</ele>
        <time>2019-01-20T11:23:55.000Z</time>
      </trkpt>
      <trkpt lat="45.15756" lon="5.95931">
        <ele>2724</ele>
        <time>2019-01-20T11:23:56.000Z</time>
      </trkpt>
      <trkpt lat="45.15756" lon="5.95931">
        <ele>2724</ele>
        <time>2019-01-20T11:23:57.000Z</time>
      </trkpt>
      <trkpt lat="45.15757" lon="5.95929">
        <ele>2724</ele>
        <time>2019-01-20T11:23:58.000Z</time>
      </trkpt>
      <trkpt lat="45.15757" lon="5.95929">
        <ele>2724</ele>
        <time>2019-01-20T11:23:59.000Z</time>
      </trkpt>
      <trkpt lat="45.15757" lon="5.95929">
        <ele>2724</ele>
        <time>2019-01-20T11:24:00.000Z</time>
      </trkpt>
      <trkpt lat="45.15758" lon="5.95926">
        <ele>2724</ele>
        <time>2019-01-20T11:24:01.000Z</time>
      </trkpt>
      <trkpt lat="45.15758" lon="5.95926">
        <ele>2724</ele>
        <time>2019-01-20T11:24:02.000Z</time>
      </trkpt>
      <trkpt lat="45.15758" lon="5.95926">
        <ele>2724</ele>
        <time>2019-01-20T11:24:03.000Z</time>
      </trkpt>
      <trkpt lat="45.15759" lon="5.95922">
        <ele>2725</ele>
        <time>2019-01-20T11:24:04.000Z</time>
      </trkpt>
      <trkpt lat="45.15759" lon="5.95922">
        <ele>2725</ele>
        <time>2019-01-20T11:24:05.000Z</time>
      </trkpt>
      <trkpt lat="45.15759" lon="5.95922">
        <ele>2725</ele>
        <time>2019-01-20T11:24:06.000Z</time>
      </trkpt>
      <trkpt lat="45.1576" lon="5.95919">
        <ele>2725</ele>
        <time>2019-01-20T11:24:07.000Z</time>
      </trkpt>
      <trkpt lat="45.1576" lon="5.95919">
        <ele>2725</ele>
        <time>2019-01-20T11:24:08.000Z</time>
      </trkpt>
      <trkpt lat="45.1576" lon="5.95919">
        <ele>2726</ele>
        <time>2019-01-20T11:24:09.000Z</time>
      </trkpt>
      <trkpt lat="45.15761" lon="5.95915">
        <ele>2726</ele>
        <time>2019-01-20T11:24:10.000Z</time>
      </trkpt>
      <trkpt lat="45.15761" lon="5.95915">
        <ele>2726</ele>
        <time>2019-01-20T11:24:11.000Z</time>
      </trkpt>
      <trkpt lat="45.15761" lon="5.95913">
        <ele>2726</ele>
        <time>2019-01-20T11:24:12.000Z</time>
      </trkpt>
      <trkpt lat="45.15761" lon="5.95913">
        <ele>2726</ele>
        <time>2019-01-20T11:24:13.000Z</time>
      </trkpt>
      <trkpt lat="45.15762" lon="5.9591">
        <ele>2727</ele>
        <time>2019-01-20T11:24:14.000Z</time>
      </trkpt>
      <trkpt lat="45.15762" lon="5.9591">
        <ele>2727</ele>
        <time>2019-01-20T11:24:15.000Z</time>
      </trkpt>
      <trkpt lat="45.15763" lon="5.95908">
        <ele>2727</ele>
        <time>2019-01-20T11:24:16.000Z</time>
      </trkpt>
      <trkpt lat="45.15763" lon="5.95905">
        <ele>2727</ele>
        <time>2019-01-20T11:24:18.000Z</time>
      </trkpt>
      <trkpt lat="45.15763" lon="5.95905">
        <ele>2727</ele>
        <time>2019-01-20T11:24:20.000Z</time>
      </trkpt>
      <trkpt lat="45.15764" lon="5.95902">
        <ele>2727</ele>
        <time>2019-01-20T11:24:21.000Z</time>
      </trkpt>
      <trkpt lat="45.15764" lon="5.95902">
        <ele>2728</ele>
        <time>2019-01-20T11:24:22.000Z</time>
      </trkpt>
      <trkpt lat="45.15764" lon="5.95902">
        <ele>2728</ele>
        <time>2019-01-20T11:24:23.000Z</time>
      </trkpt>
      <trkpt lat="45.15765" lon="5.95899">
        <ele>2728</ele>
        <time>2019-01-20T11:24:24.000Z</time>
      </trkpt>
      <trkpt lat="45.15765" lon="5.95899">
        <ele>2728</ele>
        <time>2019-01-20T11:24:26.000Z</time>
      </trkpt>
      <trkpt lat="45.15766" lon="5.95895">
        <ele>2728</ele>
        <time>2019-01-20T11:24:27.000Z</time>
      </trkpt>
      <trkpt lat="45.15766" lon="5.95895">
        <ele>2729</ele>
        <time>2019-01-20T11:24:28.000Z</time>
      </trkpt>
      <trkpt lat="45.15766" lon="5.95895">
        <ele>2729</ele>
        <time>2019-01-20T11:24:29.000Z</time>
      </trkpt>
      <trkpt lat="45.15766" lon="5.95892">
        <ele>2729</ele>
        <time>2019-01-20T11:24:30.000Z</time>
      </trkpt>
      <trkpt lat="45.15766" lon="5.95892">
        <ele>2730</ele>
        <time>2019-01-20T11:24:31.000Z</time>
      </trkpt>
      <trkpt lat="45.15766" lon="5.95892">
        <ele>2730</ele>
        <time>2019-01-20T11:24:32.000Z</time>
      </trkpt>
      <trkpt lat="45.15767" lon="5.95889">
        <ele>2730</ele>
        <time>2019-01-20T11:24:33.000Z</time>
      </trkpt>
      <trkpt lat="45.15767" lon="5.95889">
        <ele>2730</ele>
        <time>2019-01-20T11:24:34.000Z</time>
      </trkpt>
      <trkpt lat="45.15767" lon="5.95889">
        <ele>2730</ele>
        <time>2019-01-20T11:24:35.000Z</time>
      </trkpt>
      <trkpt lat="45.15767" lon="5.95886">
        <ele>2730</ele>
        <time>2019-01-20T11:24:36.000Z</time>
      </trkpt>
      <trkpt lat="45.15767" lon="5.95886">
        <ele>2731</ele>
        <time>2019-01-20T11:24:37.000Z</time>
      </trkpt>
      <trkpt lat="45.15767" lon="5.95886">
        <ele>2731</ele>
        <time>2019-01-20T11:24:38.000Z</time>
      </trkpt>
      <trkpt lat="45.15768" lon="5.95883">
        <ele>2731</ele>
        <time>2019-01-20T11:24:39.000Z</time>
      </trkpt>
      <trkpt lat="45.15768" lon="5.95883">
        <ele>2731</ele>
        <time>2019-01-20T11:24:40.000Z</time>
      </trkpt>
      <trkpt lat="45.15768" lon="5.95883">
        <ele>2731</ele>
        <time>2019-01-20T11:24:41.000Z</time>
      </trkpt>
      <trkpt lat="45.15768" lon="5.95879">
        <ele>2732</ele>
        <time>2019-01-20T11:24:42.000Z</time>
      </trkpt>
      <trkpt lat="45.15768" lon="5.95879">
        <ele>2732</ele>
        <time>2019-01-20T11:24:43.000Z</time>
      </trkpt>
      <trkpt lat="45.15768" lon="5.95879">
        <ele>2732</ele>
        <time>2019-01-20T11:24:44.000Z</time>
      </trkpt>
      <trkpt lat="45.15768" lon="5.95876">
        <ele>2732</ele>
        <time>2019-01-20T11:24:45.000Z</time>
      </trkpt>
      <trkpt lat="45.15768" lon="5.95876">
        <ele>2732</ele>
        <time>2019-01-20T11:24:46.000Z</time>
      </trkpt>
      <trkpt lat="45.15768" lon="5.95876">
        <ele>2732</ele>
        <time>2019-01-20T11:24:47.000Z</time>
      </trkpt>
      <trkpt lat="45.15767" lon="5.95874">
        <ele>2733</ele>
        <time>2019-01-20T11:24:48.000Z</time>
      </trkpt>
      <trkpt lat="45.15767" lon="5.95874">
        <ele>2733</ele>
        <time>2019-01-20T11:24:49.000Z</time>
      </trkpt>
      <trkpt lat="45.15767" lon="5.95874">
        <ele>2733</ele>
        <time>2019-01-20T11:24:50.000Z</time>
      </trkpt>
      <trkpt lat="45.15765" lon="5.95873">
        <ele>2733</ele>
        <time>2019-01-20T11:24:51.000Z</time>
      </trkpt>
      <trkpt lat="45.15765" lon="5.95873">
        <ele>2733</ele>
        <time>2019-01-20T11:24:52.000Z</time>
      </trkpt>
      <trkpt lat="45.15762" lon="5.95874">
        <ele>2733</ele>
        <time>2019-01-20T11:24:53.000Z</time>
      </trkpt>
      <trkpt lat="45.15762" lon="5.95874">
        <ele>2734</ele>
        <time>2019-01-20T11:24:54.000Z</time>
      </trkpt>
      <trkpt lat="45.1576" lon="5.95876">
        <ele>2734</ele>
        <time>2019-01-20T11:24:56.000Z</time>
      </trkpt>
      <trkpt lat="45.1576" lon="5.95876">
        <ele>2734</ele>
        <time>2019-01-20T11:24:57.000Z</time>
      </trkpt>
      <trkpt lat="45.1576" lon="5.95876">
        <ele>2734</ele>
        <time>2019-01-20T11:24:58.000Z</time>
      </trkpt>
      <trkpt lat="45.15757" lon="5.95876">
        <ele>2735</ele>
        <time>2019-01-20T11:24:59.000Z</time>
      </trkpt>
      <trkpt lat="45.15757" lon="5.95876">
        <ele>2735</ele>
        <time>2019-01-20T11:25:00.000Z</time>
      </trkpt>
      <trkpt lat="45.15757" lon="5.95876">
        <ele>2735</ele>
        <time>2019-01-20T11:25:01.000Z</time>
      </trkpt>
      <trkpt lat="45.15755" lon="5.95878">
        <ele>2736</ele>
        <time>2019-01-20T11:25:02.000Z</time>
      </trkpt>
      <trkpt lat="45.15755" lon="5.95878">
        <ele>2736</ele>
        <time>2019-01-20T11:25:03.000Z</time>
      </trkpt>
      <trkpt lat="45.15755" lon="5.95878">
        <ele>2736</ele>
        <time>2019-01-20T11:25:04.000Z</time>
      </trkpt>
      <trkpt lat="45.15752" lon="5.95879">
        <ele>2738</ele>
        <time>2019-01-20T11:25:05.000Z</time>
      </trkpt>
      <trkpt lat="45.15752" lon="5.95879">
        <ele>2738</ele>
        <time>2019-01-20T11:25:06.000Z</time>
      </trkpt>
      <trkpt lat="45.15752" lon="5.95879">
        <ele>2738</ele>
        <time>2019-01-20T11:25:07.000Z</time>
      </trkpt>
      <trkpt lat="45.15752" lon="5.95879">
        <ele>2737</ele>
        <time>2019-01-20T11:25:08.000Z</time>
      </trkpt>
      <trkpt lat="45.15751" lon="5.95879">
        <ele>2737</ele>
        <time>2019-01-20T11:25:09.000Z</time>
      </trkpt>
      <trkpt lat="45.15751" lon="5.95879">
        <ele>2737</ele>
        <time>2019-01-20T11:25:10.000Z</time>
      </trkpt>
      <trkpt lat="45.15751" lon="5.95879">
        <ele>2737</ele>
        <time>2019-01-20T11:25:11.000Z</time>
      </trkpt>
      <trkpt lat="45.15751" lon="5.95879">
        <ele>2737</ele>
        <time>2019-01-20T11:25:12.000Z</time>
      </trkpt>
      <trkpt lat="45.15751" lon="5.95879">
        <ele>2737</ele>
        <time>2019-01-20T11:25:13.000Z</time>
      </trkpt>
      <trkpt lat="45.15749" lon="5.95881">
        <ele>2737</ele>
        <time>2019-01-20T11:25:14.000Z</time>
      </trkpt>
      <trkpt lat="45.15749" lon="5.95881">
        <ele>2737</ele>
        <time>2019-01-20T11:25:15.000Z</time>
      </trkpt>
      <trkpt lat="45.15749" lon="5.95881">
        <ele>2737</ele>
        <time>2019-01-20T11:25:16.000Z</time>
      </trkpt>
      <trkpt lat="45.15749" lon="5.95881">
        <ele>2737</ele>
        <time>2019-01-20T11:25:17.000Z</time>
      </trkpt>
      <trkpt lat="45.15749" lon="5.95881">
        <ele>2738</ele>
        <time>2019-01-20T11:25:18.000Z</time>
      </trkpt>
      <trkpt lat="45.15749" lon="5.95881">
        <ele>2738</ele>
        <time>2019-01-20T11:25:19.000Z</time>
      </trkpt>
      <trkpt lat="45.15746" lon="5.95882">
        <ele>2738</ele>
        <time>2019-01-20T11:25:20.000Z</time>
      </trkpt>
      <trkpt lat="45.15746" lon="5.95882">
        <ele>2740</ele>
        <time>2019-01-20T11:25:21.000Z</time>
      </trkpt>
      <trkpt lat="45.15746" lon="5.95882">
        <ele>2741</ele>
        <time>2019-01-20T11:25:22.000Z</time>
      </trkpt>
      <trkpt lat="45.15745" lon="5.95882">
        <ele>2741</ele>
        <time>2019-01-20T11:25:23.000Z</time>
      </trkpt>
      <trkpt lat="45.15745" lon="5.95882">
        <ele>2741</ele>
        <time>2019-01-20T11:25:24.000Z</time>
      </trkpt>
      <trkpt lat="45.15745" lon="5.95882">
        <ele>2741</ele>
        <time>2019-01-20T11:25:25.000Z</time>
      </trkpt>
      <trkpt lat="45.15745" lon="5.95882">
        <ele>2741</ele>
        <time>2019-01-20T11:25:26.000Z</time>
      </trkpt>
      <trkpt lat="45.15742" lon="5.95883">
        <ele>2741</ele>
        <time>2019-01-20T11:25:27.000Z</time>
      </trkpt>
      <trkpt lat="45.15742" lon="5.95883">
        <ele>2741</ele>
        <time>2019-01-20T11:25:28.000Z</time>
      </trkpt>
      <trkpt lat="45.15742" lon="5.95883">
        <ele>2742</ele>
        <time>2019-01-20T11:25:29.000Z</time>
      </trkpt>
      <trkpt lat="45.1574" lon="5.95884">
        <ele>2742</ele>
        <time>2019-01-20T11:25:30.000Z</time>
      </trkpt>
      <trkpt lat="45.1574" lon="5.95884">
        <ele>2742</ele>
        <time>2019-01-20T11:25:31.000Z</time>
      </trkpt>
      <trkpt lat="45.1574" lon="5.95884">
        <ele>2742</ele>
        <time>2019-01-20T11:25:32.000Z</time>
      </trkpt>
      <trkpt lat="45.15738" lon="5.95885">
        <ele>2742</ele>
        <time>2019-01-20T11:25:34.000Z</time>
      </trkpt>
      <trkpt lat="45.15738" lon="5.95885">
        <ele>2742</ele>
        <time>2019-01-20T11:25:35.000Z</time>
      </trkpt>
      <trkpt lat="45.15738" lon="5.95885">
        <ele>2742</ele>
        <time>2019-01-20T11:25:36.000Z</time>
      </trkpt>
      <trkpt lat="45.15738" lon="5.95885">
        <ele>2742</ele>
        <time>2019-01-20T11:25:37.000Z</time>
      </trkpt>
      <trkpt lat="45.15738" lon="5.95885">
        <ele>2742</ele>
        <time>2019-01-20T11:25:38.000Z</time>
      </trkpt>
      <trkpt lat="45.15738" lon="5.95885">
        <ele>2742</ele>
        <time>2019-01-20T11:25:39.000Z</time>
      </trkpt>
      <trkpt lat="45.15738" lon="5.95885">
        <ele>2742</ele>
        <time>2019-01-20T11:25:40.000Z</time>
      </trkpt>
      <trkpt lat="45.15738" lon="5.95885">
        <ele>2742</ele>
        <time>2019-01-20T11:25:41.000Z</time>
      </trkpt>
      <trkpt lat="45.15738" lon="5.95885">
        <ele>2742</ele>
        <time>2019-01-20T11:25:42.000Z</time>
      </trkpt>
      <trkpt lat="45.15738" lon="5.95885">
        <ele>2742</ele>
        <time>2019-01-20T11:25:43.000Z</time>
      </trkpt>
      <trkpt lat="45.15738" lon="5.95885">
        <ele>2741</ele>
        <time>2019-01-20T11:25:44.000Z</time>
      </trkpt>
      <trkpt lat="45.15738" lon="5.95885">
        <ele>2741</ele>
        <time>2019-01-20T11:25:45.000Z</time>
      </trkpt>
      <trkpt lat="45.15738" lon="5.95885">
        <ele>2741</ele>
        <time>2019-01-20T11:25:46.000Z</time>
      </trkpt>
      <trkpt lat="45.15738" lon="5.95885">
        <ele>2741</ele>
        <time>2019-01-20T11:25:47.000Z</time>
      </trkpt>
      <trkpt lat="45.15738" lon="5.95885">
        <ele>2741</ele>
        <time>2019-01-20T11:25:48.000Z</time>
      </trkpt>
      <trkpt lat="45.15738" lon="5.95885">
        <ele>2741</ele>
        <time>2019-01-20T11:25:49.000Z</time>
      </trkpt>
      <trkpt lat="45.15738" lon="5.95885">
        <ele>2741</ele>
        <time>2019-01-20T11:25:50.000Z</time>
      </trkpt>
      <trkpt lat="45.15737" lon="5.95887">
        <ele>2741</ele>
        <time>2019-01-20T11:25:51.000Z</time>
      </trkpt>
      <trkpt lat="45.15737" lon="5.95887">
        <ele>2742</ele>
        <time>2019-01-20T11:25:53.000Z</time>
      </trkpt>
      <trkpt lat="45.15735" lon="5.95888">
        <ele>2743</ele>
        <time>2019-01-20T11:25:54.000Z</time>
      </trkpt>
      <trkpt lat="45.15735" lon="5.95888">
        <ele>2743</ele>
        <time>2019-01-20T11:25:55.000Z</time>
      </trkpt>
      <trkpt lat="45.15735" lon="5.95888">
        <ele>2743</ele>
        <time>2019-01-20T11:25:56.000Z</time>
      </trkpt>
      <trkpt lat="45.15735" lon="5.95888">
        <ele>2743</ele>
        <time>2019-01-20T11:25:57.000Z</time>
      </trkpt>
      <trkpt lat="45.15735" lon="5.95888">
        <ele>2743</ele>
        <time>2019-01-20T11:25:58.000Z</time>
      </trkpt>
      <trkpt lat="45.15735" lon="5.95888">
        <ele>2744</ele>
        <time>2019-01-20T11:25:59.000Z</time>
      </trkpt>
      <trkpt lat="45.15735" lon="5.95888">
        <ele>2744</ele>
        <time>2019-01-20T11:26:00.000Z</time>
      </trkpt>
      <trkpt lat="45.15733" lon="5.95887">
        <ele>2744</ele>
        <time>2019-01-20T11:26:01.000Z</time>
      </trkpt>
      <trkpt lat="45.15733" lon="5.95887">
        <ele>2745</ele>
        <time>2019-01-20T11:26:02.000Z</time>
      </trkpt>
      <trkpt lat="45.15733" lon="5.95887">
        <ele>2745</ele>
        <time>2019-01-20T11:26:03.000Z</time>
      </trkpt>
      <trkpt lat="45.15733" lon="5.95887">
        <ele>2745</ele>
        <time>2019-01-20T11:26:04.000Z</time>
      </trkpt>
      <trkpt lat="45.15733" lon="5.95887">
        <ele>2745</ele>
        <time>2019-01-20T11:26:05.000Z</time>
      </trkpt>
      <trkpt lat="45.15731" lon="5.95887">
        <ele>2745</ele>
        <time>2019-01-20T11:26:06.000Z</time>
      </trkpt>
      <trkpt lat="45.15731" lon="5.95887">
        <ele>2745</ele>
        <time>2019-01-20T11:26:07.000Z</time>
      </trkpt>
      <trkpt lat="45.15731" lon="5.95887">
        <ele>2745</ele>
        <time>2019-01-20T11:26:08.000Z</time>
      </trkpt>
      <trkpt lat="45.15729" lon="5.95888">
        <ele>2745</ele>
        <time>2019-01-20T11:26:09.000Z</time>
      </trkpt>
      <trkpt lat="45.15729" lon="5.95888">
        <ele>2745</ele>
        <time>2019-01-20T11:26:10.000Z</time>
      </trkpt>
      <trkpt lat="45.15727" lon="5.95889">
        <ele>2745.6</ele>
        <time>2019-01-20T11:26:12.000Z</time>
      </trkpt>
      <trkpt lat="45.15727" lon="5.95889">
        <ele>2746</ele>
        <time>2019-01-20T11:26:13.000Z</time>
      </trkpt>
      <trkpt lat="45.15727" lon="5.95889">
        <ele>2746</ele>
        <time>2019-01-20T11:26:14.000Z</time>
      </trkpt>
      <trkpt lat="45.15725" lon="5.95891">
        <ele>2746</ele>
        <time>2019-01-20T11:26:15.000Z</time>
      </trkpt>
      <trkpt lat="45.15725" lon="5.95891">
        <ele>2746</ele>
        <time>2019-01-20T11:26:16.000Z</time>
      </trkpt>
      <trkpt lat="45.15725" lon="5.95891">
        <ele>2746</ele>
        <time>2019-01-20T11:26:17.000Z</time>
      </trkpt>
      <trkpt lat="45.15723" lon="5.95893">
        <ele>2747</ele>
        <time>2019-01-20T11:26:18.000Z</time>
      </trkpt>
      <trkpt lat="45.15723" lon="5.95893">
        <ele>2747</ele>
        <time>2019-01-20T11:26:19.000Z</time>
      </trkpt>
      <trkpt lat="45.15721" lon="5.95894">
        <ele>2747</ele>
        <time>2019-01-20T11:26:20.000Z</time>
      </trkpt>
      <trkpt lat="45.15721" lon="5.95894">
        <ele>2747</ele>
        <time>2019-01-20T11:26:21.000Z</time>
      </trkpt>
      <trkpt lat="45.15721" lon="5.95894">
        <ele>2747</ele>
        <time>2019-01-20T11:26:22.000Z</time>
      </trkpt>
      <trkpt lat="45.15719" lon="5.95894">
        <ele>2748</ele>
        <time>2019-01-20T11:26:23.000Z</time>
      </trkpt>
      <trkpt lat="45.15719" lon="5.95894">
        <ele>2748</ele>
        <time>2019-01-20T11:26:24.000Z</time>
      </trkpt>
      <trkpt lat="45.15719" lon="5.95894">
        <ele>2748</ele>
        <time>2019-01-20T11:26:25.000Z</time>
      </trkpt>
      <trkpt lat="45.15719" lon="5.95892">
        <ele>2748</ele>
        <time>2019-01-20T11:26:26.000Z</time>
      </trkpt>
      <trkpt lat="45.15719" lon="5.95892">
        <ele>2748</ele>
        <time>2019-01-20T11:34:18.000Z</time>
      </trkpt>
      <trkpt lat="45.15718" lon="5.95893">
        <ele>2750</ele>
        <time>2019-01-20T11:34:19.000Z</time>
      </trkpt>
      <trkpt lat="45.15718" lon="5.95893">
        <ele>2750</ele>
        <time>2019-01-20T11:34:20.000Z</time>
      </trkpt>
      <trkpt lat="45.15718" lon="5.95893">
        <ele>2748</ele>
        <time>2019-01-20T11:34:21.000Z</time>
      </trkpt>
      <trkpt lat="45.1572" lon="5.95893">
        <ele>2747</ele>
        <time>2019-01-20T11:34:22.000Z</time>
      </trkpt>
      <trkpt lat="45.15722" lon="5.95894">
        <ele>2747</ele>
        <time>2019-01-20T11:34:23.000Z</time>
      </trkpt>
      <trkpt lat="45.15725" lon="5.95893">
        <ele>2747</ele>
        <time>2019-01-20T11:34:24.000Z</time>
      </trkpt>
      <trkpt lat="45.1573" lon="5.95891">
        <ele>2745</ele>
        <time>2019-01-20T11:34:25.000Z</time>
      </trkpt>
      <trkpt lat="45.15735" lon="5.95888">
        <ele>2744</ele>
        <time>2019-01-20T11:34:26.000Z</time>
      </trkpt>
      <trkpt lat="45.15742" lon="5.95887">
        <ele>2744</ele>
        <time>2019-01-20T11:34:27.000Z</time>
      </trkpt>
      <trkpt lat="45.15744" lon="5.95888">
        <ele>2742</ele>
        <time>2019-01-20T11:34:28.000Z</time>
      </trkpt>
      <trkpt lat="45.15749" lon="5.95891">
        <ele>2737</ele>
        <time>2019-01-20T11:34:29.000Z</time>
      </trkpt>
      <trkpt lat="45.15756" lon="5.95896">
        <ele>2733</ele>
        <time>2019-01-20T11:34:30.000Z</time>
      </trkpt>
      <trkpt lat="45.15762" lon="5.95905">
        <ele>2729</ele>
        <time>2019-01-20T11:34:31.000Z</time>
      </trkpt>
      <trkpt lat="45.15762" lon="5.95919">
        <ele>2727</ele>
        <time>2019-01-20T11:34:32.000Z</time>
      </trkpt>
      <trkpt lat="45.15759" lon="5.95939">
        <ele>2727</ele>
        <time>2019-01-20T11:34:33.000Z</time>
      </trkpt>
      <trkpt lat="45.15758" lon="5.95946">
        <ele>2723.6</ele>
        <time>2019-01-20T11:34:34.000Z</time>
      </trkpt>
      <trkpt lat="45.15755" lon="5.9596">
        <ele>2721</ele>
        <time>2019-01-20T11:34:35.000Z</time>
      </trkpt>
      <trkpt lat="45.15751" lon="5.95969">
        <ele>2720</ele>
        <time>2019-01-20T11:34:36.000Z</time>
      </trkpt>
      <trkpt lat="45.15749" lon="5.95983">
        <ele>2720</ele>
        <time>2019-01-20T11:34:37.000Z</time>
      </trkpt>
      <trkpt lat="45.15748" lon="5.95989">
        <ele>2718</ele>
        <time>2019-01-20T11:34:38.000Z</time>
      </trkpt>
      <trkpt lat="45.15749" lon="5.96003">
        <ele>2717</ele>
        <time>2019-01-20T11:34:39.000Z</time>
      </trkpt>
      <trkpt lat="45.1575" lon="5.96018">
        <ele>2706</ele>
        <time>2019-01-20T11:34:40.000Z</time>
      </trkpt>
      <trkpt lat="45.15751" lon="5.96035">
        <ele>2702</ele>
        <time>2019-01-20T11:34:41.000Z</time>
      </trkpt>
      <trkpt lat="45.15754" lon="5.96052">
        <ele>2704</ele>
        <time>2019-01-20T11:34:42.000Z</time>
      </trkpt>
      <trkpt lat="45.15761" lon="5.96073">
        <ele>2704</ele>
        <time>2019-01-20T11:34:43.000Z</time>
      </trkpt>
      <trkpt lat="45.15765" lon="5.9608">
        <ele>2704.4</ele>
        <time>2019-01-20T11:34:44.000Z</time>
      </trkpt>
      <trkpt lat="45.15772" lon="5.96093">
        <ele>2705</ele>
        <time>2019-01-20T11:34:45.000Z</time>
      </trkpt>
      <trkpt lat="45.15779" lon="5.96104">
        <ele>2703</ele>
        <time>2019-01-20T11:34:46.000Z</time>
      </trkpt>
      <trkpt lat="45.15785" lon="5.96115">
        <ele>2699</ele>
        <time>2019-01-20T11:34:47.000Z</time>
      </trkpt>
      <trkpt lat="45.15792" lon="5.96131">
        <ele>2699</ele>
        <time>2019-01-20T11:34:48.000Z</time>
      </trkpt>
      <trkpt lat="45.15794" lon="5.96136">
        <ele>2698</ele>
        <time>2019-01-20T11:34:49.000Z</time>
      </trkpt>
      <trkpt lat="45.15798" lon="5.96146">
        <ele>2698</ele>
        <time>2019-01-20T11:34:50.000Z</time>
      </trkpt>
      <trkpt lat="45.15802" lon="5.96155">
        <ele>2697</ele>
        <time>2019-01-20T11:34:51.000Z</time>
      </trkpt>
      <trkpt lat="45.15806" lon="5.96164">
        <ele>2696</ele>
        <time>2019-01-20T11:34:52.000Z</time>
      </trkpt>
      <trkpt lat="45.15811" lon="5.96172">
        <ele>2695</ele>
        <time>2019-01-20T11:34:53.000Z</time>
      </trkpt>
      <trkpt lat="45.15814" lon="5.9618">
        <ele>2694</ele>
        <time>2019-01-20T11:34:54.000Z</time>
      </trkpt>
      <trkpt lat="45.15817" lon="5.96187">
        <ele>2694</ele>
        <time>2019-01-20T11:34:55.000Z</time>
      </trkpt>
      <trkpt lat="45.15818" lon="5.96191">
        <ele>2694</ele>
        <time>2019-01-20T11:34:56.000Z</time>
      </trkpt>
      <trkpt lat="45.15818" lon="5.96191">
        <ele>2693</ele>
        <time>2019-01-20T11:34:57.000Z</time>
      </trkpt>
      <trkpt lat="45.15818" lon="5.96191">
        <ele>2693</ele>
        <time>2019-01-20T11:34:58.000Z</time>
      </trkpt>
      <trkpt lat="45.15818" lon="5.96191">
        <ele>2693</ele>
        <time>2019-01-20T11:34:59.000Z</time>
      </trkpt>
      <trkpt lat="45.15818" lon="5.96191">
        <ele>2693</ele>
        <time>2019-01-20T11:35:00.000Z</time>
      </trkpt>
      <trkpt lat="45.15818" lon="5.96191">
        <ele>2693</ele>
        <time>2019-01-20T11:35:01.000Z</time>
      </trkpt>
      <trkpt lat="45.15818" lon="5.96191">
        <ele>2693</ele>
        <time>2019-01-20T11:35:02.000Z</time>
      </trkpt>
      <trkpt lat="45.15818" lon="5.96191">
        <ele>2693</ele>
        <time>2019-01-20T11:35:03.000Z</time>
      </trkpt>
      <trkpt lat="45.15819" lon="5.96193">
        <ele>2694</ele>
        <time>2019-01-20T11:35:04.000Z</time>
      </trkpt>
      <trkpt lat="45.15819" lon="5.96193">
        <ele>2694</ele>
        <time>2019-01-20T11:35:05.000Z</time>
      </trkpt>
      <trkpt lat="45.15819" lon="5.96193">
        <ele>2694</ele>
        <time>2019-01-20T11:35:06.000Z</time>
      </trkpt>
      <trkpt lat="45.15821" lon="5.96196">
        <ele>2694</ele>
        <time>2019-01-20T11:35:07.000Z</time>
      </trkpt>
      <trkpt lat="45.15821" lon="5.96196">
        <ele>2693</ele>
        <time>2019-01-20T11:35:08.000Z</time>
      </trkpt>
      <trkpt lat="45.15822" lon="5.96201">
        <ele>2693</ele>
        <time>2019-01-20T11:35:09.000Z</time>
      </trkpt>
      <trkpt lat="45.15822" lon="5.96203">
        <ele>2693</ele>
        <time>2019-01-20T11:35:10.000Z</time>
      </trkpt>
      <trkpt lat="45.15823" lon="5.96206">
        <ele>2693</ele>
        <time>2019-01-20T11:35:11.000Z</time>
      </trkpt>
      <trkpt lat="45.15823" lon="5.9621">
        <ele>2693</ele>
        <time>2019-01-20T11:35:12.000Z</time>
      </trkpt>
      <trkpt lat="45.15823" lon="5.9621">
        <ele>2693</ele>
        <time>2019-01-20T11:35:13.000Z</time>
      </trkpt>
      <trkpt lat="45.15823" lon="5.9621">
        <ele>2693</ele>
        <time>2019-01-20T11:35:14.000Z</time>
      </trkpt>
      <trkpt lat="45.15824" lon="5.96212">
        <ele>2693</ele>
        <time>2019-01-20T11:35:15.000Z</time>
      </trkpt>
      <trkpt lat="45.15824" lon="5.96212">
        <ele>2693</ele>
        <time>2019-01-20T11:35:16.000Z</time>
      </trkpt>
      <trkpt lat="45.15824" lon="5.96212">
        <ele>2693</ele>
        <time>2019-01-20T11:35:17.000Z</time>
      </trkpt>
      <trkpt lat="45.15824" lon="5.96212">
        <ele>2693</ele>
        <time>2019-01-20T11:35:18.000Z</time>
      </trkpt>
      <trkpt lat="45.15824" lon="5.96212">
        <ele>2693</ele>
        <time>2019-01-20T11:35:19.000Z</time>
      </trkpt>
      <trkpt lat="45.15824" lon="5.96215">
        <ele>2693</ele>
        <time>2019-01-20T11:35:20.000Z</time>
      </trkpt>
      <trkpt lat="45.15824" lon="5.96215">
        <ele>2694</ele>
        <time>2019-01-20T11:35:21.000Z</time>
      </trkpt>
      <trkpt lat="45.15824" lon="5.96215">
        <ele>2694</ele>
        <time>2019-01-20T11:35:22.000Z</time>
      </trkpt>
      <trkpt lat="45.15824" lon="5.96215">
        <ele>2694</ele>
        <time>2019-01-20T11:35:23.000Z</time>
      </trkpt>
      <trkpt lat="45.15824" lon="5.96215">
        <ele>2694</ele>
        <time>2019-01-20T11:35:24.000Z</time>
      </trkpt>
      <trkpt lat="45.15825" lon="5.96218">
        <ele>2694</ele>
        <time>2019-01-20T11:35:25.000Z</time>
      </trkpt>
      <trkpt lat="45.15825" lon="5.96218">
        <ele>2694</ele>
        <time>2019-01-20T11:35:26.000Z</time>
      </trkpt>
      <trkpt lat="45.15826" lon="5.96221">
        <ele>2694</ele>
        <time>2019-01-20T11:35:27.000Z</time>
      </trkpt>
      <trkpt lat="45.15827" lon="5.96224">
        <ele>2694</ele>
        <time>2019-01-20T11:35:28.000Z</time>
      </trkpt>
      <trkpt lat="45.15827" lon="5.96227">
        <ele>2694</ele>
        <time>2019-01-20T11:35:29.000Z</time>
      </trkpt>
      <trkpt lat="45.15827" lon="5.96227">
        <ele>2694</ele>
        <time>2019-01-20T11:35:30.000Z</time>
      </trkpt>
      <trkpt lat="45.15827" lon="5.96227">
        <ele>2694</ele>
        <time>2019-01-20T11:35:31.000Z</time>
      </trkpt>
      <trkpt lat="45.15828" lon="5.9623">
        <ele>2694</ele>
        <time>2019-01-20T11:35:32.000Z</time>
      </trkpt>
      <trkpt lat="45.15828" lon="5.9623">
        <ele>2694</ele>
        <time>2019-01-20T11:35:33.000Z</time>
      </trkpt>
      <trkpt lat="45.15828" lon="5.9623">
        <ele>2695</ele>
        <time>2019-01-20T11:35:35.000Z</time>
      </trkpt>
      <trkpt lat="45.15829" lon="5.96233">
        <ele>2695</ele>
        <time>2019-01-20T11:35:36.000Z</time>
      </trkpt>
      <trkpt lat="45.15829" lon="5.96233">
        <ele>2695</ele>
        <time>2019-01-20T11:35:37.000Z</time>
      </trkpt>
      <trkpt lat="45.15829" lon="5.96233">
        <ele>2695</ele>
        <time>2019-01-20T11:35:38.000Z</time>
      </trkpt>
      <trkpt lat="45.1583" lon="5.96236">
        <ele>2695</ele>
        <time>2019-01-20T11:35:39.000Z</time>
      </trkpt>
      <trkpt lat="45.1583" lon="5.96236">
        <ele>2695</ele>
        <time>2019-01-20T11:35:40.000Z</time>
      </trkpt>
      <trkpt lat="45.1583" lon="5.96236">
        <ele>2695</ele>
        <time>2019-01-20T11:35:41.000Z</time>
      </trkpt>
      <trkpt lat="45.1583" lon="5.96239">
        <ele>2695</ele>
        <time>2019-01-20T11:35:42.000Z</time>
      </trkpt>
      <trkpt lat="45.1583" lon="5.96239">
        <ele>2695</ele>
        <time>2019-01-20T11:35:43.000Z</time>
      </trkpt>
      <trkpt lat="45.1583" lon="5.96239">
        <ele>2695</ele>
        <time>2019-01-20T11:35:44.000Z</time>
      </trkpt>
      <trkpt lat="45.1583" lon="5.96243">
        <ele>2695</ele>
        <time>2019-01-20T11:35:45.000Z</time>
      </trkpt>
      <trkpt lat="45.1583" lon="5.96243">
        <ele>2695</ele>
        <time>2019-01-20T11:35:46.000Z</time>
      </trkpt>
      <trkpt lat="45.1583" lon="5.96243">
        <ele>2695</ele>
        <time>2019-01-20T11:35:47.000Z</time>
      </trkpt>
      <trkpt lat="45.15831" lon="5.96246">
        <ele>2695</ele>
        <time>2019-01-20T11:35:48.000Z</time>
      </trkpt>
      <trkpt lat="45.15831" lon="5.96246">
        <ele>2695</ele>
        <time>2019-01-20T11:35:49.000Z</time>
      </trkpt>
      <trkpt lat="45.15831" lon="5.96246">
        <ele>2695</ele>
        <time>2019-01-20T11:35:50.000Z</time>
      </trkpt>
      <trkpt lat="45.15831" lon="5.96249">
        <ele>2695</ele>
        <time>2019-01-20T11:35:51.000Z</time>
      </trkpt>
      <trkpt lat="45.15831" lon="5.96249">
        <ele>2695</ele>
        <time>2019-01-20T11:35:52.000Z</time>
      </trkpt>
      <trkpt lat="45.1583" lon="5.96253">
        <ele>2695</ele>
        <time>2019-01-20T11:35:54.000Z</time>
      </trkpt>
      <trkpt lat="45.1583" lon="5.96253">
        <ele>2695</ele>
        <time>2019-01-20T11:35:55.000Z</time>
      </trkpt>
      <trkpt lat="45.1583" lon="5.96255">
        <ele>2695</ele>
        <time>2019-01-20T11:35:56.000Z</time>
      </trkpt>
      <trkpt lat="45.1583" lon="5.96255">
        <ele>2695</ele>
        <time>2019-01-20T11:35:57.000Z</time>
      </trkpt>
      <trkpt lat="45.1583" lon="5.96255">
        <ele>2695</ele>
        <time>2019-01-20T11:35:58.000Z</time>
      </trkpt>
      <trkpt lat="45.1583" lon="5.96255">
        <ele>2695</ele>
        <time>2019-01-20T11:35:59.000Z</time>
      </trkpt>
      <trkpt lat="45.1583" lon="5.96255">
        <ele>2695</ele>
        <time>2019-01-20T11:36:00.000Z</time>
      </trkpt>
      <trkpt lat="45.1583" lon="5.96255">
        <ele>2695</ele>
        <time>2019-01-20T11:36:01.000Z</time>
      </trkpt>
      <trkpt lat="45.1583" lon="5.96255">
        <ele>2695</ele>
        <time>2019-01-20T11:36:02.000Z</time>
      </trkpt>
      <trkpt lat="45.1583" lon="5.96255">
        <ele>2695</ele>
        <time>2019-01-20T11:36:03.000Z</time>
      </trkpt>
      <trkpt lat="45.1583" lon="5.96255">
        <ele>2695</ele>
        <time>2019-01-20T11:36:04.000Z</time>
      </trkpt>
      <trkpt lat="45.1583" lon="5.96255">
        <ele>2695</ele>
        <time>2019-01-20T11:36:05.000Z</time>
      </trkpt>
      <trkpt lat="45.1583" lon="5.96255">
        <ele>2695</ele>
        <time>2019-01-20T11:36:06.000Z</time>
      </trkpt>
      <trkpt lat="45.1583" lon="5.96255">
        <ele>2695</ele>
        <time>2019-01-20T11:36:07.000Z</time>
      </trkpt>
      <trkpt lat="45.1583" lon="5.96255">
        <ele>2695</ele>
        <time>2019-01-20T11:36:08.000Z</time>
      </trkpt>
      <trkpt lat="45.1583" lon="5.96255">
        <ele>2695</ele>
        <time>2019-01-20T11:36:09.000Z</time>
      </trkpt>
      <trkpt lat="45.1583" lon="5.96255">
        <ele>2695</ele>
        <time>2019-01-20T11:36:10.000Z</time>
      </trkpt>
      <trkpt lat="45.1583" lon="5.96255">
        <ele>2695</ele>
        <time>2019-01-20T11:36:11.000Z</time>
      </trkpt>
      <trkpt lat="45.15829" lon="5.96258">
        <ele>2695</ele>
        <time>2019-01-20T11:36:12.000Z</time>
      </trkpt>
      <trkpt lat="45.15829" lon="5.96258">
        <ele>2695</ele>
        <time>2019-01-20T11:36:13.000Z</time>
      </trkpt>
      <trkpt lat="45.15829" lon="5.96258">
        <ele>2695</ele>
        <time>2019-01-20T11:36:14.000Z</time>
      </trkpt>
      <trkpt lat="45.15829" lon="5.96258">
        <ele>2695</ele>
        <time>2019-01-20T11:36:15.000Z</time>
      </trkpt>
      <trkpt lat="45.15829" lon="5.96258">
        <ele>2695</ele>
        <time>2019-01-20T11:36:16.000Z</time>
      </trkpt>
      <trkpt lat="45.15829" lon="5.96258">
        <ele>2695</ele>
        <time>2019-01-20T11:36:17.000Z</time>
      </trkpt>
      <trkpt lat="45.15829" lon="5.96258">
        <ele>2695</ele>
        <time>2019-01-20T11:36:18.000Z</time>
      </trkpt>
      <trkpt lat="45.15828" lon="5.96259">
        <ele>2694</ele>
        <time>2019-01-20T11:36:19.000Z</time>
      </trkpt>
      <trkpt lat="45.15828" lon="5.96259">
        <ele>2694</ele>
        <time>2019-01-20T11:36:20.000Z</time>
      </trkpt>
      <trkpt lat="45.15828" lon="5.96259">
        <ele>2694</ele>
        <time>2019-01-20T11:36:21.000Z</time>
      </trkpt>
      <trkpt lat="45.15828" lon="5.96259">
        <ele>2694</ele>
        <time>2019-01-20T11:36:22.000Z</time>
      </trkpt>
      <trkpt lat="45.15828" lon="5.96259">
        <ele>2694</ele>
        <time>2019-01-20T11:36:23.000Z</time>
      </trkpt>
      <trkpt lat="45.15828" lon="5.96259">
        <ele>2694</ele>
        <time>2019-01-20T11:36:24.000Z</time>
      </trkpt>
      <trkpt lat="45.15828" lon="5.96259">
        <ele>2694</ele>
        <time>2019-01-20T11:36:25.000Z</time>
      </trkpt>
      <trkpt lat="45.15828" lon="5.96259">
        <ele>2694</ele>
        <time>2019-01-20T11:36:26.000Z</time>
      </trkpt>
      <trkpt lat="45.15828" lon="5.96259">
        <ele>2694</ele>
        <time>2019-01-20T11:36:27.000Z</time>
      </trkpt>
      <trkpt lat="45.15828" lon="5.96259">
        <ele>2694</ele>
        <time>2019-01-20T11:36:28.000Z</time>
      </trkpt>
      <trkpt lat="45.15828" lon="5.96259">
        <ele>2694</ele>
        <time>2019-01-20T11:36:29.000Z</time>
      </trkpt>
      <trkpt lat="45.15828" lon="5.96259">
        <ele>2694</ele>
        <time>2019-01-20T11:36:30.000Z</time>
      </trkpt>
      <trkpt lat="45.15828" lon="5.96259">
        <ele>2694</ele>
        <time>2019-01-20T11:36:32.000Z</time>
      </trkpt>
      <trkpt lat="45.15828" lon="5.96259">
        <ele>2694</ele>
        <time>2019-01-20T11:36:33.000Z</time>
      </trkpt>
      <trkpt lat="45.15828" lon="5.96259">
        <ele>2694</ele>
        <time>2019-01-20T11:36:34.000Z</time>
      </trkpt>
      <trkpt lat="45.15828" lon="5.96259">
        <ele>2694</ele>
        <time>2019-01-20T11:36:35.000Z</time>
      </trkpt>
      <trkpt lat="45.15828" lon="5.96259">
        <ele>2694</ele>
        <time>2019-01-20T11:36:36.000Z</time>
      </trkpt>
      <trkpt lat="45.15828" lon="5.96259">
        <ele>2694</ele>
        <time>2019-01-20T11:36:37.000Z</time>
      </trkpt>
      <trkpt lat="45.15828" lon="5.96259">
        <ele>2694</ele>
        <time>2019-01-20T11:36:38.000Z</time>
      </trkpt>
      <trkpt lat="45.15827" lon="5.96262">
        <ele>2694</ele>
        <time>2019-01-20T11:36:39.000Z</time>
      </trkpt>
      <trkpt lat="45.15827" lon="5.96262">
        <ele>2693</ele>
        <time>2019-01-20T11:36:40.000Z</time>
      </trkpt>
      <trkpt lat="45.15827" lon="5.96262">
        <ele>2693</ele>
        <time>2019-01-20T11:36:41.000Z</time>
      </trkpt>
      <trkpt lat="45.15827" lon="5.96262">
        <ele>2693</ele>
        <time>2019-01-20T11:36:42.000Z</time>
      </trkpt>
      <trkpt lat="45.15827" lon="5.96262">
        <ele>2693</ele>
        <time>2019-01-20T11:36:43.000Z</time>
      </trkpt>
      <trkpt lat="45.15827" lon="5.96262">
        <ele>2693</ele>
        <time>2019-01-20T11:36:44.000Z</time>
      </trkpt>
      <trkpt lat="45.15827" lon="5.96262">
        <ele>2693</ele>
        <time>2019-01-20T11:36:45.000Z</time>
      </trkpt>
      <trkpt lat="45.15827" lon="5.96262">
        <ele>2693</ele>
        <time>2019-01-20T11:36:46.000Z</time>
      </trkpt>
      <trkpt lat="45.15827" lon="5.96262">
        <ele>2693</ele>
        <time>2019-01-20T11:36:47.000Z</time>
      </trkpt>
      <trkpt lat="45.15827" lon="5.96262">
        <ele>2693</ele>
        <time>2019-01-20T11:36:48.000Z</time>
      </trkpt>
      <trkpt lat="45.15827" lon="5.96262">
        <ele>2693</ele>
        <time>2019-01-20T11:36:49.000Z</time>
      </trkpt>
      <trkpt lat="45.15827" lon="5.96262">
        <ele>2693</ele>
        <time>2019-01-20T11:36:51.000Z</time>
      </trkpt>
      <trkpt lat="45.15827" lon="5.96262">
        <ele>2693</ele>
        <time>2019-01-20T11:36:52.000Z</time>
      </trkpt>
      <trkpt lat="45.15827" lon="5.96262">
        <ele>2693</ele>
        <time>2019-01-20T11:36:53.000Z</time>
      </trkpt>
      <trkpt lat="45.15827" lon="5.96262">
        <ele>2693</ele>
        <time>2019-01-20T11:36:54.000Z</time>
      </trkpt>
      <trkpt lat="45.15827" lon="5.96262">
        <ele>2693</ele>
        <time>2019-01-20T11:36:55.000Z</time>
      </trkpt>
      <trkpt lat="45.15827" lon="5.96262">
        <ele>2693</ele>
        <time>2019-01-20T11:36:56.000Z</time>
      </trkpt>
      <trkpt lat="45.15827" lon="5.96262">
        <ele>2693</ele>
        <time>2019-01-20T11:36:57.000Z</time>
      </trkpt>
      <trkpt lat="45.15827" lon="5.96262">
        <ele>2693</ele>
        <time>2019-01-20T11:36:58.000Z</time>
      </trkpt>
      <trkpt lat="45.15827" lon="5.96262">
        <ele>2692</ele>
        <time>2019-01-20T11:36:59.000Z</time>
      </trkpt>
      <trkpt lat="45.15827" lon="5.96262">
        <ele>2692</ele>
        <time>2019-01-20T11:37:00.000Z</time>
      </trkpt>
      <trkpt lat="45.15827" lon="5.96262">
        <ele>2692</ele>
        <time>2019-01-20T11:37:01.000Z</time>
      </trkpt>
      <trkpt lat="45.15827" lon="5.96262">
        <ele>2692</ele>
        <time>2019-01-20T11:37:02.000Z</time>
      </trkpt>
      <trkpt lat="45.15828" lon="5.96264">
        <ele>2692</ele>
        <time>2019-01-20T11:37:03.000Z</time>
      </trkpt>
      <trkpt lat="45.15828" lon="5.96264">
        <ele>2691</ele>
        <time>2019-01-20T11:37:04.000Z</time>
      </trkpt>
      <trkpt lat="45.15828" lon="5.96264">
        <ele>2691</ele>
        <time>2019-01-20T11:37:05.000Z</time>
      </trkpt>
      <trkpt lat="45.15828" lon="5.96264">
        <ele>2691</ele>
        <time>2019-01-20T11:37:06.000Z</time>
      </trkpt>
      <trkpt lat="45.15828" lon="5.96264">
        <ele>2691</ele>
        <time>2019-01-20T11:37:07.000Z</time>
      </trkpt>
      <trkpt lat="45.15828" lon="5.96264">
        <ele>2691</ele>
        <time>2019-01-20T11:37:08.000Z</time>
      </trkpt>
      <trkpt lat="45.15828" lon="5.96264">
        <ele>2691</ele>
        <time>2019-01-20T11:37:10.000Z</time>
      </trkpt>
      <trkpt lat="45.15828" lon="5.96264">
        <ele>2691</ele>
        <time>2019-01-20T11:37:11.000Z</time>
      </trkpt>
      <trkpt lat="45.15828" lon="5.96264">
        <ele>2691</ele>
        <time>2019-01-20T11:37:12.000Z</time>
      </trkpt>
      <trkpt lat="45.15828" lon="5.96264">
        <ele>2691</ele>
        <time>2019-01-20T11:37:13.000Z</time>
      </trkpt>
      <trkpt lat="45.15828" lon="5.96264">
        <ele>2691</ele>
        <time>2019-01-20T11:37:14.000Z</time>
      </trkpt>
      <trkpt lat="45.15828" lon="5.96264">
        <ele>2691</ele>
        <time>2019-01-20T11:37:15.000Z</time>
      </trkpt>
      <trkpt lat="45.15828" lon="5.96264">
        <ele>2691</ele>
        <time>2019-01-20T11:37:16.000Z</time>
      </trkpt>
      <trkpt lat="45.15828" lon="5.96264">
        <ele>2691</ele>
        <time>2019-01-20T11:37:17.000Z</time>
      </trkpt>
      <trkpt lat="45.15828" lon="5.96264">
        <ele>2691</ele>
        <time>2019-01-20T11:37:18.000Z</time>
      </trkpt>
      <trkpt lat="45.15828" lon="5.96264">
        <ele>2691</ele>
        <time>2019-01-20T11:37:19.000Z</time>
      </trkpt>
      <trkpt lat="45.15828" lon="5.96264">
        <ele>2691</ele>
        <time>2019-01-20T11:37:20.000Z</time>
      </trkpt>
      <trkpt lat="45.15828" lon="5.96264">
        <ele>2691</ele>
        <time>2019-01-20T11:37:21.000Z</time>
      </trkpt>
      <trkpt lat="45.15828" lon="5.96264">
        <ele>2691</ele>
        <time>2019-01-20T11:37:22.000Z</time>
      </trkpt>
      <trkpt lat="45.15828" lon="5.96264">
        <ele>2691</ele>
        <time>2019-01-20T11:37:23.000Z</time>
      </trkpt>
      <trkpt lat="45.15828" lon="5.96264">
        <ele>2691</ele>
        <time>2019-01-20T11:37:24.000Z</time>
      </trkpt>
      <trkpt lat="45.15828" lon="5.96264">
        <ele>2691</ele>
        <time>2019-01-20T11:37:25.000Z</time>
      </trkpt>
      <trkpt lat="45.15828" lon="5.96264">
        <ele>2690</ele>
        <time>2019-01-20T11:37:27.000Z</time>
      </trkpt>
      <trkpt lat="45.15829" lon="5.96266">
        <ele>2690</ele>
        <time>2019-01-20T11:37:28.000Z</time>
      </trkpt>
      <trkpt lat="45.15829" lon="5.96266">
        <ele>2690</ele>
        <time>2019-01-20T11:37:29.000Z</time>
      </trkpt>
      <trkpt lat="45.15829" lon="5.96266">
        <ele>2690</ele>
        <time>2019-01-20T11:37:30.000Z</time>
      </trkpt>
      <trkpt lat="45.15829" lon="5.96266">
        <ele>2690</ele>
        <time>2019-01-20T11:37:31.000Z</time>
      </trkpt>
      <trkpt lat="45.15829" lon="5.96266">
        <ele>2690</ele>
        <time>2019-01-20T11:37:32.000Z</time>
      </trkpt>
      <trkpt lat="45.15829" lon="5.96266">
        <ele>2690</ele>
        <time>2019-01-20T11:37:33.000Z</time>
      </trkpt>
      <trkpt lat="45.15829" lon="5.96266">
        <ele>2690</ele>
        <time>2019-01-20T11:37:34.000Z</time>
      </trkpt>
      <trkpt lat="45.15829" lon="5.96266">
        <ele>2688</ele>
        <time>2019-01-20T11:37:35.000Z</time>
      </trkpt>
      <trkpt lat="45.15829" lon="5.96266">
        <ele>2688</ele>
        <time>2019-01-20T11:37:36.000Z</time>
      </trkpt>
      <trkpt lat="45.15829" lon="5.96266">
        <ele>2688</ele>
        <time>2019-01-20T11:37:37.000Z</time>
      </trkpt>
      <trkpt lat="45.15831" lon="5.96266">
        <ele>2688</ele>
        <time>2019-01-20T11:37:38.000Z</time>
      </trkpt>
      <trkpt lat="45.15831" lon="5.96266">
        <ele>2688</ele>
        <time>2019-01-20T11:37:39.000Z</time>
      </trkpt>
      <trkpt lat="45.15833" lon="5.96268">
        <ele>2688</ele>
        <time>2019-01-20T11:37:40.000Z</time>
      </trkpt>
      <trkpt lat="45.15833" lon="5.96268">
        <ele>2687</ele>
        <time>2019-01-20T11:37:41.000Z</time>
      </trkpt>
      <trkpt lat="45.15834" lon="5.96271">
        <ele>2686</ele>
        <time>2019-01-20T11:37:42.000Z</time>
      </trkpt>
      <trkpt lat="45.15834" lon="5.96271">
        <ele>2685</ele>
        <time>2019-01-20T11:37:43.000Z</time>
      </trkpt>
      <trkpt lat="45.15834" lon="5.96271">
        <ele>2685</ele>
        <time>2019-01-20T11:37:44.000Z</time>
      </trkpt>
      <trkpt lat="45.15834" lon="5.96271">
        <ele>2685</ele>
        <time>2019-01-20T11:37:45.000Z</time>
      </trkpt>
      <trkpt lat="45.15834" lon="5.96271">
        <ele>2685</ele>
        <time>2019-01-20T11:37:46.000Z</time>
      </trkpt>
      <trkpt lat="45.15834" lon="5.96271">
        <ele>2685</ele>
        <time>2019-01-20T11:37:48.000Z</time>
      </trkpt>
      <trkpt lat="45.15834" lon="5.96271">
        <ele>2685</ele>
        <time>2019-01-20T11:37:49.000Z</time>
      </trkpt>
      <trkpt lat="45.15834" lon="5.96271">
        <ele>2685</ele>
        <time>2019-01-20T11:37:50.000Z</time>
      </trkpt>
      <trkpt lat="45.15834" lon="5.96271">
        <ele>2685</ele>
        <time>2019-01-20T11:37:51.000Z</time>
      </trkpt>
      <trkpt lat="45.15834" lon="5.96271">
        <ele>2685</ele>
        <time>2019-01-20T11:37:52.000Z</time>
      </trkpt>
      <trkpt lat="45.15834" lon="5.96271">
        <ele>2685</ele>
        <time>2019-01-20T11:37:53.000Z</time>
      </trkpt>
      <trkpt lat="45.15834" lon="5.96271">
        <ele>2685</ele>
        <time>2019-01-20T11:37:54.000Z</time>
      </trkpt>
      <trkpt lat="45.15834" lon="5.96271">
        <ele>2685</ele>
        <time>2019-01-20T11:37:55.000Z</time>
      </trkpt>
      <trkpt lat="45.15834" lon="5.96271">
        <ele>2685</ele>
        <time>2019-01-20T11:37:56.000Z</time>
      </trkpt>
      <trkpt lat="45.15834" lon="5.96271">
        <ele>2685</ele>
        <time>2019-01-20T11:37:57.000Z</time>
      </trkpt>
      <trkpt lat="45.15834" lon="5.96271">
        <ele>2685</ele>
        <time>2019-01-20T11:37:58.000Z</time>
      </trkpt>
      <trkpt lat="45.15834" lon="5.96271">
        <ele>2685</ele>
        <time>2019-01-20T11:37:59.000Z</time>
      </trkpt>
      <trkpt lat="45.15834" lon="5.96271">
        <ele>2685</ele>
        <time>2019-01-20T11:38:00.000Z</time>
      </trkpt>
      <trkpt lat="45.15834" lon="5.96271">
        <ele>2685</ele>
        <time>2019-01-20T11:38:01.000Z</time>
      </trkpt>
      <trkpt lat="45.15834" lon="5.96271">
        <ele>2685</ele>
        <time>2019-01-20T11:38:02.000Z</time>
      </trkpt>
      <trkpt lat="45.15834" lon="5.96271">
        <ele>2685</ele>
        <time>2019-01-20T11:38:03.000Z</time>
      </trkpt>
      <trkpt lat="45.15834" lon="5.96271">
        <ele>2685</ele>
        <time>2019-01-20T11:38:04.000Z</time>
      </trkpt>
      <trkpt lat="45.15834" lon="5.96271">
        <ele>2685</ele>
        <time>2019-01-20T11:38:05.000Z</time>
      </trkpt>
      <trkpt lat="45.15834" lon="5.96271">
        <ele>2685</ele>
        <time>2019-01-20T11:38:07.000Z</time>
      </trkpt>
      <trkpt lat="45.15834" lon="5.96271">
        <ele>2685</ele>
        <time>2019-01-20T11:38:08.000Z</time>
      </trkpt>
      <trkpt lat="45.15834" lon="5.96271">
        <ele>2685</ele>
        <time>2019-01-20T11:38:09.000Z</time>
      </trkpt>
      <trkpt lat="45.15834" lon="5.96271">
        <ele>2685</ele>
        <time>2019-01-20T11:38:10.000Z</time>
      </trkpt>
      <trkpt lat="45.15834" lon="5.96271">
        <ele>2686</ele>
        <time>2019-01-20T11:38:11.000Z</time>
      </trkpt>
      <trkpt lat="45.15834" lon="5.96271">
        <ele>2686</ele>
        <time>2019-01-20T11:38:12.000Z</time>
      </trkpt>
      <trkpt lat="45.15834" lon="5.96271">
        <ele>2686</ele>
        <time>2019-01-20T11:38:13.000Z</time>
      </trkpt>
      <trkpt lat="45.15834" lon="5.96271">
        <ele>2686</ele>
        <time>2019-01-20T11:38:14.000Z</time>
      </trkpt>
      <trkpt lat="45.15834" lon="5.96271">
        <ele>2686</ele>
        <time>2019-01-20T11:38:15.000Z</time>
      </trkpt>
      <trkpt lat="45.15834" lon="5.96271">
        <ele>2685</ele>
        <time>2019-01-20T11:38:16.000Z</time>
      </trkpt>
      <trkpt lat="45.15834" lon="5.96271">
        <ele>2685</ele>
        <time>2019-01-20T11:38:17.000Z</time>
      </trkpt>
      <trkpt lat="45.15834" lon="5.96271">
        <ele>2685</ele>
        <time>2019-01-20T11:38:18.000Z</time>
      </trkpt>
      <trkpt lat="45.15834" lon="5.96271">
        <ele>2685</ele>
        <time>2019-01-20T11:38:19.000Z</time>
      </trkpt>
      <trkpt lat="45.15834" lon="5.96271">
        <ele>2685</ele>
        <time>2019-01-20T11:38:20.000Z</time>
      </trkpt>
      <trkpt lat="45.15834" lon="5.96271">
        <ele>2686</ele>
        <time>2019-01-20T11:38:21.000Z</time>
      </trkpt>
      <trkpt lat="45.15834" lon="5.96271">
        <ele>2686</ele>
        <time>2019-01-20T11:38:22.000Z</time>
      </trkpt>
      <trkpt lat="45.15834" lon="5.96271">
        <ele>2686</ele>
        <time>2019-01-20T11:38:23.000Z</time>
      </trkpt>
      <trkpt lat="45.15834" lon="5.96271">
        <ele>2686</ele>
        <time>2019-01-20T11:38:24.000Z</time>
      </trkpt>
      <trkpt lat="45.15836" lon="5.96268">
        <ele>2686</ele>
        <time>2019-01-20T11:38:25.000Z</time>
      </trkpt>
      <trkpt lat="45.15836" lon="5.96268">
        <ele>2685</ele>
        <time>2019-01-20T11:38:26.000Z</time>
      </trkpt>
      <trkpt lat="45.15838" lon="5.96264">
        <ele>2685</ele>
        <time>2019-01-20T11:38:27.000Z</time>
      </trkpt>
      <trkpt lat="45.15838" lon="5.96264">
        <ele>2684</ele>
        <time>2019-01-20T11:38:28.000Z</time>
      </trkpt>
      <trkpt lat="45.1584" lon="5.96261">
        <ele>2683</ele>
        <time>2019-01-20T11:38:29.000Z</time>
      </trkpt>
      <trkpt lat="45.1584" lon="5.96261">
        <ele>2683</ele>
        <time>2019-01-20T11:38:30.000Z</time>
      </trkpt>
      <trkpt lat="45.1584" lon="5.96261">
        <ele>2683</ele>
        <time>2019-01-20T11:38:31.000Z</time>
      </trkpt>
      <trkpt lat="45.1584" lon="5.96261">
        <ele>2683</ele>
        <time>2019-01-20T11:38:32.000Z</time>
      </trkpt>
      <trkpt lat="45.1584" lon="5.96261">
        <ele>2682</ele>
        <time>2019-01-20T11:38:33.000Z</time>
      </trkpt>
      <trkpt lat="45.1584" lon="5.96261">
        <ele>2682</ele>
        <time>2019-01-20T11:38:34.000Z</time>
      </trkpt>
      <trkpt lat="45.1584" lon="5.96261">
        <ele>2682</ele>
        <time>2019-01-20T11:38:35.000Z</time>
      </trkpt>
      <trkpt lat="45.1584" lon="5.96261">
        <ele>2682</ele>
        <time>2019-01-20T11:38:36.000Z</time>
      </trkpt>
      <trkpt lat="45.1584" lon="5.96261">
        <ele>2682</ele>
        <time>2019-01-20T11:38:37.000Z</time>
      </trkpt>
      <trkpt lat="45.1584" lon="5.96261">
        <ele>2682</ele>
        <time>2019-01-20T11:38:38.000Z</time>
      </trkpt>
      <trkpt lat="45.1584" lon="5.96261">
        <ele>2682</ele>
        <time>2019-01-20T11:38:39.000Z</time>
      </trkpt>
      <trkpt lat="45.1584" lon="5.96261">
        <ele>2682</ele>
        <time>2019-01-20T11:38:40.000Z</time>
      </trkpt>
      <trkpt lat="45.1584" lon="5.96261">
        <ele>2682</ele>
        <time>2019-01-20T11:38:41.000Z</time>
      </trkpt>
      <trkpt lat="45.1584" lon="5.96257">
        <ele>2681</ele>
        <time>2019-01-20T11:38:42.000Z</time>
      </trkpt>
      <trkpt lat="45.1584" lon="5.96257">
        <ele>2680</ele>
        <time>2019-01-20T11:38:43.000Z</time>
      </trkpt>
      <trkpt lat="45.15842" lon="5.96255">
        <ele>2680</ele>
        <time>2019-01-20T11:38:44.000Z</time>
      </trkpt>
      <trkpt lat="45.15842" lon="5.96255">
        <ele>2679.6</ele>
        <time>2019-01-20T11:38:45.000Z</time>
      </trkpt>
      <trkpt lat="45.15842" lon="5.96255">
        <ele>2679</ele>
        <time>2019-01-20T11:38:46.000Z</time>
      </trkpt>
      <trkpt lat="45.15842" lon="5.96255">
        <ele>2679</ele>
        <time>2019-01-20T11:38:47.000Z</time>
      </trkpt>
      <trkpt lat="45.15843" lon="5.96253">
        <ele>2679</ele>
        <time>2019-01-20T11:38:48.000Z</time>
      </trkpt>
      <trkpt lat="45.15843" lon="5.96253">
        <ele>2679</ele>
        <time>2019-01-20T11:38:49.000Z</time>
      </trkpt>
      <trkpt lat="45.15843" lon="5.96253">
        <ele>2679</ele>
        <time>2019-01-20T11:38:50.000Z</time>
      </trkpt>
      <trkpt lat="45.15843" lon="5.96253">
        <ele>2679</ele>
        <time>2019-01-20T11:38:51.000Z</time>
      </trkpt>
      <trkpt lat="45.15843" lon="5.96253">
        <ele>2679</ele>
        <time>2019-01-20T11:38:52.000Z</time>
      </trkpt>
      <trkpt lat="45.15843" lon="5.96253">
        <ele>2678</ele>
        <time>2019-01-20T11:38:53.000Z</time>
      </trkpt>
      <trkpt lat="45.15843" lon="5.96253">
        <ele>2679</ele>
        <time>2019-01-20T11:38:54.000Z</time>
      </trkpt>
      <trkpt lat="45.15843" lon="5.96253">
        <ele>2679</ele>
        <time>2019-01-20T11:38:55.000Z</time>
      </trkpt>
      <trkpt lat="45.15843" lon="5.96253">
        <ele>2679</ele>
        <time>2019-01-20T11:38:56.000Z</time>
      </trkpt>
      <trkpt lat="45.15843" lon="5.96253">
        <ele>2679</ele>
        <time>2019-01-20T11:38:57.000Z</time>
      </trkpt>
      <trkpt lat="45.15844" lon="5.96255">
        <ele>2678</ele>
        <time>2019-01-20T11:38:58.000Z</time>
      </trkpt>
      <trkpt lat="45.15844" lon="5.96255">
        <ele>2676</ele>
        <time>2019-01-20T11:38:59.000Z</time>
      </trkpt>
      <trkpt lat="45.15844" lon="5.96255">
        <ele>2675</ele>
        <time>2019-01-20T11:39:00.000Z</time>
      </trkpt>
      <trkpt lat="45.15844" lon="5.96255">
        <ele>2674</ele>
        <time>2019-01-20T11:39:01.000Z</time>
      </trkpt>
      <trkpt lat="45.15844" lon="5.96255">
        <ele>2674</ele>
        <time>2019-01-20T11:39:02.000Z</time>
      </trkpt>
      <trkpt lat="45.15845" lon="5.96258">
        <ele>2674</ele>
        <time>2019-01-20T11:39:03.000Z</time>
      </trkpt>
      <trkpt lat="45.15845" lon="5.96258">
        <ele>2675</ele>
        <time>2019-01-20T11:39:04.000Z</time>
      </trkpt>
      <trkpt lat="45.15845" lon="5.96258">
        <ele>2675</ele>
        <time>2019-01-20T11:39:05.000Z</time>
      </trkpt>
      <trkpt lat="45.15845" lon="5.96258">
        <ele>2675</ele>
        <time>2019-01-20T11:39:06.000Z</time>
      </trkpt>
      <trkpt lat="45.15845" lon="5.96258">
        <ele>2675</ele>
        <time>2019-01-20T11:39:07.000Z</time>
      </trkpt>
      <trkpt lat="45.15845" lon="5.96258">
        <ele>2675</ele>
        <time>2019-01-20T11:39:08.000Z</time>
      </trkpt>
      <trkpt lat="45.15845" lon="5.96258">
        <ele>2675</ele>
        <time>2019-01-20T11:39:09.000Z</time>
      </trkpt>
      <trkpt lat="45.15845" lon="5.96258">
        <ele>2675</ele>
        <time>2019-01-20T11:39:10.000Z</time>
      </trkpt>
      <trkpt lat="45.15845" lon="5.96258">
        <ele>2674</ele>
        <time>2019-01-20T11:39:11.000Z</time>
      </trkpt>
      <trkpt lat="45.15845" lon="5.96258">
        <ele>2674</ele>
        <time>2019-01-20T11:39:12.000Z</time>
      </trkpt>
      <trkpt lat="45.15845" lon="5.96258">
        <ele>2674</ele>
        <time>2019-01-20T11:39:13.000Z</time>
      </trkpt>
      <trkpt lat="45.15845" lon="5.96258">
        <ele>2674</ele>
        <time>2019-01-20T11:39:14.000Z</time>
      </trkpt>
      <trkpt lat="45.15845" lon="5.96258">
        <ele>2674</ele>
        <time>2019-01-20T11:39:15.000Z</time>
      </trkpt>
      <trkpt lat="45.15845" lon="5.96258">
        <ele>2674</ele>
        <time>2019-01-20T11:39:16.000Z</time>
      </trkpt>
      <trkpt lat="45.15845" lon="5.96258">
        <ele>2674</ele>
        <time>2019-01-20T11:39:17.000Z</time>
      </trkpt>
      <trkpt lat="45.15845" lon="5.96258">
        <ele>2674</ele>
        <time>2019-01-20T11:39:18.000Z</time>
      </trkpt>
      <trkpt lat="45.15845" lon="5.96258">
        <ele>2674</ele>
        <time>2019-01-20T11:39:19.000Z</time>
      </trkpt>
      <trkpt lat="45.15845" lon="5.96258">
        <ele>2674</ele>
        <time>2019-01-20T11:39:20.000Z</time>
      </trkpt>
      <trkpt lat="45.15845" lon="5.96258">
        <ele>2674</ele>
        <time>2019-01-20T11:39:21.000Z</time>
      </trkpt>
      <trkpt lat="45.15845" lon="5.96258">
        <ele>2675</ele>
        <time>2019-01-20T11:39:23.000Z</time>
      </trkpt>
      <trkpt lat="45.15845" lon="5.96258">
        <ele>2675</ele>
        <time>2019-01-20T11:39:24.000Z</time>
      </trkpt>
      <trkpt lat="45.15845" lon="5.96258">
        <ele>2675</ele>
        <time>2019-01-20T11:39:25.000Z</time>
      </trkpt>
      <trkpt lat="45.15845" lon="5.96258">
        <ele>2675</ele>
        <time>2019-01-20T11:39:26.000Z</time>
      </trkpt>
      <trkpt lat="45.15845" lon="5.96258">
        <ele>2675</ele>
        <time>2019-01-20T11:39:27.000Z</time>
      </trkpt>
      <trkpt lat="45.15845" lon="5.96258">
        <ele>2675</ele>
        <time>2019-01-20T11:39:28.000Z</time>
      </trkpt>
      <trkpt lat="45.15845" lon="5.96258">
        <ele>2675</ele>
        <time>2019-01-20T11:39:29.000Z</time>
      </trkpt>
      <trkpt lat="45.15845" lon="5.96258">
        <ele>2675</ele>
        <time>2019-01-20T11:39:30.000Z</time>
      </trkpt>
      <trkpt lat="45.15845" lon="5.96258">
        <ele>2675</ele>
        <time>2019-01-20T11:39:31.000Z</time>
      </trkpt>
      <trkpt lat="45.15845" lon="5.96258">
        <ele>2675</ele>
        <time>2019-01-20T11:39:32.000Z</time>
      </trkpt>
      <trkpt lat="45.15845" lon="5.96258">
        <ele>2675</ele>
        <time>2019-01-20T11:39:33.000Z</time>
      </trkpt>
      <trkpt lat="45.15845" lon="5.96258">
        <ele>2675</ele>
        <time>2019-01-20T11:39:34.000Z</time>
      </trkpt>
      <trkpt lat="45.15845" lon="5.96258">
        <ele>2675</ele>
        <time>2019-01-20T11:39:35.000Z</time>
      </trkpt>
      <trkpt lat="45.15845" lon="5.96258">
        <ele>2675</ele>
        <time>2019-01-20T11:39:36.000Z</time>
      </trkpt>
      <trkpt lat="45.15845" lon="5.96258">
        <ele>2675</ele>
        <time>2019-01-20T11:39:37.000Z</time>
      </trkpt>
      <trkpt lat="45.15845" lon="5.96258">
        <ele>2675</ele>
        <time>2019-01-20T11:39:38.000Z</time>
      </trkpt>
      <trkpt lat="45.15845" lon="5.96258">
        <ele>2675</ele>
        <time>2019-01-20T11:39:39.000Z</time>
      </trkpt>
      <trkpt lat="45.15845" lon="5.96258">
        <ele>2675</ele>
        <time>2019-01-20T11:39:40.000Z</time>
      </trkpt>
      <trkpt lat="45.15845" lon="5.96258">
        <ele>2675</ele>
        <time>2019-01-20T11:39:42.000Z</time>
      </trkpt>
      <trkpt lat="45.15845" lon="5.96258">
        <ele>2675</ele>
        <time>2019-01-20T11:39:43.000Z</time>
      </trkpt>
      <trkpt lat="45.15845" lon="5.96258">
        <ele>2675</ele>
        <time>2019-01-20T11:39:44.000Z</time>
      </trkpt>
      <trkpt lat="45.15845" lon="5.96258">
        <ele>2675</ele>
        <time>2019-01-20T11:39:45.000Z</time>
      </trkpt>
      <trkpt lat="45.15845" lon="5.96258">
        <ele>2675</ele>
        <time>2019-01-20T11:39:46.000Z</time>
      </trkpt>
      <trkpt lat="45.15845" lon="5.96258">
        <ele>2674</ele>
        <time>2019-01-20T11:39:47.000Z</time>
      </trkpt>
      <trkpt lat="45.15845" lon="5.96258">
        <ele>2675</ele>
        <time>2019-01-20T11:39:48.000Z</time>
      </trkpt>
      <trkpt lat="45.15845" lon="5.96258">
        <ele>2675</ele>
        <time>2019-01-20T11:39:49.000Z</time>
      </trkpt>
      <trkpt lat="45.15845" lon="5.96258">
        <ele>2675</ele>
        <time>2019-01-20T11:39:50.000Z</time>
      </trkpt>
      <trkpt lat="45.15845" lon="5.96258">
        <ele>2675</ele>
        <time>2019-01-20T11:39:51.000Z</time>
      </trkpt>
      <trkpt lat="45.15845" lon="5.96258">
        <ele>2675</ele>
        <time>2019-01-20T11:39:52.000Z</time>
      </trkpt>
      <trkpt lat="45.15845" lon="5.96258">
        <ele>2675</ele>
        <time>2019-01-20T11:39:53.000Z</time>
      </trkpt>
      <trkpt lat="45.15845" lon="5.96258">
        <ele>2675</ele>
        <time>2019-01-20T11:39:54.000Z</time>
      </trkpt>
      <trkpt lat="45.15845" lon="5.96258">
        <ele>2675</ele>
        <time>2019-01-20T11:39:55.000Z</time>
      </trkpt>
      <trkpt lat="45.15845" lon="5.96258">
        <ele>2675</ele>
        <time>2019-01-20T11:39:56.000Z</time>
      </trkpt>
      <trkpt lat="45.15845" lon="5.96258">
        <ele>2675</ele>
        <time>2019-01-20T11:39:57.000Z</time>
      </trkpt>
      <trkpt lat="45.15845" lon="5.96258">
        <ele>2675</ele>
        <time>2019-01-20T11:39:58.000Z</time>
      </trkpt>
      <trkpt lat="45.15845" lon="5.96258">
        <ele>2675</ele>
        <time>2019-01-20T11:39:59.000Z</time>
      </trkpt>
      <trkpt lat="45.15845" lon="5.96258">
        <ele>2675</ele>
        <time>2019-01-20T11:40:01.000Z</time>
      </trkpt>
      <trkpt lat="45.15845" lon="5.96258">
        <ele>2675</ele>
        <time>2019-01-20T11:40:02.000Z</time>
      </trkpt>
      <trkpt lat="45.15845" lon="5.96258">
        <ele>2675</ele>
        <time>2019-01-20T11:40:03.000Z</time>
      </trkpt>
      <trkpt lat="45.15845" lon="5.96258">
        <ele>2675</ele>
        <time>2019-01-20T11:40:04.000Z</time>
      </trkpt>
      <trkpt lat="45.15845" lon="5.96258">
        <ele>2675</ele>
        <time>2019-01-20T11:40:05.000Z</time>
      </trkpt>
      <trkpt lat="45.15845" lon="5.96258">
        <ele>2675</ele>
        <time>2019-01-20T11:40:06.000Z</time>
      </trkpt>
      <trkpt lat="45.15845" lon="5.96258">
        <ele>2675</ele>
        <time>2019-01-20T11:40:07.000Z</time>
      </trkpt>
      <trkpt lat="45.15845" lon="5.96258">
        <ele>2674</ele>
        <time>2019-01-20T11:40:08.000Z</time>
      </trkpt>
      <trkpt lat="45.15845" lon="5.96258">
        <ele>2674</ele>
        <time>2019-01-20T11:40:09.000Z</time>
      </trkpt>
      <trkpt lat="45.15845" lon="5.96258">
        <ele>2674</ele>
        <time>2019-01-20T11:40:10.000Z</time>
      </trkpt>
      <trkpt lat="45.15845" lon="5.96258">
        <ele>2674</ele>
        <time>2019-01-20T11:40:11.000Z</time>
      </trkpt>
      <trkpt lat="45.15845" lon="5.96258">
        <ele>2674</ele>
        <time>2019-01-20T11:40:12.000Z</time>
      </trkpt>
      <trkpt lat="45.15845" lon="5.96258">
        <ele>2674</ele>
        <time>2019-01-20T11:40:13.000Z</time>
      </trkpt>
      <trkpt lat="45.15845" lon="5.96258">
        <ele>2674</ele>
        <time>2019-01-20T11:40:14.000Z</time>
      </trkpt>
      <trkpt lat="45.15845" lon="5.96258">
        <ele>2674</ele>
        <time>2019-01-20T11:40:15.000Z</time>
      </trkpt>
      <trkpt lat="45.15845" lon="5.96258">
        <ele>2674</ele>
        <time>2019-01-20T11:40:16.000Z</time>
      </trkpt>
      <trkpt lat="45.15845" lon="5.96258">
        <ele>2674</ele>
        <time>2019-01-20T11:40:17.000Z</time>
      </trkpt>
      <trkpt lat="45.15845" lon="5.96258">
        <ele>2674</ele>
        <time>2019-01-20T11:40:18.000Z</time>
      </trkpt>
      <trkpt lat="45.15845" lon="5.96258">
        <ele>2674</ele>
        <time>2019-01-20T11:40:20.000Z</time>
      </trkpt>
      <trkpt lat="45.15845" lon="5.96258">
        <ele>2674</ele>
        <time>2019-01-20T11:40:21.000Z</time>
      </trkpt>
      <trkpt lat="45.15845" lon="5.96258">
        <ele>2674</ele>
        <time>2019-01-20T11:40:22.000Z</time>
      </trkpt>
      <trkpt lat="45.15845" lon="5.96258">
        <ele>2674</ele>
        <time>2019-01-20T11:40:23.000Z</time>
      </trkpt>
      <trkpt lat="45.15845" lon="5.96258">
        <ele>2674</ele>
        <time>2019-01-20T11:40:24.000Z</time>
      </trkpt>
      <trkpt lat="45.15845" lon="5.96258">
        <ele>2674</ele>
        <time>2019-01-20T11:40:25.000Z</time>
      </trkpt>
      <trkpt lat="45.15845" lon="5.96258">
        <ele>2674</ele>
        <time>2019-01-20T11:40:26.000Z</time>
      </trkpt>
      <trkpt lat="45.15845" lon="5.96258">
        <ele>2674</ele>
        <time>2019-01-20T11:40:27.000Z</time>
      </trkpt>
      <trkpt lat="45.15845" lon="5.96258">
        <ele>2674</ele>
        <time>2019-01-20T11:40:28.000Z</time>
      </trkpt>
      <trkpt lat="45.15845" lon="5.96258">
        <ele>2674</ele>
        <time>2019-01-20T11:40:29.000Z</time>
      </trkpt>
      <trkpt lat="45.15845" lon="5.96258">
        <ele>2674</ele>
        <time>2019-01-20T11:40:30.000Z</time>
      </trkpt>
      <trkpt lat="45.15845" lon="5.96258">
        <ele>2674</ele>
        <time>2019-01-20T11:40:31.000Z</time>
      </trkpt>
      <trkpt lat="45.15845" lon="5.96258">
        <ele>2674</ele>
        <time>2019-01-20T11:40:32.000Z</time>
      </trkpt>
      <trkpt lat="45.15845" lon="5.96258">
        <ele>2674</ele>
        <time>2019-01-20T11:40:33.000Z</time>
      </trkpt>
      <trkpt lat="45.15846" lon="5.9626">
        <ele>2674</ele>
        <time>2019-01-20T11:40:34.000Z</time>
      </trkpt>
      <trkpt lat="45.15846" lon="5.9626">
        <ele>2674</ele>
        <time>2019-01-20T11:40:35.000Z</time>
      </trkpt>
      <trkpt lat="45.15847" lon="5.96265">
        <ele>2674</ele>
        <time>2019-01-20T11:40:36.000Z</time>
      </trkpt>
      <trkpt lat="45.15847" lon="5.96265">
        <ele>2674</ele>
        <time>2019-01-20T11:40:37.000Z</time>
      </trkpt>
      <trkpt lat="45.15847" lon="5.96268">
        <ele>2674</ele>
        <time>2019-01-20T11:40:38.000Z</time>
      </trkpt>
      <trkpt lat="45.15847" lon="5.96268">
        <ele>2673</ele>
        <time>2019-01-20T11:40:39.000Z</time>
      </trkpt>
      <trkpt lat="45.15847" lon="5.96273">
        <ele>2673</ele>
        <time>2019-01-20T11:40:40.000Z</time>
      </trkpt>
      <trkpt lat="45.15847" lon="5.96273">
        <ele>2673</ele>
        <time>2019-01-20T11:40:41.000Z</time>
      </trkpt>
      <trkpt lat="45.15848" lon="5.96278">
        <ele>2672</ele>
        <time>2019-01-20T11:40:42.000Z</time>
      </trkpt>
      <trkpt lat="45.15848" lon="5.96278">
        <ele>2671</ele>
        <time>2019-01-20T11:40:43.000Z</time>
      </trkpt>
      <trkpt lat="45.1585" lon="5.9628">
        <ele>2671</ele>
        <time>2019-01-20T11:40:44.000Z</time>
      </trkpt>
      <trkpt lat="45.15854" lon="5.96279">
        <ele>2671</ele>
        <time>2019-01-20T11:40:45.000Z</time>
      </trkpt>
      <trkpt lat="45.15855" lon="5.96278">
        <ele>2668</ele>
        <time>2019-01-20T11:40:46.000Z</time>
      </trkpt>
      <trkpt lat="45.15858" lon="5.96277">
        <ele>2663</ele>
        <time>2019-01-20T11:40:47.000Z</time>
      </trkpt>
      <trkpt lat="45.15863" lon="5.96274">
        <ele>2660</ele>
        <time>2019-01-20T11:40:48.000Z</time>
      </trkpt>
      <trkpt lat="45.15865" lon="5.96274">
        <ele>2658</ele>
        <time>2019-01-20T11:40:49.000Z</time>
      </trkpt>
      <trkpt lat="45.15865" lon="5.96274">
        <ele>2655</ele>
        <time>2019-01-20T11:40:50.000Z</time>
      </trkpt>
      <trkpt lat="45.15873" lon="5.9627">
        <ele>2651</ele>
        <time>2019-01-20T11:40:51.000Z</time>
      </trkpt>
      <trkpt lat="45.15876" lon="5.96268">
        <ele>2648</ele>
        <time>2019-01-20T11:40:52.000Z</time>
      </trkpt>
      <trkpt lat="45.15879" lon="5.96265">
        <ele>2645</ele>
        <time>2019-01-20T11:40:53.000Z</time>
      </trkpt>
      <trkpt lat="45.15885" lon="5.96262">
        <ele>2643</ele>
        <time>2019-01-20T11:40:54.000Z</time>
      </trkpt>
      <trkpt lat="45.15886" lon="5.96261">
        <ele>2639</ele>
        <time>2019-01-20T11:40:55.000Z</time>
      </trkpt>
      <trkpt lat="45.15895" lon="5.96259">
        <ele>2636</ele>
        <time>2019-01-20T11:40:56.000Z</time>
      </trkpt>
      <trkpt lat="45.15902" lon="5.96258">
        <ele>2636</ele>
        <time>2019-01-20T11:40:57.000Z</time>
      </trkpt>
      <trkpt lat="45.15908" lon="5.96256">
        <ele>2631</ele>
        <time>2019-01-20T11:40:58.000Z</time>
      </trkpt>
      <trkpt lat="45.15915" lon="5.96253">
        <ele>2629</ele>
        <time>2019-01-20T11:40:59.000Z</time>
      </trkpt>
      <trkpt lat="45.15919" lon="5.96252">
        <ele>2624</ele>
        <time>2019-01-20T11:41:00.000Z</time>
      </trkpt>
      <trkpt lat="45.15922" lon="5.96252">
        <ele>2620</ele>
        <time>2019-01-20T11:41:01.000Z</time>
      </trkpt>
      <trkpt lat="45.15938" lon="5.96248">
        <ele>2617</ele>
        <time>2019-01-20T11:41:02.000Z</time>
      </trkpt>
      <trkpt lat="45.15947" lon="5.96246">
        <ele>2617</ele>
        <time>2019-01-20T11:41:03.000Z</time>
      </trkpt>
      <trkpt lat="45.15955" lon="5.96245">
        <ele>2612</ele>
        <time>2019-01-20T11:41:04.000Z</time>
      </trkpt>
      <trkpt lat="45.15964" lon="5.96243">
        <ele>2605.6</ele>
        <time>2019-01-20T11:41:05.000Z</time>
      </trkpt>
      <trkpt lat="45.15974" lon="5.96242">
        <ele>2599</ele>
        <time>2019-01-20T11:41:06.000Z</time>
      </trkpt>
      <trkpt lat="45.15989" lon="5.96238">
        <ele>2599</ele>
        <time>2019-01-20T11:41:07.000Z</time>
      </trkpt>
      <trkpt lat="45.15994" lon="5.96238">
        <ele>2593</ele>
        <time>2019-01-20T11:41:08.000Z</time>
      </trkpt>
      <trkpt lat="45.16004" lon="5.96237">
        <ele>2587</ele>
        <time>2019-01-20T11:41:09.000Z</time>
      </trkpt>
      <trkpt lat="45.16014" lon="5.96237">
        <ele>2584</ele>
        <time>2019-01-20T11:41:10.000Z</time>
      </trkpt>
      <trkpt lat="45.1603" lon="5.96237">
        <ele>2579</ele>
        <time>2019-01-20T11:41:11.000Z</time>
      </trkpt>
      <trkpt lat="45.16036" lon="5.96237">
        <ele>2579</ele>
        <time>2019-01-20T11:41:12.000Z</time>
      </trkpt>
      <trkpt lat="45.16043" lon="5.96238">
        <ele>2575.6</ele>
        <time>2019-01-20T11:41:13.000Z</time>
      </trkpt>
      <trkpt lat="45.16052" lon="5.96238">
        <ele>2570</ele>
        <time>2019-01-20T11:41:14.000Z</time>
      </trkpt>
      <trkpt lat="45.16054" lon="5.96237">
        <ele>2566</ele>
        <time>2019-01-20T11:41:15.000Z</time>
      </trkpt>
      <trkpt lat="45.16055" lon="5.96237">
        <ele>2566</ele>
        <time>2019-01-20T11:41:16.000Z</time>
      </trkpt>
      <trkpt lat="45.16057" lon="5.96236">
        <ele>2561.6</ele>
        <time>2019-01-20T11:41:17.000Z</time>
      </trkpt>
      <trkpt lat="45.16059" lon="5.96236">
        <ele>2560</ele>
        <time>2019-01-20T11:41:18.000Z</time>
      </trkpt>
      <trkpt lat="45.16061" lon="5.96235">
        <ele>2560</ele>
        <time>2019-01-20T11:41:19.000Z</time>
      </trkpt>
      <trkpt lat="45.16062" lon="5.96234">
        <ele>2560</ele>
        <time>2019-01-20T11:41:20.000Z</time>
      </trkpt>
      <trkpt lat="45.16064" lon="5.96234">
        <ele>2560</ele>
        <time>2019-01-20T11:41:21.000Z</time>
      </trkpt>
      <trkpt lat="45.16066" lon="5.96233">
        <ele>2560</ele>
        <time>2019-01-20T11:41:22.000Z</time>
      </trkpt>
      <trkpt lat="45.16068" lon="5.96233">
        <ele>2560</ele>
        <time>2019-01-20T11:41:23.000Z</time>
      </trkpt>
      <trkpt lat="45.16067" lon="5.96233">
        <ele>2560</ele>
        <time>2019-01-20T11:41:24.000Z</time>
      </trkpt>
      <trkpt lat="45.16067" lon="5.96233">
        <ele>2560</ele>
        <time>2019-01-20T11:41:25.000Z</time>
      </trkpt>
      <trkpt lat="45.16066" lon="5.96232">
        <ele>2560</ele>
        <time>2019-01-20T11:41:26.000Z</time>
      </trkpt>
      <trkpt lat="45.16066" lon="5.96232">
        <ele>2560</ele>
        <time>2019-01-20T11:41:27.000Z</time>
      </trkpt>
      <trkpt lat="45.16065" lon="5.96232">
        <ele>2560</ele>
        <time>2019-01-20T11:41:28.000Z</time>
      </trkpt>
      <trkpt lat="45.16065" lon="5.96232">
        <ele>2560</ele>
        <time>2019-01-20T11:41:29.000Z</time>
      </trkpt>
      <trkpt lat="45.16065" lon="5.96232">
        <ele>2560</ele>
        <time>2019-01-20T11:41:30.000Z</time>
      </trkpt>
      <trkpt lat="45.16064" lon="5.96232">
        <ele>2560</ele>
        <time>2019-01-20T11:41:31.000Z</time>
      </trkpt>
      <trkpt lat="45.16064" lon="5.96232">
        <ele>2560</ele>
        <time>2019-01-20T11:41:32.000Z</time>
      </trkpt>
      <trkpt lat="45.16063" lon="5.96232">
        <ele>2560</ele>
        <time>2019-01-20T11:41:33.000Z</time>
      </trkpt>
      <trkpt lat="45.16063" lon="5.96232">
        <ele>2560</ele>
        <time>2019-01-20T11:41:34.000Z</time>
      </trkpt>
      <trkpt lat="45.16062" lon="5.96231">
        <ele>2560</ele>
        <time>2019-01-20T11:41:36.000Z</time>
      </trkpt>
      <trkpt lat="45.16062" lon="5.96231">
        <ele>2560</ele>
        <time>2019-01-20T11:41:37.000Z</time>
      </trkpt>
      <trkpt lat="45.16061" lon="5.96231">
        <ele>2560</ele>
        <time>2019-01-20T11:41:38.000Z</time>
      </trkpt>
      <trkpt lat="45.16061" lon="5.96231">
        <ele>2560</ele>
        <time>2019-01-20T11:41:39.000Z</time>
      </trkpt>
      <trkpt lat="45.16061" lon="5.96231">
        <ele>2560</ele>
        <time>2019-01-20T11:41:40.000Z</time>
      </trkpt>
      <trkpt lat="45.1606" lon="5.96231">
        <ele>2560</ele>
        <time>2019-01-20T11:41:41.000Z</time>
      </trkpt>
      <trkpt lat="45.1606" lon="5.96231">
        <ele>2560</ele>
        <time>2019-01-20T11:41:42.000Z</time>
      </trkpt>
      <trkpt lat="45.16059" lon="5.96231">
        <ele>2560</ele>
        <time>2019-01-20T11:41:43.000Z</time>
      </trkpt>
      <trkpt lat="45.16059" lon="5.96231">
        <ele>2560</ele>
        <time>2019-01-20T11:41:44.000Z</time>
      </trkpt>
      <trkpt lat="45.16057" lon="5.96231">
        <ele>2560</ele>
        <time>2019-01-20T11:41:45.000Z</time>
      </trkpt>
      <trkpt lat="45.16054" lon="5.96231">
        <ele>2560</ele>
        <time>2019-01-20T11:41:46.000Z</time>
      </trkpt>
      <trkpt lat="45.16052" lon="5.96231">
        <ele>2560</ele>
        <time>2019-01-20T11:41:47.000Z</time>
      </trkpt>
      <trkpt lat="45.1605" lon="5.96232">
        <ele>2560</ele>
        <time>2019-01-20T11:41:48.000Z</time>
      </trkpt>
      <trkpt lat="45.16048" lon="5.96232">
        <ele>2559</ele>
        <time>2019-01-20T11:41:49.000Z</time>
      </trkpt>
      <trkpt lat="45.16047" lon="5.9623">
        <ele>2559</ele>
        <time>2019-01-20T11:41:50.000Z</time>
      </trkpt>
      <trkpt lat="45.16047" lon="5.96229">
        <ele>2558</ele>
        <time>2019-01-20T11:41:51.000Z</time>
      </trkpt>
      <trkpt lat="45.16046" lon="5.96228">
        <ele>2555</ele>
        <time>2019-01-20T11:41:52.000Z</time>
      </trkpt>
      <trkpt lat="45.16046" lon="5.96226">
        <ele>2553</ele>
        <time>2019-01-20T11:41:53.000Z</time>
      </trkpt>
      <trkpt lat="45.16046" lon="5.96225">
        <ele>2551</ele>
        <time>2019-01-20T11:41:55.000Z</time>
      </trkpt>
      <trkpt lat="45.16045" lon="5.96223">
        <ele>2549</ele>
        <time>2019-01-20T11:41:56.000Z</time>
      </trkpt>
      <trkpt lat="45.1605" lon="5.96228">
        <ele>2542</ele>
        <time>2019-01-20T11:41:57.000Z</time>
      </trkpt>
      <trkpt lat="45.1605" lon="5.96228">
        <ele>2538</ele>
        <time>2019-01-20T11:41:58.000Z</time>
      </trkpt>
      <trkpt lat="45.1606" lon="5.96226">
        <ele>2535</ele>
        <time>2019-01-20T11:41:59.000Z</time>
      </trkpt>
      <trkpt lat="45.16075" lon="5.96226">
        <ele>2533</ele>
        <time>2019-01-20T11:42:00.000Z</time>
      </trkpt>
      <trkpt lat="45.16081" lon="5.96227">
        <ele>2533</ele>
        <time>2019-01-20T11:42:01.000Z</time>
      </trkpt>
      <trkpt lat="45.16087" lon="5.96228">
        <ele>2527</ele>
        <time>2019-01-20T11:42:02.000Z</time>
      </trkpt>
      <trkpt lat="45.16096" lon="5.9623">
        <ele>2521</ele>
        <time>2019-01-20T11:42:03.000Z</time>
      </trkpt>
      <trkpt lat="45.16106" lon="5.9623">
        <ele>2516</ele>
        <time>2019-01-20T11:42:04.000Z</time>
      </trkpt>
      <trkpt lat="45.16126" lon="5.96231">
        <ele>2516</ele>
        <time>2019-01-20T11:42:05.000Z</time>
      </trkpt>
      <trkpt lat="45.16133" lon="5.96232">
        <ele>2510</ele>
        <time>2019-01-20T11:42:06.000Z</time>
      </trkpt>
      <trkpt lat="45.16159" lon="5.96225">
        <ele>2510</ele>
        <time>2019-01-20T11:42:07.000Z</time>
      </trkpt>
      <trkpt lat="45.16172" lon="5.96217">
        <ele>2500</ele>
        <time>2019-01-20T11:42:08.000Z</time>
      </trkpt>
      <trkpt lat="45.16197" lon="5.96202">
        <ele>2492</ele>
        <time>2019-01-20T11:42:09.000Z</time>
      </trkpt>
      <trkpt lat="45.16223" lon="5.96199">
        <ele>2492</ele>
        <time>2019-01-20T11:42:10.000Z</time>
      </trkpt>
      <trkpt lat="45.1623" lon="5.96197">
        <ele>2486.4</ele>
        <time>2019-01-20T11:42:11.000Z</time>
      </trkpt>
      <trkpt lat="45.16245" lon="5.96192">
        <ele>2479</ele>
        <time>2019-01-20T11:42:12.000Z</time>
      </trkpt>
      <trkpt lat="45.16264" lon="5.96188">
        <ele>2479</ele>
        <time>2019-01-20T11:42:13.000Z</time>
      </trkpt>
      <trkpt lat="45.1627" lon="5.96188">
        <ele>2475</ele>
        <time>2019-01-20T11:42:14.000Z</time>
      </trkpt>
      <trkpt lat="45.1628" lon="5.96186">
        <ele>2472</ele>
        <time>2019-01-20T11:42:15.000Z</time>
      </trkpt>
      <trkpt lat="45.1629" lon="5.96184">
        <ele>2464</ele>
        <time>2019-01-20T11:42:16.000Z</time>
      </trkpt>
      <trkpt lat="45.16302" lon="5.96181">
        <ele>2460</ele>
        <time>2019-01-20T11:42:17.000Z</time>
      </trkpt>
      <trkpt lat="45.16305" lon="5.96181">
        <ele>2458</ele>
        <time>2019-01-20T11:42:18.000Z</time>
      </trkpt>
      <trkpt lat="45.16317" lon="5.96178">
        <ele>2455</ele>
        <time>2019-01-20T11:42:19.000Z</time>
      </trkpt>
      <trkpt lat="45.16324" lon="5.96177">
        <ele>2455</ele>
        <time>2019-01-20T11:42:20.000Z</time>
      </trkpt>
      <trkpt lat="45.16332" lon="5.96175">
        <ele>2448</ele>
        <time>2019-01-20T11:42:21.000Z</time>
      </trkpt>
      <trkpt lat="45.16341" lon="5.96174">
        <ele>2443</ele>
        <time>2019-01-20T11:42:22.000Z</time>
      </trkpt>
      <trkpt lat="45.16345" lon="5.96174">
        <ele>2440</ele>
        <time>2019-01-20T11:42:23.000Z</time>
      </trkpt>
      <trkpt lat="45.16348" lon="5.96173">
        <ele>2437</ele>
        <time>2019-01-20T11:42:24.000Z</time>
      </trkpt>
      <trkpt lat="45.16365" lon="5.96172">
        <ele>2434</ele>
        <time>2019-01-20T11:42:25.000Z</time>
      </trkpt>
      <trkpt lat="45.16374" lon="5.96171">
        <ele>2434</ele>
        <time>2019-01-20T11:42:26.000Z</time>
      </trkpt>
      <trkpt lat="45.16383" lon="5.96171">
        <ele>2429.6</ele>
        <time>2019-01-20T11:42:27.000Z</time>
      </trkpt>
      <trkpt lat="45.16392" lon="5.9617">
        <ele>2424</ele>
        <time>2019-01-20T11:42:28.000Z</time>
      </trkpt>
      <trkpt lat="45.16401" lon="5.96169">
        <ele>2420</ele>
        <time>2019-01-20T11:42:29.000Z</time>
      </trkpt>
      <trkpt lat="45.16411" lon="5.96167">
        <ele>2417</ele>
        <time>2019-01-20T11:42:30.000Z</time>
      </trkpt>
      <trkpt lat="45.16426" lon="5.96168">
        <ele>2414</ele>
        <time>2019-01-20T11:42:31.000Z</time>
      </trkpt>
      <trkpt lat="45.16432" lon="5.96168">
        <ele>2414</ele>
        <time>2019-01-20T11:42:32.000Z</time>
      </trkpt>
      <trkpt lat="45.16438" lon="5.96168">
        <ele>2409.6</ele>
        <time>2019-01-20T11:42:33.000Z</time>
      </trkpt>
      <trkpt lat="45.16446" lon="5.96169">
        <ele>2408</ele>
        <time>2019-01-20T11:42:34.000Z</time>
      </trkpt>
      <trkpt lat="45.16451" lon="5.96168">
        <ele>2404</ele>
        <time>2019-01-20T11:42:35.000Z</time>
      </trkpt>
      <trkpt lat="45.16455" lon="5.96168">
        <ele>2400</ele>
        <time>2019-01-20T11:42:36.000Z</time>
      </trkpt>
      <trkpt lat="45.16468" lon="5.96168">
        <ele>2396</ele>
        <time>2019-01-20T11:42:37.000Z</time>
      </trkpt>
      <trkpt lat="45.16472" lon="5.96169">
        <ele>2396</ele>
        <time>2019-01-20T11:42:38.000Z</time>
      </trkpt>
      <trkpt lat="45.16477" lon="5.96169">
        <ele>2393</ele>
        <time>2019-01-20T11:42:39.000Z</time>
      </trkpt>
      <trkpt lat="45.16484" lon="5.96177">
        <ele>2390.4</ele>
        <time>2019-01-20T11:42:40.000Z</time>
      </trkpt>
      <trkpt lat="45.16484" lon="5.96177">
        <ele>2390</ele>
        <time>2019-01-20T11:42:41.000Z</time>
      </trkpt>
      <trkpt lat="45.16484" lon="5.96177">
        <ele>2389</ele>
        <time>2019-01-20T11:42:42.000Z</time>
      </trkpt>
      <trkpt lat="45.16488" lon="5.96188">
        <ele>2388</ele>
        <time>2019-01-20T11:42:43.000Z</time>
      </trkpt>
      <trkpt lat="45.16488" lon="5.96188">
        <ele>2387</ele>
        <time>2019-01-20T11:42:44.000Z</time>
      </trkpt>
      <trkpt lat="45.16488" lon="5.96188">
        <ele>2387</ele>
        <time>2019-01-20T11:42:45.000Z</time>
      </trkpt>
      <trkpt lat="45.16488" lon="5.96188">
        <ele>2387</ele>
        <time>2019-01-20T11:42:46.000Z</time>
      </trkpt>
      <trkpt lat="45.16488" lon="5.96188">
        <ele>2387</ele>
        <time>2019-01-20T11:42:47.000Z</time>
      </trkpt>
      <trkpt lat="45.16484" lon="5.96197">
        <ele>2387</ele>
        <time>2019-01-20T11:42:48.000Z</time>
      </trkpt>
      <trkpt lat="45.16484" lon="5.96197">
        <ele>2391</ele>
        <time>2019-01-20T11:50:14.000Z</time>
      </trkpt>
      <trkpt lat="45.16447" lon="5.96427">
        <ele>2391</ele>
        <time>2019-01-20T11:50:15.000Z</time>
      </trkpt>
      <trkpt lat="45.16448" lon="5.96427">
        <ele>2391</ele>
        <time>2019-01-20T11:50:16.000Z</time>
      </trkpt>
      <trkpt lat="45.16448" lon="5.96427">
        <ele>2392</ele>
        <time>2019-01-20T11:50:17.000Z</time>
      </trkpt>
      <trkpt lat="45.16448" lon="5.96427">
        <ele>2392</ele>
        <time>2019-01-20T11:50:18.000Z</time>
      </trkpt>
      <trkpt lat="45.16449" lon="5.96427">
        <ele>2392</ele>
        <time>2019-01-20T11:50:19.000Z</time>
      </trkpt>
      <trkpt lat="45.16449" lon="5.96427">
        <ele>2392</ele>
        <time>2019-01-20T11:50:20.000Z</time>
      </trkpt>
      <trkpt lat="45.16449" lon="5.96427">
        <ele>2392</ele>
        <time>2019-01-20T11:50:21.000Z</time>
      </trkpt>
      <trkpt lat="45.1645" lon="5.96427">
        <ele>2392</ele>
        <time>2019-01-20T11:50:22.000Z</time>
      </trkpt>
      <trkpt lat="45.1645" lon="5.96427">
        <ele>2392</ele>
        <time>2019-01-20T11:50:23.000Z</time>
      </trkpt>
      <trkpt lat="45.16452" lon="5.96428">
        <ele>2392</ele>
        <time>2019-01-20T11:50:24.000Z</time>
      </trkpt>
      <trkpt lat="45.16453" lon="5.96428">
        <ele>2392</ele>
        <time>2019-01-20T11:50:25.000Z</time>
      </trkpt>
      <trkpt lat="45.16455" lon="5.96428">
        <ele>2393</ele>
        <time>2019-01-20T11:50:26.000Z</time>
      </trkpt>
      <trkpt lat="45.16456" lon="5.96428">
        <ele>2393</ele>
        <time>2019-01-20T11:50:27.000Z</time>
      </trkpt>
      <trkpt lat="45.16458" lon="5.96428">
        <ele>2393</ele>
        <time>2019-01-20T11:50:28.000Z</time>
      </trkpt>
      <trkpt lat="45.1646" lon="5.96428">
        <ele>2393</ele>
        <time>2019-01-20T11:50:29.000Z</time>
      </trkpt>
      <trkpt lat="45.1646" lon="5.96428">
        <ele>2393</ele>
        <time>2019-01-20T11:50:30.000Z</time>
      </trkpt>
      <trkpt lat="45.16465" lon="5.96427">
        <ele>2393</ele>
        <time>2019-01-20T11:50:31.000Z</time>
      </trkpt>
      <trkpt lat="45.16465" lon="5.96427">
        <ele>2394</ele>
        <time>2019-01-20T11:50:32.000Z</time>
      </trkpt>
      <trkpt lat="45.16468" lon="5.96428">
        <ele>2394</ele>
        <time>2019-01-20T11:50:33.000Z</time>
      </trkpt>
      <trkpt lat="45.16468" lon="5.96428">
        <ele>2394.4</ele>
        <time>2019-01-20T11:50:34.000Z</time>
      </trkpt>
      <trkpt lat="45.16468" lon="5.96428">
        <ele>2395</ele>
        <time>2019-01-20T11:50:35.000Z</time>
      </trkpt>
      <trkpt lat="45.1647" lon="5.96427">
        <ele>2395</ele>
        <time>2019-01-20T11:50:36.000Z</time>
      </trkpt>
      <trkpt lat="45.1647" lon="5.96427">
        <ele>2395</ele>
        <time>2019-01-20T11:50:37.000Z</time>
      </trkpt>
      <trkpt lat="45.16472" lon="5.96425">
        <ele>2395</ele>
        <time>2019-01-20T11:50:38.000Z</time>
      </trkpt>
      <trkpt lat="45.16472" lon="5.96425">
        <ele>2396</ele>
        <time>2019-01-20T11:50:39.000Z</time>
      </trkpt>
      <trkpt lat="45.16472" lon="5.96425">
        <ele>2396</ele>
        <time>2019-01-20T11:50:40.000Z</time>
      </trkpt>
      <trkpt lat="45.16473" lon="5.96423">
        <ele>2396</ele>
        <time>2019-01-20T11:50:41.000Z</time>
      </trkpt>
      <trkpt lat="45.16473" lon="5.96423">
        <ele>2396</ele>
        <time>2019-01-20T11:50:42.000Z</time>
      </trkpt>
      <trkpt lat="45.16473" lon="5.96423">
        <ele>2396</ele>
        <time>2019-01-20T11:50:43.000Z</time>
      </trkpt>
      <trkpt lat="45.16475" lon="5.96421">
        <ele>2397</ele>
        <time>2019-01-20T11:50:44.000Z</time>
      </trkpt>
      <trkpt lat="45.16475" lon="5.96421">
        <ele>2397</ele>
        <time>2019-01-20T11:50:45.000Z</time>
      </trkpt>
      <trkpt lat="45.16475" lon="5.96421">
        <ele>2397</ele>
        <time>2019-01-20T11:50:46.000Z</time>
      </trkpt>
      <trkpt lat="45.16475" lon="5.96421">
        <ele>2397</ele>
        <time>2019-01-20T11:50:47.000Z</time>
      </trkpt>
      <trkpt lat="45.16475" lon="5.96421">
        <ele>2397</ele>
        <time>2019-01-20T11:50:48.000Z</time>
      </trkpt>
      <trkpt lat="45.16478" lon="5.96417">
        <ele>2397</ele>
        <time>2019-01-20T11:50:49.000Z</time>
      </trkpt>
      <trkpt lat="45.16478" lon="5.96417">
        <ele>2397</ele>
        <time>2019-01-20T11:50:50.000Z</time>
      </trkpt>
      <trkpt lat="45.16478" lon="5.96417">
        <ele>2398</ele>
        <time>2019-01-20T11:50:51.000Z</time>
      </trkpt>
      <trkpt lat="45.16479" lon="5.96414">
        <ele>2398</ele>
        <time>2019-01-20T11:50:52.000Z</time>
      </trkpt>
      <trkpt lat="45.16479" lon="5.96414">
        <ele>2398</ele>
        <time>2019-01-20T11:50:53.000Z</time>
      </trkpt>
      <trkpt lat="45.1648" lon="5.96413">
        <ele>2398</ele>
        <time>2019-01-20T11:50:54.000Z</time>
      </trkpt>
      <trkpt lat="45.1648" lon="5.96413">
        <ele>2398</ele>
        <time>2019-01-20T11:50:55.000Z</time>
      </trkpt>
      <trkpt lat="45.16482" lon="5.96412">
        <ele>2398</ele>
        <time>2019-01-20T11:50:56.000Z</time>
      </trkpt>
      <trkpt lat="45.16482" lon="5.96412">
        <ele>2400</ele>
        <time>2019-01-20T11:50:57.000Z</time>
      </trkpt>
      <trkpt lat="45.16482" lon="5.96412">
        <ele>2400</ele>
        <time>2019-01-20T11:50:58.000Z</time>
      </trkpt>
      <trkpt lat="45.16485" lon="5.96411">
        <ele>2400</ele>
        <time>2019-01-20T11:50:59.000Z</time>
      </trkpt>
      <trkpt lat="45.16485" lon="5.96411">
        <ele>2401</ele>
        <time>2019-01-20T11:51:00.000Z</time>
      </trkpt>
      <trkpt lat="45.16485" lon="5.96411">
        <ele>2401</ele>
        <time>2019-01-20T11:51:01.000Z</time>
      </trkpt>
      <trkpt lat="45.16488" lon="5.96411">
        <ele>2401</ele>
        <time>2019-01-20T11:51:02.000Z</time>
      </trkpt>
      <trkpt lat="45.16488" lon="5.96411">
        <ele>2401</ele>
        <time>2019-01-20T11:51:03.000Z</time>
      </trkpt>
      <trkpt lat="45.1649" lon="5.96411">
        <ele>2401</ele>
        <time>2019-01-20T11:51:04.000Z</time>
      </trkpt>
      <trkpt lat="45.1649" lon="5.96411">
        <ele>2401</ele>
        <time>2019-01-20T11:51:05.000Z</time>
      </trkpt>
      <trkpt lat="45.16491" lon="5.96411">
        <ele>2402</ele>
        <time>2019-01-20T11:51:06.000Z</time>
      </trkpt>
      <trkpt lat="45.16491" lon="5.96411">
        <ele>2402</ele>
        <time>2019-01-20T11:51:07.000Z</time>
      </trkpt>
      <trkpt lat="45.16491" lon="5.96411">
        <ele>2402</ele>
        <time>2019-01-20T11:51:08.000Z</time>
      </trkpt>
      <trkpt lat="45.16494" lon="5.9641">
        <ele>2402</ele>
        <time>2019-01-20T11:51:09.000Z</time>
      </trkpt>
      <trkpt lat="45.16494" lon="5.9641">
        <ele>2402</ele>
        <time>2019-01-20T11:51:10.000Z</time>
      </trkpt>
      <trkpt lat="45.16496" lon="5.9641">
        <ele>2402</ele>
        <time>2019-01-20T11:51:11.000Z</time>
      </trkpt>
      <trkpt lat="45.16496" lon="5.9641">
        <ele>2402.4</ele>
        <time>2019-01-20T11:51:12.000Z</time>
      </trkpt>
      <trkpt lat="45.16496" lon="5.9641">
        <ele>2403</ele>
        <time>2019-01-20T11:51:13.000Z</time>
      </trkpt>
      <trkpt lat="45.16498" lon="5.96411">
        <ele>2403</ele>
        <time>2019-01-20T11:51:14.000Z</time>
      </trkpt>
      <trkpt lat="45.16498" lon="5.96411">
        <ele>2403</ele>
        <time>2019-01-20T11:51:15.000Z</time>
      </trkpt>
      <trkpt lat="45.16498" lon="5.96411">
        <ele>2403</ele>
        <time>2019-01-20T11:51:16.000Z</time>
      </trkpt>
      <trkpt lat="45.165" lon="5.96411">
        <ele>2404</ele>
        <time>2019-01-20T11:51:17.000Z</time>
      </trkpt>
      <trkpt lat="45.165" lon="5.96411">
        <ele>2404</ele>
        <time>2019-01-20T11:51:18.000Z</time>
      </trkpt>
      <trkpt lat="45.16502" lon="5.96411">
        <ele>2404</ele>
        <time>2019-01-20T11:51:19.000Z</time>
      </trkpt>
      <trkpt lat="45.16502" lon="5.96411">
        <ele>2404</ele>
        <time>2019-01-20T11:51:20.000Z</time>
      </trkpt>
      <trkpt lat="45.16504" lon="5.9641">
        <ele>2404</ele>
        <time>2019-01-20T11:51:21.000Z</time>
      </trkpt>
      <trkpt lat="45.16504" lon="5.9641">
        <ele>2405</ele>
        <time>2019-01-20T11:51:22.000Z</time>
      </trkpt>
      <trkpt lat="45.16504" lon="5.9641">
        <ele>2405</ele>
        <time>2019-01-20T11:51:23.000Z</time>
      </trkpt>
      <trkpt lat="45.16504" lon="5.9641">
        <ele>2405</ele>
        <time>2019-01-20T11:51:24.000Z</time>
      </trkpt>
      <trkpt lat="45.16504" lon="5.9641">
        <ele>2405</ele>
        <time>2019-01-20T11:51:25.000Z</time>
      </trkpt>
      <trkpt lat="45.16504" lon="5.9641">
        <ele>2406</ele>
        <time>2019-01-20T11:51:26.000Z</time>
      </trkpt>
      <trkpt lat="45.16504" lon="5.9641">
        <ele>2406</ele>
        <time>2019-01-20T11:51:27.000Z</time>
      </trkpt>
      <trkpt lat="45.16504" lon="5.9641">
        <ele>2406</ele>
        <time>2019-01-20T11:51:28.000Z</time>
      </trkpt>
      <trkpt lat="45.16504" lon="5.9641">
        <ele>2406</ele>
        <time>2019-01-20T11:51:29.000Z</time>
      </trkpt>
      <trkpt lat="45.16514" lon="5.96407">
        <ele>2406</ele>
        <time>2019-01-20T11:51:30.000Z</time>
      </trkpt>
      <trkpt lat="45.16514" lon="5.96407">
        <ele>2406</ele>
        <time>2019-01-20T11:51:31.000Z</time>
      </trkpt>
      <trkpt lat="45.16514" lon="5.96407">
        <ele>2406</ele>
        <time>2019-01-20T11:51:32.000Z</time>
      </trkpt>
      <trkpt lat="45.16516" lon="5.96407">
        <ele>2406</ele>
        <time>2019-01-20T11:51:33.000Z</time>
      </trkpt>
      <trkpt lat="45.16516" lon="5.96407">
        <ele>2406</ele>
        <time>2019-01-20T11:51:34.000Z</time>
      </trkpt>
      <trkpt lat="45.16519" lon="5.96407">
        <ele>2407</ele>
        <time>2019-01-20T11:51:35.000Z</time>
      </trkpt>
      <trkpt lat="45.16519" lon="5.96407">
        <ele>2407</ele>
        <time>2019-01-20T11:51:36.000Z</time>
      </trkpt>
      <trkpt lat="45.16521" lon="5.96408">
        <ele>2407</ele>
        <time>2019-01-20T11:51:37.000Z</time>
      </trkpt>
      <trkpt lat="45.16521" lon="5.96408">
        <ele>2407</ele>
        <time>2019-01-20T11:51:38.000Z</time>
      </trkpt>
      <trkpt lat="45.16524" lon="5.96408">
        <ele>2407</ele>
        <time>2019-01-20T11:51:39.000Z</time>
      </trkpt>
      <trkpt lat="45.16524" lon="5.96408">
        <ele>2407</ele>
        <time>2019-01-20T11:51:40.000Z</time>
      </trkpt>
      <trkpt lat="45.16527" lon="5.96409">
        <ele>2407</ele>
        <time>2019-01-20T11:51:41.000Z</time>
      </trkpt>
      <trkpt lat="45.16527" lon="5.96409">
        <ele>2407</ele>
        <time>2019-01-20T11:51:42.000Z</time>
      </trkpt>
      <trkpt lat="45.1653" lon="5.96409">
        <ele>2407</ele>
        <time>2019-01-20T11:51:43.000Z</time>
      </trkpt>
      <trkpt lat="45.1653" lon="5.96409">
        <ele>2406</ele>
        <time>2019-01-20T11:51:44.000Z</time>
      </trkpt>
      <trkpt lat="45.1653" lon="5.96409">
        <ele>2406</ele>
        <time>2019-01-20T11:51:45.000Z</time>
      </trkpt>
      <trkpt lat="45.1653" lon="5.96409">
        <ele>2405</ele>
        <time>2019-01-20T11:51:46.000Z</time>
      </trkpt>
      <trkpt lat="45.16536" lon="5.9641">
        <ele>2405</ele>
        <time>2019-01-20T11:51:47.000Z</time>
      </trkpt>
      <trkpt lat="45.16538" lon="5.96412">
        <ele>2405</ele>
        <time>2019-01-20T11:51:48.000Z</time>
      </trkpt>
      <trkpt lat="45.16541" lon="5.96413">
        <ele>2405</ele>
        <time>2019-01-20T11:51:50.000Z</time>
      </trkpt>
      <trkpt lat="45.16542" lon="5.96413">
        <ele>2405</ele>
        <time>2019-01-20T11:51:51.000Z</time>
      </trkpt>
      <trkpt lat="45.16542" lon="5.96413">
        <ele>2405</ele>
        <time>2019-01-20T11:51:52.000Z</time>
      </trkpt>
      <trkpt lat="45.16543" lon="5.96413">
        <ele>2405</ele>
        <time>2019-01-20T11:51:53.000Z</time>
      </trkpt>
      <trkpt lat="45.16543" lon="5.96413">
        <ele>2405</ele>
        <time>2019-01-20T11:51:54.000Z</time>
      </trkpt>
      <trkpt lat="45.16544" lon="5.96413">
        <ele>2405</ele>
        <time>2019-01-20T11:51:55.000Z</time>
      </trkpt>
      <trkpt lat="45.16545" lon="5.96413">
        <ele>2405</ele>
        <time>2019-01-20T11:51:56.000Z</time>
      </trkpt>
      <trkpt lat="45.16545" lon="5.96413">
        <ele>2405</ele>
        <time>2019-01-20T11:51:57.000Z</time>
      </trkpt>
      <trkpt lat="45.16546" lon="5.96413">
        <ele>2406</ele>
        <time>2019-01-20T11:51:58.000Z</time>
      </trkpt>
      <trkpt lat="45.16547" lon="5.96413">
        <ele>2406</ele>
        <time>2019-01-20T11:51:59.000Z</time>
      </trkpt>
      <trkpt lat="45.16547" lon="5.96413">
        <ele>2406</ele>
        <time>2019-01-20T11:52:00.000Z</time>
      </trkpt>
      <trkpt lat="45.16548" lon="5.96413">
        <ele>2406</ele>
        <time>2019-01-20T11:52:01.000Z</time>
      </trkpt>
      <trkpt lat="45.16549" lon="5.96414">
        <ele>2406</ele>
        <time>2019-01-20T11:52:02.000Z</time>
      </trkpt>
      <trkpt lat="45.1655" lon="5.96414">
        <ele>2406</ele>
        <time>2019-01-20T11:52:03.000Z</time>
      </trkpt>
      <trkpt lat="45.16551" lon="5.96414">
        <ele>2406</ele>
        <time>2019-01-20T11:52:04.000Z</time>
      </trkpt>
      <trkpt lat="45.16552" lon="5.96414">
        <ele>2406</ele>
        <time>2019-01-20T11:52:05.000Z</time>
      </trkpt>
      <trkpt lat="45.16553" lon="5.96414">
        <ele>2407</ele>
        <time>2019-01-20T11:52:06.000Z</time>
      </trkpt>
      <trkpt lat="45.16554" lon="5.96414">
        <ele>2407</ele>
        <time>2019-01-20T11:52:07.000Z</time>
      </trkpt>
      <trkpt lat="45.16555" lon="5.96414">
        <ele>2407</ele>
        <time>2019-01-20T11:52:09.000Z</time>
      </trkpt>
      <trkpt lat="45.16556" lon="5.96414">
        <ele>2407</ele>
        <time>2019-01-20T11:52:10.000Z</time>
      </trkpt>
      <trkpt lat="45.16557" lon="5.96414">
        <ele>2407</ele>
        <time>2019-01-20T11:52:11.000Z</time>
      </trkpt>
      <trkpt lat="45.16557" lon="5.96414">
        <ele>2408</ele>
        <time>2019-01-20T11:52:12.000Z</time>
      </trkpt>
      <trkpt lat="45.16559" lon="5.96414">
        <ele>2408</ele>
        <time>2019-01-20T11:52:13.000Z</time>
      </trkpt>
      <trkpt lat="45.1656" lon="5.96413">
        <ele>2408</ele>
        <time>2019-01-20T11:52:14.000Z</time>
      </trkpt>
      <trkpt lat="45.16561" lon="5.96412">
        <ele>2409</ele>
        <time>2019-01-20T11:52:15.000Z</time>
      </trkpt>
      <trkpt lat="45.16562" lon="5.96412">
        <ele>2409</ele>
        <time>2019-01-20T11:52:16.000Z</time>
      </trkpt>
      <trkpt lat="45.16563" lon="5.96411">
        <ele>2409</ele>
        <time>2019-01-20T11:52:17.000Z</time>
      </trkpt>
      <trkpt lat="45.16564" lon="5.96411">
        <ele>2409</ele>
        <time>2019-01-20T11:52:18.000Z</time>
      </trkpt>
      <trkpt lat="45.16566" lon="5.9641">
        <ele>2409</ele>
        <time>2019-01-20T11:52:19.000Z</time>
      </trkpt>
      <trkpt lat="45.16567" lon="5.9641">
        <ele>2410</ele>
        <time>2019-01-20T11:52:20.000Z</time>
      </trkpt>
      <trkpt lat="45.16567" lon="5.9641">
        <ele>2410</ele>
        <time>2019-01-20T11:52:21.000Z</time>
      </trkpt>
      <trkpt lat="45.16576" lon="5.9641">
        <ele>2410</ele>
        <time>2019-01-20T11:52:22.000Z</time>
      </trkpt>
      <trkpt lat="45.16576" lon="5.9641">
        <ele>2411</ele>
        <time>2019-01-20T11:52:23.000Z</time>
      </trkpt>
      <trkpt lat="45.16576" lon="5.9641">
        <ele>2411</ele>
        <time>2019-01-20T11:52:24.000Z</time>
      </trkpt>
      <trkpt lat="45.16576" lon="5.9641">
        <ele>2411</ele>
        <time>2019-01-20T11:52:25.000Z</time>
      </trkpt>
      <trkpt lat="45.16576" lon="5.9641">
        <ele>2411</ele>
        <time>2019-01-20T11:52:26.000Z</time>
      </trkpt>
      <trkpt lat="45.16576" lon="5.9641">
        <ele>2411</ele>
        <time>2019-01-20T11:52:28.000Z</time>
      </trkpt>
      <trkpt lat="45.16576" lon="5.9641">
        <ele>2411</ele>
        <time>2019-01-20T11:52:29.000Z</time>
      </trkpt>
      <trkpt lat="45.16576" lon="5.9641">
        <ele>2411.6</ele>
        <time>2019-01-20T11:52:31.000Z</time>
      </trkpt>
      <trkpt lat="45.16583" lon="5.96417">
        <ele>2412</ele>
        <time>2019-01-20T11:52:32.000Z</time>
      </trkpt>
      <trkpt lat="45.16583" lon="5.96417">
        <ele>2412</ele>
        <time>2019-01-20T11:52:33.000Z</time>
      </trkpt>
      <trkpt lat="45.16583" lon="5.96417">
        <ele>2412</ele>
        <time>2019-01-20T11:52:34.000Z</time>
      </trkpt>
      <trkpt lat="45.16583" lon="5.96417">
        <ele>2412</ele>
        <time>2019-01-20T11:52:35.000Z</time>
      </trkpt>
      <trkpt lat="45.16583" lon="5.96417">
        <ele>2412</ele>
        <time>2019-01-20T11:52:36.000Z</time>
      </trkpt>
      <trkpt lat="45.16583" lon="5.96417">
        <ele>2412</ele>
        <time>2019-01-20T11:52:37.000Z</time>
      </trkpt>
      <trkpt lat="45.16583" lon="5.96417">
        <ele>2412</ele>
        <time>2019-01-20T11:52:38.000Z</time>
      </trkpt>
      <trkpt lat="45.16583" lon="5.96417">
        <ele>2412</ele>
        <time>2019-01-20T11:52:39.000Z</time>
      </trkpt>
      <trkpt lat="45.16592" lon="5.96425">
        <ele>2412</ele>
        <time>2019-01-20T11:52:40.000Z</time>
      </trkpt>
      <trkpt lat="45.16592" lon="5.96425">
        <ele>2412</ele>
        <time>2019-01-20T11:52:41.000Z</time>
      </trkpt>
      <trkpt lat="45.16592" lon="5.96425">
        <ele>2412</ele>
        <time>2019-01-20T11:52:42.000Z</time>
      </trkpt>
      <trkpt lat="45.16592" lon="5.96425">
        <ele>2412</ele>
        <time>2019-01-20T11:52:43.000Z</time>
      </trkpt>
      <trkpt lat="45.16592" lon="5.96425">
        <ele>2412</ele>
        <time>2019-01-20T11:52:44.000Z</time>
      </trkpt>
      <trkpt lat="45.16592" lon="5.96425">
        <ele>2412</ele>
        <time>2019-01-20T11:52:45.000Z</time>
      </trkpt>
      <trkpt lat="45.16592" lon="5.96425">
        <ele>2412</ele>
        <time>2019-01-20T11:52:47.000Z</time>
      </trkpt>
      <trkpt lat="45.16592" lon="5.96426">
        <ele>2412</ele>
        <time>2019-01-20T11:52:48.000Z</time>
      </trkpt>
      <trkpt lat="45.16593" lon="5.96427">
        <ele>2412</ele>
        <time>2019-01-20T11:52:49.000Z</time>
      </trkpt>
      <trkpt lat="45.16594" lon="5.96427">
        <ele>2412</ele>
        <time>2019-01-20T11:52:50.000Z</time>
      </trkpt>
      <trkpt lat="45.16595" lon="5.96428">
        <ele>2412</ele>
        <time>2019-01-20T11:52:51.000Z</time>
      </trkpt>
      <trkpt lat="45.16596" lon="5.96429">
        <ele>2413</ele>
        <time>2019-01-20T11:52:52.000Z</time>
      </trkpt>
      <trkpt lat="45.16596" lon="5.9643">
        <ele>2413</ele>
        <time>2019-01-20T11:52:53.000Z</time>
      </trkpt>
      <trkpt lat="45.16597" lon="5.9643">
        <ele>2413</ele>
        <time>2019-01-20T11:52:54.000Z</time>
      </trkpt>
      <trkpt lat="45.16598" lon="5.96431">
        <ele>2413</ele>
        <time>2019-01-20T11:52:55.000Z</time>
      </trkpt>
      <trkpt lat="45.16599" lon="5.96432">
        <ele>2413</ele>
        <time>2019-01-20T11:52:56.000Z</time>
      </trkpt>
      <trkpt lat="45.16599" lon="5.96433">
        <ele>2413</ele>
        <time>2019-01-20T11:52:57.000Z</time>
      </trkpt>
      <trkpt lat="45.16601" lon="5.96434">
        <ele>2413</ele>
        <time>2019-01-20T11:52:58.000Z</time>
      </trkpt>
      <trkpt lat="45.16603" lon="5.96435">
        <ele>2412</ele>
        <time>2019-01-20T11:52:59.000Z</time>
      </trkpt>
      <trkpt lat="45.16605" lon="5.96437">
        <ele>2412</ele>
        <time>2019-01-20T11:53:00.000Z</time>
      </trkpt>
      <trkpt lat="45.16607" lon="5.96438">
        <ele>2412</ele>
        <time>2019-01-20T11:53:01.000Z</time>
      </trkpt>
      <trkpt lat="45.16609" lon="5.96439">
        <ele>2412</ele>
        <time>2019-01-20T11:53:02.000Z</time>
      </trkpt>
      <trkpt lat="45.16612" lon="5.9644">
        <ele>2412</ele>
        <time>2019-01-20T11:53:03.000Z</time>
      </trkpt>
      <trkpt lat="45.16614" lon="5.96441">
        <ele>2412</ele>
        <time>2019-01-20T11:53:04.000Z</time>
      </trkpt>
      <trkpt lat="45.16617" lon="5.96442">
        <ele>2411</ele>
        <time>2019-01-20T11:53:06.000Z</time>
      </trkpt>
      <trkpt lat="45.16619" lon="5.96442">
        <ele>2410</ele>
        <time>2019-01-20T11:53:07.000Z</time>
      </trkpt>
      <trkpt lat="45.16629" lon="5.96444">
        <ele>2409</ele>
        <time>2019-01-20T11:53:08.000Z</time>
      </trkpt>
      <trkpt lat="45.16629" lon="5.96444">
        <ele>2409</ele>
        <time>2019-01-20T11:53:09.000Z</time>
      </trkpt>
      <trkpt lat="45.16629" lon="5.96444">
        <ele>2409</ele>
        <time>2019-01-20T11:53:10.000Z</time>
      </trkpt>
      <trkpt lat="45.16629" lon="5.96444">
        <ele>2409</ele>
        <time>2019-01-20T11:53:11.000Z</time>
      </trkpt>
      <trkpt lat="45.16629" lon="5.96444">
        <ele>2409</ele>
        <time>2019-01-20T11:53:12.000Z</time>
      </trkpt>
      <trkpt lat="45.1663" lon="5.96445">
        <ele>2409</ele>
        <time>2019-01-20T11:53:13.000Z</time>
      </trkpt>
      <trkpt lat="45.16631" lon="5.96447">
        <ele>2409</ele>
        <time>2019-01-20T11:53:14.000Z</time>
      </trkpt>
      <trkpt lat="45.16633" lon="5.96448">
        <ele>2409</ele>
        <time>2019-01-20T11:53:15.000Z</time>
      </trkpt>
      <trkpt lat="45.16634" lon="5.9645">
        <ele>2409</ele>
        <time>2019-01-20T11:53:16.000Z</time>
      </trkpt>
      <trkpt lat="45.16635" lon="5.96451">
        <ele>2409</ele>
        <time>2019-01-20T11:53:17.000Z</time>
      </trkpt>
      <trkpt lat="45.16636" lon="5.96453">
        <ele>2409</ele>
        <time>2019-01-20T11:53:18.000Z</time>
      </trkpt>
      <trkpt lat="45.16638" lon="5.96454">
        <ele>2409</ele>
        <time>2019-01-20T11:53:19.000Z</time>
      </trkpt>
      <trkpt lat="45.16639" lon="5.96455">
        <ele>2409</ele>
        <time>2019-01-20T11:53:20.000Z</time>
      </trkpt>
      <trkpt lat="45.1664" lon="5.96456">
        <ele>2409</ele>
        <time>2019-01-20T11:53:21.000Z</time>
      </trkpt>
      <trkpt lat="45.16641" lon="5.96457">
        <ele>2409</ele>
        <time>2019-01-20T11:53:22.000Z</time>
      </trkpt>
      <trkpt lat="45.16642" lon="5.96458">
        <ele>2409</ele>
        <time>2019-01-20T11:53:23.000Z</time>
      </trkpt>
      <trkpt lat="45.16643" lon="5.96459">
        <ele>2410</ele>
        <time>2019-01-20T11:53:25.000Z</time>
      </trkpt>
      <trkpt lat="45.16644" lon="5.9646">
        <ele>2410</ele>
        <time>2019-01-20T11:53:26.000Z</time>
      </trkpt>
      <trkpt lat="45.16645" lon="5.96461">
        <ele>2410</ele>
        <time>2019-01-20T11:53:27.000Z</time>
      </trkpt>
      <trkpt lat="45.16646" lon="5.96462">
        <ele>2410</ele>
        <time>2019-01-20T11:53:28.000Z</time>
      </trkpt>
      <trkpt lat="45.16647" lon="5.96462">
        <ele>2410</ele>
        <time>2019-01-20T11:53:29.000Z</time>
      </trkpt>
      <trkpt lat="45.16648" lon="5.96463">
        <ele>2411</ele>
        <time>2019-01-20T11:53:30.000Z</time>
      </trkpt>
      <trkpt lat="45.16649" lon="5.96464">
        <ele>2411</ele>
        <time>2019-01-20T11:53:31.000Z</time>
      </trkpt>
      <trkpt lat="45.1665" lon="5.96465">
        <ele>2411</ele>
        <time>2019-01-20T11:53:32.000Z</time>
      </trkpt>
      <trkpt lat="45.16651" lon="5.96465">
        <ele>2411</ele>
        <time>2019-01-20T11:53:33.000Z</time>
      </trkpt>
      <trkpt lat="45.16652" lon="5.96466">
        <ele>2411</ele>
        <time>2019-01-20T11:53:34.000Z</time>
      </trkpt>
      <trkpt lat="45.16652" lon="5.96467">
        <ele>2411</ele>
        <time>2019-01-20T11:53:35.000Z</time>
      </trkpt>
      <trkpt lat="45.16653" lon="5.96468">
        <ele>2411</ele>
        <time>2019-01-20T11:53:36.000Z</time>
      </trkpt>
      <trkpt lat="45.16654" lon="5.96469">
        <ele>2411</ele>
        <time>2019-01-20T11:53:37.000Z</time>
      </trkpt>
      <trkpt lat="45.16655" lon="5.9647">
        <ele>2412</ele>
        <time>2019-01-20T11:53:38.000Z</time>
      </trkpt>
      <trkpt lat="45.16656" lon="5.96471">
        <ele>2412</ele>
        <time>2019-01-20T11:53:39.000Z</time>
      </trkpt>
      <trkpt lat="45.16656" lon="5.96472">
        <ele>2412</ele>
        <time>2019-01-20T11:53:40.000Z</time>
      </trkpt>
      <trkpt lat="45.16657" lon="5.96473">
        <ele>2412</ele>
        <time>2019-01-20T11:53:41.000Z</time>
      </trkpt>
      <trkpt lat="45.16658" lon="5.96474">
        <ele>2412</ele>
        <time>2019-01-20T11:53:42.000Z</time>
      </trkpt>
      <trkpt lat="45.16659" lon="5.96474">
        <ele>2412</ele>
        <time>2019-01-20T11:53:44.000Z</time>
      </trkpt>
      <trkpt lat="45.1666" lon="5.96475">
        <ele>2412</ele>
        <time>2019-01-20T11:53:45.000Z</time>
      </trkpt>
      <trkpt lat="45.16669" lon="5.96481">
        <ele>2412</ele>
        <time>2019-01-20T11:53:46.000Z</time>
      </trkpt>
      <trkpt lat="45.16669" lon="5.96481">
        <ele>2412</ele>
        <time>2019-01-20T11:53:47.000Z</time>
      </trkpt>
      <trkpt lat="45.16669" lon="5.96481">
        <ele>2413</ele>
        <time>2019-01-20T11:53:48.000Z</time>
      </trkpt>
      <trkpt lat="45.16669" lon="5.96481">
        <ele>2413</ele>
        <time>2019-01-20T11:53:49.000Z</time>
      </trkpt>
      <trkpt lat="45.16669" lon="5.96481">
        <ele>2413</ele>
        <time>2019-01-20T11:53:50.000Z</time>
      </trkpt>
      <trkpt lat="45.16669" lon="5.96481">
        <ele>2413</ele>
        <time>2019-01-20T11:53:51.000Z</time>
      </trkpt>
      <trkpt lat="45.16669" lon="5.96481">
        <ele>2413</ele>
        <time>2019-01-20T11:53:52.000Z</time>
      </trkpt>
      <trkpt lat="45.1667" lon="5.96482">
        <ele>2413</ele>
        <time>2019-01-20T11:53:53.000Z</time>
      </trkpt>
      <trkpt lat="45.16671" lon="5.96483">
        <ele>2413</ele>
        <time>2019-01-20T11:53:54.000Z</time>
      </trkpt>
      <trkpt lat="45.16672" lon="5.96484">
        <ele>2413</ele>
        <time>2019-01-20T11:53:55.000Z</time>
      </trkpt>
      <trkpt lat="45.16673" lon="5.96485">
        <ele>2413</ele>
        <time>2019-01-20T11:53:56.000Z</time>
      </trkpt>
      <trkpt lat="45.16674" lon="5.96486">
        <ele>2413</ele>
        <time>2019-01-20T11:53:57.000Z</time>
      </trkpt>
      <trkpt lat="45.16675" lon="5.96487">
        <ele>2414</ele>
        <time>2019-01-20T11:53:58.000Z</time>
      </trkpt>
      <trkpt lat="45.16676" lon="5.96488">
        <ele>2414</ele>
        <time>2019-01-20T11:53:59.000Z</time>
      </trkpt>
      <trkpt lat="45.16677" lon="5.96489">
        <ele>2414</ele>
        <time>2019-01-20T11:54:00.000Z</time>
      </trkpt>
      <trkpt lat="45.16678" lon="5.96489">
        <ele>2414</ele>
        <time>2019-01-20T11:54:01.000Z</time>
      </trkpt>
      <trkpt lat="45.16679" lon="5.96489">
        <ele>2414</ele>
        <time>2019-01-20T11:54:02.000Z</time>
      </trkpt>
      <trkpt lat="45.16681" lon="5.96489">
        <ele>2414</ele>
        <time>2019-01-20T11:54:03.000Z</time>
      </trkpt>
      <trkpt lat="45.16682" lon="5.96489">
        <ele>2414</ele>
        <time>2019-01-20T11:54:04.000Z</time>
      </trkpt>
      <trkpt lat="45.16683" lon="5.96489">
        <ele>2414</ele>
        <time>2019-01-20T11:54:05.000Z</time>
      </trkpt>
      <trkpt lat="45.16685" lon="5.96489">
        <ele>2414</ele>
        <time>2019-01-20T11:54:06.000Z</time>
      </trkpt>
      <trkpt lat="45.16686" lon="5.96489">
        <ele>2414</ele>
        <time>2019-01-20T11:54:07.000Z</time>
      </trkpt>
      <trkpt lat="45.16687" lon="5.96489">
        <ele>2414</ele>
        <time>2019-01-20T11:54:08.000Z</time>
      </trkpt>
      <trkpt lat="45.16688" lon="5.96489">
        <ele>2414</ele>
        <time>2019-01-20T11:54:09.000Z</time>
      </trkpt>
      <trkpt lat="45.16689" lon="5.96489">
        <ele>2414</ele>
        <time>2019-01-20T11:54:10.000Z</time>
      </trkpt>
      <trkpt lat="45.1669" lon="5.96489">
        <ele>2414</ele>
        <time>2019-01-20T11:54:11.000Z</time>
      </trkpt>
      <trkpt lat="45.16691" lon="5.96489">
        <ele>2414</ele>
        <time>2019-01-20T11:54:12.000Z</time>
      </trkpt>
      <trkpt lat="45.16692" lon="5.96489">
        <ele>2414</ele>
        <time>2019-01-20T11:54:13.000Z</time>
      </trkpt>
      <trkpt lat="45.16692" lon="5.96489">
        <ele>2414</ele>
        <time>2019-01-20T11:54:14.000Z</time>
      </trkpt>
      <trkpt lat="45.16693" lon="5.96489">
        <ele>2414</ele>
        <time>2019-01-20T11:54:15.000Z</time>
      </trkpt>
      <trkpt lat="45.16694" lon="5.96489">
        <ele>2414</ele>
        <time>2019-01-20T11:54:16.000Z</time>
      </trkpt>
      <trkpt lat="45.16695" lon="5.96489">
        <ele>2414</ele>
        <time>2019-01-20T11:54:17.000Z</time>
      </trkpt>
      <trkpt lat="45.16696" lon="5.96489">
        <ele>2414</ele>
        <time>2019-01-20T11:54:18.000Z</time>
      </trkpt>
      <trkpt lat="45.16696" lon="5.96489">
        <ele>2414</ele>
        <time>2019-01-20T11:54:19.000Z</time>
      </trkpt>
      <trkpt lat="45.16705" lon="5.96487">
        <ele>2414</ele>
        <time>2019-01-20T11:54:20.000Z</time>
      </trkpt>
      <trkpt lat="45.16705" lon="5.96487">
        <ele>2414</ele>
        <time>2019-01-20T11:54:22.000Z</time>
      </trkpt>
      <trkpt lat="45.16705" lon="5.96487">
        <ele>2414</ele>
        <time>2019-01-20T11:54:23.000Z</time>
      </trkpt>
      <trkpt lat="45.16705" lon="5.96487">
        <ele>2414</ele>
        <time>2019-01-20T11:54:24.000Z</time>
      </trkpt>
      <trkpt lat="45.16705" lon="5.96487">
        <ele>2414</ele>
        <time>2019-01-20T11:54:25.000Z</time>
      </trkpt>
      <trkpt lat="45.16705" lon="5.96487">
        <ele>2414</ele>
        <time>2019-01-20T11:54:27.000Z</time>
      </trkpt>
      <trkpt lat="45.16715" lon="5.96488">
        <ele>2414</ele>
        <time>2019-01-20T11:54:28.000Z</time>
      </trkpt>
      <trkpt lat="45.16715" lon="5.96488">
        <ele>2414</ele>
        <time>2019-01-20T11:54:29.000Z</time>
      </trkpt>
      <trkpt lat="45.16715" lon="5.96488">
        <ele>2414</ele>
        <time>2019-01-20T11:54:30.000Z</time>
      </trkpt>
      <trkpt lat="45.16715" lon="5.96488">
        <ele>2414</ele>
        <time>2019-01-20T11:54:31.000Z</time>
      </trkpt>
      <trkpt lat="45.16715" lon="5.96488">
        <ele>2414</ele>
        <time>2019-01-20T11:54:32.000Z</time>
      </trkpt>
      <trkpt lat="45.16715" lon="5.96488">
        <ele>2415</ele>
        <time>2019-01-20T11:54:33.000Z</time>
      </trkpt>
      <trkpt lat="45.16715" lon="5.96488">
        <ele>2415</ele>
        <time>2019-01-20T11:54:34.000Z</time>
      </trkpt>
      <trkpt lat="45.16716" lon="5.96488">
        <ele>2415</ele>
        <time>2019-01-20T11:54:35.000Z</time>
      </trkpt>
      <trkpt lat="45.16717" lon="5.96488">
        <ele>2415</ele>
        <time>2019-01-20T11:54:36.000Z</time>
      </trkpt>
      <trkpt lat="45.16718" lon="5.96487">
        <ele>2415</ele>
        <time>2019-01-20T11:54:37.000Z</time>
      </trkpt>
      <trkpt lat="45.1672" lon="5.96487">
        <ele>2415</ele>
        <time>2019-01-20T11:54:38.000Z</time>
      </trkpt>
      <trkpt lat="45.16721" lon="5.96486">
        <ele>2415</ele>
        <time>2019-01-20T11:54:39.000Z</time>
      </trkpt>
      <trkpt lat="45.16722" lon="5.96486">
        <ele>2416</ele>
        <time>2019-01-20T11:54:41.000Z</time>
      </trkpt>
      <trkpt lat="45.16723" lon="5.96486">
        <ele>2416</ele>
        <time>2019-01-20T11:54:42.000Z</time>
      </trkpt>
      <trkpt lat="45.16725" lon="5.96485">
        <ele>2416</ele>
        <time>2019-01-20T11:54:43.000Z</time>
      </trkpt>
      <trkpt lat="45.16726" lon="5.96485">
        <ele>2416</ele>
        <time>2019-01-20T11:54:44.000Z</time>
      </trkpt>
      <trkpt lat="45.16727" lon="5.96485">
        <ele>2416</ele>
        <time>2019-01-20T11:54:45.000Z</time>
      </trkpt>
      <trkpt lat="45.16728" lon="5.96484">
        <ele>2416</ele>
        <time>2019-01-20T11:54:46.000Z</time>
      </trkpt>
      <trkpt lat="45.16729" lon="5.96484">
        <ele>2416</ele>
        <time>2019-01-20T11:54:47.000Z</time>
      </trkpt>
      <trkpt lat="45.1673" lon="5.96483">
        <ele>2417</ele>
        <time>2019-01-20T11:54:49.000Z</time>
      </trkpt>
      <trkpt lat="45.16731" lon="5.96483">
        <ele>2417</ele>
        <time>2019-01-20T11:54:50.000Z</time>
      </trkpt>
      <trkpt lat="45.16732" lon="5.96483">
        <ele>2417</ele>
        <time>2019-01-20T11:54:51.000Z</time>
      </trkpt>
      <trkpt lat="45.16734" lon="5.96482">
        <ele>2417</ele>
        <time>2019-01-20T11:54:52.000Z</time>
      </trkpt>
      <trkpt lat="45.16735" lon="5.96482">
        <ele>2417</ele>
        <time>2019-01-20T11:54:53.000Z</time>
      </trkpt>
      <trkpt lat="45.16736" lon="5.96482">
        <ele>2417</ele>
        <time>2019-01-20T11:54:54.000Z</time>
      </trkpt>
      <trkpt lat="45.16738" lon="5.96482">
        <ele>2417</ele>
        <time>2019-01-20T11:54:55.000Z</time>
      </trkpt>
      <trkpt lat="45.16739" lon="5.96482">
        <ele>2417</ele>
        <time>2019-01-20T11:54:56.000Z</time>
      </trkpt>
      <trkpt lat="45.16741" lon="5.96482">
        <ele>2418</ele>
        <time>2019-01-20T11:54:57.000Z</time>
      </trkpt>
      <trkpt lat="45.16742" lon="5.96482">
        <ele>2418</ele>
        <time>2019-01-20T11:54:58.000Z</time>
      </trkpt>
      <trkpt lat="45.16743" lon="5.96482">
        <ele>2418</ele>
        <time>2019-01-20T11:55:00.000Z</time>
      </trkpt>
      <trkpt lat="45.16745" lon="5.96482">
        <ele>2418</ele>
        <time>2019-01-20T11:55:01.000Z</time>
      </trkpt>
      <trkpt lat="45.16745" lon="5.96482">
        <ele>2419</ele>
        <time>2019-01-20T11:55:02.000Z</time>
      </trkpt>
      <trkpt lat="45.16754" lon="5.96481">
        <ele>2419</ele>
        <time>2019-01-20T11:55:03.000Z</time>
      </trkpt>
      <trkpt lat="45.16754" lon="5.96481">
        <ele>2419</ele>
        <time>2019-01-20T11:55:04.000Z</time>
      </trkpt>
      <trkpt lat="45.16754" lon="5.96481">
        <ele>2419</ele>
        <time>2019-01-20T11:55:05.000Z</time>
      </trkpt>
      <trkpt lat="45.16754" lon="5.96481">
        <ele>2419</ele>
        <time>2019-01-20T11:55:06.000Z</time>
      </trkpt>
      <trkpt lat="45.16754" lon="5.96481">
        <ele>2420</ele>
        <time>2019-01-20T11:55:07.000Z</time>
      </trkpt>
      <trkpt lat="45.16754" lon="5.96481">
        <ele>2420</ele>
        <time>2019-01-20T11:55:08.000Z</time>
      </trkpt>
      <trkpt lat="45.16754" lon="5.96481">
        <ele>2420</ele>
        <time>2019-01-20T11:55:09.000Z</time>
      </trkpt>
      <trkpt lat="45.16754" lon="5.96481">
        <ele>2420</ele>
        <time>2019-01-20T11:55:10.000Z</time>
      </trkpt>
      <trkpt lat="45.16754" lon="5.96481">
        <ele>2420</ele>
        <time>2019-01-20T11:55:11.000Z</time>
      </trkpt>
      <trkpt lat="45.16754" lon="5.96481">
        <ele>2420</ele>
        <time>2019-01-20T11:55:13.000Z</time>
      </trkpt>
      <trkpt lat="45.16764" lon="5.9648">
        <ele>2421</ele>
        <time>2019-01-20T11:55:14.000Z</time>
      </trkpt>
      <trkpt lat="45.16764" lon="5.9648">
        <ele>2421</ele>
        <time>2019-01-20T11:55:15.000Z</time>
      </trkpt>
      <trkpt lat="45.16764" lon="5.9648">
        <ele>2421</ele>
        <time>2019-01-20T11:55:16.000Z</time>
      </trkpt>
      <trkpt lat="45.16764" lon="5.9648">
        <ele>2421</ele>
        <time>2019-01-20T11:55:17.000Z</time>
      </trkpt>
      <trkpt lat="45.16764" lon="5.9648">
        <ele>2421</ele>
        <time>2019-01-20T11:55:19.000Z</time>
      </trkpt>
      <trkpt lat="45.16764" lon="5.9648">
        <ele>2421</ele>
        <time>2019-01-20T11:55:20.000Z</time>
      </trkpt>
      <trkpt lat="45.16764" lon="5.9648">
        <ele>2421</ele>
        <time>2019-01-20T11:55:21.000Z</time>
      </trkpt>
      <trkpt lat="45.16764" lon="5.9648">
        <ele>2422</ele>
        <time>2019-01-20T11:55:22.000Z</time>
      </trkpt>
      <trkpt lat="45.16764" lon="5.9648">
        <ele>2422</ele>
        <time>2019-01-20T11:55:23.000Z</time>
      </trkpt>
      <trkpt lat="45.16765" lon="5.9648">
        <ele>2422</ele>
        <time>2019-01-20T11:55:24.000Z</time>
      </trkpt>
      <trkpt lat="45.16766" lon="5.9648">
        <ele>2422</ele>
        <time>2019-01-20T11:55:25.000Z</time>
      </trkpt>
      <trkpt lat="45.16768" lon="5.9648">
        <ele>2421</ele>
        <time>2019-01-20T11:55:26.000Z</time>
      </trkpt>
      <trkpt lat="45.16769" lon="5.9648">
        <ele>2421</ele>
        <time>2019-01-20T11:55:27.000Z</time>
      </trkpt>
      <trkpt lat="45.1677" lon="5.9648">
        <ele>2421</ele>
        <time>2019-01-20T11:55:28.000Z</time>
      </trkpt>
      <trkpt lat="45.16771" lon="5.9648">
        <ele>2422</ele>
        <time>2019-01-20T11:55:29.000Z</time>
      </trkpt>
      <trkpt lat="45.16773" lon="5.9648">
        <ele>2422</ele>
        <time>2019-01-20T11:55:30.000Z</time>
      </trkpt>
      <trkpt lat="45.16774" lon="5.9648">
        <ele>2423</ele>
        <time>2019-01-20T11:55:31.000Z</time>
      </trkpt>
      <trkpt lat="45.16775" lon="5.9648">
        <ele>2423</ele>
        <time>2019-01-20T11:55:32.000Z</time>
      </trkpt>
      <trkpt lat="45.16776" lon="5.9648">
        <ele>2423</ele>
        <time>2019-01-20T11:55:33.000Z</time>
      </trkpt>
      <trkpt lat="45.16777" lon="5.96481">
        <ele>2423</ele>
        <time>2019-01-20T11:55:34.000Z</time>
      </trkpt>
      <trkpt lat="45.16778" lon="5.96481">
        <ele>2423</ele>
        <time>2019-01-20T11:55:35.000Z</time>
      </trkpt>
      <trkpt lat="45.16779" lon="5.96481">
        <ele>2423</ele>
        <time>2019-01-20T11:55:36.000Z</time>
      </trkpt>
      <trkpt lat="45.1678" lon="5.96481">
        <ele>2423</ele>
        <time>2019-01-20T11:55:38.000Z</time>
      </trkpt>
      <trkpt lat="45.16781" lon="5.96482">
        <ele>2423</ele>
        <time>2019-01-20T11:55:39.000Z</time>
      </trkpt>
      <trkpt lat="45.16782" lon="5.96482">
        <ele>2423</ele>
        <time>2019-01-20T11:55:40.000Z</time>
      </trkpt>
      <trkpt lat="45.16783" lon="5.96482">
        <ele>2424</ele>
        <time>2019-01-20T11:55:41.000Z</time>
      </trkpt>
      <trkpt lat="45.16784" lon="5.96482">
        <ele>2424</ele>
        <time>2019-01-20T11:55:42.000Z</time>
      </trkpt>
      <trkpt lat="45.16785" lon="5.96482">
        <ele>2424</ele>
        <time>2019-01-20T11:55:43.000Z</time>
      </trkpt>
      <trkpt lat="45.16785" lon="5.96482">
        <ele>2424</ele>
        <time>2019-01-20T11:55:44.000Z</time>
      </trkpt>
      <trkpt lat="45.16786" lon="5.96482">
        <ele>2426</ele>
        <time>2019-01-20T11:55:45.000Z</time>
      </trkpt>
      <trkpt lat="45.16787" lon="5.96482">
        <ele>2426</ele>
        <time>2019-01-20T11:55:46.000Z</time>
      </trkpt>
      <trkpt lat="45.16788" lon="5.96482">
        <ele>2426</ele>
        <time>2019-01-20T11:55:47.000Z</time>
      </trkpt>
      <trkpt lat="45.16788" lon="5.96482">
        <ele>2426</ele>
        <time>2019-01-20T11:55:48.000Z</time>
      </trkpt>
      <trkpt lat="45.16789" lon="5.96482">
        <ele>2426</ele>
        <time>2019-01-20T11:55:49.000Z</time>
      </trkpt>
      <trkpt lat="45.1679" lon="5.96482">
        <ele>2426</ele>
        <time>2019-01-20T11:55:50.000Z</time>
      </trkpt>
      <trkpt lat="45.16791" lon="5.96482">
        <ele>2426</ele>
        <time>2019-01-20T11:55:51.000Z</time>
      </trkpt>
      <trkpt lat="45.16792" lon="5.96482">
        <ele>2426</ele>
        <time>2019-01-20T11:55:52.000Z</time>
      </trkpt>
      <trkpt lat="45.16792" lon="5.96482">
        <ele>2427</ele>
        <time>2019-01-20T11:55:53.000Z</time>
      </trkpt>
      <trkpt lat="45.16792" lon="5.96482">
        <ele>2427</ele>
        <time>2019-01-20T11:55:54.000Z</time>
      </trkpt>
      <trkpt lat="45.16802" lon="5.96483">
        <ele>2427</ele>
        <time>2019-01-20T11:55:55.000Z</time>
      </trkpt>
      <trkpt lat="45.16802" lon="5.96483">
        <ele>2427</ele>
        <time>2019-01-20T11:55:57.000Z</time>
      </trkpt>
      <trkpt lat="45.16802" lon="5.96483">
        <ele>2427</ele>
        <time>2019-01-20T11:55:58.000Z</time>
      </trkpt>
      <trkpt lat="45.16802" lon="5.96483">
        <ele>2428</ele>
        <time>2019-01-20T11:55:59.000Z</time>
      </trkpt>
      <trkpt lat="45.16802" lon="5.96483">
        <ele>2428</ele>
        <time>2019-01-20T11:56:00.000Z</time>
      </trkpt>
      <trkpt lat="45.16802" lon="5.96483">
        <ele>2428</ele>
        <time>2019-01-20T11:56:01.000Z</time>
      </trkpt>
      <trkpt lat="45.16802" lon="5.96483">
        <ele>2429</ele>
        <time>2019-01-20T11:56:02.000Z</time>
      </trkpt>
      <trkpt lat="45.16802" lon="5.96483">
        <ele>2429</ele>
        <time>2019-01-20T11:56:03.000Z</time>
      </trkpt>
      <trkpt lat="45.16802" lon="5.96483">
        <ele>2429</ele>
        <time>2019-01-20T11:56:04.000Z</time>
      </trkpt>
      <trkpt lat="45.16802" lon="5.96483">
        <ele>2430</ele>
        <time>2019-01-20T11:56:05.000Z</time>
      </trkpt>
      <trkpt lat="45.16802" lon="5.96483">
        <ele>2430</ele>
        <time>2019-01-20T11:56:07.000Z</time>
      </trkpt>
      <trkpt lat="45.16811" lon="5.96483">
        <ele>2430</ele>
        <time>2019-01-20T11:56:08.000Z</time>
      </trkpt>
      <trkpt lat="45.16811" lon="5.96483">
        <ele>2430</ele>
        <time>2019-01-20T11:56:09.000Z</time>
      </trkpt>
      <trkpt lat="45.16811" lon="5.96483">
        <ele>2431</ele>
        <time>2019-01-20T11:56:10.000Z</time>
      </trkpt>
      <trkpt lat="45.16811" lon="5.96483">
        <ele>2431</ele>
        <time>2019-01-20T11:56:11.000Z</time>
      </trkpt>
      <trkpt lat="45.16811" lon="5.96483">
        <ele>2431</ele>
        <time>2019-01-20T11:56:12.000Z</time>
      </trkpt>
      <trkpt lat="45.16811" lon="5.96483">
        <ele>2431</ele>
        <time>2019-01-20T11:56:13.000Z</time>
      </trkpt>
      <trkpt lat="45.16811" lon="5.96483">
        <ele>2431</ele>
        <time>2019-01-20T11:56:14.000Z</time>
      </trkpt>
      <trkpt lat="45.16811" lon="5.96483">
        <ele>2431.6</ele>
        <time>2019-01-20T11:56:16.000Z</time>
      </trkpt>
      <trkpt lat="45.16811" lon="5.96483">
        <ele>2432</ele>
        <time>2019-01-20T11:56:17.000Z</time>
      </trkpt>
      <trkpt lat="45.16811" lon="5.96483">
        <ele>2432</ele>
        <time>2019-01-20T11:56:18.000Z</time>
      </trkpt>
      <trkpt lat="45.16811" lon="5.96483">
        <ele>2432.4</ele>
        <time>2019-01-20T11:56:20.000Z</time>
      </trkpt>
      <trkpt lat="45.16822" lon="5.96485">
        <ele>2433</ele>
        <time>2019-01-20T11:56:21.000Z</time>
      </trkpt>
      <trkpt lat="45.16822" lon="5.96485">
        <ele>2433</ele>
        <time>2019-01-20T11:56:22.000Z</time>
      </trkpt>
      <trkpt lat="45.16822" lon="5.96485">
        <ele>2433</ele>
        <time>2019-01-20T11:56:23.000Z</time>
      </trkpt>
      <trkpt lat="45.16822" lon="5.96485">
        <ele>2433</ele>
        <time>2019-01-20T11:56:24.000Z</time>
      </trkpt>
      <trkpt lat="45.16822" lon="5.96485">
        <ele>2433</ele>
        <time>2019-01-20T11:56:25.000Z</time>
      </trkpt>
      <trkpt lat="45.16822" lon="5.96485">
        <ele>2434</ele>
        <time>2019-01-20T11:56:26.000Z</time>
      </trkpt>
      <trkpt lat="45.16822" lon="5.96485">
        <ele>2434</ele>
        <time>2019-01-20T11:56:27.000Z</time>
      </trkpt>
      <trkpt lat="45.16822" lon="5.96485">
        <ele>2434</ele>
        <time>2019-01-20T11:56:28.000Z</time>
      </trkpt>
      <trkpt lat="45.16822" lon="5.96485">
        <ele>2434</ele>
        <time>2019-01-20T11:56:29.000Z</time>
      </trkpt>
      <trkpt lat="45.16822" lon="5.96485">
        <ele>2434</ele>
        <time>2019-01-20T11:56:30.000Z</time>
      </trkpt>
      <trkpt lat="45.16823" lon="5.96485">
        <ele>2435</ele>
        <time>2019-01-20T11:56:31.000Z</time>
      </trkpt>
      <trkpt lat="45.16824" lon="5.96485">
        <ele>2435</ele>
        <time>2019-01-20T11:56:32.000Z</time>
      </trkpt>
      <trkpt lat="45.16825" lon="5.96485">
        <ele>2435</ele>
        <time>2019-01-20T11:56:33.000Z</time>
      </trkpt>
      <trkpt lat="45.16825" lon="5.96486">
        <ele>2436</ele>
        <time>2019-01-20T11:56:35.000Z</time>
      </trkpt>
      <trkpt lat="45.16826" lon="5.96486">
        <ele>2436</ele>
        <time>2019-01-20T11:56:36.000Z</time>
      </trkpt>
      <trkpt lat="45.16827" lon="5.96486">
        <ele>2436</ele>
        <time>2019-01-20T11:56:37.000Z</time>
      </trkpt>
      <trkpt lat="45.16828" lon="5.96486">
        <ele>2436</ele>
        <time>2019-01-20T11:56:38.000Z</time>
      </trkpt>
      <trkpt lat="45.16828" lon="5.96486">
        <ele>2436</ele>
        <time>2019-01-20T11:56:39.000Z</time>
      </trkpt>
      <trkpt lat="45.16829" lon="5.96486">
        <ele>2436</ele>
        <time>2019-01-20T11:56:40.000Z</time>
      </trkpt>
      <trkpt lat="45.1683" lon="5.96487">
        <ele>2436</ele>
        <time>2019-01-20T11:56:41.000Z</time>
      </trkpt>
      <trkpt lat="45.16831" lon="5.96487">
        <ele>2437</ele>
        <time>2019-01-20T11:56:42.000Z</time>
      </trkpt>
      <trkpt lat="45.16831" lon="5.96487">
        <ele>2437</ele>
        <time>2019-01-20T11:56:43.000Z</time>
      </trkpt>
      <trkpt lat="45.16831" lon="5.96487">
        <ele>2437</ele>
        <time>2019-01-20T11:56:44.000Z</time>
      </trkpt>
      <trkpt lat="45.1684" lon="5.96492">
        <ele>2437</ele>
        <time>2019-01-20T11:56:45.000Z</time>
      </trkpt>
      <trkpt lat="45.1684" lon="5.96492">
        <ele>2438</ele>
        <time>2019-01-20T11:56:46.000Z</time>
      </trkpt>
      <trkpt lat="45.1684" lon="5.96492">
        <ele>2438</ele>
        <time>2019-01-20T11:56:47.000Z</time>
      </trkpt>
      <trkpt lat="45.1684" lon="5.96492">
        <ele>2438</ele>
        <time>2019-01-20T11:56:48.000Z</time>
      </trkpt>
      <trkpt lat="45.1684" lon="5.96492">
        <ele>2438</ele>
        <time>2019-01-20T11:56:49.000Z</time>
      </trkpt>
      <trkpt lat="45.1684" lon="5.96492">
        <ele>2438</ele>
        <time>2019-01-20T11:56:50.000Z</time>
      </trkpt>
      <trkpt lat="45.1684" lon="5.96492">
        <ele>2438</ele>
        <time>2019-01-20T11:56:51.000Z</time>
      </trkpt>
      <trkpt lat="45.1684" lon="5.96492">
        <ele>2438</ele>
        <time>2019-01-20T11:56:52.000Z</time>
      </trkpt>
      <trkpt lat="45.1684" lon="5.96492">
        <ele>2438.4</ele>
        <time>2019-01-20T11:56:54.000Z</time>
      </trkpt>
      <trkpt lat="45.1684" lon="5.96493">
        <ele>2439</ele>
        <time>2019-01-20T11:56:55.000Z</time>
      </trkpt>
      <trkpt lat="45.16841" lon="5.96493">
        <ele>2440</ele>
        <time>2019-01-20T11:56:56.000Z</time>
      </trkpt>
      <trkpt lat="45.16842" lon="5.96493">
        <ele>2440</ele>
        <time>2019-01-20T11:56:57.000Z</time>
      </trkpt>
      <trkpt lat="45.16842" lon="5.96494">
        <ele>2440</ele>
        <time>2019-01-20T11:56:58.000Z</time>
      </trkpt>
      <trkpt lat="45.16843" lon="5.96494">
        <ele>2440</ele>
        <time>2019-01-20T11:56:59.000Z</time>
      </trkpt>
      <trkpt lat="45.16843" lon="5.96494">
        <ele>2440</ele>
        <time>2019-01-20T11:57:00.000Z</time>
      </trkpt>
      <trkpt lat="45.16844" lon="5.96495">
        <ele>2440</ele>
        <time>2019-01-20T11:57:01.000Z</time>
      </trkpt>
      <trkpt lat="45.16845" lon="5.96495">
        <ele>2440</ele>
        <time>2019-01-20T11:57:02.000Z</time>
      </trkpt>
      <trkpt lat="45.16845" lon="5.96495">
        <ele>2440</ele>
        <time>2019-01-20T11:57:03.000Z</time>
      </trkpt>
      <trkpt lat="45.16846" lon="5.96496">
        <ele>2440</ele>
        <time>2019-01-20T11:57:04.000Z</time>
      </trkpt>
      <trkpt lat="45.16846" lon="5.96496">
        <ele>2440</ele>
        <time>2019-01-20T11:57:05.000Z</time>
      </trkpt>
      <trkpt lat="45.16847" lon="5.96497">
        <ele>2440</ele>
        <time>2019-01-20T11:57:06.000Z</time>
      </trkpt>
      <trkpt lat="45.16848" lon="5.96497">
        <ele>2441</ele>
        <time>2019-01-20T11:57:07.000Z</time>
      </trkpt>
      <trkpt lat="45.16848" lon="5.96497">
        <ele>2441</ele>
        <time>2019-01-20T11:57:08.000Z</time>
      </trkpt>
      <trkpt lat="45.16848" lon="5.96497">
        <ele>2441</ele>
        <time>2019-01-20T11:57:09.000Z</time>
      </trkpt>
      <trkpt lat="45.16856" lon="5.96505">
        <ele>2441</ele>
        <time>2019-01-20T11:57:10.000Z</time>
      </trkpt>
      <trkpt lat="45.16856" lon="5.96505">
        <ele>2441</ele>
        <time>2019-01-20T11:57:11.000Z</time>
      </trkpt>
      <trkpt lat="45.16856" lon="5.96505">
        <ele>2442</ele>
        <time>2019-01-20T11:57:13.000Z</time>
      </trkpt>
      <trkpt lat="45.16856" lon="5.96505">
        <ele>2442</ele>
        <time>2019-01-20T11:57:14.000Z</time>
      </trkpt>
      <trkpt lat="45.16856" lon="5.96505">
        <ele>2442</ele>
        <time>2019-01-20T11:57:15.000Z</time>
      </trkpt>
      <trkpt lat="45.16856" lon="5.96505">
        <ele>2443</ele>
        <time>2019-01-20T11:57:16.000Z</time>
      </trkpt>
      <trkpt lat="45.16856" lon="5.96505">
        <ele>2443</ele>
        <time>2019-01-20T11:57:17.000Z</time>
      </trkpt>
      <trkpt lat="45.16856" lon="5.96505">
        <ele>2443</ele>
        <time>2019-01-20T11:57:18.000Z</time>
      </trkpt>
      <trkpt lat="45.16856" lon="5.96505">
        <ele>2443</ele>
        <time>2019-01-20T11:57:19.000Z</time>
      </trkpt>
      <trkpt lat="45.16856" lon="5.96505">
        <ele>2443</ele>
        <time>2019-01-20T11:57:20.000Z</time>
      </trkpt>
      <trkpt lat="45.16856" lon="5.96505">
        <ele>2443</ele>
        <time>2019-01-20T11:57:21.000Z</time>
      </trkpt>
      <trkpt lat="45.16856" lon="5.96505">
        <ele>2444</ele>
        <time>2019-01-20T11:57:22.000Z</time>
      </trkpt>
      <trkpt lat="45.16856" lon="5.96505">
        <ele>2444</ele>
        <time>2019-01-20T11:57:24.000Z</time>
      </trkpt>
      <trkpt lat="45.16864" lon="5.9651">
        <ele>2444</ele>
        <time>2019-01-20T11:57:25.000Z</time>
      </trkpt>
      <trkpt lat="45.16864" lon="5.9651">
        <ele>2444</ele>
        <time>2019-01-20T11:57:26.000Z</time>
      </trkpt>
      <trkpt lat="45.16864" lon="5.9651">
        <ele>2444</ele>
        <time>2019-01-20T11:57:27.000Z</time>
      </trkpt>
      <trkpt lat="45.16864" lon="5.9651">
        <ele>2445</ele>
        <time>2019-01-20T11:57:28.000Z</time>
      </trkpt>
      <trkpt lat="45.16864" lon="5.9651">
        <ele>2445</ele>
        <time>2019-01-20T11:57:29.000Z</time>
      </trkpt>
      <trkpt lat="45.16864" lon="5.9651">
        <ele>2445</ele>
        <time>2019-01-20T11:57:30.000Z</time>
      </trkpt>
      <trkpt lat="45.16864" lon="5.9651">
        <ele>2445</ele>
        <time>2019-01-20T11:57:32.000Z</time>
      </trkpt>
      <trkpt lat="45.16864" lon="5.9651">
        <ele>2445</ele>
        <time>2019-01-20T11:57:33.000Z</time>
      </trkpt>
      <trkpt lat="45.16864" lon="5.9651">
        <ele>2446</ele>
        <time>2019-01-20T11:57:34.000Z</time>
      </trkpt>
      <trkpt lat="45.16864" lon="5.9651">
        <ele>2446</ele>
        <time>2019-01-20T11:57:35.000Z</time>
      </trkpt>
      <trkpt lat="45.16864" lon="5.9651">
        <ele>2446</ele>
        <time>2019-01-20T11:57:36.000Z</time>
      </trkpt>
      <trkpt lat="45.16865" lon="5.9651">
        <ele>2446</ele>
        <time>2019-01-20T11:57:37.000Z</time>
      </trkpt>
      <trkpt lat="45.16866" lon="5.96511">
        <ele>2446</ele>
        <time>2019-01-20T11:57:38.000Z</time>
      </trkpt>
      <trkpt lat="45.16867" lon="5.96511">
        <ele>2447</ele>
        <time>2019-01-20T11:57:40.000Z</time>
      </trkpt>
      <trkpt lat="45.16867" lon="5.96512">
        <ele>2447</ele>
        <time>2019-01-20T11:57:41.000Z</time>
      </trkpt>
      <trkpt lat="45.16868" lon="5.96513">
        <ele>2448</ele>
        <time>2019-01-20T11:57:42.000Z</time>
      </trkpt>
      <trkpt lat="45.16869" lon="5.96513">
        <ele>2448</ele>
        <time>2019-01-20T11:57:43.000Z</time>
      </trkpt>
      <trkpt lat="45.1687" lon="5.96514">
        <ele>2448</ele>
        <time>2019-01-20T11:57:44.000Z</time>
      </trkpt>
      <trkpt lat="45.1687" lon="5.96514">
        <ele>2448</ele>
        <time>2019-01-20T11:57:45.000Z</time>
      </trkpt>
      <trkpt lat="45.16871" lon="5.96515">
        <ele>2448</ele>
        <time>2019-01-20T11:57:46.000Z</time>
      </trkpt>
      <trkpt lat="45.16872" lon="5.96515">
        <ele>2449</ele>
        <time>2019-01-20T11:57:47.000Z</time>
      </trkpt>
      <trkpt lat="45.16872" lon="5.96516">
        <ele>2449</ele>
        <time>2019-01-20T11:57:48.000Z</time>
      </trkpt>
      <trkpt lat="45.16872" lon="5.96516">
        <ele>2450</ele>
        <time>2019-01-20T11:57:49.000Z</time>
      </trkpt>
      <trkpt lat="45.16881" lon="5.9652">
        <ele>2450</ele>
        <time>2019-01-20T11:57:50.000Z</time>
      </trkpt>
      <trkpt lat="45.16881" lon="5.9652">
        <ele>2450</ele>
        <time>2019-01-20T11:57:51.000Z</time>
      </trkpt>
      <trkpt lat="45.16881" lon="5.9652">
        <ele>2450</ele>
        <time>2019-01-20T11:57:52.000Z</time>
      </trkpt>
      <trkpt lat="45.16881" lon="5.9652">
        <ele>2450</ele>
        <time>2019-01-20T11:57:53.000Z</time>
      </trkpt>
      <trkpt lat="45.16881" lon="5.9652">
        <ele>2450</ele>
        <time>2019-01-20T11:57:54.000Z</time>
      </trkpt>
      <trkpt lat="45.16881" lon="5.9652">
        <ele>2450</ele>
        <time>2019-01-20T11:57:55.000Z</time>
      </trkpt>
      <trkpt lat="45.16881" lon="5.9652">
        <ele>2450</ele>
        <time>2019-01-20T11:57:56.000Z</time>
      </trkpt>
      <trkpt lat="45.16881" lon="5.9652">
        <ele>2450</ele>
        <time>2019-01-20T11:57:57.000Z</time>
      </trkpt>
      <trkpt lat="45.16881" lon="5.9652">
        <ele>2450</ele>
        <time>2019-01-20T11:57:58.000Z</time>
      </trkpt>
      <trkpt lat="45.16881" lon="5.9652">
        <ele>2450</ele>
        <time>2019-01-20T11:57:59.000Z</time>
      </trkpt>
      <trkpt lat="45.16881" lon="5.9652">
        <ele>2450</ele>
        <time>2019-01-20T11:58:00.000Z</time>
      </trkpt>
      <trkpt lat="45.16881" lon="5.9652">
        <ele>2450</ele>
        <time>2019-01-20T11:58:01.000Z</time>
      </trkpt>
      <trkpt lat="45.16881" lon="5.9652">
        <ele>2452</ele>
        <time>2019-01-20T11:58:02.000Z</time>
      </trkpt>
      <trkpt lat="45.16881" lon="5.9652">
        <ele>2452</ele>
        <time>2019-01-20T11:58:03.000Z</time>
      </trkpt>
      <trkpt lat="45.16881" lon="5.9652">
        <ele>2452</ele>
        <time>2019-01-20T11:58:04.000Z</time>
      </trkpt>
      <trkpt lat="45.16881" lon="5.9652">
        <ele>2452</ele>
        <time>2019-01-20T11:58:05.000Z</time>
      </trkpt>
      <trkpt lat="45.16881" lon="5.9652">
        <ele>2452</ele>
        <time>2019-01-20T11:58:06.000Z</time>
      </trkpt>
      <trkpt lat="45.16881" lon="5.9652">
        <ele>2452</ele>
        <time>2019-01-20T11:58:07.000Z</time>
      </trkpt>
      <trkpt lat="45.16881" lon="5.9652">
        <ele>2452</ele>
        <time>2019-01-20T11:58:08.000Z</time>
      </trkpt>
      <trkpt lat="45.16881" lon="5.9652">
        <ele>2452</ele>
        <time>2019-01-20T11:58:10.000Z</time>
      </trkpt>
      <trkpt lat="45.16881" lon="5.9652">
        <ele>2452</ele>
        <time>2019-01-20T11:58:11.000Z</time>
      </trkpt>
      <trkpt lat="45.16881" lon="5.9652">
        <ele>2452</ele>
        <time>2019-01-20T11:58:12.000Z</time>
      </trkpt>
      <trkpt lat="45.16881" lon="5.9652">
        <ele>2452</ele>
        <time>2019-01-20T11:58:13.000Z</time>
      </trkpt>
      <trkpt lat="45.16881" lon="5.9652">
        <ele>2452</ele>
        <time>2019-01-20T11:58:14.000Z</time>
      </trkpt>
      <trkpt lat="45.16881" lon="5.9652">
        <ele>2452</ele>
        <time>2019-01-20T11:58:15.000Z</time>
      </trkpt>
      <trkpt lat="45.16881" lon="5.9652">
        <ele>2453</ele>
        <time>2019-01-20T11:58:16.000Z</time>
      </trkpt>
      <trkpt lat="45.16881" lon="5.9652">
        <ele>2453</ele>
        <time>2019-01-20T11:58:17.000Z</time>
      </trkpt>
      <trkpt lat="45.16881" lon="5.9652">
        <ele>2453</ele>
        <time>2019-01-20T11:58:18.000Z</time>
      </trkpt>
      <trkpt lat="45.16881" lon="5.9652">
        <ele>2453</ele>
        <time>2019-01-20T11:58:19.000Z</time>
      </trkpt>
      <trkpt lat="45.16881" lon="5.9652">
        <ele>2453</ele>
        <time>2019-01-20T11:58:20.000Z</time>
      </trkpt>
      <trkpt lat="45.16881" lon="5.9652">
        <ele>2453</ele>
        <time>2019-01-20T11:58:21.000Z</time>
      </trkpt>
      <trkpt lat="45.16881" lon="5.9652">
        <ele>2453</ele>
        <time>2019-01-20T11:58:22.000Z</time>
      </trkpt>
      <trkpt lat="45.16881" lon="5.9652">
        <ele>2453</ele>
        <time>2019-01-20T11:58:23.000Z</time>
      </trkpt>
      <trkpt lat="45.16881" lon="5.9652">
        <ele>2453</ele>
        <time>2019-01-20T11:58:24.000Z</time>
      </trkpt>
      <trkpt lat="45.16881" lon="5.9652">
        <ele>2453</ele>
        <time>2019-01-20T11:58:25.000Z</time>
      </trkpt>
      <trkpt lat="45.16881" lon="5.9652">
        <ele>2453</ele>
        <time>2019-01-20T11:58:26.000Z</time>
      </trkpt>
      <trkpt lat="45.16881" lon="5.9652">
        <ele>2453</ele>
        <time>2019-01-20T11:58:27.000Z</time>
      </trkpt>
      <trkpt lat="45.16881" lon="5.9652">
        <ele>2453</ele>
        <time>2019-01-20T11:58:29.000Z</time>
      </trkpt>
      <trkpt lat="45.16881" lon="5.96519">
        <ele>2453</ele>
        <time>2019-01-20T11:58:30.000Z</time>
      </trkpt>
      <trkpt lat="45.16882" lon="5.96518">
        <ele>2454</ele>
        <time>2019-01-20T11:58:31.000Z</time>
      </trkpt>
      <trkpt lat="45.16882" lon="5.96517">
        <ele>2454</ele>
        <time>2019-01-20T11:58:32.000Z</time>
      </trkpt>
      <trkpt lat="45.16882" lon="5.96516">
        <ele>2454</ele>
        <time>2019-01-20T11:58:33.000Z</time>
      </trkpt>
      <trkpt lat="45.16882" lon="5.96515">
        <ele>2454</ele>
        <time>2019-01-20T11:58:34.000Z</time>
      </trkpt>
      <trkpt lat="45.16882" lon="5.96514">
        <ele>2454</ele>
        <time>2019-01-20T11:58:35.000Z</time>
      </trkpt>
      <trkpt lat="45.16882" lon="5.96513">
        <ele>2454</ele>
        <time>2019-01-20T11:58:36.000Z</time>
      </trkpt>
      <trkpt lat="45.16882" lon="5.96512">
        <ele>2455</ele>
        <time>2019-01-20T11:58:37.000Z</time>
      </trkpt>
      <trkpt lat="45.16883" lon="5.96512">
        <ele>2455</ele>
        <time>2019-01-20T11:58:38.000Z</time>
      </trkpt>
      <trkpt lat="45.16883" lon="5.96511">
        <ele>2455</ele>
        <time>2019-01-20T11:58:39.000Z</time>
      </trkpt>
      <trkpt lat="45.16883" lon="5.9651">
        <ele>2455</ele>
        <time>2019-01-20T11:58:40.000Z</time>
      </trkpt>
      <trkpt lat="45.16883" lon="5.96509">
        <ele>2455</ele>
        <time>2019-01-20T11:58:41.000Z</time>
      </trkpt>
      <trkpt lat="45.16883" lon="5.96508">
        <ele>2455</ele>
        <time>2019-01-20T11:58:42.000Z</time>
      </trkpt>
      <trkpt lat="45.16883" lon="5.96507">
        <ele>2455</ele>
        <time>2019-01-20T11:58:43.000Z</time>
      </trkpt>
      <trkpt lat="45.16883" lon="5.96506">
        <ele>2455</ele>
        <time>2019-01-20T11:58:44.000Z</time>
      </trkpt>
      <trkpt lat="45.16884" lon="5.96505">
        <ele>2455</ele>
        <time>2019-01-20T11:58:45.000Z</time>
      </trkpt>
      <trkpt lat="45.16884" lon="5.96505">
        <ele>2455</ele>
        <time>2019-01-20T11:58:46.000Z</time>
      </trkpt>
      <trkpt lat="45.16886" lon="5.96492">
        <ele>2455</ele>
        <time>2019-01-20T11:58:47.000Z</time>
      </trkpt>
      <trkpt lat="45.16886" lon="5.96492">
        <ele>2456</ele>
        <time>2019-01-20T11:58:48.000Z</time>
      </trkpt>
      <trkpt lat="45.16886" lon="5.96492">
        <ele>2456</ele>
        <time>2019-01-20T11:58:49.000Z</time>
      </trkpt>
      <trkpt lat="45.16886" lon="5.96492">
        <ele>2456</ele>
        <time>2019-01-20T11:58:50.000Z</time>
      </trkpt>
      <trkpt lat="45.16886" lon="5.96492">
        <ele>2456</ele>
        <time>2019-01-20T11:58:51.000Z</time>
      </trkpt>
      <trkpt lat="45.16886" lon="5.96492">
        <ele>2456</ele>
        <time>2019-01-20T11:58:52.000Z</time>
      </trkpt>
      <trkpt lat="45.16886" lon="5.96492">
        <ele>2457</ele>
        <time>2019-01-20T11:58:53.000Z</time>
      </trkpt>
      <trkpt lat="45.16886" lon="5.96492">
        <ele>2457</ele>
        <time>2019-01-20T11:58:54.000Z</time>
      </trkpt>
      <trkpt lat="45.16886" lon="5.96492">
        <ele>2457</ele>
        <time>2019-01-20T11:58:55.000Z</time>
      </trkpt>
      <trkpt lat="45.16886" lon="5.96492">
        <ele>2457</ele>
        <time>2019-01-20T11:58:56.000Z</time>
      </trkpt>
      <trkpt lat="45.16886" lon="5.96492">
        <ele>2457</ele>
        <time>2019-01-20T11:58:57.000Z</time>
      </trkpt>
      <trkpt lat="45.16886" lon="5.96492">
        <ele>2458</ele>
        <time>2019-01-20T11:58:58.000Z</time>
      </trkpt>
      <trkpt lat="45.16886" lon="5.96492">
        <ele>2458</ele>
        <time>2019-01-20T11:58:59.000Z</time>
      </trkpt>
      <trkpt lat="45.16886" lon="5.96492">
        <ele>2458</ele>
        <time>2019-01-20T11:59:01.000Z</time>
      </trkpt>
      <trkpt lat="45.16886" lon="5.96479">
        <ele>2458</ele>
        <time>2019-01-20T11:59:02.000Z</time>
      </trkpt>
      <trkpt lat="45.16886" lon="5.96479">
        <ele>2458</ele>
        <time>2019-01-20T11:59:03.000Z</time>
      </trkpt>
      <trkpt lat="45.16886" lon="5.96479">
        <ele>2459</ele>
        <time>2019-01-20T11:59:04.000Z</time>
      </trkpt>
      <trkpt lat="45.16886" lon="5.96479">
        <ele>2459</ele>
        <time>2019-01-20T11:59:05.000Z</time>
      </trkpt>
      <trkpt lat="45.16886" lon="5.96479">
        <ele>2459</ele>
        <time>2019-01-20T11:59:07.000Z</time>
      </trkpt>
      <trkpt lat="45.16886" lon="5.96479">
        <ele>2459</ele>
        <time>2019-01-20T11:59:08.000Z</time>
      </trkpt>
      <trkpt lat="45.16886" lon="5.96479">
        <ele>2459</ele>
        <time>2019-01-20T11:59:09.000Z</time>
      </trkpt>
      <trkpt lat="45.16886" lon="5.96479">
        <ele>2459</ele>
        <time>2019-01-20T11:59:10.000Z</time>
      </trkpt>
      <trkpt lat="45.16886" lon="5.96479">
        <ele>2459</ele>
        <time>2019-01-20T11:59:11.000Z</time>
      </trkpt>
      <trkpt lat="45.16886" lon="5.96479">
        <ele>2460</ele>
        <time>2019-01-20T11:59:12.000Z</time>
      </trkpt>
      <trkpt lat="45.16886" lon="5.96479">
        <ele>2460</ele>
        <time>2019-01-20T11:59:13.000Z</time>
      </trkpt>
      <trkpt lat="45.16883" lon="5.96465">
        <ele>2460</ele>
        <time>2019-01-20T11:59:14.000Z</time>
      </trkpt>
      <trkpt lat="45.16883" lon="5.96465">
        <ele>2461</ele>
        <time>2019-01-20T11:59:15.000Z</time>
      </trkpt>
      <trkpt lat="45.16883" lon="5.96465">
        <ele>2461</ele>
        <time>2019-01-20T11:59:16.000Z</time>
      </trkpt>
      <trkpt lat="45.16883" lon="5.96465">
        <ele>2461</ele>
        <time>2019-01-20T11:59:17.000Z</time>
      </trkpt>
      <trkpt lat="45.16883" lon="5.96465">
        <ele>2461</ele>
        <time>2019-01-20T11:59:18.000Z</time>
      </trkpt>
      <trkpt lat="45.16883" lon="5.96465">
        <ele>2461</ele>
        <time>2019-01-20T11:59:19.000Z</time>
      </trkpt>
      <trkpt lat="45.16883" lon="5.96465">
        <ele>2461</ele>
        <time>2019-01-20T11:59:20.000Z</time>
      </trkpt>
      <trkpt lat="45.16883" lon="5.96465">
        <ele>2461</ele>
        <time>2019-01-20T11:59:21.000Z</time>
      </trkpt>
      <trkpt lat="45.16883" lon="5.96465">
        <ele>2462</ele>
        <time>2019-01-20T11:59:22.000Z</time>
      </trkpt>
      <trkpt lat="45.16883" lon="5.96465">
        <ele>2462</ele>
        <time>2019-01-20T11:59:23.000Z</time>
      </trkpt>
      <trkpt lat="45.16883" lon="5.96465">
        <ele>2462</ele>
        <time>2019-01-20T11:59:24.000Z</time>
      </trkpt>
      <trkpt lat="45.16883" lon="5.96465">
        <ele>2462</ele>
        <time>2019-01-20T11:59:26.000Z</time>
      </trkpt>
      <trkpt lat="45.16883" lon="5.96464">
        <ele>2462</ele>
        <time>2019-01-20T11:59:27.000Z</time>
      </trkpt>
      <trkpt lat="45.16883" lon="5.96463">
        <ele>2462</ele>
        <time>2019-01-20T11:59:28.000Z</time>
      </trkpt>
      <trkpt lat="45.16883" lon="5.96462">
        <ele>2463</ele>
        <time>2019-01-20T11:59:29.000Z</time>
      </trkpt>
      <trkpt lat="45.16883" lon="5.96461">
        <ele>2463</ele>
        <time>2019-01-20T11:59:30.000Z</time>
      </trkpt>
      <trkpt lat="45.16883" lon="5.9646">
        <ele>2464</ele>
        <time>2019-01-20T11:59:31.000Z</time>
      </trkpt>
      <trkpt lat="45.16883" lon="5.9646">
        <ele>2464</ele>
        <time>2019-01-20T11:59:32.000Z</time>
      </trkpt>
      <trkpt lat="45.16882" lon="5.96459">
        <ele>2464</ele>
        <time>2019-01-20T11:59:33.000Z</time>
      </trkpt>
      <trkpt lat="45.16882" lon="5.96458">
        <ele>2464</ele>
        <time>2019-01-20T11:59:34.000Z</time>
      </trkpt>
      <trkpt lat="45.16882" lon="5.96457">
        <ele>2464</ele>
        <time>2019-01-20T11:59:35.000Z</time>
      </trkpt>
      <trkpt lat="45.16882" lon="5.96456">
        <ele>2465</ele>
        <time>2019-01-20T11:59:36.000Z</time>
      </trkpt>
      <trkpt lat="45.16882" lon="5.96455">
        <ele>2465</ele>
        <time>2019-01-20T11:59:37.000Z</time>
      </trkpt>
      <trkpt lat="45.16882" lon="5.96455">
        <ele>2465</ele>
        <time>2019-01-20T11:59:38.000Z</time>
      </trkpt>
      <trkpt lat="45.16882" lon="5.96454">
        <ele>2465</ele>
        <time>2019-01-20T11:59:39.000Z</time>
      </trkpt>
      <trkpt lat="45.16881" lon="5.96453">
        <ele>2465</ele>
        <time>2019-01-20T11:59:40.000Z</time>
      </trkpt>
      <trkpt lat="45.16881" lon="5.96452">
        <ele>2465</ele>
        <time>2019-01-20T11:59:41.000Z</time>
      </trkpt>
      <trkpt lat="45.16881" lon="5.96452">
        <ele>2466</ele>
        <time>2019-01-20T11:59:42.000Z</time>
      </trkpt>
      <trkpt lat="45.16881" lon="5.96451">
        <ele>2466</ele>
        <time>2019-01-20T11:59:43.000Z</time>
      </trkpt>
      <trkpt lat="45.16881" lon="5.96451">
        <ele>2466</ele>
        <time>2019-01-20T11:59:45.000Z</time>
      </trkpt>
      <trkpt lat="45.16881" lon="5.9645">
        <ele>2466</ele>
        <time>2019-01-20T11:59:46.000Z</time>
      </trkpt>
      <trkpt lat="45.16881" lon="5.9645">
        <ele>2466</ele>
        <time>2019-01-20T11:59:47.000Z</time>
      </trkpt>
      <trkpt lat="45.16881" lon="5.96449">
        <ele>2466</ele>
        <time>2019-01-20T11:59:48.000Z</time>
      </trkpt>
      <trkpt lat="45.16881" lon="5.96449">
        <ele>2466</ele>
        <time>2019-01-20T11:59:49.000Z</time>
      </trkpt>
      <trkpt lat="45.16881" lon="5.96449">
        <ele>2466</ele>
        <time>2019-01-20T11:59:50.000Z</time>
      </trkpt>
      <trkpt lat="45.16881" lon="5.96448">
        <ele>2467</ele>
        <time>2019-01-20T11:59:51.000Z</time>
      </trkpt>
      <trkpt lat="45.16881" lon="5.96448">
        <ele>2467</ele>
        <time>2019-01-20T11:59:52.000Z</time>
      </trkpt>
      <trkpt lat="45.16881" lon="5.96447">
        <ele>2467</ele>
        <time>2019-01-20T11:59:53.000Z</time>
      </trkpt>
      <trkpt lat="45.16881" lon="5.96447">
        <ele>2467</ele>
        <time>2019-01-20T11:59:54.000Z</time>
      </trkpt>
      <trkpt lat="45.16881" lon="5.96446">
        <ele>2467</ele>
        <time>2019-01-20T11:59:55.000Z</time>
      </trkpt>
      <trkpt lat="45.16881" lon="5.96446">
        <ele>2467</ele>
        <time>2019-01-20T11:59:56.000Z</time>
      </trkpt>
      <trkpt lat="45.16881" lon="5.96445">
        <ele>2467</ele>
        <time>2019-01-20T11:59:57.000Z</time>
      </trkpt>
      <trkpt lat="45.16881" lon="5.96445">
        <ele>2467</ele>
        <time>2019-01-20T11:59:58.000Z</time>
      </trkpt>
      <trkpt lat="45.16881" lon="5.96444">
        <ele>2467</ele>
        <time>2019-01-20T11:59:59.000Z</time>
      </trkpt>
      <trkpt lat="45.16881" lon="5.96444">
        <ele>2468</ele>
        <time>2019-01-20T12:00:00.000Z</time>
      </trkpt>
      <trkpt lat="45.16881" lon="5.96444">
        <ele>2468</ele>
        <time>2019-01-20T12:00:01.000Z</time>
      </trkpt>
      <trkpt lat="45.1688" lon="5.96443">
        <ele>2468</ele>
        <time>2019-01-20T12:00:02.000Z</time>
      </trkpt>
      <trkpt lat="45.1688" lon="5.96443">
        <ele>2468</ele>
        <time>2019-01-20T12:00:04.000Z</time>
      </trkpt>
      <trkpt lat="45.1688" lon="5.96442">
        <ele>2468</ele>
        <time>2019-01-20T12:00:05.000Z</time>
      </trkpt>
      <trkpt lat="45.1688" lon="5.96442">
        <ele>2468</ele>
        <time>2019-01-20T12:00:06.000Z</time>
      </trkpt>
      <trkpt lat="45.1688" lon="5.96441">
        <ele>2469</ele>
        <time>2019-01-20T12:00:07.000Z</time>
      </trkpt>
      <trkpt lat="45.1688" lon="5.96441">
        <ele>2469</ele>
        <time>2019-01-20T12:00:08.000Z</time>
      </trkpt>
      <trkpt lat="45.1688" lon="5.9644">
        <ele>2469</ele>
        <time>2019-01-20T12:00:09.000Z</time>
      </trkpt>
      <trkpt lat="45.1688" lon="5.9644">
        <ele>2469</ele>
        <time>2019-01-20T12:00:10.000Z</time>
      </trkpt>
      <trkpt lat="45.1688" lon="5.9644">
        <ele>2469</ele>
        <time>2019-01-20T12:00:11.000Z</time>
      </trkpt>
      <trkpt lat="45.1688" lon="5.96439">
        <ele>2469</ele>
        <time>2019-01-20T12:00:12.000Z</time>
      </trkpt>
      <trkpt lat="45.1688" lon="5.96439">
        <ele>2470</ele>
        <time>2019-01-20T12:00:13.000Z</time>
      </trkpt>
      <trkpt lat="45.1688" lon="5.96439">
        <ele>2470</ele>
        <time>2019-01-20T12:00:14.000Z</time>
      </trkpt>
      <trkpt lat="45.16889" lon="5.96436">
        <ele>2470</ele>
        <time>2019-01-20T12:00:15.000Z</time>
      </trkpt>
      <trkpt lat="45.16889" lon="5.96436">
        <ele>2470</ele>
        <time>2019-01-20T12:00:16.000Z</time>
      </trkpt>
      <trkpt lat="45.16889" lon="5.96436">
        <ele>2470</ele>
        <time>2019-01-20T12:00:17.000Z</time>
      </trkpt>
      <trkpt lat="45.16889" lon="5.96436">
        <ele>2470</ele>
        <time>2019-01-20T12:00:18.000Z</time>
      </trkpt>
      <trkpt lat="45.16889" lon="5.96436">
        <ele>2470</ele>
        <time>2019-01-20T12:00:19.000Z</time>
      </trkpt>
      <trkpt lat="45.16889" lon="5.96436">
        <ele>2470</ele>
        <time>2019-01-20T12:00:20.000Z</time>
      </trkpt>
      <trkpt lat="45.16889" lon="5.96436">
        <ele>2470</ele>
        <time>2019-01-20T12:00:21.000Z</time>
      </trkpt>
      <trkpt lat="45.16889" lon="5.96436">
        <ele>2470</ele>
        <time>2019-01-20T12:00:23.000Z</time>
      </trkpt>
      <trkpt lat="45.16889" lon="5.96436">
        <ele>2470</ele>
        <time>2019-01-20T12:00:24.000Z</time>
      </trkpt>
      <trkpt lat="45.16889" lon="5.96436">
        <ele>2470</ele>
        <time>2019-01-20T12:00:25.000Z</time>
      </trkpt>
      <trkpt lat="45.16889" lon="5.96436">
        <ele>2472</ele>
        <time>2019-01-20T12:00:27.000Z</time>
      </trkpt>
      <trkpt lat="45.16899" lon="5.96441">
        <ele>2472</ele>
        <time>2019-01-20T12:00:28.000Z</time>
      </trkpt>
      <trkpt lat="45.16899" lon="5.96441">
        <ele>2473</ele>
        <time>2019-01-20T12:00:29.000Z</time>
      </trkpt>
      <trkpt lat="45.16899" lon="5.96441">
        <ele>2473</ele>
        <time>2019-01-20T12:00:30.000Z</time>
      </trkpt>
      <trkpt lat="45.16899" lon="5.96441">
        <ele>2473</ele>
        <time>2019-01-20T12:00:31.000Z</time>
      </trkpt>
      <trkpt lat="45.16899" lon="5.96441">
        <ele>2473</ele>
        <time>2019-01-20T12:00:32.000Z</time>
      </trkpt>
      <trkpt lat="45.16899" lon="5.96441">
        <ele>2473</ele>
        <time>2019-01-20T12:00:33.000Z</time>
      </trkpt>
      <trkpt lat="45.16899" lon="5.96441">
        <ele>2473</ele>
        <time>2019-01-20T12:00:34.000Z</time>
      </trkpt>
      <trkpt lat="45.16899" lon="5.96441">
        <ele>2473</ele>
        <time>2019-01-20T12:00:35.000Z</time>
      </trkpt>
      <trkpt lat="45.16899" lon="5.96441">
        <ele>2474</ele>
        <time>2019-01-20T12:00:36.000Z</time>
      </trkpt>
      <trkpt lat="45.16899" lon="5.96441">
        <ele>2474</ele>
        <time>2019-01-20T12:00:37.000Z</time>
      </trkpt>
      <trkpt lat="45.16899" lon="5.96441">
        <ele>2474</ele>
        <time>2019-01-20T12:00:38.000Z</time>
      </trkpt>
      <trkpt lat="45.16899" lon="5.96441">
        <ele>2475</ele>
        <time>2019-01-20T12:00:39.000Z</time>
      </trkpt>
      <trkpt lat="45.16899" lon="5.96441">
        <ele>2475</ele>
        <time>2019-01-20T12:00:40.000Z</time>
      </trkpt>
      <trkpt lat="45.16899" lon="5.96441">
        <ele>2475</ele>
        <time>2019-01-20T12:00:42.000Z</time>
      </trkpt>
      <trkpt lat="45.16907" lon="5.96447">
        <ele>2475</ele>
        <time>2019-01-20T12:00:43.000Z</time>
      </trkpt>
      <trkpt lat="45.16907" lon="5.96447">
        <ele>2475</ele>
        <time>2019-01-20T12:00:44.000Z</time>
      </trkpt>
      <trkpt lat="45.16907" lon="5.96447">
        <ele>2476</ele>
        <time>2019-01-20T12:00:45.000Z</time>
      </trkpt>
      <trkpt lat="45.16907" lon="5.96447">
        <ele>2476</ele>
        <time>2019-01-20T12:00:46.000Z</time>
      </trkpt>
      <trkpt lat="45.16907" lon="5.96447">
        <ele>2476</ele>
        <time>2019-01-20T12:00:47.000Z</time>
      </trkpt>
      <trkpt lat="45.16907" lon="5.96447">
        <ele>2476</ele>
        <time>2019-01-20T12:00:48.000Z</time>
      </trkpt>
      <trkpt lat="45.16907" lon="5.96447">
        <ele>2476</ele>
        <time>2019-01-20T12:00:49.000Z</time>
      </trkpt>
      <trkpt lat="45.16907" lon="5.96447">
        <ele>2476</ele>
        <time>2019-01-20T12:00:50.000Z</time>
      </trkpt>
      <trkpt lat="45.16907" lon="5.96447">
        <ele>2476</ele>
        <time>2019-01-20T12:00:51.000Z</time>
      </trkpt>
      <trkpt lat="45.16907" lon="5.96447">
        <ele>2477</ele>
        <time>2019-01-20T12:00:52.000Z</time>
      </trkpt>
      <trkpt lat="45.16907" lon="5.96447">
        <ele>2477</ele>
        <time>2019-01-20T12:00:53.000Z</time>
      </trkpt>
      <trkpt lat="45.16907" lon="5.96447">
        <ele>2477</ele>
        <time>2019-01-20T12:00:54.000Z</time>
      </trkpt>
      <trkpt lat="45.16908" lon="5.96448">
        <ele>2478</ele>
        <time>2019-01-20T12:00:55.000Z</time>
      </trkpt>
      <trkpt lat="45.16908" lon="5.96448">
        <ele>2478</ele>
        <time>2019-01-20T12:00:56.000Z</time>
      </trkpt>
      <trkpt lat="45.16908" lon="5.96448">
        <ele>2478</ele>
        <time>2019-01-20T12:00:57.000Z</time>
      </trkpt>
      <trkpt lat="45.16908" lon="5.96448">
        <ele>2478</ele>
        <time>2019-01-20T12:00:58.000Z</time>
      </trkpt>
      <trkpt lat="45.16908" lon="5.96448">
        <ele>2478</ele>
        <time>2019-01-20T12:00:59.000Z</time>
      </trkpt>
      <trkpt lat="45.16909" lon="5.96448">
        <ele>2478</ele>
        <time>2019-01-20T12:01:01.000Z</time>
      </trkpt>
      <trkpt lat="45.16909" lon="5.96448">
        <ele>2478</ele>
        <time>2019-01-20T12:01:02.000Z</time>
      </trkpt>
      <trkpt lat="45.16909" lon="5.96449">
        <ele>2478</ele>
        <time>2019-01-20T12:01:03.000Z</time>
      </trkpt>
      <trkpt lat="45.16909" lon="5.96449">
        <ele>2478</ele>
        <time>2019-01-20T12:01:04.000Z</time>
      </trkpt>
      <trkpt lat="45.1691" lon="5.96449">
        <ele>2478</ele>
        <time>2019-01-20T12:01:05.000Z</time>
      </trkpt>
      <trkpt lat="45.1691" lon="5.96449">
        <ele>2479</ele>
        <time>2019-01-20T12:01:06.000Z</time>
      </trkpt>
      <trkpt lat="45.1691" lon="5.96449">
        <ele>2479</ele>
        <time>2019-01-20T12:01:07.000Z</time>
      </trkpt>
      <trkpt lat="45.1691" lon="5.96449">
        <ele>2479</ele>
        <time>2019-01-20T12:01:08.000Z</time>
      </trkpt>
      <trkpt lat="45.1691" lon="5.9645">
        <ele>2479</ele>
        <time>2019-01-20T12:01:09.000Z</time>
      </trkpt>
      <trkpt lat="45.16911" lon="5.9645">
        <ele>2479</ele>
        <time>2019-01-20T12:01:10.000Z</time>
      </trkpt>
      <trkpt lat="45.16911" lon="5.9645">
        <ele>2479</ele>
        <time>2019-01-20T12:01:11.000Z</time>
      </trkpt>
      <trkpt lat="45.16911" lon="5.9645">
        <ele>2479</ele>
        <time>2019-01-20T12:01:12.000Z</time>
      </trkpt>
      <trkpt lat="45.16911" lon="5.9645">
        <ele>2479</ele>
        <time>2019-01-20T12:01:13.000Z</time>
      </trkpt>
      <trkpt lat="45.16912" lon="5.9645">
        <ele>2479</ele>
        <time>2019-01-20T12:01:14.000Z</time>
      </trkpt>
      <trkpt lat="45.16912" lon="5.9645">
        <ele>2479</ele>
        <time>2019-01-20T12:01:15.000Z</time>
      </trkpt>
      <trkpt lat="45.16912" lon="5.96451">
        <ele>2479</ele>
        <time>2019-01-20T12:01:16.000Z</time>
      </trkpt>
      <trkpt lat="45.16912" lon="5.96451">
        <ele>2480</ele>
        <time>2019-01-20T12:01:17.000Z</time>
      </trkpt>
      <trkpt lat="45.16912" lon="5.96451">
        <ele>2480</ele>
        <time>2019-01-20T12:01:18.000Z</time>
      </trkpt>
      <trkpt lat="45.16913" lon="5.96451">
        <ele>2480</ele>
        <time>2019-01-20T12:01:20.000Z</time>
      </trkpt>
      <trkpt lat="45.16913" lon="5.96451">
        <ele>2480</ele>
        <time>2019-01-20T12:01:21.000Z</time>
      </trkpt>
      <trkpt lat="45.16913" lon="5.96451">
        <ele>2480</ele>
        <time>2019-01-20T12:01:22.000Z</time>
      </trkpt>
      <trkpt lat="45.16913" lon="5.96452">
        <ele>2480</ele>
        <time>2019-01-20T12:01:23.000Z</time>
      </trkpt>
      <trkpt lat="45.16914" lon="5.96452">
        <ele>2480</ele>
        <time>2019-01-20T12:01:24.000Z</time>
      </trkpt>
      <trkpt lat="45.16914" lon="5.96452">
        <ele>2481</ele>
        <time>2019-01-20T12:01:25.000Z</time>
      </trkpt>
      <trkpt lat="45.16914" lon="5.96452">
        <ele>2482</ele>
        <time>2019-01-20T12:01:26.000Z</time>
      </trkpt>
      <trkpt lat="45.16914" lon="5.96452">
        <ele>2482</ele>
        <time>2019-01-20T12:01:27.000Z</time>
      </trkpt>
      <trkpt lat="45.16914" lon="5.96452">
        <ele>2482</ele>
        <time>2019-01-20T12:01:28.000Z</time>
      </trkpt>
      <trkpt lat="45.16915" lon="5.96452">
        <ele>2482</ele>
        <time>2019-01-20T12:01:29.000Z</time>
      </trkpt>
      <trkpt lat="45.16915" lon="5.96453">
        <ele>2482</ele>
        <time>2019-01-20T12:01:30.000Z</time>
      </trkpt>
      <trkpt lat="45.16915" lon="5.96453">
        <ele>2482</ele>
        <time>2019-01-20T12:01:31.000Z</time>
      </trkpt>
      <trkpt lat="45.16915" lon="5.96453">
        <ele>2482</ele>
        <time>2019-01-20T12:01:32.000Z</time>
      </trkpt>
      <trkpt lat="45.16915" lon="5.96453">
        <ele>2482</ele>
        <time>2019-01-20T12:01:33.000Z</time>
      </trkpt>
      <trkpt lat="45.16916" lon="5.96453">
        <ele>2482</ele>
        <time>2019-01-20T12:01:34.000Z</time>
      </trkpt>
      <trkpt lat="45.16916" lon="5.96453">
        <ele>2484</ele>
        <time>2019-01-20T12:01:35.000Z</time>
      </trkpt>
      <trkpt lat="45.16916" lon="5.96453">
        <ele>2484</ele>
        <time>2019-01-20T12:01:36.000Z</time>
      </trkpt>
      <trkpt lat="45.16916" lon="5.96454">
        <ele>2484</ele>
        <time>2019-01-20T12:01:37.000Z</time>
      </trkpt>
      <trkpt lat="45.16919" lon="5.96441">
        <ele>2484.4</ele>
        <time>2019-01-20T12:01:39.000Z</time>
      </trkpt>
      <trkpt lat="45.16919" lon="5.96441">
        <ele>2485</ele>
        <time>2019-01-20T12:01:40.000Z</time>
      </trkpt>
      <trkpt lat="45.16919" lon="5.96441">
        <ele>2485</ele>
        <time>2019-01-20T12:01:41.000Z</time>
      </trkpt>
      <trkpt lat="45.16919" lon="5.96441">
        <ele>2485</ele>
        <time>2019-01-20T12:01:42.000Z</time>
      </trkpt>
      <trkpt lat="45.16919" lon="5.96441">
        <ele>2485</ele>
        <time>2019-01-20T12:01:43.000Z</time>
      </trkpt>
      <trkpt lat="45.16919" lon="5.96441">
        <ele>2485</ele>
        <time>2019-01-20T12:01:44.000Z</time>
      </trkpt>
      <trkpt lat="45.16919" lon="5.96441">
        <ele>2485</ele>
        <time>2019-01-20T12:01:45.000Z</time>
      </trkpt>
      <trkpt lat="45.16919" lon="5.96441">
        <ele>2486</ele>
        <time>2019-01-20T12:01:46.000Z</time>
      </trkpt>
      <trkpt lat="45.16919" lon="5.96441">
        <ele>2486</ele>
        <time>2019-01-20T12:01:47.000Z</time>
      </trkpt>
      <trkpt lat="45.16919" lon="5.96441">
        <ele>2486</ele>
        <time>2019-01-20T12:01:48.000Z</time>
      </trkpt>
      <trkpt lat="45.16919" lon="5.96441">
        <ele>2486</ele>
        <time>2019-01-20T12:01:49.000Z</time>
      </trkpt>
      <trkpt lat="45.16919" lon="5.96441">
        <ele>2486</ele>
        <time>2019-01-20T12:01:50.000Z</time>
      </trkpt>
      <trkpt lat="45.16919" lon="5.96441">
        <ele>2486</ele>
        <time>2019-01-20T12:01:51.000Z</time>
      </trkpt>
      <trkpt lat="45.16919" lon="5.96441">
        <ele>2486</ele>
        <time>2019-01-20T12:01:52.000Z</time>
      </trkpt>
      <trkpt lat="45.16919" lon="5.96441">
        <ele>2486</ele>
        <time>2019-01-20T12:01:53.000Z</time>
      </trkpt>
      <trkpt lat="45.16919" lon="5.96441">
        <ele>2486</ele>
        <time>2019-01-20T12:01:54.000Z</time>
      </trkpt>
      <trkpt lat="45.16919" lon="5.96441">
        <ele>2486</ele>
        <time>2019-01-20T12:01:55.000Z</time>
      </trkpt>
      <trkpt lat="45.16919" lon="5.96441">
        <ele>2486</ele>
        <time>2019-01-20T12:01:56.000Z</time>
      </trkpt>
      <trkpt lat="45.16919" lon="5.96441">
        <ele>2486.4</ele>
        <time>2019-01-20T12:01:58.000Z</time>
      </trkpt>
      <trkpt lat="45.16919" lon="5.96441">
        <ele>2487</ele>
        <time>2019-01-20T12:01:59.000Z</time>
      </trkpt>
      <trkpt lat="45.16919" lon="5.96441">
        <ele>2487</ele>
        <time>2019-01-20T12:02:00.000Z</time>
      </trkpt>
      <trkpt lat="45.16918" lon="5.96428">
        <ele>2487</ele>
        <time>2019-01-20T12:02:01.000Z</time>
      </trkpt>
      <trkpt lat="45.16918" lon="5.96428">
        <ele>2487</ele>
        <time>2019-01-20T12:02:02.000Z</time>
      </trkpt>
      <trkpt lat="45.16918" lon="5.96428">
        <ele>2487</ele>
        <time>2019-01-20T12:02:03.000Z</time>
      </trkpt>
      <trkpt lat="45.16918" lon="5.96428">
        <ele>2487</ele>
        <time>2019-01-20T12:02:04.000Z</time>
      </trkpt>
      <trkpt lat="45.16918" lon="5.96428">
        <ele>2487</ele>
        <time>2019-01-20T12:02:05.000Z</time>
      </trkpt>
      <trkpt lat="45.16918" lon="5.96428">
        <ele>2487</ele>
        <time>2019-01-20T12:02:06.000Z</time>
      </trkpt>
      <trkpt lat="45.16918" lon="5.96428">
        <ele>2488</ele>
        <time>2019-01-20T12:02:07.000Z</time>
      </trkpt>
      <trkpt lat="45.16918" lon="5.96428">
        <ele>2488</ele>
        <time>2019-01-20T12:02:08.000Z</time>
      </trkpt>
      <trkpt lat="45.16918" lon="5.96428">
        <ele>2488</ele>
        <time>2019-01-20T12:02:09.000Z</time>
      </trkpt>
      <trkpt lat="45.16918" lon="5.96428">
        <ele>2488</ele>
        <time>2019-01-20T12:02:10.000Z</time>
      </trkpt>
      <trkpt lat="45.16918" lon="5.96428">
        <ele>2489</ele>
        <time>2019-01-20T12:02:11.000Z</time>
      </trkpt>
      <trkpt lat="45.16918" lon="5.96428">
        <ele>2489</ele>
        <time>2019-01-20T12:02:12.000Z</time>
      </trkpt>
      <trkpt lat="45.16918" lon="5.96428">
        <ele>2489</ele>
        <time>2019-01-20T12:02:13.000Z</time>
      </trkpt>
      <trkpt lat="45.16918" lon="5.96428">
        <ele>2489</ele>
        <time>2019-01-20T12:02:14.000Z</time>
      </trkpt>
      <trkpt lat="45.16918" lon="5.96428">
        <ele>2489</ele>
        <time>2019-01-20T12:02:15.000Z</time>
      </trkpt>
      <trkpt lat="45.16918" lon="5.96428">
        <ele>2489</ele>
        <time>2019-01-20T12:02:17.000Z</time>
      </trkpt>
      <trkpt lat="45.16918" lon="5.96428">
        <ele>2489</ele>
        <time>2019-01-20T12:02:18.000Z</time>
      </trkpt>
      <trkpt lat="45.16918" lon="5.96428">
        <ele>2490</ele>
        <time>2019-01-20T12:02:19.000Z</time>
      </trkpt>
      <trkpt lat="45.16918" lon="5.96428">
        <ele>2490</ele>
        <time>2019-01-20T12:02:20.000Z</time>
      </trkpt>
      <trkpt lat="45.16918" lon="5.96428">
        <ele>2490</ele>
        <time>2019-01-20T12:02:21.000Z</time>
      </trkpt>
      <trkpt lat="45.16918" lon="5.96428">
        <ele>2490</ele>
        <time>2019-01-20T12:02:22.000Z</time>
      </trkpt>
      <trkpt lat="45.16918" lon="5.96428">
        <ele>2490</ele>
        <time>2019-01-20T12:02:23.000Z</time>
      </trkpt>
      <trkpt lat="45.16918" lon="5.96428">
        <ele>2491</ele>
        <time>2019-01-20T12:02:24.000Z</time>
      </trkpt>
      <trkpt lat="45.16918" lon="5.96428">
        <ele>2491</ele>
        <time>2019-01-20T12:02:25.000Z</time>
      </trkpt>
      <trkpt lat="45.16918" lon="5.96428">
        <ele>2491</ele>
        <time>2019-01-20T12:02:26.000Z</time>
      </trkpt>
      <trkpt lat="45.16918" lon="5.96428">
        <ele>2491</ele>
        <time>2019-01-20T12:02:27.000Z</time>
      </trkpt>
      <trkpt lat="45.16918" lon="5.96428">
        <ele>2491</ele>
        <time>2019-01-20T12:02:29.000Z</time>
      </trkpt>
      <trkpt lat="45.16926" lon="5.96421">
        <ele>2491</ele>
        <time>2019-01-20T12:02:30.000Z</time>
      </trkpt>
      <trkpt lat="45.16926" lon="5.96421">
        <ele>2491</ele>
        <time>2019-01-20T12:02:31.000Z</time>
      </trkpt>
      <trkpt lat="45.16926" lon="5.96421">
        <ele>2491</ele>
        <time>2019-01-20T12:02:32.000Z</time>
      </trkpt>
      <trkpt lat="45.16926" lon="5.96421">
        <ele>2492</ele>
        <time>2019-01-20T12:02:33.000Z</time>
      </trkpt>
      <trkpt lat="45.16926" lon="5.96421">
        <ele>2492</ele>
        <time>2019-01-20T12:02:34.000Z</time>
      </trkpt>
      <trkpt lat="45.16926" lon="5.96421">
        <ele>2492</ele>
        <time>2019-01-20T12:02:36.000Z</time>
      </trkpt>
      <trkpt lat="45.16926" lon="5.96421">
        <ele>2492</ele>
        <time>2019-01-20T12:02:37.000Z</time>
      </trkpt>
      <trkpt lat="45.16926" lon="5.96421">
        <ele>2492</ele>
        <time>2019-01-20T12:02:38.000Z</time>
      </trkpt>
      <trkpt lat="45.16926" lon="5.96421">
        <ele>2493</ele>
        <time>2019-01-20T12:02:39.000Z</time>
      </trkpt>
      <trkpt lat="45.16926" lon="5.96421">
        <ele>2494</ele>
        <time>2019-01-20T12:02:40.000Z</time>
      </trkpt>
      <trkpt lat="45.16926" lon="5.96421">
        <ele>2494</ele>
        <time>2019-01-20T12:02:41.000Z</time>
      </trkpt>
      <trkpt lat="45.16927" lon="5.96422">
        <ele>2494</ele>
        <time>2019-01-20T12:02:42.000Z</time>
      </trkpt>
      <trkpt lat="45.16928" lon="5.96422">
        <ele>2494</ele>
        <time>2019-01-20T12:02:43.000Z</time>
      </trkpt>
      <trkpt lat="45.16928" lon="5.96422">
        <ele>2494</ele>
        <time>2019-01-20T12:02:44.000Z</time>
      </trkpt>
      <trkpt lat="45.16929" lon="5.96423">
        <ele>2496</ele>
        <time>2019-01-20T12:02:45.000Z</time>
      </trkpt>
      <trkpt lat="45.16929" lon="5.96423">
        <ele>2496</ele>
        <time>2019-01-20T12:02:46.000Z</time>
      </trkpt>
      <trkpt lat="45.1693" lon="5.96423">
        <ele>2496</ele>
        <time>2019-01-20T12:02:47.000Z</time>
      </trkpt>
      <trkpt lat="45.16931" lon="5.96424">
        <ele>2497</ele>
        <time>2019-01-20T12:02:48.000Z</time>
      </trkpt>
      <trkpt lat="45.16931" lon="5.96424">
        <ele>2497</ele>
        <time>2019-01-20T12:02:49.000Z</time>
      </trkpt>
      <trkpt lat="45.16932" lon="5.96424">
        <ele>2497</ele>
        <time>2019-01-20T12:02:50.000Z</time>
      </trkpt>
      <trkpt lat="45.16933" lon="5.96425">
        <ele>2497</ele>
        <time>2019-01-20T12:02:51.000Z</time>
      </trkpt>
      <trkpt lat="45.16933" lon="5.96425">
        <ele>2497</ele>
        <time>2019-01-20T12:02:52.000Z</time>
      </trkpt>
      <trkpt lat="45.16934" lon="5.96425">
        <ele>2497</ele>
        <time>2019-01-20T12:02:53.000Z</time>
      </trkpt>
      <trkpt lat="45.16939" lon="5.96436">
        <ele>2497</ele>
        <time>2019-01-20T12:02:55.000Z</time>
      </trkpt>
      <trkpt lat="45.16939" lon="5.96436">
        <ele>2497</ele>
        <time>2019-01-20T12:02:56.000Z</time>
      </trkpt>
      <trkpt lat="45.16939" lon="5.96436">
        <ele>2497</ele>
        <time>2019-01-20T12:02:57.000Z</time>
      </trkpt>
      <trkpt lat="45.16939" lon="5.96436">
        <ele>2498</ele>
        <time>2019-01-20T12:02:58.000Z</time>
      </trkpt>
      <trkpt lat="45.16939" lon="5.96436">
        <ele>2498</ele>
        <time>2019-01-20T12:02:59.000Z</time>
      </trkpt>
      <trkpt lat="45.16939" lon="5.96436">
        <ele>2498</ele>
        <time>2019-01-20T12:03:00.000Z</time>
      </trkpt>
      <trkpt lat="45.16939" lon="5.96436">
        <ele>2498</ele>
        <time>2019-01-20T12:03:01.000Z</time>
      </trkpt>
      <trkpt lat="45.16939" lon="5.96436">
        <ele>2498</ele>
        <time>2019-01-20T12:03:02.000Z</time>
      </trkpt>
      <trkpt lat="45.16939" lon="5.96436">
        <ele>2498</ele>
        <time>2019-01-20T12:03:03.000Z</time>
      </trkpt>
      <trkpt lat="45.16939" lon="5.96436">
        <ele>2498</ele>
        <time>2019-01-20T12:03:04.000Z</time>
      </trkpt>
      <trkpt lat="45.16939" lon="5.96436">
        <ele>2498</ele>
        <time>2019-01-20T12:03:05.000Z</time>
      </trkpt>
      <trkpt lat="45.16939" lon="5.96436">
        <ele>2499</ele>
        <time>2019-01-20T12:03:06.000Z</time>
      </trkpt>
      <trkpt lat="45.16939" lon="5.96436">
        <ele>2499</ele>
        <time>2019-01-20T12:03:07.000Z</time>
      </trkpt>
      <trkpt lat="45.16939" lon="5.96436">
        <ele>2499</ele>
        <time>2019-01-20T12:03:08.000Z</time>
      </trkpt>
      <trkpt lat="45.16939" lon="5.96436">
        <ele>2500</ele>
        <time>2019-01-20T12:03:09.000Z</time>
      </trkpt>
      <trkpt lat="45.16939" lon="5.96436">
        <ele>2500</ele>
        <time>2019-01-20T12:03:10.000Z</time>
      </trkpt>
      <trkpt lat="45.1694" lon="5.96437">
        <ele>2501</ele>
        <time>2019-01-20T12:03:11.000Z</time>
      </trkpt>
      <trkpt lat="45.1694" lon="5.96437">
        <ele>2501</ele>
        <time>2019-01-20T12:03:12.000Z</time>
      </trkpt>
      <trkpt lat="45.16941" lon="5.96437">
        <ele>2501</ele>
        <time>2019-01-20T12:03:14.000Z</time>
      </trkpt>
      <trkpt lat="45.16941" lon="5.96438">
        <ele>2501</ele>
        <time>2019-01-20T12:03:15.000Z</time>
      </trkpt>
      <trkpt lat="45.16942" lon="5.96438">
        <ele>2501</ele>
        <time>2019-01-20T12:03:16.000Z</time>
      </trkpt>
      <trkpt lat="45.16942" lon="5.96438">
        <ele>2501</ele>
        <time>2019-01-20T12:03:17.000Z</time>
      </trkpt>
      <trkpt lat="45.16943" lon="5.96439">
        <ele>2501</ele>
        <time>2019-01-20T12:03:18.000Z</time>
      </trkpt>
      <trkpt lat="45.16944" lon="5.96439">
        <ele>2501</ele>
        <time>2019-01-20T12:03:19.000Z</time>
      </trkpt>
      <trkpt lat="45.16944" lon="5.96439">
        <ele>2502</ele>
        <time>2019-01-20T12:03:20.000Z</time>
      </trkpt>
      <trkpt lat="45.16945" lon="5.9644">
        <ele>2502</ele>
        <time>2019-01-20T12:03:21.000Z</time>
      </trkpt>
      <trkpt lat="45.16945" lon="5.9644">
        <ele>2502</ele>
        <time>2019-01-20T12:03:22.000Z</time>
      </trkpt>
      <trkpt lat="45.16946" lon="5.9644">
        <ele>2502</ele>
        <time>2019-01-20T12:03:23.000Z</time>
      </trkpt>
      <trkpt lat="45.16946" lon="5.96441">
        <ele>2503</ele>
        <time>2019-01-20T12:03:24.000Z</time>
      </trkpt>
      <trkpt lat="45.16947" lon="5.96441">
        <ele>2503</ele>
        <time>2019-01-20T12:03:25.000Z</time>
      </trkpt>
      <trkpt lat="45.16947" lon="5.96441">
        <ele>2503</ele>
        <time>2019-01-20T12:03:26.000Z</time>
      </trkpt>
      <trkpt lat="45.16948" lon="5.96442">
        <ele>2503</ele>
        <time>2019-01-20T12:03:27.000Z</time>
      </trkpt>
      <trkpt lat="45.16948" lon="5.96442">
        <ele>2503</ele>
        <time>2019-01-20T12:03:28.000Z</time>
      </trkpt>
      <trkpt lat="45.16949" lon="5.96443">
        <ele>2503</ele>
        <time>2019-01-20T12:03:29.000Z</time>
      </trkpt>
      <trkpt lat="45.16949" lon="5.96443">
        <ele>2503</ele>
        <time>2019-01-20T12:03:30.000Z</time>
      </trkpt>
      <trkpt lat="45.1695" lon="5.96444">
        <ele>2503</ele>
        <time>2019-01-20T12:03:31.000Z</time>
      </trkpt>
      <trkpt lat="45.16951" lon="5.96444">
        <ele>2504</ele>
        <time>2019-01-20T12:03:33.000Z</time>
      </trkpt>
      <trkpt lat="45.16951" lon="5.96445">
        <ele>2504</ele>
        <time>2019-01-20T12:03:34.000Z</time>
      </trkpt>
      <trkpt lat="45.16952" lon="5.96446">
        <ele>2504</ele>
        <time>2019-01-20T12:03:35.000Z</time>
      </trkpt>
      <trkpt lat="45.16952" lon="5.96446">
        <ele>2505</ele>
        <time>2019-01-20T12:03:36.000Z</time>
      </trkpt>
      <trkpt lat="45.16953" lon="5.96447">
        <ele>2505</ele>
        <time>2019-01-20T12:03:37.000Z</time>
      </trkpt>
      <trkpt lat="45.16953" lon="5.96447">
        <ele>2505</ele>
        <time>2019-01-20T12:03:38.000Z</time>
      </trkpt>
      <trkpt lat="45.16954" lon="5.96448">
        <ele>2505</ele>
        <time>2019-01-20T12:03:39.000Z</time>
      </trkpt>
      <trkpt lat="45.16955" lon="5.96448">
        <ele>2505</ele>
        <time>2019-01-20T12:03:40.000Z</time>
      </trkpt>
      <trkpt lat="45.16955" lon="5.96448">
        <ele>2505</ele>
        <time>2019-01-20T12:03:41.000Z</time>
      </trkpt>
      <trkpt lat="45.16963" lon="5.96453">
        <ele>2505</ele>
        <time>2019-01-20T12:03:42.000Z</time>
      </trkpt>
      <trkpt lat="45.16963" lon="5.96453">
        <ele>2506</ele>
        <time>2019-01-20T12:03:43.000Z</time>
      </trkpt>
      <trkpt lat="45.16963" lon="5.96453">
        <ele>2506</ele>
        <time>2019-01-20T12:03:44.000Z</time>
      </trkpt>
      <trkpt lat="45.16963" lon="5.96453">
        <ele>2506</ele>
        <time>2019-01-20T12:03:45.000Z</time>
      </trkpt>
      <trkpt lat="45.16963" lon="5.96453">
        <ele>2508</ele>
        <time>2019-01-20T12:03:46.000Z</time>
      </trkpt>
      <trkpt lat="45.16963" lon="5.96453">
        <ele>2508</ele>
        <time>2019-01-20T12:03:47.000Z</time>
      </trkpt>
      <trkpt lat="45.16963" lon="5.96453">
        <ele>2508</ele>
        <time>2019-01-20T12:03:48.000Z</time>
      </trkpt>
      <trkpt lat="45.16963" lon="5.96453">
        <ele>2508</ele>
        <time>2019-01-20T12:03:49.000Z</time>
      </trkpt>
      <trkpt lat="45.16963" lon="5.96453">
        <ele>2508</ele>
        <time>2019-01-20T12:03:50.000Z</time>
      </trkpt>
      <trkpt lat="45.16963" lon="5.96453">
        <ele>2508</ele>
        <time>2019-01-20T12:03:52.000Z</time>
      </trkpt>
      <trkpt lat="45.16963" lon="5.96453">
        <ele>2508</ele>
        <time>2019-01-20T12:03:53.000Z</time>
      </trkpt>
      <trkpt lat="45.16963" lon="5.96453">
        <ele>2508.4</ele>
        <time>2019-01-20T12:03:55.000Z</time>
      </trkpt>
      <trkpt lat="45.16971" lon="5.96461">
        <ele>2510</ele>
        <time>2019-01-20T12:03:56.000Z</time>
      </trkpt>
      <trkpt lat="45.16971" lon="5.96461">
        <ele>2510</ele>
        <time>2019-01-20T12:03:57.000Z</time>
      </trkpt>
      <trkpt lat="45.16971" lon="5.96461">
        <ele>2510</ele>
        <time>2019-01-20T12:03:58.000Z</time>
      </trkpt>
      <trkpt lat="45.16971" lon="5.96461">
        <ele>2510</ele>
        <time>2019-01-20T12:03:59.000Z</time>
      </trkpt>
      <trkpt lat="45.16971" lon="5.96461">
        <ele>2511</ele>
        <time>2019-01-20T12:04:00.000Z</time>
      </trkpt>
      <trkpt lat="45.16971" lon="5.96461">
        <ele>2511</ele>
        <time>2019-01-20T12:04:01.000Z</time>
      </trkpt>
      <trkpt lat="45.16971" lon="5.96461">
        <ele>2511</ele>
        <time>2019-01-20T12:04:02.000Z</time>
      </trkpt>
      <trkpt lat="45.16971" lon="5.96461">
        <ele>2511</ele>
        <time>2019-01-20T12:04:03.000Z</time>
      </trkpt>
      <trkpt lat="45.16971" lon="5.96461">
        <ele>2511</ele>
        <time>2019-01-20T12:04:04.000Z</time>
      </trkpt>
      <trkpt lat="45.16971" lon="5.96461">
        <ele>2511</ele>
        <time>2019-01-20T12:04:05.000Z</time>
      </trkpt>
      <trkpt lat="45.16971" lon="5.96461">
        <ele>2511</ele>
        <time>2019-01-20T12:04:06.000Z</time>
      </trkpt>
      <trkpt lat="45.16971" lon="5.96461">
        <ele>2512</ele>
        <time>2019-01-20T12:04:07.000Z</time>
      </trkpt>
      <trkpt lat="45.16971" lon="5.96461">
        <ele>2512</ele>
        <time>2019-01-20T12:04:08.000Z</time>
      </trkpt>
      <trkpt lat="45.16971" lon="5.96461">
        <ele>2513</ele>
        <time>2019-01-20T12:04:09.000Z</time>
      </trkpt>
      <trkpt lat="45.16971" lon="5.96462">
        <ele>2513</ele>
        <time>2019-01-20T12:04:10.000Z</time>
      </trkpt>
      <trkpt lat="45.16971" lon="5.96462">
        <ele>2513</ele>
        <time>2019-01-20T12:04:11.000Z</time>
      </trkpt>
      <trkpt lat="45.16972" lon="5.96462">
        <ele>2513</ele>
        <time>2019-01-20T12:04:12.000Z</time>
      </trkpt>
      <trkpt lat="45.16972" lon="5.96462">
        <ele>2513</ele>
        <time>2019-01-20T12:04:13.000Z</time>
      </trkpt>
      <trkpt lat="45.16972" lon="5.96462">
        <ele>2513</ele>
        <time>2019-01-20T12:04:14.000Z</time>
      </trkpt>
      <trkpt lat="45.16972" lon="5.96463">
        <ele>2514</ele>
        <time>2019-01-20T12:04:15.000Z</time>
      </trkpt>
      <trkpt lat="45.16972" lon="5.96463">
        <ele>2514</ele>
        <time>2019-01-20T12:04:16.000Z</time>
      </trkpt>
      <trkpt lat="45.16973" lon="5.96463">
        <ele>2514</ele>
        <time>2019-01-20T12:04:17.000Z</time>
      </trkpt>
      <trkpt lat="45.16973" lon="5.96463">
        <ele>2514</ele>
        <time>2019-01-20T12:04:18.000Z</time>
      </trkpt>
      <trkpt lat="45.16973" lon="5.96464">
        <ele>2514</ele>
        <time>2019-01-20T12:04:19.000Z</time>
      </trkpt>
      <trkpt lat="45.16973" lon="5.96464">
        <ele>2514</ele>
        <time>2019-01-20T12:04:20.000Z</time>
      </trkpt>
      <trkpt lat="45.16974" lon="5.96464">
        <ele>2514</ele>
        <time>2019-01-20T12:04:21.000Z</time>
      </trkpt>
      <trkpt lat="45.16974" lon="5.96464">
        <ele>2514</ele>
        <time>2019-01-20T12:04:22.000Z</time>
      </trkpt>
      <trkpt lat="45.16974" lon="5.96464">
        <ele>2514</ele>
        <time>2019-01-20T12:04:23.000Z</time>
      </trkpt>
      <trkpt lat="45.16974" lon="5.96465">
        <ele>2514</ele>
        <time>2019-01-20T12:04:24.000Z</time>
      </trkpt>
      <trkpt lat="45.16974" lon="5.96465">
        <ele>2514</ele>
        <time>2019-01-20T12:04:25.000Z</time>
      </trkpt>
      <trkpt lat="45.16975" lon="5.96465">
        <ele>2514</ele>
        <time>2019-01-20T12:04:26.000Z</time>
      </trkpt>
      <trkpt lat="45.16975" lon="5.96465">
        <ele>2514</ele>
        <time>2019-01-20T12:04:27.000Z</time>
      </trkpt>
      <trkpt lat="45.16975" lon="5.96465">
        <ele>2514</ele>
        <time>2019-01-20T12:04:28.000Z</time>
      </trkpt>
      <trkpt lat="45.16975" lon="5.96466">
        <ele>2514</ele>
        <time>2019-01-20T12:04:30.000Z</time>
      </trkpt>
      <trkpt lat="45.16975" lon="5.96466">
        <ele>2514</ele>
        <time>2019-01-20T12:04:31.000Z</time>
      </trkpt>
      <trkpt lat="45.16976" lon="5.96466">
        <ele>2514</ele>
        <time>2019-01-20T12:04:32.000Z</time>
      </trkpt>
      <trkpt lat="45.16976" lon="5.96466">
        <ele>2514</ele>
        <time>2019-01-20T12:04:33.000Z</time>
      </trkpt>
      <trkpt lat="45.16976" lon="5.96467">
        <ele>2514</ele>
        <time>2019-01-20T12:04:34.000Z</time>
      </trkpt>
      <trkpt lat="45.16976" lon="5.96467">
        <ele>2514</ele>
        <time>2019-01-20T12:04:35.000Z</time>
      </trkpt>
      <trkpt lat="45.16976" lon="5.96467">
        <ele>2514</ele>
        <time>2019-01-20T12:04:36.000Z</time>
      </trkpt>
      <trkpt lat="45.16977" lon="5.96467">
        <ele>2514</ele>
        <time>2019-01-20T12:04:37.000Z</time>
      </trkpt>
      <trkpt lat="45.16977" lon="5.96467">
        <ele>2514</ele>
        <time>2019-01-20T12:04:38.000Z</time>
      </trkpt>
      <trkpt lat="45.16977" lon="5.96468">
        <ele>2514</ele>
        <time>2019-01-20T12:04:39.000Z</time>
      </trkpt>
      <trkpt lat="45.16977" lon="5.96468">
        <ele>2514</ele>
        <time>2019-01-20T12:04:40.000Z</time>
      </trkpt>
      <trkpt lat="45.16977" lon="5.96468">
        <ele>2515</ele>
        <time>2019-01-20T12:04:41.000Z</time>
      </trkpt>
      <trkpt lat="45.16978" lon="5.96468">
        <ele>2515</ele>
        <time>2019-01-20T12:04:42.000Z</time>
      </trkpt>
      <trkpt lat="45.16978" lon="5.96469">
        <ele>2515</ele>
        <time>2019-01-20T12:04:43.000Z</time>
      </trkpt>
      <trkpt lat="45.16978" lon="5.96469">
        <ele>2515</ele>
        <time>2019-01-20T12:04:44.000Z</time>
      </trkpt>
      <trkpt lat="45.16978" lon="5.96469">
        <ele>2516</ele>
        <time>2019-01-20T12:04:45.000Z</time>
      </trkpt>
      <trkpt lat="45.16978" lon="5.96469">
        <ele>2516</ele>
        <time>2019-01-20T12:04:46.000Z</time>
      </trkpt>
      <trkpt lat="45.16979" lon="5.96469">
        <ele>2516</ele>
        <time>2019-01-20T12:04:47.000Z</time>
      </trkpt>
      <trkpt lat="45.1698" lon="5.9647">
        <ele>2516</ele>
        <time>2019-01-20T12:04:48.000Z</time>
      </trkpt>
      <trkpt lat="45.1698" lon="5.9647">
        <ele>2516</ele>
        <time>2019-01-20T12:04:49.000Z</time>
      </trkpt>
      <trkpt lat="45.16981" lon="5.9647">
        <ele>2516</ele>
        <time>2019-01-20T12:04:50.000Z</time>
      </trkpt>
      <trkpt lat="45.16981" lon="5.96471">
        <ele>2516</ele>
        <time>2019-01-20T12:04:51.000Z</time>
      </trkpt>
      <trkpt lat="45.16982" lon="5.96471">
        <ele>2516</ele>
        <time>2019-01-20T12:04:52.000Z</time>
      </trkpt>
      <trkpt lat="45.16982" lon="5.96471">
        <ele>2516</ele>
        <time>2019-01-20T12:04:53.000Z</time>
      </trkpt>
      <trkpt lat="45.16983" lon="5.96472">
        <ele>2516</ele>
        <time>2019-01-20T12:04:54.000Z</time>
      </trkpt>
      <trkpt lat="45.16983" lon="5.96472">
        <ele>2517</ele>
        <time>2019-01-20T12:04:55.000Z</time>
      </trkpt>
      <trkpt lat="45.16984" lon="5.96472">
        <ele>2518</ele>
        <time>2019-01-20T12:04:56.000Z</time>
      </trkpt>
      <trkpt lat="45.16984" lon="5.96472">
        <ele>2518</ele>
        <time>2019-01-20T12:04:57.000Z</time>
      </trkpt>
      <trkpt lat="45.16985" lon="5.96473">
        <ele>2518</ele>
        <time>2019-01-20T12:04:58.000Z</time>
      </trkpt>
      <trkpt lat="45.16985" lon="5.96473">
        <ele>2518</ele>
        <time>2019-01-20T12:04:59.000Z</time>
      </trkpt>
      <trkpt lat="45.16986" lon="5.96473">
        <ele>2518</ele>
        <time>2019-01-20T12:05:00.000Z</time>
      </trkpt>
      <trkpt lat="45.16987" lon="5.96474">
        <ele>2518</ele>
        <time>2019-01-20T12:05:01.000Z</time>
      </trkpt>
      <trkpt lat="45.16987" lon="5.96474">
        <ele>2518</ele>
        <time>2019-01-20T12:05:02.000Z</time>
      </trkpt>
      <trkpt lat="45.16987" lon="5.96475">
        <ele>2518</ele>
        <time>2019-01-20T12:05:03.000Z</time>
      </trkpt>
      <trkpt lat="45.16988" lon="5.96476">
        <ele>2520</ele>
        <time>2019-01-20T12:05:04.000Z</time>
      </trkpt>
      <trkpt lat="45.16988" lon="5.96476">
        <ele>2521</ele>
        <time>2019-01-20T12:05:05.000Z</time>
      </trkpt>
      <trkpt lat="45.16989" lon="5.96477">
        <ele>2521</ele>
        <time>2019-01-20T12:05:06.000Z</time>
      </trkpt>
      <trkpt lat="45.16989" lon="5.96478">
        <ele>2521.6</ele>
        <time>2019-01-20T12:05:08.000Z</time>
      </trkpt>
      <trkpt lat="45.16989" lon="5.96479">
        <ele>2522</ele>
        <time>2019-01-20T12:05:10.000Z</time>
      </trkpt>
      <trkpt lat="45.1699" lon="5.9648">
        <ele>2522</ele>
        <time>2019-01-20T12:05:11.000Z</time>
      </trkpt>
      <trkpt lat="45.1699" lon="5.96481">
        <ele>2522</ele>
        <time>2019-01-20T12:05:12.000Z</time>
      </trkpt>
      <trkpt lat="45.16991" lon="5.96481">
        <ele>2522</ele>
        <time>2019-01-20T12:05:13.000Z</time>
      </trkpt>
      <trkpt lat="45.16991" lon="5.96482">
        <ele>2522</ele>
        <time>2019-01-20T12:05:14.000Z</time>
      </trkpt>
      <trkpt lat="45.16991" lon="5.96483">
        <ele>2523</ele>
        <time>2019-01-20T12:05:15.000Z</time>
      </trkpt>
      <trkpt lat="45.16992" lon="5.96484">
        <ele>2524</ele>
        <time>2019-01-20T12:05:16.000Z</time>
      </trkpt>
      <trkpt lat="45.16992" lon="5.96485">
        <ele>2524</ele>
        <time>2019-01-20T12:05:17.000Z</time>
      </trkpt>
      <trkpt lat="45.16992" lon="5.96485">
        <ele>2523</ele>
        <time>2019-01-20T12:05:18.000Z</time>
      </trkpt>
      <trkpt lat="45.17" lon="5.96492">
        <ele>2523</ele>
        <time>2019-01-20T12:05:19.000Z</time>
      </trkpt>
      <trkpt lat="45.17" lon="5.96492">
        <ele>2523</ele>
        <time>2019-01-20T12:05:20.000Z</time>
      </trkpt>
      <trkpt lat="45.17" lon="5.96492">
        <ele>2523</ele>
        <time>2019-01-20T12:05:21.000Z</time>
      </trkpt>
      <trkpt lat="45.17" lon="5.96492">
        <ele>2524</ele>
        <time>2019-01-20T12:05:22.000Z</time>
      </trkpt>
      <trkpt lat="45.17" lon="5.96492">
        <ele>2524</ele>
        <time>2019-01-20T12:05:23.000Z</time>
      </trkpt>
      <trkpt lat="45.17" lon="5.96492">
        <ele>2524</ele>
        <time>2019-01-20T12:05:24.000Z</time>
      </trkpt>
      <trkpt lat="45.17" lon="5.96492">
        <ele>2524</ele>
        <time>2019-01-20T12:05:25.000Z</time>
      </trkpt>
      <trkpt lat="45.17" lon="5.96492">
        <ele>2524</ele>
        <time>2019-01-20T12:05:27.000Z</time>
      </trkpt>
      <trkpt lat="45.17" lon="5.96492">
        <ele>2524</ele>
        <time>2019-01-20T12:05:28.000Z</time>
      </trkpt>
      <trkpt lat="45.17" lon="5.96492">
        <ele>2525</ele>
        <time>2019-01-20T12:05:29.000Z</time>
      </trkpt>
      <trkpt lat="45.17" lon="5.96492">
        <ele>2525</ele>
        <time>2019-01-20T12:05:30.000Z</time>
      </trkpt>
      <trkpt lat="45.17" lon="5.96492">
        <ele>2525</ele>
        <time>2019-01-20T12:05:31.000Z</time>
      </trkpt>
      <trkpt lat="45.17" lon="5.96492">
        <ele>2525</ele>
        <time>2019-01-20T12:05:32.000Z</time>
      </trkpt>
      <trkpt lat="45.17" lon="5.96492">
        <ele>2525</ele>
        <time>2019-01-20T12:05:33.000Z</time>
      </trkpt>
      <trkpt lat="45.17" lon="5.96492">
        <ele>2525</ele>
        <time>2019-01-20T12:05:34.000Z</time>
      </trkpt>
      <trkpt lat="45.17" lon="5.96492">
        <ele>2525</ele>
        <time>2019-01-20T12:05:35.000Z</time>
      </trkpt>
      <trkpt lat="45.17" lon="5.96492">
        <ele>2526</ele>
        <time>2019-01-20T12:05:36.000Z</time>
      </trkpt>
      <trkpt lat="45.17" lon="5.96492">
        <ele>2526</ele>
        <time>2019-01-20T12:05:37.000Z</time>
      </trkpt>
      <trkpt lat="45.17" lon="5.96492">
        <ele>2526</ele>
        <time>2019-01-20T12:05:38.000Z</time>
      </trkpt>
      <trkpt lat="45.17" lon="5.96492">
        <ele>2526</ele>
        <time>2019-01-20T12:05:39.000Z</time>
      </trkpt>
      <trkpt lat="45.17" lon="5.96492">
        <ele>2527</ele>
        <time>2019-01-20T12:05:40.000Z</time>
      </trkpt>
      <trkpt lat="45.17" lon="5.96492">
        <ele>2527</ele>
        <time>2019-01-20T12:05:41.000Z</time>
      </trkpt>
      <trkpt lat="45.17" lon="5.96492">
        <ele>2527</ele>
        <time>2019-01-20T12:05:42.000Z</time>
      </trkpt>
      <trkpt lat="45.17" lon="5.96492">
        <ele>2527</ele>
        <time>2019-01-20T12:05:43.000Z</time>
      </trkpt>
      <trkpt lat="45.17" lon="5.96492">
        <ele>2527</ele>
        <time>2019-01-20T12:05:44.000Z</time>
      </trkpt>
      <trkpt lat="45.17" lon="5.96492">
        <ele>2527</ele>
        <time>2019-01-20T12:05:46.000Z</time>
      </trkpt>
      <trkpt lat="45.17" lon="5.96492">
        <ele>2527</ele>
        <time>2019-01-20T12:05:47.000Z</time>
      </trkpt>
      <trkpt lat="45.17" lon="5.96492">
        <ele>2528</ele>
        <time>2019-01-20T12:05:48.000Z</time>
      </trkpt>
      <trkpt lat="45.17" lon="5.96492">
        <ele>2528</ele>
        <time>2019-01-20T12:05:49.000Z</time>
      </trkpt>
      <trkpt lat="45.17" lon="5.96492">
        <ele>2529</ele>
        <time>2019-01-20T12:05:50.000Z</time>
      </trkpt>
      <trkpt lat="45.17" lon="5.96492">
        <ele>2529</ele>
        <time>2019-01-20T12:05:51.000Z</time>
      </trkpt>
      <trkpt lat="45.17" lon="5.96492">
        <ele>2529</ele>
        <time>2019-01-20T12:05:52.000Z</time>
      </trkpt>
      <trkpt lat="45.17" lon="5.96492">
        <ele>2529</ele>
        <time>2019-01-20T12:05:53.000Z</time>
      </trkpt>
      <trkpt lat="45.17" lon="5.96492">
        <ele>2530</ele>
        <time>2019-01-20T12:05:54.000Z</time>
      </trkpt>
      <trkpt lat="45.17" lon="5.96492">
        <ele>2530</ele>
        <time>2019-01-20T12:05:55.000Z</time>
      </trkpt>
      <trkpt lat="45.17" lon="5.96492">
        <ele>2529</ele>
        <time>2019-01-20T12:05:56.000Z</time>
      </trkpt>
      <trkpt lat="45.17" lon="5.96492">
        <ele>2529.6</ele>
        <time>2019-01-20T12:05:58.000Z</time>
      </trkpt>
      <trkpt lat="45.17005" lon="5.96481">
        <ele>2530</ele>
        <time>2019-01-20T12:05:59.000Z</time>
      </trkpt>
      <trkpt lat="45.17005" lon="5.96481">
        <ele>2530</ele>
        <time>2019-01-20T12:06:00.000Z</time>
      </trkpt>
      <trkpt lat="45.17005" lon="5.96481">
        <ele>2530</ele>
        <time>2019-01-20T12:06:01.000Z</time>
      </trkpt>
      <trkpt lat="45.17005" lon="5.96481">
        <ele>2532</ele>
        <time>2019-01-20T12:06:02.000Z</time>
      </trkpt>
      <trkpt lat="45.17005" lon="5.96481">
        <ele>2532</ele>
        <time>2019-01-20T12:06:03.000Z</time>
      </trkpt>
      <trkpt lat="45.17005" lon="5.96481">
        <ele>2532</ele>
        <time>2019-01-20T12:06:05.000Z</time>
      </trkpt>
      <trkpt lat="45.17005" lon="5.96481">
        <ele>2532</ele>
        <time>2019-01-20T12:06:06.000Z</time>
      </trkpt>
      <trkpt lat="45.17005" lon="5.96481">
        <ele>2532</ele>
        <time>2019-01-20T12:06:07.000Z</time>
      </trkpt>
      <trkpt lat="45.17005" lon="5.96481">
        <ele>2532</ele>
        <time>2019-01-20T12:06:08.000Z</time>
      </trkpt>
      <trkpt lat="45.17005" lon="5.96481">
        <ele>2533</ele>
        <time>2019-01-20T12:06:09.000Z</time>
      </trkpt>
      <trkpt lat="45.17005" lon="5.96481">
        <ele>2533</ele>
        <time>2019-01-20T12:06:10.000Z</time>
      </trkpt>
      <trkpt lat="45.17005" lon="5.96481">
        <ele>2533</ele>
        <time>2019-01-20T12:06:11.000Z</time>
      </trkpt>
      <trkpt lat="45.17005" lon="5.9648">
        <ele>2533</ele>
        <time>2019-01-20T12:06:12.000Z</time>
      </trkpt>
      <trkpt lat="45.17005" lon="5.9648">
        <ele>2533</ele>
        <time>2019-01-20T12:06:13.000Z</time>
      </trkpt>
      <trkpt lat="45.17006" lon="5.9648">
        <ele>2533</ele>
        <time>2019-01-20T12:06:14.000Z</time>
      </trkpt>
      <trkpt lat="45.17006" lon="5.96479">
        <ele>2534</ele>
        <time>2019-01-20T12:06:15.000Z</time>
      </trkpt>
      <trkpt lat="45.17006" lon="5.96479">
        <ele>2534</ele>
        <time>2019-01-20T12:06:16.000Z</time>
      </trkpt>
      <trkpt lat="45.17006" lon="5.96479">
        <ele>2534</ele>
        <time>2019-01-20T12:06:17.000Z</time>
      </trkpt>
      <trkpt lat="45.17006" lon="5.96478">
        <ele>2534</ele>
        <time>2019-01-20T12:06:18.000Z</time>
      </trkpt>
      <trkpt lat="45.17006" lon="5.96478">
        <ele>2534</ele>
        <time>2019-01-20T12:06:19.000Z</time>
      </trkpt>
      <trkpt lat="45.17006" lon="5.96477">
        <ele>2534</ele>
        <time>2019-01-20T12:06:20.000Z</time>
      </trkpt>
      <trkpt lat="45.17006" lon="5.96477">
        <ele>2534</ele>
        <time>2019-01-20T12:06:21.000Z</time>
      </trkpt>
      <trkpt lat="45.17006" lon="5.96477">
        <ele>2535</ele>
        <time>2019-01-20T12:06:22.000Z</time>
      </trkpt>
      <trkpt lat="45.17006" lon="5.96476">
        <ele>2536</ele>
        <time>2019-01-20T12:06:24.000Z</time>
      </trkpt>
      <trkpt lat="45.17006" lon="5.96476">
        <ele>2536</ele>
        <time>2019-01-20T12:06:25.000Z</time>
      </trkpt>
      <trkpt lat="45.17006" lon="5.96476">
        <ele>2536</ele>
        <time>2019-01-20T12:06:26.000Z</time>
      </trkpt>
      <trkpt lat="45.17006" lon="5.96475">
        <ele>2535</ele>
        <time>2019-01-20T12:06:27.000Z</time>
      </trkpt>
      <trkpt lat="45.17006" lon="5.96475">
        <ele>2535</ele>
        <time>2019-01-20T12:06:28.000Z</time>
      </trkpt>
      <trkpt lat="45.17006" lon="5.96475">
        <ele>2535</ele>
        <time>2019-01-20T12:06:29.000Z</time>
      </trkpt>
      <trkpt lat="45.17006" lon="5.96474">
        <ele>2535</ele>
        <time>2019-01-20T12:06:30.000Z</time>
      </trkpt>
      <trkpt lat="45.17006" lon="5.96474">
        <ele>2535</ele>
        <time>2019-01-20T12:06:31.000Z</time>
      </trkpt>
      <trkpt lat="45.17006" lon="5.96473">
        <ele>2535</ele>
        <time>2019-01-20T12:06:32.000Z</time>
      </trkpt>
      <trkpt lat="45.17006" lon="5.96473">
        <ele>2535</ele>
        <time>2019-01-20T12:06:33.000Z</time>
      </trkpt>
      <trkpt lat="45.17007" lon="5.96473">
        <ele>2535</ele>
        <time>2019-01-20T12:06:34.000Z</time>
      </trkpt>
      <trkpt lat="45.17007" lon="5.96472">
        <ele>2535</ele>
        <time>2019-01-20T12:06:35.000Z</time>
      </trkpt>
      <trkpt lat="45.17007" lon="5.96472">
        <ele>2535</ele>
        <time>2019-01-20T12:06:36.000Z</time>
      </trkpt>
      <trkpt lat="45.17007" lon="5.96472">
        <ele>2536</ele>
        <time>2019-01-20T12:06:37.000Z</time>
      </trkpt>
      <trkpt lat="45.17007" lon="5.96471">
        <ele>2536</ele>
        <time>2019-01-20T12:06:38.000Z</time>
      </trkpt>
      <trkpt lat="45.17007" lon="5.96471">
        <ele>2536</ele>
        <time>2019-01-20T12:06:39.000Z</time>
      </trkpt>
      <trkpt lat="45.17007" lon="5.96471">
        <ele>2536</ele>
        <time>2019-01-20T12:06:40.000Z</time>
      </trkpt>
      <trkpt lat="45.17007" lon="5.9647">
        <ele>2537</ele>
        <time>2019-01-20T12:06:41.000Z</time>
      </trkpt>
      <trkpt lat="45.17007" lon="5.9647">
        <ele>2537</ele>
        <time>2019-01-20T12:06:43.000Z</time>
      </trkpt>
      <trkpt lat="45.17007" lon="5.9647">
        <ele>2537</ele>
        <time>2019-01-20T12:06:44.000Z</time>
      </trkpt>
      <trkpt lat="45.17007" lon="5.96469">
        <ele>2537</ele>
        <time>2019-01-20T12:06:45.000Z</time>
      </trkpt>
      <trkpt lat="45.17007" lon="5.96469">
        <ele>2537</ele>
        <time>2019-01-20T12:06:46.000Z</time>
      </trkpt>
      <trkpt lat="45.17007" lon="5.96468">
        <ele>2537</ele>
        <time>2019-01-20T12:06:47.000Z</time>
      </trkpt>
      <trkpt lat="45.17007" lon="5.96468">
        <ele>2538</ele>
        <time>2019-01-20T12:06:48.000Z</time>
      </trkpt>
      <trkpt lat="45.17008" lon="5.96468">
        <ele>2538</ele>
        <time>2019-01-20T12:06:49.000Z</time>
      </trkpt>
      <trkpt lat="45.17008" lon="5.96468">
        <ele>2538</ele>
        <time>2019-01-20T12:06:50.000Z</time>
      </trkpt>
      <trkpt lat="45.17009" lon="5.96469">
        <ele>2538</ele>
        <time>2019-01-20T12:06:51.000Z</time>
      </trkpt>
      <trkpt lat="45.1701" lon="5.96469">
        <ele>2538</ele>
        <time>2019-01-20T12:06:52.000Z</time>
      </trkpt>
      <trkpt lat="45.1701" lon="5.96469">
        <ele>2538</ele>
        <time>2019-01-20T12:06:53.000Z</time>
      </trkpt>
      <trkpt lat="45.17011" lon="5.96469">
        <ele>2538</ele>
        <time>2019-01-20T12:06:54.000Z</time>
      </trkpt>
      <trkpt lat="45.17011" lon="5.96469">
        <ele>2539</ele>
        <time>2019-01-20T12:06:55.000Z</time>
      </trkpt>
      <trkpt lat="45.17012" lon="5.96469">
        <ele>2539</ele>
        <time>2019-01-20T12:06:56.000Z</time>
      </trkpt>
      <trkpt lat="45.17012" lon="5.9647">
        <ele>2539</ele>
        <time>2019-01-20T12:06:57.000Z</time>
      </trkpt>
      <trkpt lat="45.17013" lon="5.9647">
        <ele>2539</ele>
        <time>2019-01-20T12:06:58.000Z</time>
      </trkpt>
      <trkpt lat="45.17014" lon="5.9647">
        <ele>2539</ele>
        <time>2019-01-20T12:06:59.000Z</time>
      </trkpt>
      <trkpt lat="45.17014" lon="5.9647">
        <ele>2539</ele>
        <time>2019-01-20T12:07:00.000Z</time>
      </trkpt>
      <trkpt lat="45.17015" lon="5.9647">
        <ele>2540</ele>
        <time>2019-01-20T12:07:02.000Z</time>
      </trkpt>
      <trkpt lat="45.17015" lon="5.96471">
        <ele>2540</ele>
        <time>2019-01-20T12:07:03.000Z</time>
      </trkpt>
      <trkpt lat="45.17016" lon="5.96471">
        <ele>2540</ele>
        <time>2019-01-20T12:07:04.000Z</time>
      </trkpt>
      <trkpt lat="45.17017" lon="5.96471">
        <ele>2540</ele>
        <time>2019-01-20T12:07:05.000Z</time>
      </trkpt>
      <trkpt lat="45.17017" lon="5.96472">
        <ele>2540</ele>
        <time>2019-01-20T12:07:06.000Z</time>
      </trkpt>
      <trkpt lat="45.17017" lon="5.96472">
        <ele>2541</ele>
        <time>2019-01-20T12:07:07.000Z</time>
      </trkpt>
      <trkpt lat="45.17017" lon="5.96473">
        <ele>2541</ele>
        <time>2019-01-20T12:07:08.000Z</time>
      </trkpt>
      <trkpt lat="45.17017" lon="5.96474">
        <ele>2541</ele>
        <time>2019-01-20T12:07:09.000Z</time>
      </trkpt>
      <trkpt lat="45.17018" lon="5.96474">
        <ele>2541</ele>
        <time>2019-01-20T12:07:10.000Z</time>
      </trkpt>
      <trkpt lat="45.17018" lon="5.96475">
        <ele>2542</ele>
        <time>2019-01-20T12:07:11.000Z</time>
      </trkpt>
      <trkpt lat="45.17018" lon="5.96476">
        <ele>2542</ele>
        <time>2019-01-20T12:07:12.000Z</time>
      </trkpt>
      <trkpt lat="45.17018" lon="5.96476">
        <ele>2542</ele>
        <time>2019-01-20T12:07:13.000Z</time>
      </trkpt>
      <trkpt lat="45.17018" lon="5.96477">
        <ele>2542</ele>
        <time>2019-01-20T12:07:14.000Z</time>
      </trkpt>
      <trkpt lat="45.17019" lon="5.96478">
        <ele>2542</ele>
        <time>2019-01-20T12:07:15.000Z</time>
      </trkpt>
      <trkpt lat="45.17019" lon="5.96478">
        <ele>2542</ele>
        <time>2019-01-20T12:07:16.000Z</time>
      </trkpt>
      <trkpt lat="45.17019" lon="5.96479">
        <ele>2544</ele>
        <time>2019-01-20T12:07:17.000Z</time>
      </trkpt>
      <trkpt lat="45.17019" lon="5.9648">
        <ele>2544</ele>
        <time>2019-01-20T12:07:18.000Z</time>
      </trkpt>
      <trkpt lat="45.17019" lon="5.9648">
        <ele>2544</ele>
        <time>2019-01-20T12:07:19.000Z</time>
      </trkpt>
      <trkpt lat="45.1702" lon="5.96481">
        <ele>2544</ele>
        <time>2019-01-20T12:07:21.000Z</time>
      </trkpt>
      <trkpt lat="45.1702" lon="5.96482">
        <ele>2544</ele>
        <time>2019-01-20T12:07:22.000Z</time>
      </trkpt>
      <trkpt lat="45.1702" lon="5.96482">
        <ele>2544</ele>
        <time>2019-01-20T12:07:23.000Z</time>
      </trkpt>
      <trkpt lat="45.1702" lon="5.96483">
        <ele>2544</ele>
        <time>2019-01-20T12:07:24.000Z</time>
      </trkpt>
      <trkpt lat="45.1702" lon="5.96483">
        <ele>2544</ele>
        <time>2019-01-20T12:07:25.000Z</time>
      </trkpt>
      <trkpt lat="45.17026" lon="5.96493">
        <ele>2545</ele>
        <time>2019-01-20T12:07:26.000Z</time>
      </trkpt>
      <trkpt lat="45.17026" lon="5.96493">
        <ele>2545</ele>
        <time>2019-01-20T12:07:27.000Z</time>
      </trkpt>
      <trkpt lat="45.17026" lon="5.96493">
        <ele>2545</ele>
        <time>2019-01-20T12:07:28.000Z</time>
      </trkpt>
      <trkpt lat="45.17026" lon="5.96493">
        <ele>2545</ele>
        <time>2019-01-20T12:07:29.000Z</time>
      </trkpt>
      <trkpt lat="45.17026" lon="5.96493">
        <ele>2545</ele>
        <time>2019-01-20T12:07:30.000Z</time>
      </trkpt>
      <trkpt lat="45.17026" lon="5.96493">
        <ele>2545</ele>
        <time>2019-01-20T12:07:31.000Z</time>
      </trkpt>
      <trkpt lat="45.17026" lon="5.96493">
        <ele>2545</ele>
        <time>2019-01-20T12:07:32.000Z</time>
      </trkpt>
      <trkpt lat="45.17026" lon="5.96493">
        <ele>2545</ele>
        <time>2019-01-20T12:07:33.000Z</time>
      </trkpt>
      <trkpt lat="45.17026" lon="5.96493">
        <ele>2545</ele>
        <time>2019-01-20T12:07:34.000Z</time>
      </trkpt>
      <trkpt lat="45.17026" lon="5.96493">
        <ele>2545</ele>
        <time>2019-01-20T12:07:35.000Z</time>
      </trkpt>
      <trkpt lat="45.17026" lon="5.96493">
        <ele>2545</ele>
        <time>2019-01-20T12:07:36.000Z</time>
      </trkpt>
      <trkpt lat="45.17026" lon="5.96493">
        <ele>2546</ele>
        <time>2019-01-20T12:07:37.000Z</time>
      </trkpt>
      <trkpt lat="45.17026" lon="5.96493">
        <ele>2546</ele>
        <time>2019-01-20T12:07:38.000Z</time>
      </trkpt>
      <trkpt lat="45.17026" lon="5.96493">
        <ele>2546</ele>
        <time>2019-01-20T12:07:40.000Z</time>
      </trkpt>
      <trkpt lat="45.17026" lon="5.96493">
        <ele>2546</ele>
        <time>2019-01-20T12:07:41.000Z</time>
      </trkpt>
      <trkpt lat="45.17026" lon="5.96493">
        <ele>2547</ele>
        <time>2019-01-20T12:07:42.000Z</time>
      </trkpt>
      <trkpt lat="45.17026" lon="5.96493">
        <ele>2547</ele>
        <time>2019-01-20T12:07:43.000Z</time>
      </trkpt>
      <trkpt lat="45.17026" lon="5.96493">
        <ele>2547</ele>
        <time>2019-01-20T12:07:44.000Z</time>
      </trkpt>
      <trkpt lat="45.17026" lon="5.96493">
        <ele>2547</ele>
        <time>2019-01-20T12:07:45.000Z</time>
      </trkpt>
      <trkpt lat="45.17026" lon="5.96493">
        <ele>2548</ele>
        <time>2019-01-20T12:07:46.000Z</time>
      </trkpt>
      <trkpt lat="45.17026" lon="5.96493">
        <ele>2548</ele>
        <time>2019-01-20T12:07:47.000Z</time>
      </trkpt>
      <trkpt lat="45.17026" lon="5.96493">
        <ele>2548</ele>
        <time>2019-01-20T12:07:48.000Z</time>
      </trkpt>
      <trkpt lat="45.17026" lon="5.96493">
        <ele>2548</ele>
        <time>2019-01-20T12:07:49.000Z</time>
      </trkpt>
      <trkpt lat="45.17026" lon="5.96493">
        <ele>2548</ele>
        <time>2019-01-20T12:07:50.000Z</time>
      </trkpt>
      <trkpt lat="45.17026" lon="5.96493">
        <ele>2548</ele>
        <time>2019-01-20T12:07:51.000Z</time>
      </trkpt>
      <trkpt lat="45.17026" lon="5.96493">
        <ele>2548</ele>
        <time>2019-01-20T12:07:52.000Z</time>
      </trkpt>
      <trkpt lat="45.17026" lon="5.96493">
        <ele>2548</ele>
        <time>2019-01-20T12:07:54.000Z</time>
      </trkpt>
      <trkpt lat="45.17029" lon="5.9648">
        <ele>2548</ele>
        <time>2019-01-20T12:07:55.000Z</time>
      </trkpt>
      <trkpt lat="45.17029" lon="5.9648">
        <ele>2548</ele>
        <time>2019-01-20T12:07:56.000Z</time>
      </trkpt>
      <trkpt lat="45.17029" lon="5.9648">
        <ele>2548</ele>
        <time>2019-01-20T12:07:57.000Z</time>
      </trkpt>
      <trkpt lat="45.1703" lon="5.96477">
        <ele>2548</ele>
        <time>2019-01-20T12:07:58.000Z</time>
      </trkpt>
      <trkpt lat="45.1703" lon="5.96477">
        <ele>2548.4</ele>
        <time>2019-01-20T12:07:59.000Z</time>
      </trkpt>
      <trkpt lat="45.1703" lon="5.96477">
        <ele>2549</ele>
        <time>2019-01-20T12:08:00.000Z</time>
      </trkpt>
      <trkpt lat="45.1703" lon="5.96477">
        <ele>2549</ele>
        <time>2019-01-20T12:08:01.000Z</time>
      </trkpt>
      <trkpt lat="45.1703" lon="5.96474">
        <ele>2549</ele>
        <time>2019-01-20T12:08:02.000Z</time>
      </trkpt>
      <trkpt lat="45.1703" lon="5.96474">
        <ele>2549</ele>
        <time>2019-01-20T12:08:03.000Z</time>
      </trkpt>
      <trkpt lat="45.1703" lon="5.96474">
        <ele>2549</ele>
        <time>2019-01-20T12:08:04.000Z</time>
      </trkpt>
      <trkpt lat="45.17031" lon="5.96471">
        <ele>2549</ele>
        <time>2019-01-20T12:08:05.000Z</time>
      </trkpt>
      <trkpt lat="45.17031" lon="5.96471">
        <ele>2549</ele>
        <time>2019-01-20T12:08:06.000Z</time>
      </trkpt>
      <trkpt lat="45.17031" lon="5.96471">
        <ele>2549</ele>
        <time>2019-01-20T12:08:07.000Z</time>
      </trkpt>
      <trkpt lat="45.17031" lon="5.96468">
        <ele>2550</ele>
        <time>2019-01-20T12:08:08.000Z</time>
      </trkpt>
      <trkpt lat="45.17031" lon="5.96468">
        <ele>2550</ele>
        <time>2019-01-20T12:08:09.000Z</time>
      </trkpt>
      <trkpt lat="45.17031" lon="5.96468">
        <ele>2551</ele>
        <time>2019-01-20T12:08:10.000Z</time>
      </trkpt>
      <trkpt lat="45.17031" lon="5.96468">
        <ele>2551</ele>
        <time>2019-01-20T12:08:11.000Z</time>
      </trkpt>
      <trkpt lat="45.17031" lon="5.96468">
        <ele>2551</ele>
        <time>2019-01-20T12:08:12.000Z</time>
      </trkpt>
      <trkpt lat="45.17031" lon="5.96463">
        <ele>2551</ele>
        <time>2019-01-20T12:08:13.000Z</time>
      </trkpt>
      <trkpt lat="45.17031" lon="5.96463">
        <ele>2551</ele>
        <time>2019-01-20T12:08:14.000Z</time>
      </trkpt>
      <trkpt lat="45.17031" lon="5.96463">
        <ele>2551</ele>
        <time>2019-01-20T12:08:15.000Z</time>
      </trkpt>
      <trkpt lat="45.17031" lon="5.96463">
        <ele>2551</ele>
        <time>2019-01-20T12:08:16.000Z</time>
      </trkpt>
      <trkpt lat="45.17031" lon="5.9646">
        <ele>2551</ele>
        <time>2019-01-20T12:08:17.000Z</time>
      </trkpt>
      <trkpt lat="45.17031" lon="5.9646">
        <ele>2551</ele>
        <time>2019-01-20T12:08:18.000Z</time>
      </trkpt>
      <trkpt lat="45.17031" lon="5.9646">
        <ele>2551</ele>
        <time>2019-01-20T12:08:19.000Z</time>
      </trkpt>
      <trkpt lat="45.17031" lon="5.9646">
        <ele>2551</ele>
        <time>2019-01-20T12:08:20.000Z</time>
      </trkpt>
      <trkpt lat="45.17031" lon="5.9646">
        <ele>2551</ele>
        <time>2019-01-20T12:08:21.000Z</time>
      </trkpt>
      <trkpt lat="45.17031" lon="5.9646">
        <ele>2552</ele>
        <time>2019-01-20T12:08:22.000Z</time>
      </trkpt>
      <trkpt lat="45.17031" lon="5.9646">
        <ele>2552</ele>
        <time>2019-01-20T12:08:23.000Z</time>
      </trkpt>
      <trkpt lat="45.17031" lon="5.9646">
        <ele>2552</ele>
        <time>2019-01-20T12:08:24.000Z</time>
      </trkpt>
      <trkpt lat="45.17031" lon="5.9646">
        <ele>2553</ele>
        <time>2019-01-20T12:08:25.000Z</time>
      </trkpt>
      <trkpt lat="45.17031" lon="5.9646">
        <ele>2553</ele>
        <time>2019-01-20T12:08:26.000Z</time>
      </trkpt>
      <trkpt lat="45.17031" lon="5.9646">
        <ele>2553</ele>
        <time>2019-01-20T12:08:27.000Z</time>
      </trkpt>
      <trkpt lat="45.17031" lon="5.9646">
        <ele>2553</ele>
        <time>2019-01-20T12:08:28.000Z</time>
      </trkpt>
      <trkpt lat="45.17031" lon="5.9646">
        <ele>2553</ele>
        <time>2019-01-20T12:08:29.000Z</time>
      </trkpt>
      <trkpt lat="45.17031" lon="5.9646">
        <ele>2553</ele>
        <time>2019-01-20T12:08:30.000Z</time>
      </trkpt>
      <trkpt lat="45.17031" lon="5.9646">
        <ele>2553</ele>
        <time>2019-01-20T12:08:31.000Z</time>
      </trkpt>
      <trkpt lat="45.17031" lon="5.9646">
        <ele>2553</ele>
        <time>2019-01-20T12:08:32.000Z</time>
      </trkpt>
      <trkpt lat="45.17033" lon="5.96459">
        <ele>2553</ele>
        <time>2019-01-20T12:08:33.000Z</time>
      </trkpt>
      <trkpt lat="45.17033" lon="5.96459">
        <ele>2554</ele>
        <time>2019-01-20T12:08:34.000Z</time>
      </trkpt>
      <trkpt lat="45.17033" lon="5.96459">
        <ele>2554</ele>
        <time>2019-01-20T12:08:35.000Z</time>
      </trkpt>
      <trkpt lat="45.17033" lon="5.96459">
        <ele>2554</ele>
        <time>2019-01-20T12:08:37.000Z</time>
      </trkpt>
      <trkpt lat="45.17033" lon="5.96462">
        <ele>2554</ele>
        <time>2019-01-20T12:08:38.000Z</time>
      </trkpt>
      <trkpt lat="45.17033" lon="5.96462">
        <ele>2554</ele>
        <time>2019-01-20T12:08:39.000Z</time>
      </trkpt>
      <trkpt lat="45.17033" lon="5.96462">
        <ele>2554</ele>
        <time>2019-01-20T12:08:40.000Z</time>
      </trkpt>
      <trkpt lat="45.17033" lon="5.96462">
        <ele>2555</ele>
        <time>2019-01-20T12:08:41.000Z</time>
      </trkpt>
      <trkpt lat="45.17033" lon="5.96462">
        <ele>2555</ele>
        <time>2019-01-20T12:08:42.000Z</time>
      </trkpt>
      <trkpt lat="45.17033" lon="5.96462">
        <ele>2555</ele>
        <time>2019-01-20T12:08:43.000Z</time>
      </trkpt>
      <trkpt lat="45.17035" lon="5.96464">
        <ele>2555</ele>
        <time>2019-01-20T12:08:44.000Z</time>
      </trkpt>
      <trkpt lat="45.17035" lon="5.96464">
        <ele>2555</ele>
        <time>2019-01-20T12:08:45.000Z</time>
      </trkpt>
      <trkpt lat="45.17035" lon="5.96464">
        <ele>2555</ele>
        <time>2019-01-20T12:08:46.000Z</time>
      </trkpt>
      <trkpt lat="45.17035" lon="5.96464">
        <ele>2557</ele>
        <time>2019-01-20T12:08:47.000Z</time>
      </trkpt>
      <trkpt lat="45.17037" lon="5.96466">
        <ele>2557</ele>
        <time>2019-01-20T12:08:48.000Z</time>
      </trkpt>
      <trkpt lat="45.17037" lon="5.96466">
        <ele>2557</ele>
        <time>2019-01-20T12:08:49.000Z</time>
      </trkpt>
      <trkpt lat="45.17038" lon="5.96469">
        <ele>2558</ele>
        <time>2019-01-20T12:08:50.000Z</time>
      </trkpt>
      <trkpt lat="45.17038" lon="5.96469">
        <ele>2558</ele>
        <time>2019-01-20T12:08:51.000Z</time>
      </trkpt>
      <trkpt lat="45.17039" lon="5.96471">
        <ele>2557</ele>
        <time>2019-01-20T12:08:52.000Z</time>
      </trkpt>
      <trkpt lat="45.17039" lon="5.96471">
        <ele>2557</ele>
        <time>2019-01-20T12:08:53.000Z</time>
      </trkpt>
      <trkpt lat="45.17039" lon="5.96471">
        <ele>2558</ele>
        <time>2019-01-20T12:08:54.000Z</time>
      </trkpt>
      <trkpt lat="45.17039" lon="5.96471">
        <ele>2558</ele>
        <time>2019-01-20T12:08:56.000Z</time>
      </trkpt>
      <trkpt lat="45.17041" lon="5.96473">
        <ele>2558</ele>
        <time>2019-01-20T12:08:57.000Z</time>
      </trkpt>
      <trkpt lat="45.17041" lon="5.96473">
        <ele>2558</ele>
        <time>2019-01-20T12:08:58.000Z</time>
      </trkpt>
      <trkpt lat="45.17041" lon="5.96473">
        <ele>2559</ele>
        <time>2019-01-20T12:08:59.000Z</time>
      </trkpt>
      <trkpt lat="45.17041" lon="5.96473">
        <ele>2559</ele>
        <time>2019-01-20T12:09:00.000Z</time>
      </trkpt>
      <trkpt lat="45.17041" lon="5.96473">
        <ele>2558</ele>
        <time>2019-01-20T12:09:01.000Z</time>
      </trkpt>
      <trkpt lat="45.17041" lon="5.96473">
        <ele>2558</ele>
        <time>2019-01-20T12:09:02.000Z</time>
      </trkpt>
      <trkpt lat="45.17043" lon="5.96474">
        <ele>2559</ele>
        <time>2019-01-20T12:09:03.000Z</time>
      </trkpt>
      <trkpt lat="45.17043" lon="5.96474">
        <ele>2559</ele>
        <time>2019-01-20T12:09:04.000Z</time>
      </trkpt>
      <trkpt lat="45.17043" lon="5.96474">
        <ele>2559</ele>
        <time>2019-01-20T12:09:05.000Z</time>
      </trkpt>
      <trkpt lat="45.17043" lon="5.96474">
        <ele>2559</ele>
        <time>2019-01-20T12:09:06.000Z</time>
      </trkpt>
      <trkpt lat="45.17043" lon="5.96474">
        <ele>2559</ele>
        <time>2019-01-20T12:09:07.000Z</time>
      </trkpt>
      <trkpt lat="45.17043" lon="5.96474">
        <ele>2559</ele>
        <time>2019-01-20T12:09:08.000Z</time>
      </trkpt>
      <trkpt lat="45.17043" lon="5.96474">
        <ele>2559</ele>
        <time>2019-01-20T12:09:09.000Z</time>
      </trkpt>
      <trkpt lat="45.17051" lon="5.9648">
        <ele>2559</ele>
        <time>2019-01-20T12:09:10.000Z</time>
      </trkpt>
      <trkpt lat="45.17051" lon="5.9648">
        <ele>2559</ele>
        <time>2019-01-20T12:09:11.000Z</time>
      </trkpt>
      <trkpt lat="45.17051" lon="5.9648">
        <ele>2559</ele>
        <time>2019-01-20T12:09:12.000Z</time>
      </trkpt>
      <trkpt lat="45.17051" lon="5.9648">
        <ele>2559</ele>
        <time>2019-01-20T12:09:13.000Z</time>
      </trkpt>
      <trkpt lat="45.17051" lon="5.9648">
        <ele>2559</ele>
        <time>2019-01-20T12:09:15.000Z</time>
      </trkpt>
      <trkpt lat="45.17051" lon="5.9648">
        <ele>2559</ele>
        <time>2019-01-20T12:09:16.000Z</time>
      </trkpt>
      <trkpt lat="45.17051" lon="5.9648">
        <ele>2559</ele>
        <time>2019-01-20T12:09:17.000Z</time>
      </trkpt>
      <trkpt lat="45.17051" lon="5.9648">
        <ele>2559</ele>
        <time>2019-01-20T12:09:18.000Z</time>
      </trkpt>
      <trkpt lat="45.1705" lon="5.96478">
        <ele>2559</ele>
        <time>2019-01-20T12:09:19.000Z</time>
      </trkpt>
      <trkpt lat="45.1705" lon="5.96478">
        <ele>2559</ele>
        <time>2019-01-20T12:09:20.000Z</time>
      </trkpt>
      <trkpt lat="45.1705" lon="5.96478">
        <ele>2560</ele>
        <time>2019-01-20T12:09:21.000Z</time>
      </trkpt>
      <trkpt lat="45.17047" lon="5.96479">
        <ele>2560</ele>
        <time>2019-01-20T12:09:22.000Z</time>
      </trkpt>
      <trkpt lat="45.17047" lon="5.96479">
        <ele>2560</ele>
        <time>2019-01-20T12:09:23.000Z</time>
      </trkpt>
      <trkpt lat="45.17047" lon="5.96479">
        <ele>2560</ele>
        <time>2019-01-20T12:09:24.000Z</time>
      </trkpt>
      <trkpt lat="45.17047" lon="5.96479">
        <ele>2560</ele>
        <time>2019-01-20T12:09:25.000Z</time>
      </trkpt>
      <trkpt lat="45.17047" lon="5.96479">
        <ele>2560</ele>
        <time>2019-01-20T12:09:26.000Z</time>
      </trkpt>
      <trkpt lat="45.17047" lon="5.96479">
        <ele>2560</ele>
        <time>2019-01-20T12:09:27.000Z</time>
      </trkpt>
      <trkpt lat="45.17047" lon="5.96479">
        <ele>2560</ele>
        <time>2019-01-20T12:09:28.000Z</time>
      </trkpt>
      <trkpt lat="45.17047" lon="5.96479">
        <ele>2560</ele>
        <time>2019-01-20T12:09:29.000Z</time>
      </trkpt>
      <trkpt lat="45.17047" lon="5.96479">
        <ele>2560</ele>
        <time>2019-01-20T12:09:30.000Z</time>
      </trkpt>
      <trkpt lat="45.17047" lon="5.96479">
        <ele>2560</ele>
        <time>2019-01-20T12:09:31.000Z</time>
      </trkpt>
      <trkpt lat="45.17047" lon="5.96479">
        <ele>2560</ele>
        <time>2019-01-20T12:09:32.000Z</time>
      </trkpt>
      <trkpt lat="45.17047" lon="5.96479">
        <ele>2560</ele>
        <time>2019-01-20T12:09:34.000Z</time>
      </trkpt>
      <trkpt lat="45.17047" lon="5.96479">
        <ele>2560</ele>
        <time>2019-01-20T12:09:35.000Z</time>
      </trkpt>
      <trkpt lat="45.17047" lon="5.96479">
        <ele>2560</ele>
        <time>2019-01-20T12:09:36.000Z</time>
      </trkpt>
      <trkpt lat="45.17047" lon="5.96479">
        <ele>2561</ele>
        <time>2019-01-20T12:09:37.000Z</time>
      </trkpt>
      <trkpt lat="45.17047" lon="5.96479">
        <ele>2561</ele>
        <time>2019-01-20T12:09:38.000Z</time>
      </trkpt>
      <trkpt lat="45.17047" lon="5.96479">
        <ele>2561</ele>
        <time>2019-01-20T12:09:39.000Z</time>
      </trkpt>
      <trkpt lat="45.17047" lon="5.96479">
        <ele>2561</ele>
        <time>2019-01-20T12:09:40.000Z</time>
      </trkpt>
      <trkpt lat="45.17047" lon="5.96479">
        <ele>2561</ele>
        <time>2019-01-20T12:09:41.000Z</time>
      </trkpt>
      <trkpt lat="45.17047" lon="5.96479">
        <ele>2561</ele>
        <time>2019-01-20T12:09:42.000Z</time>
      </trkpt>
      <trkpt lat="45.17047" lon="5.96479">
        <ele>2561</ele>
        <time>2019-01-20T12:09:43.000Z</time>
      </trkpt>
      <trkpt lat="45.17047" lon="5.96479">
        <ele>2561</ele>
        <time>2019-01-20T12:09:44.000Z</time>
      </trkpt>
      <trkpt lat="45.17047" lon="5.96479">
        <ele>2562</ele>
        <time>2019-01-20T12:09:45.000Z</time>
      </trkpt>
      <trkpt lat="45.17047" lon="5.96479">
        <ele>2562</ele>
        <time>2019-01-20T12:09:46.000Z</time>
      </trkpt>
      <trkpt lat="45.17047" lon="5.96479">
        <ele>2562</ele>
        <time>2019-01-20T12:09:47.000Z</time>
      </trkpt>
      <trkpt lat="45.17045" lon="5.96465">
        <ele>2562</ele>
        <time>2019-01-20T12:09:49.000Z</time>
      </trkpt>
      <trkpt lat="45.17045" lon="5.96465">
        <ele>2562</ele>
        <time>2019-01-20T12:09:50.000Z</time>
      </trkpt>
      <trkpt lat="45.17045" lon="5.96465">
        <ele>2563</ele>
        <time>2019-01-20T12:09:51.000Z</time>
      </trkpt>
      <trkpt lat="45.17045" lon="5.96465">
        <ele>2563</ele>
        <time>2019-01-20T12:09:53.000Z</time>
      </trkpt>
      <trkpt lat="45.17045" lon="5.96465">
        <ele>2564</ele>
        <time>2019-01-20T12:09:54.000Z</time>
      </trkpt>
      <trkpt lat="45.17045" lon="5.96465">
        <ele>2564</ele>
        <time>2019-01-20T12:09:55.000Z</time>
      </trkpt>
      <trkpt lat="45.17045" lon="5.96465">
        <ele>2564</ele>
        <time>2019-01-20T12:09:56.000Z</time>
      </trkpt>
      <trkpt lat="45.17045" lon="5.96465">
        <ele>2564</ele>
        <time>2019-01-20T12:09:57.000Z</time>
      </trkpt>
      <trkpt lat="45.17045" lon="5.96465">
        <ele>2564</ele>
        <time>2019-01-20T12:09:58.000Z</time>
      </trkpt>
      <trkpt lat="45.17045" lon="5.96465">
        <ele>2564</ele>
        <time>2019-01-20T12:09:59.000Z</time>
      </trkpt>
      <trkpt lat="45.17045" lon="5.96465">
        <ele>2565</ele>
        <time>2019-01-20T12:10:00.000Z</time>
      </trkpt>
      <trkpt lat="45.17045" lon="5.96465">
        <ele>2565</ele>
        <time>2019-01-20T12:10:01.000Z</time>
      </trkpt>
      <trkpt lat="45.17045" lon="5.96465">
        <ele>2565</ele>
        <time>2019-01-20T12:10:02.000Z</time>
      </trkpt>
      <trkpt lat="45.17045" lon="5.96465">
        <ele>2565</ele>
        <time>2019-01-20T12:10:03.000Z</time>
      </trkpt>
      <trkpt lat="45.17045" lon="5.96464">
        <ele>2565</ele>
        <time>2019-01-20T12:10:04.000Z</time>
      </trkpt>
      <trkpt lat="45.17046" lon="5.96463">
        <ele>2565</ele>
        <time>2019-01-20T12:10:05.000Z</time>
      </trkpt>
      <trkpt lat="45.17046" lon="5.96461">
        <ele>2565</ele>
        <time>2019-01-20T12:10:06.000Z</time>
      </trkpt>
      <trkpt lat="45.17046" lon="5.9646">
        <ele>2565</ele>
        <time>2019-01-20T12:10:07.000Z</time>
      </trkpt>
      <trkpt lat="45.17046" lon="5.96459">
        <ele>2565</ele>
        <time>2019-01-20T12:10:08.000Z</time>
      </trkpt>
      <trkpt lat="45.17046" lon="5.96458">
        <ele>2566</ele>
        <time>2019-01-20T12:10:09.000Z</time>
      </trkpt>
      <trkpt lat="45.17046" lon="5.96456">
        <ele>2566</ele>
        <time>2019-01-20T12:10:10.000Z</time>
      </trkpt>
      <trkpt lat="45.17046" lon="5.96455">
        <ele>2567</ele>
        <time>2019-01-20T12:10:12.000Z</time>
      </trkpt>
      <trkpt lat="45.17046" lon="5.96454">
        <ele>2567</ele>
        <time>2019-01-20T12:10:13.000Z</time>
      </trkpt>
      <trkpt lat="45.17046" lon="5.96454">
        <ele>2567</ele>
        <time>2019-01-20T12:10:14.000Z</time>
      </trkpt>
      <trkpt lat="45.17044" lon="5.96443">
        <ele>2567</ele>
        <time>2019-01-20T12:10:15.000Z</time>
      </trkpt>
      <trkpt lat="45.17044" lon="5.96443">
        <ele>2567</ele>
        <time>2019-01-20T12:10:16.000Z</time>
      </trkpt>
      <trkpt lat="45.17044" lon="5.96443">
        <ele>2567</ele>
        <time>2019-01-20T12:10:17.000Z</time>
      </trkpt>
      <trkpt lat="45.17044" lon="5.96443">
        <ele>2567</ele>
        <time>2019-01-20T12:10:18.000Z</time>
      </trkpt>
      <trkpt lat="45.17044" lon="5.96443">
        <ele>2567</ele>
        <time>2019-01-20T12:10:19.000Z</time>
      </trkpt>
      <trkpt lat="45.17044" lon="5.96443">
        <ele>2569</ele>
        <time>2019-01-20T12:10:20.000Z</time>
      </trkpt>
      <trkpt lat="45.17044" lon="5.96443">
        <ele>2569</ele>
        <time>2019-01-20T12:10:21.000Z</time>
      </trkpt>
      <trkpt lat="45.17044" lon="5.96443">
        <ele>2569</ele>
        <time>2019-01-20T12:10:22.000Z</time>
      </trkpt>
      <trkpt lat="45.17045" lon="5.96443">
        <ele>2569</ele>
        <time>2019-01-20T12:10:23.000Z</time>
      </trkpt>
      <trkpt lat="45.17045" lon="5.96443">
        <ele>2570</ele>
        <time>2019-01-20T12:10:24.000Z</time>
      </trkpt>
      <trkpt lat="45.17045" lon="5.96443">
        <ele>2570</ele>
        <time>2019-01-20T12:10:25.000Z</time>
      </trkpt>
      <trkpt lat="45.17045" lon="5.96442">
        <ele>2570</ele>
        <time>2019-01-20T12:10:26.000Z</time>
      </trkpt>
      <trkpt lat="45.17045" lon="5.96442">
        <ele>2570</ele>
        <time>2019-01-20T12:10:27.000Z</time>
      </trkpt>
      <trkpt lat="45.17045" lon="5.96442">
        <ele>2570</ele>
        <time>2019-01-20T12:10:28.000Z</time>
      </trkpt>
      <trkpt lat="45.17045" lon="5.96442">
        <ele>2570</ele>
        <time>2019-01-20T12:10:29.000Z</time>
      </trkpt>
      <trkpt lat="45.17046" lon="5.96442">
        <ele>2570</ele>
        <time>2019-01-20T12:10:31.000Z</time>
      </trkpt>
      <trkpt lat="45.17046" lon="5.96442">
        <ele>2570</ele>
        <time>2019-01-20T12:10:32.000Z</time>
      </trkpt>
      <trkpt lat="45.17046" lon="5.96442">
        <ele>2571</ele>
        <time>2019-01-20T12:10:33.000Z</time>
      </trkpt>
      <trkpt lat="45.17046" lon="5.96441">
        <ele>2571</ele>
        <time>2019-01-20T12:10:34.000Z</time>
      </trkpt>
      <trkpt lat="45.17045" lon="5.96441">
        <ele>2571</ele>
        <time>2019-01-20T12:10:35.000Z</time>
      </trkpt>
      <trkpt lat="45.17045" lon="5.9644">
        <ele>2571</ele>
        <time>2019-01-20T12:10:36.000Z</time>
      </trkpt>
      <trkpt lat="45.17045" lon="5.96439">
        <ele>2571</ele>
        <time>2019-01-20T12:10:37.000Z</time>
      </trkpt>
      <trkpt lat="45.17044" lon="5.96439">
        <ele>2571</ele>
        <time>2019-01-20T12:10:38.000Z</time>
      </trkpt>
      <trkpt lat="45.17044" lon="5.96438">
        <ele>2571</ele>
        <time>2019-01-20T12:10:39.000Z</time>
      </trkpt>
      <trkpt lat="45.17044" lon="5.96437">
        <ele>2571</ele>
        <time>2019-01-20T12:10:40.000Z</time>
      </trkpt>
      <trkpt lat="45.17044" lon="5.96436">
        <ele>2571</ele>
        <time>2019-01-20T12:10:41.000Z</time>
      </trkpt>
      <trkpt lat="45.17043" lon="5.96436">
        <ele>2572</ele>
        <time>2019-01-20T12:10:42.000Z</time>
      </trkpt>
      <trkpt lat="45.17043" lon="5.96435">
        <ele>2572</ele>
        <time>2019-01-20T12:10:43.000Z</time>
      </trkpt>
      <trkpt lat="45.17043" lon="5.96434">
        <ele>2572</ele>
        <time>2019-01-20T12:10:44.000Z</time>
      </trkpt>
      <trkpt lat="45.17042" lon="5.96434">
        <ele>2573</ele>
        <time>2019-01-20T12:10:45.000Z</time>
      </trkpt>
      <trkpt lat="45.17042" lon="5.96433">
        <ele>2573</ele>
        <time>2019-01-20T12:10:46.000Z</time>
      </trkpt>
      <trkpt lat="45.17042" lon="5.96432">
        <ele>2573</ele>
        <time>2019-01-20T12:10:47.000Z</time>
      </trkpt>
      <trkpt lat="45.17042" lon="5.96432">
        <ele>2573</ele>
        <time>2019-01-20T12:10:48.000Z</time>
      </trkpt>
      <trkpt lat="45.17041" lon="5.96431">
        <ele>2573</ele>
        <time>2019-01-20T12:10:50.000Z</time>
      </trkpt>
      <trkpt lat="45.17041" lon="5.9643">
        <ele>2573</ele>
        <time>2019-01-20T12:10:51.000Z</time>
      </trkpt>
      <trkpt lat="45.1704" lon="5.96417">
        <ele>2574</ele>
        <time>2019-01-20T12:10:52.000Z</time>
      </trkpt>
      <trkpt lat="45.1704" lon="5.96417">
        <ele>2574</ele>
        <time>2019-01-20T12:10:53.000Z</time>
      </trkpt>
      <trkpt lat="45.1704" lon="5.96417">
        <ele>2574</ele>
        <time>2019-01-20T12:10:54.000Z</time>
      </trkpt>
      <trkpt lat="45.1704" lon="5.96417">
        <ele>2574</ele>
        <time>2019-01-20T12:10:55.000Z</time>
      </trkpt>
      <trkpt lat="45.1704" lon="5.96417">
        <ele>2574</ele>
        <time>2019-01-20T12:10:56.000Z</time>
      </trkpt>
      <trkpt lat="45.1704" lon="5.96417">
        <ele>2575</ele>
        <time>2019-01-20T12:10:57.000Z</time>
      </trkpt>
      <trkpt lat="45.1704" lon="5.96417">
        <ele>2575</ele>
        <time>2019-01-20T12:10:58.000Z</time>
      </trkpt>
      <trkpt lat="45.1704" lon="5.96417">
        <ele>2575</ele>
        <time>2019-01-20T12:10:59.000Z</time>
      </trkpt>
      <trkpt lat="45.1704" lon="5.96417">
        <ele>2575</ele>
        <time>2019-01-20T12:11:00.000Z</time>
      </trkpt>
      <trkpt lat="45.1704" lon="5.96417">
        <ele>2575</ele>
        <time>2019-01-20T12:11:01.000Z</time>
      </trkpt>
      <trkpt lat="45.1704" lon="5.96417">
        <ele>2575</ele>
        <time>2019-01-20T12:11:02.000Z</time>
      </trkpt>
      <trkpt lat="45.1704" lon="5.96417">
        <ele>2575</ele>
        <time>2019-01-20T12:11:03.000Z</time>
      </trkpt>
      <trkpt lat="45.1704" lon="5.96417">
        <ele>2575</ele>
        <time>2019-01-20T12:11:04.000Z</time>
      </trkpt>
      <trkpt lat="45.1704" lon="5.96417">
        <ele>2575</ele>
        <time>2019-01-20T12:11:05.000Z</time>
      </trkpt>
      <trkpt lat="45.1704" lon="5.96417">
        <ele>2575</ele>
        <time>2019-01-20T12:11:06.000Z</time>
      </trkpt>
      <trkpt lat="45.1704" lon="5.96417">
        <ele>2575</ele>
        <time>2019-01-20T12:11:07.000Z</time>
      </trkpt>
      <trkpt lat="45.1704" lon="5.96417">
        <ele>2575</ele>
        <time>2019-01-20T12:11:09.000Z</time>
      </trkpt>
      <trkpt lat="45.1704" lon="5.96417">
        <ele>2575</ele>
        <time>2019-01-20T12:11:10.000Z</time>
      </trkpt>
      <trkpt lat="45.1704" lon="5.96417">
        <ele>2575</ele>
        <time>2019-01-20T12:11:11.000Z</time>
      </trkpt>
      <trkpt lat="45.1704" lon="5.96417">
        <ele>2575</ele>
        <time>2019-01-20T12:11:12.000Z</time>
      </trkpt>
      <trkpt lat="45.1704" lon="5.96417">
        <ele>2575</ele>
        <time>2019-01-20T12:11:13.000Z</time>
      </trkpt>
      <trkpt lat="45.1704" lon="5.96417">
        <ele>2575</ele>
        <time>2019-01-20T12:11:14.000Z</time>
      </trkpt>
      <trkpt lat="45.1704" lon="5.96417">
        <ele>2575</ele>
        <time>2019-01-20T12:11:15.000Z</time>
      </trkpt>
      <trkpt lat="45.1704" lon="5.96417">
        <ele>2576</ele>
        <time>2019-01-20T12:11:16.000Z</time>
      </trkpt>
      <trkpt lat="45.17041" lon="5.96404">
        <ele>2576</ele>
        <time>2019-01-20T12:11:18.000Z</time>
      </trkpt>
      <trkpt lat="45.17041" lon="5.96404">
        <ele>2577</ele>
        <time>2019-01-20T12:11:19.000Z</time>
      </trkpt>
      <trkpt lat="45.17041" lon="5.96404">
        <ele>2577</ele>
        <time>2019-01-20T12:11:20.000Z</time>
      </trkpt>
      <trkpt lat="45.17041" lon="5.96404">
        <ele>2577</ele>
        <time>2019-01-20T12:11:21.000Z</time>
      </trkpt>
      <trkpt lat="45.17041" lon="5.96404">
        <ele>2577</ele>
        <time>2019-01-20T12:11:22.000Z</time>
      </trkpt>
      <trkpt lat="45.17041" lon="5.96404">
        <ele>2577</ele>
        <time>2019-01-20T12:11:23.000Z</time>
      </trkpt>
      <trkpt lat="45.17041" lon="5.96404">
        <ele>2577</ele>
        <time>2019-01-20T12:11:24.000Z</time>
      </trkpt>
      <trkpt lat="45.17041" lon="5.96404">
        <ele>2577</ele>
        <time>2019-01-20T12:11:25.000Z</time>
      </trkpt>
      <trkpt lat="45.17041" lon="5.96404">
        <ele>2577</ele>
        <time>2019-01-20T12:11:26.000Z</time>
      </trkpt>
      <trkpt lat="45.17041" lon="5.96404">
        <ele>2577.6</ele>
        <time>2019-01-20T12:11:28.000Z</time>
      </trkpt>
      <trkpt lat="45.17041" lon="5.96404">
        <ele>2578</ele>
        <time>2019-01-20T12:11:29.000Z</time>
      </trkpt>
      <trkpt lat="45.17041" lon="5.96404">
        <ele>2578</ele>
        <time>2019-01-20T12:11:30.000Z</time>
      </trkpt>
      <trkpt lat="45.17041" lon="5.96404">
        <ele>2578</ele>
        <time>2019-01-20T12:11:31.000Z</time>
      </trkpt>
      <trkpt lat="45.17041" lon="5.96404">
        <ele>2578</ele>
        <time>2019-01-20T12:11:32.000Z</time>
      </trkpt>
      <trkpt lat="45.17041" lon="5.96404">
        <ele>2579</ele>
        <time>2019-01-20T12:11:33.000Z</time>
      </trkpt>
      <trkpt lat="45.17041" lon="5.96404">
        <ele>2579</ele>
        <time>2019-01-20T12:11:34.000Z</time>
      </trkpt>
      <trkpt lat="45.17041" lon="5.96404">
        <ele>2579</ele>
        <time>2019-01-20T12:11:35.000Z</time>
      </trkpt>
      <trkpt lat="45.17041" lon="5.96403">
        <ele>2579</ele>
        <time>2019-01-20T12:11:36.000Z</time>
      </trkpt>
      <trkpt lat="45.17041" lon="5.96403">
        <ele>2579</ele>
        <time>2019-01-20T12:11:37.000Z</time>
      </trkpt>
      <trkpt lat="45.17041" lon="5.96402">
        <ele>2579</ele>
        <time>2019-01-20T12:11:38.000Z</time>
      </trkpt>
      <trkpt lat="45.17041" lon="5.96401">
        <ele>2581</ele>
        <time>2019-01-20T12:11:39.000Z</time>
      </trkpt>
      <trkpt lat="45.17041" lon="5.964">
        <ele>2581</ele>
        <time>2019-01-20T12:11:40.000Z</time>
      </trkpt>
      <trkpt lat="45.17041" lon="5.964">
        <ele>2581</ele>
        <time>2019-01-20T12:11:41.000Z</time>
      </trkpt>
      <trkpt lat="45.17041" lon="5.96399">
        <ele>2581</ele>
        <time>2019-01-20T12:11:42.000Z</time>
      </trkpt>
      <trkpt lat="45.1704" lon="5.96398">
        <ele>2581</ele>
        <time>2019-01-20T12:11:43.000Z</time>
      </trkpt>
      <trkpt lat="45.1704" lon="5.96397">
        <ele>2581</ele>
        <time>2019-01-20T12:11:44.000Z</time>
      </trkpt>
      <trkpt lat="45.1704" lon="5.96397">
        <ele>2581</ele>
        <time>2019-01-20T12:11:45.000Z</time>
      </trkpt>
      <trkpt lat="45.1704" lon="5.96396">
        <ele>2581</ele>
        <time>2019-01-20T12:11:47.000Z</time>
      </trkpt>
      <trkpt lat="45.1704" lon="5.96395">
        <ele>2582</ele>
        <time>2019-01-20T12:11:48.000Z</time>
      </trkpt>
      <trkpt lat="45.1704" lon="5.96394">
        <ele>2582</ele>
        <time>2019-01-20T12:11:49.000Z</time>
      </trkpt>
      <trkpt lat="45.1704" lon="5.96394">
        <ele>2582</ele>
        <time>2019-01-20T12:11:50.000Z</time>
      </trkpt>
      <trkpt lat="45.1704" lon="5.96393">
        <ele>2582</ele>
        <time>2019-01-20T12:11:51.000Z</time>
      </trkpt>
      <trkpt lat="45.1704" lon="5.96392">
        <ele>2582</ele>
        <time>2019-01-20T12:11:52.000Z</time>
      </trkpt>
      <trkpt lat="45.1704" lon="5.96391">
        <ele>2582</ele>
        <time>2019-01-20T12:11:53.000Z</time>
      </trkpt>
      <trkpt lat="45.1704" lon="5.96391">
        <ele>2582</ele>
        <time>2019-01-20T12:11:54.000Z</time>
      </trkpt>
      <trkpt lat="45.17041" lon="5.96378">
        <ele>2582</ele>
        <time>2019-01-20T12:11:55.000Z</time>
      </trkpt>
      <trkpt lat="45.17041" lon="5.96378">
        <ele>2583</ele>
        <time>2019-01-20T12:11:56.000Z</time>
      </trkpt>
      <trkpt lat="45.17041" lon="5.96378">
        <ele>2583</ele>
        <time>2019-01-20T12:11:57.000Z</time>
      </trkpt>
      <trkpt lat="45.17041" lon="5.96378">
        <ele>2583</ele>
        <time>2019-01-20T12:11:58.000Z</time>
      </trkpt>
      <trkpt lat="45.17041" lon="5.96378">
        <ele>2583</ele>
        <time>2019-01-20T12:11:59.000Z</time>
      </trkpt>
      <trkpt lat="45.17041" lon="5.96378">
        <ele>2583</ele>
        <time>2019-01-20T12:12:00.000Z</time>
      </trkpt>
      <trkpt lat="45.17041" lon="5.96378">
        <ele>2583</ele>
        <time>2019-01-20T12:12:01.000Z</time>
      </trkpt>
      <trkpt lat="45.17041" lon="5.96378">
        <ele>2583</ele>
        <time>2019-01-20T12:12:02.000Z</time>
      </trkpt>
      <trkpt lat="45.17041" lon="5.96378">
        <ele>2583</ele>
        <time>2019-01-20T12:12:03.000Z</time>
      </trkpt>
      <trkpt lat="45.17041" lon="5.96378">
        <ele>2584</ele>
        <time>2019-01-20T12:12:04.000Z</time>
      </trkpt>
      <trkpt lat="45.17041" lon="5.96378">
        <ele>2585</ele>
        <time>2019-01-20T12:12:06.000Z</time>
      </trkpt>
      <trkpt lat="45.17041" lon="5.96378">
        <ele>2586</ele>
        <time>2019-01-20T12:12:07.000Z</time>
      </trkpt>
      <trkpt lat="45.17041" lon="5.96378">
        <ele>2586</ele>
        <time>2019-01-20T12:12:08.000Z</time>
      </trkpt>
      <trkpt lat="45.17041" lon="5.96378">
        <ele>2586</ele>
        <time>2019-01-20T12:12:09.000Z</time>
      </trkpt>
      <trkpt lat="45.17041" lon="5.96378">
        <ele>2586</ele>
        <time>2019-01-20T12:12:10.000Z</time>
      </trkpt>
      <trkpt lat="45.17041" lon="5.96378">
        <ele>2586</ele>
        <time>2019-01-20T12:12:11.000Z</time>
      </trkpt>
      <trkpt lat="45.17041" lon="5.96378">
        <ele>2586</ele>
        <time>2019-01-20T12:12:12.000Z</time>
      </trkpt>
      <trkpt lat="45.1704" lon="5.96365">
        <ele>2586</ele>
        <time>2019-01-20T12:12:13.000Z</time>
      </trkpt>
      <trkpt lat="45.1704" lon="5.96365">
        <ele>2586</ele>
        <time>2019-01-20T12:12:14.000Z</time>
      </trkpt>
      <trkpt lat="45.1704" lon="5.96365">
        <ele>2586</ele>
        <time>2019-01-20T12:12:15.000Z</time>
      </trkpt>
      <trkpt lat="45.1704" lon="5.96365">
        <ele>2586</ele>
        <time>2019-01-20T12:12:16.000Z</time>
      </trkpt>
      <trkpt lat="45.1704" lon="5.96365">
        <ele>2586</ele>
        <time>2019-01-20T12:12:17.000Z</time>
      </trkpt>
      <trkpt lat="45.1704" lon="5.96365">
        <ele>2587</ele>
        <time>2019-01-20T12:12:18.000Z</time>
      </trkpt>
      <trkpt lat="45.1704" lon="5.96365">
        <ele>2587</ele>
        <time>2019-01-20T12:12:19.000Z</time>
      </trkpt>
      <trkpt lat="45.1704" lon="5.96365">
        <ele>2587</ele>
        <time>2019-01-20T12:12:20.000Z</time>
      </trkpt>
      <trkpt lat="45.1704" lon="5.96365">
        <ele>2587</ele>
        <time>2019-01-20T12:12:21.000Z</time>
      </trkpt>
      <trkpt lat="45.1704" lon="5.96365">
        <ele>2587</ele>
        <time>2019-01-20T12:12:22.000Z</time>
      </trkpt>
      <trkpt lat="45.1704" lon="5.96365">
        <ele>2587</ele>
        <time>2019-01-20T12:12:23.000Z</time>
      </trkpt>
      <trkpt lat="45.1704" lon="5.96365">
        <ele>2587</ele>
        <time>2019-01-20T12:12:25.000Z</time>
      </trkpt>
      <trkpt lat="45.1704" lon="5.96365">
        <ele>2587</ele>
        <time>2019-01-20T12:12:26.000Z</time>
      </trkpt>
      <trkpt lat="45.1704" lon="5.96365">
        <ele>2587</ele>
        <time>2019-01-20T12:12:27.000Z</time>
      </trkpt>
      <trkpt lat="45.1704" lon="5.96365">
        <ele>2588</ele>
        <time>2019-01-20T12:12:28.000Z</time>
      </trkpt>
      <trkpt lat="45.1704" lon="5.96365">
        <ele>2588</ele>
        <time>2019-01-20T12:12:29.000Z</time>
      </trkpt>
      <trkpt lat="45.1704" lon="5.96365">
        <ele>2588</ele>
        <time>2019-01-20T12:12:30.000Z</time>
      </trkpt>
      <trkpt lat="45.1704" lon="5.96365">
        <ele>2588</ele>
        <time>2019-01-20T12:12:31.000Z</time>
      </trkpt>
      <trkpt lat="45.1704" lon="5.96365">
        <ele>2588</ele>
        <time>2019-01-20T12:12:32.000Z</time>
      </trkpt>
      <trkpt lat="45.1704" lon="5.96365">
        <ele>2588</ele>
        <time>2019-01-20T12:12:33.000Z</time>
      </trkpt>
      <trkpt lat="45.1704" lon="5.96365">
        <ele>2589</ele>
        <time>2019-01-20T12:12:34.000Z</time>
      </trkpt>
      <trkpt lat="45.1704" lon="5.96365">
        <ele>2589</ele>
        <time>2019-01-20T12:12:35.000Z</time>
      </trkpt>
      <trkpt lat="45.1704" lon="5.96365">
        <ele>2589</ele>
        <time>2019-01-20T12:12:36.000Z</time>
      </trkpt>
      <trkpt lat="45.1704" lon="5.96365">
        <ele>2589</ele>
        <time>2019-01-20T12:12:37.000Z</time>
      </trkpt>
      <trkpt lat="45.1704" lon="5.96365">
        <ele>2589</ele>
        <time>2019-01-20T12:12:38.000Z</time>
      </trkpt>
      <trkpt lat="45.17049" lon="5.96369">
        <ele>2589</ele>
        <time>2019-01-20T12:12:40.000Z</time>
      </trkpt>
      <trkpt lat="45.17049" lon="5.96369">
        <ele>2589</ele>
        <time>2019-01-20T12:12:41.000Z</time>
      </trkpt>
      <trkpt lat="45.17049" lon="5.96369">
        <ele>2589</ele>
        <time>2019-01-20T12:12:42.000Z</time>
      </trkpt>
      <trkpt lat="45.17049" lon="5.96369">
        <ele>2590</ele>
        <time>2019-01-20T12:12:44.000Z</time>
      </trkpt>
      <trkpt lat="45.17049" lon="5.96369">
        <ele>2591</ele>
        <time>2019-01-20T12:12:45.000Z</time>
      </trkpt>
      <trkpt lat="45.17049" lon="5.96369">
        <ele>2591</ele>
        <time>2019-01-20T12:12:46.000Z</time>
      </trkpt>
      <trkpt lat="45.17049" lon="5.96369">
        <ele>2593</ele>
        <time>2019-01-20T12:12:47.000Z</time>
      </trkpt>
      <trkpt lat="45.17049" lon="5.96369">
        <ele>2593</ele>
        <time>2019-01-20T12:12:48.000Z</time>
      </trkpt>
      <trkpt lat="45.17049" lon="5.96369">
        <ele>2593</ele>
        <time>2019-01-20T12:12:49.000Z</time>
      </trkpt>
      <trkpt lat="45.17049" lon="5.96369">
        <ele>2593</ele>
        <time>2019-01-20T12:12:50.000Z</time>
      </trkpt>
      <trkpt lat="45.17049" lon="5.96369">
        <ele>2593</ele>
        <time>2019-01-20T12:12:51.000Z</time>
      </trkpt>
      <trkpt lat="45.17049" lon="5.96369">
        <ele>2593</ele>
        <time>2019-01-20T12:12:52.000Z</time>
      </trkpt>
      <trkpt lat="45.17049" lon="5.96369">
        <ele>2593</ele>
        <time>2019-01-20T12:12:53.000Z</time>
      </trkpt>
      <trkpt lat="45.17049" lon="5.96369">
        <ele>2593</ele>
        <time>2019-01-20T12:12:54.000Z</time>
      </trkpt>
      <trkpt lat="45.17049" lon="5.96369">
        <ele>2593</ele>
        <time>2019-01-20T12:12:55.000Z</time>
      </trkpt>
      <trkpt lat="45.17049" lon="5.96369">
        <ele>2593</ele>
        <time>2019-01-20T12:12:56.000Z</time>
      </trkpt>
      <trkpt lat="45.17054" lon="5.9638">
        <ele>2594</ele>
        <time>2019-01-20T12:12:57.000Z</time>
      </trkpt>
      <trkpt lat="45.17054" lon="5.9638">
        <ele>2594</ele>
        <time>2019-01-20T12:12:58.000Z</time>
      </trkpt>
      <trkpt lat="45.17054" lon="5.9638">
        <ele>2595</ele>
        <time>2019-01-20T12:12:59.000Z</time>
      </trkpt>
      <trkpt lat="45.17054" lon="5.9638">
        <ele>2595</ele>
        <time>2019-01-20T12:13:00.000Z</time>
      </trkpt>
      <trkpt lat="45.17054" lon="5.9638">
        <ele>2595</ele>
        <time>2019-01-20T12:13:01.000Z</time>
      </trkpt>
      <trkpt lat="45.17054" lon="5.9638">
        <ele>2595</ele>
        <time>2019-01-20T12:13:03.000Z</time>
      </trkpt>
      <trkpt lat="45.17054" lon="5.9638">
        <ele>2595</ele>
        <time>2019-01-20T12:13:04.000Z</time>
      </trkpt>
      <trkpt lat="45.17054" lon="5.9638">
        <ele>2595</ele>
        <time>2019-01-20T12:13:05.000Z</time>
      </trkpt>
      <trkpt lat="45.17054" lon="5.9638">
        <ele>2595</ele>
        <time>2019-01-20T12:13:06.000Z</time>
      </trkpt>
      <trkpt lat="45.17054" lon="5.9638">
        <ele>2595</ele>
        <time>2019-01-20T12:13:07.000Z</time>
      </trkpt>
      <trkpt lat="45.17054" lon="5.9638">
        <ele>2595</ele>
        <time>2019-01-20T12:13:08.000Z</time>
      </trkpt>
      <trkpt lat="45.17054" lon="5.9638">
        <ele>2595</ele>
        <time>2019-01-20T12:13:09.000Z</time>
      </trkpt>
      <trkpt lat="45.17054" lon="5.9638">
        <ele>2595</ele>
        <time>2019-01-20T12:13:10.000Z</time>
      </trkpt>
      <trkpt lat="45.17054" lon="5.9638">
        <ele>2595</ele>
        <time>2019-01-20T12:13:11.000Z</time>
      </trkpt>
      <trkpt lat="45.17054" lon="5.9638">
        <ele>2595</ele>
        <time>2019-01-20T12:13:12.000Z</time>
      </trkpt>
      <trkpt lat="45.17054" lon="5.9638">
        <ele>2595</ele>
        <time>2019-01-20T12:13:13.000Z</time>
      </trkpt>
      <trkpt lat="45.17054" lon="5.9638">
        <ele>2595</ele>
        <time>2019-01-20T12:13:14.000Z</time>
      </trkpt>
      <trkpt lat="45.17054" lon="5.9638">
        <ele>2595</ele>
        <time>2019-01-20T12:13:15.000Z</time>
      </trkpt>
      <trkpt lat="45.17054" lon="5.9638">
        <ele>2595</ele>
        <time>2019-01-20T12:13:16.000Z</time>
      </trkpt>
      <trkpt lat="45.17054" lon="5.9638">
        <ele>2595</ele>
        <time>2019-01-20T12:13:17.000Z</time>
      </trkpt>
      <trkpt lat="45.17054" lon="5.9638">
        <ele>2595</ele>
        <time>2019-01-20T12:13:18.000Z</time>
      </trkpt>
      <trkpt lat="45.17054" lon="5.9638">
        <ele>2595</ele>
        <time>2019-01-20T12:13:19.000Z</time>
      </trkpt>
      <trkpt lat="45.17054" lon="5.9638">
        <ele>2595</ele>
        <time>2019-01-20T12:13:20.000Z</time>
      </trkpt>
      <trkpt lat="45.17054" lon="5.9638">
        <ele>2595</ele>
        <time>2019-01-20T12:13:22.000Z</time>
      </trkpt>
      <trkpt lat="45.17054" lon="5.9638">
        <ele>2596</ele>
        <time>2019-01-20T12:13:23.000Z</time>
      </trkpt>
      <trkpt lat="45.17054" lon="5.9638">
        <ele>2596</ele>
        <time>2019-01-20T12:13:24.000Z</time>
      </trkpt>
      <trkpt lat="45.17054" lon="5.9638">
        <ele>2596</ele>
        <time>2019-01-20T12:13:25.000Z</time>
      </trkpt>
      <trkpt lat="45.17054" lon="5.9638">
        <ele>2597</ele>
        <time>2019-01-20T12:13:26.000Z</time>
      </trkpt>
      <trkpt lat="45.17054" lon="5.9638">
        <ele>2597</ele>
        <time>2019-01-20T12:13:27.000Z</time>
      </trkpt>
      <trkpt lat="45.17054" lon="5.9638">
        <ele>2597</ele>
        <time>2019-01-20T12:13:28.000Z</time>
      </trkpt>
      <trkpt lat="45.17054" lon="5.9638">
        <ele>2597</ele>
        <time>2019-01-20T12:13:29.000Z</time>
      </trkpt>
      <trkpt lat="45.17054" lon="5.9638">
        <ele>2597</ele>
        <time>2019-01-20T12:13:30.000Z</time>
      </trkpt>
      <trkpt lat="45.17063" lon="5.96385">
        <ele>2597.6</ele>
        <time>2019-01-20T12:13:32.000Z</time>
      </trkpt>
      <trkpt lat="45.17063" lon="5.96385">
        <ele>2598</ele>
        <time>2019-01-20T12:13:33.000Z</time>
      </trkpt>
      <trkpt lat="45.17063" lon="5.96385">
        <ele>2598</ele>
        <time>2019-01-20T12:13:34.000Z</time>
      </trkpt>
      <trkpt lat="45.17063" lon="5.96385">
        <ele>2598</ele>
        <time>2019-01-20T12:13:35.000Z</time>
      </trkpt>
      <trkpt lat="45.17063" lon="5.96385">
        <ele>2598</ele>
        <time>2019-01-20T12:13:36.000Z</time>
      </trkpt>
      <trkpt lat="45.17063" lon="5.96385">
        <ele>2598</ele>
        <time>2019-01-20T12:13:37.000Z</time>
      </trkpt>
      <trkpt lat="45.17063" lon="5.96385">
        <ele>2598</ele>
        <time>2019-01-20T12:13:38.000Z</time>
      </trkpt>
      <trkpt lat="45.17063" lon="5.96385">
        <ele>2598</ele>
        <time>2019-01-20T12:13:39.000Z</time>
      </trkpt>
      <trkpt lat="45.17063" lon="5.96385">
        <ele>2598</ele>
        <time>2019-01-20T12:13:41.000Z</time>
      </trkpt>
      <trkpt lat="45.17063" lon="5.96385">
        <ele>2599</ele>
        <time>2019-01-20T12:13:42.000Z</time>
      </trkpt>
      <trkpt lat="45.17063" lon="5.96385">
        <ele>2599</ele>
        <time>2019-01-20T12:13:43.000Z</time>
      </trkpt>
      <trkpt lat="45.17063" lon="5.96385">
        <ele>2599</ele>
        <time>2019-01-20T12:13:44.000Z</time>
      </trkpt>
      <trkpt lat="45.17063" lon="5.96385">
        <ele>2599</ele>
        <time>2019-01-20T12:13:45.000Z</time>
      </trkpt>
      <trkpt lat="45.17063" lon="5.96385">
        <ele>2599</ele>
        <time>2019-01-20T12:13:46.000Z</time>
      </trkpt>
      <trkpt lat="45.17063" lon="5.96385">
        <ele>2600</ele>
        <time>2019-01-20T12:13:47.000Z</time>
      </trkpt>
      <trkpt lat="45.17063" lon="5.96385">
        <ele>2600</ele>
        <time>2019-01-20T12:13:48.000Z</time>
      </trkpt>
      <trkpt lat="45.17063" lon="5.96385">
        <ele>2600</ele>
        <time>2019-01-20T12:13:49.000Z</time>
      </trkpt>
      <trkpt lat="45.17063" lon="5.96385">
        <ele>2600</ele>
        <time>2019-01-20T12:13:50.000Z</time>
      </trkpt>
      <trkpt lat="45.17063" lon="5.96385">
        <ele>2600</ele>
        <time>2019-01-20T12:13:51.000Z</time>
      </trkpt>
      <trkpt lat="45.1707" lon="5.96394">
        <ele>2601</ele>
        <time>2019-01-20T12:13:52.000Z</time>
      </trkpt>
      <trkpt lat="45.1707" lon="5.96394">
        <ele>2601</ele>
        <time>2019-01-20T12:13:53.000Z</time>
      </trkpt>
      <trkpt lat="45.1707" lon="5.96394">
        <ele>2601</ele>
        <time>2019-01-20T12:13:54.000Z</time>
      </trkpt>
      <trkpt lat="45.1707" lon="5.96394">
        <ele>2601</ele>
        <time>2019-01-20T12:13:55.000Z</time>
      </trkpt>
      <trkpt lat="45.1707" lon="5.96394">
        <ele>2601</ele>
        <time>2019-01-20T12:13:56.000Z</time>
      </trkpt>
      <trkpt lat="45.1707" lon="5.96394">
        <ele>2602</ele>
        <time>2019-01-20T12:13:57.000Z</time>
      </trkpt>
      <trkpt lat="45.1707" lon="5.96394">
        <ele>2602</ele>
        <time>2019-01-20T12:13:58.000Z</time>
      </trkpt>
      <trkpt lat="45.1707" lon="5.96394">
        <ele>2602</ele>
        <time>2019-01-20T12:14:00.000Z</time>
      </trkpt>
      <trkpt lat="45.1707" lon="5.96394">
        <ele>2602</ele>
        <time>2019-01-20T12:14:01.000Z</time>
      </trkpt>
      <trkpt lat="45.1707" lon="5.96394">
        <ele>2603</ele>
        <time>2019-01-20T12:14:02.000Z</time>
      </trkpt>
      <trkpt lat="45.1707" lon="5.96394">
        <ele>2603</ele>
        <time>2019-01-20T12:14:03.000Z</time>
      </trkpt>
      <trkpt lat="45.1707" lon="5.96394">
        <ele>2603</ele>
        <time>2019-01-20T12:14:04.000Z</time>
      </trkpt>
      <trkpt lat="45.1707" lon="5.96394">
        <ele>2603</ele>
        <time>2019-01-20T12:14:05.000Z</time>
      </trkpt>
      <trkpt lat="45.1707" lon="5.96394">
        <ele>2603</ele>
        <time>2019-01-20T12:14:06.000Z</time>
      </trkpt>
      <trkpt lat="45.17078" lon="5.96403">
        <ele>2603</ele>
        <time>2019-01-20T12:14:07.000Z</time>
      </trkpt>
      <trkpt lat="45.17078" lon="5.96403">
        <ele>2603</ele>
        <time>2019-01-20T12:14:08.000Z</time>
      </trkpt>
      <trkpt lat="45.17078" lon="5.96403">
        <ele>2605</ele>
        <time>2019-01-20T12:14:09.000Z</time>
      </trkpt>
      <trkpt lat="45.17078" lon="5.96403">
        <ele>2605</ele>
        <time>2019-01-20T12:14:10.000Z</time>
      </trkpt>
      <trkpt lat="45.17078" lon="5.96403">
        <ele>2605</ele>
        <time>2019-01-20T12:14:11.000Z</time>
      </trkpt>
      <trkpt lat="45.17078" lon="5.96403">
        <ele>2605</ele>
        <time>2019-01-20T12:14:12.000Z</time>
      </trkpt>
      <trkpt lat="45.17078" lon="5.96403">
        <ele>2605</ele>
        <time>2019-01-20T12:14:13.000Z</time>
      </trkpt>
      <trkpt lat="45.17078" lon="5.96403">
        <ele>2605</ele>
        <time>2019-01-20T12:14:14.000Z</time>
      </trkpt>
      <trkpt lat="45.17078" lon="5.96403">
        <ele>2605</ele>
        <time>2019-01-20T12:14:15.000Z</time>
      </trkpt>
      <trkpt lat="45.17078" lon="5.96403">
        <ele>2605</ele>
        <time>2019-01-20T12:14:16.000Z</time>
      </trkpt>
      <trkpt lat="45.17078" lon="5.96403">
        <ele>2605</ele>
        <time>2019-01-20T12:14:17.000Z</time>
      </trkpt>
      <trkpt lat="45.17076" lon="5.96405">
        <ele>2605</ele>
        <time>2019-01-20T12:14:18.000Z</time>
      </trkpt>
      <trkpt lat="45.17076" lon="5.96405">
        <ele>2605</ele>
        <time>2019-01-20T12:14:19.000Z</time>
      </trkpt>
      <trkpt lat="45.17076" lon="5.96405">
        <ele>2605</ele>
        <time>2019-01-20T12:14:20.000Z</time>
      </trkpt>
      <trkpt lat="45.17076" lon="5.96405">
        <ele>2605</ele>
        <time>2019-01-20T12:14:21.000Z</time>
      </trkpt>
      <trkpt lat="45.17076" lon="5.96405">
        <ele>2605</ele>
        <time>2019-01-20T12:14:22.000Z</time>
      </trkpt>
      <trkpt lat="45.17076" lon="5.96405">
        <ele>2605</ele>
        <time>2019-01-20T12:14:23.000Z</time>
      </trkpt>
      <trkpt lat="45.17076" lon="5.96405">
        <ele>2605</ele>
        <time>2019-01-20T12:14:24.000Z</time>
      </trkpt>
      <trkpt lat="45.17076" lon="5.96405">
        <ele>2605</ele>
        <time>2019-01-20T12:14:25.000Z</time>
      </trkpt>
      <trkpt lat="45.17076" lon="5.96405">
        <ele>2605</ele>
        <time>2019-01-20T12:14:26.000Z</time>
      </trkpt>
      <trkpt lat="45.17076" lon="5.96405">
        <ele>2606</ele>
        <time>2019-01-20T12:14:27.000Z</time>
      </trkpt>
      <trkpt lat="45.17076" lon="5.96405">
        <ele>2606</ele>
        <time>2019-01-20T12:14:28.000Z</time>
      </trkpt>
      <trkpt lat="45.17076" lon="5.96405">
        <ele>2606</ele>
        <time>2019-01-20T12:14:29.000Z</time>
      </trkpt>
      <trkpt lat="45.17076" lon="5.96405">
        <ele>2606</ele>
        <time>2019-01-20T12:14:30.000Z</time>
      </trkpt>
      <trkpt lat="45.17076" lon="5.96405">
        <ele>2607</ele>
        <time>2019-01-20T12:14:31.000Z</time>
      </trkpt>
      <trkpt lat="45.17076" lon="5.96405">
        <ele>2607</ele>
        <time>2019-01-20T12:14:32.000Z</time>
      </trkpt>
      <trkpt lat="45.17076" lon="5.96405">
        <ele>2607</ele>
        <time>2019-01-20T12:14:33.000Z</time>
      </trkpt>
      <trkpt lat="45.17076" lon="5.96405">
        <ele>2607</ele>
        <time>2019-01-20T12:14:34.000Z</time>
      </trkpt>
      <trkpt lat="45.17076" lon="5.96405">
        <ele>2607</ele>
        <time>2019-01-20T12:14:35.000Z</time>
      </trkpt>
      <trkpt lat="45.17076" lon="5.96405">
        <ele>2607</ele>
        <time>2019-01-20T12:14:36.000Z</time>
      </trkpt>
      <trkpt lat="45.1708" lon="5.96393">
        <ele>2607</ele>
        <time>2019-01-20T12:14:38.000Z</time>
      </trkpt>
      <trkpt lat="45.1708" lon="5.96393">
        <ele>2607</ele>
        <time>2019-01-20T12:14:39.000Z</time>
      </trkpt>
      <trkpt lat="45.1708" lon="5.96393">
        <ele>2608</ele>
        <time>2019-01-20T12:14:40.000Z</time>
      </trkpt>
      <trkpt lat="45.1708" lon="5.96393">
        <ele>2608</ele>
        <time>2019-01-20T12:14:41.000Z</time>
      </trkpt>
      <trkpt lat="45.1708" lon="5.96393">
        <ele>2608</ele>
        <time>2019-01-20T12:14:42.000Z</time>
      </trkpt>
      <trkpt lat="45.1708" lon="5.96393">
        <ele>2608</ele>
        <time>2019-01-20T12:14:43.000Z</time>
      </trkpt>
      <trkpt lat="45.1708" lon="5.96393">
        <ele>2609</ele>
        <time>2019-01-20T12:14:44.000Z</time>
      </trkpt>
      <trkpt lat="45.1708" lon="5.96393">
        <ele>2609</ele>
        <time>2019-01-20T12:14:45.000Z</time>
      </trkpt>
      <trkpt lat="45.1708" lon="5.96393">
        <ele>2609</ele>
        <time>2019-01-20T12:14:46.000Z</time>
      </trkpt>
      <trkpt lat="45.1708" lon="5.96393">
        <ele>2610</ele>
        <time>2019-01-20T12:14:47.000Z</time>
      </trkpt>
      <trkpt lat="45.1708" lon="5.96393">
        <ele>2610</ele>
        <time>2019-01-20T12:14:48.000Z</time>
      </trkpt>
      <trkpt lat="45.1708" lon="5.96393">
        <ele>2610</ele>
        <time>2019-01-20T12:14:49.000Z</time>
      </trkpt>
      <trkpt lat="45.1708" lon="5.96393">
        <ele>2610</ele>
        <time>2019-01-20T12:14:50.000Z</time>
      </trkpt>
      <trkpt lat="45.1708" lon="5.96393">
        <ele>2610</ele>
        <time>2019-01-20T12:14:51.000Z</time>
      </trkpt>
      <trkpt lat="45.1708" lon="5.96393">
        <ele>2610</ele>
        <time>2019-01-20T12:14:52.000Z</time>
      </trkpt>
      <trkpt lat="45.1708" lon="5.96393">
        <ele>2610</ele>
        <time>2019-01-20T12:14:53.000Z</time>
      </trkpt>
      <trkpt lat="45.1708" lon="5.96393">
        <ele>2610</ele>
        <time>2019-01-20T12:14:54.000Z</time>
      </trkpt>
      <trkpt lat="45.1708" lon="5.96393">
        <ele>2610</ele>
        <time>2019-01-20T12:14:55.000Z</time>
      </trkpt>
      <trkpt lat="45.17078" lon="5.9638">
        <ele>2610.4</ele>
        <time>2019-01-20T12:14:57.000Z</time>
      </trkpt>
      <trkpt lat="45.17078" lon="5.9638">
        <ele>2611</ele>
        <time>2019-01-20T12:14:58.000Z</time>
      </trkpt>
      <trkpt lat="45.17078" lon="5.9638">
        <ele>2611</ele>
        <time>2019-01-20T12:14:59.000Z</time>
      </trkpt>
      <trkpt lat="45.17078" lon="5.9638">
        <ele>2611</ele>
        <time>2019-01-20T12:15:00.000Z</time>
      </trkpt>
      <trkpt lat="45.17078" lon="5.9638">
        <ele>2611</ele>
        <time>2019-01-20T12:15:01.000Z</time>
      </trkpt>
      <trkpt lat="45.17078" lon="5.9638">
        <ele>2610</ele>
        <time>2019-01-20T12:15:02.000Z</time>
      </trkpt>
      <trkpt lat="45.17078" lon="5.9638">
        <ele>2610</ele>
        <time>2019-01-20T12:15:03.000Z</time>
      </trkpt>
      <trkpt lat="45.17078" lon="5.9638">
        <ele>2611</ele>
        <time>2019-01-20T12:15:04.000Z</time>
      </trkpt>
      <trkpt lat="45.17078" lon="5.9638">
        <ele>2611</ele>
        <time>2019-01-20T12:15:05.000Z</time>
      </trkpt>
      <trkpt lat="45.17078" lon="5.9638">
        <ele>2611</ele>
        <time>2019-01-20T12:15:06.000Z</time>
      </trkpt>
      <trkpt lat="45.17078" lon="5.9638">
        <ele>2612</ele>
        <time>2019-01-20T12:15:07.000Z</time>
      </trkpt>
      <trkpt lat="45.17078" lon="5.9638">
        <ele>2612</ele>
        <time>2019-01-20T12:15:08.000Z</time>
      </trkpt>
      <trkpt lat="45.17078" lon="5.9638">
        <ele>2612</ele>
        <time>2019-01-20T12:15:09.000Z</time>
      </trkpt>
      <trkpt lat="45.17078" lon="5.9638">
        <ele>2612</ele>
        <time>2019-01-20T12:15:10.000Z</time>
      </trkpt>
      <trkpt lat="45.17078" lon="5.9638">
        <ele>2612</ele>
        <time>2019-01-20T12:15:11.000Z</time>
      </trkpt>
      <trkpt lat="45.17078" lon="5.9638">
        <ele>2612</ele>
        <time>2019-01-20T12:15:12.000Z</time>
      </trkpt>
      <trkpt lat="45.17078" lon="5.9638">
        <ele>2612.4</ele>
        <time>2019-01-20T12:15:14.000Z</time>
      </trkpt>
      <trkpt lat="45.17079" lon="5.96368">
        <ele>2612.4</ele>
        <time>2019-01-20T12:15:15.000Z</time>
      </trkpt>
      <trkpt lat="45.17079" lon="5.96368">
        <ele>2613</ele>
        <time>2019-01-20T12:15:16.000Z</time>
      </trkpt>
      <trkpt lat="45.17079" lon="5.96368">
        <ele>2613</ele>
        <time>2019-01-20T12:15:17.000Z</time>
      </trkpt>
      <trkpt lat="45.17079" lon="5.96368">
        <ele>2612</ele>
        <time>2019-01-20T12:15:18.000Z</time>
      </trkpt>
      <trkpt lat="45.17079" lon="5.96368">
        <ele>2613</ele>
        <time>2019-01-20T12:15:19.000Z</time>
      </trkpt>
      <trkpt lat="45.17079" lon="5.96368">
        <ele>2613</ele>
        <time>2019-01-20T12:15:20.000Z</time>
      </trkpt>
      <trkpt lat="45.17079" lon="5.96368">
        <ele>2614</ele>
        <time>2019-01-20T12:15:21.000Z</time>
      </trkpt>
      <trkpt lat="45.17079" lon="5.96368">
        <ele>2614</ele>
        <time>2019-01-20T12:15:22.000Z</time>
      </trkpt>
      <trkpt lat="45.17079" lon="5.96368">
        <ele>2614</ele>
        <time>2019-01-20T12:15:23.000Z</time>
      </trkpt>
      <trkpt lat="45.17079" lon="5.96368">
        <ele>2614</ele>
        <time>2019-01-20T12:15:24.000Z</time>
      </trkpt>
      <trkpt lat="45.17079" lon="5.96368">
        <ele>2614</ele>
        <time>2019-01-20T12:15:25.000Z</time>
      </trkpt>
      <trkpt lat="45.17079" lon="5.96368">
        <ele>2614</ele>
        <time>2019-01-20T12:15:26.000Z</time>
      </trkpt>
      <trkpt lat="45.17079" lon="5.96368">
        <ele>2614</ele>
        <time>2019-01-20T12:15:27.000Z</time>
      </trkpt>
      <trkpt lat="45.17079" lon="5.96368">
        <ele>2614</ele>
        <time>2019-01-20T12:15:28.000Z</time>
      </trkpt>
      <trkpt lat="45.17079" lon="5.96368">
        <ele>2615</ele>
        <time>2019-01-20T12:15:29.000Z</time>
      </trkpt>
      <trkpt lat="45.17079" lon="5.96368">
        <ele>2615</ele>
        <time>2019-01-20T12:15:30.000Z</time>
      </trkpt>
      <trkpt lat="45.17079" lon="5.96368">
        <ele>2615</ele>
        <time>2019-01-20T12:15:31.000Z</time>
      </trkpt>
      <trkpt lat="45.17079" lon="5.96368">
        <ele>2615</ele>
        <time>2019-01-20T12:15:32.000Z</time>
      </trkpt>
      <trkpt lat="45.17079" lon="5.96368">
        <ele>2615</ele>
        <time>2019-01-20T12:15:33.000Z</time>
      </trkpt>
      <trkpt lat="45.17079" lon="5.96368">
        <ele>2615</ele>
        <time>2019-01-20T12:15:35.000Z</time>
      </trkpt>
      <trkpt lat="45.17079" lon="5.96368">
        <ele>2616</ele>
        <time>2019-01-20T12:15:36.000Z</time>
      </trkpt>
      <trkpt lat="45.17079" lon="5.96368">
        <ele>2616</ele>
        <time>2019-01-20T12:15:37.000Z</time>
      </trkpt>
      <trkpt lat="45.17079" lon="5.96368">
        <ele>2616</ele>
        <time>2019-01-20T12:15:38.000Z</time>
      </trkpt>
      <trkpt lat="45.17079" lon="5.96368">
        <ele>2616</ele>
        <time>2019-01-20T12:15:39.000Z</time>
      </trkpt>
      <trkpt lat="45.17079" lon="5.96368">
        <ele>2616</ele>
        <time>2019-01-20T12:15:40.000Z</time>
      </trkpt>
      <trkpt lat="45.17079" lon="5.96368">
        <ele>2616</ele>
        <time>2019-01-20T12:15:41.000Z</time>
      </trkpt>
      <trkpt lat="45.17079" lon="5.96368">
        <ele>2616</ele>
        <time>2019-01-20T12:15:42.000Z</time>
      </trkpt>
      <trkpt lat="45.17079" lon="5.96368">
        <ele>2616</ele>
        <time>2019-01-20T12:15:43.000Z</time>
      </trkpt>
      <trkpt lat="45.17078" lon="5.96355">
        <ele>2616</ele>
        <time>2019-01-20T12:15:44.000Z</time>
      </trkpt>
      <trkpt lat="45.17078" lon="5.96355">
        <ele>2616</ele>
        <time>2019-01-20T12:15:45.000Z</time>
      </trkpt>
      <trkpt lat="45.17078" lon="5.96355">
        <ele>2616</ele>
        <time>2019-01-20T12:15:46.000Z</time>
      </trkpt>
      <trkpt lat="45.17078" lon="5.96355">
        <ele>2617</ele>
        <time>2019-01-20T12:15:47.000Z</time>
      </trkpt>
      <trkpt lat="45.17078" lon="5.96355">
        <ele>2617</ele>
        <time>2019-01-20T12:15:48.000Z</time>
      </trkpt>
      <trkpt lat="45.17078" lon="5.96355">
        <ele>2617</ele>
        <time>2019-01-20T12:15:49.000Z</time>
      </trkpt>
      <trkpt lat="45.17078" lon="5.96355">
        <ele>2617</ele>
        <time>2019-01-20T12:15:50.000Z</time>
      </trkpt>
      <trkpt lat="45.17078" lon="5.96355">
        <ele>2617</ele>
        <time>2019-01-20T12:15:51.000Z</time>
      </trkpt>
      <trkpt lat="45.17078" lon="5.96355">
        <ele>2617</ele>
        <time>2019-01-20T12:15:52.000Z</time>
      </trkpt>
      <trkpt lat="45.17078" lon="5.96355">
        <ele>2617</ele>
        <time>2019-01-20T12:15:54.000Z</time>
      </trkpt>
      <trkpt lat="45.17078" lon="5.96355">
        <ele>2617</ele>
        <time>2019-01-20T12:15:55.000Z</time>
      </trkpt>
      <trkpt lat="45.17078" lon="5.96355">
        <ele>2617</ele>
        <time>2019-01-20T12:15:56.000Z</time>
      </trkpt>
      <trkpt lat="45.17078" lon="5.96355">
        <ele>2617</ele>
        <time>2019-01-20T12:15:57.000Z</time>
      </trkpt>
      <trkpt lat="45.17078" lon="5.96355">
        <ele>2617</ele>
        <time>2019-01-20T12:15:58.000Z</time>
      </trkpt>
      <trkpt lat="45.17078" lon="5.96355">
        <ele>2617</ele>
        <time>2019-01-20T12:15:59.000Z</time>
      </trkpt>
      <trkpt lat="45.17078" lon="5.96355">
        <ele>2617</ele>
        <time>2019-01-20T12:16:00.000Z</time>
      </trkpt>
      <trkpt lat="45.17078" lon="5.96355">
        <ele>2617</ele>
        <time>2019-01-20T12:16:01.000Z</time>
      </trkpt>
      <trkpt lat="45.17078" lon="5.96355">
        <ele>2618</ele>
        <time>2019-01-20T12:16:02.000Z</time>
      </trkpt>
      <trkpt lat="45.17078" lon="5.96355">
        <ele>2618</ele>
        <time>2019-01-20T12:16:03.000Z</time>
      </trkpt>
      <trkpt lat="45.17078" lon="5.96355">
        <ele>2618</ele>
        <time>2019-01-20T12:16:04.000Z</time>
      </trkpt>
      <trkpt lat="45.17078" lon="5.96355">
        <ele>2618</ele>
        <time>2019-01-20T12:16:05.000Z</time>
      </trkpt>
      <trkpt lat="45.17078" lon="5.96355">
        <ele>2618</ele>
        <time>2019-01-20T12:16:06.000Z</time>
      </trkpt>
      <trkpt lat="45.17078" lon="5.96355">
        <ele>2619</ele>
        <time>2019-01-20T12:16:07.000Z</time>
      </trkpt>
      <trkpt lat="45.17078" lon="5.96355">
        <ele>2619</ele>
        <time>2019-01-20T12:16:08.000Z</time>
      </trkpt>
      <trkpt lat="45.17078" lon="5.96355">
        <ele>2619</ele>
        <time>2019-01-20T12:16:09.000Z</time>
      </trkpt>
      <trkpt lat="45.17078" lon="5.96355">
        <ele>2619</ele>
        <time>2019-01-20T12:16:10.000Z</time>
      </trkpt>
      <trkpt lat="45.17078" lon="5.96355">
        <ele>2619</ele>
        <time>2019-01-20T12:16:11.000Z</time>
      </trkpt>
      <trkpt lat="45.17078" lon="5.96355">
        <ele>2619</ele>
        <time>2019-01-20T12:16:13.000Z</time>
      </trkpt>
      <trkpt lat="45.17087" lon="5.96358">
        <ele>2619</ele>
        <time>2019-01-20T12:16:14.000Z</time>
      </trkpt>
      <trkpt lat="45.17087" lon="5.96358">
        <ele>2619</ele>
        <time>2019-01-20T12:16:15.000Z</time>
      </trkpt>
      <trkpt lat="45.17087" lon="5.96358">
        <ele>2619</ele>
        <time>2019-01-20T12:16:16.000Z</time>
      </trkpt>
      <trkpt lat="45.17087" lon="5.96358">
        <ele>2619</ele>
        <time>2019-01-20T12:16:17.000Z</time>
      </trkpt>
      <trkpt lat="45.17087" lon="5.96358">
        <ele>2620</ele>
        <time>2019-01-20T12:16:18.000Z</time>
      </trkpt>
      <trkpt lat="45.17087" lon="5.96358">
        <ele>2620</ele>
        <time>2019-01-20T12:16:19.000Z</time>
      </trkpt>
      <trkpt lat="45.17087" lon="5.96358">
        <ele>2620</ele>
        <time>2019-01-20T12:16:20.000Z</time>
      </trkpt>
      <trkpt lat="45.17087" lon="5.96358">
        <ele>2620</ele>
        <time>2019-01-20T12:16:21.000Z</time>
      </trkpt>
      <trkpt lat="45.17087" lon="5.96358">
        <ele>2621</ele>
        <time>2019-01-20T12:16:22.000Z</time>
      </trkpt>
      <trkpt lat="45.17087" lon="5.96358">
        <ele>2621</ele>
        <time>2019-01-20T12:16:23.000Z</time>
      </trkpt>
      <trkpt lat="45.17087" lon="5.96358">
        <ele>2621</ele>
        <time>2019-01-20T12:16:24.000Z</time>
      </trkpt>
      <trkpt lat="45.17087" lon="5.96358">
        <ele>2621</ele>
        <time>2019-01-20T12:16:25.000Z</time>
      </trkpt>
      <trkpt lat="45.17087" lon="5.96358">
        <ele>2621</ele>
        <time>2019-01-20T12:16:26.000Z</time>
      </trkpt>
      <trkpt lat="45.17087" lon="5.96358">
        <ele>2622</ele>
        <time>2019-01-20T12:16:27.000Z</time>
      </trkpt>
      <trkpt lat="45.17087" lon="5.96358">
        <ele>2622</ele>
        <time>2019-01-20T12:16:28.000Z</time>
      </trkpt>
      <trkpt lat="45.17087" lon="5.96358">
        <ele>2623</ele>
        <time>2019-01-20T12:16:29.000Z</time>
      </trkpt>
      <trkpt lat="45.17087" lon="5.96358">
        <ele>2623</ele>
        <time>2019-01-20T12:16:30.000Z</time>
      </trkpt>
      <trkpt lat="45.17093" lon="5.96369">
        <ele>2622</ele>
        <time>2019-01-20T12:16:32.000Z</time>
      </trkpt>
      <trkpt lat="45.17093" lon="5.96369">
        <ele>2622</ele>
        <time>2019-01-20T12:16:33.000Z</time>
      </trkpt>
      <trkpt lat="45.17093" lon="5.96369">
        <ele>2623</ele>
        <time>2019-01-20T12:16:34.000Z</time>
      </trkpt>
      <trkpt lat="45.17093" lon="5.96369">
        <ele>2625</ele>
        <time>2019-01-20T12:16:35.000Z</time>
      </trkpt>
      <trkpt lat="45.17093" lon="5.96369">
        <ele>2625</ele>
        <time>2019-01-20T12:16:36.000Z</time>
      </trkpt>
      <trkpt lat="45.17093" lon="5.96369">
        <ele>2624</ele>
        <time>2019-01-20T12:16:37.000Z</time>
      </trkpt>
      <trkpt lat="45.17093" lon="5.96369">
        <ele>2624</ele>
        <time>2019-01-20T12:16:38.000Z</time>
      </trkpt>
      <trkpt lat="45.17095" lon="5.96374">
        <ele>2624</ele>
        <time>2019-01-20T12:16:39.000Z</time>
      </trkpt>
      <trkpt lat="45.17095" lon="5.96374">
        <ele>2624</ele>
        <time>2019-01-20T12:16:40.000Z</time>
      </trkpt>
      <trkpt lat="45.17095" lon="5.96374">
        <ele>2624</ele>
        <time>2019-01-20T12:16:41.000Z</time>
      </trkpt>
      <trkpt lat="45.17095" lon="5.96374">
        <ele>2624</ele>
        <time>2019-01-20T12:16:42.000Z</time>
      </trkpt>
      <trkpt lat="45.17095" lon="5.96374">
        <ele>2624</ele>
        <time>2019-01-20T12:16:43.000Z</time>
      </trkpt>
      <trkpt lat="45.17095" lon="5.96374">
        <ele>2625</ele>
        <time>2019-01-20T12:16:44.000Z</time>
      </trkpt>
      <trkpt lat="45.17095" lon="5.96374">
        <ele>2625</ele>
        <time>2019-01-20T12:16:45.000Z</time>
      </trkpt>
      <trkpt lat="45.17095" lon="5.96374">
        <ele>2625</ele>
        <time>2019-01-20T12:16:46.000Z</time>
      </trkpt>
      <trkpt lat="45.17095" lon="5.96374">
        <ele>2625</ele>
        <time>2019-01-20T12:16:47.000Z</time>
      </trkpt>
      <trkpt lat="45.17097" lon="5.96377">
        <ele>2625</ele>
        <time>2019-01-20T12:16:48.000Z</time>
      </trkpt>
      <trkpt lat="45.17097" lon="5.96377">
        <ele>2625</ele>
        <time>2019-01-20T12:16:49.000Z</time>
      </trkpt>
      <trkpt lat="45.17097" lon="5.96377">
        <ele>2625</ele>
        <time>2019-01-20T12:16:51.000Z</time>
      </trkpt>
      <trkpt lat="45.17097" lon="5.96377">
        <ele>2625</ele>
        <time>2019-01-20T12:16:52.000Z</time>
      </trkpt>
      <trkpt lat="45.17097" lon="5.96377">
        <ele>2626</ele>
        <time>2019-01-20T12:16:53.000Z</time>
      </trkpt>
      <trkpt lat="45.17097" lon="5.96377">
        <ele>2626</ele>
        <time>2019-01-20T12:16:54.000Z</time>
      </trkpt>
      <trkpt lat="45.17097" lon="5.96377">
        <ele>2626</ele>
        <time>2019-01-20T12:16:55.000Z</time>
      </trkpt>
      <trkpt lat="45.17097" lon="5.96377">
        <ele>2626</ele>
        <time>2019-01-20T12:16:56.000Z</time>
      </trkpt>
      <trkpt lat="45.17099" lon="5.96382">
        <ele>2626</ele>
        <time>2019-01-20T12:16:57.000Z</time>
      </trkpt>
      <trkpt lat="45.17099" lon="5.96382">
        <ele>2626</ele>
        <time>2019-01-20T12:16:58.000Z</time>
      </trkpt>
      <trkpt lat="45.17099" lon="5.96382">
        <ele>2626</ele>
        <time>2019-01-20T12:16:59.000Z</time>
      </trkpt>
      <trkpt lat="45.17099" lon="5.96382">
        <ele>2626</ele>
        <time>2019-01-20T12:17:00.000Z</time>
      </trkpt>
      <trkpt lat="45.17099" lon="5.96382">
        <ele>2626</ele>
        <time>2019-01-20T12:17:01.000Z</time>
      </trkpt>
      <trkpt lat="45.17099" lon="5.96382">
        <ele>2626</ele>
        <time>2019-01-20T12:17:02.000Z</time>
      </trkpt>
      <trkpt lat="45.17099" lon="5.96382">
        <ele>2626</ele>
        <time>2019-01-20T12:17:03.000Z</time>
      </trkpt>
      <trkpt lat="45.17099" lon="5.96382">
        <ele>2626</ele>
        <time>2019-01-20T12:17:04.000Z</time>
      </trkpt>
      <trkpt lat="45.17099" lon="5.96382">
        <ele>2626</ele>
        <time>2019-01-20T12:17:05.000Z</time>
      </trkpt>
      <trkpt lat="45.17099" lon="5.96382">
        <ele>2626</ele>
        <time>2019-01-20T12:17:06.000Z</time>
      </trkpt>
      <trkpt lat="45.17099" lon="5.96382">
        <ele>2626</ele>
        <time>2019-01-20T12:17:07.000Z</time>
      </trkpt>
      <trkpt lat="45.17099" lon="5.96382">
        <ele>2626</ele>
        <time>2019-01-20T12:17:08.000Z</time>
      </trkpt>
      <trkpt lat="45.17099" lon="5.96382">
        <ele>2626</ele>
        <time>2019-01-20T12:17:10.000Z</time>
      </trkpt>
      <trkpt lat="45.17099" lon="5.96382">
        <ele>2626</ele>
        <time>2019-01-20T12:17:11.000Z</time>
      </trkpt>
      <trkpt lat="45.17099" lon="5.96382">
        <ele>2626</ele>
        <time>2019-01-20T12:17:12.000Z</time>
      </trkpt>
      <trkpt lat="45.17097" lon="5.96382">
        <ele>2626</ele>
        <time>2019-01-20T12:17:13.000Z</time>
      </trkpt>
      <trkpt lat="45.17097" lon="5.96382">
        <ele>2626</ele>
        <time>2019-01-20T12:17:14.000Z</time>
      </trkpt>
      <trkpt lat="45.17097" lon="5.96382">
        <ele>2626</ele>
        <time>2019-01-20T12:17:15.000Z</time>
      </trkpt>
      <trkpt lat="45.17097" lon="5.96382">
        <ele>2626</ele>
        <time>2019-01-20T12:17:16.000Z</time>
      </trkpt>
      <trkpt lat="45.17097" lon="5.96382">
        <ele>2626</ele>
        <time>2019-01-20T12:17:17.000Z</time>
      </trkpt>
      <trkpt lat="45.17097" lon="5.96382">
        <ele>2626</ele>
        <time>2019-01-20T12:17:18.000Z</time>
      </trkpt>
      <trkpt lat="45.17097" lon="5.96382">
        <ele>2627</ele>
        <time>2019-01-20T12:17:19.000Z</time>
      </trkpt>
      <trkpt lat="45.17097" lon="5.96382">
        <ele>2627</ele>
        <time>2019-01-20T12:17:21.000Z</time>
      </trkpt>
      <trkpt lat="45.17099" lon="5.96379">
        <ele>2627</ele>
        <time>2019-01-20T12:17:22.000Z</time>
      </trkpt>
      <trkpt lat="45.17099" lon="5.96379">
        <ele>2627</ele>
        <time>2019-01-20T12:17:23.000Z</time>
      </trkpt>
      <trkpt lat="45.17099" lon="5.96379">
        <ele>2627</ele>
        <time>2019-01-20T12:17:24.000Z</time>
      </trkpt>
      <trkpt lat="45.171" lon="5.96377">
        <ele>2628</ele>
        <time>2019-01-20T12:17:25.000Z</time>
      </trkpt>
      <trkpt lat="45.171" lon="5.96377">
        <ele>2628</ele>
        <time>2019-01-20T12:17:26.000Z</time>
      </trkpt>
      <trkpt lat="45.171" lon="5.96377">
        <ele>2628</ele>
        <time>2019-01-20T12:17:27.000Z</time>
      </trkpt>
      <trkpt lat="45.17101" lon="5.96375">
        <ele>2628</ele>
        <time>2019-01-20T12:17:28.000Z</time>
      </trkpt>
      <trkpt lat="45.17101" lon="5.96375">
        <ele>2628.4</ele>
        <time>2019-01-20T12:17:29.000Z</time>
      </trkpt>
      <trkpt lat="45.17101" lon="5.96375">
        <ele>2629</ele>
        <time>2019-01-20T12:17:30.000Z</time>
      </trkpt>
      <trkpt lat="45.17101" lon="5.96375">
        <ele>2629</ele>
        <time>2019-01-20T12:17:31.000Z</time>
      </trkpt>
      <trkpt lat="45.17101" lon="5.96375">
        <ele>2629</ele>
        <time>2019-01-20T12:17:32.000Z</time>
      </trkpt>
      <trkpt lat="45.17101" lon="5.96372">
        <ele>2629</ele>
        <time>2019-01-20T12:17:33.000Z</time>
      </trkpt>
      <trkpt lat="45.17101" lon="5.96372">
        <ele>2629</ele>
        <time>2019-01-20T12:17:34.000Z</time>
      </trkpt>
      <trkpt lat="45.17101" lon="5.96372">
        <ele>2629</ele>
        <time>2019-01-20T12:17:35.000Z</time>
      </trkpt>
      <trkpt lat="45.17101" lon="5.96372">
        <ele>2630</ele>
        <time>2019-01-20T12:17:36.000Z</time>
      </trkpt>
      <trkpt lat="45.17101" lon="5.96372">
        <ele>2630</ele>
        <time>2019-01-20T12:17:37.000Z</time>
      </trkpt>
      <trkpt lat="45.17101" lon="5.96372">
        <ele>2630</ele>
        <time>2019-01-20T12:17:38.000Z</time>
      </trkpt>
      <trkpt lat="45.17101" lon="5.96372">
        <ele>2630</ele>
        <time>2019-01-20T12:17:39.000Z</time>
      </trkpt>
      <trkpt lat="45.17101" lon="5.96372">
        <ele>2630</ele>
        <time>2019-01-20T12:17:40.000Z</time>
      </trkpt>
      <trkpt lat="45.17101" lon="5.96372">
        <ele>2630</ele>
        <time>2019-01-20T12:17:41.000Z</time>
      </trkpt>
      <trkpt lat="45.17101" lon="5.96372">
        <ele>2630</ele>
        <time>2019-01-20T12:17:42.000Z</time>
      </trkpt>
      <trkpt lat="45.17101" lon="5.96372">
        <ele>2630</ele>
        <time>2019-01-20T12:17:43.000Z</time>
      </trkpt>
      <trkpt lat="45.17101" lon="5.96372">
        <ele>2630</ele>
        <time>2019-01-20T12:17:44.000Z</time>
      </trkpt>
      <trkpt lat="45.17101" lon="5.96372">
        <ele>2630</ele>
        <time>2019-01-20T12:17:45.000Z</time>
      </trkpt>
      <trkpt lat="45.17101" lon="5.96372">
        <ele>2630</ele>
        <time>2019-01-20T12:17:46.000Z</time>
      </trkpt>
      <trkpt lat="45.17101" lon="5.96372">
        <ele>2630</ele>
        <time>2019-01-20T12:17:48.000Z</time>
      </trkpt>
      <trkpt lat="45.17101" lon="5.96372">
        <ele>2630</ele>
        <time>2019-01-20T12:17:49.000Z</time>
      </trkpt>
      <trkpt lat="45.17101" lon="5.96372">
        <ele>2630</ele>
        <time>2019-01-20T12:17:50.000Z</time>
      </trkpt>
      <trkpt lat="45.17101" lon="5.96372">
        <ele>2630</ele>
        <time>2019-01-20T12:17:51.000Z</time>
      </trkpt>
      <trkpt lat="45.17101" lon="5.96372">
        <ele>2630</ele>
        <time>2019-01-20T12:17:52.000Z</time>
      </trkpt>
      <trkpt lat="45.171" lon="5.96368">
        <ele>2630</ele>
        <time>2019-01-20T12:17:53.000Z</time>
      </trkpt>
      <trkpt lat="45.171" lon="5.96368">
        <ele>2630</ele>
        <time>2019-01-20T12:17:54.000Z</time>
      </trkpt>
      <trkpt lat="45.171" lon="5.96368">
        <ele>2630</ele>
        <time>2019-01-20T12:17:55.000Z</time>
      </trkpt>
      <trkpt lat="45.171" lon="5.96368">
        <ele>2630</ele>
        <time>2019-01-20T12:17:56.000Z</time>
      </trkpt>
      <trkpt lat="45.171" lon="5.96368">
        <ele>2630</ele>
        <time>2019-01-20T12:17:57.000Z</time>
      </trkpt>
      <trkpt lat="45.171" lon="5.96368">
        <ele>2630</ele>
        <time>2019-01-20T12:17:58.000Z</time>
      </trkpt>
      <trkpt lat="45.171" lon="5.96368">
        <ele>2630</ele>
        <time>2019-01-20T12:17:59.000Z</time>
      </trkpt>
      <trkpt lat="45.171" lon="5.96368">
        <ele>2630</ele>
        <time>2019-01-20T12:18:00.000Z</time>
      </trkpt>
      <trkpt lat="45.171" lon="5.96368">
        <ele>2630</ele>
        <time>2019-01-20T12:18:01.000Z</time>
      </trkpt>
      <trkpt lat="45.171" lon="5.96368">
        <ele>2630</ele>
        <time>2019-01-20T12:18:02.000Z</time>
      </trkpt>
      <trkpt lat="45.171" lon="5.96368">
        <ele>2630</ele>
        <time>2019-01-20T12:18:03.000Z</time>
      </trkpt>
      <trkpt lat="45.171" lon="5.96368">
        <ele>2630</ele>
        <time>2019-01-20T12:18:04.000Z</time>
      </trkpt>
      <trkpt lat="45.171" lon="5.96368">
        <ele>2630</ele>
        <time>2019-01-20T12:18:05.000Z</time>
      </trkpt>
      <trkpt lat="45.171" lon="5.96368">
        <ele>2630</ele>
        <time>2019-01-20T12:18:07.000Z</time>
      </trkpt>
      <trkpt lat="45.171" lon="5.96368">
        <ele>2630</ele>
        <time>2019-01-20T12:18:08.000Z</time>
      </trkpt>
      <trkpt lat="45.171" lon="5.96368">
        <ele>2630</ele>
        <time>2019-01-20T12:18:09.000Z</time>
      </trkpt>
      <trkpt lat="45.171" lon="5.96368">
        <ele>2630</ele>
        <time>2019-01-20T12:18:10.000Z</time>
      </trkpt>
      <trkpt lat="45.171" lon="5.96368">
        <ele>2631</ele>
        <time>2019-01-20T12:18:11.000Z</time>
      </trkpt>
      <trkpt lat="45.171" lon="5.96368">
        <ele>2631</ele>
        <time>2019-01-20T12:18:12.000Z</time>
      </trkpt>
      <trkpt lat="45.171" lon="5.96368">
        <ele>2631</ele>
        <time>2019-01-20T12:18:13.000Z</time>
      </trkpt>
      <trkpt lat="45.171" lon="5.96368">
        <ele>2631</ele>
        <time>2019-01-20T12:18:14.000Z</time>
      </trkpt>
      <trkpt lat="45.17103" lon="5.96358">
        <ele>2631</ele>
        <time>2019-01-20T12:18:15.000Z</time>
      </trkpt>
      <trkpt lat="45.17103" lon="5.96358">
        <ele>2632</ele>
        <time>2019-01-20T12:18:16.000Z</time>
      </trkpt>
      <trkpt lat="45.17103" lon="5.96358">
        <ele>2632</ele>
        <time>2019-01-20T12:18:17.000Z</time>
      </trkpt>
      <trkpt lat="45.17103" lon="5.96358">
        <ele>2632</ele>
        <time>2019-01-20T12:18:18.000Z</time>
      </trkpt>
      <trkpt lat="45.17103" lon="5.96358">
        <ele>2632</ele>
        <time>2019-01-20T12:18:19.000Z</time>
      </trkpt>
      <trkpt lat="45.17103" lon="5.96358">
        <ele>2632</ele>
        <time>2019-01-20T12:18:20.000Z</time>
      </trkpt>
      <trkpt lat="45.17103" lon="5.96358">
        <ele>2633</ele>
        <time>2019-01-20T12:18:21.000Z</time>
      </trkpt>
      <trkpt lat="45.17103" lon="5.96358">
        <ele>2633</ele>
        <time>2019-01-20T12:18:22.000Z</time>
      </trkpt>
      <trkpt lat="45.17103" lon="5.96358">
        <ele>2633</ele>
        <time>2019-01-20T12:18:23.000Z</time>
      </trkpt>
      <trkpt lat="45.17103" lon="5.96358">
        <ele>2633</ele>
        <time>2019-01-20T12:18:24.000Z</time>
      </trkpt>
      <trkpt lat="45.17103" lon="5.96358">
        <ele>2633</ele>
        <time>2019-01-20T12:18:26.000Z</time>
      </trkpt>
      <trkpt lat="45.17103" lon="5.96358">
        <ele>2633</ele>
        <time>2019-01-20T12:18:27.000Z</time>
      </trkpt>
      <trkpt lat="45.17103" lon="5.96358">
        <ele>2633</ele>
        <time>2019-01-20T12:18:28.000Z</time>
      </trkpt>
      <trkpt lat="45.17103" lon="5.96358">
        <ele>2634</ele>
        <time>2019-01-20T12:18:29.000Z</time>
      </trkpt>
      <trkpt lat="45.17102" lon="5.96345">
        <ele>2634</ele>
        <time>2019-01-20T12:18:30.000Z</time>
      </trkpt>
      <trkpt lat="45.17102" lon="5.96345">
        <ele>2635</ele>
        <time>2019-01-20T12:18:31.000Z</time>
      </trkpt>
      <trkpt lat="45.17102" lon="5.96345">
        <ele>2635</ele>
        <time>2019-01-20T12:18:32.000Z</time>
      </trkpt>
      <trkpt lat="45.17102" lon="5.96345">
        <ele>2635</ele>
        <time>2019-01-20T12:18:33.000Z</time>
      </trkpt>
      <trkpt lat="45.17102" lon="5.96345">
        <ele>2635</ele>
        <time>2019-01-20T12:18:34.000Z</time>
      </trkpt>
      <trkpt lat="45.17102" lon="5.96345">
        <ele>2635</ele>
        <time>2019-01-20T12:18:35.000Z</time>
      </trkpt>
      <trkpt lat="45.17102" lon="5.96345">
        <ele>2635</ele>
        <time>2019-01-20T12:18:36.000Z</time>
      </trkpt>
      <trkpt lat="45.17102" lon="5.96345">
        <ele>2635</ele>
        <time>2019-01-20T12:18:37.000Z</time>
      </trkpt>
      <trkpt lat="45.17102" lon="5.96345">
        <ele>2635</ele>
        <time>2019-01-20T12:18:38.000Z</time>
      </trkpt>
      <trkpt lat="45.17102" lon="5.96345">
        <ele>2635</ele>
        <time>2019-01-20T12:18:39.000Z</time>
      </trkpt>
      <trkpt lat="45.17102" lon="5.96345">
        <ele>2636</ele>
        <time>2019-01-20T12:18:40.000Z</time>
      </trkpt>
      <trkpt lat="45.17102" lon="5.96345">
        <ele>2636</ele>
        <time>2019-01-20T12:18:41.000Z</time>
      </trkpt>
      <trkpt lat="45.17102" lon="5.96345">
        <ele>2636</ele>
        <time>2019-01-20T12:18:42.000Z</time>
      </trkpt>
      <trkpt lat="45.17102" lon="5.96345">
        <ele>2636</ele>
        <time>2019-01-20T12:18:43.000Z</time>
      </trkpt>
      <trkpt lat="45.17102" lon="5.96345">
        <ele>2635.6</ele>
        <time>2019-01-20T12:18:45.000Z</time>
      </trkpt>
      <trkpt lat="45.17102" lon="5.96345">
        <ele>2636</ele>
        <time>2019-01-20T12:18:46.000Z</time>
      </trkpt>
      <trkpt lat="45.17102" lon="5.96345">
        <ele>2636</ele>
        <time>2019-01-20T12:18:47.000Z</time>
      </trkpt>
      <trkpt lat="45.17102" lon="5.96345">
        <ele>2636</ele>
        <time>2019-01-20T12:18:48.000Z</time>
      </trkpt>
      <trkpt lat="45.17102" lon="5.96345">
        <ele>2636</ele>
        <time>2019-01-20T12:18:49.000Z</time>
      </trkpt>
      <trkpt lat="45.17102" lon="5.96345">
        <ele>2636</ele>
        <time>2019-01-20T12:18:50.000Z</time>
      </trkpt>
      <trkpt lat="45.17102" lon="5.96345">
        <ele>2636</ele>
        <time>2019-01-20T12:18:51.000Z</time>
      </trkpt>
      <trkpt lat="45.17102" lon="5.96345">
        <ele>2637</ele>
        <time>2019-01-20T12:18:52.000Z</time>
      </trkpt>
      <trkpt lat="45.17102" lon="5.96345">
        <ele>2637</ele>
        <time>2019-01-20T12:18:53.000Z</time>
      </trkpt>
      <trkpt lat="45.17102" lon="5.96345">
        <ele>2637</ele>
        <time>2019-01-20T12:18:54.000Z</time>
      </trkpt>
      <trkpt lat="45.17102" lon="5.96345">
        <ele>2639</ele>
        <time>2019-01-20T12:18:55.000Z</time>
      </trkpt>
      <trkpt lat="45.17102" lon="5.96345">
        <ele>2639</ele>
        <time>2019-01-20T12:18:56.000Z</time>
      </trkpt>
      <trkpt lat="45.17102" lon="5.96345">
        <ele>2639</ele>
        <time>2019-01-20T12:18:57.000Z</time>
      </trkpt>
      <trkpt lat="45.17102" lon="5.96345">
        <ele>2639</ele>
        <time>2019-01-20T12:18:58.000Z</time>
      </trkpt>
      <trkpt lat="45.17102" lon="5.96345">
        <ele>2640</ele>
        <time>2019-01-20T12:18:59.000Z</time>
      </trkpt>
      <trkpt lat="45.17102" lon="5.96345">
        <ele>2640</ele>
        <time>2019-01-20T12:19:00.000Z</time>
      </trkpt>
      <trkpt lat="45.17102" lon="5.96345">
        <ele>2640</ele>
        <time>2019-01-20T12:19:01.000Z</time>
      </trkpt>
      <trkpt lat="45.17102" lon="5.96345">
        <ele>2640</ele>
        <time>2019-01-20T12:19:02.000Z</time>
      </trkpt>
      <trkpt lat="45.17102" lon="5.96345">
        <ele>2640</ele>
        <time>2019-01-20T12:19:04.000Z</time>
      </trkpt>
      <trkpt lat="45.17103" lon="5.96346">
        <ele>2640</ele>
        <time>2019-01-20T12:19:05.000Z</time>
      </trkpt>
      <trkpt lat="45.17103" lon="5.96346">
        <ele>2640</ele>
        <time>2019-01-20T12:19:06.000Z</time>
      </trkpt>
      <trkpt lat="45.17104" lon="5.96347">
        <ele>2640</ele>
        <time>2019-01-20T12:19:07.000Z</time>
      </trkpt>
      <trkpt lat="45.17104" lon="5.96347">
        <ele>2640</ele>
        <time>2019-01-20T12:19:08.000Z</time>
      </trkpt>
      <trkpt lat="45.17105" lon="5.96347">
        <ele>2640</ele>
        <time>2019-01-20T12:19:09.000Z</time>
      </trkpt>
      <trkpt lat="45.17105" lon="5.96348">
        <ele>2640</ele>
        <time>2019-01-20T12:19:10.000Z</time>
      </trkpt>
      <trkpt lat="45.17106" lon="5.96348">
        <ele>2641</ele>
        <time>2019-01-20T12:19:11.000Z</time>
      </trkpt>
      <trkpt lat="45.17106" lon="5.96349">
        <ele>2641</ele>
        <time>2019-01-20T12:19:12.000Z</time>
      </trkpt>
      <trkpt lat="45.17107" lon="5.96349">
        <ele>2641</ele>
        <time>2019-01-20T12:19:13.000Z</time>
      </trkpt>
      <trkpt lat="45.17107" lon="5.9635">
        <ele>2641</ele>
        <time>2019-01-20T12:19:14.000Z</time>
      </trkpt>
      <trkpt lat="45.17108" lon="5.9635">
        <ele>2641</ele>
        <time>2019-01-20T12:19:15.000Z</time>
      </trkpt>
      <trkpt lat="45.17108" lon="5.9635">
        <ele>2641</ele>
        <time>2019-01-20T12:19:16.000Z</time>
      </trkpt>
      <trkpt lat="45.17109" lon="5.96351">
        <ele>2641</ele>
        <time>2019-01-20T12:19:17.000Z</time>
      </trkpt>
      <trkpt lat="45.17109" lon="5.96351">
        <ele>2642</ele>
        <time>2019-01-20T12:19:18.000Z</time>
      </trkpt>
      <trkpt lat="45.1711" lon="5.96352">
        <ele>2642</ele>
        <time>2019-01-20T12:19:19.000Z</time>
      </trkpt>
      <trkpt lat="45.1711" lon="5.96352">
        <ele>2642</ele>
        <time>2019-01-20T12:19:20.000Z</time>
      </trkpt>
      <trkpt lat="45.1711" lon="5.96353">
        <ele>2642</ele>
        <time>2019-01-20T12:19:21.000Z</time>
      </trkpt>
      <trkpt lat="45.17114" lon="5.96361">
        <ele>2642</ele>
        <time>2019-01-20T12:19:22.000Z</time>
      </trkpt>
      <trkpt lat="45.17114" lon="5.96361">
        <ele>2642</ele>
        <time>2019-01-20T12:19:23.000Z</time>
      </trkpt>
      <trkpt lat="45.17114" lon="5.96361">
        <ele>2642</ele>
        <time>2019-01-20T12:19:24.000Z</time>
      </trkpt>
      <trkpt lat="45.17114" lon="5.96361">
        <ele>2642</ele>
        <time>2019-01-20T12:19:25.000Z</time>
      </trkpt>
      <trkpt lat="45.17114" lon="5.96361">
        <ele>2642</ele>
        <time>2019-01-20T12:19:26.000Z</time>
      </trkpt>
      <trkpt lat="45.17114" lon="5.96361">
        <ele>2642</ele>
        <time>2019-01-20T12:19:27.000Z</time>
      </trkpt>
      <trkpt lat="45.17114" lon="5.96361">
        <ele>2643</ele>
        <time>2019-01-20T12:19:28.000Z</time>
      </trkpt>
      <trkpt lat="45.17114" lon="5.96361">
        <ele>2643</ele>
        <time>2019-01-20T12:19:29.000Z</time>
      </trkpt>
      <trkpt lat="45.17114" lon="5.96361">
        <ele>2644</ele>
        <time>2019-01-20T12:19:30.000Z</time>
      </trkpt>
      <trkpt lat="45.17114" lon="5.96361">
        <ele>2644</ele>
        <time>2019-01-20T12:19:31.000Z</time>
      </trkpt>
      <trkpt lat="45.17118" lon="5.96369">
        <ele>2644</ele>
        <time>2019-01-20T12:19:33.000Z</time>
      </trkpt>
      <trkpt lat="45.17118" lon="5.96369">
        <ele>2644</ele>
        <time>2019-01-20T12:19:34.000Z</time>
      </trkpt>
      <trkpt lat="45.17118" lon="5.96369">
        <ele>2644</ele>
        <time>2019-01-20T12:19:35.000Z</time>
      </trkpt>
      <trkpt lat="45.17118" lon="5.96369">
        <ele>2645</ele>
        <time>2019-01-20T12:19:36.000Z</time>
      </trkpt>
      <trkpt lat="45.17118" lon="5.96369">
        <ele>2645</ele>
        <time>2019-01-20T12:19:37.000Z</time>
      </trkpt>
      <trkpt lat="45.17118" lon="5.96369">
        <ele>2645</ele>
        <time>2019-01-20T12:19:38.000Z</time>
      </trkpt>
      <trkpt lat="45.17118" lon="5.96369">
        <ele>2645</ele>
        <time>2019-01-20T12:19:39.000Z</time>
      </trkpt>
      <trkpt lat="45.17118" lon="5.96369">
        <ele>2645</ele>
        <time>2019-01-20T12:19:40.000Z</time>
      </trkpt>
      <trkpt lat="45.17118" lon="5.96369">
        <ele>2645.6</ele>
        <time>2019-01-20T12:19:42.000Z</time>
      </trkpt>
      <trkpt lat="45.17118" lon="5.96369">
        <ele>2646</ele>
        <time>2019-01-20T12:19:43.000Z</time>
      </trkpt>
      <trkpt lat="45.17118" lon="5.96369">
        <ele>2646</ele>
        <time>2019-01-20T12:19:44.000Z</time>
      </trkpt>
      <trkpt lat="45.1712" lon="5.96373">
        <ele>2646</ele>
        <time>2019-01-20T12:19:45.000Z</time>
      </trkpt>
      <trkpt lat="45.1712" lon="5.96373">
        <ele>2646</ele>
        <time>2019-01-20T12:19:46.000Z</time>
      </trkpt>
      <trkpt lat="45.1712" lon="5.96373">
        <ele>2647</ele>
        <time>2019-01-20T12:19:47.000Z</time>
      </trkpt>
      <trkpt lat="45.1712" lon="5.96373">
        <ele>2647</ele>
        <time>2019-01-20T12:19:48.000Z</time>
      </trkpt>
      <trkpt lat="45.1712" lon="5.96377">
        <ele>2647</ele>
        <time>2019-01-20T12:19:49.000Z</time>
      </trkpt>
      <trkpt lat="45.1712" lon="5.96377">
        <ele>2647</ele>
        <time>2019-01-20T12:19:50.000Z</time>
      </trkpt>
      <trkpt lat="45.1712" lon="5.96377">
        <ele>2647</ele>
        <time>2019-01-20T12:19:51.000Z</time>
      </trkpt>
      <trkpt lat="45.1712" lon="5.96377">
        <ele>2647</ele>
        <time>2019-01-20T12:19:52.000Z</time>
      </trkpt>
      <trkpt lat="45.1712" lon="5.96377">
        <ele>2647</ele>
        <time>2019-01-20T12:19:53.000Z</time>
      </trkpt>
      <trkpt lat="45.1712" lon="5.96377">
        <ele>2647</ele>
        <time>2019-01-20T12:19:54.000Z</time>
      </trkpt>
      <trkpt lat="45.1712" lon="5.9638">
        <ele>2647</ele>
        <time>2019-01-20T12:19:55.000Z</time>
      </trkpt>
      <trkpt lat="45.1712" lon="5.9638">
        <ele>2647</ele>
        <time>2019-01-20T12:19:56.000Z</time>
      </trkpt>
      <trkpt lat="45.1712" lon="5.9638">
        <ele>2647</ele>
        <time>2019-01-20T12:19:57.000Z</time>
      </trkpt>
      <trkpt lat="45.1712" lon="5.9638">
        <ele>2648</ele>
        <time>2019-01-20T12:19:58.000Z</time>
      </trkpt>
      <trkpt lat="45.1712" lon="5.9638">
        <ele>2648</ele>
        <time>2019-01-20T12:19:59.000Z</time>
      </trkpt>
      <trkpt lat="45.1712" lon="5.9638">
        <ele>2648</ele>
        <time>2019-01-20T12:20:01.000Z</time>
      </trkpt>
      <trkpt lat="45.1712" lon="5.9638">
        <ele>2648</ele>
        <time>2019-01-20T12:20:02.000Z</time>
      </trkpt>
      <trkpt lat="45.1712" lon="5.9638">
        <ele>2648</ele>
        <time>2019-01-20T12:20:03.000Z</time>
      </trkpt>
      <trkpt lat="45.1712" lon="5.9638">
        <ele>2648</ele>
        <time>2019-01-20T12:20:04.000Z</time>
      </trkpt>
      <trkpt lat="45.1712" lon="5.9638">
        <ele>2647</ele>
        <time>2019-01-20T12:20:05.000Z</time>
      </trkpt>
      <trkpt lat="45.1712" lon="5.9638">
        <ele>2647</ele>
        <time>2019-01-20T12:20:06.000Z</time>
      </trkpt>
      <trkpt lat="45.1712" lon="5.9638">
        <ele>2647</ele>
        <time>2019-01-20T12:20:07.000Z</time>
      </trkpt>
      <trkpt lat="45.1712" lon="5.9638">
        <ele>2647</ele>
        <time>2019-01-20T12:20:08.000Z</time>
      </trkpt>
      <trkpt lat="45.1712" lon="5.9638">
        <ele>2647</ele>
        <time>2019-01-20T12:20:10.000Z</time>
      </trkpt>
      <trkpt lat="45.1712" lon="5.9638">
        <ele>2647</ele>
        <time>2019-01-20T12:20:11.000Z</time>
      </trkpt>
      <trkpt lat="45.1712" lon="5.9638">
        <ele>2647</ele>
        <time>2019-01-20T12:20:12.000Z</time>
      </trkpt>
      <trkpt lat="45.1712" lon="5.9638">
        <ele>2647</ele>
        <time>2019-01-20T12:20:13.000Z</time>
      </trkpt>
      <trkpt lat="45.1712" lon="5.9638">
        <ele>2647</ele>
        <time>2019-01-20T12:20:14.000Z</time>
      </trkpt>
      <trkpt lat="45.1712" lon="5.9638">
        <ele>2647</ele>
        <time>2019-01-20T12:20:15.000Z</time>
      </trkpt>
      <trkpt lat="45.1712" lon="5.9638">
        <ele>2648</ele>
        <time>2019-01-20T12:20:16.000Z</time>
      </trkpt>
      <trkpt lat="45.1712" lon="5.9638">
        <ele>2648</ele>
        <time>2019-01-20T12:20:17.000Z</time>
      </trkpt>
      <trkpt lat="45.1712" lon="5.9638">
        <ele>2648</ele>
        <time>2019-01-20T12:20:18.000Z</time>
      </trkpt>
      <trkpt lat="45.17122" lon="5.96378">
        <ele>2648</ele>
        <time>2019-01-20T12:20:19.000Z</time>
      </trkpt>
      <trkpt lat="45.17122" lon="5.96378">
        <ele>2648</ele>
        <time>2019-01-20T12:20:20.000Z</time>
      </trkpt>
      <trkpt lat="45.17122" lon="5.96378">
        <ele>2648</ele>
        <time>2019-01-20T12:20:21.000Z</time>
      </trkpt>
      <trkpt lat="45.17122" lon="5.96378">
        <ele>2648</ele>
        <time>2019-01-20T12:20:22.000Z</time>
      </trkpt>
      <trkpt lat="45.17122" lon="5.96378">
        <ele>2648</ele>
        <time>2019-01-20T12:20:23.000Z</time>
      </trkpt>
      <trkpt lat="45.17122" lon="5.96378">
        <ele>2648</ele>
        <time>2019-01-20T12:20:24.000Z</time>
      </trkpt>
      <trkpt lat="45.17122" lon="5.96378">
        <ele>2649</ele>
        <time>2019-01-20T12:20:25.000Z</time>
      </trkpt>
      <trkpt lat="45.17122" lon="5.96374">
        <ele>2649</ele>
        <time>2019-01-20T12:20:26.000Z</time>
      </trkpt>
      <trkpt lat="45.17122" lon="5.96374">
        <ele>2649</ele>
        <time>2019-01-20T12:20:27.000Z</time>
      </trkpt>
      <trkpt lat="45.17122" lon="5.96374">
        <ele>2649</ele>
        <time>2019-01-20T12:20:28.000Z</time>
      </trkpt>
      <trkpt lat="45.17122" lon="5.96372">
        <ele>2649</ele>
        <time>2019-01-20T12:20:29.000Z</time>
      </trkpt>
      <trkpt lat="45.17122" lon="5.96372">
        <ele>2649</ele>
        <time>2019-01-20T12:20:30.000Z</time>
      </trkpt>
      <trkpt lat="45.17122" lon="5.96372">
        <ele>2650</ele>
        <time>2019-01-20T12:20:31.000Z</time>
      </trkpt>
      <trkpt lat="45.17123" lon="5.96369">
        <ele>2650</ele>
        <time>2019-01-20T12:20:32.000Z</time>
      </trkpt>
      <trkpt lat="45.17123" lon="5.96369">
        <ele>2650</ele>
        <time>2019-01-20T12:20:33.000Z</time>
      </trkpt>
      <trkpt lat="45.17123" lon="5.96369">
        <ele>2649</ele>
        <time>2019-01-20T12:20:34.000Z</time>
      </trkpt>
      <trkpt lat="45.17124" lon="5.96365">
        <ele>2649</ele>
        <time>2019-01-20T12:20:35.000Z</time>
      </trkpt>
      <trkpt lat="45.17124" lon="5.96365">
        <ele>2649</ele>
        <time>2019-01-20T12:20:36.000Z</time>
      </trkpt>
      <trkpt lat="45.17124" lon="5.96365">
        <ele>2649</ele>
        <time>2019-01-20T12:20:37.000Z</time>
      </trkpt>
      <trkpt lat="45.17125" lon="5.96362">
        <ele>2649</ele>
        <time>2019-01-20T12:20:39.000Z</time>
      </trkpt>
      <trkpt lat="45.17125" lon="5.96362">
        <ele>2649</ele>
        <time>2019-01-20T12:20:40.000Z</time>
      </trkpt>
      <trkpt lat="45.17125" lon="5.96362">
        <ele>2649</ele>
        <time>2019-01-20T12:20:41.000Z</time>
      </trkpt>
      <trkpt lat="45.17125" lon="5.96362">
        <ele>2649</ele>
        <time>2019-01-20T12:20:42.000Z</time>
      </trkpt>
      <trkpt lat="45.17125" lon="5.96362">
        <ele>2650</ele>
        <time>2019-01-20T12:20:43.000Z</time>
      </trkpt>
      <trkpt lat="45.17125" lon="5.96359">
        <ele>2650</ele>
        <time>2019-01-20T12:20:44.000Z</time>
      </trkpt>
      <trkpt lat="45.17125" lon="5.96359">
        <ele>2650</ele>
        <time>2019-01-20T12:20:45.000Z</time>
      </trkpt>
      <trkpt lat="45.17125" lon="5.96359">
        <ele>2650</ele>
        <time>2019-01-20T12:20:46.000Z</time>
      </trkpt>
      <trkpt lat="45.17125" lon="5.96359">
        <ele>2650</ele>
        <time>2019-01-20T12:20:47.000Z</time>
      </trkpt>
      <trkpt lat="45.17125" lon="5.96356">
        <ele>2650</ele>
        <time>2019-01-20T12:20:48.000Z</time>
      </trkpt>
      <trkpt lat="45.17125" lon="5.96356">
        <ele>2650</ele>
        <time>2019-01-20T12:20:49.000Z</time>
      </trkpt>
      <trkpt lat="45.17125" lon="5.96356">
        <ele>2650</ele>
        <time>2019-01-20T12:20:50.000Z</time>
      </trkpt>
      <trkpt lat="45.17125" lon="5.96353">
        <ele>2650</ele>
        <time>2019-01-20T12:20:51.000Z</time>
      </trkpt>
      <trkpt lat="45.17125" lon="5.96353">
        <ele>2651</ele>
        <time>2019-01-20T12:20:52.000Z</time>
      </trkpt>
      <trkpt lat="45.17125" lon="5.96353">
        <ele>2651</ele>
        <time>2019-01-20T12:20:53.000Z</time>
      </trkpt>
      <trkpt lat="45.17124" lon="5.9635">
        <ele>2651</ele>
        <time>2019-01-20T12:20:54.000Z</time>
      </trkpt>
      <trkpt lat="45.17124" lon="5.9635">
        <ele>2651</ele>
        <time>2019-01-20T12:20:55.000Z</time>
      </trkpt>
      <trkpt lat="45.17124" lon="5.9635">
        <ele>2652</ele>
        <time>2019-01-20T12:20:56.000Z</time>
      </trkpt>
      <trkpt lat="45.17124" lon="5.9635">
        <ele>2652</ele>
        <time>2019-01-20T12:20:58.000Z</time>
      </trkpt>
      <trkpt lat="45.17124" lon="5.9635">
        <ele>2652</ele>
        <time>2019-01-20T12:20:59.000Z</time>
      </trkpt>
      <trkpt lat="45.17124" lon="5.9635">
        <ele>2652</ele>
        <time>2019-01-20T12:21:00.000Z</time>
      </trkpt>
      <trkpt lat="45.17124" lon="5.9635">
        <ele>2652</ele>
        <time>2019-01-20T12:21:01.000Z</time>
      </trkpt>
      <trkpt lat="45.17124" lon="5.9635">
        <ele>2652</ele>
        <time>2019-01-20T12:21:02.000Z</time>
      </trkpt>
      <trkpt lat="45.17124" lon="5.9635">
        <ele>2652</ele>
        <time>2019-01-20T12:21:03.000Z</time>
      </trkpt>
      <trkpt lat="45.17124" lon="5.9635">
        <ele>2652</ele>
        <time>2019-01-20T12:21:04.000Z</time>
      </trkpt>
      <trkpt lat="45.17124" lon="5.9635">
        <ele>2652</ele>
        <time>2019-01-20T12:21:05.000Z</time>
      </trkpt>
      <trkpt lat="45.17124" lon="5.9635">
        <ele>2653</ele>
        <time>2019-01-20T12:21:06.000Z</time>
      </trkpt>
      <trkpt lat="45.17124" lon="5.9635">
        <ele>2653</ele>
        <time>2019-01-20T12:21:07.000Z</time>
      </trkpt>
      <trkpt lat="45.17124" lon="5.9635">
        <ele>2653</ele>
        <time>2019-01-20T12:21:08.000Z</time>
      </trkpt>
      <trkpt lat="45.17124" lon="5.9635">
        <ele>2653</ele>
        <time>2019-01-20T12:21:09.000Z</time>
      </trkpt>
      <trkpt lat="45.17124" lon="5.9635">
        <ele>2653</ele>
        <time>2019-01-20T12:21:10.000Z</time>
      </trkpt>
      <trkpt lat="45.17124" lon="5.9635">
        <ele>2653</ele>
        <time>2019-01-20T12:21:11.000Z</time>
      </trkpt>
      <trkpt lat="45.17124" lon="5.9635">
        <ele>2653</ele>
        <time>2019-01-20T12:21:12.000Z</time>
      </trkpt>
      <trkpt lat="45.17124" lon="5.9635">
        <ele>2653</ele>
        <time>2019-01-20T12:21:13.000Z</time>
      </trkpt>
      <trkpt lat="45.17124" lon="5.9635">
        <ele>2653</ele>
        <time>2019-01-20T12:21:14.000Z</time>
      </trkpt>
      <trkpt lat="45.17124" lon="5.9635">
        <ele>2653</ele>
        <time>2019-01-20T12:21:15.000Z</time>
      </trkpt>
      <trkpt lat="45.17124" lon="5.9635">
        <ele>2653.6</ele>
        <time>2019-01-20T12:21:17.000Z</time>
      </trkpt>
      <trkpt lat="45.17124" lon="5.9635">
        <ele>2654</ele>
        <time>2019-01-20T12:21:18.000Z</time>
      </trkpt>
      <trkpt lat="45.1712" lon="5.96339">
        <ele>2654</ele>
        <time>2019-01-20T12:21:19.000Z</time>
      </trkpt>
      <trkpt lat="45.1712" lon="5.96339">
        <ele>2654</ele>
        <time>2019-01-20T12:21:20.000Z</time>
      </trkpt>
      <trkpt lat="45.1712" lon="5.96339">
        <ele>2654</ele>
        <time>2019-01-20T12:21:21.000Z</time>
      </trkpt>
      <trkpt lat="45.1712" lon="5.96339">
        <ele>2654</ele>
        <time>2019-01-20T12:21:22.000Z</time>
      </trkpt>
      <trkpt lat="45.1712" lon="5.96339">
        <ele>2654</ele>
        <time>2019-01-20T12:21:23.000Z</time>
      </trkpt>
      <trkpt lat="45.1712" lon="5.96339">
        <ele>2654</ele>
        <time>2019-01-20T12:21:24.000Z</time>
      </trkpt>
      <trkpt lat="45.1712" lon="5.96339">
        <ele>2655</ele>
        <time>2019-01-20T12:21:25.000Z</time>
      </trkpt>
      <trkpt lat="45.1712" lon="5.96339">
        <ele>2655</ele>
        <time>2019-01-20T12:21:26.000Z</time>
      </trkpt>
      <trkpt lat="45.1712" lon="5.96339">
        <ele>2655</ele>
        <time>2019-01-20T12:21:27.000Z</time>
      </trkpt>
      <trkpt lat="45.1712" lon="5.96339">
        <ele>2655</ele>
        <time>2019-01-20T12:21:28.000Z</time>
      </trkpt>
      <trkpt lat="45.1712" lon="5.96339">
        <ele>2655</ele>
        <time>2019-01-20T12:21:29.000Z</time>
      </trkpt>
      <trkpt lat="45.1712" lon="5.96339">
        <ele>2655</ele>
        <time>2019-01-20T12:21:30.000Z</time>
      </trkpt>
      <trkpt lat="45.1712" lon="5.96339">
        <ele>2655</ele>
        <time>2019-01-20T12:21:31.000Z</time>
      </trkpt>
      <trkpt lat="45.1712" lon="5.96339">
        <ele>2655</ele>
        <time>2019-01-20T12:21:32.000Z</time>
      </trkpt>
      <trkpt lat="45.1712" lon="5.96339">
        <ele>2655</ele>
        <time>2019-01-20T12:21:33.000Z</time>
      </trkpt>
      <trkpt lat="45.1712" lon="5.96339">
        <ele>2655</ele>
        <time>2019-01-20T12:21:34.000Z</time>
      </trkpt>
      <trkpt lat="45.1712" lon="5.96339">
        <ele>2655</ele>
        <time>2019-01-20T12:21:36.000Z</time>
      </trkpt>
      <trkpt lat="45.1712" lon="5.96339">
        <ele>2655</ele>
        <time>2019-01-20T12:21:37.000Z</time>
      </trkpt>
      <trkpt lat="45.1712" lon="5.96339">
        <ele>2655</ele>
        <time>2019-01-20T12:21:38.000Z</time>
      </trkpt>
      <trkpt lat="45.1712" lon="5.96339">
        <ele>2655</ele>
        <time>2019-01-20T12:21:39.000Z</time>
      </trkpt>
      <trkpt lat="45.1712" lon="5.96339">
        <ele>2655</ele>
        <time>2019-01-20T12:21:40.000Z</time>
      </trkpt>
      <trkpt lat="45.1712" lon="5.96339">
        <ele>2655</ele>
        <time>2019-01-20T12:21:41.000Z</time>
      </trkpt>
      <trkpt lat="45.1712" lon="5.96339">
        <ele>2655</ele>
        <time>2019-01-20T12:21:42.000Z</time>
      </trkpt>
      <trkpt lat="45.1712" lon="5.96339">
        <ele>2655</ele>
        <time>2019-01-20T12:21:43.000Z</time>
      </trkpt>
      <trkpt lat="45.1712" lon="5.96339">
        <ele>2655</ele>
        <time>2019-01-20T12:21:44.000Z</time>
      </trkpt>
      <trkpt lat="45.1712" lon="5.96339">
        <ele>2655</ele>
        <time>2019-01-20T12:21:45.000Z</time>
      </trkpt>
      <trkpt lat="45.1712" lon="5.96339">
        <ele>2655</ele>
        <time>2019-01-20T12:21:46.000Z</time>
      </trkpt>
      <trkpt lat="45.1712" lon="5.96339">
        <ele>2655</ele>
        <time>2019-01-20T12:21:47.000Z</time>
      </trkpt>
      <trkpt lat="45.1712" lon="5.96339">
        <ele>2655</ele>
        <time>2019-01-20T12:21:48.000Z</time>
      </trkpt>
      <trkpt lat="45.1712" lon="5.96339">
        <ele>2655</ele>
        <time>2019-01-20T12:21:49.000Z</time>
      </trkpt>
      <trkpt lat="45.1712" lon="5.96339">
        <ele>2655</ele>
        <time>2019-01-20T12:21:50.000Z</time>
      </trkpt>
      <trkpt lat="45.1712" lon="5.96339">
        <ele>2655</ele>
        <time>2019-01-20T12:21:51.000Z</time>
      </trkpt>
      <trkpt lat="45.1712" lon="5.96339">
        <ele>2655</ele>
        <time>2019-01-20T12:21:52.000Z</time>
      </trkpt>
      <trkpt lat="45.1712" lon="5.96339">
        <ele>2655</ele>
        <time>2019-01-20T12:21:53.000Z</time>
      </trkpt>
      <trkpt lat="45.1712" lon="5.96339">
        <ele>2655</ele>
        <time>2019-01-20T12:21:55.000Z</time>
      </trkpt>
      <trkpt lat="45.1712" lon="5.96339">
        <ele>2655</ele>
        <time>2019-01-20T12:21:56.000Z</time>
      </trkpt>
      <trkpt lat="45.1712" lon="5.96339">
        <ele>2655</ele>
        <time>2019-01-20T12:21:57.000Z</time>
      </trkpt>
      <trkpt lat="45.1712" lon="5.96339">
        <ele>2655</ele>
        <time>2019-01-20T12:21:58.000Z</time>
      </trkpt>
      <trkpt lat="45.1712" lon="5.96339">
        <ele>2656</ele>
        <time>2019-01-20T12:21:59.000Z</time>
      </trkpt>
      <trkpt lat="45.1712" lon="5.96339">
        <ele>2656</ele>
        <time>2019-01-20T12:22:00.000Z</time>
      </trkpt>
      <trkpt lat="45.1712" lon="5.96339">
        <ele>2656</ele>
        <time>2019-01-20T12:22:01.000Z</time>
      </trkpt>
      <trkpt lat="45.1712" lon="5.96339">
        <ele>2656</ele>
        <time>2019-01-20T12:22:02.000Z</time>
      </trkpt>
      <trkpt lat="45.1712" lon="5.96339">
        <ele>2657</ele>
        <time>2019-01-20T12:22:03.000Z</time>
      </trkpt>
      <trkpt lat="45.1712" lon="5.96339">
        <ele>2657</ele>
        <time>2019-01-20T12:22:05.000Z</time>
      </trkpt>
      <trkpt lat="45.17129" lon="5.96344">
        <ele>2657</ele>
        <time>2019-01-20T12:22:06.000Z</time>
      </trkpt>
      <trkpt lat="45.17129" lon="5.96344">
        <ele>2657</ele>
        <time>2019-01-20T12:22:07.000Z</time>
      </trkpt>
      <trkpt lat="45.17129" lon="5.96344">
        <ele>2657</ele>
        <time>2019-01-20T12:22:08.000Z</time>
      </trkpt>
      <trkpt lat="45.17129" lon="5.96344">
        <ele>2658</ele>
        <time>2019-01-20T12:22:09.000Z</time>
      </trkpt>
      <trkpt lat="45.17129" lon="5.96344">
        <ele>2658</ele>
        <time>2019-01-20T12:22:10.000Z</time>
      </trkpt>
      <trkpt lat="45.17129" lon="5.96344">
        <ele>2658</ele>
        <time>2019-01-20T12:22:11.000Z</time>
      </trkpt>
      <trkpt lat="45.17129" lon="5.96344">
        <ele>2658</ele>
        <time>2019-01-20T12:22:12.000Z</time>
      </trkpt>
      <trkpt lat="45.17132" lon="5.96348">
        <ele>2658</ele>
        <time>2019-01-20T12:22:13.000Z</time>
      </trkpt>
      <trkpt lat="45.17132" lon="5.96348">
        <ele>2659</ele>
        <time>2019-01-20T12:22:14.000Z</time>
      </trkpt>
      <trkpt lat="45.17132" lon="5.96348">
        <ele>2660</ele>
        <time>2019-01-20T12:22:15.000Z</time>
      </trkpt>
      <trkpt lat="45.17132" lon="5.96348">
        <ele>2660</ele>
        <time>2019-01-20T12:22:16.000Z</time>
      </trkpt>
      <trkpt lat="45.17132" lon="5.96348">
        <ele>2660</ele>
        <time>2019-01-20T12:22:17.000Z</time>
      </trkpt>
      <trkpt lat="45.17132" lon="5.96348">
        <ele>2658</ele>
        <time>2019-01-20T12:22:18.000Z</time>
      </trkpt>
      <trkpt lat="45.17132" lon="5.96348">
        <ele>2658</ele>
        <time>2019-01-20T12:22:19.000Z</time>
      </trkpt>
      <trkpt lat="45.17132" lon="5.96348">
        <ele>2658</ele>
        <time>2019-01-20T12:22:20.000Z</time>
      </trkpt>
      <trkpt lat="45.17132" lon="5.96348">
        <ele>2658</ele>
        <time>2019-01-20T12:22:21.000Z</time>
      </trkpt>
      <trkpt lat="45.17132" lon="5.96348">
        <ele>2658</ele>
        <time>2019-01-20T12:22:22.000Z</time>
      </trkpt>
      <trkpt lat="45.17132" lon="5.96348">
        <ele>2658</ele>
        <time>2019-01-20T12:22:23.000Z</time>
      </trkpt>
      <trkpt lat="45.17132" lon="5.96348">
        <ele>2658</ele>
        <time>2019-01-20T12:22:24.000Z</time>
      </trkpt>
      <trkpt lat="45.17132" lon="5.96348">
        <ele>2658</ele>
        <time>2019-01-20T12:22:25.000Z</time>
      </trkpt>
      <trkpt lat="45.17132" lon="5.96348">
        <ele>2660</ele>
        <time>2019-01-20T12:22:26.000Z</time>
      </trkpt>
      <trkpt lat="45.17132" lon="5.96348">
        <ele>2660</ele>
        <time>2019-01-20T12:22:27.000Z</time>
      </trkpt>
      <trkpt lat="45.17132" lon="5.96348">
        <ele>2661</ele>
        <time>2019-01-20T12:22:28.000Z</time>
      </trkpt>
      <trkpt lat="45.17132" lon="5.96348">
        <ele>2661</ele>
        <time>2019-01-20T12:22:29.000Z</time>
      </trkpt>
      <trkpt lat="45.17132" lon="5.96348">
        <ele>2661</ele>
        <time>2019-01-20T12:22:30.000Z</time>
      </trkpt>
      <trkpt lat="45.17132" lon="5.96348">
        <ele>2661</ele>
        <time>2019-01-20T12:22:31.000Z</time>
      </trkpt>
      <trkpt lat="45.1713" lon="5.96335">
        <ele>2661.6</ele>
        <time>2019-01-20T12:22:33.000Z</time>
      </trkpt>
      <trkpt lat="45.1713" lon="5.96335">
        <ele>2662</ele>
        <time>2019-01-20T12:22:34.000Z</time>
      </trkpt>
      <trkpt lat="45.1713" lon="5.96335">
        <ele>2662</ele>
        <time>2019-01-20T12:22:35.000Z</time>
      </trkpt>
      <trkpt lat="45.1713" lon="5.96335">
        <ele>2662</ele>
        <time>2019-01-20T12:22:36.000Z</time>
      </trkpt>
      <trkpt lat="45.1713" lon="5.96335">
        <ele>2663</ele>
        <time>2019-01-20T12:22:37.000Z</time>
      </trkpt>
      <trkpt lat="45.1713" lon="5.96335">
        <ele>2663</ele>
        <time>2019-01-20T12:22:38.000Z</time>
      </trkpt>
      <trkpt lat="45.1713" lon="5.96335">
        <ele>2663</ele>
        <time>2019-01-20T12:22:39.000Z</time>
      </trkpt>
      <trkpt lat="45.1713" lon="5.96335">
        <ele>2663</ele>
        <time>2019-01-20T12:22:40.000Z</time>
      </trkpt>
      <trkpt lat="45.1713" lon="5.96335">
        <ele>2663</ele>
        <time>2019-01-20T12:22:41.000Z</time>
      </trkpt>
      <trkpt lat="45.1713" lon="5.96335">
        <ele>2663</ele>
        <time>2019-01-20T12:22:42.000Z</time>
      </trkpt>
      <trkpt lat="45.17127" lon="5.96324">
        <ele>2663</ele>
        <time>2019-01-20T12:22:43.000Z</time>
      </trkpt>
      <trkpt lat="45.17127" lon="5.96324">
        <ele>2664</ele>
        <time>2019-01-20T12:22:44.000Z</time>
      </trkpt>
      <trkpt lat="45.17127" lon="5.96321">
        <ele>2664</ele>
        <time>2019-01-20T12:22:45.000Z</time>
      </trkpt>
      <trkpt lat="45.17127" lon="5.9632">
        <ele>2664</ele>
        <time>2019-01-20T12:22:46.000Z</time>
      </trkpt>
      <trkpt lat="45.17127" lon="5.9632">
        <ele>2664</ele>
        <time>2019-01-20T12:22:47.000Z</time>
      </trkpt>
      <trkpt lat="45.17127" lon="5.9632">
        <ele>2665</ele>
        <time>2019-01-20T12:22:48.000Z</time>
      </trkpt>
      <trkpt lat="45.17127" lon="5.9632">
        <ele>2665</ele>
        <time>2019-01-20T12:22:49.000Z</time>
      </trkpt>
      <trkpt lat="45.17127" lon="5.96319">
        <ele>2665</ele>
        <time>2019-01-20T12:22:50.000Z</time>
      </trkpt>
      <trkpt lat="45.17127" lon="5.96319">
        <ele>2665</ele>
        <time>2019-01-20T12:22:52.000Z</time>
      </trkpt>
      <trkpt lat="45.17127" lon="5.96319">
        <ele>2665</ele>
        <time>2019-01-20T12:22:53.000Z</time>
      </trkpt>
      <trkpt lat="45.17127" lon="5.96319">
        <ele>2665</ele>
        <time>2019-01-20T12:22:54.000Z</time>
      </trkpt>
      <trkpt lat="45.17127" lon="5.96318">
        <ele>2665</ele>
        <time>2019-01-20T12:22:55.000Z</time>
      </trkpt>
      <trkpt lat="45.17127" lon="5.96318">
        <ele>2665</ele>
        <time>2019-01-20T12:22:56.000Z</time>
      </trkpt>
      <trkpt lat="45.17127" lon="5.96318">
        <ele>2665</ele>
        <time>2019-01-20T12:22:57.000Z</time>
      </trkpt>
      <trkpt lat="45.17127" lon="5.96318">
        <ele>2665</ele>
        <time>2019-01-20T12:22:58.000Z</time>
      </trkpt>
      <trkpt lat="45.17127" lon="5.96317">
        <ele>2666</ele>
        <time>2019-01-20T12:22:59.000Z</time>
      </trkpt>
      <trkpt lat="45.17127" lon="5.96317">
        <ele>2666</ele>
        <time>2019-01-20T12:23:00.000Z</time>
      </trkpt>
      <trkpt lat="45.17127" lon="5.96317">
        <ele>2666</ele>
        <time>2019-01-20T12:23:01.000Z</time>
      </trkpt>
      <trkpt lat="45.17127" lon="5.96316">
        <ele>2667</ele>
        <time>2019-01-20T12:23:02.000Z</time>
      </trkpt>
      <trkpt lat="45.17126" lon="5.96315">
        <ele>2667</ele>
        <time>2019-01-20T12:23:03.000Z</time>
      </trkpt>
      <trkpt lat="45.17126" lon="5.96314">
        <ele>2667</ele>
        <time>2019-01-20T12:23:04.000Z</time>
      </trkpt>
      <trkpt lat="45.17126" lon="5.96313">
        <ele>2668</ele>
        <time>2019-01-20T12:23:05.000Z</time>
      </trkpt>
      <trkpt lat="45.17125" lon="5.96312">
        <ele>2668</ele>
        <time>2019-01-20T12:23:06.000Z</time>
      </trkpt>
      <trkpt lat="45.17125" lon="5.96311">
        <ele>2668</ele>
        <time>2019-01-20T12:23:07.000Z</time>
      </trkpt>
      <trkpt lat="45.17125" lon="5.9631">
        <ele>2668</ele>
        <time>2019-01-20T12:23:08.000Z</time>
      </trkpt>
      <trkpt lat="45.17124" lon="5.96309">
        <ele>2668</ele>
        <time>2019-01-20T12:23:09.000Z</time>
      </trkpt>
      <trkpt lat="45.17124" lon="5.96308">
        <ele>2668.4</ele>
        <time>2019-01-20T12:23:11.000Z</time>
      </trkpt>
      <trkpt lat="45.17123" lon="5.96307">
        <ele>2669</ele>
        <time>2019-01-20T12:23:12.000Z</time>
      </trkpt>
      <trkpt lat="45.17123" lon="5.96306">
        <ele>2669</ele>
        <time>2019-01-20T12:23:13.000Z</time>
      </trkpt>
      <trkpt lat="45.17123" lon="5.96305">
        <ele>2669</ele>
        <time>2019-01-20T12:23:14.000Z</time>
      </trkpt>
      <trkpt lat="45.17123" lon="5.96305">
        <ele>2669</ele>
        <time>2019-01-20T12:23:15.000Z</time>
      </trkpt>
      <trkpt lat="45.17119" lon="5.96293">
        <ele>2669</ele>
        <time>2019-01-20T12:23:16.000Z</time>
      </trkpt>
      <trkpt lat="45.17119" lon="5.96293">
        <ele>2669</ele>
        <time>2019-01-20T12:23:17.000Z</time>
      </trkpt>
      <trkpt lat="45.17119" lon="5.96293">
        <ele>2670</ele>
        <time>2019-01-20T12:23:18.000Z</time>
      </trkpt>
      <trkpt lat="45.17119" lon="5.96293">
        <ele>2670</ele>
        <time>2019-01-20T12:23:19.000Z</time>
      </trkpt>
      <trkpt lat="45.17119" lon="5.96293">
        <ele>2670</ele>
        <time>2019-01-20T12:23:20.000Z</time>
      </trkpt>
      <trkpt lat="45.17119" lon="5.96293">
        <ele>2670</ele>
        <time>2019-01-20T12:23:21.000Z</time>
      </trkpt>
      <trkpt lat="45.17119" lon="5.96293">
        <ele>2670</ele>
        <time>2019-01-20T12:23:22.000Z</time>
      </trkpt>
      <trkpt lat="45.17119" lon="5.96293">
        <ele>2670</ele>
        <time>2019-01-20T12:23:23.000Z</time>
      </trkpt>
      <trkpt lat="45.17119" lon="5.96293">
        <ele>2670</ele>
        <time>2019-01-20T12:23:24.000Z</time>
      </trkpt>
      <trkpt lat="45.17119" lon="5.96293">
        <ele>2670</ele>
        <time>2019-01-20T12:23:26.000Z</time>
      </trkpt>
      <trkpt lat="45.17119" lon="5.9628">
        <ele>2672</ele>
        <time>2019-01-20T12:23:27.000Z</time>
      </trkpt>
      <trkpt lat="45.17119" lon="5.9628">
        <ele>2672</ele>
        <time>2019-01-20T12:23:28.000Z</time>
      </trkpt>
      <trkpt lat="45.17119" lon="5.9628">
        <ele>2672.4</ele>
        <time>2019-01-20T12:23:30.000Z</time>
      </trkpt>
      <trkpt lat="45.17119" lon="5.9628">
        <ele>2673</ele>
        <time>2019-01-20T12:23:31.000Z</time>
      </trkpt>
      <trkpt lat="45.17119" lon="5.9628">
        <ele>2673</ele>
        <time>2019-01-20T12:23:32.000Z</time>
      </trkpt>
      <trkpt lat="45.17119" lon="5.9628">
        <ele>2674</ele>
        <time>2019-01-20T12:23:33.000Z</time>
      </trkpt>
      <trkpt lat="45.17119" lon="5.9628">
        <ele>2674</ele>
        <time>2019-01-20T12:23:34.000Z</time>
      </trkpt>
      <trkpt lat="45.17119" lon="5.9628">
        <ele>2674</ele>
        <time>2019-01-20T12:23:35.000Z</time>
      </trkpt>
      <trkpt lat="45.17119" lon="5.9628">
        <ele>2674</ele>
        <time>2019-01-20T12:23:36.000Z</time>
      </trkpt>
      <trkpt lat="45.17119" lon="5.9628">
        <ele>2674</ele>
        <time>2019-01-20T12:23:37.000Z</time>
      </trkpt>
      <trkpt lat="45.17119" lon="5.9628">
        <ele>2675</ele>
        <time>2019-01-20T12:23:38.000Z</time>
      </trkpt>
      <trkpt lat="45.17119" lon="5.9628">
        <ele>2675</ele>
        <time>2019-01-20T12:23:39.000Z</time>
      </trkpt>
      <trkpt lat="45.17119" lon="5.9628">
        <ele>2675</ele>
        <time>2019-01-20T12:23:40.000Z</time>
      </trkpt>
      <trkpt lat="45.17119" lon="5.9628">
        <ele>2675</ele>
        <time>2019-01-20T12:23:41.000Z</time>
      </trkpt>
      <trkpt lat="45.17119" lon="5.9628">
        <ele>2675</ele>
        <time>2019-01-20T12:23:42.000Z</time>
      </trkpt>
      <trkpt lat="45.17119" lon="5.9628">
        <ele>2675</ele>
        <time>2019-01-20T12:23:43.000Z</time>
      </trkpt>
      <trkpt lat="45.17116" lon="5.96267">
        <ele>2676</ele>
        <time>2019-01-20T12:23:44.000Z</time>
      </trkpt>
      <trkpt lat="45.17116" lon="5.96267">
        <ele>2676</ele>
        <time>2019-01-20T12:23:45.000Z</time>
      </trkpt>
      <trkpt lat="45.17115" lon="5.96264">
        <ele>2676</ele>
        <time>2019-01-20T12:23:46.000Z</time>
      </trkpt>
      <trkpt lat="45.17115" lon="5.96264">
        <ele>2677</ele>
        <time>2019-01-20T12:23:47.000Z</time>
      </trkpt>
      <trkpt lat="45.17114" lon="5.96261">
        <ele>2677</ele>
        <time>2019-01-20T12:23:49.000Z</time>
      </trkpt>
      <trkpt lat="45.17114" lon="5.96261">
        <ele>2677</ele>
        <time>2019-01-20T12:23:50.000Z</time>
      </trkpt>
      <trkpt lat="45.17114" lon="5.96261">
        <ele>2677</ele>
        <time>2019-01-20T12:23:51.000Z</time>
      </trkpt>
      <trkpt lat="45.17114" lon="5.96261">
        <ele>2677</ele>
        <time>2019-01-20T12:23:52.000Z</time>
      </trkpt>
      <trkpt lat="45.17114" lon="5.96261">
        <ele>2677</ele>
        <time>2019-01-20T12:23:53.000Z</time>
      </trkpt>
      <trkpt lat="45.17114" lon="5.96257">
        <ele>2678</ele>
        <time>2019-01-20T12:23:54.000Z</time>
      </trkpt>
      <trkpt lat="45.17114" lon="5.96257">
        <ele>2679</ele>
        <time>2019-01-20T12:23:55.000Z</time>
      </trkpt>
      <trkpt lat="45.17114" lon="5.96257">
        <ele>2679</ele>
        <time>2019-01-20T12:23:56.000Z</time>
      </trkpt>
      <trkpt lat="45.17114" lon="5.96257">
        <ele>2680</ele>
        <time>2019-01-20T12:23:57.000Z</time>
      </trkpt>
      <trkpt lat="45.17113" lon="5.96254">
        <ele>2680</ele>
        <time>2019-01-20T12:23:58.000Z</time>
      </trkpt>
      <trkpt lat="45.17113" lon="5.96254">
        <ele>2680</ele>
        <time>2019-01-20T12:23:59.000Z</time>
      </trkpt>
      <trkpt lat="45.17113" lon="5.96254">
        <ele>2680</ele>
        <time>2019-01-20T12:24:00.000Z</time>
      </trkpt>
      <trkpt lat="45.17113" lon="5.96254">
        <ele>2680</ele>
        <time>2019-01-20T12:24:01.000Z</time>
      </trkpt>
      <trkpt lat="45.17113" lon="5.96254">
        <ele>2680</ele>
        <time>2019-01-20T12:24:02.000Z</time>
      </trkpt>
      <trkpt lat="45.17113" lon="5.96254">
        <ele>2680</ele>
        <time>2019-01-20T12:24:03.000Z</time>
      </trkpt>
      <trkpt lat="45.17113" lon="5.96254">
        <ele>2680</ele>
        <time>2019-01-20T12:24:04.000Z</time>
      </trkpt>
      <trkpt lat="45.17113" lon="5.96254">
        <ele>2681</ele>
        <time>2019-01-20T12:24:05.000Z</time>
      </trkpt>
      <trkpt lat="45.17113" lon="5.96254">
        <ele>2681</ele>
        <time>2019-01-20T12:24:06.000Z</time>
      </trkpt>
      <trkpt lat="45.17114" lon="5.96251">
        <ele>2681</ele>
        <time>2019-01-20T12:24:08.000Z</time>
      </trkpt>
      <trkpt lat="45.17114" lon="5.96251">
        <ele>2681</ele>
        <time>2019-01-20T12:24:09.000Z</time>
      </trkpt>
      <trkpt lat="45.17114" lon="5.96251">
        <ele>2681</ele>
        <time>2019-01-20T12:24:10.000Z</time>
      </trkpt>
      <trkpt lat="45.17114" lon="5.96251">
        <ele>2681</ele>
        <time>2019-01-20T12:24:11.000Z</time>
      </trkpt>
      <trkpt lat="45.17114" lon="5.96251">
        <ele>2681</ele>
        <time>2019-01-20T12:24:12.000Z</time>
      </trkpt>
      <trkpt lat="45.17113" lon="5.96249">
        <ele>2682</ele>
        <time>2019-01-20T12:24:13.000Z</time>
      </trkpt>
      <trkpt lat="45.17113" lon="5.96249">
        <ele>2682</ele>
        <time>2019-01-20T12:24:14.000Z</time>
      </trkpt>
      <trkpt lat="45.17113" lon="5.96249">
        <ele>2682</ele>
        <time>2019-01-20T12:24:15.000Z</time>
      </trkpt>
      <trkpt lat="45.17113" lon="5.96249">
        <ele>2683</ele>
        <time>2019-01-20T12:24:16.000Z</time>
      </trkpt>
      <trkpt lat="45.17112" lon="5.96248">
        <ele>2683</ele>
        <time>2019-01-20T12:24:17.000Z</time>
      </trkpt>
      <trkpt lat="45.17112" lon="5.96248">
        <ele>2683</ele>
        <time>2019-01-20T12:24:18.000Z</time>
      </trkpt>
      <trkpt lat="45.17112" lon="5.96248">
        <ele>2683</ele>
        <time>2019-01-20T12:24:20.000Z</time>
      </trkpt>
      <trkpt lat="45.1711" lon="5.96246">
        <ele>2684</ele>
        <time>2019-01-20T12:24:21.000Z</time>
      </trkpt>
      <trkpt lat="45.1711" lon="5.96246">
        <ele>2684</ele>
        <time>2019-01-20T12:24:22.000Z</time>
      </trkpt>
      <trkpt lat="45.1711" lon="5.96246">
        <ele>2684</ele>
        <time>2019-01-20T12:24:23.000Z</time>
      </trkpt>
      <trkpt lat="45.1711" lon="5.96246">
        <ele>2684</ele>
        <time>2019-01-20T12:24:24.000Z</time>
      </trkpt>
      <trkpt lat="45.17108" lon="5.96245">
        <ele>2685</ele>
        <time>2019-01-20T12:24:25.000Z</time>
      </trkpt>
      <trkpt lat="45.17108" lon="5.96245">
        <ele>2685</ele>
        <time>2019-01-20T12:24:27.000Z</time>
      </trkpt>
      <trkpt lat="45.17108" lon="5.96245">
        <ele>2686</ele>
        <time>2019-01-20T12:24:28.000Z</time>
      </trkpt>
      <trkpt lat="45.17105" lon="5.96244">
        <ele>2686</ele>
        <time>2019-01-20T12:24:29.000Z</time>
      </trkpt>
      <trkpt lat="45.17105" lon="5.96244">
        <ele>2686</ele>
        <time>2019-01-20T12:24:30.000Z</time>
      </trkpt>
      <trkpt lat="45.17105" lon="5.96244">
        <ele>2686</ele>
        <time>2019-01-20T12:24:31.000Z</time>
      </trkpt>
      <trkpt lat="45.17105" lon="5.96244">
        <ele>2686</ele>
        <time>2019-01-20T12:24:32.000Z</time>
      </trkpt>
      <trkpt lat="45.17103" lon="5.96242">
        <ele>2686</ele>
        <time>2019-01-20T12:24:33.000Z</time>
      </trkpt>
      <trkpt lat="45.17103" lon="5.96242">
        <ele>2686</ele>
        <time>2019-01-20T12:24:34.000Z</time>
      </trkpt>
      <trkpt lat="45.17103" lon="5.96242">
        <ele>2687</ele>
        <time>2019-01-20T12:24:35.000Z</time>
      </trkpt>
      <trkpt lat="45.17101" lon="5.96241">
        <ele>2687</ele>
        <time>2019-01-20T12:24:36.000Z</time>
      </trkpt>
      <trkpt lat="45.17101" lon="5.96241">
        <ele>2687</ele>
        <time>2019-01-20T12:24:37.000Z</time>
      </trkpt>
      <trkpt lat="45.17101" lon="5.96241">
        <ele>2687</ele>
        <time>2019-01-20T12:24:38.000Z</time>
      </trkpt>
      <trkpt lat="45.17101" lon="5.96241">
        <ele>2688</ele>
        <time>2019-01-20T12:24:39.000Z</time>
      </trkpt>
      <trkpt lat="45.17098" lon="5.96239">
        <ele>2688</ele>
        <time>2019-01-20T12:24:40.000Z</time>
      </trkpt>
      <trkpt lat="45.17098" lon="5.96239">
        <ele>2688</ele>
        <time>2019-01-20T12:24:41.000Z</time>
      </trkpt>
      <trkpt lat="45.17098" lon="5.96239">
        <ele>2688</ele>
        <time>2019-01-20T12:24:42.000Z</time>
      </trkpt>
      <trkpt lat="45.17098" lon="5.96239">
        <ele>2688</ele>
        <time>2019-01-20T12:24:43.000Z</time>
      </trkpt>
      <trkpt lat="45.17097" lon="5.96236">
        <ele>2688</ele>
        <time>2019-01-20T12:24:44.000Z</time>
      </trkpt>
      <trkpt lat="45.17097" lon="5.96236">
        <ele>2689</ele>
        <time>2019-01-20T12:24:46.000Z</time>
      </trkpt>
      <trkpt lat="45.17097" lon="5.96234">
        <ele>2689</ele>
        <time>2019-01-20T12:24:47.000Z</time>
      </trkpt>
      <trkpt lat="45.17097" lon="5.96234">
        <ele>2690</ele>
        <time>2019-01-20T12:24:49.000Z</time>
      </trkpt>
      <trkpt lat="45.17096" lon="5.96231">
        <ele>2690</ele>
        <time>2019-01-20T12:24:50.000Z</time>
      </trkpt>
      <trkpt lat="45.17096" lon="5.96231">
        <ele>2690</ele>
        <time>2019-01-20T12:24:51.000Z</time>
      </trkpt>
      <trkpt lat="45.17096" lon="5.96231">
        <ele>2690</ele>
        <time>2019-01-20T12:24:52.000Z</time>
      </trkpt>
      <trkpt lat="45.17095" lon="5.96228">
        <ele>2690</ele>
        <time>2019-01-20T12:24:53.000Z</time>
      </trkpt>
      <trkpt lat="45.17095" lon="5.96228">
        <ele>2690</ele>
        <time>2019-01-20T12:24:54.000Z</time>
      </trkpt>
      <trkpt lat="45.17095" lon="5.96228">
        <ele>2691</ele>
        <time>2019-01-20T12:24:55.000Z</time>
      </trkpt>
      <trkpt lat="45.17095" lon="5.96225">
        <ele>2691</ele>
        <time>2019-01-20T12:24:56.000Z</time>
      </trkpt>
      <trkpt lat="45.17095" lon="5.96225">
        <ele>2691</ele>
        <time>2019-01-20T12:24:57.000Z</time>
      </trkpt>
      <trkpt lat="45.17095" lon="5.96225">
        <ele>2691</ele>
        <time>2019-01-20T12:24:58.000Z</time>
      </trkpt>
      <trkpt lat="45.17093" lon="5.96223">
        <ele>2692</ele>
        <time>2019-01-20T12:24:59.000Z</time>
      </trkpt>
      <trkpt lat="45.17093" lon="5.96223">
        <ele>2692</ele>
        <time>2019-01-20T12:25:00.000Z</time>
      </trkpt>
      <trkpt lat="45.17093" lon="5.96223">
        <ele>2692</ele>
        <time>2019-01-20T12:25:01.000Z</time>
      </trkpt>
      <trkpt lat="45.17093" lon="5.96223">
        <ele>2692</ele>
        <time>2019-01-20T12:25:02.000Z</time>
      </trkpt>
      <trkpt lat="45.17092" lon="5.9622">
        <ele>2693</ele>
        <time>2019-01-20T12:25:03.000Z</time>
      </trkpt>
      <trkpt lat="45.17092" lon="5.9622">
        <ele>2693</ele>
        <time>2019-01-20T12:25:05.000Z</time>
      </trkpt>
      <trkpt lat="45.17092" lon="5.96218">
        <ele>2694</ele>
        <time>2019-01-20T12:25:06.000Z</time>
      </trkpt>
      <trkpt lat="45.17092" lon="5.96218">
        <ele>2694</ele>
        <time>2019-01-20T12:25:07.000Z</time>
      </trkpt>
      <trkpt lat="45.17092" lon="5.96218">
        <ele>2694</ele>
        <time>2019-01-20T12:25:08.000Z</time>
      </trkpt>
      <trkpt lat="45.17092" lon="5.96218">
        <ele>2694</ele>
        <time>2019-01-20T12:25:09.000Z</time>
      </trkpt>
      <trkpt lat="45.17094" lon="5.96215">
        <ele>2694</ele>
        <time>2019-01-20T12:25:10.000Z</time>
      </trkpt>
      <trkpt lat="45.17094" lon="5.96215">
        <ele>2694</ele>
        <time>2019-01-20T12:25:11.000Z</time>
      </trkpt>
      <trkpt lat="45.17094" lon="5.96215">
        <ele>2694</ele>
        <time>2019-01-20T12:25:12.000Z</time>
      </trkpt>
      <trkpt lat="45.17095" lon="5.96213">
        <ele>2693</ele>
        <time>2019-01-20T12:25:13.000Z</time>
      </trkpt>
      <trkpt lat="45.17095" lon="5.96213">
        <ele>2693</ele>
        <time>2019-01-20T12:25:14.000Z</time>
      </trkpt>
      <trkpt lat="45.17095" lon="5.96213">
        <ele>2694</ele>
        <time>2019-01-20T12:25:15.000Z</time>
      </trkpt>
      <trkpt lat="45.17096" lon="5.9621">
        <ele>2696</ele>
        <time>2019-01-20T12:25:16.000Z</time>
      </trkpt>
      <trkpt lat="45.17096" lon="5.9621">
        <ele>2696</ele>
        <time>2019-01-20T12:25:17.000Z</time>
      </trkpt>
      <trkpt lat="45.17096" lon="5.9621">
        <ele>2695</ele>
        <time>2019-01-20T12:25:18.000Z</time>
      </trkpt>
      <trkpt lat="45.17098" lon="5.96208">
        <ele>2695</ele>
        <time>2019-01-20T12:25:19.000Z</time>
      </trkpt>
      <trkpt lat="45.17098" lon="5.96208">
        <ele>2696</ele>
        <time>2019-01-20T12:25:20.000Z</time>
      </trkpt>
      <trkpt lat="45.17098" lon="5.96208">
        <ele>2696</ele>
        <time>2019-01-20T12:25:21.000Z</time>
      </trkpt>
      <trkpt lat="45.171" lon="5.96207">
        <ele>2696</ele>
        <time>2019-01-20T12:25:22.000Z</time>
      </trkpt>
      <trkpt lat="45.17101" lon="5.96206">
        <ele>2696</ele>
        <time>2019-01-20T12:25:24.000Z</time>
      </trkpt>
      <trkpt lat="45.17101" lon="5.96206">
        <ele>2696</ele>
        <time>2019-01-20T12:25:25.000Z</time>
      </trkpt>
      <trkpt lat="45.17101" lon="5.96206">
        <ele>2696</ele>
        <time>2019-01-20T12:25:26.000Z</time>
      </trkpt>
      <trkpt lat="45.17101" lon="5.96206">
        <ele>2697</ele>
        <time>2019-01-20T12:25:27.000Z</time>
      </trkpt>
      <trkpt lat="45.17101" lon="5.96206">
        <ele>2697</ele>
        <time>2019-01-20T12:25:28.000Z</time>
      </trkpt>
      <trkpt lat="45.17103" lon="5.96205">
        <ele>2697</ele>
        <time>2019-01-20T12:25:29.000Z</time>
      </trkpt>
      <trkpt lat="45.17103" lon="5.96205">
        <ele>2697</ele>
        <time>2019-01-20T12:25:30.000Z</time>
      </trkpt>
      <trkpt lat="45.17103" lon="5.96205">
        <ele>2697</ele>
        <time>2019-01-20T12:25:31.000Z</time>
      </trkpt>
      <trkpt lat="45.17105" lon="5.96204">
        <ele>2697</ele>
        <time>2019-01-20T12:25:32.000Z</time>
      </trkpt>
      <trkpt lat="45.17105" lon="5.96204">
        <ele>2697</ele>
        <time>2019-01-20T12:25:33.000Z</time>
      </trkpt>
      <trkpt lat="45.17105" lon="5.96204">
        <ele>2697</ele>
        <time>2019-01-20T12:25:34.000Z</time>
      </trkpt>
      <trkpt lat="45.17107" lon="5.96203">
        <ele>2697</ele>
        <time>2019-01-20T12:25:35.000Z</time>
      </trkpt>
      <trkpt lat="45.17107" lon="5.96203">
        <ele>2698</ele>
        <time>2019-01-20T12:25:36.000Z</time>
      </trkpt>
      <trkpt lat="45.17107" lon="5.96203">
        <ele>2698</ele>
        <time>2019-01-20T12:25:37.000Z</time>
      </trkpt>
      <trkpt lat="45.17107" lon="5.96203">
        <ele>2699</ele>
        <time>2019-01-20T12:25:38.000Z</time>
      </trkpt>
      <trkpt lat="45.17109" lon="5.96202">
        <ele>2699</ele>
        <time>2019-01-20T12:25:39.000Z</time>
      </trkpt>
      <trkpt lat="45.17109" lon="5.96202">
        <ele>2699</ele>
        <time>2019-01-20T12:25:40.000Z</time>
      </trkpt>
      <trkpt lat="45.17109" lon="5.96202">
        <ele>2700</ele>
        <time>2019-01-20T12:25:41.000Z</time>
      </trkpt>
      <trkpt lat="45.17111" lon="5.96201">
        <ele>2700</ele>
        <time>2019-01-20T12:25:43.000Z</time>
      </trkpt>
      <trkpt lat="45.17111" lon="5.96201">
        <ele>2700</ele>
        <time>2019-01-20T12:25:44.000Z</time>
      </trkpt>
      <trkpt lat="45.17111" lon="5.96201">
        <ele>2700</ele>
        <time>2019-01-20T12:25:45.000Z</time>
      </trkpt>
      <trkpt lat="45.17111" lon="5.96201">
        <ele>2700</ele>
        <time>2019-01-20T12:25:46.000Z</time>
      </trkpt>
      <trkpt lat="45.17113" lon="5.962">
        <ele>2700</ele>
        <time>2019-01-20T12:25:47.000Z</time>
      </trkpt>
      <trkpt lat="45.17113" lon="5.962">
        <ele>2700</ele>
        <time>2019-01-20T12:25:48.000Z</time>
      </trkpt>
      <trkpt lat="45.17113" lon="5.962">
        <ele>2701</ele>
        <time>2019-01-20T12:25:49.000Z</time>
      </trkpt>
      <trkpt lat="45.17115" lon="5.96199">
        <ele>2701</ele>
        <time>2019-01-20T12:25:50.000Z</time>
      </trkpt>
      <trkpt lat="45.17115" lon="5.96199">
        <ele>2702</ele>
        <time>2019-01-20T12:25:51.000Z</time>
      </trkpt>
      <trkpt lat="45.17115" lon="5.96199">
        <ele>2702</ele>
        <time>2019-01-20T12:25:52.000Z</time>
      </trkpt>
      <trkpt lat="45.17117" lon="5.96199">
        <ele>2702</ele>
        <time>2019-01-20T12:25:53.000Z</time>
      </trkpt>
      <trkpt lat="45.17117" lon="5.96199">
        <ele>2702</ele>
        <time>2019-01-20T12:25:54.000Z</time>
      </trkpt>
      <trkpt lat="45.17117" lon="5.96199">
        <ele>2702</ele>
        <time>2019-01-20T12:25:55.000Z</time>
      </trkpt>
      <trkpt lat="45.17117" lon="5.96199">
        <ele>2702</ele>
        <time>2019-01-20T12:25:56.000Z</time>
      </trkpt>
      <trkpt lat="45.17119" lon="5.96199">
        <ele>2702</ele>
        <time>2019-01-20T12:25:57.000Z</time>
      </trkpt>
      <trkpt lat="45.17119" lon="5.96199">
        <ele>2702</ele>
        <time>2019-01-20T12:25:58.000Z</time>
      </trkpt>
      <trkpt lat="45.17119" lon="5.96199">
        <ele>2703</ele>
        <time>2019-01-20T12:25:59.000Z</time>
      </trkpt>
      <trkpt lat="45.17119" lon="5.96199">
        <ele>2703</ele>
        <time>2019-01-20T12:26:00.000Z</time>
      </trkpt>
      <trkpt lat="45.17122" lon="5.96198">
        <ele>2703</ele>
        <time>2019-01-20T12:26:01.000Z</time>
      </trkpt>
      <trkpt lat="45.17122" lon="5.96198">
        <ele>2703</ele>
        <time>2019-01-20T12:26:02.000Z</time>
      </trkpt>
      <trkpt lat="45.17122" lon="5.96198">
        <ele>2703</ele>
        <time>2019-01-20T12:26:03.000Z</time>
      </trkpt>
      <trkpt lat="45.17123" lon="5.96197">
        <ele>2704</ele>
        <time>2019-01-20T12:26:04.000Z</time>
      </trkpt>
      <trkpt lat="45.17123" lon="5.96197">
        <ele>2704</ele>
        <time>2019-01-20T12:26:05.000Z</time>
      </trkpt>
      <trkpt lat="45.17123" lon="5.96197">
        <ele>2704</ele>
        <time>2019-01-20T12:26:06.000Z</time>
      </trkpt>
      <trkpt lat="45.17123" lon="5.96197">
        <ele>2704</ele>
        <time>2019-01-20T12:26:07.000Z</time>
      </trkpt>
      <trkpt lat="45.17123" lon="5.96197">
        <ele>2704</ele>
        <time>2019-01-20T12:26:08.000Z</time>
      </trkpt>
      <trkpt lat="45.17123" lon="5.96197">
        <ele>2703</ele>
        <time>2019-01-20T12:26:09.000Z</time>
      </trkpt>
      <trkpt lat="45.17123" lon="5.96197">
        <ele>2703</ele>
        <time>2019-01-20T12:26:10.000Z</time>
      </trkpt>
      <trkpt lat="45.17123" lon="5.96197">
        <ele>2703</ele>
        <time>2019-01-20T12:26:11.000Z</time>
      </trkpt>
      <trkpt lat="45.17123" lon="5.96197">
        <ele>2703</ele>
        <time>2019-01-20T12:26:12.000Z</time>
      </trkpt>
      <trkpt lat="45.17123" lon="5.96197">
        <ele>2703</ele>
        <time>2019-01-20T12:26:13.000Z</time>
      </trkpt>
      <trkpt lat="45.17123" lon="5.96197">
        <ele>2703</ele>
        <time>2019-01-20T12:26:14.000Z</time>
      </trkpt>
      <trkpt lat="45.17123" lon="5.96197">
        <ele>2703</ele>
        <time>2019-01-20T12:26:15.000Z</time>
      </trkpt>
      <trkpt lat="45.17123" lon="5.96197">
        <ele>2703</ele>
        <time>2019-01-20T12:26:16.000Z</time>
      </trkpt>
      <trkpt lat="45.17123" lon="5.96197">
        <ele>2704</ele>
        <time>2019-01-20T12:26:17.000Z</time>
      </trkpt>
      <trkpt lat="45.17123" lon="5.96197">
        <ele>2704</ele>
        <time>2019-01-20T12:26:18.000Z</time>
      </trkpt>
      <trkpt lat="45.17125" lon="5.96196">
        <ele>2704</ele>
        <time>2019-01-20T12:26:19.000Z</time>
      </trkpt>
      <trkpt lat="45.17125" lon="5.96196">
        <ele>2704</ele>
        <time>2019-01-20T12:26:21.000Z</time>
      </trkpt>
      <trkpt lat="45.17128" lon="5.96196">
        <ele>2704</ele>
        <time>2019-01-20T12:26:23.000Z</time>
      </trkpt>
      <trkpt lat="45.17128" lon="5.96196">
        <ele>2704</ele>
        <time>2019-01-20T12:26:24.000Z</time>
      </trkpt>
      <trkpt lat="45.17128" lon="5.96196">
        <ele>2704</ele>
        <time>2019-01-20T12:26:25.000Z</time>
      </trkpt>
      <trkpt lat="45.1713" lon="5.96195">
        <ele>2704</ele>
        <time>2019-01-20T12:26:26.000Z</time>
      </trkpt>
      <trkpt lat="45.1713" lon="5.96195">
        <ele>2705</ele>
        <time>2019-01-20T12:26:27.000Z</time>
      </trkpt>
      <trkpt lat="45.1713" lon="5.96195">
        <ele>2705</ele>
        <time>2019-01-20T12:26:28.000Z</time>
      </trkpt>
      <trkpt lat="45.17132" lon="5.96194">
        <ele>2705</ele>
        <time>2019-01-20T12:26:29.000Z</time>
      </trkpt>
      <trkpt lat="45.17132" lon="5.96194">
        <ele>2706</ele>
        <time>2019-01-20T12:26:30.000Z</time>
      </trkpt>
      <trkpt lat="45.17132" lon="5.96194">
        <ele>2706</ele>
        <time>2019-01-20T12:26:31.000Z</time>
      </trkpt>
      <trkpt lat="45.17132" lon="5.96194">
        <ele>2706</ele>
        <time>2019-01-20T12:26:32.000Z</time>
      </trkpt>
      <trkpt lat="45.17132" lon="5.96194">
        <ele>2706</ele>
        <time>2019-01-20T12:26:33.000Z</time>
      </trkpt>
      <trkpt lat="45.17132" lon="5.96194">
        <ele>2706</ele>
        <time>2019-01-20T12:26:34.000Z</time>
      </trkpt>
      <trkpt lat="45.17133" lon="5.96195">
        <ele>2706</ele>
        <time>2019-01-20T12:26:35.000Z</time>
      </trkpt>
      <trkpt lat="45.17133" lon="5.96195">
        <ele>2707</ele>
        <time>2019-01-20T12:26:36.000Z</time>
      </trkpt>
      <trkpt lat="45.17133" lon="5.96195">
        <ele>2707</ele>
        <time>2019-01-20T12:26:37.000Z</time>
      </trkpt>
      <trkpt lat="45.17135" lon="5.96194">
        <ele>2707</ele>
        <time>2019-01-20T12:26:38.000Z</time>
      </trkpt>
      <trkpt lat="45.17135" lon="5.96194">
        <ele>2707.6</ele>
        <time>2019-01-20T12:26:40.000Z</time>
      </trkpt>
      <trkpt lat="45.17137" lon="5.96193">
        <ele>2708</ele>
        <time>2019-01-20T12:26:41.000Z</time>
      </trkpt>
      <trkpt lat="45.17137" lon="5.96193">
        <ele>2708</ele>
        <time>2019-01-20T12:26:42.000Z</time>
      </trkpt>
      <trkpt lat="45.17137" lon="5.96193">
        <ele>2708</ele>
        <time>2019-01-20T12:26:43.000Z</time>
      </trkpt>
      <trkpt lat="45.17137" lon="5.96193">
        <ele>2708</ele>
        <time>2019-01-20T12:26:44.000Z</time>
      </trkpt>
      <trkpt lat="45.17137" lon="5.96193">
        <ele>2708</ele>
        <time>2019-01-20T12:26:45.000Z</time>
      </trkpt>
      <trkpt lat="45.17137" lon="5.96193">
        <ele>2709</ele>
        <time>2019-01-20T12:26:46.000Z</time>
      </trkpt>
      <trkpt lat="45.17139" lon="5.96194">
        <ele>2709</ele>
        <time>2019-01-20T12:26:47.000Z</time>
      </trkpt>
      <trkpt lat="45.17139" lon="5.96194">
        <ele>2708</ele>
        <time>2019-01-20T12:26:48.000Z</time>
      </trkpt>
      <trkpt lat="45.17139" lon="5.96194">
        <ele>2708</ele>
        <time>2019-01-20T12:26:49.000Z</time>
      </trkpt>
      <trkpt lat="45.17139" lon="5.96194">
        <ele>2708</ele>
        <time>2019-01-20T12:26:50.000Z</time>
      </trkpt>
      <trkpt lat="45.17139" lon="5.96194">
        <ele>2708</ele>
        <time>2019-01-20T12:26:51.000Z</time>
      </trkpt>
      <trkpt lat="45.17139" lon="5.96194">
        <ele>2708</ele>
        <time>2019-01-20T12:26:52.000Z</time>
      </trkpt>
      <trkpt lat="45.17139" lon="5.96194">
        <ele>2708</ele>
        <time>2019-01-20T12:26:53.000Z</time>
      </trkpt>
      <trkpt lat="45.17139" lon="5.96194">
        <ele>2708</ele>
        <time>2019-01-20T12:26:54.000Z</time>
      </trkpt>
      <trkpt lat="45.17139" lon="5.96194">
        <ele>2708</ele>
        <time>2019-01-20T12:26:55.000Z</time>
      </trkpt>
      <trkpt lat="45.17139" lon="5.96194">
        <ele>2708</ele>
        <time>2019-01-20T12:26:56.000Z</time>
      </trkpt>
      <trkpt lat="45.17139" lon="5.96194">
        <ele>2708</ele>
        <time>2019-01-20T12:26:57.000Z</time>
      </trkpt>
      <trkpt lat="45.17139" lon="5.96194">
        <ele>2708</ele>
        <time>2019-01-20T12:26:59.000Z</time>
      </trkpt>
      <trkpt lat="45.17139" lon="5.96194">
        <ele>2708</ele>
        <time>2019-01-20T12:27:00.000Z</time>
      </trkpt>
      <trkpt lat="45.17139" lon="5.96194">
        <ele>2708</ele>
        <time>2019-01-20T12:27:01.000Z</time>
      </trkpt>
      <trkpt lat="45.17139" lon="5.96194">
        <ele>2708</ele>
        <time>2019-01-20T12:27:02.000Z</time>
      </trkpt>
      <trkpt lat="45.17139" lon="5.96191">
        <ele>2708</ele>
        <time>2019-01-20T12:27:03.000Z</time>
      </trkpt>
      <trkpt lat="45.17139" lon="5.96191">
        <ele>2708</ele>
        <time>2019-01-20T12:27:04.000Z</time>
      </trkpt>
      <trkpt lat="45.17139" lon="5.96191">
        <ele>2708</ele>
        <time>2019-01-20T12:27:05.000Z</time>
      </trkpt>
      <trkpt lat="45.17139" lon="5.96187">
        <ele>2708</ele>
        <time>2019-01-20T12:27:06.000Z</time>
      </trkpt>
      <trkpt lat="45.17139" lon="5.96187">
        <ele>2708</ele>
        <time>2019-01-20T12:27:07.000Z</time>
      </trkpt>
      <trkpt lat="45.17139" lon="5.96187">
        <ele>2709</ele>
        <time>2019-01-20T12:27:08.000Z</time>
      </trkpt>
      <trkpt lat="45.17139" lon="5.96187">
        <ele>2710</ele>
        <time>2019-01-20T12:27:09.000Z</time>
      </trkpt>
      <trkpt lat="45.17139" lon="5.96187">
        <ele>2710</ele>
        <time>2019-01-20T12:27:10.000Z</time>
      </trkpt>
      <trkpt lat="45.17139" lon="5.96187">
        <ele>2710</ele>
        <time>2019-01-20T12:27:11.000Z</time>
      </trkpt>
      <trkpt lat="45.17139" lon="5.96187">
        <ele>2710</ele>
        <time>2019-01-20T12:27:12.000Z</time>
      </trkpt>
      <trkpt lat="45.17139" lon="5.96187">
        <ele>2710</ele>
        <time>2019-01-20T12:27:13.000Z</time>
      </trkpt>
      <trkpt lat="45.17137" lon="5.96185">
        <ele>2710</ele>
        <time>2019-01-20T12:27:14.000Z</time>
      </trkpt>
      <trkpt lat="45.17137" lon="5.96185">
        <ele>2710</ele>
        <time>2019-01-20T12:27:15.000Z</time>
      </trkpt>
      <trkpt lat="45.17137" lon="5.96185">
        <ele>2710</ele>
        <time>2019-01-20T12:27:16.000Z</time>
      </trkpt>
      <trkpt lat="45.17137" lon="5.96185">
        <ele>2711</ele>
        <time>2019-01-20T12:27:18.000Z</time>
      </trkpt>
      <trkpt lat="45.17136" lon="5.96182">
        <ele>2712</ele>
        <time>2019-01-20T12:27:19.000Z</time>
      </trkpt>
      <trkpt lat="45.17136" lon="5.96182">
        <ele>2712</ele>
        <time>2019-01-20T12:27:20.000Z</time>
      </trkpt>
      <trkpt lat="45.17136" lon="5.96182">
        <ele>2712</ele>
        <time>2019-01-20T12:27:21.000Z</time>
      </trkpt>
      <trkpt lat="45.17136" lon="5.96182">
        <ele>2712</ele>
        <time>2019-01-20T12:27:22.000Z</time>
      </trkpt>
      <trkpt lat="45.17134" lon="5.9618">
        <ele>2712</ele>
        <time>2019-01-20T12:27:23.000Z</time>
      </trkpt>
      <trkpt lat="45.17134" lon="5.9618">
        <ele>2712</ele>
        <time>2019-01-20T12:27:24.000Z</time>
      </trkpt>
      <trkpt lat="45.17134" lon="5.9618">
        <ele>2712</ele>
        <time>2019-01-20T12:27:25.000Z</time>
      </trkpt>
      <trkpt lat="45.17134" lon="5.9618">
        <ele>2712</ele>
        <time>2019-01-20T12:27:26.000Z</time>
      </trkpt>
      <trkpt lat="45.17134" lon="5.9618">
        <ele>2713</ele>
        <time>2019-01-20T12:27:27.000Z</time>
      </trkpt>
      <trkpt lat="45.17134" lon="5.96177">
        <ele>2713</ele>
        <time>2019-01-20T12:27:28.000Z</time>
      </trkpt>
      <trkpt lat="45.17134" lon="5.96177">
        <ele>2713</ele>
        <time>2019-01-20T12:27:29.000Z</time>
      </trkpt>
      <trkpt lat="45.17134" lon="5.96177">
        <ele>2713</ele>
        <time>2019-01-20T12:27:30.000Z</time>
      </trkpt>
      <trkpt lat="45.17133" lon="5.96175">
        <ele>2713</ele>
        <time>2019-01-20T12:27:31.000Z</time>
      </trkpt>
      <trkpt lat="45.17133" lon="5.96175">
        <ele>2713</ele>
        <time>2019-01-20T12:27:32.000Z</time>
      </trkpt>
      <trkpt lat="45.17133" lon="5.96175">
        <ele>2713</ele>
        <time>2019-01-20T12:27:33.000Z</time>
      </trkpt>
      <trkpt lat="45.17133" lon="5.96175">
        <ele>2713</ele>
        <time>2019-01-20T12:27:34.000Z</time>
      </trkpt>
      <trkpt lat="45.17132" lon="5.96172">
        <ele>2713</ele>
        <time>2019-01-20T12:27:35.000Z</time>
      </trkpt>
      <trkpt lat="45.17132" lon="5.96172">
        <ele>2712</ele>
        <time>2019-01-20T12:27:37.000Z</time>
      </trkpt>
      <trkpt lat="45.17132" lon="5.96172">
        <ele>2712</ele>
        <time>2019-01-20T12:27:38.000Z</time>
      </trkpt>
      <trkpt lat="45.17131" lon="5.96168">
        <ele>2712</ele>
        <time>2019-01-20T12:27:39.000Z</time>
      </trkpt>
      <trkpt lat="45.17131" lon="5.96168">
        <ele>2714</ele>
        <time>2019-01-20T12:27:40.000Z</time>
      </trkpt>
      <trkpt lat="45.17131" lon="5.96168">
        <ele>2715</ele>
        <time>2019-01-20T12:27:41.000Z</time>
      </trkpt>
      <trkpt lat="45.17131" lon="5.96168">
        <ele>2714</ele>
        <time>2019-01-20T12:27:42.000Z</time>
      </trkpt>
      <trkpt lat="45.17131" lon="5.96168">
        <ele>2714</ele>
        <time>2019-01-20T12:27:43.000Z</time>
      </trkpt>
      <trkpt lat="45.1713" lon="5.96166">
        <ele>2714</ele>
        <time>2019-01-20T12:27:44.000Z</time>
      </trkpt>
      <trkpt lat="45.1713" lon="5.96166">
        <ele>2715</ele>
        <time>2019-01-20T12:27:45.000Z</time>
      </trkpt>
      <trkpt lat="45.1713" lon="5.96166">
        <ele>2715</ele>
        <time>2019-01-20T12:27:46.000Z</time>
      </trkpt>
      <trkpt lat="45.1713" lon="5.96166">
        <ele>2715</ele>
        <time>2019-01-20T12:27:47.000Z</time>
      </trkpt>
      <trkpt lat="45.17128" lon="5.96163">
        <ele>2715</ele>
        <time>2019-01-20T12:27:48.000Z</time>
      </trkpt>
      <trkpt lat="45.17128" lon="5.96163">
        <ele>2715</ele>
        <time>2019-01-20T12:27:49.000Z</time>
      </trkpt>
      <trkpt lat="45.17128" lon="5.96163">
        <ele>2715</ele>
        <time>2019-01-20T12:27:50.000Z</time>
      </trkpt>
      <trkpt lat="45.17127" lon="5.96161">
        <ele>2715</ele>
        <time>2019-01-20T12:27:51.000Z</time>
      </trkpt>
      <trkpt lat="45.17127" lon="5.96161">
        <ele>2715</ele>
        <time>2019-01-20T12:27:52.000Z</time>
      </trkpt>
      <trkpt lat="45.17127" lon="5.96161">
        <ele>2716</ele>
        <time>2019-01-20T12:27:53.000Z</time>
      </trkpt>
      <trkpt lat="45.17126" lon="5.96159">
        <ele>2716</ele>
        <time>2019-01-20T12:27:54.000Z</time>
      </trkpt>
      <trkpt lat="45.17126" lon="5.96159">
        <ele>2716.4</ele>
        <time>2019-01-20T12:27:56.000Z</time>
      </trkpt>
      <trkpt lat="45.17125" lon="5.96157">
        <ele>2718</ele>
        <time>2019-01-20T12:27:57.000Z</time>
      </trkpt>
      <trkpt lat="45.17125" lon="5.96157">
        <ele>2718</ele>
        <time>2019-01-20T12:27:58.000Z</time>
      </trkpt>
      <trkpt lat="45.17125" lon="5.96157">
        <ele>2718</ele>
        <time>2019-01-20T12:27:59.000Z</time>
      </trkpt>
      <trkpt lat="45.17124" lon="5.96155">
        <ele>2718</ele>
        <time>2019-01-20T12:28:00.000Z</time>
      </trkpt>
      <trkpt lat="45.17124" lon="5.96155">
        <ele>2718</ele>
        <time>2019-01-20T12:28:01.000Z</time>
      </trkpt>
      <trkpt lat="45.17124" lon="5.96155">
        <ele>2718</ele>
        <time>2019-01-20T12:28:02.000Z</time>
      </trkpt>
      <trkpt lat="45.17123" lon="5.96152">
        <ele>2718</ele>
        <time>2019-01-20T12:28:03.000Z</time>
      </trkpt>
      <trkpt lat="45.17123" lon="5.96152">
        <ele>2718</ele>
        <time>2019-01-20T12:28:04.000Z</time>
      </trkpt>
      <trkpt lat="45.17123" lon="5.96152">
        <ele>2718</ele>
        <time>2019-01-20T12:28:05.000Z</time>
      </trkpt>
      <trkpt lat="45.17122" lon="5.9615">
        <ele>2718</ele>
        <time>2019-01-20T12:28:06.000Z</time>
      </trkpt>
      <trkpt lat="45.17122" lon="5.9615">
        <ele>2719</ele>
        <time>2019-01-20T12:28:08.000Z</time>
      </trkpt>
      <trkpt lat="45.17121" lon="5.96147">
        <ele>2720</ele>
        <time>2019-01-20T12:28:09.000Z</time>
      </trkpt>
      <trkpt lat="45.17121" lon="5.96147">
        <ele>2720</ele>
        <time>2019-01-20T12:28:10.000Z</time>
      </trkpt>
      <trkpt lat="45.17121" lon="5.96147">
        <ele>2720</ele>
        <time>2019-01-20T12:28:11.000Z</time>
      </trkpt>
      <trkpt lat="45.1712" lon="5.96145">
        <ele>2720</ele>
        <time>2019-01-20T12:28:12.000Z</time>
      </trkpt>
      <trkpt lat="45.1712" lon="5.96145">
        <ele>2720</ele>
        <time>2019-01-20T12:28:13.000Z</time>
      </trkpt>
      <trkpt lat="45.17119" lon="5.96143">
        <ele>2720</ele>
        <time>2019-01-20T12:28:15.000Z</time>
      </trkpt>
      <trkpt lat="45.17119" lon="5.96143">
        <ele>2720</ele>
        <time>2019-01-20T12:28:16.000Z</time>
      </trkpt>
      <trkpt lat="45.17119" lon="5.96143">
        <ele>2720</ele>
        <time>2019-01-20T12:28:17.000Z</time>
      </trkpt>
      <trkpt lat="45.17117" lon="5.96141">
        <ele>2721</ele>
        <time>2019-01-20T12:28:18.000Z</time>
      </trkpt>
      <trkpt lat="45.17117" lon="5.96141">
        <ele>2721</ele>
        <time>2019-01-20T12:28:19.000Z</time>
      </trkpt>
      <trkpt lat="45.17117" lon="5.96141">
        <ele>2722</ele>
        <time>2019-01-20T12:28:20.000Z</time>
      </trkpt>
      <trkpt lat="45.17117" lon="5.96141">
        <ele>2722</ele>
        <time>2019-01-20T12:28:21.000Z</time>
      </trkpt>
      <trkpt lat="45.17115" lon="5.96139">
        <ele>2722</ele>
        <time>2019-01-20T12:28:22.000Z</time>
      </trkpt>
      <trkpt lat="45.17115" lon="5.96139">
        <ele>2722</ele>
        <time>2019-01-20T12:28:23.000Z</time>
      </trkpt>
      <trkpt lat="45.17115" lon="5.96139">
        <ele>2722</ele>
        <time>2019-01-20T12:28:24.000Z</time>
      </trkpt>
      <trkpt lat="45.17115" lon="5.96139">
        <ele>2722</ele>
        <time>2019-01-20T12:28:25.000Z</time>
      </trkpt>
      <trkpt lat="45.17115" lon="5.96139">
        <ele>2722</ele>
        <time>2019-01-20T12:28:26.000Z</time>
      </trkpt>
      <trkpt lat="45.17115" lon="5.96139">
        <ele>2722</ele>
        <time>2019-01-20T12:28:27.000Z</time>
      </trkpt>
      <trkpt lat="45.17115" lon="5.96139">
        <ele>2722</ele>
        <time>2019-01-20T12:28:28.000Z</time>
      </trkpt>
      <trkpt lat="45.17115" lon="5.96139">
        <ele>2723</ele>
        <time>2019-01-20T12:28:29.000Z</time>
      </trkpt>
      <trkpt lat="45.17113" lon="5.96137">
        <ele>2723</ele>
        <time>2019-01-20T12:28:30.000Z</time>
      </trkpt>
      <trkpt lat="45.17113" lon="5.96137">
        <ele>2723</ele>
        <time>2019-01-20T12:28:31.000Z</time>
      </trkpt>
      <trkpt lat="45.17113" lon="5.96137">
        <ele>2723</ele>
        <time>2019-01-20T12:28:32.000Z</time>
      </trkpt>
      <trkpt lat="45.17112" lon="5.96136">
        <ele>2723</ele>
        <time>2019-01-20T12:28:34.000Z</time>
      </trkpt>
      <trkpt lat="45.17112" lon="5.96136">
        <ele>2724</ele>
        <time>2019-01-20T12:28:35.000Z</time>
      </trkpt>
      <trkpt lat="45.17112" lon="5.96136">
        <ele>2724</ele>
        <time>2019-01-20T12:28:36.000Z</time>
      </trkpt>
      <trkpt lat="45.17112" lon="5.96136">
        <ele>2724</ele>
        <time>2019-01-20T12:28:37.000Z</time>
      </trkpt>
      <trkpt lat="45.17112" lon="5.96136">
        <ele>2724</ele>
        <time>2019-01-20T12:28:38.000Z</time>
      </trkpt>
      <trkpt lat="45.1711" lon="5.96135">
        <ele>2724</ele>
        <time>2019-01-20T12:28:39.000Z</time>
      </trkpt>
      <trkpt lat="45.1711" lon="5.96135">
        <ele>2724</ele>
        <time>2019-01-20T12:28:40.000Z</time>
      </trkpt>
      <trkpt lat="45.1711" lon="5.96135">
        <ele>2724</ele>
        <time>2019-01-20T12:28:41.000Z</time>
      </trkpt>
      <trkpt lat="45.1711" lon="5.96135">
        <ele>2724</ele>
        <time>2019-01-20T12:28:42.000Z</time>
      </trkpt>
      <trkpt lat="45.1711" lon="5.96135">
        <ele>2725</ele>
        <time>2019-01-20T12:28:43.000Z</time>
      </trkpt>
      <trkpt lat="45.17108" lon="5.96134">
        <ele>2725</ele>
        <time>2019-01-20T12:28:44.000Z</time>
      </trkpt>
      <trkpt lat="45.17108" lon="5.96134">
        <ele>2724</ele>
        <time>2019-01-20T12:28:45.000Z</time>
      </trkpt>
      <trkpt lat="45.17108" lon="5.96134">
        <ele>2724</ele>
        <time>2019-01-20T12:28:46.000Z</time>
      </trkpt>
      <trkpt lat="45.17108" lon="5.96134">
        <ele>2724</ele>
        <time>2019-01-20T12:28:47.000Z</time>
      </trkpt>
      <trkpt lat="45.17108" lon="5.96134">
        <ele>2724</ele>
        <time>2019-01-20T12:28:48.000Z</time>
      </trkpt>
      <trkpt lat="45.17108" lon="5.96134">
        <ele>2724</ele>
        <time>2019-01-20T12:28:49.000Z</time>
      </trkpt>
      <trkpt lat="45.17108" lon="5.96134">
        <ele>2724</ele>
        <time>2019-01-20T12:28:50.000Z</time>
      </trkpt>
      <trkpt lat="45.17108" lon="5.96134">
        <ele>2725</ele>
        <time>2019-01-20T12:28:51.000Z</time>
      </trkpt>
      <trkpt lat="45.17108" lon="5.96134">
        <ele>2725</ele>
        <time>2019-01-20T12:28:53.000Z</time>
      </trkpt>
      <trkpt lat="45.17108" lon="5.96134">
        <ele>2725</ele>
        <time>2019-01-20T12:28:54.000Z</time>
      </trkpt>
      <trkpt lat="45.17108" lon="5.96134">
        <ele>2725</ele>
        <time>2019-01-20T12:28:55.000Z</time>
      </trkpt>
      <trkpt lat="45.17108" lon="5.96134">
        <ele>2725</ele>
        <time>2019-01-20T12:28:56.000Z</time>
      </trkpt>
      <trkpt lat="45.17106" lon="5.96133">
        <ele>2725</ele>
        <time>2019-01-20T12:28:57.000Z</time>
      </trkpt>
      <trkpt lat="45.17106" lon="5.96133">
        <ele>2725</ele>
        <time>2019-01-20T12:28:58.000Z</time>
      </trkpt>
      <trkpt lat="45.17106" lon="5.96133">
        <ele>2725</ele>
        <time>2019-01-20T12:28:59.000Z</time>
      </trkpt>
      <trkpt lat="45.17104" lon="5.96131">
        <ele>2725</ele>
        <time>2019-01-20T12:29:00.000Z</time>
      </trkpt>
      <trkpt lat="45.17104" lon="5.96131">
        <ele>2725</ele>
        <time>2019-01-20T12:29:01.000Z</time>
      </trkpt>
      <trkpt lat="45.17104" lon="5.96131">
        <ele>2726</ele>
        <time>2019-01-20T12:29:02.000Z</time>
      </trkpt>
      <trkpt lat="45.17104" lon="5.96131">
        <ele>2726</ele>
        <time>2019-01-20T12:29:03.000Z</time>
      </trkpt>
      <trkpt lat="45.17103" lon="5.9613">
        <ele>2726</ele>
        <time>2019-01-20T12:29:04.000Z</time>
      </trkpt>
      <trkpt lat="45.17103" lon="5.9613">
        <ele>2726</ele>
        <time>2019-01-20T12:29:05.000Z</time>
      </trkpt>
      <trkpt lat="45.17103" lon="5.9613">
        <ele>2727</ele>
        <time>2019-01-20T12:29:06.000Z</time>
      </trkpt>
      <trkpt lat="45.17103" lon="5.9613">
        <ele>2727</ele>
        <time>2019-01-20T12:29:07.000Z</time>
      </trkpt>
      <trkpt lat="45.17101" lon="5.96128">
        <ele>2727</ele>
        <time>2019-01-20T12:29:08.000Z</time>
      </trkpt>
      <trkpt lat="45.17101" lon="5.96128">
        <ele>2727</ele>
        <time>2019-01-20T12:29:09.000Z</time>
      </trkpt>
      <trkpt lat="45.17101" lon="5.96128">
        <ele>2728</ele>
        <time>2019-01-20T12:29:10.000Z</time>
      </trkpt>
      <trkpt lat="45.171" lon="5.96126">
        <ele>2728</ele>
        <time>2019-01-20T12:29:11.000Z</time>
      </trkpt>
      <trkpt lat="45.171" lon="5.96126">
        <ele>2728</ele>
        <time>2019-01-20T12:29:12.000Z</time>
      </trkpt>
      <trkpt lat="45.171" lon="5.96126">
        <ele>2728</ele>
        <time>2019-01-20T12:29:13.000Z</time>
      </trkpt>
      <trkpt lat="45.17099" lon="5.96123">
        <ele>2729</ele>
        <time>2019-01-20T12:29:14.000Z</time>
      </trkpt>
      <trkpt lat="45.17099" lon="5.96123">
        <ele>2729</ele>
        <time>2019-01-20T12:29:15.000Z</time>
      </trkpt>
      <trkpt lat="45.17099" lon="5.96123">
        <ele>2730</ele>
        <time>2019-01-20T12:29:16.000Z</time>
      </trkpt>
      <trkpt lat="45.17098" lon="5.9612">
        <ele>2730</ele>
        <time>2019-01-20T12:29:17.000Z</time>
      </trkpt>
      <trkpt lat="45.17098" lon="5.9612">
        <ele>2730</ele>
        <time>2019-01-20T12:29:18.000Z</time>
      </trkpt>
      <trkpt lat="45.17098" lon="5.9612">
        <ele>2730</ele>
        <time>2019-01-20T12:29:20.000Z</time>
      </trkpt>
      <trkpt lat="45.17097" lon="5.96118">
        <ele>2731</ele>
        <time>2019-01-20T12:29:21.000Z</time>
      </trkpt>
      <trkpt lat="45.17097" lon="5.96118">
        <ele>2731</ele>
        <time>2019-01-20T12:29:22.000Z</time>
      </trkpt>
      <trkpt lat="45.17097" lon="5.96118">
        <ele>2731</ele>
        <time>2019-01-20T12:29:23.000Z</time>
      </trkpt>
      <trkpt lat="45.17096" lon="5.96114">
        <ele>2731</ele>
        <time>2019-01-20T12:29:24.000Z</time>
      </trkpt>
      <trkpt lat="45.17096" lon="5.96114">
        <ele>2731</ele>
        <time>2019-01-20T12:29:25.000Z</time>
      </trkpt>
      <trkpt lat="45.17096" lon="5.96114">
        <ele>2732</ele>
        <time>2019-01-20T12:29:26.000Z</time>
      </trkpt>
      <trkpt lat="45.17096" lon="5.96114">
        <ele>2732</ele>
        <time>2019-01-20T12:29:27.000Z</time>
      </trkpt>
      <trkpt lat="45.17096" lon="5.96111">
        <ele>2732</ele>
        <time>2019-01-20T12:29:28.000Z</time>
      </trkpt>
      <trkpt lat="45.17096" lon="5.96111">
        <ele>2733</ele>
        <time>2019-01-20T12:29:29.000Z</time>
      </trkpt>
      <trkpt lat="45.17095" lon="5.96108">
        <ele>2732.4</ele>
        <time>2019-01-20T12:29:31.000Z</time>
      </trkpt>
      <trkpt lat="45.17095" lon="5.96108">
        <ele>2732</ele>
        <time>2019-01-20T12:29:32.000Z</time>
      </trkpt>
      <trkpt lat="45.17095" lon="5.96108">
        <ele>2732</ele>
        <time>2019-01-20T12:29:33.000Z</time>
      </trkpt>
      <trkpt lat="45.17095" lon="5.96108">
        <ele>2732</ele>
        <time>2019-01-20T12:29:34.000Z</time>
      </trkpt>
      <trkpt lat="45.17094" lon="5.96105">
        <ele>2732</ele>
        <time>2019-01-20T12:29:35.000Z</time>
      </trkpt>
      <trkpt lat="45.17094" lon="5.96105">
        <ele>2732</ele>
        <time>2019-01-20T12:29:36.000Z</time>
      </trkpt>
      <trkpt lat="45.17094" lon="5.96105">
        <ele>2733</ele>
        <time>2019-01-20T12:29:37.000Z</time>
      </trkpt>
      <trkpt lat="45.17094" lon="5.96102">
        <ele>2733</ele>
        <time>2019-01-20T12:29:38.000Z</time>
      </trkpt>
      <trkpt lat="45.17094" lon="5.96102">
        <ele>2733</ele>
        <time>2019-01-20T12:29:39.000Z</time>
      </trkpt>
      <trkpt lat="45.17094" lon="5.96102">
        <ele>2733</ele>
        <time>2019-01-20T12:29:40.000Z</time>
      </trkpt>
      <trkpt lat="45.17094" lon="5.96102">
        <ele>2733</ele>
        <time>2019-01-20T12:29:41.000Z</time>
      </trkpt>
      <trkpt lat="45.17093" lon="5.96099">
        <ele>2733</ele>
        <time>2019-01-20T12:29:42.000Z</time>
      </trkpt>
      <trkpt lat="45.17093" lon="5.96099">
        <ele>2734</ele>
        <time>2019-01-20T12:29:43.000Z</time>
      </trkpt>
      <trkpt lat="45.17093" lon="5.96099">
        <ele>2734</ele>
        <time>2019-01-20T12:29:44.000Z</time>
      </trkpt>
      <trkpt lat="45.17093" lon="5.96096">
        <ele>2734</ele>
        <time>2019-01-20T12:29:45.000Z</time>
      </trkpt>
      <trkpt lat="45.17093" lon="5.96096">
        <ele>2734.4</ele>
        <time>2019-01-20T12:29:47.000Z</time>
      </trkpt>
      <trkpt lat="45.17092" lon="5.96093">
        <ele>2735</ele>
        <time>2019-01-20T12:29:48.000Z</time>
      </trkpt>
      <trkpt lat="45.17092" lon="5.96093">
        <ele>2735.6</ele>
        <time>2019-01-20T12:29:50.000Z</time>
      </trkpt>
      <trkpt lat="45.17091" lon="5.96091">
        <ele>2736</ele>
        <time>2019-01-20T12:29:51.000Z</time>
      </trkpt>
      <trkpt lat="45.17091" lon="5.96091">
        <ele>2736</ele>
        <time>2019-01-20T12:29:52.000Z</time>
      </trkpt>
      <trkpt lat="45.17091" lon="5.96091">
        <ele>2736</ele>
        <time>2019-01-20T12:29:53.000Z</time>
      </trkpt>
      <trkpt lat="45.17091" lon="5.96088">
        <ele>2736</ele>
        <time>2019-01-20T12:29:54.000Z</time>
      </trkpt>
      <trkpt lat="45.17091" lon="5.96088">
        <ele>2736</ele>
        <time>2019-01-20T12:29:55.000Z</time>
      </trkpt>
      <trkpt lat="45.17091" lon="5.96088">
        <ele>2736</ele>
        <time>2019-01-20T12:29:56.000Z</time>
      </trkpt>
      <trkpt lat="45.1709" lon="5.96086">
        <ele>2736</ele>
        <time>2019-01-20T12:29:57.000Z</time>
      </trkpt>
      <trkpt lat="45.1709" lon="5.96086">
        <ele>2736</ele>
        <time>2019-01-20T12:29:58.000Z</time>
      </trkpt>
      <trkpt lat="45.1709" lon="5.96086">
        <ele>2736</ele>
        <time>2019-01-20T12:29:59.000Z</time>
      </trkpt>
      <trkpt lat="45.17088" lon="5.96084">
        <ele>2736</ele>
        <time>2019-01-20T12:30:00.000Z</time>
      </trkpt>
      <trkpt lat="45.17088" lon="5.96084">
        <ele>2736</ele>
        <time>2019-01-20T12:30:01.000Z</time>
      </trkpt>
      <trkpt lat="45.17088" lon="5.96084">
        <ele>2737</ele>
        <time>2019-01-20T12:30:02.000Z</time>
      </trkpt>
      <trkpt lat="45.17087" lon="5.96082">
        <ele>2737</ele>
        <time>2019-01-20T12:30:03.000Z</time>
      </trkpt>
      <trkpt lat="45.17087" lon="5.96082">
        <ele>2738</ele>
        <time>2019-01-20T12:30:04.000Z</time>
      </trkpt>
      <trkpt lat="45.17087" lon="5.96082">
        <ele>2738</ele>
        <time>2019-01-20T12:30:05.000Z</time>
      </trkpt>
      <trkpt lat="45.17085" lon="5.96081">
        <ele>2738</ele>
        <time>2019-01-20T12:30:06.000Z</time>
      </trkpt>
      <trkpt lat="45.17085" lon="5.96081">
        <ele>2738</ele>
        <time>2019-01-20T12:30:07.000Z</time>
      </trkpt>
      <trkpt lat="45.17084" lon="5.96079">
        <ele>2738.4</ele>
        <time>2019-01-20T12:30:09.000Z</time>
      </trkpt>
      <trkpt lat="45.17084" lon="5.96079">
        <ele>2739</ele>
        <time>2019-01-20T12:30:10.000Z</time>
      </trkpt>
      <trkpt lat="45.17084" lon="5.96079">
        <ele>2739</ele>
        <time>2019-01-20T12:30:11.000Z</time>
      </trkpt>
      <trkpt lat="45.17082" lon="5.96078">
        <ele>2739</ele>
        <time>2019-01-20T12:30:12.000Z</time>
      </trkpt>
      <trkpt lat="45.17082" lon="5.96078">
        <ele>2738</ele>
        <time>2019-01-20T12:30:13.000Z</time>
      </trkpt>
      <trkpt lat="45.17082" lon="5.96078">
        <ele>2740</ele>
        <time>2019-01-20T12:30:14.000Z</time>
      </trkpt>
      <trkpt lat="45.1708" lon="5.96076">
        <ele>2740</ele>
        <time>2019-01-20T12:30:15.000Z</time>
      </trkpt>
      <trkpt lat="45.1708" lon="5.96076">
        <ele>2739</ele>
        <time>2019-01-20T12:30:16.000Z</time>
      </trkpt>
      <trkpt lat="45.1708" lon="5.96076">
        <ele>2739</ele>
        <time>2019-01-20T12:30:17.000Z</time>
      </trkpt>
      <trkpt lat="45.17078" lon="5.96076">
        <ele>2739</ele>
        <time>2019-01-20T12:30:18.000Z</time>
      </trkpt>
      <trkpt lat="45.17078" lon="5.96076">
        <ele>2739</ele>
        <time>2019-01-20T12:30:19.000Z</time>
      </trkpt>
      <trkpt lat="45.17078" lon="5.96076">
        <ele>2739</ele>
        <time>2019-01-20T12:30:20.000Z</time>
      </trkpt>
      <trkpt lat="45.17077" lon="5.96076">
        <ele>2739</ele>
        <time>2019-01-20T12:30:21.000Z</time>
      </trkpt>
      <trkpt lat="45.17077" lon="5.96076">
        <ele>2739</ele>
        <time>2019-01-20T12:30:22.000Z</time>
      </trkpt>
      <trkpt lat="45.17077" lon="5.96076">
        <ele>2739</ele>
        <time>2019-01-20T12:30:23.000Z</time>
      </trkpt>
      <trkpt lat="45.17075" lon="5.96075">
        <ele>2739</ele>
        <time>2019-01-20T12:30:24.000Z</time>
      </trkpt>
      <trkpt lat="45.17075" lon="5.96075">
        <ele>2739</ele>
        <time>2019-01-20T12:30:25.000Z</time>
      </trkpt>
      <trkpt lat="45.17075" lon="5.96075">
        <ele>2739</ele>
        <time>2019-01-20T12:30:26.000Z</time>
      </trkpt>
      <trkpt lat="45.17073" lon="5.96073">
        <ele>2739</ele>
        <time>2019-01-20T12:30:27.000Z</time>
      </trkpt>
      <trkpt lat="45.17073" lon="5.96073">
        <ele>2740.4</ele>
        <time>2019-01-20T12:30:28.000Z</time>
      </trkpt>
      <trkpt lat="45.17073" lon="5.96073">
        <ele>2741</ele>
        <time>2019-01-20T12:30:29.000Z</time>
      </trkpt>
      <trkpt lat="45.17072" lon="5.96071">
        <ele>2741</ele>
        <time>2019-01-20T12:30:30.000Z</time>
      </trkpt>
      <trkpt lat="45.17072" lon="5.96071">
        <ele>2741</ele>
        <time>2019-01-20T12:30:31.000Z</time>
      </trkpt>
      <trkpt lat="45.17072" lon="5.96071">
        <ele>2741</ele>
        <time>2019-01-20T12:30:32.000Z</time>
      </trkpt>
      <trkpt lat="45.17071" lon="5.96069">
        <ele>2742</ele>
        <time>2019-01-20T12:30:33.000Z</time>
      </trkpt>
      <trkpt lat="45.17071" lon="5.96069">
        <ele>2743</ele>
        <time>2019-01-20T12:30:34.000Z</time>
      </trkpt>
      <trkpt lat="45.17071" lon="5.96069">
        <ele>2743</ele>
        <time>2019-01-20T12:30:35.000Z</time>
      </trkpt>
      <trkpt lat="45.1707" lon="5.96066">
        <ele>2743</ele>
        <time>2019-01-20T12:30:36.000Z</time>
      </trkpt>
      <trkpt lat="45.1707" lon="5.96066">
        <ele>2743</ele>
        <time>2019-01-20T12:30:37.000Z</time>
      </trkpt>
      <trkpt lat="45.1707" lon="5.96066">
        <ele>2743</ele>
        <time>2019-01-20T12:30:38.000Z</time>
      </trkpt>
      <trkpt lat="45.17071" lon="5.96064">
        <ele>2743</ele>
        <time>2019-01-20T12:30:39.000Z</time>
      </trkpt>
      <trkpt lat="45.17071" lon="5.96064">
        <ele>2744</ele>
        <time>2019-01-20T12:30:40.000Z</time>
      </trkpt>
      <trkpt lat="45.17071" lon="5.96064">
        <ele>2744</ele>
        <time>2019-01-20T12:30:41.000Z</time>
      </trkpt>
      <trkpt lat="45.17072" lon="5.96061">
        <ele>2744</ele>
        <time>2019-01-20T12:30:42.000Z</time>
      </trkpt>
      <trkpt lat="45.17072" lon="5.96061">
        <ele>2744</ele>
        <time>2019-01-20T12:30:43.000Z</time>
      </trkpt>
      <trkpt lat="45.17072" lon="5.96061">
        <ele>2744</ele>
        <time>2019-01-20T12:30:44.000Z</time>
      </trkpt>
      <trkpt lat="45.17072" lon="5.96061">
        <ele>2744</ele>
        <time>2019-01-20T12:30:45.000Z</time>
      </trkpt>
      <trkpt lat="45.17072" lon="5.96061">
        <ele>2744</ele>
        <time>2019-01-20T12:30:47.000Z</time>
      </trkpt>
      <trkpt lat="45.17073" lon="5.96059">
        <ele>2744</ele>
        <time>2019-01-20T12:30:48.000Z</time>
      </trkpt>
      <trkpt lat="45.17073" lon="5.96059">
        <ele>2744</ele>
        <time>2019-01-20T12:30:49.000Z</time>
      </trkpt>
      <trkpt lat="45.17073" lon="5.96059">
        <ele>2744</ele>
        <time>2019-01-20T12:30:50.000Z</time>
      </trkpt>
      <trkpt lat="45.17075" lon="5.96057">
        <ele>2744</ele>
        <time>2019-01-20T12:30:51.000Z</time>
      </trkpt>
      <trkpt lat="45.17075" lon="5.96057">
        <ele>2744</ele>
        <time>2019-01-20T12:30:52.000Z</time>
      </trkpt>
      <trkpt lat="45.17075" lon="5.96057">
        <ele>2745</ele>
        <time>2019-01-20T12:30:53.000Z</time>
      </trkpt>
      <trkpt lat="45.17076" lon="5.96054">
        <ele>2745</ele>
        <time>2019-01-20T12:30:54.000Z</time>
      </trkpt>
      <trkpt lat="45.17076" lon="5.96054">
        <ele>2745</ele>
        <time>2019-01-20T12:30:55.000Z</time>
      </trkpt>
      <trkpt lat="45.17078" lon="5.96052">
        <ele>2745</ele>
        <time>2019-01-20T12:30:56.000Z</time>
      </trkpt>
      <trkpt lat="45.17078" lon="5.96052">
        <ele>2745</ele>
        <time>2019-01-20T12:30:57.000Z</time>
      </trkpt>
      <trkpt lat="45.17078" lon="5.96052">
        <ele>2745</ele>
        <time>2019-01-20T12:30:58.000Z</time>
      </trkpt>
      <trkpt lat="45.17079" lon="5.96049">
        <ele>2746</ele>
        <time>2019-01-20T12:30:59.000Z</time>
      </trkpt>
      <trkpt lat="45.17079" lon="5.96049">
        <ele>2746</ele>
        <time>2019-01-20T12:31:00.000Z</time>
      </trkpt>
      <trkpt lat="45.17079" lon="5.96049">
        <ele>2747</ele>
        <time>2019-01-20T12:31:01.000Z</time>
      </trkpt>
      <trkpt lat="45.1708" lon="5.96046">
        <ele>2747</ele>
        <time>2019-01-20T12:31:02.000Z</time>
      </trkpt>
      <trkpt lat="45.1708" lon="5.96046">
        <ele>2747</ele>
        <time>2019-01-20T12:31:03.000Z</time>
      </trkpt>
      <trkpt lat="45.17081" lon="5.96043">
        <ele>2747</ele>
        <time>2019-01-20T12:31:05.000Z</time>
      </trkpt>
      <trkpt lat="45.17081" lon="5.96043">
        <ele>2747.6</ele>
        <time>2019-01-20T12:31:06.000Z</time>
      </trkpt>
      <trkpt lat="45.17081" lon="5.96043">
        <ele>2748</ele>
        <time>2019-01-20T12:31:07.000Z</time>
      </trkpt>
      <trkpt lat="45.17081" lon="5.96043">
        <ele>2748</ele>
        <time>2019-01-20T12:31:08.000Z</time>
      </trkpt>
      <trkpt lat="45.17081" lon="5.9604">
        <ele>2748</ele>
        <time>2019-01-20T12:31:09.000Z</time>
      </trkpt>
      <trkpt lat="45.17081" lon="5.9604">
        <ele>2748</ele>
        <time>2019-01-20T12:31:10.000Z</time>
      </trkpt>
      <trkpt lat="45.17081" lon="5.9604">
        <ele>2749</ele>
        <time>2019-01-20T12:31:11.000Z</time>
      </trkpt>
      <trkpt lat="45.1708" lon="5.96037">
        <ele>2749</ele>
        <time>2019-01-20T12:31:12.000Z</time>
      </trkpt>
      <trkpt lat="45.1708" lon="5.96037">
        <ele>2749</ele>
        <time>2019-01-20T12:31:13.000Z</time>
      </trkpt>
      <trkpt lat="45.1708" lon="5.96037">
        <ele>2749</ele>
        <time>2019-01-20T12:31:14.000Z</time>
      </trkpt>
      <trkpt lat="45.1708" lon="5.96037">
        <ele>2749</ele>
        <time>2019-01-20T12:31:15.000Z</time>
      </trkpt>
      <trkpt lat="45.1708" lon="5.96034">
        <ele>2748</ele>
        <time>2019-01-20T12:31:16.000Z</time>
      </trkpt>
      <trkpt lat="45.1708" lon="5.96034">
        <ele>2750</ele>
        <time>2019-01-20T12:31:17.000Z</time>
      </trkpt>
      <trkpt lat="45.1708" lon="5.96034">
        <ele>2750</ele>
        <time>2019-01-20T12:31:18.000Z</time>
      </trkpt>
      <trkpt lat="45.17079" lon="5.96031">
        <ele>2749</ele>
        <time>2019-01-20T12:31:19.000Z</time>
      </trkpt>
      <trkpt lat="45.17079" lon="5.96031">
        <ele>2749</ele>
        <time>2019-01-20T12:31:20.000Z</time>
      </trkpt>
      <trkpt lat="45.17079" lon="5.96031">
        <ele>2749</ele>
        <time>2019-01-20T12:31:21.000Z</time>
      </trkpt>
      <trkpt lat="45.17078" lon="5.96028">
        <ele>2750</ele>
        <time>2019-01-20T12:31:22.000Z</time>
      </trkpt>
      <trkpt lat="45.17078" lon="5.96028">
        <ele>2750</ele>
        <time>2019-01-20T12:31:23.000Z</time>
      </trkpt>
      <trkpt lat="45.17078" lon="5.96025">
        <ele>2750</ele>
        <time>2019-01-20T12:31:25.000Z</time>
      </trkpt>
      <trkpt lat="45.17078" lon="5.96025">
        <ele>2750</ele>
        <time>2019-01-20T12:31:26.000Z</time>
      </trkpt>
      <trkpt lat="45.17078" lon="5.96025">
        <ele>2751</ele>
        <time>2019-01-20T12:31:27.000Z</time>
      </trkpt>
      <trkpt lat="45.17079" lon="5.96022">
        <ele>2751</ele>
        <time>2019-01-20T12:31:28.000Z</time>
      </trkpt>
      <trkpt lat="45.17079" lon="5.96022">
        <ele>2751</ele>
        <time>2019-01-20T12:31:29.000Z</time>
      </trkpt>
      <trkpt lat="45.17079" lon="5.96022">
        <ele>2751</ele>
        <time>2019-01-20T12:31:30.000Z</time>
      </trkpt>
      <trkpt lat="45.17079" lon="5.96019">
        <ele>2751</ele>
        <time>2019-01-20T12:31:31.000Z</time>
      </trkpt>
      <trkpt lat="45.17079" lon="5.96019">
        <ele>2752</ele>
        <time>2019-01-20T12:31:32.000Z</time>
      </trkpt>
      <trkpt lat="45.17079" lon="5.96019">
        <ele>2752</ele>
        <time>2019-01-20T12:31:33.000Z</time>
      </trkpt>
      <trkpt lat="45.1708" lon="5.96017">
        <ele>2752</ele>
        <time>2019-01-20T12:31:34.000Z</time>
      </trkpt>
      <trkpt lat="45.1708" lon="5.96017">
        <ele>2752</ele>
        <time>2019-01-20T12:31:35.000Z</time>
      </trkpt>
      <trkpt lat="45.1708" lon="5.96017">
        <ele>2752</ele>
        <time>2019-01-20T12:31:36.000Z</time>
      </trkpt>
      <trkpt lat="45.17082" lon="5.96016">
        <ele>2752</ele>
        <time>2019-01-20T12:31:37.000Z</time>
      </trkpt>
      <trkpt lat="45.17082" lon="5.96016">
        <ele>2753</ele>
        <time>2019-01-20T12:31:38.000Z</time>
      </trkpt>
      <trkpt lat="45.17082" lon="5.96016">
        <ele>2753</ele>
        <time>2019-01-20T12:31:39.000Z</time>
      </trkpt>
      <trkpt lat="45.17084" lon="5.96015">
        <ele>2753</ele>
        <time>2019-01-20T12:31:40.000Z</time>
      </trkpt>
      <trkpt lat="45.17084" lon="5.96015">
        <ele>2753</ele>
        <time>2019-01-20T12:31:41.000Z</time>
      </trkpt>
      <trkpt lat="45.17084" lon="5.96015">
        <ele>2753</ele>
        <time>2019-01-20T12:31:42.000Z</time>
      </trkpt>
      <trkpt lat="45.17086" lon="5.96013">
        <ele>2753</ele>
        <time>2019-01-20T12:31:43.000Z</time>
      </trkpt>
      <trkpt lat="45.17086" lon="5.96013">
        <ele>2754</ele>
        <time>2019-01-20T12:31:44.000Z</time>
      </trkpt>
      <trkpt lat="45.17086" lon="5.96013">
        <ele>2754</ele>
        <time>2019-01-20T12:31:45.000Z</time>
      </trkpt>
      <trkpt lat="45.17088" lon="5.96012">
        <ele>2755</ele>
        <time>2019-01-20T12:31:46.000Z</time>
      </trkpt>
      <trkpt lat="45.17088" lon="5.96012">
        <ele>2755</ele>
        <time>2019-01-20T12:31:47.000Z</time>
      </trkpt>
      <trkpt lat="45.17088" lon="5.96012">
        <ele>2755</ele>
        <time>2019-01-20T12:31:48.000Z</time>
      </trkpt>
      <trkpt lat="45.17091" lon="5.96012">
        <ele>2755</ele>
        <time>2019-01-20T12:31:49.000Z</time>
      </trkpt>
      <trkpt lat="45.17091" lon="5.96012">
        <ele>2755</ele>
        <time>2019-01-20T12:31:50.000Z</time>
      </trkpt>
      <trkpt lat="45.17091" lon="5.96012">
        <ele>2755</ele>
        <time>2019-01-20T12:31:51.000Z</time>
      </trkpt>
      <trkpt lat="45.17093" lon="5.96012">
        <ele>2755</ele>
        <time>2019-01-20T12:31:52.000Z</time>
      </trkpt>
      <trkpt lat="45.17093" lon="5.96012">
        <ele>2755</ele>
        <time>2019-01-20T12:31:53.000Z</time>
      </trkpt>
      <trkpt lat="45.17093" lon="5.96012">
        <ele>2755</ele>
        <time>2019-01-20T12:31:54.000Z</time>
      </trkpt>
      <trkpt lat="45.17095" lon="5.96012">
        <ele>2755</ele>
        <time>2019-01-20T12:31:55.000Z</time>
      </trkpt>
      <trkpt lat="45.17095" lon="5.96012">
        <ele>2756</ele>
        <time>2019-01-20T12:31:56.000Z</time>
      </trkpt>
      <trkpt lat="45.17095" lon="5.96012">
        <ele>2757</ele>
        <time>2019-01-20T12:31:57.000Z</time>
      </trkpt>
      <trkpt lat="45.17097" lon="5.96013">
        <ele>2757</ele>
        <time>2019-01-20T12:31:58.000Z</time>
      </trkpt>
      <trkpt lat="45.17097" lon="5.96013">
        <ele>2757</ele>
        <time>2019-01-20T12:31:59.000Z</time>
      </trkpt>
      <trkpt lat="45.17097" lon="5.96013">
        <ele>2757</ele>
        <time>2019-01-20T12:32:00.000Z</time>
      </trkpt>
      <trkpt lat="45.17099" lon="5.96013">
        <ele>2757</ele>
        <time>2019-01-20T12:32:01.000Z</time>
      </trkpt>
      <trkpt lat="45.17099" lon="5.96013">
        <ele>2757</ele>
        <time>2019-01-20T12:32:03.000Z</time>
      </trkpt>
      <trkpt lat="45.17101" lon="5.96013">
        <ele>2757</ele>
        <time>2019-01-20T12:32:04.000Z</time>
      </trkpt>
      <trkpt lat="45.17101" lon="5.96013">
        <ele>2758</ele>
        <time>2019-01-20T12:32:05.000Z</time>
      </trkpt>
      <trkpt lat="45.17101" lon="5.96013">
        <ele>2758</ele>
        <time>2019-01-20T12:32:06.000Z</time>
      </trkpt>
      <trkpt lat="45.17103" lon="5.96012">
        <ele>2758</ele>
        <time>2019-01-20T12:32:07.000Z</time>
      </trkpt>
      <trkpt lat="45.17103" lon="5.96012">
        <ele>2758</ele>
        <time>2019-01-20T12:32:08.000Z</time>
      </trkpt>
      <trkpt lat="45.17103" lon="5.96012">
        <ele>2759</ele>
        <time>2019-01-20T12:32:09.000Z</time>
      </trkpt>
      <trkpt lat="45.17105" lon="5.96012">
        <ele>2759</ele>
        <time>2019-01-20T12:32:10.000Z</time>
      </trkpt>
      <trkpt lat="45.17105" lon="5.96012">
        <ele>2759</ele>
        <time>2019-01-20T12:32:11.000Z</time>
      </trkpt>
      <trkpt lat="45.17105" lon="5.96012">
        <ele>2759</ele>
        <time>2019-01-20T12:32:12.000Z</time>
      </trkpt>
      <trkpt lat="45.17105" lon="5.96012">
        <ele>2759</ele>
        <time>2019-01-20T12:32:13.000Z</time>
      </trkpt>
      <trkpt lat="45.17105" lon="5.96012">
        <ele>2760</ele>
        <time>2019-01-20T12:32:14.000Z</time>
      </trkpt>
      <trkpt lat="45.17105" lon="5.96012">
        <ele>2760</ele>
        <time>2019-01-20T12:32:15.000Z</time>
      </trkpt>
      <trkpt lat="45.17105" lon="5.96012">
        <ele>2759</ele>
        <time>2019-01-20T12:32:16.000Z</time>
      </trkpt>
      <trkpt lat="45.17105" lon="5.96012">
        <ele>2759</ele>
        <time>2019-01-20T12:32:17.000Z</time>
      </trkpt>
      <trkpt lat="45.17105" lon="5.96012">
        <ele>2759</ele>
        <time>2019-01-20T12:32:18.000Z</time>
      </trkpt>
      <trkpt lat="45.17105" lon="5.96012">
        <ele>2758</ele>
        <time>2019-01-20T12:32:19.000Z</time>
      </trkpt>
      <trkpt lat="45.17105" lon="5.96012">
        <ele>2758</ele>
        <time>2019-01-20T12:32:20.000Z</time>
      </trkpt>
      <trkpt lat="45.17105" lon="5.96012">
        <ele>2758</ele>
        <time>2019-01-20T12:32:22.000Z</time>
      </trkpt>
      <trkpt lat="45.17105" lon="5.96012">
        <ele>2758</ele>
        <time>2019-01-20T12:32:23.000Z</time>
      </trkpt>
      <trkpt lat="45.17105" lon="5.96012">
        <ele>2758</ele>
        <time>2019-01-20T12:32:24.000Z</time>
      </trkpt>
      <trkpt lat="45.17105" lon="5.96012">
        <ele>2758</ele>
        <time>2019-01-20T12:32:25.000Z</time>
      </trkpt>
      <trkpt lat="45.17105" lon="5.96012">
        <ele>2758</ele>
        <time>2019-01-20T12:32:26.000Z</time>
      </trkpt>
      <trkpt lat="45.17105" lon="5.96012">
        <ele>2758</ele>
        <time>2019-01-20T12:32:27.000Z</time>
      </trkpt>
      <trkpt lat="45.17105" lon="5.96012">
        <ele>2758</ele>
        <time>2019-01-20T12:32:28.000Z</time>
      </trkpt>
      <trkpt lat="45.17105" lon="5.96012">
        <ele>2758</ele>
        <time>2019-01-20T12:32:29.000Z</time>
      </trkpt>
      <trkpt lat="45.17105" lon="5.96012">
        <ele>2758</ele>
        <time>2019-01-20T12:32:30.000Z</time>
      </trkpt>
      <trkpt lat="45.17105" lon="5.96012">
        <ele>2759</ele>
        <time>2019-01-20T12:32:31.000Z</time>
      </trkpt>
      <trkpt lat="45.17105" lon="5.96012">
        <ele>2759</ele>
        <time>2019-01-20T12:32:32.000Z</time>
      </trkpt>
      <trkpt lat="45.17105" lon="5.96009">
        <ele>2759</ele>
        <time>2019-01-20T12:32:33.000Z</time>
      </trkpt>
      <trkpt lat="45.17104" lon="5.96007">
        <ele>2759</ele>
        <time>2019-01-20T12:32:35.000Z</time>
      </trkpt>
      <trkpt lat="45.17104" lon="5.96007">
        <ele>2760</ele>
        <time>2019-01-20T12:32:36.000Z</time>
      </trkpt>
      <trkpt lat="45.17104" lon="5.96007">
        <ele>2760</ele>
        <time>2019-01-20T12:32:37.000Z</time>
      </trkpt>
      <trkpt lat="45.17103" lon="5.96003">
        <ele>2760</ele>
        <time>2019-01-20T12:32:38.000Z</time>
      </trkpt>
      <trkpt lat="45.17103" lon="5.96003">
        <ele>2760</ele>
        <time>2019-01-20T12:32:39.000Z</time>
      </trkpt>
      <trkpt lat="45.17103" lon="5.96">
        <ele>2760</ele>
        <time>2019-01-20T12:32:41.000Z</time>
      </trkpt>
      <trkpt lat="45.17103" lon="5.96">
        <ele>2760</ele>
        <time>2019-01-20T12:32:42.000Z</time>
      </trkpt>
      <trkpt lat="45.17103" lon="5.96">
        <ele>2761</ele>
        <time>2019-01-20T12:32:43.000Z</time>
      </trkpt>
      <trkpt lat="45.17102" lon="5.95997">
        <ele>2762</ele>
        <time>2019-01-20T12:32:44.000Z</time>
      </trkpt>
      <trkpt lat="45.17102" lon="5.95997">
        <ele>2762</ele>
        <time>2019-01-20T12:32:45.000Z</time>
      </trkpt>
      <trkpt lat="45.17102" lon="5.95995">
        <ele>2762</ele>
        <time>2019-01-20T12:32:46.000Z</time>
      </trkpt>
      <trkpt lat="45.17102" lon="5.95995">
        <ele>2762</ele>
        <time>2019-01-20T12:32:47.000Z</time>
      </trkpt>
      <trkpt lat="45.17103" lon="5.95992">
        <ele>2763</ele>
        <time>2019-01-20T12:32:48.000Z</time>
      </trkpt>
      <trkpt lat="45.17103" lon="5.95992">
        <ele>2763</ele>
        <time>2019-01-20T12:32:49.000Z</time>
      </trkpt>
      <trkpt lat="45.17103" lon="5.95992">
        <ele>2763</ele>
        <time>2019-01-20T12:32:50.000Z</time>
      </trkpt>
      <trkpt lat="45.17102" lon="5.95989">
        <ele>2763</ele>
        <time>2019-01-20T12:32:51.000Z</time>
      </trkpt>
      <trkpt lat="45.17102" lon="5.95989">
        <ele>2763</ele>
        <time>2019-01-20T12:32:52.000Z</time>
      </trkpt>
      <trkpt lat="45.17102" lon="5.95989">
        <ele>2763</ele>
        <time>2019-01-20T12:32:53.000Z</time>
      </trkpt>
      <trkpt lat="45.17102" lon="5.95986">
        <ele>2763</ele>
        <time>2019-01-20T12:32:54.000Z</time>
      </trkpt>
      <trkpt lat="45.17102" lon="5.95986">
        <ele>2764</ele>
        <time>2019-01-20T12:32:55.000Z</time>
      </trkpt>
      <trkpt lat="45.17102" lon="5.95986">
        <ele>2764</ele>
        <time>2019-01-20T12:32:56.000Z</time>
      </trkpt>
      <trkpt lat="45.17102" lon="5.95982">
        <ele>2764</ele>
        <time>2019-01-20T12:32:57.000Z</time>
      </trkpt>
      <trkpt lat="45.17102" lon="5.95982">
        <ele>2764</ele>
        <time>2019-01-20T12:32:58.000Z</time>
      </trkpt>
      <trkpt lat="45.17102" lon="5.95979">
        <ele>2765</ele>
        <time>2019-01-20T12:33:00.000Z</time>
      </trkpt>
      <trkpt lat="45.17102" lon="5.95979">
        <ele>2765</ele>
        <time>2019-01-20T12:33:01.000Z</time>
      </trkpt>
      <trkpt lat="45.17102" lon="5.95979">
        <ele>2765</ele>
        <time>2019-01-20T12:33:02.000Z</time>
      </trkpt>
      <trkpt lat="45.17102" lon="5.95976">
        <ele>2765</ele>
        <time>2019-01-20T12:33:03.000Z</time>
      </trkpt>
      <trkpt lat="45.17102" lon="5.95976">
        <ele>2765</ele>
        <time>2019-01-20T12:33:04.000Z</time>
      </trkpt>
      <trkpt lat="45.17102" lon="5.95976">
        <ele>2766</ele>
        <time>2019-01-20T12:33:05.000Z</time>
      </trkpt>
      <trkpt lat="45.17103" lon="5.95973">
        <ele>2766</ele>
        <time>2019-01-20T12:33:06.000Z</time>
      </trkpt>
      <trkpt lat="45.17103" lon="5.95973">
        <ele>2766</ele>
        <time>2019-01-20T12:33:07.000Z</time>
      </trkpt>
      <trkpt lat="45.17103" lon="5.95973">
        <ele>2767</ele>
        <time>2019-01-20T12:33:08.000Z</time>
      </trkpt>
      <trkpt lat="45.17104" lon="5.95969">
        <ele>2767</ele>
        <time>2019-01-20T12:33:09.000Z</time>
      </trkpt>
      <trkpt lat="45.17104" lon="5.95969">
        <ele>2767</ele>
        <time>2019-01-20T12:33:10.000Z</time>
      </trkpt>
      <trkpt lat="45.17104" lon="5.95969">
        <ele>2767</ele>
        <time>2019-01-20T12:33:11.000Z</time>
      </trkpt>
      <trkpt lat="45.17104" lon="5.95965">
        <ele>2767</ele>
        <time>2019-01-20T12:33:12.000Z</time>
      </trkpt>
      <trkpt lat="45.17104" lon="5.95965">
        <ele>2767</ele>
        <time>2019-01-20T12:33:13.000Z</time>
      </trkpt>
      <trkpt lat="45.17105" lon="5.95963">
        <ele>2767</ele>
        <time>2019-01-20T12:33:14.000Z</time>
      </trkpt>
      <trkpt lat="45.17105" lon="5.95963">
        <ele>2767</ele>
        <time>2019-01-20T12:33:15.000Z</time>
      </trkpt>
      <trkpt lat="45.17105" lon="5.95963">
        <ele>2768</ele>
        <time>2019-01-20T12:33:16.000Z</time>
      </trkpt>
      <trkpt lat="45.17106" lon="5.95961">
        <ele>2768</ele>
        <time>2019-01-20T12:33:17.000Z</time>
      </trkpt>
      <trkpt lat="45.17106" lon="5.95961">
        <ele>2769</ele>
        <time>2019-01-20T12:33:19.000Z</time>
      </trkpt>
      <trkpt lat="45.17106" lon="5.95961">
        <ele>2769</ele>
        <time>2019-01-20T12:33:20.000Z</time>
      </trkpt>
      <trkpt lat="45.17106" lon="5.95961">
        <ele>2769</ele>
        <time>2019-01-20T12:33:21.000Z</time>
      </trkpt>
      <trkpt lat="45.17107" lon="5.95963">
        <ele>2769</ele>
        <time>2019-01-20T12:33:22.000Z</time>
      </trkpt>
      <trkpt lat="45.17107" lon="5.95963">
        <ele>2769</ele>
        <time>2019-01-20T12:33:23.000Z</time>
      </trkpt>
      <trkpt lat="45.17108" lon="5.95965">
        <ele>2769</ele>
        <time>2019-01-20T12:33:24.000Z</time>
      </trkpt>
      <trkpt lat="45.17108" lon="5.95965">
        <ele>2769</ele>
        <time>2019-01-20T12:33:25.000Z</time>
      </trkpt>
      <trkpt lat="45.17108" lon="5.95965">
        <ele>2770</ele>
        <time>2019-01-20T12:33:26.000Z</time>
      </trkpt>
      <trkpt lat="45.17109" lon="5.95968">
        <ele>2770</ele>
        <time>2019-01-20T12:33:27.000Z</time>
      </trkpt>
      <trkpt lat="45.17109" lon="5.95968">
        <ele>2770</ele>
        <time>2019-01-20T12:33:28.000Z</time>
      </trkpt>
      <trkpt lat="45.17109" lon="5.95968">
        <ele>2770</ele>
        <time>2019-01-20T12:33:29.000Z</time>
      </trkpt>
      <trkpt lat="45.17111" lon="5.9597">
        <ele>2770</ele>
        <time>2019-01-20T12:33:30.000Z</time>
      </trkpt>
      <trkpt lat="45.17111" lon="5.9597">
        <ele>2771</ele>
        <time>2019-01-20T12:33:31.000Z</time>
      </trkpt>
      <trkpt lat="45.17111" lon="5.9597">
        <ele>2771</ele>
        <time>2019-01-20T12:33:32.000Z</time>
      </trkpt>
      <trkpt lat="45.17113" lon="5.95972">
        <ele>2771</ele>
        <time>2019-01-20T12:33:33.000Z</time>
      </trkpt>
      <trkpt lat="45.17113" lon="5.95972">
        <ele>2771</ele>
        <time>2019-01-20T12:33:34.000Z</time>
      </trkpt>
      <trkpt lat="45.17113" lon="5.95972">
        <ele>2771</ele>
        <time>2019-01-20T12:33:35.000Z</time>
      </trkpt>
      <trkpt lat="45.17115" lon="5.95974">
        <ele>2771</ele>
        <time>2019-01-20T12:33:36.000Z</time>
      </trkpt>
      <trkpt lat="45.17115" lon="5.95974">
        <ele>2771</ele>
        <time>2019-01-20T12:33:38.000Z</time>
      </trkpt>
      <trkpt lat="45.17117" lon="5.95976">
        <ele>2772</ele>
        <time>2019-01-20T12:33:39.000Z</time>
      </trkpt>
      <trkpt lat="45.17117" lon="5.95976">
        <ele>2772</ele>
        <time>2019-01-20T12:33:41.000Z</time>
      </trkpt>
      <trkpt lat="45.17119" lon="5.95978">
        <ele>2772</ele>
        <time>2019-01-20T12:33:42.000Z</time>
      </trkpt>
      <trkpt lat="45.17119" lon="5.95978">
        <ele>2773</ele>
        <time>2019-01-20T12:33:43.000Z</time>
      </trkpt>
      <trkpt lat="45.17119" lon="5.95978">
        <ele>2773</ele>
        <time>2019-01-20T12:33:44.000Z</time>
      </trkpt>
      <trkpt lat="45.17121" lon="5.95979">
        <ele>2773</ele>
        <time>2019-01-20T12:33:45.000Z</time>
      </trkpt>
      <trkpt lat="45.17121" lon="5.95979">
        <ele>2773</ele>
        <time>2019-01-20T12:33:46.000Z</time>
      </trkpt>
      <trkpt lat="45.17121" lon="5.95979">
        <ele>2773</ele>
        <time>2019-01-20T12:33:47.000Z</time>
      </trkpt>
      <trkpt lat="45.17123" lon="5.9598">
        <ele>2774</ele>
        <time>2019-01-20T12:33:48.000Z</time>
      </trkpt>
      <trkpt lat="45.17123" lon="5.9598">
        <ele>2774</ele>
        <time>2019-01-20T12:33:49.000Z</time>
      </trkpt>
      <trkpt lat="45.17123" lon="5.9598">
        <ele>2774</ele>
        <time>2019-01-20T12:33:50.000Z</time>
      </trkpt>
      <trkpt lat="45.17123" lon="5.9598">
        <ele>2774</ele>
        <time>2019-01-20T12:33:51.000Z</time>
      </trkpt>
      <trkpt lat="45.17125" lon="5.9598">
        <ele>2774</ele>
        <time>2019-01-20T12:33:52.000Z</time>
      </trkpt>
      <trkpt lat="45.17125" lon="5.9598">
        <ele>2774</ele>
        <time>2019-01-20T12:33:53.000Z</time>
      </trkpt>
      <trkpt lat="45.17125" lon="5.9598">
        <ele>2774</ele>
        <time>2019-01-20T12:33:54.000Z</time>
      </trkpt>
      <trkpt lat="45.17126" lon="5.9598">
        <ele>2774</ele>
        <time>2019-01-20T12:33:55.000Z</time>
      </trkpt>
      <trkpt lat="45.17126" lon="5.9598">
        <ele>2775</ele>
        <time>2019-01-20T12:33:57.000Z</time>
      </trkpt>
      <trkpt lat="45.17129" lon="5.95981">
        <ele>2775</ele>
        <time>2019-01-20T12:33:58.000Z</time>
      </trkpt>
      <trkpt lat="45.17129" lon="5.95981">
        <ele>2775</ele>
        <time>2019-01-20T12:33:59.000Z</time>
      </trkpt>
      <trkpt lat="45.17129" lon="5.95981">
        <ele>2775</ele>
        <time>2019-01-20T12:34:00.000Z</time>
      </trkpt>
      <trkpt lat="45.17129" lon="5.95981">
        <ele>2776</ele>
        <time>2019-01-20T12:34:01.000Z</time>
      </trkpt>
      <trkpt lat="45.1713" lon="5.95982">
        <ele>2776</ele>
        <time>2019-01-20T12:34:02.000Z</time>
      </trkpt>
      <trkpt lat="45.1713" lon="5.95982">
        <ele>2776</ele>
        <time>2019-01-20T12:34:03.000Z</time>
      </trkpt>
      <trkpt lat="45.1713" lon="5.95982">
        <ele>2777</ele>
        <time>2019-01-20T12:34:04.000Z</time>
      </trkpt>
      <trkpt lat="45.1713" lon="5.95982">
        <ele>2777</ele>
        <time>2019-01-20T12:34:05.000Z</time>
      </trkpt>
      <trkpt lat="45.1713" lon="5.95982">
        <ele>2777</ele>
        <time>2019-01-20T12:34:06.000Z</time>
      </trkpt>
      <trkpt lat="45.1713" lon="5.95982">
        <ele>2777</ele>
        <time>2019-01-20T12:34:07.000Z</time>
      </trkpt>
      <trkpt lat="45.1713" lon="5.95982">
        <ele>2777</ele>
        <time>2019-01-20T12:34:08.000Z</time>
      </trkpt>
      <trkpt lat="45.1713" lon="5.95982">
        <ele>2777</ele>
        <time>2019-01-20T12:34:09.000Z</time>
      </trkpt>
      <trkpt lat="45.1713" lon="5.95982">
        <ele>2777</ele>
        <time>2019-01-20T12:34:10.000Z</time>
      </trkpt>
      <trkpt lat="45.1713" lon="5.95982">
        <ele>2777</ele>
        <time>2019-01-20T12:34:11.000Z</time>
      </trkpt>
      <trkpt lat="45.1713" lon="5.95982">
        <ele>2777</ele>
        <time>2019-01-20T12:34:12.000Z</time>
      </trkpt>
      <trkpt lat="45.1713" lon="5.95982">
        <ele>2777</ele>
        <time>2019-01-20T12:34:13.000Z</time>
      </trkpt>
      <trkpt lat="45.1713" lon="5.95982">
        <ele>2777</ele>
        <time>2019-01-20T12:34:14.000Z</time>
      </trkpt>
      <trkpt lat="45.1713" lon="5.95982">
        <ele>2777</ele>
        <time>2019-01-20T12:34:16.000Z</time>
      </trkpt>
      <trkpt lat="45.1713" lon="5.95982">
        <ele>2776</ele>
        <time>2019-01-20T12:34:17.000Z</time>
      </trkpt>
      <trkpt lat="45.1713" lon="5.95982">
        <ele>2776</ele>
        <time>2019-01-20T12:34:18.000Z</time>
      </trkpt>
      <trkpt lat="45.1713" lon="5.95982">
        <ele>2776</ele>
        <time>2019-01-20T12:34:19.000Z</time>
      </trkpt>
      <trkpt lat="45.1713" lon="5.95982">
        <ele>2776</ele>
        <time>2019-01-20T12:34:20.000Z</time>
      </trkpt>
      <trkpt lat="45.1713" lon="5.95982">
        <ele>2777</ele>
        <time>2019-01-20T12:34:21.000Z</time>
      </trkpt>
      <trkpt lat="45.1713" lon="5.95982">
        <ele>2777</ele>
        <time>2019-01-20T12:34:22.000Z</time>
      </trkpt>
      <trkpt lat="45.17132" lon="5.95982">
        <ele>2777</ele>
        <time>2019-01-20T12:34:23.000Z</time>
      </trkpt>
      <trkpt lat="45.17132" lon="5.95982">
        <ele>2777</ele>
        <time>2019-01-20T12:34:24.000Z</time>
      </trkpt>
      <trkpt lat="45.17132" lon="5.95982">
        <ele>2777</ele>
        <time>2019-01-20T12:34:25.000Z</time>
      </trkpt>
      <trkpt lat="45.17135" lon="5.95983">
        <ele>2778</ele>
        <time>2019-01-20T12:34:26.000Z</time>
      </trkpt>
      <trkpt lat="45.17135" lon="5.95983">
        <ele>2778</ele>
        <time>2019-01-20T12:34:27.000Z</time>
      </trkpt>
      <trkpt lat="45.17135" lon="5.95983">
        <ele>2778</ele>
        <time>2019-01-20T12:34:28.000Z</time>
      </trkpt>
      <trkpt lat="45.17137" lon="5.95984">
        <ele>2778</ele>
        <time>2019-01-20T12:34:29.000Z</time>
      </trkpt>
      <trkpt lat="45.17137" lon="5.95984">
        <ele>2778</ele>
        <time>2019-01-20T12:34:30.000Z</time>
      </trkpt>
      <trkpt lat="45.17137" lon="5.95984">
        <ele>2778</ele>
        <time>2019-01-20T12:34:31.000Z</time>
      </trkpt>
      <trkpt lat="45.17139" lon="5.95985">
        <ele>2778</ele>
        <time>2019-01-20T12:34:32.000Z</time>
      </trkpt>
      <trkpt lat="45.17139" lon="5.95985">
        <ele>2778</ele>
        <time>2019-01-20T12:34:33.000Z</time>
      </trkpt>
      <trkpt lat="45.17141" lon="5.95985">
        <ele>2779</ele>
        <time>2019-01-20T12:34:35.000Z</time>
      </trkpt>
      <trkpt lat="45.17141" lon="5.95985">
        <ele>2779</ele>
        <time>2019-01-20T12:34:36.000Z</time>
      </trkpt>
      <trkpt lat="45.17141" lon="5.95985">
        <ele>2779</ele>
        <time>2019-01-20T12:34:37.000Z</time>
      </trkpt>
      <trkpt lat="45.17143" lon="5.95985">
        <ele>2779</ele>
        <time>2019-01-20T12:34:38.000Z</time>
      </trkpt>
      <trkpt lat="45.17143" lon="5.95985">
        <ele>2779</ele>
        <time>2019-01-20T12:34:39.000Z</time>
      </trkpt>
      <trkpt lat="45.17143" lon="5.95985">
        <ele>2780</ele>
        <time>2019-01-20T12:34:40.000Z</time>
      </trkpt>
      <trkpt lat="45.17145" lon="5.95985">
        <ele>2780</ele>
        <time>2019-01-20T12:34:41.000Z</time>
      </trkpt>
      <trkpt lat="45.17145" lon="5.95985">
        <ele>2781</ele>
        <time>2019-01-20T12:34:42.000Z</time>
      </trkpt>
      <trkpt lat="45.17145" lon="5.95985">
        <ele>2781</ele>
        <time>2019-01-20T12:34:43.000Z</time>
      </trkpt>
      <trkpt lat="45.17147" lon="5.95985">
        <ele>2781</ele>
        <time>2019-01-20T12:34:44.000Z</time>
      </trkpt>
      <trkpt lat="45.17147" lon="5.95985">
        <ele>2781</ele>
        <time>2019-01-20T12:34:45.000Z</time>
      </trkpt>
      <trkpt lat="45.17147" lon="5.95985">
        <ele>2781</ele>
        <time>2019-01-20T12:34:46.000Z</time>
      </trkpt>
      <trkpt lat="45.1715" lon="5.95985">
        <ele>2782</ele>
        <time>2019-01-20T12:34:47.000Z</time>
      </trkpt>
      <trkpt lat="45.1715" lon="5.95985">
        <ele>2782</ele>
        <time>2019-01-20T12:34:48.000Z</time>
      </trkpt>
      <trkpt lat="45.1715" lon="5.95985">
        <ele>2782</ele>
        <time>2019-01-20T12:34:49.000Z</time>
      </trkpt>
      <trkpt lat="45.17152" lon="5.95985">
        <ele>2782</ele>
        <time>2019-01-20T12:34:50.000Z</time>
      </trkpt>
      <trkpt lat="45.17152" lon="5.95985">
        <ele>2783</ele>
        <time>2019-01-20T12:34:51.000Z</time>
      </trkpt>
      <trkpt lat="45.17152" lon="5.95985">
        <ele>2783</ele>
        <time>2019-01-20T12:34:52.000Z</time>
      </trkpt>
      <trkpt lat="45.17154" lon="5.95984">
        <ele>2783</ele>
        <time>2019-01-20T12:34:54.000Z</time>
      </trkpt>
      <trkpt lat="45.17154" lon="5.95984">
        <ele>2783</ele>
        <time>2019-01-20T12:34:55.000Z</time>
      </trkpt>
      <trkpt lat="45.17154" lon="5.95984">
        <ele>2783</ele>
        <time>2019-01-20T12:34:56.000Z</time>
      </trkpt>
      <trkpt lat="45.17154" lon="5.95984">
        <ele>2784</ele>
        <time>2019-01-20T12:34:57.000Z</time>
      </trkpt>
      <trkpt lat="45.17154" lon="5.95984">
        <ele>2784</ele>
        <time>2019-01-20T12:34:58.000Z</time>
      </trkpt>
      <trkpt lat="45.17154" lon="5.95984">
        <ele>2784</ele>
        <time>2019-01-20T12:34:59.000Z</time>
      </trkpt>
      <trkpt lat="45.17154" lon="5.95984">
        <ele>2784</ele>
        <time>2019-01-20T12:35:00.000Z</time>
      </trkpt>
      <trkpt lat="45.17155" lon="5.95982">
        <ele>2784</ele>
        <time>2019-01-20T12:35:01.000Z</time>
      </trkpt>
      <trkpt lat="45.17155" lon="5.95982">
        <ele>2784</ele>
        <time>2019-01-20T12:35:02.000Z</time>
      </trkpt>
      <trkpt lat="45.17155" lon="5.95982">
        <ele>2784</ele>
        <time>2019-01-20T12:35:03.000Z</time>
      </trkpt>
      <trkpt lat="45.17154" lon="5.95979">
        <ele>2784</ele>
        <time>2019-01-20T12:35:04.000Z</time>
      </trkpt>
      <trkpt lat="45.17154" lon="5.95979">
        <ele>2785</ele>
        <time>2019-01-20T12:35:05.000Z</time>
      </trkpt>
      <trkpt lat="45.17154" lon="5.95979">
        <ele>2785</ele>
        <time>2019-01-20T12:35:06.000Z</time>
      </trkpt>
      <trkpt lat="45.17153" lon="5.95977">
        <ele>2785</ele>
        <time>2019-01-20T12:35:07.000Z</time>
      </trkpt>
      <trkpt lat="45.17153" lon="5.95977">
        <ele>2785</ele>
        <time>2019-01-20T12:35:08.000Z</time>
      </trkpt>
      <trkpt lat="45.17152" lon="5.95975">
        <ele>2785</ele>
        <time>2019-01-20T12:35:10.000Z</time>
      </trkpt>
      <trkpt lat="45.17152" lon="5.95975">
        <ele>2785</ele>
        <time>2019-01-20T12:35:11.000Z</time>
      </trkpt>
      <trkpt lat="45.17152" lon="5.95975">
        <ele>2786</ele>
        <time>2019-01-20T12:35:13.000Z</time>
      </trkpt>
      <trkpt lat="45.17152" lon="5.95975">
        <ele>2787</ele>
        <time>2019-01-20T12:35:14.000Z</time>
      </trkpt>
      <trkpt lat="45.17152" lon="5.95975">
        <ele>2787</ele>
        <time>2019-01-20T12:35:15.000Z</time>
      </trkpt>
      <trkpt lat="45.17152" lon="5.95972">
        <ele>2787</ele>
        <time>2019-01-20T12:35:16.000Z</time>
      </trkpt>
      <trkpt lat="45.17152" lon="5.95972">
        <ele>2787</ele>
        <time>2019-01-20T12:35:18.000Z</time>
      </trkpt>
      <trkpt lat="45.17154" lon="5.95972">
        <ele>2787</ele>
        <time>2019-01-20T12:35:19.000Z</time>
      </trkpt>
      <trkpt lat="45.17154" lon="5.95972">
        <ele>2788</ele>
        <time>2019-01-20T12:35:20.000Z</time>
      </trkpt>
      <trkpt lat="45.17154" lon="5.95972">
        <ele>2788</ele>
        <time>2019-01-20T12:35:21.000Z</time>
      </trkpt>
      <trkpt lat="45.17157" lon="5.95972">
        <ele>2788</ele>
        <time>2019-01-20T12:35:22.000Z</time>
      </trkpt>
      <trkpt lat="45.17157" lon="5.95972">
        <ele>2788</ele>
        <time>2019-01-20T12:35:23.000Z</time>
      </trkpt>
      <trkpt lat="45.17157" lon="5.95972">
        <ele>2788</ele>
        <time>2019-01-20T12:35:24.000Z</time>
      </trkpt>
      <trkpt lat="45.17157" lon="5.95972">
        <ele>2788</ele>
        <time>2019-01-20T12:35:25.000Z</time>
      </trkpt>
      <trkpt lat="45.17157" lon="5.95972">
        <ele>2788</ele>
        <time>2019-01-20T12:35:26.000Z</time>
      </trkpt>
      <trkpt lat="45.17157" lon="5.95969">
        <ele>2788</ele>
        <time>2019-01-20T12:35:27.000Z</time>
      </trkpt>
      <trkpt lat="45.17157" lon="5.95969">
        <ele>2788</ele>
        <time>2019-01-20T12:35:28.000Z</time>
      </trkpt>
      <trkpt lat="45.17155" lon="5.95967">
        <ele>2789</ele>
        <time>2019-01-20T12:35:29.000Z</time>
      </trkpt>
      <trkpt lat="45.17155" lon="5.95967">
        <ele>2789</ele>
        <time>2019-01-20T12:35:30.000Z</time>
      </trkpt>
      <trkpt lat="45.17154" lon="5.95965">
        <ele>2789</ele>
        <time>2019-01-20T12:35:31.000Z</time>
      </trkpt>
      <trkpt lat="45.17154" lon="5.95965">
        <ele>2789.6</ele>
        <time>2019-01-20T12:35:32.000Z</time>
      </trkpt>
      <trkpt lat="45.17153" lon="5.95963">
        <ele>2790</ele>
        <time>2019-01-20T12:35:33.000Z</time>
      </trkpt>
      <trkpt lat="45.17153" lon="5.95963">
        <ele>2790</ele>
        <time>2019-01-20T12:35:34.000Z</time>
      </trkpt>
      <trkpt lat="45.17151" lon="5.95961">
        <ele>2790</ele>
        <time>2019-01-20T12:35:35.000Z</time>
      </trkpt>
      <trkpt lat="45.17151" lon="5.95961">
        <ele>2790</ele>
        <time>2019-01-20T12:35:36.000Z</time>
      </trkpt>
      <trkpt lat="45.17151" lon="5.95961">
        <ele>2791</ele>
        <time>2019-01-20T12:35:37.000Z</time>
      </trkpt>
      <trkpt lat="45.1715" lon="5.95957">
        <ele>2791</ele>
        <time>2019-01-20T12:35:38.000Z</time>
      </trkpt>
      <trkpt lat="45.1715" lon="5.95957">
        <ele>2792</ele>
        <time>2019-01-20T12:35:39.000Z</time>
      </trkpt>
      <trkpt lat="45.1715" lon="5.95957">
        <ele>2792</ele>
        <time>2019-01-20T12:35:40.000Z</time>
      </trkpt>
      <trkpt lat="45.1715" lon="5.95957">
        <ele>2792</ele>
        <time>2019-01-20T12:35:41.000Z</time>
      </trkpt>
      <trkpt lat="45.1715" lon="5.95957">
        <ele>2792</ele>
        <time>2019-01-20T12:35:42.000Z</time>
      </trkpt>
      <trkpt lat="45.17152" lon="5.95956">
        <ele>2792</ele>
        <time>2019-01-20T12:35:43.000Z</time>
      </trkpt>
      <trkpt lat="45.17152" lon="5.95956">
        <ele>2792</ele>
        <time>2019-01-20T12:35:44.000Z</time>
      </trkpt>
      <trkpt lat="45.17152" lon="5.95956">
        <ele>2792</ele>
        <time>2019-01-20T12:35:45.000Z</time>
      </trkpt>
      <trkpt lat="45.17155" lon="5.95957">
        <ele>2792</ele>
        <time>2019-01-20T12:35:46.000Z</time>
      </trkpt>
      <trkpt lat="45.17155" lon="5.95957">
        <ele>2792</ele>
        <time>2019-01-20T12:35:47.000Z</time>
      </trkpt>
      <trkpt lat="45.17155" lon="5.95957">
        <ele>2793</ele>
        <time>2019-01-20T12:35:48.000Z</time>
      </trkpt>
      <trkpt lat="45.17157" lon="5.95957">
        <ele>2793</ele>
        <time>2019-01-20T12:35:49.000Z</time>
      </trkpt>
      <trkpt lat="45.17157" lon="5.95957">
        <ele>2793</ele>
        <time>2019-01-20T12:35:51.000Z</time>
      </trkpt>
      <trkpt lat="45.17159" lon="5.95957">
        <ele>2793</ele>
        <time>2019-01-20T12:35:52.000Z</time>
      </trkpt>
      <trkpt lat="45.17159" lon="5.95957">
        <ele>2793</ele>
        <time>2019-01-20T12:35:53.000Z</time>
      </trkpt>
      <trkpt lat="45.17159" lon="5.95957">
        <ele>2794</ele>
        <time>2019-01-20T12:35:54.000Z</time>
      </trkpt>
      <trkpt lat="45.17161" lon="5.95956">
        <ele>2795</ele>
        <time>2019-01-20T12:35:55.000Z</time>
      </trkpt>
      <trkpt lat="45.17161" lon="5.95956">
        <ele>2795</ele>
        <time>2019-01-20T12:35:56.000Z</time>
      </trkpt>
      <trkpt lat="45.17161" lon="5.95956">
        <ele>2795</ele>
        <time>2019-01-20T12:35:57.000Z</time>
      </trkpt>
      <trkpt lat="45.17161" lon="5.95956">
        <ele>2794</ele>
        <time>2019-01-20T12:35:58.000Z</time>
      </trkpt>
      <trkpt lat="45.17161" lon="5.95956">
        <ele>2794</ele>
        <time>2019-01-20T12:35:59.000Z</time>
      </trkpt>
      <trkpt lat="45.17161" lon="5.95956">
        <ele>2795</ele>
        <time>2019-01-20T12:36:00.000Z</time>
      </trkpt>
      <trkpt lat="45.17161" lon="5.95956">
        <ele>2795</ele>
        <time>2019-01-20T12:36:01.000Z</time>
      </trkpt>
      <trkpt lat="45.17161" lon="5.95956">
        <ele>2795</ele>
        <time>2019-01-20T12:36:02.000Z</time>
      </trkpt>
      <trkpt lat="45.17161" lon="5.95956">
        <ele>2795</ele>
        <time>2019-01-20T12:36:03.000Z</time>
      </trkpt>
      <trkpt lat="45.17161" lon="5.95956">
        <ele>2795</ele>
        <time>2019-01-20T12:36:04.000Z</time>
      </trkpt>
      <trkpt lat="45.17161" lon="5.95956">
        <ele>2795</ele>
        <time>2019-01-20T12:36:05.000Z</time>
      </trkpt>
      <trkpt lat="45.17163" lon="5.95955">
        <ele>2795</ele>
        <time>2019-01-20T12:36:06.000Z</time>
      </trkpt>
      <trkpt lat="45.17163" lon="5.95955">
        <ele>2795</ele>
        <time>2019-01-20T12:36:07.000Z</time>
      </trkpt>
      <trkpt lat="45.17163" lon="5.95955">
        <ele>2795</ele>
        <time>2019-01-20T12:36:08.000Z</time>
      </trkpt>
      <trkpt lat="45.17163" lon="5.95955">
        <ele>2795</ele>
        <time>2019-01-20T12:36:10.000Z</time>
      </trkpt>
      <trkpt lat="45.17163" lon="5.95955">
        <ele>2795</ele>
        <time>2019-01-20T12:36:11.000Z</time>
      </trkpt>
      <trkpt lat="45.17163" lon="5.95955">
        <ele>2795</ele>
        <time>2019-01-20T12:36:12.000Z</time>
      </trkpt>
      <trkpt lat="45.17163" lon="5.95955">
        <ele>2795</ele>
        <time>2019-01-20T12:36:13.000Z</time>
      </trkpt>
      <trkpt lat="45.17163" lon="5.95955">
        <ele>2795</ele>
        <time>2019-01-20T12:36:14.000Z</time>
      </trkpt>
      <trkpt lat="45.17163" lon="5.95955">
        <ele>2796</ele>
        <time>2019-01-20T12:36:15.000Z</time>
      </trkpt>
      <trkpt lat="45.17163" lon="5.95955">
        <ele>2796</ele>
        <time>2019-01-20T12:36:16.000Z</time>
      </trkpt>
      <trkpt lat="45.17163" lon="5.95955">
        <ele>2796</ele>
        <time>2019-01-20T12:36:17.000Z</time>
      </trkpt>
      <trkpt lat="45.17163" lon="5.95955">
        <ele>2796</ele>
        <time>2019-01-20T12:36:18.000Z</time>
      </trkpt>
      <trkpt lat="45.17163" lon="5.95955">
        <ele>2796</ele>
        <time>2019-01-20T12:36:19.000Z</time>
      </trkpt>
      <trkpt lat="45.17163" lon="5.95955">
        <ele>2796</ele>
        <time>2019-01-20T12:36:20.000Z</time>
      </trkpt>
      <trkpt lat="45.17161" lon="5.95953">
        <ele>2796</ele>
        <time>2019-01-20T12:36:21.000Z</time>
      </trkpt>
      <trkpt lat="45.17161" lon="5.95953">
        <ele>2796</ele>
        <time>2019-01-20T12:36:22.000Z</time>
      </trkpt>
      <trkpt lat="45.17161" lon="5.95953">
        <ele>2796</ele>
        <time>2019-01-20T12:36:23.000Z</time>
      </trkpt>
      <trkpt lat="45.1716" lon="5.95952">
        <ele>2796</ele>
        <time>2019-01-20T12:36:24.000Z</time>
      </trkpt>
      <trkpt lat="45.1716" lon="5.95952">
        <ele>2796</ele>
        <time>2019-01-20T12:36:25.000Z</time>
      </trkpt>
      <trkpt lat="45.1716" lon="5.95952">
        <ele>2797</ele>
        <time>2019-01-20T12:36:26.000Z</time>
      </trkpt>
      <trkpt lat="45.17158" lon="5.9595">
        <ele>2797</ele>
        <time>2019-01-20T12:36:27.000Z</time>
      </trkpt>
      <trkpt lat="45.17158" lon="5.9595">
        <ele>2798</ele>
        <time>2019-01-20T12:36:29.000Z</time>
      </trkpt>
      <trkpt lat="45.17157" lon="5.95947">
        <ele>2798</ele>
        <time>2019-01-20T12:36:30.000Z</time>
      </trkpt>
      <trkpt lat="45.17157" lon="5.95947">
        <ele>2798</ele>
        <time>2019-01-20T12:36:31.000Z</time>
      </trkpt>
      <trkpt lat="45.17157" lon="5.95947">
        <ele>2799</ele>
        <time>2019-01-20T12:36:32.000Z</time>
      </trkpt>
      <trkpt lat="45.17157" lon="5.95947">
        <ele>2799</ele>
        <time>2019-01-20T12:36:33.000Z</time>
      </trkpt>
      <trkpt lat="45.17159" lon="5.95947">
        <ele>2799</ele>
        <time>2019-01-20T12:36:34.000Z</time>
      </trkpt>
      <trkpt lat="45.17159" lon="5.95947">
        <ele>2799</ele>
        <time>2019-01-20T12:36:35.000Z</time>
      </trkpt>
      <trkpt lat="45.17159" lon="5.95947">
        <ele>2799</ele>
        <time>2019-01-20T12:36:36.000Z</time>
      </trkpt>
      <trkpt lat="45.17159" lon="5.95947">
        <ele>2799</ele>
        <time>2019-01-20T12:36:37.000Z</time>
      </trkpt>
      <trkpt lat="45.17161" lon="5.95945">
        <ele>2799</ele>
        <time>2019-01-20T12:36:38.000Z</time>
      </trkpt>
      <trkpt lat="45.17161" lon="5.95945">
        <ele>2800</ele>
        <time>2019-01-20T12:36:39.000Z</time>
      </trkpt>
      <trkpt lat="45.17161" lon="5.95945">
        <ele>2800</ele>
        <time>2019-01-20T12:36:40.000Z</time>
      </trkpt>
      <trkpt lat="45.17161" lon="5.95945">
        <ele>2800</ele>
        <time>2019-01-20T12:36:41.000Z</time>
      </trkpt>
      <trkpt lat="45.17162" lon="5.95943">
        <ele>2800</ele>
        <time>2019-01-20T12:36:42.000Z</time>
      </trkpt>
      <trkpt lat="45.17162" lon="5.95943">
        <ele>2800</ele>
        <time>2019-01-20T12:36:43.000Z</time>
      </trkpt>
      <trkpt lat="45.17162" lon="5.95943">
        <ele>2800</ele>
        <time>2019-01-20T12:36:44.000Z</time>
      </trkpt>
      <trkpt lat="45.17162" lon="5.95943">
        <ele>2800</ele>
        <time>2019-01-20T12:36:45.000Z</time>
      </trkpt>
      <trkpt lat="45.17162" lon="5.95942">
        <ele>2800</ele>
        <time>2019-01-20T12:36:46.000Z</time>
      </trkpt>
      <trkpt lat="45.17162" lon="5.95942">
        <ele>2800</ele>
        <time>2019-01-20T12:43:11.000Z</time>
      </trkpt>
      <trkpt lat="45.17166" lon="5.95946">
        <ele>2800</ele>
        <time>2019-01-20T12:43:12.000Z</time>
      </trkpt>
      <trkpt lat="45.17164" lon="5.95948">
        <ele>2800</ele>
        <time>2019-01-20T12:43:13.000Z</time>
      </trkpt>
      <trkpt lat="45.17164" lon="5.95948">
        <ele>2800</ele>
        <time>2019-01-20T12:43:14.000Z</time>
      </trkpt>
      <trkpt lat="45.17162" lon="5.95951">
        <ele>2799</ele>
        <time>2019-01-20T12:43:15.000Z</time>
      </trkpt>
      <trkpt lat="45.17162" lon="5.95957">
        <ele>2798</ele>
        <time>2019-01-20T12:43:17.000Z</time>
      </trkpt>
      <trkpt lat="45.17161" lon="5.9596">
        <ele>2796</ele>
        <time>2019-01-20T12:43:18.000Z</time>
      </trkpt>
      <trkpt lat="45.17159" lon="5.95962">
        <ele>2795</ele>
        <time>2019-01-20T12:43:19.000Z</time>
      </trkpt>
      <trkpt lat="45.17157" lon="5.95961">
        <ele>2793</ele>
        <time>2019-01-20T12:43:20.000Z</time>
      </trkpt>
      <trkpt lat="45.17155" lon="5.95962">
        <ele>2791</ele>
        <time>2019-01-20T12:43:21.000Z</time>
      </trkpt>
      <trkpt lat="45.17155" lon="5.95967">
        <ele>2789</ele>
        <time>2019-01-20T12:43:22.000Z</time>
      </trkpt>
      <trkpt lat="45.17153" lon="5.95972">
        <ele>2787</ele>
        <time>2019-01-20T12:43:23.000Z</time>
      </trkpt>
      <trkpt lat="45.17148" lon="5.95975">
        <ele>2784</ele>
        <time>2019-01-20T12:43:24.000Z</time>
      </trkpt>
      <trkpt lat="45.17142" lon="5.95976">
        <ele>2782</ele>
        <time>2019-01-20T12:43:25.000Z</time>
      </trkpt>
      <trkpt lat="45.17135" lon="5.95976">
        <ele>2778</ele>
        <time>2019-01-20T12:43:26.000Z</time>
      </trkpt>
      <trkpt lat="45.17125" lon="5.95971">
        <ele>2778</ele>
        <time>2019-01-20T12:43:27.000Z</time>
      </trkpt>
      <trkpt lat="45.17123" lon="5.95969">
        <ele>2775</ele>
        <time>2019-01-20T12:43:28.000Z</time>
      </trkpt>
      <trkpt lat="45.17119" lon="5.95964">
        <ele>2772</ele>
        <time>2019-01-20T12:43:29.000Z</time>
      </trkpt>
      <trkpt lat="45.17115" lon="5.95959">
        <ele>2772</ele>
        <time>2019-01-20T12:43:30.000Z</time>
      </trkpt>
      <trkpt lat="45.17114" lon="5.95957">
        <ele>2770</ele>
        <time>2019-01-20T12:43:31.000Z</time>
      </trkpt>
      <trkpt lat="45.17113" lon="5.95952">
        <ele>2769</ele>
        <time>2019-01-20T12:43:32.000Z</time>
      </trkpt>
      <trkpt lat="45.17113" lon="5.95947">
        <ele>2768</ele>
        <time>2019-01-20T12:43:33.000Z</time>
      </trkpt>
      <trkpt lat="45.17113" lon="5.95942">
        <ele>2766</ele>
        <time>2019-01-20T12:43:34.000Z</time>
      </trkpt>
      <trkpt lat="45.17115" lon="5.95938">
        <ele>2765</ele>
        <time>2019-01-20T12:43:35.000Z</time>
      </trkpt>
      <trkpt lat="45.17119" lon="5.95934">
        <ele>2764</ele>
        <time>2019-01-20T12:43:36.000Z</time>
      </trkpt>
      <trkpt lat="45.17123" lon="5.95931">
        <ele>2763</ele>
        <time>2019-01-20T12:43:37.000Z</time>
      </trkpt>
      <trkpt lat="45.1713" lon="5.95924">
        <ele>2763</ele>
        <time>2019-01-20T12:43:38.000Z</time>
      </trkpt>
      <trkpt lat="45.17131" lon="5.95922">
        <ele>2761.6</ele>
        <time>2019-01-20T12:43:39.000Z</time>
      </trkpt>
      <trkpt lat="45.17133" lon="5.95915">
        <ele>2760</ele>
        <time>2019-01-20T12:43:40.000Z</time>
      </trkpt>
      <trkpt lat="45.17134" lon="5.95907">
        <ele>2759</ele>
        <time>2019-01-20T12:43:41.000Z</time>
      </trkpt>
      <trkpt lat="45.17135" lon="5.95901">
        <ele>2758</ele>
        <time>2019-01-20T12:43:42.000Z</time>
      </trkpt>
      <trkpt lat="45.17135" lon="5.95895">
        <ele>2758</ele>
        <time>2019-01-20T12:43:43.000Z</time>
      </trkpt>
      <trkpt lat="45.17135" lon="5.9589">
        <ele>2756</ele>
        <time>2019-01-20T12:43:44.000Z</time>
      </trkpt>
      <trkpt lat="45.17135" lon="5.95884">
        <ele>2754</ele>
        <time>2019-01-20T12:43:45.000Z</time>
      </trkpt>
      <trkpt lat="45.17135" lon="5.95878">
        <ele>2754</ele>
        <time>2019-01-20T12:43:46.000Z</time>
      </trkpt>
      <trkpt lat="45.17135" lon="5.95873">
        <ele>2754</ele>
        <time>2019-01-20T12:43:47.000Z</time>
      </trkpt>
      <trkpt lat="45.17136" lon="5.95867">
        <ele>2752</ele>
        <time>2019-01-20T12:43:48.000Z</time>
      </trkpt>
      <trkpt lat="45.17136" lon="5.95858">
        <ele>2752</ele>
        <time>2019-01-20T12:43:49.000Z</time>
      </trkpt>
      <trkpt lat="45.17136" lon="5.95855">
        <ele>2750.4</ele>
        <time>2019-01-20T12:43:50.000Z</time>
      </trkpt>
      <trkpt lat="45.17136" lon="5.95848">
        <ele>2750.4</ele>
        <time>2019-01-20T12:43:51.000Z</time>
      </trkpt>
      <trkpt lat="45.17136" lon="5.95845">
        <ele>2750</ele>
        <time>2019-01-20T12:43:52.000Z</time>
      </trkpt>
      <trkpt lat="45.17136" lon="5.95842">
        <ele>2749</ele>
        <time>2019-01-20T12:43:53.000Z</time>
      </trkpt>
      <trkpt lat="45.17136" lon="5.95838">
        <ele>2749</ele>
        <time>2019-01-20T12:43:54.000Z</time>
      </trkpt>
      <trkpt lat="45.17135" lon="5.95835">
        <ele>2748</ele>
        <time>2019-01-20T12:43:55.000Z</time>
      </trkpt>
      <trkpt lat="45.17135" lon="5.95829">
        <ele>2748</ele>
        <time>2019-01-20T12:43:56.000Z</time>
      </trkpt>
      <trkpt lat="45.17134" lon="5.95827">
        <ele>2747</ele>
        <time>2019-01-20T12:43:57.000Z</time>
      </trkpt>
      <trkpt lat="45.17134" lon="5.95825">
        <ele>2746</ele>
        <time>2019-01-20T12:43:58.000Z</time>
      </trkpt>
      <trkpt lat="45.17133" lon="5.95816">
        <ele>2746</ele>
        <time>2019-01-20T12:43:59.000Z</time>
      </trkpt>
      <trkpt lat="45.17132" lon="5.95807">
        <ele>2745</ele>
        <time>2019-01-20T12:44:00.000Z</time>
      </trkpt>
      <trkpt lat="45.17132" lon="5.95807">
        <ele>2745</ele>
        <time>2019-01-20T12:44:01.000Z</time>
      </trkpt>
      <trkpt lat="45.1713" lon="5.95797">
        <ele>2744</ele>
        <time>2019-01-20T12:44:02.000Z</time>
      </trkpt>
      <trkpt lat="45.17128" lon="5.95793">
        <ele>2742</ele>
        <time>2019-01-20T12:44:03.000Z</time>
      </trkpt>
      <trkpt lat="45.17127" lon="5.95792">
        <ele>2742</ele>
        <time>2019-01-20T12:44:04.000Z</time>
      </trkpt>
      <trkpt lat="45.17127" lon="5.95792">
        <ele>2742</ele>
        <time>2019-01-20T12:44:05.000Z</time>
      </trkpt>
      <trkpt lat="45.17125" lon="5.9579">
        <ele>2742</ele>
        <time>2019-01-20T12:44:06.000Z</time>
      </trkpt>
      <trkpt lat="45.17125" lon="5.9579">
        <ele>2742</ele>
        <time>2019-01-20T12:44:07.000Z</time>
      </trkpt>
      <trkpt lat="45.17123" lon="5.95788">
        <ele>2742</ele>
        <time>2019-01-20T12:44:09.000Z</time>
      </trkpt>
      <trkpt lat="45.17123" lon="5.95788">
        <ele>2742</ele>
        <time>2019-01-20T12:44:10.000Z</time>
      </trkpt>
      <trkpt lat="45.17123" lon="5.95788">
        <ele>2742</ele>
        <time>2019-01-20T12:44:11.000Z</time>
      </trkpt>
      <trkpt lat="45.17123" lon="5.95785">
        <ele>2742</ele>
        <time>2019-01-20T12:44:12.000Z</time>
      </trkpt>
      <trkpt lat="45.17123" lon="5.95785">
        <ele>2742</ele>
        <time>2019-01-20T12:44:13.000Z</time>
      </trkpt>
      <trkpt lat="45.17123" lon="5.95785">
        <ele>2742</ele>
        <time>2019-01-20T12:44:14.000Z</time>
      </trkpt>
      <trkpt lat="45.17123" lon="5.95785">
        <ele>2742</ele>
        <time>2019-01-20T12:44:15.000Z</time>
      </trkpt>
      <trkpt lat="45.17124" lon="5.95782">
        <ele>2742</ele>
        <time>2019-01-20T12:44:16.000Z</time>
      </trkpt>
      <trkpt lat="45.17124" lon="5.95782">
        <ele>2741</ele>
        <time>2019-01-20T12:44:17.000Z</time>
      </trkpt>
      <trkpt lat="45.17124" lon="5.95782">
        <ele>2741</ele>
        <time>2019-01-20T12:44:18.000Z</time>
      </trkpt>
      <trkpt lat="45.17124" lon="5.95782">
        <ele>2741</ele>
        <time>2019-01-20T12:44:19.000Z</time>
      </trkpt>
      <trkpt lat="45.17124" lon="5.95782">
        <ele>2741</ele>
        <time>2019-01-20T12:44:20.000Z</time>
      </trkpt>
      <trkpt lat="45.17124" lon="5.95782">
        <ele>2741</ele>
        <time>2019-01-20T12:44:21.000Z</time>
      </trkpt>
      <trkpt lat="45.17122" lon="5.95782">
        <ele>2741</ele>
        <time>2019-01-20T12:44:23.000Z</time>
      </trkpt>
      <trkpt lat="45.17122" lon="5.95782">
        <ele>2741</ele>
        <time>2019-01-20T12:44:24.000Z</time>
      </trkpt>
      <trkpt lat="45.17122" lon="5.95782">
        <ele>2741</ele>
        <time>2019-01-20T12:44:25.000Z</time>
      </trkpt>
      <trkpt lat="45.17122" lon="5.95782">
        <ele>2740</ele>
        <time>2019-01-20T12:44:26.000Z</time>
      </trkpt>
      <trkpt lat="45.1712" lon="5.95783">
        <ele>2740</ele>
        <time>2019-01-20T12:44:28.000Z</time>
      </trkpt>
      <trkpt lat="45.1712" lon="5.95783">
        <ele>2739</ele>
        <time>2019-01-20T12:44:29.000Z</time>
      </trkpt>
      <trkpt lat="45.17118" lon="5.95778">
        <ele>2738</ele>
        <time>2019-01-20T12:44:30.000Z</time>
      </trkpt>
      <trkpt lat="45.17119" lon="5.95776">
        <ele>2738</ele>
        <time>2019-01-20T12:44:31.000Z</time>
      </trkpt>
      <trkpt lat="45.17118" lon="5.95772">
        <ele>2737</ele>
        <time>2019-01-20T12:44:32.000Z</time>
      </trkpt>
      <trkpt lat="45.17117" lon="5.95768">
        <ele>2735</ele>
        <time>2019-01-20T12:44:33.000Z</time>
      </trkpt>
      <trkpt lat="45.17114" lon="5.95764">
        <ele>2732</ele>
        <time>2019-01-20T12:44:34.000Z</time>
      </trkpt>
      <trkpt lat="45.17112" lon="5.95764">
        <ele>2729</ele>
        <time>2019-01-20T12:44:35.000Z</time>
      </trkpt>
      <trkpt lat="45.17112" lon="5.95764">
        <ele>2727</ele>
        <time>2019-01-20T12:44:36.000Z</time>
      </trkpt>
      <trkpt lat="45.17107" lon="5.95761">
        <ele>2725</ele>
        <time>2019-01-20T12:44:37.000Z</time>
      </trkpt>
      <trkpt lat="45.17106" lon="5.9576">
        <ele>2722</ele>
        <time>2019-01-20T12:44:38.000Z</time>
      </trkpt>
      <trkpt lat="45.17106" lon="5.95758">
        <ele>2720</ele>
        <time>2019-01-20T12:44:39.000Z</time>
      </trkpt>
      <trkpt lat="45.17102" lon="5.95752">
        <ele>2716</ele>
        <time>2019-01-20T12:44:40.000Z</time>
      </trkpt>
      <trkpt lat="45.17097" lon="5.95746">
        <ele>2716</ele>
        <time>2019-01-20T12:44:41.000Z</time>
      </trkpt>
      <trkpt lat="45.17093" lon="5.9574">
        <ele>2711.6</ele>
        <time>2019-01-20T12:44:42.000Z</time>
      </trkpt>
      <trkpt lat="45.17087" lon="5.95732">
        <ele>2706</ele>
        <time>2019-01-20T12:44:43.000Z</time>
      </trkpt>
      <trkpt lat="45.17086" lon="5.95731">
        <ele>2704</ele>
        <time>2019-01-20T12:44:44.000Z</time>
      </trkpt>
      <trkpt lat="45.17084" lon="5.95729">
        <ele>2701</ele>
        <time>2019-01-20T12:44:45.000Z</time>
      </trkpt>
      <trkpt lat="45.17077" lon="5.95722">
        <ele>2701</ele>
        <time>2019-01-20T12:44:46.000Z</time>
      </trkpt>
      <trkpt lat="45.17075" lon="5.95721">
        <ele>2698.4</ele>
        <time>2019-01-20T12:44:47.000Z</time>
      </trkpt>
      <trkpt lat="45.17074" lon="5.9572">
        <ele>2697</ele>
        <time>2019-01-20T12:44:48.000Z</time>
      </trkpt>
      <trkpt lat="45.17066" lon="5.95716">
        <ele>2691</ele>
        <time>2019-01-20T12:44:49.000Z</time>
      </trkpt>
      <trkpt lat="45.17064" lon="5.95716">
        <ele>2686</ele>
        <time>2019-01-20T12:44:50.000Z</time>
      </trkpt>
      <trkpt lat="45.17061" lon="5.95716">
        <ele>2684</ele>
        <time>2019-01-20T12:44:51.000Z</time>
      </trkpt>
      <trkpt lat="45.17054" lon="5.95715">
        <ele>2681</ele>
        <time>2019-01-20T12:44:52.000Z</time>
      </trkpt>
      <trkpt lat="45.17044" lon="5.95721">
        <ele>2676.4</ele>
        <time>2019-01-20T12:44:54.000Z</time>
      </trkpt>
      <trkpt lat="45.17044" lon="5.95721">
        <ele>2674</ele>
        <time>2019-01-20T12:44:55.000Z</time>
      </trkpt>
      <trkpt lat="45.17044" lon="5.95721">
        <ele>2673</ele>
        <time>2019-01-20T12:44:56.000Z</time>
      </trkpt>
      <trkpt lat="45.17044" lon="5.95721">
        <ele>2672</ele>
        <time>2019-01-20T12:44:57.000Z</time>
      </trkpt>
      <trkpt lat="45.17044" lon="5.95721">
        <ele>2672</ele>
        <time>2019-01-20T12:44:58.000Z</time>
      </trkpt>
      <trkpt lat="45.17044" lon="5.95721">
        <ele>2672</ele>
        <time>2019-01-20T12:44:59.000Z</time>
      </trkpt>
      <trkpt lat="45.17044" lon="5.95721">
        <ele>2672</ele>
        <time>2019-01-20T12:45:00.000Z</time>
      </trkpt>
      <trkpt lat="45.17044" lon="5.95721">
        <ele>2672</ele>
        <time>2019-01-20T12:45:01.000Z</time>
      </trkpt>
      <trkpt lat="45.17044" lon="5.95721">
        <ele>2672</ele>
        <time>2019-01-20T12:45:02.000Z</time>
      </trkpt>
      <trkpt lat="45.17044" lon="5.95721">
        <ele>2672</ele>
        <time>2019-01-20T12:45:03.000Z</time>
      </trkpt>
      <trkpt lat="45.17038" lon="5.95731">
        <ele>2671</ele>
        <time>2019-01-20T12:45:04.000Z</time>
      </trkpt>
      <trkpt lat="45.17038" lon="5.95731">
        <ele>2671</ele>
        <time>2019-01-20T12:45:06.000Z</time>
      </trkpt>
      <trkpt lat="45.17035" lon="5.95729">
        <ele>2671</ele>
        <time>2019-01-20T12:45:07.000Z</time>
      </trkpt>
      <trkpt lat="45.17032" lon="5.95727">
        <ele>2668</ele>
        <time>2019-01-20T12:45:08.000Z</time>
      </trkpt>
      <trkpt lat="45.17029" lon="5.95725">
        <ele>2665</ele>
        <time>2019-01-20T12:45:09.000Z</time>
      </trkpt>
      <trkpt lat="45.17027" lon="5.95722">
        <ele>2662</ele>
        <time>2019-01-20T12:45:10.000Z</time>
      </trkpt>
      <trkpt lat="45.17024" lon="5.95719">
        <ele>2657</ele>
        <time>2019-01-20T12:45:11.000Z</time>
      </trkpt>
      <trkpt lat="45.17011" lon="5.95711">
        <ele>2654</ele>
        <time>2019-01-20T12:45:12.000Z</time>
      </trkpt>
      <trkpt lat="45.17004" lon="5.95707">
        <ele>2654</ele>
        <time>2019-01-20T12:45:13.000Z</time>
      </trkpt>
      <trkpt lat="45.16997" lon="5.95704">
        <ele>2644.4</ele>
        <time>2019-01-20T12:45:14.000Z</time>
      </trkpt>
      <trkpt lat="45.16988" lon="5.957">
        <ele>2636</ele>
        <time>2019-01-20T12:45:15.000Z</time>
      </trkpt>
      <trkpt lat="45.1698" lon="5.95693">
        <ele>2631</ele>
        <time>2019-01-20T12:45:16.000Z</time>
      </trkpt>
      <trkpt lat="45.16971" lon="5.95683">
        <ele>2628</ele>
        <time>2019-01-20T12:45:17.000Z</time>
      </trkpt>
      <trkpt lat="45.1696" lon="5.95668">
        <ele>2628</ele>
        <time>2019-01-20T12:45:18.000Z</time>
      </trkpt>
      <trkpt lat="45.16956" lon="5.95664">
        <ele>2628</ele>
        <time>2019-01-20T12:45:19.000Z</time>
      </trkpt>
      <trkpt lat="45.16956" lon="5.95664">
        <ele>2627</ele>
        <time>2019-01-20T12:45:20.000Z</time>
      </trkpt>
      <trkpt lat="45.16941" lon="5.95665">
        <ele>2619</ele>
        <time>2019-01-20T12:45:21.000Z</time>
      </trkpt>
      <trkpt lat="45.16934" lon="5.95668">
        <ele>2616</ele>
        <time>2019-01-20T12:45:22.000Z</time>
      </trkpt>
      <trkpt lat="45.16926" lon="5.95672">
        <ele>2616</ele>
        <time>2019-01-20T12:45:23.000Z</time>
      </trkpt>
      <trkpt lat="45.16919" lon="5.95675">
        <ele>2614</ele>
        <time>2019-01-20T12:45:24.000Z</time>
      </trkpt>
      <trkpt lat="45.16912" lon="5.95675">
        <ele>2610</ele>
        <time>2019-01-20T12:45:25.000Z</time>
      </trkpt>
      <trkpt lat="45.169" lon="5.95667">
        <ele>2608</ele>
        <time>2019-01-20T12:45:26.000Z</time>
      </trkpt>
      <trkpt lat="45.1689" lon="5.95662">
        <ele>2604</ele>
        <time>2019-01-20T12:45:27.000Z</time>
      </trkpt>
      <trkpt lat="45.1689" lon="5.95662">
        <ele>2601</ele>
        <time>2019-01-20T12:45:28.000Z</time>
      </trkpt>
      <trkpt lat="45.16877" lon="5.95667">
        <ele>2599</ele>
        <time>2019-01-20T12:45:29.000Z</time>
      </trkpt>
      <trkpt lat="45.16874" lon="5.95669">
        <ele>2596</ele>
        <time>2019-01-20T12:45:30.000Z</time>
      </trkpt>
      <trkpt lat="45.16864" lon="5.95677">
        <ele>2595</ele>
        <time>2019-01-20T12:45:31.000Z</time>
      </trkpt>
      <trkpt lat="45.16858" lon="5.95681">
        <ele>2593</ele>
        <time>2019-01-20T12:45:33.000Z</time>
      </trkpt>
      <trkpt lat="45.16856" lon="5.95678">
        <ele>2589</ele>
        <time>2019-01-20T12:45:34.000Z</time>
      </trkpt>
      <trkpt lat="45.16853" lon="5.95676">
        <ele>2584</ele>
        <time>2019-01-20T12:45:35.000Z</time>
      </trkpt>
      <trkpt lat="45.16846" lon="5.95667">
        <ele>2583</ele>
        <time>2019-01-20T12:45:36.000Z</time>
      </trkpt>
      <trkpt lat="45.16844" lon="5.95664">
        <ele>2580</ele>
        <time>2019-01-20T12:45:37.000Z</time>
      </trkpt>
      <trkpt lat="45.16841" lon="5.95658">
        <ele>2576</ele>
        <time>2019-01-20T12:45:38.000Z</time>
      </trkpt>
      <trkpt lat="45.16831" lon="5.95646">
        <ele>2572</ele>
        <time>2019-01-20T12:45:39.000Z</time>
      </trkpt>
      <trkpt lat="45.16831" lon="5.95646">
        <ele>2567</ele>
        <time>2019-01-20T12:45:41.000Z</time>
      </trkpt>
      <trkpt lat="45.1682" lon="5.95649">
        <ele>2560</ele>
        <time>2019-01-20T12:45:42.000Z</time>
      </trkpt>
      <trkpt lat="45.1682" lon="5.95649">
        <ele>2557.6</ele>
        <time>2019-01-20T12:45:44.000Z</time>
      </trkpt>
      <trkpt lat="45.16808" lon="5.95646">
        <ele>2557</ele>
        <time>2019-01-20T12:45:45.000Z</time>
      </trkpt>
      <trkpt lat="45.16808" lon="5.95646">
        <ele>2556</ele>
        <time>2019-01-20T12:45:46.000Z</time>
      </trkpt>
      <trkpt lat="45.16799" lon="5.95647">
        <ele>2553</ele>
        <time>2019-01-20T12:45:47.000Z</time>
      </trkpt>
      <trkpt lat="45.16799" lon="5.95647">
        <ele>2550</ele>
        <time>2019-01-20T12:45:48.000Z</time>
      </trkpt>
      <trkpt lat="45.16799" lon="5.95647">
        <ele>2548</ele>
        <time>2019-01-20T12:45:49.000Z</time>
      </trkpt>
      <trkpt lat="45.16799" lon="5.95647">
        <ele>2547</ele>
        <time>2019-01-20T12:45:50.000Z</time>
      </trkpt>
      <trkpt lat="45.16791" lon="5.95644">
        <ele>2546</ele>
        <time>2019-01-20T12:45:51.000Z</time>
      </trkpt>
      <trkpt lat="45.16791" lon="5.95644">
        <ele>2546</ele>
        <time>2019-01-20T12:45:52.000Z</time>
      </trkpt>
      <trkpt lat="45.16791" lon="5.95644">
        <ele>2546</ele>
        <time>2019-01-20T12:45:53.000Z</time>
      </trkpt>
      <trkpt lat="45.16791" lon="5.95644">
        <ele>2546</ele>
        <time>2019-01-20T12:45:54.000Z</time>
      </trkpt>
      <trkpt lat="45.16791" lon="5.95644">
        <ele>2543</ele>
        <time>2019-01-20T12:45:55.000Z</time>
      </trkpt>
      <trkpt lat="45.16791" lon="5.95626">
        <ele>2540.4</ele>
        <time>2019-01-20T12:45:57.000Z</time>
      </trkpt>
      <trkpt lat="45.16791" lon="5.95626">
        <ele>2539</ele>
        <time>2019-01-20T12:45:58.000Z</time>
      </trkpt>
      <trkpt lat="45.16791" lon="5.95626">
        <ele>2539</ele>
        <time>2019-01-20T12:45:59.000Z</time>
      </trkpt>
      <trkpt lat="45.16791" lon="5.95626">
        <ele>2538</ele>
        <time>2019-01-20T12:46:00.000Z</time>
      </trkpt>
      <trkpt lat="45.16787" lon="5.95628">
        <ele>2536</ele>
        <time>2019-01-20T12:46:01.000Z</time>
      </trkpt>
      <trkpt lat="45.16783" lon="5.95631">
        <ele>2536</ele>
        <time>2019-01-20T12:46:02.000Z</time>
      </trkpt>
      <trkpt lat="45.16779" lon="5.95633">
        <ele>2533</ele>
        <time>2019-01-20T12:46:03.000Z</time>
      </trkpt>
      <trkpt lat="45.16771" lon="5.95643">
        <ele>2531</ele>
        <time>2019-01-20T12:46:04.000Z</time>
      </trkpt>
      <trkpt lat="45.16771" lon="5.95643">
        <ele>2529</ele>
        <time>2019-01-20T12:46:05.000Z</time>
      </trkpt>
      <trkpt lat="45.16771" lon="5.95643">
        <ele>2528</ele>
        <time>2019-01-20T12:46:06.000Z</time>
      </trkpt>
      <trkpt lat="45.16766" lon="5.95637">
        <ele>2527</ele>
        <time>2019-01-20T12:46:07.000Z</time>
      </trkpt>
      <trkpt lat="45.16761" lon="5.95632">
        <ele>2527</ele>
        <time>2019-01-20T12:46:08.000Z</time>
      </trkpt>
      <trkpt lat="45.16756" lon="5.95626">
        <ele>2521</ele>
        <time>2019-01-20T12:46:09.000Z</time>
      </trkpt>
      <trkpt lat="45.16746" lon="5.9562">
        <ele>2515</ele>
        <time>2019-01-20T12:46:10.000Z</time>
      </trkpt>
      <trkpt lat="45.16742" lon="5.9562">
        <ele>2512</ele>
        <time>2019-01-20T12:46:11.000Z</time>
      </trkpt>
      <trkpt lat="45.16734" lon="5.9562">
        <ele>2510</ele>
        <time>2019-01-20T12:46:12.000Z</time>
      </trkpt>
      <trkpt lat="45.16734" lon="5.9562">
        <ele>2508</ele>
        <time>2019-01-20T12:46:13.000Z</time>
      </trkpt>
      <trkpt lat="45.16734" lon="5.9562">
        <ele>2507</ele>
        <time>2019-01-20T12:46:14.000Z</time>
      </trkpt>
      <trkpt lat="45.16724" lon="5.95613">
        <ele>2504</ele>
        <time>2019-01-20T12:46:15.000Z</time>
      </trkpt>
      <trkpt lat="45.16723" lon="5.95611">
        <ele>2500</ele>
        <time>2019-01-20T12:46:16.000Z</time>
      </trkpt>
      <trkpt lat="45.16721" lon="5.95609">
        <ele>2497</ele>
        <time>2019-01-20T12:46:17.000Z</time>
      </trkpt>
      <trkpt lat="45.16717" lon="5.95603">
        <ele>2494</ele>
        <time>2019-01-20T12:46:18.000Z</time>
      </trkpt>
      <trkpt lat="45.16707" lon="5.95588">
        <ele>2488</ele>
        <time>2019-01-20T12:46:20.000Z</time>
      </trkpt>
      <trkpt lat="45.16695" lon="5.95577">
        <ele>2482</ele>
        <time>2019-01-20T12:46:22.000Z</time>
      </trkpt>
      <trkpt lat="45.16695" lon="5.95577">
        <ele>2481</ele>
        <time>2019-01-20T12:46:23.000Z</time>
      </trkpt>
      <trkpt lat="45.16684" lon="5.95571">
        <ele>2478</ele>
        <time>2019-01-20T12:46:24.000Z</time>
      </trkpt>
      <trkpt lat="45.16671" lon="5.9557">
        <ele>2474</ele>
        <time>2019-01-20T12:46:25.000Z</time>
      </trkpt>
      <trkpt lat="45.16664" lon="5.95569">
        <ele>2471</ele>
        <time>2019-01-20T12:46:27.000Z</time>
      </trkpt>
      <trkpt lat="45.1666" lon="5.9557">
        <ele>2468</ele>
        <time>2019-01-20T12:46:28.000Z</time>
      </trkpt>
      <trkpt lat="45.16656" lon="5.9557">
        <ele>2466</ele>
        <time>2019-01-20T12:46:29.000Z</time>
      </trkpt>
      <trkpt lat="45.16653" lon="5.9557">
        <ele>2465</ele>
        <time>2019-01-20T12:46:30.000Z</time>
      </trkpt>
      <trkpt lat="45.16653" lon="5.9557">
        <ele>2463</ele>
        <time>2019-01-20T12:46:31.000Z</time>
      </trkpt>
      <trkpt lat="45.16641" lon="5.95571">
        <ele>2462</ele>
        <time>2019-01-20T12:46:32.000Z</time>
      </trkpt>
      <trkpt lat="45.1664" lon="5.9557">
        <ele>2461</ele>
        <time>2019-01-20T12:46:33.000Z</time>
      </trkpt>
      <trkpt lat="45.16639" lon="5.95569">
        <ele>2458</ele>
        <time>2019-01-20T12:46:34.000Z</time>
      </trkpt>
      <trkpt lat="45.16638" lon="5.95566">
        <ele>2457</ele>
        <time>2019-01-20T12:46:35.000Z</time>
      </trkpt>
      <trkpt lat="45.16637" lon="5.95562">
        <ele>2455</ele>
        <time>2019-01-20T12:46:36.000Z</time>
      </trkpt>
      <trkpt lat="45.16635" lon="5.95555">
        <ele>2453</ele>
        <time>2019-01-20T12:46:37.000Z</time>
      </trkpt>
      <trkpt lat="45.16624" lon="5.95556">
        <ele>2449</ele>
        <time>2019-01-20T12:46:38.000Z</time>
      </trkpt>
      <trkpt lat="45.16624" lon="5.95556">
        <ele>2447</ele>
        <time>2019-01-20T12:46:40.000Z</time>
      </trkpt>
      <trkpt lat="45.16616" lon="5.95539">
        <ele>2444.4</ele>
        <time>2019-01-20T12:46:41.000Z</time>
      </trkpt>
      <trkpt lat="45.16615" lon="5.95536">
        <ele>2443</ele>
        <time>2019-01-20T12:46:42.000Z</time>
      </trkpt>
      <trkpt lat="45.16614" lon="5.95533">
        <ele>2439</ele>
        <time>2019-01-20T12:46:43.000Z</time>
      </trkpt>
      <trkpt lat="45.16609" lon="5.95524">
        <ele>2436</ele>
        <time>2019-01-20T12:46:44.000Z</time>
      </trkpt>
      <trkpt lat="45.16608" lon="5.95522">
        <ele>2434</ele>
        <time>2019-01-20T12:46:45.000Z</time>
      </trkpt>
      <trkpt lat="45.16607" lon="5.9552">
        <ele>2431</ele>
        <time>2019-01-20T12:46:46.000Z</time>
      </trkpt>
      <trkpt lat="45.166" lon="5.95514">
        <ele>2428</ele>
        <time>2019-01-20T12:46:47.000Z</time>
      </trkpt>
      <trkpt lat="45.16597" lon="5.95514">
        <ele>2424</ele>
        <time>2019-01-20T12:46:48.000Z</time>
      </trkpt>
      <trkpt lat="45.1659" lon="5.95505">
        <ele>2420</ele>
        <time>2019-01-20T12:46:49.000Z</time>
      </trkpt>
      <trkpt lat="45.16588" lon="5.95496">
        <ele>2416</ele>
        <time>2019-01-20T12:46:51.000Z</time>
      </trkpt>
      <trkpt lat="45.16588" lon="5.95496">
        <ele>2411</ele>
        <time>2019-01-20T12:46:52.000Z</time>
      </trkpt>
      <trkpt lat="45.1659" lon="5.9548">
        <ele>2410</ele>
        <time>2019-01-20T12:46:53.000Z</time>
      </trkpt>
      <trkpt lat="45.16591" lon="5.95479">
        <ele>2409</ele>
        <time>2019-01-20T12:46:54.000Z</time>
      </trkpt>
      <trkpt lat="45.16591" lon="5.95477">
        <ele>2408</ele>
        <time>2019-01-20T12:46:55.000Z</time>
      </trkpt>
      <trkpt lat="45.16587" lon="5.95474">
        <ele>2407</ele>
        <time>2019-01-20T12:46:56.000Z</time>
      </trkpt>
      <trkpt lat="45.16584" lon="5.95471">
        <ele>2404</ele>
        <time>2019-01-20T12:46:57.000Z</time>
      </trkpt>
      <trkpt lat="45.1658" lon="5.95467">
        <ele>2401</ele>
        <time>2019-01-20T12:46:58.000Z</time>
      </trkpt>
      <trkpt lat="45.16577" lon="5.95452">
        <ele>2399</ele>
        <time>2019-01-20T12:47:00.000Z</time>
      </trkpt>
      <trkpt lat="45.16577" lon="5.95448">
        <ele>2397</ele>
        <time>2019-01-20T12:47:01.000Z</time>
      </trkpt>
      <trkpt lat="45.16576" lon="5.9544">
        <ele>2394</ele>
        <time>2019-01-20T12:47:02.000Z</time>
      </trkpt>
      <trkpt lat="45.16576" lon="5.9544">
        <ele>2391</ele>
        <time>2019-01-20T12:47:03.000Z</time>
      </trkpt>
      <trkpt lat="45.16573" lon="5.95442">
        <ele>2389</ele>
        <time>2019-01-20T12:47:04.000Z</time>
      </trkpt>
      <trkpt lat="45.16569" lon="5.95444">
        <ele>2388</ele>
        <time>2019-01-20T12:47:05.000Z</time>
      </trkpt>
      <trkpt lat="45.16562" lon="5.95448">
        <ele>2387</ele>
        <time>2019-01-20T12:47:06.000Z</time>
      </trkpt>
      <trkpt lat="45.16551" lon="5.95446">
        <ele>2385</ele>
        <time>2019-01-20T12:47:07.000Z</time>
      </trkpt>
      <trkpt lat="45.16554" lon="5.95435">
        <ele>2385</ele>
        <time>2019-01-20T12:47:08.000Z</time>
      </trkpt>
      <trkpt lat="45.16556" lon="5.95429">
        <ele>2382</ele>
        <time>2019-01-20T12:47:09.000Z</time>
      </trkpt>
      <trkpt lat="45.16558" lon="5.95411">
        <ele>2380</ele>
        <time>2019-01-20T12:47:10.000Z</time>
      </trkpt>
      <trkpt lat="45.16558" lon="5.95407">
        <ele>2380</ele>
        <time>2019-01-20T12:47:11.000Z</time>
      </trkpt>
      <trkpt lat="45.16557" lon="5.95399">
        <ele>2379</ele>
        <time>2019-01-20T12:47:12.000Z</time>
      </trkpt>
      <trkpt lat="45.16557" lon="5.95399">
        <ele>2378</ele>
        <time>2019-01-20T12:47:13.000Z</time>
      </trkpt>
      <trkpt lat="45.16557" lon="5.95399">
        <ele>2378</ele>
        <time>2019-01-20T12:47:14.000Z</time>
      </trkpt>
      <trkpt lat="45.16557" lon="5.95399">
        <ele>2378</ele>
        <time>2019-01-20T12:47:15.000Z</time>
      </trkpt>
      <trkpt lat="45.1656" lon="5.954">
        <ele>2378</ele>
        <time>2019-01-20T12:47:16.000Z</time>
      </trkpt>
      <trkpt lat="45.1656" lon="5.954">
        <ele>2377</ele>
        <time>2019-01-20T12:47:59.000Z</time>
      </trkpt>
      <trkpt lat="45.16558" lon="5.95409">
        <ele>2377</ele>
        <time>2019-01-20T12:48:00.000Z</time>
      </trkpt>
      <trkpt lat="45.16558" lon="5.95409">
        <ele>2377</ele>
        <time>2019-01-20T12:48:01.000Z</time>
      </trkpt>
      <trkpt lat="45.16558" lon="5.95409">
        <ele>2377</ele>
        <time>2019-01-20T12:48:02.000Z</time>
      </trkpt>
      <trkpt lat="45.16557" lon="5.95412">
        <ele>2377</ele>
        <time>2019-01-20T12:48:03.000Z</time>
      </trkpt>
      <trkpt lat="45.16554" lon="5.95412">
        <ele>2377</ele>
        <time>2019-01-20T12:48:04.000Z</time>
      </trkpt>
      <trkpt lat="45.1655" lon="5.95409">
        <ele>2375</ele>
        <time>2019-01-20T12:48:05.000Z</time>
      </trkpt>
      <trkpt lat="45.16545" lon="5.95404">
        <ele>2374</ele>
        <time>2019-01-20T12:48:06.000Z</time>
      </trkpt>
      <trkpt lat="45.16536" lon="5.95394">
        <ele>2374</ele>
        <time>2019-01-20T12:48:07.000Z</time>
      </trkpt>
      <trkpt lat="45.16534" lon="5.95392">
        <ele>2369</ele>
        <time>2019-01-20T12:48:08.000Z</time>
      </trkpt>
      <trkpt lat="45.1653" lon="5.95387">
        <ele>2366</ele>
        <time>2019-01-20T12:48:09.000Z</time>
      </trkpt>
      <trkpt lat="45.16527" lon="5.95369">
        <ele>2365</ele>
        <time>2019-01-20T12:48:10.000Z</time>
      </trkpt>
      <trkpt lat="45.16528" lon="5.95362">
        <ele>2363</ele>
        <time>2019-01-20T12:48:11.000Z</time>
      </trkpt>
      <trkpt lat="45.16532" lon="5.95357">
        <ele>2362</ele>
        <time>2019-01-20T12:48:12.000Z</time>
      </trkpt>
      <trkpt lat="45.16535" lon="5.95356">
        <ele>2361</ele>
        <time>2019-01-20T12:48:13.000Z</time>
      </trkpt>
      <trkpt lat="45.16537" lon="5.95356">
        <ele>2361</ele>
        <time>2019-01-20T12:48:14.000Z</time>
      </trkpt>
      <trkpt lat="45.16539" lon="5.95355">
        <ele>2360</ele>
        <time>2019-01-20T12:48:15.000Z</time>
      </trkpt>
      <trkpt lat="45.1654" lon="5.95352">
        <ele>2359</ele>
        <time>2019-01-20T12:48:16.000Z</time>
      </trkpt>
      <trkpt lat="45.16539" lon="5.95348">
        <ele>2358</ele>
        <time>2019-01-20T12:48:17.000Z</time>
      </trkpt>
      <trkpt lat="45.16539" lon="5.95345">
        <ele>2358</ele>
        <time>2019-01-20T12:48:18.000Z</time>
      </trkpt>
      <trkpt lat="45.16541" lon="5.95343">
        <ele>2356.4</ele>
        <time>2019-01-20T12:48:19.000Z</time>
      </trkpt>
      <trkpt lat="45.16543" lon="5.95343">
        <ele>2356</ele>
        <time>2019-01-20T12:48:20.000Z</time>
      </trkpt>
      <trkpt lat="45.16545" lon="5.95339">
        <ele>2350</ele>
        <time>2019-01-20T12:48:22.000Z</time>
      </trkpt>
      <trkpt lat="45.16545" lon="5.95335">
        <ele>2349</ele>
        <time>2019-01-20T12:48:23.000Z</time>
      </trkpt>
      <trkpt lat="45.16545" lon="5.95335">
        <ele>2348</ele>
        <time>2019-01-20T12:48:24.000Z</time>
      </trkpt>
      <trkpt lat="45.16544" lon="5.95332">
        <ele>2348</ele>
        <time>2019-01-20T12:48:25.000Z</time>
      </trkpt>
      <trkpt lat="45.16544" lon="5.95332">
        <ele>2346</ele>
        <time>2019-01-20T12:48:26.000Z</time>
      </trkpt>
      <trkpt lat="45.16548" lon="5.9533">
        <ele>2344</ele>
        <time>2019-01-20T12:48:27.000Z</time>
      </trkpt>
      <trkpt lat="45.16552" lon="5.9533">
        <ele>2343</ele>
        <time>2019-01-20T12:48:28.000Z</time>
      </trkpt>
      <trkpt lat="45.16558" lon="5.9533">
        <ele>2342</ele>
        <time>2019-01-20T12:48:29.000Z</time>
      </trkpt>
      <trkpt lat="45.16563" lon="5.95331">
        <ele>2341</ele>
        <time>2019-01-20T12:48:30.000Z</time>
      </trkpt>
      <trkpt lat="45.16568" lon="5.95332">
        <ele>2340</ele>
        <time>2019-01-20T12:48:31.000Z</time>
      </trkpt>
      <trkpt lat="45.16574" lon="5.95332">
        <ele>2340</ele>
        <time>2019-01-20T12:48:32.000Z</time>
      </trkpt>
      <trkpt lat="45.16576" lon="5.95332">
        <ele>2340</ele>
        <time>2019-01-20T12:48:33.000Z</time>
      </trkpt>
      <trkpt lat="45.16578" lon="5.95331">
        <ele>2339</ele>
        <time>2019-01-20T12:48:34.000Z</time>
      </trkpt>
      <trkpt lat="45.16583" lon="5.95329">
        <ele>2337</ele>
        <time>2019-01-20T12:48:35.000Z</time>
      </trkpt>
      <trkpt lat="45.16589" lon="5.9533">
        <ele>2336</ele>
        <time>2019-01-20T12:48:36.000Z</time>
      </trkpt>
      <trkpt lat="45.16597" lon="5.95336">
        <ele>2335</ele>
        <time>2019-01-20T12:48:38.000Z</time>
      </trkpt>
      <trkpt lat="45.16597" lon="5.95336">
        <ele>2335</ele>
        <time>2019-01-20T12:48:39.000Z</time>
      </trkpt>
      <trkpt lat="45.16606" lon="5.95337">
        <ele>2332</ele>
        <time>2019-01-20T12:48:40.000Z</time>
      </trkpt>
      <trkpt lat="45.16609" lon="5.95336">
        <ele>2331</ele>
        <time>2019-01-20T12:48:41.000Z</time>
      </trkpt>
      <trkpt lat="45.16615" lon="5.95331">
        <ele>2330</ele>
        <time>2019-01-20T12:48:42.000Z</time>
      </trkpt>
      <trkpt lat="45.16617" lon="5.9533">
        <ele>2329</ele>
        <time>2019-01-20T12:48:43.000Z</time>
      </trkpt>
      <trkpt lat="45.16619" lon="5.95329">
        <ele>2328</ele>
        <time>2019-01-20T12:48:44.000Z</time>
      </trkpt>
      <trkpt lat="45.16625" lon="5.95326">
        <ele>2327</ele>
        <time>2019-01-20T12:48:45.000Z</time>
      </trkpt>
      <trkpt lat="45.16625" lon="5.95326">
        <ele>2327</ele>
        <time>2019-01-20T12:48:46.000Z</time>
      </trkpt>
      <trkpt lat="45.16634" lon="5.95318">
        <ele>2327</ele>
        <time>2019-01-20T12:48:47.000Z</time>
      </trkpt>
      <trkpt lat="45.16637" lon="5.95316">
        <ele>2326</ele>
        <time>2019-01-20T12:48:48.000Z</time>
      </trkpt>
      <trkpt lat="45.16641" lon="5.95313">
        <ele>2325</ele>
        <time>2019-01-20T12:48:49.000Z</time>
      </trkpt>
      <trkpt lat="45.16647" lon="5.95309">
        <ele>2324</ele>
        <time>2019-01-20T12:48:50.000Z</time>
      </trkpt>
      <trkpt lat="45.16653" lon="5.95304">
        <ele>2322</ele>
        <time>2019-01-20T12:48:51.000Z</time>
      </trkpt>
      <trkpt lat="45.16659" lon="5.95299">
        <ele>2320</ele>
        <time>2019-01-20T12:48:52.000Z</time>
      </trkpt>
      <trkpt lat="45.16665" lon="5.95292">
        <ele>2318</ele>
        <time>2019-01-20T12:48:53.000Z</time>
      </trkpt>
      <trkpt lat="45.16672" lon="5.9528">
        <ele>2318</ele>
        <time>2019-01-20T12:48:54.000Z</time>
      </trkpt>
      <trkpt lat="45.16673" lon="5.95275">
        <ele>2317</ele>
        <time>2019-01-20T12:48:55.000Z</time>
      </trkpt>
      <trkpt lat="45.16679" lon="5.95259">
        <ele>2317</ele>
        <time>2019-01-20T12:48:56.000Z</time>
      </trkpt>
      <trkpt lat="45.1668" lon="5.95253">
        <ele>2316</ele>
        <time>2019-01-20T12:48:57.000Z</time>
      </trkpt>
      <trkpt lat="45.16684" lon="5.95241">
        <ele>2316</ele>
        <time>2019-01-20T12:48:58.000Z</time>
      </trkpt>
      <trkpt lat="45.16688" lon="5.95229">
        <ele>2313</ele>
        <time>2019-01-20T12:48:59.000Z</time>
      </trkpt>
      <trkpt lat="45.16694" lon="5.95211">
        <ele>2313</ele>
        <time>2019-01-20T12:49:00.000Z</time>
      </trkpt>
      <trkpt lat="45.16696" lon="5.95204">
        <ele>2308.4</ele>
        <time>2019-01-20T12:49:01.000Z</time>
      </trkpt>
      <trkpt lat="45.167" lon="5.95191">
        <ele>2304</ele>
        <time>2019-01-20T12:49:02.000Z</time>
      </trkpt>
      <trkpt lat="45.16703" lon="5.95184">
        <ele>2303</ele>
        <time>2019-01-20T12:49:03.000Z</time>
      </trkpt>
      <trkpt lat="45.16706" lon="5.95176">
        <ele>2302</ele>
        <time>2019-01-20T12:49:04.000Z</time>
      </trkpt>
      <trkpt lat="45.16707" lon="5.9517">
        <ele>2301</ele>
        <time>2019-01-20T12:49:05.000Z</time>
      </trkpt>
      <trkpt lat="45.16709" lon="5.95164">
        <ele>2301</ele>
        <time>2019-01-20T12:49:06.000Z</time>
      </trkpt>
      <trkpt lat="45.16713" lon="5.95151">
        <ele>2299.6</ele>
        <time>2019-01-20T12:49:08.000Z</time>
      </trkpt>
      <trkpt lat="45.16712" lon="5.95136">
        <ele>2296</ele>
        <time>2019-01-20T12:49:09.000Z</time>
      </trkpt>
      <trkpt lat="45.1671" lon="5.95129">
        <ele>2291</ele>
        <time>2019-01-20T12:49:10.000Z</time>
      </trkpt>
      <trkpt lat="45.16708" lon="5.95116">
        <ele>2287</ele>
        <time>2019-01-20T12:49:11.000Z</time>
      </trkpt>
      <trkpt lat="45.16706" lon="5.95101">
        <ele>2284</ele>
        <time>2019-01-20T12:49:12.000Z</time>
      </trkpt>
      <trkpt lat="45.16705" lon="5.95088">
        <ele>2284</ele>
        <time>2019-01-20T12:49:13.000Z</time>
      </trkpt>
      <trkpt lat="45.16704" lon="5.95072">
        <ele>2284</ele>
        <time>2019-01-20T12:49:14.000Z</time>
      </trkpt>
      <trkpt lat="45.16704" lon="5.95067">
        <ele>2283</ele>
        <time>2019-01-20T12:49:15.000Z</time>
      </trkpt>
      <trkpt lat="45.16702" lon="5.95057">
        <ele>2280.4</ele>
        <time>2019-01-20T12:49:16.000Z</time>
      </trkpt>
      <trkpt lat="45.16699" lon="5.95046">
        <ele>2279</ele>
        <time>2019-01-20T12:49:17.000Z</time>
      </trkpt>
      <trkpt lat="45.16695" lon="5.95037">
        <ele>2278</ele>
        <time>2019-01-20T12:49:18.000Z</time>
      </trkpt>
      <trkpt lat="45.16691" lon="5.9503">
        <ele>2278</ele>
        <time>2019-01-20T12:49:19.000Z</time>
      </trkpt>
      <trkpt lat="45.1669" lon="5.95029">
        <ele>2277.6</ele>
        <time>2019-01-20T12:49:20.000Z</time>
      </trkpt>
      <trkpt lat="45.16686" lon="5.95023">
        <ele>2277.6</ele>
        <time>2019-01-20T12:49:21.000Z</time>
      </trkpt>
      <trkpt lat="45.16684" lon="5.9502">
        <ele>2276.4</ele>
        <time>2019-01-20T12:49:22.000Z</time>
      </trkpt>
      <trkpt lat="45.1668" lon="5.95015">
        <ele>2274</ele>
        <time>2019-01-20T12:49:23.000Z</time>
      </trkpt>
      <trkpt lat="45.16675" lon="5.95008">
        <ele>2273</ele>
        <time>2019-01-20T12:49:24.000Z</time>
      </trkpt>
      <trkpt lat="45.1667" lon="5.95">
        <ele>2272</ele>
        <time>2019-01-20T12:49:25.000Z</time>
      </trkpt>
      <trkpt lat="45.16664" lon="5.94992">
        <ele>2271</ele>
        <time>2019-01-20T12:49:26.000Z</time>
      </trkpt>
      <trkpt lat="45.16658" lon="5.94983">
        <ele>2268</ele>
        <time>2019-01-20T12:49:27.000Z</time>
      </trkpt>
      <trkpt lat="45.16653" lon="5.94975">
        <ele>2266</ele>
        <time>2019-01-20T12:49:28.000Z</time>
      </trkpt>
      <trkpt lat="45.16645" lon="5.94968">
        <ele>2266</ele>
        <time>2019-01-20T12:49:29.000Z</time>
      </trkpt>
      <trkpt lat="45.16642" lon="5.94966">
        <ele>2265</ele>
        <time>2019-01-20T12:49:30.000Z</time>
      </trkpt>
      <trkpt lat="45.16634" lon="5.94959">
        <ele>2264</ele>
        <time>2019-01-20T12:49:31.000Z</time>
      </trkpt>
      <trkpt lat="45.16632" lon="5.94956">
        <ele>2264</ele>
        <time>2019-01-20T12:49:32.000Z</time>
      </trkpt>
      <trkpt lat="45.16629" lon="5.94953">
        <ele>2265</ele>
        <time>2019-01-20T12:49:33.000Z</time>
      </trkpt>
      <trkpt lat="45.16624" lon="5.94946">
        <ele>2264.4</ele>
        <time>2019-01-20T12:49:35.000Z</time>
      </trkpt>
      <trkpt lat="45.16624" lon="5.94946">
        <ele>2264</ele>
        <time>2019-01-20T12:49:36.000Z</time>
      </trkpt>
      <trkpt lat="45.16624" lon="5.94946">
        <ele>2264</ele>
        <time>2019-01-20T12:49:37.000Z</time>
      </trkpt>
      <trkpt lat="45.16621" lon="5.94941">
        <ele>2264</ele>
        <time>2019-01-20T12:49:38.000Z</time>
      </trkpt>
      <trkpt lat="45.16621" lon="5.94941">
        <ele>2264</ele>
        <time>2019-01-20T12:49:39.000Z</time>
      </trkpt>
      <trkpt lat="45.16621" lon="5.94941">
        <ele>2264</ele>
        <time>2019-01-20T12:49:40.000Z</time>
      </trkpt>
      <trkpt lat="45.16619" lon="5.94941">
        <ele>2264</ele>
        <time>2019-01-20T12:49:41.000Z</time>
      </trkpt>
      <trkpt lat="45.16619" lon="5.94941">
        <ele>2264</ele>
        <time>2019-01-20T12:49:42.000Z</time>
      </trkpt>
      <trkpt lat="45.16617" lon="5.94939">
        <ele>2264</ele>
        <time>2019-01-20T12:49:43.000Z</time>
      </trkpt>
      <trkpt lat="45.16617" lon="5.94939">
        <ele>2264</ele>
        <time>2019-01-20T12:49:44.000Z</time>
      </trkpt>
      <trkpt lat="45.16614" lon="5.94936">
        <ele>2263</ele>
        <time>2019-01-20T12:49:45.000Z</time>
      </trkpt>
      <trkpt lat="45.16613" lon="5.94934">
        <ele>2263</ele>
        <time>2019-01-20T12:49:46.000Z</time>
      </trkpt>
      <trkpt lat="45.16611" lon="5.94932">
        <ele>2263</ele>
        <time>2019-01-20T12:49:47.000Z</time>
      </trkpt>
      <trkpt lat="45.1661" lon="5.94929">
        <ele>2263</ele>
        <time>2019-01-20T12:49:48.000Z</time>
      </trkpt>
      <trkpt lat="45.16608" lon="5.94926">
        <ele>2263</ele>
        <time>2019-01-20T12:49:49.000Z</time>
      </trkpt>
      <trkpt lat="45.16608" lon="5.94926">
        <ele>2263</ele>
        <time>2019-01-20T12:49:50.000Z</time>
      </trkpt>
      <trkpt lat="45.16606" lon="5.94923">
        <ele>2263</ele>
        <time>2019-01-20T12:49:51.000Z</time>
      </trkpt>
      <trkpt lat="45.16606" lon="5.94923">
        <ele>2263</ele>
        <time>2019-01-20T12:49:52.000Z</time>
      </trkpt>
      <trkpt lat="45.16603" lon="5.9492">
        <ele>2263</ele>
        <time>2019-01-20T12:49:53.000Z</time>
      </trkpt>
      <trkpt lat="45.16601" lon="5.94918">
        <ele>2263</ele>
        <time>2019-01-20T12:49:54.000Z</time>
      </trkpt>
      <trkpt lat="45.16601" lon="5.94918">
        <ele>2263</ele>
        <time>2019-01-20T12:49:55.000Z</time>
      </trkpt>
      <trkpt lat="45.166" lon="5.94914">
        <ele>2262</ele>
        <time>2019-01-20T12:49:56.000Z</time>
      </trkpt>
      <trkpt lat="45.166" lon="5.94909">
        <ele>2262</ele>
        <time>2019-01-20T12:49:57.000Z</time>
      </trkpt>
      <trkpt lat="45.166" lon="5.94904">
        <ele>2262</ele>
        <time>2019-01-20T12:49:58.000Z</time>
      </trkpt>
      <trkpt lat="45.16601" lon="5.94898">
        <ele>2261</ele>
        <time>2019-01-20T12:49:59.000Z</time>
      </trkpt>
      <trkpt lat="45.16602" lon="5.94892">
        <ele>2261</ele>
        <time>2019-01-20T12:50:00.000Z</time>
      </trkpt>
      <trkpt lat="45.16604" lon="5.94886">
        <ele>2259</ele>
        <time>2019-01-20T12:50:01.000Z</time>
      </trkpt>
      <trkpt lat="45.16604" lon="5.94881">
        <ele>2258</ele>
        <time>2019-01-20T12:50:02.000Z</time>
      </trkpt>
      <trkpt lat="45.16605" lon="5.94876">
        <ele>2258</ele>
        <time>2019-01-20T12:50:03.000Z</time>
      </trkpt>
      <trkpt lat="45.16603" lon="5.94873">
        <ele>2256</ele>
        <time>2019-01-20T12:50:04.000Z</time>
      </trkpt>
      <trkpt lat="45.16601" lon="5.94871">
        <ele>2255</ele>
        <time>2019-01-20T12:50:05.000Z</time>
      </trkpt>
      <trkpt lat="45.16601" lon="5.94867">
        <ele>2254</ele>
        <time>2019-01-20T12:50:06.000Z</time>
      </trkpt>
      <trkpt lat="45.16603" lon="5.94859">
        <ele>2254</ele>
        <time>2019-01-20T12:50:07.000Z</time>
      </trkpt>
      <trkpt lat="45.16603" lon="5.94856">
        <ele>2252.4</ele>
        <time>2019-01-20T12:50:08.000Z</time>
      </trkpt>
      <trkpt lat="45.16606" lon="5.94849">
        <ele>2252.4</ele>
        <time>2019-01-20T12:50:09.000Z</time>
      </trkpt>
      <trkpt lat="45.16607" lon="5.94847">
        <ele>2251</ele>
        <time>2019-01-20T12:50:10.000Z</time>
      </trkpt>
      <trkpt lat="45.16608" lon="5.94843">
        <ele>2251</ele>
        <time>2019-01-20T12:50:11.000Z</time>
      </trkpt>
      <trkpt lat="45.16612" lon="5.94835">
        <ele>2251</ele>
        <time>2019-01-20T12:50:12.000Z</time>
      </trkpt>
      <trkpt lat="45.16613" lon="5.94832">
        <ele>2249.6</ele>
        <time>2019-01-20T12:50:13.000Z</time>
      </trkpt>
      <trkpt lat="45.16614" lon="5.94828">
        <ele>2247</ele>
        <time>2019-01-20T12:50:14.000Z</time>
      </trkpt>
      <trkpt lat="45.16612" lon="5.94826">
        <ele>2246</ele>
        <time>2019-01-20T12:50:15.000Z</time>
      </trkpt>
      <trkpt lat="45.16609" lon="5.94824">
        <ele>2244</ele>
        <time>2019-01-20T12:50:16.000Z</time>
      </trkpt>
      <trkpt lat="45.16605" lon="5.94811">
        <ele>2244</ele>
        <time>2019-01-20T12:50:17.000Z</time>
      </trkpt>
      <trkpt lat="45.16604" lon="5.94803">
        <ele>2238.4</ele>
        <time>2019-01-20T12:50:18.000Z</time>
      </trkpt>
      <trkpt lat="45.16602" lon="5.94788">
        <ele>2229</ele>
        <time>2019-01-20T12:50:19.000Z</time>
      </trkpt>
      <trkpt lat="45.166" lon="5.94772">
        <ele>2222</ele>
        <time>2019-01-20T12:50:20.000Z</time>
      </trkpt>
      <trkpt lat="45.16593" lon="5.94746">
        <ele>2220</ele>
        <time>2019-01-20T12:50:21.000Z</time>
      </trkpt>
      <trkpt lat="45.1659" lon="5.94738">
        <ele>2220</ele>
        <time>2019-01-20T12:50:22.000Z</time>
      </trkpt>
      <trkpt lat="45.16586" lon="5.9473">
        <ele>2220.4</ele>
        <time>2019-01-20T12:50:23.000Z</time>
      </trkpt>
      <trkpt lat="45.16581" lon="5.9472">
        <ele>2217</ele>
        <time>2019-01-20T12:50:24.000Z</time>
      </trkpt>
      <trkpt lat="45.16575" lon="5.94709">
        <ele>2215</ele>
        <time>2019-01-20T12:50:25.000Z</time>
      </trkpt>
      <trkpt lat="45.16567" lon="5.94696">
        <ele>2214</ele>
        <time>2019-01-20T12:50:26.000Z</time>
      </trkpt>
      <trkpt lat="45.16565" lon="5.94693">
        <ele>2214</ele>
        <time>2019-01-20T12:50:27.000Z</time>
      </trkpt>
      <trkpt lat="45.16555" lon="5.94683">
        <ele>2212</ele>
        <time>2019-01-20T12:50:28.000Z</time>
      </trkpt>
      <trkpt lat="45.1655" lon="5.94678">
        <ele>2210.4</ele>
        <time>2019-01-20T12:50:30.000Z</time>
      </trkpt>
      <trkpt lat="45.16547" lon="5.94665">
        <ele>2210.4</ele>
        <time>2019-01-20T12:50:31.000Z</time>
      </trkpt>
      <trkpt lat="45.16547" lon="5.9466">
        <ele>2205.6</ele>
        <time>2019-01-20T12:50:32.000Z</time>
      </trkpt>
      <trkpt lat="45.16545" lon="5.94652">
        <ele>2204</ele>
        <time>2019-01-20T12:50:33.000Z</time>
      </trkpt>
      <trkpt lat="45.16544" lon="5.94644">
        <ele>2203</ele>
        <time>2019-01-20T12:50:34.000Z</time>
      </trkpt>
      <trkpt lat="45.16542" lon="5.94639">
        <ele>2202</ele>
        <time>2019-01-20T12:50:35.000Z</time>
      </trkpt>
      <trkpt lat="45.16539" lon="5.94639">
        <ele>2201</ele>
        <time>2019-01-20T12:50:36.000Z</time>
      </trkpt>
      <trkpt lat="45.16533" lon="5.94642">
        <ele>2201</ele>
        <time>2019-01-20T12:50:37.000Z</time>
      </trkpt>
      <trkpt lat="45.16531" lon="5.94641">
        <ele>2197</ele>
        <time>2019-01-20T12:50:38.000Z</time>
      </trkpt>
      <trkpt lat="45.16526" lon="5.94631">
        <ele>2195</ele>
        <time>2019-01-20T12:50:39.000Z</time>
      </trkpt>
      <trkpt lat="45.16525" lon="5.94627">
        <ele>2193</ele>
        <time>2019-01-20T12:50:40.000Z</time>
      </trkpt>
      <trkpt lat="45.16523" lon="5.9462">
        <ele>2192</ele>
        <time>2019-01-20T12:50:41.000Z</time>
      </trkpt>
      <trkpt lat="45.16523" lon="5.9462">
        <ele>2191</ele>
        <time>2019-01-20T12:50:42.000Z</time>
      </trkpt>
      <trkpt lat="45.16516" lon="5.94611">
        <ele>2191</ele>
        <time>2019-01-20T12:50:43.000Z</time>
      </trkpt>
      <trkpt lat="45.16517" lon="5.94609">
        <ele>2191</ele>
        <time>2019-01-20T12:50:44.000Z</time>
      </trkpt>
      <trkpt lat="45.16517" lon="5.94607">
        <ele>2190</ele>
        <time>2019-01-20T12:50:45.000Z</time>
      </trkpt>
      <trkpt lat="45.16517" lon="5.94604">
        <ele>2189</ele>
        <time>2019-01-20T12:50:46.000Z</time>
      </trkpt>
      <trkpt lat="45.1652" lon="5.94591">
        <ele>2187</ele>
        <time>2019-01-20T12:50:47.000Z</time>
      </trkpt>
      <trkpt lat="45.16521" lon="5.94586">
        <ele>2185</ele>
        <time>2019-01-20T12:50:48.000Z</time>
      </trkpt>
      <trkpt lat="45.16522" lon="5.94577">
        <ele>2184</ele>
        <time>2019-01-20T12:50:49.000Z</time>
      </trkpt>
      <trkpt lat="45.16514" lon="5.94569">
        <ele>2180</ele>
        <time>2019-01-20T12:50:51.000Z</time>
      </trkpt>
      <trkpt lat="45.16514" lon="5.94568">
        <ele>2179</ele>
        <time>2019-01-20T12:50:52.000Z</time>
      </trkpt>
      <trkpt lat="45.16513" lon="5.94566">
        <ele>2178</ele>
        <time>2019-01-20T12:50:53.000Z</time>
      </trkpt>
      <trkpt lat="45.16513" lon="5.94565">
        <ele>2177</ele>
        <time>2019-01-20T12:50:54.000Z</time>
      </trkpt>
      <trkpt lat="45.16512" lon="5.94564">
        <ele>2175</ele>
        <time>2019-01-20T12:50:55.000Z</time>
      </trkpt>
      <trkpt lat="45.16512" lon="5.94563">
        <ele>2174</ele>
        <time>2019-01-20T12:50:56.000Z</time>
      </trkpt>
      <trkpt lat="45.16509" lon="5.94557">
        <ele>2173</ele>
        <time>2019-01-20T12:50:57.000Z</time>
      </trkpt>
      <trkpt lat="45.16509" lon="5.94557">
        <ele>2172</ele>
        <time>2019-01-20T12:50:58.000Z</time>
      </trkpt>
      <trkpt lat="45.16509" lon="5.94557">
        <ele>2170</ele>
        <time>2019-01-20T12:50:59.000Z</time>
      </trkpt>
      <trkpt lat="45.16509" lon="5.94557">
        <ele>2169</ele>
        <time>2019-01-20T12:51:00.000Z</time>
      </trkpt>
      <trkpt lat="45.16498" lon="5.94546">
        <ele>2168</ele>
        <time>2019-01-20T12:51:01.000Z</time>
      </trkpt>
      <trkpt lat="45.16495" lon="5.94544">
        <ele>2166</ele>
        <time>2019-01-20T12:51:02.000Z</time>
      </trkpt>
      <trkpt lat="45.16483" lon="5.94537">
        <ele>2165</ele>
        <time>2019-01-20T12:51:03.000Z</time>
      </trkpt>
      <trkpt lat="45.16477" lon="5.94534">
        <ele>2164.4</ele>
        <time>2019-01-20T12:51:05.000Z</time>
      </trkpt>
      <trkpt lat="45.16474" lon="5.94534">
        <ele>2163</ele>
        <time>2019-01-20T12:51:06.000Z</time>
      </trkpt>
      <trkpt lat="45.16471" lon="5.94533">
        <ele>2162</ele>
        <time>2019-01-20T12:51:07.000Z</time>
      </trkpt>
      <trkpt lat="45.1646" lon="5.94534">
        <ele>2160</ele>
        <time>2019-01-20T12:51:08.000Z</time>
      </trkpt>
      <trkpt lat="45.16453" lon="5.94534">
        <ele>2160</ele>
        <time>2019-01-20T12:51:09.000Z</time>
      </trkpt>
      <trkpt lat="45.16447" lon="5.94535">
        <ele>2159</ele>
        <time>2019-01-20T12:51:10.000Z</time>
      </trkpt>
      <trkpt lat="45.16435" lon="5.94536">
        <ele>2159</ele>
        <time>2019-01-20T12:51:11.000Z</time>
      </trkpt>
      <trkpt lat="45.16432" lon="5.94534">
        <ele>2157</ele>
        <time>2019-01-20T12:51:12.000Z</time>
      </trkpt>
      <trkpt lat="45.16422" lon="5.94527">
        <ele>2152</ele>
        <time>2019-01-20T12:51:13.000Z</time>
      </trkpt>
      <trkpt lat="45.16419" lon="5.94525">
        <ele>2151</ele>
        <time>2019-01-20T12:51:14.000Z</time>
      </trkpt>
      <trkpt lat="45.16412" lon="5.94519">
        <ele>2150</ele>
        <time>2019-01-20T12:51:15.000Z</time>
      </trkpt>
      <trkpt lat="45.16405" lon="5.94509">
        <ele>2150</ele>
        <time>2019-01-20T12:51:16.000Z</time>
      </trkpt>
      <trkpt lat="45.16403" lon="5.94505">
        <ele>2150</ele>
        <time>2019-01-20T12:51:17.000Z</time>
      </trkpt>
      <trkpt lat="45.16398" lon="5.94492">
        <ele>2150</ele>
        <time>2019-01-20T12:51:18.000Z</time>
      </trkpt>
      <trkpt lat="45.16396" lon="5.94488">
        <ele>2148.4</ele>
        <time>2019-01-20T12:51:19.000Z</time>
      </trkpt>
      <trkpt lat="45.16396" lon="5.94488">
        <ele>2148</ele>
        <time>2019-01-20T12:51:20.000Z</time>
      </trkpt>
      <trkpt lat="45.16391" lon="5.94465">
        <ele>2147</ele>
        <time>2019-01-20T12:51:21.000Z</time>
      </trkpt>
      <trkpt lat="45.1639" lon="5.94461">
        <ele>2146</ele>
        <time>2019-01-20T12:51:22.000Z</time>
      </trkpt>
      <trkpt lat="45.16386" lon="5.9445">
        <ele>2145</ele>
        <time>2019-01-20T12:51:23.000Z</time>
      </trkpt>
      <trkpt lat="45.16384" lon="5.94447">
        <ele>2144</ele>
        <time>2019-01-20T12:51:24.000Z</time>
      </trkpt>
      <trkpt lat="45.16381" lon="5.94436">
        <ele>2143</ele>
        <time>2019-01-20T12:51:25.000Z</time>
      </trkpt>
      <trkpt lat="45.16381" lon="5.94432">
        <ele>2143</ele>
        <time>2019-01-20T12:51:26.000Z</time>
      </trkpt>
      <trkpt lat="45.1638" lon="5.94423">
        <ele>2142</ele>
        <time>2019-01-20T12:51:27.000Z</time>
      </trkpt>
      <trkpt lat="45.16379" lon="5.94408">
        <ele>2140</ele>
        <time>2019-01-20T12:51:29.000Z</time>
      </trkpt>
      <trkpt lat="45.16379" lon="5.94408">
        <ele>2139</ele>
        <time>2019-01-20T12:51:30.000Z</time>
      </trkpt>
      <trkpt lat="45.16379" lon="5.94387">
        <ele>2137</ele>
        <time>2019-01-20T12:51:31.000Z</time>
      </trkpt>
      <trkpt lat="45.1638" lon="5.94383">
        <ele>2135</ele>
        <time>2019-01-20T12:51:32.000Z</time>
      </trkpt>
      <trkpt lat="45.16381" lon="5.94374">
        <ele>2133</ele>
        <time>2019-01-20T12:51:33.000Z</time>
      </trkpt>
      <trkpt lat="45.16381" lon="5.94374">
        <ele>2132</ele>
        <time>2019-01-20T12:51:34.000Z</time>
      </trkpt>
      <trkpt lat="45.16381" lon="5.94374">
        <ele>2131</ele>
        <time>2019-01-20T12:51:35.000Z</time>
      </trkpt>
      <trkpt lat="45.16392" lon="5.94366">
        <ele>2128</ele>
        <time>2019-01-20T12:51:36.000Z</time>
      </trkpt>
      <trkpt lat="45.16396" lon="5.94367">
        <ele>2126</ele>
        <time>2019-01-20T12:51:37.000Z</time>
      </trkpt>
      <trkpt lat="45.164" lon="5.94369">
        <ele>2124.4</ele>
        <time>2019-01-20T12:51:39.000Z</time>
      </trkpt>
      <trkpt lat="45.16403" lon="5.94372">
        <ele>2123</ele>
        <time>2019-01-20T12:51:40.000Z</time>
      </trkpt>
      <trkpt lat="45.16407" lon="5.94372">
        <ele>2123</ele>
        <time>2019-01-20T12:51:41.000Z</time>
      </trkpt>
      <trkpt lat="45.16408" lon="5.94371">
        <ele>2121</ele>
        <time>2019-01-20T12:51:42.000Z</time>
      </trkpt>
      <trkpt lat="45.16408" lon="5.94371">
        <ele>2120</ele>
        <time>2019-01-20T12:51:43.000Z</time>
      </trkpt>
      <trkpt lat="45.16409" lon="5.9436">
        <ele>2119</ele>
        <time>2019-01-20T12:51:44.000Z</time>
      </trkpt>
      <trkpt lat="45.16409" lon="5.94355">
        <ele>2117</ele>
        <time>2019-01-20T12:51:45.000Z</time>
      </trkpt>
      <trkpt lat="45.16408" lon="5.94349">
        <ele>2116</ele>
        <time>2019-01-20T12:51:46.000Z</time>
      </trkpt>
      <trkpt lat="45.16407" lon="5.94339">
        <ele>2116</ele>
        <time>2019-01-20T12:51:47.000Z</time>
      </trkpt>
      <trkpt lat="45.16407" lon="5.94334">
        <ele>2115</ele>
        <time>2019-01-20T12:51:48.000Z</time>
      </trkpt>
      <trkpt lat="45.16407" lon="5.9433">
        <ele>2114</ele>
        <time>2019-01-20T12:51:49.000Z</time>
      </trkpt>
      <trkpt lat="45.16407" lon="5.94323">
        <ele>2111</ele>
        <time>2019-01-20T12:51:50.000Z</time>
      </trkpt>
      <trkpt lat="45.16407" lon="5.94307">
        <ele>2110</ele>
        <time>2019-01-20T12:51:51.000Z</time>
      </trkpt>
      <trkpt lat="45.16407" lon="5.94303">
        <ele>2110</ele>
        <time>2019-01-20T12:51:52.000Z</time>
      </trkpt>
      <trkpt lat="45.16407" lon="5.94293">
        <ele>2109</ele>
        <time>2019-01-20T12:51:53.000Z</time>
      </trkpt>
      <trkpt lat="45.16407" lon="5.94293">
        <ele>2109</ele>
        <time>2019-01-20T12:51:54.000Z</time>
      </trkpt>
      <trkpt lat="45.16411" lon="5.9428">
        <ele>2109</ele>
        <time>2019-01-20T12:51:55.000Z</time>
      </trkpt>
      <trkpt lat="45.16411" lon="5.9428">
        <ele>2107</ele>
        <time>2019-01-20T12:51:56.000Z</time>
      </trkpt>
      <trkpt lat="45.16417" lon="5.94273">
        <ele>2105</ele>
        <time>2019-01-20T12:51:57.000Z</time>
      </trkpt>
      <trkpt lat="45.1642" lon="5.94273">
        <ele>2102</ele>
        <time>2019-01-20T12:51:58.000Z</time>
      </trkpt>
      <trkpt lat="45.16424" lon="5.94273">
        <ele>2101</ele>
        <time>2019-01-20T12:51:59.000Z</time>
      </trkpt>
      <trkpt lat="45.16433" lon="5.94272">
        <ele>2096.4</ele>
        <time>2019-01-20T12:52:01.000Z</time>
      </trkpt>
      <trkpt lat="45.16436" lon="5.94272">
        <ele>2092</ele>
        <time>2019-01-20T12:52:02.000Z</time>
      </trkpt>
      <trkpt lat="45.16439" lon="5.94272">
        <ele>2090</ele>
        <time>2019-01-20T12:52:03.000Z</time>
      </trkpt>
      <trkpt lat="45.16444" lon="5.94272">
        <ele>2087</ele>
        <time>2019-01-20T12:52:04.000Z</time>
      </trkpt>
      <trkpt lat="45.16464" lon="5.94261">
        <ele>2087</ele>
        <time>2019-01-20T12:52:05.000Z</time>
      </trkpt>
      <trkpt lat="45.16468" lon="5.94258">
        <ele>2084</ele>
        <time>2019-01-20T12:52:06.000Z</time>
      </trkpt>
      <trkpt lat="45.16478" lon="5.94255">
        <ele>2076.4</ele>
        <time>2019-01-20T12:52:07.000Z</time>
      </trkpt>
      <trkpt lat="45.16488" lon="5.94252">
        <ele>2073</ele>
        <time>2019-01-20T12:52:08.000Z</time>
      </trkpt>
      <trkpt lat="45.16498" lon="5.9425">
        <ele>2070</ele>
        <time>2019-01-20T12:52:09.000Z</time>
      </trkpt>
      <trkpt lat="45.16512" lon="5.94248">
        <ele>2069</ele>
        <time>2019-01-20T12:52:10.000Z</time>
      </trkpt>
      <trkpt lat="45.16516" lon="5.94247">
        <ele>2069</ele>
        <time>2019-01-20T12:52:11.000Z</time>
      </trkpt>
      <trkpt lat="45.16529" lon="5.94242">
        <ele>2068</ele>
        <time>2019-01-20T12:52:12.000Z</time>
      </trkpt>
      <trkpt lat="45.16535" lon="5.94238">
        <ele>2068</ele>
        <time>2019-01-20T12:52:14.000Z</time>
      </trkpt>
      <trkpt lat="45.16539" lon="5.94234">
        <ele>2069</ele>
        <time>2019-01-20T12:52:15.000Z</time>
      </trkpt>
      <trkpt lat="45.16539" lon="5.94234">
        <ele>2070</ele>
        <time>2019-01-20T12:52:16.000Z</time>
      </trkpt>
      <trkpt lat="45.16539" lon="5.94234">
        <ele>2070</ele>
        <time>2019-01-20T12:52:17.000Z</time>
      </trkpt>
      <trkpt lat="45.16539" lon="5.94234">
        <ele>2070</ele>
        <time>2019-01-20T12:52:18.000Z</time>
      </trkpt>
      <trkpt lat="45.1654" lon="5.94227">
        <ele>2070</ele>
        <time>2019-01-20T12:52:19.000Z</time>
      </trkpt>
      <trkpt lat="45.1654" lon="5.94227">
        <ele>2070</ele>
        <time>2019-01-20T12:52:20.000Z</time>
      </trkpt>
      <trkpt lat="45.16541" lon="5.94223">
        <ele>2070</ele>
        <time>2019-01-20T12:52:21.000Z</time>
      </trkpt>
      <trkpt lat="45.16542" lon="5.9422">
        <ele>2069</ele>
        <time>2019-01-20T12:52:22.000Z</time>
      </trkpt>
      <trkpt lat="45.16542" lon="5.9422">
        <ele>2069</ele>
        <time>2019-01-20T12:52:23.000Z</time>
      </trkpt>
      <trkpt lat="45.16544" lon="5.94216">
        <ele>2069</ele>
        <time>2019-01-20T12:52:24.000Z</time>
      </trkpt>
      <trkpt lat="45.16546" lon="5.94213">
        <ele>2069</ele>
        <time>2019-01-20T12:52:25.000Z</time>
      </trkpt>
      <trkpt lat="45.16546" lon="5.94211">
        <ele>2069</ele>
        <time>2019-01-20T12:52:26.000Z</time>
      </trkpt>
      <trkpt lat="45.16548" lon="5.94207">
        <ele>2069</ele>
        <time>2019-01-20T12:52:27.000Z</time>
      </trkpt>
      <trkpt lat="45.16551" lon="5.94202">
        <ele>2069</ele>
        <time>2019-01-20T12:52:28.000Z</time>
      </trkpt>
      <trkpt lat="45.16556" lon="5.94192">
        <ele>2069</ele>
        <time>2019-01-20T12:52:29.000Z</time>
      </trkpt>
      <trkpt lat="45.16558" lon="5.94188">
        <ele>2066.4</ele>
        <time>2019-01-20T12:52:30.000Z</time>
      </trkpt>
      <trkpt lat="45.16562" lon="5.94181">
        <ele>2066</ele>
        <time>2019-01-20T12:52:31.000Z</time>
      </trkpt>
      <trkpt lat="45.16566" lon="5.94174">
        <ele>2066</ele>
        <time>2019-01-20T12:52:32.000Z</time>
      </trkpt>
      <trkpt lat="45.16569" lon="5.94168">
        <ele>2066</ele>
        <time>2019-01-20T12:52:33.000Z</time>
      </trkpt>
      <trkpt lat="45.16572" lon="5.94163">
        <ele>2066</ele>
        <time>2019-01-20T12:52:34.000Z</time>
      </trkpt>
      <trkpt lat="45.16574" lon="5.94158">
        <ele>2065</ele>
        <time>2019-01-20T12:52:35.000Z</time>
      </trkpt>
      <trkpt lat="45.16575" lon="5.94153">
        <ele>2065</ele>
        <time>2019-01-20T12:52:36.000Z</time>
      </trkpt>
      <trkpt lat="45.16577" lon="5.94147">
        <ele>2064</ele>
        <time>2019-01-20T12:52:37.000Z</time>
      </trkpt>
      <trkpt lat="45.1658" lon="5.94142">
        <ele>2063</ele>
        <time>2019-01-20T12:52:38.000Z</time>
      </trkpt>
      <trkpt lat="45.16583" lon="5.9414">
        <ele>2063</ele>
        <time>2019-01-20T12:52:39.000Z</time>
      </trkpt>
      <trkpt lat="45.16585" lon="5.94141">
        <ele>2063</ele>
        <time>2019-01-20T12:52:40.000Z</time>
      </trkpt>
      <trkpt lat="45.16585" lon="5.94141">
        <ele>2061</ele>
        <time>2019-01-20T12:53:13.000Z</time>
      </trkpt>
      <trkpt lat="45.16585" lon="5.94143">
        <ele>2061</ele>
        <time>2019-01-20T12:53:14.000Z</time>
      </trkpt>
      <trkpt lat="45.16585" lon="5.94143">
        <ele>2061</ele>
        <time>2019-01-20T12:53:16.000Z</time>
      </trkpt>
      <trkpt lat="45.1659" lon="5.9414">
        <ele>2060</ele>
        <time>2019-01-20T12:53:17.000Z</time>
      </trkpt>
      <trkpt lat="45.16594" lon="5.94138">
        <ele>2059</ele>
        <time>2019-01-20T12:53:18.000Z</time>
      </trkpt>
      <trkpt lat="45.166" lon="5.94136">
        <ele>2058</ele>
        <time>2019-01-20T12:53:19.000Z</time>
      </trkpt>
      <trkpt lat="45.16606" lon="5.94135">
        <ele>2057</ele>
        <time>2019-01-20T12:53:20.000Z</time>
      </trkpt>
      <trkpt lat="45.16613" lon="5.94133">
        <ele>2057</ele>
        <time>2019-01-20T12:53:21.000Z</time>
      </trkpt>
      <trkpt lat="45.16623" lon="5.94131">
        <ele>2057</ele>
        <time>2019-01-20T12:53:22.000Z</time>
      </trkpt>
      <trkpt lat="45.16627" lon="5.94132">
        <ele>2054.4</ele>
        <time>2019-01-20T12:53:23.000Z</time>
      </trkpt>
      <trkpt lat="45.16636" lon="5.94135">
        <ele>2051</ele>
        <time>2019-01-20T12:53:24.000Z</time>
      </trkpt>
      <trkpt lat="45.16646" lon="5.94137">
        <ele>2050</ele>
        <time>2019-01-20T12:53:25.000Z</time>
      </trkpt>
      <trkpt lat="45.16654" lon="5.94138">
        <ele>2049</ele>
        <time>2019-01-20T12:53:26.000Z</time>
      </trkpt>
      <trkpt lat="45.16662" lon="5.94138">
        <ele>2050</ele>
        <time>2019-01-20T12:53:27.000Z</time>
      </trkpt>
      <trkpt lat="45.16668" lon="5.94137">
        <ele>2050</ele>
        <time>2019-01-20T12:53:28.000Z</time>
      </trkpt>
      <trkpt lat="45.16674" lon="5.94135">
        <ele>2051</ele>
        <time>2019-01-20T12:53:29.000Z</time>
      </trkpt>
      <trkpt lat="45.1668" lon="5.94132">
        <ele>2051</ele>
        <time>2019-01-20T12:53:30.000Z</time>
      </trkpt>
      <trkpt lat="45.16687" lon="5.94125">
        <ele>2051</ele>
        <time>2019-01-20T12:53:31.000Z</time>
      </trkpt>
      <trkpt lat="45.16689" lon="5.94123">
        <ele>2051</ele>
        <time>2019-01-20T12:53:32.000Z</time>
      </trkpt>
      <trkpt lat="45.16689" lon="5.94123">
        <ele>2050</ele>
        <time>2019-01-20T12:53:33.000Z</time>
      </trkpt>
      <trkpt lat="45.16697" lon="5.94115">
        <ele>2050</ele>
        <time>2019-01-20T12:53:34.000Z</time>
      </trkpt>
      <trkpt lat="45.16697" lon="5.94115">
        <ele>2049</ele>
        <time>2019-01-20T12:53:35.000Z</time>
      </trkpt>
      <trkpt lat="45.167" lon="5.94113">
        <ele>2049</ele>
        <time>2019-01-20T12:53:36.000Z</time>
      </trkpt>
      <trkpt lat="45.16703" lon="5.9411">
        <ele>2049</ele>
        <time>2019-01-20T12:53:37.000Z</time>
      </trkpt>
      <trkpt lat="45.16706" lon="5.94107">
        <ele>2049</ele>
        <time>2019-01-20T12:53:38.000Z</time>
      </trkpt>
      <trkpt lat="45.16709" lon="5.94105">
        <ele>2049</ele>
        <time>2019-01-20T12:53:39.000Z</time>
      </trkpt>
      <trkpt lat="45.16712" lon="5.94103">
        <ele>2049</ele>
        <time>2019-01-20T12:53:40.000Z</time>
      </trkpt>
      <trkpt lat="45.16715" lon="5.94101">
        <ele>2049</ele>
        <time>2019-01-20T12:53:41.000Z</time>
      </trkpt>
      <trkpt lat="45.16715" lon="5.94101">
        <ele>2049</ele>
        <time>2019-01-20T12:53:42.000Z</time>
      </trkpt>
      <trkpt lat="45.16719" lon="5.94095">
        <ele>2048</ele>
        <time>2019-01-20T12:53:43.000Z</time>
      </trkpt>
      <trkpt lat="45.1672" lon="5.94088">
        <ele>2048</ele>
        <time>2019-01-20T12:53:44.000Z</time>
      </trkpt>
      <trkpt lat="45.1672" lon="5.94086">
        <ele>2047.6</ele>
        <time>2019-01-20T12:53:45.000Z</time>
      </trkpt>
      <trkpt lat="45.16721" lon="5.94079">
        <ele>2046</ele>
        <time>2019-01-20T12:53:46.000Z</time>
      </trkpt>
      <trkpt lat="45.16723" lon="5.94072">
        <ele>2044</ele>
        <time>2019-01-20T12:53:47.000Z</time>
      </trkpt>
      <trkpt lat="45.16725" lon="5.94063">
        <ele>2042</ele>
        <time>2019-01-20T12:53:48.000Z</time>
      </trkpt>
      <trkpt lat="45.16728" lon="5.94054">
        <ele>2040</ele>
        <time>2019-01-20T12:53:49.000Z</time>
      </trkpt>
      <trkpt lat="45.16731" lon="5.94043">
        <ele>2039</ele>
        <time>2019-01-20T12:53:50.000Z</time>
      </trkpt>
      <trkpt lat="45.16736" lon="5.94025">
        <ele>2039</ele>
        <time>2019-01-20T12:53:51.000Z</time>
      </trkpt>
      <trkpt lat="45.16738" lon="5.94018">
        <ele>2039</ele>
        <time>2019-01-20T12:53:52.000Z</time>
      </trkpt>
      <trkpt lat="45.16742" lon="5.94007">
        <ele>2038</ele>
        <time>2019-01-20T12:53:53.000Z</time>
      </trkpt>
      <trkpt lat="45.16745" lon="5.93995">
        <ele>2033</ele>
        <time>2019-01-20T12:53:54.000Z</time>
      </trkpt>
      <trkpt lat="45.16748" lon="5.93983">
        <ele>2031</ele>
        <time>2019-01-20T12:53:55.000Z</time>
      </trkpt>
      <trkpt lat="45.1675" lon="5.93972">
        <ele>2031</ele>
        <time>2019-01-20T12:53:56.000Z</time>
      </trkpt>
      <trkpt lat="45.16754" lon="5.93957">
        <ele>2031</ele>
        <time>2019-01-20T12:53:57.000Z</time>
      </trkpt>
      <trkpt lat="45.16755" lon="5.93952">
        <ele>2032</ele>
        <time>2019-01-20T12:53:58.000Z</time>
      </trkpt>
      <trkpt lat="45.16757" lon="5.93943">
        <ele>2032</ele>
        <time>2019-01-20T12:53:59.000Z</time>
      </trkpt>
      <trkpt lat="45.16759" lon="5.93936">
        <ele>2031</ele>
        <time>2019-01-20T12:54:00.000Z</time>
      </trkpt>
      <trkpt lat="45.1676" lon="5.93929">
        <ele>2032</ele>
        <time>2019-01-20T12:54:01.000Z</time>
      </trkpt>
      <trkpt lat="45.16762" lon="5.93923">
        <ele>2032</ele>
        <time>2019-01-20T12:54:02.000Z</time>
      </trkpt>
      <trkpt lat="45.16764" lon="5.93918">
        <ele>2031</ele>
        <time>2019-01-20T12:54:03.000Z</time>
      </trkpt>
      <trkpt lat="45.16767" lon="5.93913">
        <ele>2031</ele>
        <time>2019-01-20T12:54:04.000Z</time>
      </trkpt>
      <trkpt lat="45.1677" lon="5.93908">
        <ele>2031</ele>
        <time>2019-01-20T12:54:05.000Z</time>
      </trkpt>
      <trkpt lat="45.16774" lon="5.93904">
        <ele>2030</ele>
        <time>2019-01-20T12:54:06.000Z</time>
      </trkpt>
      <trkpt lat="45.16778" lon="5.939">
        <ele>2029</ele>
        <time>2019-01-20T12:54:07.000Z</time>
      </trkpt>
      <trkpt lat="45.16783" lon="5.93897">
        <ele>2029</ele>
        <time>2019-01-20T12:54:08.000Z</time>
      </trkpt>
      <trkpt lat="45.16784" lon="5.93897">
        <ele>2027.6</ele>
        <time>2019-01-20T12:54:09.000Z</time>
      </trkpt>
      <trkpt lat="45.16789" lon="5.93897">
        <ele>2027.6</ele>
        <time>2019-01-20T12:54:10.000Z</time>
      </trkpt>
      <trkpt lat="45.16791" lon="5.93897">
        <ele>2024.4</ele>
        <time>2019-01-20T12:54:11.000Z</time>
      </trkpt>
      <trkpt lat="45.16795" lon="5.93898">
        <ele>2024</ele>
        <time>2019-01-20T12:54:12.000Z</time>
      </trkpt>
      <trkpt lat="45.16798" lon="5.93896">
        <ele>2023</ele>
        <time>2019-01-20T12:54:13.000Z</time>
      </trkpt>
      <trkpt lat="45.16803" lon="5.93894">
        <ele>2021</ele>
        <time>2019-01-20T12:54:14.000Z</time>
      </trkpt>
      <trkpt lat="45.16809" lon="5.93894">
        <ele>2018</ele>
        <time>2019-01-20T12:54:15.000Z</time>
      </trkpt>
      <trkpt lat="45.16814" lon="5.93897">
        <ele>2016</ele>
        <time>2019-01-20T12:54:16.000Z</time>
      </trkpt>
      <trkpt lat="45.16819" lon="5.93899">
        <ele>2015</ele>
        <time>2019-01-20T12:54:17.000Z</time>
      </trkpt>
      <trkpt lat="45.16827" lon="5.93903">
        <ele>2015</ele>
        <time>2019-01-20T12:54:18.000Z</time>
      </trkpt>
      <trkpt lat="45.16829" lon="5.93904">
        <ele>2014.4</ele>
        <time>2019-01-20T12:54:19.000Z</time>
      </trkpt>
      <trkpt lat="45.16834" lon="5.93904">
        <ele>2014</ele>
        <time>2019-01-20T12:54:20.000Z</time>
      </trkpt>
      <trkpt lat="45.16843" lon="5.93899">
        <ele>2011</ele>
        <time>2019-01-20T12:54:21.000Z</time>
      </trkpt>
      <trkpt lat="45.16846" lon="5.93897">
        <ele>2010</ele>
        <time>2019-01-20T12:54:22.000Z</time>
      </trkpt>
      <trkpt lat="45.16852" lon="5.93892">
        <ele>2010</ele>
        <time>2019-01-20T12:54:23.000Z</time>
      </trkpt>
      <trkpt lat="45.16858" lon="5.93887">
        <ele>2009</ele>
        <time>2019-01-20T12:54:24.000Z</time>
      </trkpt>
      <trkpt lat="45.16864" lon="5.9388">
        <ele>2009</ele>
        <time>2019-01-20T12:54:25.000Z</time>
      </trkpt>
      <trkpt lat="45.16872" lon="5.93869">
        <ele>2009</ele>
        <time>2019-01-20T12:54:26.000Z</time>
      </trkpt>
      <trkpt lat="45.16875" lon="5.93865">
        <ele>2006.4</ele>
        <time>2019-01-20T12:54:27.000Z</time>
      </trkpt>
      <trkpt lat="45.1688" lon="5.93858">
        <ele>2006</ele>
        <time>2019-01-20T12:54:28.000Z</time>
      </trkpt>
      <trkpt lat="45.16884" lon="5.93846">
        <ele>2006</ele>
        <time>2019-01-20T12:54:29.000Z</time>
      </trkpt>
      <trkpt lat="45.16886" lon="5.93842">
        <ele>2003.6</ele>
        <time>2019-01-20T12:54:30.000Z</time>
      </trkpt>
      <trkpt lat="45.16889" lon="5.93833">
        <ele>2002</ele>
        <time>2019-01-20T12:54:31.000Z</time>
      </trkpt>
      <trkpt lat="45.16895" lon="5.9382">
        <ele>2002</ele>
        <time>2019-01-20T12:54:32.000Z</time>
      </trkpt>
      <trkpt lat="45.16897" lon="5.93816">
        <ele>1998</ele>
        <time>2019-01-20T12:54:33.000Z</time>
      </trkpt>
      <trkpt lat="45.16902" lon="5.93808">
        <ele>1995</ele>
        <time>2019-01-20T12:54:34.000Z</time>
      </trkpt>
      <trkpt lat="45.16906" lon="5.938">
        <ele>1993</ele>
        <time>2019-01-20T12:54:35.000Z</time>
      </trkpt>
      <trkpt lat="45.1691" lon="5.93792">
        <ele>1992</ele>
        <time>2019-01-20T12:54:36.000Z</time>
      </trkpt>
      <trkpt lat="45.16915" lon="5.93786">
        <ele>1991</ele>
        <time>2019-01-20T12:54:37.000Z</time>
      </trkpt>
      <trkpt lat="45.16919" lon="5.9378">
        <ele>1990</ele>
        <time>2019-01-20T12:54:38.000Z</time>
      </trkpt>
      <trkpt lat="45.16923" lon="5.93774">
        <ele>1990</ele>
        <time>2019-01-20T12:54:39.000Z</time>
      </trkpt>
      <trkpt lat="45.16927" lon="5.9377">
        <ele>1989</ele>
        <time>2019-01-20T12:54:40.000Z</time>
      </trkpt>
      <trkpt lat="45.16932" lon="5.93766">
        <ele>1988</ele>
        <time>2019-01-20T12:54:41.000Z</time>
      </trkpt>
      <trkpt lat="45.16938" lon="5.9376">
        <ele>1988</ele>
        <time>2019-01-20T12:54:42.000Z</time>
      </trkpt>
      <trkpt lat="45.1694" lon="5.93758">
        <ele>1988</ele>
        <time>2019-01-20T12:54:43.000Z</time>
      </trkpt>
      <trkpt lat="45.16943" lon="5.93755">
        <ele>1988</ele>
        <time>2019-01-20T12:54:44.000Z</time>
      </trkpt>
      <trkpt lat="45.16945" lon="5.93753">
        <ele>1988</ele>
        <time>2019-01-20T12:54:45.000Z</time>
      </trkpt>
      <trkpt lat="45.16947" lon="5.93752">
        <ele>1988</ele>
        <time>2019-01-20T12:54:46.000Z</time>
      </trkpt>
      <trkpt lat="45.16949" lon="5.9375">
        <ele>1988</ele>
        <time>2019-01-20T12:54:47.000Z</time>
      </trkpt>
      <trkpt lat="45.16952" lon="5.93749">
        <ele>1988</ele>
        <time>2019-01-20T12:54:48.000Z</time>
      </trkpt>
      <trkpt lat="45.16954" lon="5.93749">
        <ele>1988</ele>
        <time>2019-01-20T12:54:49.000Z</time>
      </trkpt>
      <trkpt lat="45.16956" lon="5.93749">
        <ele>1988</ele>
        <time>2019-01-20T12:54:50.000Z</time>
      </trkpt>
      <trkpt lat="45.16956" lon="5.93749">
        <ele>1988</ele>
        <time>2019-01-20T12:54:51.000Z</time>
      </trkpt>
      <trkpt lat="45.16959" lon="5.93749">
        <ele>1988</ele>
        <time>2019-01-20T12:54:52.000Z</time>
      </trkpt>
      <trkpt lat="45.16959" lon="5.93749">
        <ele>1988</ele>
        <time>2019-01-20T12:54:53.000Z</time>
      </trkpt>
      <trkpt lat="45.16961" lon="5.93747">
        <ele>1988</ele>
        <time>2019-01-20T12:54:54.000Z</time>
      </trkpt>
      <trkpt lat="45.16963" lon="5.93747">
        <ele>1988</ele>
        <time>2019-01-20T12:54:55.000Z</time>
      </trkpt>
      <trkpt lat="45.16965" lon="5.93747">
        <ele>1988</ele>
        <time>2019-01-20T12:54:56.000Z</time>
      </trkpt>
      <trkpt lat="45.16967" lon="5.93746">
        <ele>1987</ele>
        <time>2019-01-20T12:54:57.000Z</time>
      </trkpt>
      <trkpt lat="45.16969" lon="5.93745">
        <ele>1987</ele>
        <time>2019-01-20T12:54:58.000Z</time>
      </trkpt>
      <trkpt lat="45.16971" lon="5.93744">
        <ele>1987</ele>
        <time>2019-01-20T12:54:59.000Z</time>
      </trkpt>
      <trkpt lat="45.16973" lon="5.93743">
        <ele>1987</ele>
        <time>2019-01-20T12:55:00.000Z</time>
      </trkpt>
      <trkpt lat="45.16975" lon="5.93741">
        <ele>1987</ele>
        <time>2019-01-20T12:55:01.000Z</time>
      </trkpt>
      <trkpt lat="45.1698" lon="5.93738">
        <ele>1987</ele>
        <time>2019-01-20T12:55:02.000Z</time>
      </trkpt>
      <trkpt lat="45.16982" lon="5.93736">
        <ele>1987</ele>
        <time>2019-01-20T12:55:03.000Z</time>
      </trkpt>
      <trkpt lat="45.16986" lon="5.93734">
        <ele>1986</ele>
        <time>2019-01-20T12:55:04.000Z</time>
      </trkpt>
      <trkpt lat="45.1699" lon="5.93732">
        <ele>1986</ele>
        <time>2019-01-20T12:55:05.000Z</time>
      </trkpt>
      <trkpt lat="45.16995" lon="5.9373">
        <ele>1986</ele>
        <time>2019-01-20T12:55:06.000Z</time>
      </trkpt>
      <trkpt lat="45.17003" lon="5.93728">
        <ele>1986</ele>
        <time>2019-01-20T12:55:07.000Z</time>
      </trkpt>
      <trkpt lat="45.17005" lon="5.93727">
        <ele>1984.4</ele>
        <time>2019-01-20T12:55:08.000Z</time>
      </trkpt>
      <trkpt lat="45.17009" lon="5.93726">
        <ele>1984</ele>
        <time>2019-01-20T12:55:09.000Z</time>
      </trkpt>
      <trkpt lat="45.17014" lon="5.93725">
        <ele>1984</ele>
        <time>2019-01-20T12:55:10.000Z</time>
      </trkpt>
      <trkpt lat="45.17022" lon="5.93722">
        <ele>1984</ele>
        <time>2019-01-20T12:55:11.000Z</time>
      </trkpt>
      <trkpt lat="45.17024" lon="5.93722">
        <ele>1983</ele>
        <time>2019-01-20T12:55:12.000Z</time>
      </trkpt>
      <trkpt lat="45.1703" lon="5.93721">
        <ele>1982</ele>
        <time>2019-01-20T12:55:13.000Z</time>
      </trkpt>
      <trkpt lat="45.1703" lon="5.93721">
        <ele>1981</ele>
        <time>2019-01-20T12:55:14.000Z</time>
      </trkpt>
      <trkpt lat="45.17038" lon="5.93723">
        <ele>1980.4</ele>
        <time>2019-01-20T12:55:16.000Z</time>
      </trkpt>
      <trkpt lat="45.17042" lon="5.93723">
        <ele>1979</ele>
        <time>2019-01-20T12:55:17.000Z</time>
      </trkpt>
      <trkpt lat="45.17048" lon="5.93721">
        <ele>1977</ele>
        <time>2019-01-20T12:55:18.000Z</time>
      </trkpt>
      <trkpt lat="45.17054" lon="5.93719">
        <ele>1976</ele>
        <time>2019-01-20T12:55:19.000Z</time>
      </trkpt>
      <trkpt lat="45.1706" lon="5.93717">
        <ele>1975</ele>
        <time>2019-01-20T12:55:20.000Z</time>
      </trkpt>
      <trkpt lat="45.17069" lon="5.9371">
        <ele>1975</ele>
        <time>2019-01-20T12:55:21.000Z</time>
      </trkpt>
      <trkpt lat="45.17072" lon="5.93708">
        <ele>1975</ele>
        <time>2019-01-20T12:55:22.000Z</time>
      </trkpt>
      <trkpt lat="45.17076" lon="5.93704">
        <ele>1975</ele>
        <time>2019-01-20T12:55:23.000Z</time>
      </trkpt>
      <trkpt lat="45.17076" lon="5.93704">
        <ele>1975</ele>
        <time>2019-01-20T12:55:24.000Z</time>
      </trkpt>
      <trkpt lat="45.17076" lon="5.93704">
        <ele>1976</ele>
        <time>2019-01-20T12:55:25.000Z</time>
      </trkpt>
      <trkpt lat="45.17076" lon="5.93704">
        <ele>1976</ele>
        <time>2019-01-20T12:55:27.000Z</time>
      </trkpt>
      <trkpt lat="45.17076" lon="5.93704">
        <ele>1976</ele>
        <time>2019-01-20T12:55:28.000Z</time>
      </trkpt>
      <trkpt lat="45.17076" lon="5.93704">
        <ele>1976</ele>
        <time>2019-01-20T12:55:29.000Z</time>
      </trkpt>
      <trkpt lat="45.17076" lon="5.93704">
        <ele>1976</ele>
        <time>2019-01-20T12:55:30.000Z</time>
      </trkpt>
      <trkpt lat="45.17076" lon="5.93704">
        <ele>1976</ele>
        <time>2019-01-20T12:55:31.000Z</time>
      </trkpt>
      <trkpt lat="45.17076" lon="5.93704">
        <ele>1976</ele>
        <time>2019-01-20T12:55:32.000Z</time>
      </trkpt>
      <trkpt lat="45.17085" lon="5.93697">
        <ele>1976</ele>
        <time>2019-01-20T12:55:34.000Z</time>
      </trkpt>
      <trkpt lat="45.17085" lon="5.93697">
        <ele>1976</ele>
        <time>2019-01-20T12:55:35.000Z</time>
      </trkpt>
      <trkpt lat="45.17085" lon="5.93697">
        <ele>1976</ele>
        <time>2019-01-20T12:55:36.000Z</time>
      </trkpt>
      <trkpt lat="45.17085" lon="5.93697">
        <ele>1976</ele>
        <time>2019-01-20T12:55:37.000Z</time>
      </trkpt>
      <trkpt lat="45.17085" lon="5.93697">
        <ele>1976</ele>
        <time>2019-01-20T12:55:38.000Z</time>
      </trkpt>
      <trkpt lat="45.17085" lon="5.93697">
        <ele>1976</ele>
        <time>2019-01-20T12:55:39.000Z</time>
      </trkpt>
      <trkpt lat="45.17085" lon="5.93697">
        <ele>1976</ele>
        <time>2019-01-20T12:55:40.000Z</time>
      </trkpt>
      <trkpt lat="45.17085" lon="5.93697">
        <ele>1976</ele>
        <time>2019-01-20T12:55:41.000Z</time>
      </trkpt>
      <trkpt lat="45.17085" lon="5.93697">
        <ele>1976</ele>
        <time>2019-01-20T12:55:42.000Z</time>
      </trkpt>
      <trkpt lat="45.17085" lon="5.93697">
        <ele>1976</ele>
        <time>2019-01-20T12:55:43.000Z</time>
      </trkpt>
      <trkpt lat="45.17094" lon="5.93688">
        <ele>1976</ele>
        <time>2019-01-20T12:55:44.000Z</time>
      </trkpt>
      <trkpt lat="45.17095" lon="5.93686">
        <ele>1976</ele>
        <time>2019-01-20T12:55:46.000Z</time>
      </trkpt>
      <trkpt lat="45.17097" lon="5.93684">
        <ele>1976</ele>
        <time>2019-01-20T12:55:47.000Z</time>
      </trkpt>
      <trkpt lat="45.17102" lon="5.93679">
        <ele>1976</ele>
        <time>2019-01-20T12:55:48.000Z</time>
      </trkpt>
      <trkpt lat="45.17102" lon="5.93679">
        <ele>1975</ele>
        <time>2019-01-20T12:55:49.000Z</time>
      </trkpt>
      <trkpt lat="45.17108" lon="5.93667">
        <ele>1975</ele>
        <time>2019-01-20T12:55:50.000Z</time>
      </trkpt>
      <trkpt lat="45.17108" lon="5.93667">
        <ele>1973</ele>
        <time>2019-01-20T12:55:51.000Z</time>
      </trkpt>
      <trkpt lat="45.17111" lon="5.93648">
        <ele>1973</ele>
        <time>2019-01-20T12:55:52.000Z</time>
      </trkpt>
      <trkpt lat="45.17113" lon="5.93642">
        <ele>1973</ele>
        <time>2019-01-20T12:55:53.000Z</time>
      </trkpt>
      <trkpt lat="45.17114" lon="5.93636">
        <ele>1973</ele>
        <time>2019-01-20T12:55:55.000Z</time>
      </trkpt>
      <trkpt lat="45.17114" lon="5.93636">
        <ele>1973</ele>
        <time>2019-01-20T12:55:56.000Z</time>
      </trkpt>
      <trkpt lat="45.17118" lon="5.93623">
        <ele>1972</ele>
        <time>2019-01-20T12:55:57.000Z</time>
      </trkpt>
      <trkpt lat="45.1712" lon="5.93618">
        <ele>1971</ele>
        <time>2019-01-20T12:55:58.000Z</time>
      </trkpt>
      <trkpt lat="45.17123" lon="5.93614">
        <ele>1972</ele>
        <time>2019-01-20T12:55:59.000Z</time>
      </trkpt>
      <trkpt lat="45.17125" lon="5.93613">
        <ele>1972</ele>
        <time>2019-01-20T12:56:00.000Z</time>
      </trkpt>
      <trkpt lat="45.17126" lon="5.93613">
        <ele>1973</ele>
        <time>2019-01-20T12:56:01.000Z</time>
      </trkpt>
      <trkpt lat="45.17126" lon="5.93613">
        <ele>1973</ele>
        <time>2019-01-20T12:56:02.000Z</time>
      </trkpt>
      <trkpt lat="45.17126" lon="5.93613">
        <ele>1973</ele>
        <time>2019-01-20T12:56:03.000Z</time>
      </trkpt>
      <trkpt lat="45.17127" lon="5.93614">
        <ele>1973</ele>
        <time>2019-01-20T12:56:05.000Z</time>
      </trkpt>
      <trkpt lat="45.17127" lon="5.93614">
        <ele>1973</ele>
        <time>2019-01-20T12:56:06.000Z</time>
      </trkpt>
      <trkpt lat="45.17127" lon="5.93614">
        <ele>1973</ele>
        <time>2019-01-20T12:56:07.000Z</time>
      </trkpt>
      <trkpt lat="45.17131" lon="5.93617">
        <ele>1973</ele>
        <time>2019-01-20T12:56:08.000Z</time>
      </trkpt>
      <trkpt lat="45.17131" lon="5.93617">
        <ele>1973</ele>
        <time>2019-01-20T12:56:09.000Z</time>
      </trkpt>
      <trkpt lat="45.17131" lon="5.93617">
        <ele>1973</ele>
        <time>2019-01-20T12:56:10.000Z</time>
      </trkpt>
      <trkpt lat="45.17131" lon="5.93617">
        <ele>1973</ele>
        <time>2019-01-20T12:56:11.000Z</time>
      </trkpt>
      <trkpt lat="45.17133" lon="5.93618">
        <ele>1973</ele>
        <time>2019-01-20T12:56:12.000Z</time>
      </trkpt>
      <trkpt lat="45.17133" lon="5.93618">
        <ele>1975</ele>
        <time>2019-01-20T12:56:13.000Z</time>
      </trkpt>
      <trkpt lat="45.17133" lon="5.93618">
        <ele>1975</ele>
        <time>2019-01-20T12:56:14.000Z</time>
      </trkpt>
      <trkpt lat="45.17133" lon="5.93618">
        <ele>1975</ele>
        <time>2019-01-20T12:56:15.000Z</time>
      </trkpt>
      <trkpt lat="45.17134" lon="5.9362">
        <ele>1975</ele>
        <time>2019-01-20T12:56:16.000Z</time>
      </trkpt>
      <trkpt lat="45.17134" lon="5.9362">
        <ele>1975</ele>
        <time>2019-01-20T12:56:17.000Z</time>
      </trkpt>
      <trkpt lat="45.17134" lon="5.9362">
        <ele>1975</ele>
        <time>2019-01-20T12:56:18.000Z</time>
      </trkpt>
      <trkpt lat="45.17134" lon="5.9362">
        <ele>1975</ele>
        <time>2019-01-20T12:56:19.000Z</time>
      </trkpt>
      <trkpt lat="45.17134" lon="5.9362">
        <ele>1976</ele>
        <time>2019-01-20T12:56:20.000Z</time>
      </trkpt>
      <trkpt lat="45.17134" lon="5.9362">
        <ele>1976</ele>
        <time>2019-01-20T12:56:21.000Z</time>
      </trkpt>
      <trkpt lat="45.17137" lon="5.9362">
        <ele>1976</ele>
        <time>2019-01-20T12:56:22.000Z</time>
      </trkpt>
      <trkpt lat="45.17137" lon="5.9362">
        <ele>1976</ele>
        <time>2019-01-20T12:56:24.000Z</time>
      </trkpt>
      <trkpt lat="45.17137" lon="5.9362">
        <ele>1976</ele>
        <time>2019-01-20T12:56:25.000Z</time>
      </trkpt>
      <trkpt lat="45.17137" lon="5.9362">
        <ele>1976</ele>
        <time>2019-01-20T12:56:26.000Z</time>
      </trkpt>
      <trkpt lat="45.17139" lon="5.9362">
        <ele>1976</ele>
        <time>2019-01-20T12:56:27.000Z</time>
      </trkpt>
      <trkpt lat="45.17139" lon="5.9362">
        <ele>1976</ele>
        <time>2019-01-20T12:56:28.000Z</time>
      </trkpt>
      <trkpt lat="45.17139" lon="5.9362">
        <ele>1976</ele>
        <time>2019-01-20T12:56:29.000Z</time>
      </trkpt>
      <trkpt lat="45.17141" lon="5.93618">
        <ele>1976</ele>
        <time>2019-01-20T12:56:31.000Z</time>
      </trkpt>
      <trkpt lat="45.17141" lon="5.93618">
        <ele>1976</ele>
        <time>2019-01-20T12:56:32.000Z</time>
      </trkpt>
      <trkpt lat="45.17141" lon="5.93618">
        <ele>1976</ele>
        <time>2019-01-20T12:56:33.000Z</time>
      </trkpt>
      <trkpt lat="45.17143" lon="5.93617">
        <ele>1976</ele>
        <time>2019-01-20T12:56:34.000Z</time>
      </trkpt>
      <trkpt lat="45.17143" lon="5.93617">
        <ele>1976</ele>
        <time>2019-01-20T12:56:35.000Z</time>
      </trkpt>
      <trkpt lat="45.17143" lon="5.93617">
        <ele>1976</ele>
        <time>2019-01-20T12:56:36.000Z</time>
      </trkpt>
      <trkpt lat="45.17143" lon="5.93617">
        <ele>1976</ele>
        <time>2019-01-20T12:56:37.000Z</time>
      </trkpt>
      <trkpt lat="45.17144" lon="5.93617">
        <ele>1976</ele>
        <time>2019-01-20T12:56:38.000Z</time>
      </trkpt>
      <trkpt lat="45.17144" lon="5.93617">
        <ele>1976</ele>
        <time>2019-01-20T12:56:39.000Z</time>
      </trkpt>
      <trkpt lat="45.17144" lon="5.93617">
        <ele>1976</ele>
        <time>2019-01-20T12:56:40.000Z</time>
      </trkpt>
      <trkpt lat="45.17146" lon="5.93617">
        <ele>1976</ele>
        <time>2019-01-20T12:56:41.000Z</time>
      </trkpt>
      <trkpt lat="45.17146" lon="5.93617">
        <ele>1976.4</ele>
        <time>2019-01-20T12:56:43.000Z</time>
      </trkpt>
      <trkpt lat="45.17148" lon="5.93617">
        <ele>1977</ele>
        <time>2019-01-20T12:56:44.000Z</time>
      </trkpt>
      <trkpt lat="45.17148" lon="5.93617">
        <ele>1977</ele>
        <time>2019-01-20T12:56:45.000Z</time>
      </trkpt>
      <trkpt lat="45.17151" lon="5.93619">
        <ele>1977</ele>
        <time>2019-01-20T12:56:46.000Z</time>
      </trkpt>
      <trkpt lat="45.17151" lon="5.93619">
        <ele>1977</ele>
        <time>2019-01-20T12:56:47.000Z</time>
      </trkpt>
      <trkpt lat="45.17153" lon="5.93621">
        <ele>1977</ele>
        <time>2019-01-20T12:56:48.000Z</time>
      </trkpt>
      <trkpt lat="45.17153" lon="5.93621">
        <ele>1977</ele>
        <time>2019-01-20T12:56:49.000Z</time>
      </trkpt>
      <trkpt lat="45.17153" lon="5.93621">
        <ele>1977</ele>
        <time>2019-01-20T12:56:50.000Z</time>
      </trkpt>
      <trkpt lat="45.17154" lon="5.93624">
        <ele>1977</ele>
        <time>2019-01-20T12:56:51.000Z</time>
      </trkpt>
      <trkpt lat="45.17154" lon="5.93624">
        <ele>1977</ele>
        <time>2019-01-20T12:56:52.000Z</time>
      </trkpt>
      <trkpt lat="45.17154" lon="5.93624">
        <ele>1977</ele>
        <time>2019-01-20T12:56:53.000Z</time>
      </trkpt>
      <trkpt lat="45.17155" lon="5.93627">
        <ele>1977</ele>
        <time>2019-01-20T12:56:54.000Z</time>
      </trkpt>
      <trkpt lat="45.17155" lon="5.93627">
        <ele>1977</ele>
        <time>2019-01-20T12:56:55.000Z</time>
      </trkpt>
      <trkpt lat="45.17157" lon="5.9363">
        <ele>1977</ele>
        <time>2019-01-20T12:56:56.000Z</time>
      </trkpt>
      <trkpt lat="45.17157" lon="5.9363">
        <ele>1977</ele>
        <time>2019-01-20T12:56:57.000Z</time>
      </trkpt>
      <trkpt lat="45.17158" lon="5.93633">
        <ele>1977</ele>
        <time>2019-01-20T12:56:58.000Z</time>
      </trkpt>
      <trkpt lat="45.17158" lon="5.93633">
        <ele>1977</ele>
        <time>2019-01-20T12:56:59.000Z</time>
      </trkpt>
      <trkpt lat="45.17159" lon="5.93636">
        <ele>1977</ele>
        <time>2019-01-20T12:57:00.000Z</time>
      </trkpt>
      <trkpt lat="45.17161" lon="5.93638">
        <ele>1977</ele>
        <time>2019-01-20T12:57:02.000Z</time>
      </trkpt>
      <trkpt lat="45.17164" lon="5.93641">
        <ele>1977</ele>
        <time>2019-01-20T12:57:03.000Z</time>
      </trkpt>
      <trkpt lat="45.17168" lon="5.93646">
        <ele>1976</ele>
        <time>2019-01-20T12:57:04.000Z</time>
      </trkpt>
      <trkpt lat="45.17173" lon="5.93651">
        <ele>1976</ele>
        <time>2019-01-20T12:57:05.000Z</time>
      </trkpt>
      <trkpt lat="45.17177" lon="5.93653">
        <ele>1975</ele>
        <time>2019-01-20T12:57:06.000Z</time>
      </trkpt>
      <trkpt lat="45.17181" lon="5.93654">
        <ele>1973</ele>
        <time>2019-01-20T12:57:07.000Z</time>
      </trkpt>
      <trkpt lat="45.17184" lon="5.93655">
        <ele>1973</ele>
        <time>2019-01-20T12:57:08.000Z</time>
      </trkpt>
      <trkpt lat="45.17187" lon="5.93655">
        <ele>1973</ele>
        <time>2019-01-20T12:57:09.000Z</time>
      </trkpt>
      <trkpt lat="45.17191" lon="5.93655">
        <ele>1973</ele>
        <time>2019-01-20T12:57:10.000Z</time>
      </trkpt>
      <trkpt lat="45.17194" lon="5.93654">
        <ele>1973</ele>
        <time>2019-01-20T12:57:11.000Z</time>
      </trkpt>
      <trkpt lat="45.17198" lon="5.93653">
        <ele>1972</ele>
        <time>2019-01-20T12:57:12.000Z</time>
      </trkpt>
      <trkpt lat="45.17202" lon="5.93651">
        <ele>1972</ele>
        <time>2019-01-20T12:57:13.000Z</time>
      </trkpt>
      <trkpt lat="45.17207" lon="5.93649">
        <ele>1972</ele>
        <time>2019-01-20T12:57:14.000Z</time>
      </trkpt>
      <trkpt lat="45.17212" lon="5.93647">
        <ele>1970</ele>
        <time>2019-01-20T12:57:15.000Z</time>
      </trkpt>
      <trkpt lat="45.17218" lon="5.93642">
        <ele>1968</ele>
        <time>2019-01-20T12:57:16.000Z</time>
      </trkpt>
      <trkpt lat="45.17227" lon="5.93635">
        <ele>1968</ele>
        <time>2019-01-20T12:57:17.000Z</time>
      </trkpt>
      <trkpt lat="45.17231" lon="5.93633">
        <ele>1965</ele>
        <time>2019-01-20T12:57:18.000Z</time>
      </trkpt>
      <trkpt lat="45.17242" lon="5.93623">
        <ele>1962</ele>
        <time>2019-01-20T12:57:19.000Z</time>
      </trkpt>
      <trkpt lat="45.17247" lon="5.93618">
        <ele>1962</ele>
        <time>2019-01-20T12:57:20.000Z</time>
      </trkpt>
      <trkpt lat="45.17252" lon="5.93613">
        <ele>1960.4</ele>
        <time>2019-01-20T12:57:21.000Z</time>
      </trkpt>
      <trkpt lat="45.17258" lon="5.93606">
        <ele>1961</ele>
        <time>2019-01-20T12:57:22.000Z</time>
      </trkpt>
      <trkpt lat="45.17261" lon="5.93601">
        <ele>1962</ele>
        <time>2019-01-20T12:57:23.000Z</time>
      </trkpt>
      <trkpt lat="45.17263" lon="5.93598">
        <ele>1962</ele>
        <time>2019-01-20T12:57:24.000Z</time>
      </trkpt>
      <trkpt lat="45.17266" lon="5.93595">
        <ele>1962</ele>
        <time>2019-01-20T12:57:25.000Z</time>
      </trkpt>
      <trkpt lat="45.17268" lon="5.93595">
        <ele>1962</ele>
        <time>2019-01-20T12:57:26.000Z</time>
      </trkpt>
      <trkpt lat="45.17271" lon="5.93595">
        <ele>1962</ele>
        <time>2019-01-20T12:57:27.000Z</time>
      </trkpt>
      <trkpt lat="45.17272" lon="5.93594">
        <ele>1962</ele>
        <time>2019-01-20T12:57:28.000Z</time>
      </trkpt>
      <trkpt lat="45.17272" lon="5.93594">
        <ele>1962</ele>
        <time>2019-01-20T12:57:29.000Z</time>
      </trkpt>
      <trkpt lat="45.17275" lon="5.93594">
        <ele>1963</ele>
        <time>2019-01-20T12:57:30.000Z</time>
      </trkpt>
      <trkpt lat="45.17275" lon="5.93594">
        <ele>1963</ele>
        <time>2019-01-20T12:57:31.000Z</time>
      </trkpt>
      <trkpt lat="45.17278" lon="5.93594">
        <ele>1963</ele>
        <time>2019-01-20T12:57:32.000Z</time>
      </trkpt>
      <trkpt lat="45.17278" lon="5.93594">
        <ele>1963</ele>
        <time>2019-01-20T12:57:33.000Z</time>
      </trkpt>
      <trkpt lat="45.17281" lon="5.93593">
        <ele>1963</ele>
        <time>2019-01-20T12:57:34.000Z</time>
      </trkpt>
      <trkpt lat="45.17283" lon="5.93592">
        <ele>1962</ele>
        <time>2019-01-20T12:57:35.000Z</time>
      </trkpt>
      <trkpt lat="45.17283" lon="5.93592">
        <ele>1962</ele>
        <time>2019-01-20T12:57:36.000Z</time>
      </trkpt>
      <trkpt lat="45.17283" lon="5.93592">
        <ele>1962</ele>
        <time>2019-01-20T12:57:37.000Z</time>
      </trkpt>
      <trkpt lat="45.17283" lon="5.93592">
        <ele>1962</ele>
        <time>2019-01-20T12:57:38.000Z</time>
      </trkpt>
      <trkpt lat="45.17283" lon="5.93592">
        <ele>1962</ele>
        <time>2019-01-20T12:57:40.000Z</time>
      </trkpt>
      <trkpt lat="45.17283" lon="5.93592">
        <ele>1962</ele>
        <time>2019-01-20T12:57:41.000Z</time>
      </trkpt>
      <trkpt lat="45.17286" lon="5.93591">
        <ele>1962</ele>
        <time>2019-01-20T12:57:42.000Z</time>
      </trkpt>
      <trkpt lat="45.17288" lon="5.9359">
        <ele>1961</ele>
        <time>2019-01-20T12:57:43.000Z</time>
      </trkpt>
      <trkpt lat="45.1729" lon="5.9359">
        <ele>1961</ele>
        <time>2019-01-20T12:57:44.000Z</time>
      </trkpt>
      <trkpt lat="45.17293" lon="5.9359">
        <ele>1960</ele>
        <time>2019-01-20T12:57:45.000Z</time>
      </trkpt>
      <trkpt lat="45.17296" lon="5.93589">
        <ele>1959</ele>
        <time>2019-01-20T12:57:46.000Z</time>
      </trkpt>
      <trkpt lat="45.17298" lon="5.93587">
        <ele>1958</ele>
        <time>2019-01-20T12:57:47.000Z</time>
      </trkpt>
      <trkpt lat="45.17298" lon="5.93584">
        <ele>1958</ele>
        <time>2019-01-20T12:57:48.000Z</time>
      </trkpt>
      <trkpt lat="45.17298" lon="5.93584">
        <ele>1958</ele>
        <time>2019-01-20T12:57:49.000Z</time>
      </trkpt>
      <trkpt lat="45.17296" lon="5.93582">
        <ele>1957</ele>
        <time>2019-01-20T12:57:50.000Z</time>
      </trkpt>
      <trkpt lat="45.17296" lon="5.93582">
        <ele>1956</ele>
        <time>2019-01-20T12:57:51.000Z</time>
      </trkpt>
      <trkpt lat="45.17297" lon="5.93579">
        <ele>1956</ele>
        <time>2019-01-20T12:57:52.000Z</time>
      </trkpt>
      <trkpt lat="45.17297" lon="5.93579">
        <ele>1956</ele>
        <time>2019-01-20T12:57:53.000Z</time>
      </trkpt>
      <trkpt lat="45.17297" lon="5.93579">
        <ele>1956</ele>
        <time>2019-01-20T12:57:54.000Z</time>
      </trkpt>
      <trkpt lat="45.17297" lon="5.93579">
        <ele>1956</ele>
        <time>2019-01-20T12:57:55.000Z</time>
      </trkpt>
      <trkpt lat="45.17297" lon="5.93579">
        <ele>1956</ele>
        <time>2019-01-20T12:57:56.000Z</time>
      </trkpt>
      <trkpt lat="45.17297" lon="5.93573">
        <ele>1956</ele>
        <time>2019-01-20T12:57:57.000Z</time>
      </trkpt>
      <trkpt lat="45.17295" lon="5.93564">
        <ele>1956</ele>
        <time>2019-01-20T12:57:58.000Z</time>
      </trkpt>
      <trkpt lat="45.17294" lon="5.93562">
        <ele>1954.4</ele>
        <time>2019-01-20T12:57:59.000Z</time>
      </trkpt>
      <trkpt lat="45.17291" lon="5.93557">
        <ele>1954</ele>
        <time>2019-01-20T12:58:00.000Z</time>
      </trkpt>
      <trkpt lat="45.17288" lon="5.93552">
        <ele>1952</ele>
        <time>2019-01-20T12:58:01.000Z</time>
      </trkpt>
      <trkpt lat="45.17286" lon="5.93544">
        <ele>1949</ele>
        <time>2019-01-20T12:58:02.000Z</time>
      </trkpt>
      <trkpt lat="45.17283" lon="5.93535">
        <ele>1949</ele>
        <time>2019-01-20T12:58:03.000Z</time>
      </trkpt>
      <trkpt lat="45.17281" lon="5.93524">
        <ele>1947</ele>
        <time>2019-01-20T12:58:04.000Z</time>
      </trkpt>
      <trkpt lat="45.17279" lon="5.93508">
        <ele>1947</ele>
        <time>2019-01-20T12:58:05.000Z</time>
      </trkpt>
      <trkpt lat="45.17278" lon="5.93502">
        <ele>1946</ele>
        <time>2019-01-20T12:58:06.000Z</time>
      </trkpt>
      <trkpt lat="45.17277" lon="5.93495">
        <ele>1945</ele>
        <time>2019-01-20T12:58:07.000Z</time>
      </trkpt>
      <trkpt lat="45.17275" lon="5.9349">
        <ele>1944</ele>
        <time>2019-01-20T12:58:08.000Z</time>
      </trkpt>
      <trkpt lat="45.17275" lon="5.93485">
        <ele>1943</ele>
        <time>2019-01-20T12:58:09.000Z</time>
      </trkpt>
      <trkpt lat="45.17278" lon="5.93479">
        <ele>1942</ele>
        <time>2019-01-20T12:58:10.000Z</time>
      </trkpt>
      <trkpt lat="45.17283" lon="5.93476">
        <ele>1941</ele>
        <time>2019-01-20T12:58:11.000Z</time>
      </trkpt>
      <trkpt lat="45.17288" lon="5.93478">
        <ele>1941</ele>
        <time>2019-01-20T12:58:12.000Z</time>
      </trkpt>
      <trkpt lat="45.17292" lon="5.9348">
        <ele>1940</ele>
        <time>2019-01-20T12:58:13.000Z</time>
      </trkpt>
      <trkpt lat="45.17297" lon="5.93482">
        <ele>1940</ele>
        <time>2019-01-20T12:58:14.000Z</time>
      </trkpt>
      <trkpt lat="45.17301" lon="5.93485">
        <ele>1939</ele>
        <time>2019-01-20T12:58:15.000Z</time>
      </trkpt>
      <trkpt lat="45.17304" lon="5.93489">
        <ele>1938</ele>
        <time>2019-01-20T12:58:16.000Z</time>
      </trkpt>
      <trkpt lat="45.17308" lon="5.93498">
        <ele>1938</ele>
        <time>2019-01-20T12:58:17.000Z</time>
      </trkpt>
      <trkpt lat="45.1731" lon="5.935">
        <ele>1937.6</ele>
        <time>2019-01-20T12:58:18.000Z</time>
      </trkpt>
      <trkpt lat="45.17315" lon="5.93506">
        <ele>1937</ele>
        <time>2019-01-20T12:58:19.000Z</time>
      </trkpt>
      <trkpt lat="45.17321" lon="5.93513">
        <ele>1929</ele>
        <time>2019-01-20T12:58:20.000Z</time>
      </trkpt>
      <trkpt lat="45.17329" lon="5.9352">
        <ele>1930</ele>
        <time>2019-01-20T12:58:21.000Z</time>
      </trkpt>
      <trkpt lat="45.17334" lon="5.93528">
        <ele>1930</ele>
        <time>2019-01-20T12:58:22.000Z</time>
      </trkpt>
      <trkpt lat="45.17339" lon="5.93535">
        <ele>1929</ele>
        <time>2019-01-20T12:58:23.000Z</time>
      </trkpt>
      <trkpt lat="45.17345" lon="5.93546">
        <ele>1929</ele>
        <time>2019-01-20T12:58:24.000Z</time>
      </trkpt>
      <trkpt lat="45.17347" lon="5.9355">
        <ele>1927</ele>
        <time>2019-01-20T12:58:25.000Z</time>
      </trkpt>
      <trkpt lat="45.17351" lon="5.93557">
        <ele>1925</ele>
        <time>2019-01-20T12:58:26.000Z</time>
      </trkpt>
      <trkpt lat="45.17358" lon="5.93562">
        <ele>1924</ele>
        <time>2019-01-20T12:58:27.000Z</time>
      </trkpt>
      <trkpt lat="45.17366" lon="5.93564">
        <ele>1923</ele>
        <time>2019-01-20T12:58:28.000Z</time>
      </trkpt>
      <trkpt lat="45.17374" lon="5.93565">
        <ele>1921</ele>
        <time>2019-01-20T12:58:29.000Z</time>
      </trkpt>
      <trkpt lat="45.17385" lon="5.93563">
        <ele>1921</ele>
        <time>2019-01-20T12:58:30.000Z</time>
      </trkpt>
      <trkpt lat="45.17389" lon="5.93562">
        <ele>1919.6</ele>
        <time>2019-01-20T12:58:31.000Z</time>
      </trkpt>
      <trkpt lat="45.17394" lon="5.93558">
        <ele>1918</ele>
        <time>2019-01-20T12:58:32.000Z</time>
      </trkpt>
      <trkpt lat="45.17398" lon="5.93553">
        <ele>1918</ele>
        <time>2019-01-20T12:58:33.000Z</time>
      </trkpt>
      <trkpt lat="45.17398" lon="5.93549">
        <ele>1918</ele>
        <time>2019-01-20T12:58:34.000Z</time>
      </trkpt>
      <trkpt lat="45.17395" lon="5.93547">
        <ele>1918</ele>
        <time>2019-01-20T12:58:35.000Z</time>
      </trkpt>
      <trkpt lat="45.17393" lon="5.93541">
        <ele>1918</ele>
        <time>2019-01-20T12:58:36.000Z</time>
      </trkpt>
      <trkpt lat="45.17392" lon="5.93539">
        <ele>1917</ele>
        <time>2019-01-20T12:58:37.000Z</time>
      </trkpt>
      <trkpt lat="45.17391" lon="5.93534">
        <ele>1917</ele>
        <time>2019-01-20T12:58:38.000Z</time>
      </trkpt>
      <trkpt lat="45.17389" lon="5.93529">
        <ele>1917</ele>
        <time>2019-01-20T12:58:39.000Z</time>
      </trkpt>
      <trkpt lat="45.17388" lon="5.93521">
        <ele>1915</ele>
        <time>2019-01-20T12:58:40.000Z</time>
      </trkpt>
      <trkpt lat="45.17387" lon="5.93512">
        <ele>1914</ele>
        <time>2019-01-20T12:58:41.000Z</time>
      </trkpt>
      <trkpt lat="45.17386" lon="5.93499">
        <ele>1914</ele>
        <time>2019-01-20T12:58:42.000Z</time>
      </trkpt>
      <trkpt lat="45.17385" lon="5.93494">
        <ele>1912</ele>
        <time>2019-01-20T12:58:43.000Z</time>
      </trkpt>
      <trkpt lat="45.17384" lon="5.93485">
        <ele>1910</ele>
        <time>2019-01-20T12:58:44.000Z</time>
      </trkpt>
      <trkpt lat="45.17385" lon="5.93476">
        <ele>1910</ele>
        <time>2019-01-20T12:58:45.000Z</time>
      </trkpt>
      <trkpt lat="45.17385" lon="5.93467">
        <ele>1909</ele>
        <time>2019-01-20T12:58:46.000Z</time>
      </trkpt>
      <trkpt lat="45.17386" lon="5.93459">
        <ele>1908</ele>
        <time>2019-01-20T12:58:47.000Z</time>
      </trkpt>
      <trkpt lat="45.17387" lon="5.93453">
        <ele>1905</ele>
        <time>2019-01-20T12:58:48.000Z</time>
      </trkpt>
      <trkpt lat="45.17391" lon="5.93439">
        <ele>1905</ele>
        <time>2019-01-20T12:58:49.000Z</time>
      </trkpt>
      <trkpt lat="45.17392" lon="5.93434">
        <ele>1902.4</ele>
        <time>2019-01-20T12:58:50.000Z</time>
      </trkpt>
      <trkpt lat="45.17396" lon="5.93425">
        <ele>1903</ele>
        <time>2019-01-20T12:58:51.000Z</time>
      </trkpt>
      <trkpt lat="45.174" lon="5.93418">
        <ele>1903</ele>
        <time>2019-01-20T12:58:52.000Z</time>
      </trkpt>
      <trkpt lat="45.17403" lon="5.9341">
        <ele>1903</ele>
        <time>2019-01-20T12:58:53.000Z</time>
      </trkpt>
      <trkpt lat="45.17406" lon="5.93402">
        <ele>1902</ele>
        <time>2019-01-20T12:58:54.000Z</time>
      </trkpt>
      <trkpt lat="45.17409" lon="5.9339">
        <ele>1902</ele>
        <time>2019-01-20T12:58:55.000Z</time>
      </trkpt>
      <trkpt lat="45.1741" lon="5.93386">
        <ele>1901</ele>
        <time>2019-01-20T12:58:56.000Z</time>
      </trkpt>
      <trkpt lat="45.17411" lon="5.93372">
        <ele>1901</ele>
        <time>2019-01-20T12:58:57.000Z</time>
      </trkpt>
      <trkpt lat="45.17411" lon="5.93368">
        <ele>1899.6</ele>
        <time>2019-01-20T12:58:58.000Z</time>
      </trkpt>
      <trkpt lat="45.17411" lon="5.93358">
        <ele>1897</ele>
        <time>2019-01-20T12:58:59.000Z</time>
      </trkpt>
      <trkpt lat="45.17413" lon="5.9335">
        <ele>1897</ele>
        <time>2019-01-20T12:59:00.000Z</time>
      </trkpt>
      <trkpt lat="45.17414" lon="5.93343">
        <ele>1897</ele>
        <time>2019-01-20T12:59:01.000Z</time>
      </trkpt>
      <trkpt lat="45.17416" lon="5.93335">
        <ele>1896</ele>
        <time>2019-01-20T12:59:02.000Z</time>
      </trkpt>
      <trkpt lat="45.17419" lon="5.93328">
        <ele>1896</ele>
        <time>2019-01-20T12:59:03.000Z</time>
      </trkpt>
      <trkpt lat="45.17421" lon="5.93321">
        <ele>1895</ele>
        <time>2019-01-20T12:59:04.000Z</time>
      </trkpt>
      <trkpt lat="45.1742" lon="5.9331">
        <ele>1895</ele>
        <time>2019-01-20T12:59:05.000Z</time>
      </trkpt>
      <trkpt lat="45.17419" lon="5.93307">
        <ele>1893.6</ele>
        <time>2019-01-20T12:59:06.000Z</time>
      </trkpt>
      <trkpt lat="45.17417" lon="5.93301">
        <ele>1892</ele>
        <time>2019-01-20T12:59:07.000Z</time>
      </trkpt>
      <trkpt lat="45.17415" lon="5.93294">
        <ele>1891</ele>
        <time>2019-01-20T12:59:08.000Z</time>
      </trkpt>
      <trkpt lat="45.17414" lon="5.93288">
        <ele>1889</ele>
        <time>2019-01-20T12:59:09.000Z</time>
      </trkpt>
      <trkpt lat="45.17417" lon="5.93285">
        <ele>1888</ele>
        <time>2019-01-20T12:59:10.000Z</time>
      </trkpt>
      <trkpt lat="45.17423" lon="5.93286">
        <ele>1887</ele>
        <time>2019-01-20T12:59:11.000Z</time>
      </trkpt>
      <trkpt lat="45.17428" lon="5.93284">
        <ele>1886</ele>
        <time>2019-01-20T12:59:12.000Z</time>
      </trkpt>
      <trkpt lat="45.17434" lon="5.93281">
        <ele>1885</ele>
        <time>2019-01-20T12:59:13.000Z</time>
      </trkpt>
      <trkpt lat="45.17442" lon="5.93279">
        <ele>1885</ele>
        <time>2019-01-20T12:59:14.000Z</time>
      </trkpt>
      <trkpt lat="45.17444" lon="5.93279">
        <ele>1883.6</ele>
        <time>2019-01-20T12:59:15.000Z</time>
      </trkpt>
      <trkpt lat="45.1745" lon="5.93274">
        <ele>1883.6</ele>
        <time>2019-01-20T12:59:16.000Z</time>
      </trkpt>
      <trkpt lat="45.17452" lon="5.93272">
        <ele>1882.4</ele>
        <time>2019-01-20T12:59:17.000Z</time>
      </trkpt>
      <trkpt lat="45.17455" lon="5.93268">
        <ele>1880</ele>
        <time>2019-01-20T12:59:18.000Z</time>
      </trkpt>
      <trkpt lat="45.17462" lon="5.93268">
        <ele>1880</ele>
        <time>2019-01-20T12:59:19.000Z</time>
      </trkpt>
      <trkpt lat="45.17464" lon="5.93268">
        <ele>1879</ele>
        <time>2019-01-20T12:59:20.000Z</time>
      </trkpt>
      <trkpt lat="45.17468" lon="5.93268">
        <ele>1875</ele>
        <time>2019-01-20T12:59:21.000Z</time>
      </trkpt>
      <trkpt lat="45.17469" lon="5.93265">
        <ele>1873</ele>
        <time>2019-01-20T12:59:22.000Z</time>
      </trkpt>
      <trkpt lat="45.17471" lon="5.93262">
        <ele>1873</ele>
        <time>2019-01-20T12:59:23.000Z</time>
      </trkpt>
      <trkpt lat="45.17473" lon="5.93262">
        <ele>1872</ele>
        <time>2019-01-20T12:59:24.000Z</time>
      </trkpt>
      <trkpt lat="45.17476" lon="5.9326">
        <ele>1870</ele>
        <time>2019-01-20T12:59:25.000Z</time>
      </trkpt>
      <trkpt lat="45.17477" lon="5.93254">
        <ele>1869</ele>
        <time>2019-01-20T12:59:26.000Z</time>
      </trkpt>
      <trkpt lat="45.17478" lon="5.9325">
        <ele>1869</ele>
        <time>2019-01-20T12:59:27.000Z</time>
      </trkpt>
      <trkpt lat="45.1748" lon="5.93245">
        <ele>1868</ele>
        <time>2019-01-20T12:59:28.000Z</time>
      </trkpt>
      <trkpt lat="45.17482" lon="5.93241">
        <ele>1867</ele>
        <time>2019-01-20T12:59:29.000Z</time>
      </trkpt>
      <trkpt lat="45.17482" lon="5.93231">
        <ele>1866</ele>
        <time>2019-01-20T12:59:30.000Z</time>
      </trkpt>
      <trkpt lat="45.17481" lon="5.93224">
        <ele>1865.6</ele>
        <time>2019-01-20T12:59:32.000Z</time>
      </trkpt>
      <trkpt lat="45.17479" lon="5.93212">
        <ele>1865.6</ele>
        <time>2019-01-20T12:59:33.000Z</time>
      </trkpt>
      <trkpt lat="45.17478" lon="5.93208">
        <ele>1863</ele>
        <time>2019-01-20T12:59:34.000Z</time>
      </trkpt>
      <trkpt lat="45.17476" lon="5.932">
        <ele>1862</ele>
        <time>2019-01-20T12:59:35.000Z</time>
      </trkpt>
      <trkpt lat="45.17476" lon="5.93194">
        <ele>1861</ele>
        <time>2019-01-20T12:59:36.000Z</time>
      </trkpt>
      <trkpt lat="45.17475" lon="5.93185">
        <ele>1859</ele>
        <time>2019-01-20T12:59:37.000Z</time>
      </trkpt>
      <trkpt lat="45.17475" lon="5.93183">
        <ele>1858</ele>
        <time>2019-01-20T12:59:38.000Z</time>
      </trkpt>
      <trkpt lat="45.17472" lon="5.93171">
        <ele>1856</ele>
        <time>2019-01-20T12:59:39.000Z</time>
      </trkpt>
      <trkpt lat="45.17471" lon="5.93163">
        <ele>1856</ele>
        <time>2019-01-20T12:59:40.000Z</time>
      </trkpt>
      <trkpt lat="45.17469" lon="5.93155">
        <ele>1854.4</ele>
        <time>2019-01-20T12:59:41.000Z</time>
      </trkpt>
      <trkpt lat="45.17466" lon="5.93146">
        <ele>1853</ele>
        <time>2019-01-20T12:59:42.000Z</time>
      </trkpt>
      <trkpt lat="45.17463" lon="5.93142">
        <ele>1852</ele>
        <time>2019-01-20T12:59:43.000Z</time>
      </trkpt>
      <trkpt lat="45.1746" lon="5.9314">
        <ele>1851</ele>
        <time>2019-01-20T12:59:44.000Z</time>
      </trkpt>
      <trkpt lat="45.17457" lon="5.93136">
        <ele>1850</ele>
        <time>2019-01-20T12:59:45.000Z</time>
      </trkpt>
      <trkpt lat="45.17451" lon="5.93127">
        <ele>1848</ele>
        <time>2019-01-20T12:59:46.000Z</time>
      </trkpt>
      <trkpt lat="45.17449" lon="5.93124">
        <ele>1847</ele>
        <time>2019-01-20T12:59:47.000Z</time>
      </trkpt>
      <trkpt lat="45.17446" lon="5.93117">
        <ele>1847</ele>
        <time>2019-01-20T12:59:48.000Z</time>
      </trkpt>
      <trkpt lat="45.17445" lon="5.93106">
        <ele>1847</ele>
        <time>2019-01-20T12:59:49.000Z</time>
      </trkpt>
      <trkpt lat="45.17444" lon="5.93103">
        <ele>1846.4</ele>
        <time>2019-01-20T12:59:50.000Z</time>
      </trkpt>
      <trkpt lat="45.17442" lon="5.93088">
        <ele>1845</ele>
        <time>2019-01-20T12:59:51.000Z</time>
      </trkpt>
      <trkpt lat="45.17441" lon="5.93081">
        <ele>1845</ele>
        <time>2019-01-20T12:59:52.000Z</time>
      </trkpt>
      <trkpt lat="45.1744" lon="5.93074">
        <ele>1843.6</ele>
        <time>2019-01-20T12:59:53.000Z</time>
      </trkpt>
      <trkpt lat="45.17437" lon="5.93063">
        <ele>1843</ele>
        <time>2019-01-20T12:59:54.000Z</time>
      </trkpt>
      <trkpt lat="45.17436" lon="5.93044">
        <ele>1843</ele>
        <time>2019-01-20T12:59:55.000Z</time>
      </trkpt>
      <trkpt lat="45.17435" lon="5.93038">
        <ele>1839</ele>
        <time>2019-01-20T12:59:56.000Z</time>
      </trkpt>
      <trkpt lat="45.17435" lon="5.93028">
        <ele>1837</ele>
        <time>2019-01-20T12:59:57.000Z</time>
      </trkpt>
      <trkpt lat="45.17433" lon="5.9302">
        <ele>1836</ele>
        <time>2019-01-20T12:59:58.000Z</time>
      </trkpt>
      <trkpt lat="45.17429" lon="5.93013">
        <ele>1836</ele>
        <time>2019-01-20T12:59:59.000Z</time>
      </trkpt>
      <trkpt lat="45.17426" lon="5.93008">
        <ele>1836</ele>
        <time>2019-01-20T13:00:00.000Z</time>
      </trkpt>
      <trkpt lat="45.17423" lon="5.93002">
        <ele>1836</ele>
        <time>2019-01-20T13:00:01.000Z</time>
      </trkpt>
      <trkpt lat="45.17421" lon="5.92997">
        <ele>1836</ele>
        <time>2019-01-20T13:00:02.000Z</time>
      </trkpt>
      <trkpt lat="45.1742" lon="5.92992">
        <ele>1836</ele>
        <time>2019-01-20T13:00:03.000Z</time>
      </trkpt>
      <trkpt lat="45.1742" lon="5.92987">
        <ele>1835</ele>
        <time>2019-01-20T13:00:04.000Z</time>
      </trkpt>
      <trkpt lat="45.17418" lon="5.92983">
        <ele>1834</ele>
        <time>2019-01-20T13:00:05.000Z</time>
      </trkpt>
      <trkpt lat="45.17413" lon="5.92979">
        <ele>1834</ele>
        <time>2019-01-20T13:00:06.000Z</time>
      </trkpt>
      <trkpt lat="45.17412" lon="5.92977">
        <ele>1831.6</ele>
        <time>2019-01-20T13:00:07.000Z</time>
      </trkpt>
      <trkpt lat="45.17411" lon="5.92973">
        <ele>1829</ele>
        <time>2019-01-20T13:00:08.000Z</time>
      </trkpt>
      <trkpt lat="45.17408" lon="5.92969">
        <ele>1828</ele>
        <time>2019-01-20T13:00:09.000Z</time>
      </trkpt>
      <trkpt lat="45.17402" lon="5.92965">
        <ele>1827</ele>
        <time>2019-01-20T13:00:10.000Z</time>
      </trkpt>
      <trkpt lat="45.17394" lon="5.92964">
        <ele>1827</ele>
        <time>2019-01-20T13:00:11.000Z</time>
      </trkpt>
      <trkpt lat="45.17391" lon="5.92963">
        <ele>1824.4</ele>
        <time>2019-01-20T13:00:12.000Z</time>
      </trkpt>
      <trkpt lat="45.17387" lon="5.9296">
        <ele>1823</ele>
        <time>2019-01-20T13:00:13.000Z</time>
      </trkpt>
      <trkpt lat="45.17386" lon="5.92959">
        <ele>1822</ele>
        <time>2019-01-20T13:00:14.000Z</time>
      </trkpt>
      <trkpt lat="45.17385" lon="5.92956">
        <ele>1821</ele>
        <time>2019-01-20T13:00:15.000Z</time>
      </trkpt>
      <trkpt lat="45.17385" lon="5.92943">
        <ele>1820</ele>
        <time>2019-01-20T13:00:16.000Z</time>
      </trkpt>
      <trkpt lat="45.17386" lon="5.92939">
        <ele>1820</ele>
        <time>2019-01-20T13:00:17.000Z</time>
      </trkpt>
      <trkpt lat="45.17385" lon="5.92935">
        <ele>1820</ele>
        <time>2019-01-20T13:00:18.000Z</time>
      </trkpt>
      <trkpt lat="45.17384" lon="5.92931">
        <ele>1819</ele>
        <time>2019-01-20T13:00:19.000Z</time>
      </trkpt>
      <trkpt lat="45.17386" lon="5.92928">
        <ele>1816</ele>
        <time>2019-01-20T13:00:20.000Z</time>
      </trkpt>
      <trkpt lat="45.1739" lon="5.92927">
        <ele>1816</ele>
        <time>2019-01-20T13:00:21.000Z</time>
      </trkpt>
      <trkpt lat="45.17391" lon="5.92926">
        <ele>1815</ele>
        <time>2019-01-20T13:00:22.000Z</time>
      </trkpt>
      <trkpt lat="45.17392" lon="5.92926">
        <ele>1815</ele>
        <time>2019-01-20T13:00:23.000Z</time>
      </trkpt>
      <trkpt lat="45.17392" lon="5.92926">
        <ele>1814</ele>
        <time>2019-01-20T13:00:24.000Z</time>
      </trkpt>
      <trkpt lat="45.17388" lon="5.92922">
        <ele>1813</ele>
        <time>2019-01-20T13:00:25.000Z</time>
      </trkpt>
      <trkpt lat="45.17387" lon="5.92918">
        <ele>1812</ele>
        <time>2019-01-20T13:00:26.000Z</time>
      </trkpt>
      <trkpt lat="45.17386" lon="5.92913">
        <ele>1811</ele>
        <time>2019-01-20T13:00:27.000Z</time>
      </trkpt>
      <trkpt lat="45.17384" lon="5.92907">
        <ele>1810</ele>
        <time>2019-01-20T13:00:28.000Z</time>
      </trkpt>
      <trkpt lat="45.17382" lon="5.92899">
        <ele>1809</ele>
        <time>2019-01-20T13:00:29.000Z</time>
      </trkpt>
      <trkpt lat="45.1738" lon="5.92888">
        <ele>1809</ele>
        <time>2019-01-20T13:00:30.000Z</time>
      </trkpt>
      <trkpt lat="45.17378" lon="5.92885">
        <ele>1806</ele>
        <time>2019-01-20T13:00:31.000Z</time>
      </trkpt>
      <trkpt lat="45.17376" lon="5.92876">
        <ele>1805</ele>
        <time>2019-01-20T13:00:32.000Z</time>
      </trkpt>
      <trkpt lat="45.17375" lon="5.92868">
        <ele>1803</ele>
        <time>2019-01-20T13:00:33.000Z</time>
      </trkpt>
      <trkpt lat="45.17375" lon="5.92865">
        <ele>1802</ele>
        <time>2019-01-20T13:00:34.000Z</time>
      </trkpt>
      <trkpt lat="45.17375" lon="5.92865">
        <ele>1802</ele>
        <time>2019-01-20T13:00:35.000Z</time>
      </trkpt>
      <trkpt lat="45.17375" lon="5.92865">
        <ele>1801</ele>
        <time>2019-01-20T13:00:36.000Z</time>
      </trkpt>
      <trkpt lat="45.17373" lon="5.92861">
        <ele>1800</ele>
        <time>2019-01-20T13:00:37.000Z</time>
      </trkpt>
      <trkpt lat="45.17372" lon="5.92857">
        <ele>1799</ele>
        <time>2019-01-20T13:00:38.000Z</time>
      </trkpt>
      <trkpt lat="45.1737" lon="5.92852">
        <ele>1797</ele>
        <time>2019-01-20T13:00:39.000Z</time>
      </trkpt>
      <trkpt lat="45.17367" lon="5.92846">
        <ele>1795</ele>
        <time>2019-01-20T13:00:40.000Z</time>
      </trkpt>
      <trkpt lat="45.17361" lon="5.92843">
        <ele>1794</ele>
        <time>2019-01-20T13:00:41.000Z</time>
      </trkpt>
      <trkpt lat="45.17351" lon="5.92839">
        <ele>1794</ele>
        <time>2019-01-20T13:00:42.000Z</time>
      </trkpt>
      <trkpt lat="45.17348" lon="5.92838">
        <ele>1792.4</ele>
        <time>2019-01-20T13:00:43.000Z</time>
      </trkpt>
      <trkpt lat="45.17342" lon="5.92834">
        <ele>1792</ele>
        <time>2019-01-20T13:00:44.000Z</time>
      </trkpt>
      <trkpt lat="45.17338" lon="5.9283">
        <ele>1792</ele>
        <time>2019-01-20T13:00:45.000Z</time>
      </trkpt>
      <trkpt lat="45.17335" lon="5.92824">
        <ele>1791</ele>
        <time>2019-01-20T13:00:46.000Z</time>
      </trkpt>
      <trkpt lat="45.17332" lon="5.92818">
        <ele>1789</ele>
        <time>2019-01-20T13:00:47.000Z</time>
      </trkpt>
      <trkpt lat="45.1733" lon="5.92811">
        <ele>1787</ele>
        <time>2019-01-20T13:00:48.000Z</time>
      </trkpt>
      <trkpt lat="45.17324" lon="5.92798">
        <ele>1787</ele>
        <time>2019-01-20T13:00:49.000Z</time>
      </trkpt>
      <trkpt lat="45.17322" lon="5.92793">
        <ele>1783.6</ele>
        <time>2019-01-20T13:00:50.000Z</time>
      </trkpt>
      <trkpt lat="45.17318" lon="5.92778">
        <ele>1783.6</ele>
        <time>2019-01-20T13:00:51.000Z</time>
      </trkpt>
      <trkpt lat="45.17317" lon="5.92773">
        <ele>1781.6</ele>
        <time>2019-01-20T13:00:52.000Z</time>
      </trkpt>
      <trkpt lat="45.17316" lon="5.92763">
        <ele>1779</ele>
        <time>2019-01-20T13:00:53.000Z</time>
      </trkpt>
      <trkpt lat="45.17314" lon="5.92754">
        <ele>1778</ele>
        <time>2019-01-20T13:00:54.000Z</time>
      </trkpt>
      <trkpt lat="45.17312" lon="5.92745">
        <ele>1778</ele>
        <time>2019-01-20T13:00:55.000Z</time>
      </trkpt>
      <trkpt lat="45.17311" lon="5.92738">
        <ele>1778</ele>
        <time>2019-01-20T13:00:56.000Z</time>
      </trkpt>
      <trkpt lat="45.1731" lon="5.9273">
        <ele>1778</ele>
        <time>2019-01-20T13:00:57.000Z</time>
      </trkpt>
      <trkpt lat="45.1731" lon="5.92729">
        <ele>1777</ele>
        <time>2019-01-20T13:00:58.000Z</time>
      </trkpt>
      <trkpt lat="45.17309" lon="5.92729">
        <ele>1777</ele>
        <time>2019-01-20T13:00:59.000Z</time>
      </trkpt>
      <trkpt lat="45.17309" lon="5.92728">
        <ele>1777</ele>
        <time>2019-01-20T13:01:00.000Z</time>
      </trkpt>
      <trkpt lat="45.17308" lon="5.92727">
        <ele>1776</ele>
        <time>2019-01-20T13:01:46.000Z</time>
      </trkpt>
      <trkpt lat="45.17308" lon="5.92727">
        <ele>1776</ele>
        <time>2019-01-20T13:01:47.000Z</time>
      </trkpt>
      <trkpt lat="45.17308" lon="5.92726">
        <ele>1776</ele>
        <time>2019-01-20T13:01:48.000Z</time>
      </trkpt>
      <trkpt lat="45.17307" lon="5.92726">
        <ele>1776</ele>
        <time>2019-01-20T13:01:49.000Z</time>
      </trkpt>
      <trkpt lat="45.17307" lon="5.92725">
        <ele>1776</ele>
        <time>2019-01-20T13:01:50.000Z</time>
      </trkpt>
      <trkpt lat="45.17306" lon="5.92725">
        <ele>1775</ele>
        <time>2019-01-20T13:01:51.000Z</time>
      </trkpt>
      <trkpt lat="45.17303" lon="5.92711">
        <ele>1775</ele>
        <time>2019-01-20T13:01:52.000Z</time>
      </trkpt>
      <trkpt lat="45.17304" lon="5.92705">
        <ele>1772</ele>
        <time>2019-01-20T13:01:53.000Z</time>
      </trkpt>
      <trkpt lat="45.17306" lon="5.92699">
        <ele>1770.4</ele>
        <time>2019-01-20T13:01:55.000Z</time>
      </trkpt>
      <trkpt lat="45.17309" lon="5.92692">
        <ele>1768</ele>
        <time>2019-01-20T13:01:56.000Z</time>
      </trkpt>
      <trkpt lat="45.1731" lon="5.9269">
        <ele>1767</ele>
        <time>2019-01-20T13:01:57.000Z</time>
      </trkpt>
      <trkpt lat="45.17311" lon="5.92689">
        <ele>1766</ele>
        <time>2019-01-20T13:01:58.000Z</time>
      </trkpt>
      <trkpt lat="45.17311" lon="5.92689">
        <ele>1764</ele>
        <time>2019-01-20T13:01:59.000Z</time>
      </trkpt>
      <trkpt lat="45.17318" lon="5.92681">
        <ele>1762</ele>
        <time>2019-01-20T13:02:00.000Z</time>
      </trkpt>
      <trkpt lat="45.1732" lon="5.92677">
        <ele>1761</ele>
        <time>2019-01-20T13:02:01.000Z</time>
      </trkpt>
      <trkpt lat="45.1732" lon="5.92672">
        <ele>1759</ele>
        <time>2019-01-20T13:02:02.000Z</time>
      </trkpt>
      <trkpt lat="45.17318" lon="5.9267">
        <ele>1758</ele>
        <time>2019-01-20T13:02:03.000Z</time>
      </trkpt>
      <trkpt lat="45.17315" lon="5.92671">
        <ele>1757</ele>
        <time>2019-01-20T13:02:04.000Z</time>
      </trkpt>
      <trkpt lat="45.17313" lon="5.9267">
        <ele>1755.6</ele>
        <time>2019-01-20T13:02:06.000Z</time>
      </trkpt>
      <trkpt lat="45.17314" lon="5.92666">
        <ele>1755</ele>
        <time>2019-01-20T13:02:07.000Z</time>
      </trkpt>
      <trkpt lat="45.17314" lon="5.92666">
        <ele>1754</ele>
        <time>2019-01-20T13:02:08.000Z</time>
      </trkpt>
      <trkpt lat="45.17314" lon="5.92666">
        <ele>1754</ele>
        <time>2019-01-20T13:02:09.000Z</time>
      </trkpt>
      <trkpt lat="45.17314" lon="5.92666">
        <ele>1754</ele>
        <time>2019-01-20T13:02:10.000Z</time>
      </trkpt>
      <trkpt lat="45.17314" lon="5.92666">
        <ele>1754</ele>
        <time>2019-01-20T13:02:11.000Z</time>
      </trkpt>
      <trkpt lat="45.17316" lon="5.92664">
        <ele>1754</ele>
        <time>2019-01-20T13:02:12.000Z</time>
      </trkpt>
      <trkpt lat="45.17316" lon="5.92664">
        <ele>1754</ele>
        <time>2019-01-20T13:02:13.000Z</time>
      </trkpt>
      <trkpt lat="45.17316" lon="5.92664">
        <ele>1754</ele>
        <time>2019-01-20T13:02:15.000Z</time>
      </trkpt>
      <trkpt lat="45.17318" lon="5.9266">
        <ele>1754</ele>
        <time>2019-01-20T13:02:16.000Z</time>
      </trkpt>
      <trkpt lat="45.17319" lon="5.92658">
        <ele>1753</ele>
        <time>2019-01-20T13:02:17.000Z</time>
      </trkpt>
      <trkpt lat="45.17321" lon="5.92656">
        <ele>1753</ele>
        <time>2019-01-20T13:02:18.000Z</time>
      </trkpt>
      <trkpt lat="45.17324" lon="5.92654">
        <ele>1752</ele>
        <time>2019-01-20T13:02:19.000Z</time>
      </trkpt>
      <trkpt lat="45.17328" lon="5.9265">
        <ele>1749</ele>
        <time>2019-01-20T13:02:20.000Z</time>
      </trkpt>
      <trkpt lat="45.17332" lon="5.92647">
        <ele>1749</ele>
        <time>2019-01-20T13:02:21.000Z</time>
      </trkpt>
      <trkpt lat="45.17336" lon="5.92644">
        <ele>1748</ele>
        <time>2019-01-20T13:02:22.000Z</time>
      </trkpt>
      <trkpt lat="45.1734" lon="5.92639">
        <ele>1747</ele>
        <time>2019-01-20T13:02:23.000Z</time>
      </trkpt>
      <trkpt lat="45.17346" lon="5.92632">
        <ele>1747</ele>
        <time>2019-01-20T13:02:24.000Z</time>
      </trkpt>
      <trkpt lat="45.17348" lon="5.9263">
        <ele>1744.4</ele>
        <time>2019-01-20T13:02:25.000Z</time>
      </trkpt>
      <trkpt lat="45.17354" lon="5.92623">
        <ele>1744.4</ele>
        <time>2019-01-20T13:02:26.000Z</time>
      </trkpt>
      <trkpt lat="45.17356" lon="5.92621">
        <ele>1743</ele>
        <time>2019-01-20T13:02:27.000Z</time>
      </trkpt>
      <trkpt lat="45.17359" lon="5.92616">
        <ele>1739</ele>
        <time>2019-01-20T13:02:28.000Z</time>
      </trkpt>
      <trkpt lat="45.17362" lon="5.9261">
        <ele>1738</ele>
        <time>2019-01-20T13:02:29.000Z</time>
      </trkpt>
      <trkpt lat="45.17365" lon="5.92605">
        <ele>1737</ele>
        <time>2019-01-20T13:02:30.000Z</time>
      </trkpt>
      <trkpt lat="45.17365" lon="5.92605">
        <ele>1735</ele>
        <time>2019-01-20T13:02:31.000Z</time>
      </trkpt>
      <trkpt lat="45.17371" lon="5.92595">
        <ele>1734</ele>
        <time>2019-01-20T13:02:32.000Z</time>
      </trkpt>
      <trkpt lat="45.17374" lon="5.92592">
        <ele>1733</ele>
        <time>2019-01-20T13:02:33.000Z</time>
      </trkpt>
      <trkpt lat="45.17377" lon="5.92587">
        <ele>1732</ele>
        <time>2019-01-20T13:02:34.000Z</time>
      </trkpt>
      <trkpt lat="45.1738" lon="5.92582">
        <ele>1731</ele>
        <time>2019-01-20T13:02:35.000Z</time>
      </trkpt>
      <trkpt lat="45.17384" lon="5.92578">
        <ele>1731</ele>
        <time>2019-01-20T13:02:36.000Z</time>
      </trkpt>
      <trkpt lat="45.1739" lon="5.9257">
        <ele>1731</ele>
        <time>2019-01-20T13:02:37.000Z</time>
      </trkpt>
      <trkpt lat="45.17392" lon="5.92568">
        <ele>1729.6</ele>
        <time>2019-01-20T13:02:38.000Z</time>
      </trkpt>
      <trkpt lat="45.17395" lon="5.92564">
        <ele>1728</ele>
        <time>2019-01-20T13:02:39.000Z</time>
      </trkpt>
      <trkpt lat="45.17399" lon="5.92562">
        <ele>1727</ele>
        <time>2019-01-20T13:02:40.000Z</time>
      </trkpt>
      <trkpt lat="45.17402" lon="5.92559">
        <ele>1726</ele>
        <time>2019-01-20T13:02:41.000Z</time>
      </trkpt>
      <trkpt lat="45.17405" lon="5.92557">
        <ele>1725</ele>
        <time>2019-01-20T13:02:42.000Z</time>
      </trkpt>
      <trkpt lat="45.17409" lon="5.92554">
        <ele>1725</ele>
        <time>2019-01-20T13:02:43.000Z</time>
      </trkpt>
      <trkpt lat="45.1741" lon="5.92552">
        <ele>1724</ele>
        <time>2019-01-20T13:02:44.000Z</time>
      </trkpt>
      <trkpt lat="45.17413" lon="5.92549">
        <ele>1724</ele>
        <time>2019-01-20T13:02:45.000Z</time>
      </trkpt>
      <trkpt lat="45.17416" lon="5.92546">
        <ele>1723</ele>
        <time>2019-01-20T13:02:46.000Z</time>
      </trkpt>
      <trkpt lat="45.1742" lon="5.92543">
        <ele>1722</ele>
        <time>2019-01-20T13:02:47.000Z</time>
      </trkpt>
      <trkpt lat="45.17425" lon="5.92541">
        <ele>1721</ele>
        <time>2019-01-20T13:02:48.000Z</time>
      </trkpt>
      <trkpt lat="45.1743" lon="5.92539">
        <ele>1721</ele>
        <time>2019-01-20T13:02:49.000Z</time>
      </trkpt>
      <trkpt lat="45.17432" lon="5.92539">
        <ele>1719.6</ele>
        <time>2019-01-20T13:02:50.000Z</time>
      </trkpt>
      <trkpt lat="45.17436" lon="5.92537">
        <ele>1718</ele>
        <time>2019-01-20T13:02:51.000Z</time>
      </trkpt>
      <trkpt lat="45.17441" lon="5.92534">
        <ele>1717</ele>
        <time>2019-01-20T13:02:52.000Z</time>
      </trkpt>
      <trkpt lat="45.17446" lon="5.92533">
        <ele>1716</ele>
        <time>2019-01-20T13:02:53.000Z</time>
      </trkpt>
      <trkpt lat="45.17451" lon="5.92531">
        <ele>1715</ele>
        <time>2019-01-20T13:02:54.000Z</time>
      </trkpt>
      <trkpt lat="45.17455" lon="5.9253">
        <ele>1714</ele>
        <time>2019-01-20T13:02:55.000Z</time>
      </trkpt>
      <trkpt lat="45.1746" lon="5.92529">
        <ele>1713</ele>
        <time>2019-01-20T13:02:56.000Z</time>
      </trkpt>
      <trkpt lat="45.17464" lon="5.92527">
        <ele>1712</ele>
        <time>2019-01-20T13:02:57.000Z</time>
      </trkpt>
      <trkpt lat="45.17468" lon="5.92525">
        <ele>1711</ele>
        <time>2019-01-20T13:02:58.000Z</time>
      </trkpt>
      <trkpt lat="45.17473" lon="5.92524">
        <ele>1711</ele>
        <time>2019-01-20T13:02:59.000Z</time>
      </trkpt>
      <trkpt lat="45.17478" lon="5.92524">
        <ele>1710</ele>
        <time>2019-01-20T13:03:00.000Z</time>
      </trkpt>
      <trkpt lat="45.17484" lon="5.92523">
        <ele>1710</ele>
        <time>2019-01-20T13:03:01.000Z</time>
      </trkpt>
      <trkpt lat="45.17487" lon="5.92523">
        <ele>1709</ele>
        <time>2019-01-20T13:03:02.000Z</time>
      </trkpt>
      <trkpt lat="45.17491" lon="5.92524">
        <ele>1708.4</ele>
        <time>2019-01-20T13:03:03.000Z</time>
      </trkpt>
      <trkpt lat="45.17496" lon="5.92526">
        <ele>1708</ele>
        <time>2019-01-20T13:03:04.000Z</time>
      </trkpt>
      <trkpt lat="45.175" lon="5.92529">
        <ele>1706</ele>
        <time>2019-01-20T13:03:05.000Z</time>
      </trkpt>
      <trkpt lat="45.17502" lon="5.92527">
        <ele>1705</ele>
        <time>2019-01-20T13:03:06.000Z</time>
      </trkpt>
      <trkpt lat="45.17501" lon="5.92523">
        <ele>1703</ele>
        <time>2019-01-20T13:03:07.000Z</time>
      </trkpt>
      <trkpt lat="45.17499" lon="5.92519">
        <ele>1702</ele>
        <time>2019-01-20T13:03:08.000Z</time>
      </trkpt>
      <trkpt lat="45.17496" lon="5.92515">
        <ele>1701</ele>
        <time>2019-01-20T13:03:09.000Z</time>
      </trkpt>
      <trkpt lat="45.17492" lon="5.92512">
        <ele>1700</ele>
        <time>2019-01-20T13:03:10.000Z</time>
      </trkpt>
      <trkpt lat="45.17487" lon="5.92509">
        <ele>1700</ele>
        <time>2019-01-20T13:03:11.000Z</time>
      </trkpt>
      <trkpt lat="45.1748" lon="5.92505">
        <ele>1700</ele>
        <time>2019-01-20T13:03:12.000Z</time>
      </trkpt>
      <trkpt lat="45.17478" lon="5.92504">
        <ele>1698.4</ele>
        <time>2019-01-20T13:03:13.000Z</time>
      </trkpt>
      <trkpt lat="45.17474" lon="5.92499">
        <ele>1697</ele>
        <time>2019-01-20T13:03:14.000Z</time>
      </trkpt>
      <trkpt lat="45.17467" lon="5.92488">
        <ele>1695</ele>
        <time>2019-01-20T13:03:15.000Z</time>
      </trkpt>
      <trkpt lat="45.17466" lon="5.92484">
        <ele>1693</ele>
        <time>2019-01-20T13:03:16.000Z</time>
      </trkpt>
      <trkpt lat="45.17462" lon="5.9247">
        <ele>1692</ele>
        <time>2019-01-20T13:03:17.000Z</time>
      </trkpt>
      <trkpt lat="45.17461" lon="5.92465">
        <ele>1691</ele>
        <time>2019-01-20T13:03:18.000Z</time>
      </trkpt>
      <trkpt lat="45.1746" lon="5.92455">
        <ele>1691</ele>
        <time>2019-01-20T13:03:19.000Z</time>
      </trkpt>
      <trkpt lat="45.17461" lon="5.92445">
        <ele>1691</ele>
        <time>2019-01-20T13:03:20.000Z</time>
      </trkpt>
      <trkpt lat="45.17462" lon="5.92442">
        <ele>1690</ele>
        <time>2019-01-20T13:03:21.000Z</time>
      </trkpt>
      <trkpt lat="45.17466" lon="5.92439">
        <ele>1691</ele>
        <time>2019-01-20T13:03:22.000Z</time>
      </trkpt>
      <trkpt lat="45.17469" lon="5.92435">
        <ele>1691</ele>
        <time>2019-01-20T13:03:23.000Z</time>
      </trkpt>
      <trkpt lat="45.17469" lon="5.92435">
        <ele>1691</ele>
        <time>2019-01-20T13:03:24.000Z</time>
      </trkpt>
      <trkpt lat="45.17473" lon="5.92427">
        <ele>1691</ele>
        <time>2019-01-20T13:03:25.000Z</time>
      </trkpt>
      <trkpt lat="45.17475" lon="5.92424">
        <ele>1691</ele>
        <time>2019-01-20T13:03:26.000Z</time>
      </trkpt>
      <trkpt lat="45.17477" lon="5.9242">
        <ele>1690</ele>
        <time>2019-01-20T13:03:27.000Z</time>
      </trkpt>
      <trkpt lat="45.17479" lon="5.92414">
        <ele>1690</ele>
        <time>2019-01-20T13:03:28.000Z</time>
      </trkpt>
      <trkpt lat="45.17481" lon="5.92408">
        <ele>1689</ele>
        <time>2019-01-20T13:03:29.000Z</time>
      </trkpt>
      <trkpt lat="45.17484" lon="5.92401">
        <ele>1689</ele>
        <time>2019-01-20T13:03:30.000Z</time>
      </trkpt>
      <trkpt lat="45.17487" lon="5.92394">
        <ele>1688</ele>
        <time>2019-01-20T13:03:31.000Z</time>
      </trkpt>
      <trkpt lat="45.17492" lon="5.92387">
        <ele>1688</ele>
        <time>2019-01-20T13:03:32.000Z</time>
      </trkpt>
      <trkpt lat="45.17494" lon="5.92385">
        <ele>1687</ele>
        <time>2019-01-20T13:03:33.000Z</time>
      </trkpt>
      <trkpt lat="45.17498" lon="5.92383">
        <ele>1687</ele>
        <time>2019-01-20T13:03:34.000Z</time>
      </trkpt>
      <trkpt lat="45.17502" lon="5.92381">
        <ele>1686</ele>
        <time>2019-01-20T13:03:35.000Z</time>
      </trkpt>
      <trkpt lat="45.17505" lon="5.9238">
        <ele>1686</ele>
        <time>2019-01-20T13:03:36.000Z</time>
      </trkpt>
      <trkpt lat="45.17505" lon="5.9238">
        <ele>1686</ele>
        <time>2019-01-20T13:03:37.000Z</time>
      </trkpt>
      <trkpt lat="45.17505" lon="5.9238">
        <ele>1686</ele>
        <time>2019-01-20T13:03:38.000Z</time>
      </trkpt>
      <trkpt lat="45.17505" lon="5.9238">
        <ele>1685</ele>
        <time>2019-01-20T13:03:39.000Z</time>
      </trkpt>
      <trkpt lat="45.17505" lon="5.9238">
        <ele>1684.4</ele>
        <time>2019-01-20T13:03:41.000Z</time>
      </trkpt>
      <trkpt lat="45.17505" lon="5.9238">
        <ele>1684</ele>
        <time>2019-01-20T13:03:42.000Z</time>
      </trkpt>
      <trkpt lat="45.17516" lon="5.92379">
        <ele>1684</ele>
        <time>2019-01-20T13:03:43.000Z</time>
      </trkpt>
      <trkpt lat="45.17519" lon="5.92377">
        <ele>1684</ele>
        <time>2019-01-20T13:03:44.000Z</time>
      </trkpt>
      <trkpt lat="45.17521" lon="5.92376">
        <ele>1684</ele>
        <time>2019-01-20T13:03:45.000Z</time>
      </trkpt>
      <trkpt lat="45.17524" lon="5.92375">
        <ele>1684</ele>
        <time>2019-01-20T13:03:46.000Z</time>
      </trkpt>
      <trkpt lat="45.17528" lon="5.92375">
        <ele>1683</ele>
        <time>2019-01-20T13:03:47.000Z</time>
      </trkpt>
      <trkpt lat="45.17531" lon="5.92373">
        <ele>1683</ele>
        <time>2019-01-20T13:03:48.000Z</time>
      </trkpt>
      <trkpt lat="45.17534" lon="5.92372">
        <ele>1683</ele>
        <time>2019-01-20T13:03:49.000Z</time>
      </trkpt>
      <trkpt lat="45.17537" lon="5.92369">
        <ele>1683</ele>
        <time>2019-01-20T13:03:50.000Z</time>
      </trkpt>
      <trkpt lat="45.17537" lon="5.92369">
        <ele>1682</ele>
        <time>2019-01-20T13:03:52.000Z</time>
      </trkpt>
      <trkpt lat="45.17544" lon="5.92358">
        <ele>1682</ele>
        <time>2019-01-20T13:03:53.000Z</time>
      </trkpt>
      <trkpt lat="45.17544" lon="5.92358">
        <ele>1682</ele>
        <time>2019-01-20T13:03:54.000Z</time>
      </trkpt>
      <trkpt lat="45.17544" lon="5.92358">
        <ele>1682</ele>
        <time>2019-01-20T13:03:55.000Z</time>
      </trkpt>
      <trkpt lat="45.17544" lon="5.92358">
        <ele>1682</ele>
        <time>2019-01-20T13:03:56.000Z</time>
      </trkpt>
      <trkpt lat="45.17544" lon="5.92358">
        <ele>1682</ele>
        <time>2019-01-20T13:03:57.000Z</time>
      </trkpt>
      <trkpt lat="45.17541" lon="5.92345">
        <ele>1683</ele>
        <time>2019-01-20T13:03:58.000Z</time>
      </trkpt>
      <trkpt lat="45.17541" lon="5.92345">
        <ele>1683</ele>
        <time>2019-01-20T13:04:00.000Z</time>
      </trkpt>
      <trkpt lat="45.17541" lon="5.92345">
        <ele>1683</ele>
        <time>2019-01-20T13:04:01.000Z</time>
      </trkpt>
      <trkpt lat="45.17541" lon="5.92345">
        <ele>1683</ele>
        <time>2019-01-20T13:04:02.000Z</time>
      </trkpt>
      <trkpt lat="45.17541" lon="5.92345">
        <ele>1682</ele>
        <time>2019-01-20T13:04:03.000Z</time>
      </trkpt>
      <trkpt lat="45.17539" lon="5.92339">
        <ele>1682</ele>
        <time>2019-01-20T13:04:04.000Z</time>
      </trkpt>
      <trkpt lat="45.17539" lon="5.92339">
        <ele>1682</ele>
        <time>2019-01-20T13:04:05.000Z</time>
      </trkpt>
      <trkpt lat="45.17539" lon="5.92339">
        <ele>1682</ele>
        <time>2019-01-20T13:04:06.000Z</time>
      </trkpt>
      <trkpt lat="45.17536" lon="5.92334">
        <ele>1682</ele>
        <time>2019-01-20T13:04:07.000Z</time>
      </trkpt>
      <trkpt lat="45.17535" lon="5.92332">
        <ele>1682</ele>
        <time>2019-01-20T13:04:08.000Z</time>
      </trkpt>
      <trkpt lat="45.17535" lon="5.92332">
        <ele>1682</ele>
        <time>2019-01-20T13:04:09.000Z</time>
      </trkpt>
      <trkpt lat="45.17533" lon="5.92328">
        <ele>1682</ele>
        <time>2019-01-20T13:04:10.000Z</time>
      </trkpt>
      <trkpt lat="45.17533" lon="5.92328">
        <ele>1682</ele>
        <time>2019-01-20T13:04:11.000Z</time>
      </trkpt>
      <trkpt lat="45.17533" lon="5.92328">
        <ele>1682</ele>
        <time>2019-01-20T13:04:12.000Z</time>
      </trkpt>
      <trkpt lat="45.17531" lon="5.92325">
        <ele>1682</ele>
        <time>2019-01-20T13:04:13.000Z</time>
      </trkpt>
      <trkpt lat="45.17531" lon="5.92325">
        <ele>1682</ele>
        <time>2019-01-20T13:04:14.000Z</time>
      </trkpt>
      <trkpt lat="45.17531" lon="5.92325">
        <ele>1682</ele>
        <time>2019-01-20T13:04:15.000Z</time>
      </trkpt>
      <trkpt lat="45.17531" lon="5.92325">
        <ele>1682</ele>
        <time>2019-01-20T13:04:16.000Z</time>
      </trkpt>
      <trkpt lat="45.17531" lon="5.92325">
        <ele>1682</ele>
        <time>2019-01-20T13:04:17.000Z</time>
      </trkpt>
      <trkpt lat="45.17528" lon="5.92311">
        <ele>1682</ele>
        <time>2019-01-20T13:04:19.000Z</time>
      </trkpt>
      <trkpt lat="45.17528" lon="5.92311">
        <ele>1682</ele>
        <time>2019-01-20T13:04:20.000Z</time>
      </trkpt>
      <trkpt lat="45.17528" lon="5.92311">
        <ele>1682</ele>
        <time>2019-01-20T13:04:21.000Z</time>
      </trkpt>
      <trkpt lat="45.17528" lon="5.92311">
        <ele>1682</ele>
        <time>2019-01-20T13:04:22.000Z</time>
      </trkpt>
      <trkpt lat="45.17528" lon="5.92311">
        <ele>1682</ele>
        <time>2019-01-20T13:04:23.000Z</time>
      </trkpt>
      <trkpt lat="45.17528" lon="5.92311">
        <ele>1682</ele>
        <time>2019-01-20T13:04:25.000Z</time>
      </trkpt>
      <trkpt lat="45.1753" lon="5.92296">
        <ele>1682</ele>
        <time>2019-01-20T13:04:26.000Z</time>
      </trkpt>
      <trkpt lat="45.1753" lon="5.92296">
        <ele>1682</ele>
        <time>2019-01-20T13:04:27.000Z</time>
      </trkpt>
      <trkpt lat="45.1753" lon="5.92296">
        <ele>1681</ele>
        <time>2019-01-20T13:04:28.000Z</time>
      </trkpt>
      <trkpt lat="45.1753" lon="5.92296">
        <ele>1681</ele>
        <time>2019-01-20T13:04:29.000Z</time>
      </trkpt>
      <trkpt lat="45.17535" lon="5.92284">
        <ele>1681</ele>
        <time>2019-01-20T13:04:30.000Z</time>
      </trkpt>
      <trkpt lat="45.17535" lon="5.92282">
        <ele>1681</ele>
        <time>2019-01-20T13:04:31.000Z</time>
      </trkpt>
      <trkpt lat="45.17535" lon="5.92281">
        <ele>1682</ele>
        <time>2019-01-20T13:04:32.000Z</time>
      </trkpt>
      <trkpt lat="45.17536" lon="5.92279">
        <ele>1682</ele>
        <time>2019-01-20T13:04:33.000Z</time>
      </trkpt>
      <trkpt lat="45.17536" lon="5.92278">
        <ele>1682</ele>
        <time>2019-01-20T13:04:34.000Z</time>
      </trkpt>
      <trkpt lat="45.17538" lon="5.9227">
        <ele>1682</ele>
        <time>2019-01-20T13:04:35.000Z</time>
      </trkpt>
      <trkpt lat="45.17538" lon="5.9227">
        <ele>1682</ele>
        <time>2019-01-20T13:04:36.000Z</time>
      </trkpt>
      <trkpt lat="45.17538" lon="5.9227">
        <ele>1682</ele>
        <time>2019-01-20T13:04:38.000Z</time>
      </trkpt>
      <trkpt lat="45.17536" lon="5.92258">
        <ele>1682</ele>
        <time>2019-01-20T13:04:39.000Z</time>
      </trkpt>
      <trkpt lat="45.17537" lon="5.92256">
        <ele>1682</ele>
        <time>2019-01-20T13:04:40.000Z</time>
      </trkpt>
      <trkpt lat="45.17537" lon="5.92253">
        <ele>1682</ele>
        <time>2019-01-20T13:04:41.000Z</time>
      </trkpt>
      <trkpt lat="45.17538" lon="5.92249">
        <ele>1682</ele>
        <time>2019-01-20T13:04:42.000Z</time>
      </trkpt>
      <trkpt lat="45.17538" lon="5.92246">
        <ele>1681</ele>
        <time>2019-01-20T13:04:43.000Z</time>
      </trkpt>
      <trkpt lat="45.1754" lon="5.92239">
        <ele>1681</ele>
        <time>2019-01-20T13:04:44.000Z</time>
      </trkpt>
      <trkpt lat="45.17541" lon="5.92237">
        <ele>1681</ele>
        <time>2019-01-20T13:04:45.000Z</time>
      </trkpt>
      <trkpt lat="45.17541" lon="5.92234">
        <ele>1681</ele>
        <time>2019-01-20T13:04:46.000Z</time>
      </trkpt>
      <trkpt lat="45.17542" lon="5.9223">
        <ele>1680</ele>
        <time>2019-01-20T13:04:47.000Z</time>
      </trkpt>
      <trkpt lat="45.17543" lon="5.92227">
        <ele>1680</ele>
        <time>2019-01-20T13:04:48.000Z</time>
      </trkpt>
      <trkpt lat="45.17545" lon="5.92224">
        <ele>1680</ele>
        <time>2019-01-20T13:04:49.000Z</time>
      </trkpt>
      <trkpt lat="45.17546" lon="5.92221">
        <ele>1679</ele>
        <time>2019-01-20T13:04:50.000Z</time>
      </trkpt>
      <trkpt lat="45.17547" lon="5.92217">
        <ele>1679</ele>
        <time>2019-01-20T13:04:51.000Z</time>
      </trkpt>
      <trkpt lat="45.17549" lon="5.92214">
        <ele>1679</ele>
        <time>2019-01-20T13:04:52.000Z</time>
      </trkpt>
      <trkpt lat="45.17552" lon="5.92209">
        <ele>1679</ele>
        <time>2019-01-20T13:04:53.000Z</time>
      </trkpt>
      <trkpt lat="45.17555" lon="5.92203">
        <ele>1679</ele>
        <time>2019-01-20T13:04:54.000Z</time>
      </trkpt>
      <trkpt lat="45.17559" lon="5.92197">
        <ele>1679</ele>
        <time>2019-01-20T13:04:55.000Z</time>
      </trkpt>
      <trkpt lat="45.17563" lon="5.92187">
        <ele>1679</ele>
        <time>2019-01-20T13:04:57.000Z</time>
      </trkpt>
      <trkpt lat="45.17563" lon="5.92187">
        <ele>1679</ele>
        <time>2019-01-20T13:04:58.000Z</time>
      </trkpt>
      <trkpt lat="45.17569" lon="5.92176">
        <ele>1677</ele>
        <time>2019-01-20T13:04:59.000Z</time>
      </trkpt>
      <trkpt lat="45.17569" lon="5.92176">
        <ele>1676</ele>
        <time>2019-01-20T13:05:00.000Z</time>
      </trkpt>
      <trkpt lat="45.17575" lon="5.92166">
        <ele>1676</ele>
        <time>2019-01-20T13:05:01.000Z</time>
      </trkpt>
      <trkpt lat="45.17575" lon="5.92166">
        <ele>1676</ele>
        <time>2019-01-20T13:05:02.000Z</time>
      </trkpt>
      <trkpt lat="45.17575" lon="5.92166">
        <ele>1676</ele>
        <time>2019-01-20T13:05:03.000Z</time>
      </trkpt>
      <trkpt lat="45.17583" lon="5.92161">
        <ele>1676</ele>
        <time>2019-01-20T13:05:04.000Z</time>
      </trkpt>
      <trkpt lat="45.17583" lon="5.92161">
        <ele>1676</ele>
        <time>2019-01-20T13:05:05.000Z</time>
      </trkpt>
      <trkpt lat="45.17583" lon="5.92161">
        <ele>1676</ele>
        <time>2019-01-20T13:05:06.000Z</time>
      </trkpt>
      <trkpt lat="45.17583" lon="5.92161">
        <ele>1676</ele>
        <time>2019-01-20T13:05:07.000Z</time>
      </trkpt>
      <trkpt lat="45.17583" lon="5.92161">
        <ele>1676</ele>
        <time>2019-01-20T13:05:08.000Z</time>
      </trkpt>
      <trkpt lat="45.17583" lon="5.92161">
        <ele>1675</ele>
        <time>2019-01-20T13:05:10.000Z</time>
      </trkpt>
      <trkpt lat="45.17583" lon="5.92161">
        <ele>1675</ele>
        <time>2019-01-20T13:05:11.000Z</time>
      </trkpt>
      <trkpt lat="45.17583" lon="5.92161">
        <ele>1674</ele>
        <time>2019-01-20T13:05:12.000Z</time>
      </trkpt>
      <trkpt lat="45.17583" lon="5.92161">
        <ele>1674</ele>
        <time>2019-01-20T13:05:13.000Z</time>
      </trkpt>
      <trkpt lat="45.17583" lon="5.92161">
        <ele>1674</ele>
        <time>2019-01-20T13:05:14.000Z</time>
      </trkpt>
      <trkpt lat="45.17583" lon="5.92161">
        <ele>1674</ele>
        <time>2019-01-20T13:05:16.000Z</time>
      </trkpt>
      <trkpt lat="45.17583" lon="5.92161">
        <ele>1674</ele>
        <time>2019-01-20T13:05:17.000Z</time>
      </trkpt>
      <trkpt lat="45.17583" lon="5.92161">
        <ele>1674</ele>
        <time>2019-01-20T13:05:18.000Z</time>
      </trkpt>
      <trkpt lat="45.17583" lon="5.92161">
        <ele>1674</ele>
        <time>2019-01-20T13:05:19.000Z</time>
      </trkpt>
      <trkpt lat="45.17583" lon="5.92161">
        <ele>1674</ele>
        <time>2019-01-20T13:05:20.000Z</time>
      </trkpt>
      <trkpt lat="45.17583" lon="5.92161">
        <ele>1674</ele>
        <time>2019-01-20T13:05:21.000Z</time>
      </trkpt>
      <trkpt lat="45.17583" lon="5.92161">
        <ele>1674</ele>
        <time>2019-01-20T13:05:22.000Z</time>
      </trkpt>
      <trkpt lat="45.17583" lon="5.92161">
        <ele>1674</ele>
        <time>2019-01-20T13:05:23.000Z</time>
      </trkpt>
      <trkpt lat="45.17583" lon="5.92161">
        <ele>1674</ele>
        <time>2019-01-20T13:05:24.000Z</time>
      </trkpt>
      <trkpt lat="45.17583" lon="5.92161">
        <ele>1674</ele>
        <time>2019-01-20T13:05:25.000Z</time>
      </trkpt>
      <trkpt lat="45.17583" lon="5.92161">
        <ele>1674</ele>
        <time>2019-01-20T13:05:26.000Z</time>
      </trkpt>
      <trkpt lat="45.17583" lon="5.92161">
        <ele>1674</ele>
        <time>2019-01-20T13:05:27.000Z</time>
      </trkpt>
      <trkpt lat="45.17583" lon="5.92161">
        <ele>1674</ele>
        <time>2019-01-20T13:05:28.000Z</time>
      </trkpt>
      <trkpt lat="45.17583" lon="5.92161">
        <ele>1675</ele>
        <time>2019-01-20T13:05:29.000Z</time>
      </trkpt>
      <trkpt lat="45.17583" lon="5.92161">
        <ele>1675</ele>
        <time>2019-01-20T13:05:30.000Z</time>
      </trkpt>
      <trkpt lat="45.17583" lon="5.92161">
        <ele>1675</ele>
        <time>2019-01-20T13:05:31.000Z</time>
      </trkpt>
      <trkpt lat="45.17583" lon="5.92161">
        <ele>1675</ele>
        <time>2019-01-20T13:05:32.000Z</time>
      </trkpt>
      <trkpt lat="45.17583" lon="5.92161">
        <ele>1675</ele>
        <time>2019-01-20T13:05:33.000Z</time>
      </trkpt>
      <trkpt lat="45.17583" lon="5.92161">
        <ele>1675</ele>
        <time>2019-01-20T13:05:35.000Z</time>
      </trkpt>
      <trkpt lat="45.17583" lon="5.92161">
        <ele>1675</ele>
        <time>2019-01-20T13:05:36.000Z</time>
      </trkpt>
      <trkpt lat="45.17583" lon="5.92161">
        <ele>1675</ele>
        <time>2019-01-20T13:05:37.000Z</time>
      </trkpt>
      <trkpt lat="45.17583" lon="5.92161">
        <ele>1675</ele>
        <time>2019-01-20T13:05:38.000Z</time>
      </trkpt>
      <trkpt lat="45.17583" lon="5.92161">
        <ele>1675</ele>
        <time>2019-01-20T13:05:39.000Z</time>
      </trkpt>
      <trkpt lat="45.17583" lon="5.92161">
        <ele>1675</ele>
        <time>2019-01-20T13:05:40.000Z</time>
      </trkpt>
      <trkpt lat="45.17583" lon="5.92161">
        <ele>1675</ele>
        <time>2019-01-20T13:05:41.000Z</time>
      </trkpt>
      <trkpt lat="45.17583" lon="5.92161">
        <ele>1675</ele>
        <time>2019-01-20T13:05:42.000Z</time>
      </trkpt>
      <trkpt lat="45.17583" lon="5.92161">
        <ele>1675</ele>
        <time>2019-01-20T13:05:43.000Z</time>
      </trkpt>
      <trkpt lat="45.17583" lon="5.92161">
        <ele>1675</ele>
        <time>2019-01-20T13:05:44.000Z</time>
      </trkpt>
      <trkpt lat="45.17583" lon="5.92161">
        <ele>1675</ele>
        <time>2019-01-20T13:05:45.000Z</time>
      </trkpt>
      <trkpt lat="45.17583" lon="5.92161">
        <ele>1675</ele>
        <time>2019-01-20T13:05:46.000Z</time>
      </trkpt>
      <trkpt lat="45.17583" lon="5.92161">
        <ele>1676</ele>
        <time>2019-01-20T13:05:47.000Z</time>
      </trkpt>
      <trkpt lat="45.17583" lon="5.92161">
        <ele>1676</ele>
        <time>2019-01-20T13:05:48.000Z</time>
      </trkpt>
      <trkpt lat="45.17583" lon="5.92161">
        <ele>1676</ele>
        <time>2019-01-20T13:05:49.000Z</time>
      </trkpt>
      <trkpt lat="45.17583" lon="5.92161">
        <ele>1676</ele>
        <time>2019-01-20T13:05:50.000Z</time>
      </trkpt>
      <trkpt lat="45.17583" lon="5.92161">
        <ele>1675</ele>
        <time>2019-01-20T13:05:51.000Z</time>
      </trkpt>
      <trkpt lat="45.17583" lon="5.92161">
        <ele>1675</ele>
        <time>2019-01-20T13:05:52.000Z</time>
      </trkpt>
      <trkpt lat="45.17583" lon="5.92161">
        <ele>1675</ele>
        <time>2019-01-20T13:05:54.000Z</time>
      </trkpt>
      <trkpt lat="45.17583" lon="5.92161">
        <ele>1675</ele>
        <time>2019-01-20T13:05:55.000Z</time>
      </trkpt>
      <trkpt lat="45.17583" lon="5.92161">
        <ele>1675</ele>
        <time>2019-01-20T13:05:56.000Z</time>
      </trkpt>
      <trkpt lat="45.17583" lon="5.92161">
        <ele>1675</ele>
        <time>2019-01-20T13:05:57.000Z</time>
      </trkpt>
      <trkpt lat="45.17583" lon="5.92161">
        <ele>1675</ele>
        <time>2019-01-20T13:05:58.000Z</time>
      </trkpt>
      <trkpt lat="45.1759" lon="5.92151">
        <ele>1675</ele>
        <time>2019-01-20T13:05:59.000Z</time>
      </trkpt>
      <trkpt lat="45.1759" lon="5.92151">
        <ele>1675</ele>
        <time>2019-01-20T13:06:00.000Z</time>
      </trkpt>
      <trkpt lat="45.1759" lon="5.92151">
        <ele>1675</ele>
        <time>2019-01-20T13:06:01.000Z</time>
      </trkpt>
      <trkpt lat="45.1759" lon="5.92151">
        <ele>1675</ele>
        <time>2019-01-20T13:06:02.000Z</time>
      </trkpt>
      <trkpt lat="45.1759" lon="5.92151">
        <ele>1675</ele>
        <time>2019-01-20T13:06:03.000Z</time>
      </trkpt>
      <trkpt lat="45.1759" lon="5.92151">
        <ele>1675</ele>
        <time>2019-01-20T13:06:04.000Z</time>
      </trkpt>
      <trkpt lat="45.1759" lon="5.92151">
        <ele>1675</ele>
        <time>2019-01-20T13:06:05.000Z</time>
      </trkpt>
      <trkpt lat="45.1759" lon="5.92151">
        <ele>1675</ele>
        <time>2019-01-20T13:06:06.000Z</time>
      </trkpt>
      <trkpt lat="45.17596" lon="5.92139">
        <ele>1675</ele>
        <time>2019-01-20T13:06:07.000Z</time>
      </trkpt>
      <trkpt lat="45.17596" lon="5.92139">
        <ele>1675</ele>
        <time>2019-01-20T13:06:08.000Z</time>
      </trkpt>
      <trkpt lat="45.17596" lon="5.92139">
        <ele>1675</ele>
        <time>2019-01-20T13:06:09.000Z</time>
      </trkpt>
      <trkpt lat="45.17596" lon="5.92139">
        <ele>1675</ele>
        <time>2019-01-20T13:06:10.000Z</time>
      </trkpt>
      <trkpt lat="45.17596" lon="5.92139">
        <ele>1675</ele>
        <time>2019-01-20T13:06:11.000Z</time>
      </trkpt>
      <trkpt lat="45.17603" lon="5.92129">
        <ele>1675</ele>
        <time>2019-01-20T13:06:13.000Z</time>
      </trkpt>
      <trkpt lat="45.17603" lon="5.92129">
        <ele>1675</ele>
        <time>2019-01-20T13:06:14.000Z</time>
      </trkpt>
      <trkpt lat="45.17603" lon="5.92129">
        <ele>1675</ele>
        <time>2019-01-20T13:06:15.000Z</time>
      </trkpt>
      <trkpt lat="45.17603" lon="5.92129">
        <ele>1675</ele>
        <time>2019-01-20T13:06:16.000Z</time>
      </trkpt>
      <trkpt lat="45.17603" lon="5.92129">
        <ele>1675</ele>
        <time>2019-01-20T13:06:17.000Z</time>
      </trkpt>
      <trkpt lat="45.17604" lon="5.92128">
        <ele>1675</ele>
        <time>2019-01-20T13:06:18.000Z</time>
      </trkpt>
      <trkpt lat="45.17605" lon="5.92126">
        <ele>1675</ele>
        <time>2019-01-20T13:06:19.000Z</time>
      </trkpt>
      <trkpt lat="45.17606" lon="5.92125">
        <ele>1675</ele>
        <time>2019-01-20T13:06:20.000Z</time>
      </trkpt>
      <trkpt lat="45.17607" lon="5.92123">
        <ele>1675</ele>
        <time>2019-01-20T13:06:21.000Z</time>
      </trkpt>
      <trkpt lat="45.17608" lon="5.92121">
        <ele>1675</ele>
        <time>2019-01-20T13:06:22.000Z</time>
      </trkpt>
      <trkpt lat="45.17609" lon="5.9212">
        <ele>1675</ele>
        <time>2019-01-20T13:06:23.000Z</time>
      </trkpt>
      <trkpt lat="45.1761" lon="5.92118">
        <ele>1675</ele>
        <time>2019-01-20T13:06:24.000Z</time>
      </trkpt>
      <trkpt lat="45.17612" lon="5.92106">
        <ele>1674</ele>
        <time>2019-01-20T13:06:25.000Z</time>
      </trkpt>
      <trkpt lat="45.17612" lon="5.92106">
        <ele>1673</ele>
        <time>2019-01-20T13:06:26.000Z</time>
      </trkpt>
      <trkpt lat="45.17612" lon="5.92106">
        <ele>1673</ele>
        <time>2019-01-20T13:06:27.000Z</time>
      </trkpt>
      <trkpt lat="45.17612" lon="5.92106">
        <ele>1673</ele>
        <time>2019-01-20T13:06:28.000Z</time>
      </trkpt>
      <trkpt lat="45.17612" lon="5.92106">
        <ele>1673</ele>
        <time>2019-01-20T13:06:29.000Z</time>
      </trkpt>
      <trkpt lat="45.17612" lon="5.92106">
        <ele>1673</ele>
        <time>2019-01-20T13:06:30.000Z</time>
      </trkpt>
      <trkpt lat="45.17617" lon="5.92094">
        <ele>1673</ele>
        <time>2019-01-20T13:06:32.000Z</time>
      </trkpt>
      <trkpt lat="45.17617" lon="5.92094">
        <ele>1673</ele>
        <time>2019-01-20T13:06:33.000Z</time>
      </trkpt>
      <trkpt lat="45.17617" lon="5.92094">
        <ele>1673</ele>
        <time>2019-01-20T13:06:34.000Z</time>
      </trkpt>
      <trkpt lat="45.17617" lon="5.92094">
        <ele>1673</ele>
        <time>2019-01-20T13:06:35.000Z</time>
      </trkpt>
      <trkpt lat="45.17617" lon="5.92094">
        <ele>1673</ele>
        <time>2019-01-20T13:06:36.000Z</time>
      </trkpt>
      <trkpt lat="45.17617" lon="5.92094">
        <ele>1673</ele>
        <time>2019-01-20T13:06:37.000Z</time>
      </trkpt>
      <trkpt lat="45.17624" lon="5.92084">
        <ele>1673</ele>
        <time>2019-01-20T13:06:38.000Z</time>
      </trkpt>
      <trkpt lat="45.17624" lon="5.92084">
        <ele>1673</ele>
        <time>2019-01-20T13:06:39.000Z</time>
      </trkpt>
      <trkpt lat="45.17624" lon="5.92084">
        <ele>1673</ele>
        <time>2019-01-20T13:06:40.000Z</time>
      </trkpt>
      <trkpt lat="45.17624" lon="5.92084">
        <ele>1673</ele>
        <time>2019-01-20T13:06:41.000Z</time>
      </trkpt>
      <trkpt lat="45.17624" lon="5.92084">
        <ele>1673</ele>
        <time>2019-01-20T13:06:42.000Z</time>
      </trkpt>
      <trkpt lat="45.17624" lon="5.92084">
        <ele>1673</ele>
        <time>2019-01-20T13:06:43.000Z</time>
      </trkpt>
      <trkpt lat="45.1763" lon="5.92073">
        <ele>1673</ele>
        <time>2019-01-20T13:06:44.000Z</time>
      </trkpt>
      <trkpt lat="45.1763" lon="5.92073">
        <ele>1673</ele>
        <time>2019-01-20T13:06:45.000Z</time>
      </trkpt>
      <trkpt lat="45.1763" lon="5.92073">
        <ele>1673</ele>
        <time>2019-01-20T13:06:46.000Z</time>
      </trkpt>
      <trkpt lat="45.1763" lon="5.92073">
        <ele>1673</ele>
        <time>2019-01-20T13:06:47.000Z</time>
      </trkpt>
      <trkpt lat="45.1763" lon="5.92073">
        <ele>1673</ele>
        <time>2019-01-20T13:06:48.000Z</time>
      </trkpt>
      <trkpt lat="45.1763" lon="5.92073">
        <ele>1673</ele>
        <time>2019-01-20T13:06:49.000Z</time>
      </trkpt>
      <trkpt lat="45.1763" lon="5.92073">
        <ele>1672</ele>
        <time>2019-01-20T13:06:51.000Z</time>
      </trkpt>
      <trkpt lat="45.17637" lon="5.92064">
        <ele>1672</ele>
        <time>2019-01-20T13:06:53.000Z</time>
      </trkpt>
      <trkpt lat="45.17637" lon="5.92064">
        <ele>1672</ele>
        <time>2019-01-20T13:06:54.000Z</time>
      </trkpt>
      <trkpt lat="45.17637" lon="5.92064">
        <ele>1672</ele>
        <time>2019-01-20T13:06:55.000Z</time>
      </trkpt>
      <trkpt lat="45.17637" lon="5.92064">
        <ele>1672</ele>
        <time>2019-01-20T13:06:56.000Z</time>
      </trkpt>
      <trkpt lat="45.17637" lon="5.92064">
        <ele>1672</ele>
        <time>2019-01-20T13:06:57.000Z</time>
      </trkpt>
      <trkpt lat="45.17637" lon="5.92064">
        <ele>1672</ele>
        <time>2019-01-20T13:06:58.000Z</time>
      </trkpt>
      <trkpt lat="45.17637" lon="5.92064">
        <ele>1672</ele>
        <time>2019-01-20T13:06:59.000Z</time>
      </trkpt>
      <trkpt lat="45.17637" lon="5.92064">
        <ele>1672</ele>
        <time>2019-01-20T13:07:00.000Z</time>
      </trkpt>
      <trkpt lat="45.17639" lon="5.92064">
        <ele>1672</ele>
        <time>2019-01-20T13:07:01.000Z</time>
      </trkpt>
      <trkpt lat="45.17641" lon="5.92064">
        <ele>1672</ele>
        <time>2019-01-20T13:07:02.000Z</time>
      </trkpt>
      <trkpt lat="45.17642" lon="5.92064">
        <ele>1672</ele>
        <time>2019-01-20T13:07:03.000Z</time>
      </trkpt>
      <trkpt lat="45.17644" lon="5.92064">
        <ele>1672</ele>
        <time>2019-01-20T13:07:04.000Z</time>
      </trkpt>
      <trkpt lat="45.17646" lon="5.92064">
        <ele>1672</ele>
        <time>2019-01-20T13:07:05.000Z</time>
      </trkpt>
      <trkpt lat="45.17647" lon="5.92064">
        <ele>1672</ele>
        <time>2019-01-20T13:07:06.000Z</time>
      </trkpt>
      <trkpt lat="45.17647" lon="5.92064">
        <ele>1672</ele>
        <time>2019-01-20T13:07:07.000Z</time>
      </trkpt>
      <trkpt lat="45.17655" lon="5.92057">
        <ele>1671</ele>
        <time>2019-01-20T13:07:08.000Z</time>
      </trkpt>
      <trkpt lat="45.17658" lon="5.92056">
        <ele>1671</ele>
        <time>2019-01-20T13:07:10.000Z</time>
      </trkpt>
      <trkpt lat="45.17658" lon="5.92056">
        <ele>1671</ele>
        <time>2019-01-20T13:07:11.000Z</time>
      </trkpt>
      <trkpt lat="45.1766" lon="5.92055">
        <ele>1671</ele>
        <time>2019-01-20T13:07:12.000Z</time>
      </trkpt>
      <trkpt lat="45.17661" lon="5.92055">
        <ele>1671</ele>
        <time>2019-01-20T13:07:13.000Z</time>
      </trkpt>
      <trkpt lat="45.17661" lon="5.92055">
        <ele>1671</ele>
        <time>2019-01-20T13:07:14.000Z</time>
      </trkpt>
      <trkpt lat="45.17662" lon="5.92054">
        <ele>1671</ele>
        <time>2019-01-20T13:07:15.000Z</time>
      </trkpt>
      <trkpt lat="45.17662" lon="5.92054">
        <ele>1671</ele>
        <time>2019-01-20T13:07:16.000Z</time>
      </trkpt>
      <trkpt lat="45.17663" lon="5.92054">
        <ele>1671</ele>
        <time>2019-01-20T13:07:17.000Z</time>
      </trkpt>
      <trkpt lat="45.17663" lon="5.92053">
        <ele>1670</ele>
        <time>2019-01-20T13:07:18.000Z</time>
      </trkpt>
      <trkpt lat="45.17663" lon="5.92053">
        <ele>1670</ele>
        <time>2019-01-20T13:07:19.000Z</time>
      </trkpt>
      <trkpt lat="45.17667" lon="5.92042">
        <ele>1669</ele>
        <time>2019-01-20T13:07:20.000Z</time>
      </trkpt>
      <trkpt lat="45.17667" lon="5.92042">
        <ele>1669</ele>
        <time>2019-01-20T13:07:21.000Z</time>
      </trkpt>
      <trkpt lat="45.17667" lon="5.92039">
        <ele>1669</ele>
        <time>2019-01-20T13:07:22.000Z</time>
      </trkpt>
      <trkpt lat="45.17667" lon="5.92039">
        <ele>1669</ele>
        <time>2019-01-20T13:07:23.000Z</time>
      </trkpt>
      <trkpt lat="45.17667" lon="5.92039">
        <ele>1669</ele>
        <time>2019-01-20T13:07:24.000Z</time>
      </trkpt>
      <trkpt lat="45.17667" lon="5.92039">
        <ele>1669</ele>
        <time>2019-01-20T13:07:25.000Z</time>
      </trkpt>
      <trkpt lat="45.17667" lon="5.92039">
        <ele>1669</ele>
        <time>2019-01-20T13:07:26.000Z</time>
      </trkpt>
      <trkpt lat="45.17667" lon="5.92036">
        <ele>1669</ele>
        <time>2019-01-20T13:07:28.000Z</time>
      </trkpt>
      <trkpt lat="45.17667" lon="5.92036">
        <ele>1669</ele>
        <time>2019-01-20T13:07:29.000Z</time>
      </trkpt>
      <trkpt lat="45.17667" lon="5.92033">
        <ele>1669</ele>
        <time>2019-01-20T13:07:30.000Z</time>
      </trkpt>
      <trkpt lat="45.17667" lon="5.92033">
        <ele>1669</ele>
        <time>2019-01-20T13:07:31.000Z</time>
      </trkpt>
      <trkpt lat="45.17667" lon="5.92033">
        <ele>1669</ele>
        <time>2019-01-20T13:07:32.000Z</time>
      </trkpt>
      <trkpt lat="45.17667" lon="5.92033">
        <ele>1669</ele>
        <time>2019-01-20T13:07:33.000Z</time>
      </trkpt>
      <trkpt lat="45.17667" lon="5.92033">
        <ele>1669</ele>
        <time>2019-01-20T13:07:34.000Z</time>
      </trkpt>
      <trkpt lat="45.17667" lon="5.92033">
        <ele>1669</ele>
        <time>2019-01-20T13:07:35.000Z</time>
      </trkpt>
      <trkpt lat="45.17667" lon="5.92031">
        <ele>1669</ele>
        <time>2019-01-20T13:07:36.000Z</time>
      </trkpt>
      <trkpt lat="45.17668" lon="5.92028">
        <ele>1669</ele>
        <time>2019-01-20T13:07:37.000Z</time>
      </trkpt>
      <trkpt lat="45.17669" lon="5.92025">
        <ele>1669</ele>
        <time>2019-01-20T13:07:38.000Z</time>
      </trkpt>
      <trkpt lat="45.1767" lon="5.92022">
        <ele>1669</ele>
        <time>2019-01-20T13:07:39.000Z</time>
      </trkpt>
      <trkpt lat="45.17671" lon="5.92019">
        <ele>1669</ele>
        <time>2019-01-20T13:07:40.000Z</time>
      </trkpt>
      <trkpt lat="45.17671" lon="5.92016">
        <ele>1669</ele>
        <time>2019-01-20T13:07:41.000Z</time>
      </trkpt>
      <trkpt lat="45.17672" lon="5.92013">
        <ele>1668</ele>
        <time>2019-01-20T13:07:42.000Z</time>
      </trkpt>
      <trkpt lat="45.17673" lon="5.92009">
        <ele>1668</ele>
        <time>2019-01-20T13:07:43.000Z</time>
      </trkpt>
      <trkpt lat="45.17674" lon="5.92006">
        <ele>1668</ele>
        <time>2019-01-20T13:07:44.000Z</time>
      </trkpt>
      <trkpt lat="45.17674" lon="5.92006">
        <ele>1668</ele>
        <time>2019-01-20T13:07:45.000Z</time>
      </trkpt>
      <trkpt lat="45.17676" lon="5.91999">
        <ele>1668</ele>
        <time>2019-01-20T13:07:46.000Z</time>
      </trkpt>
      <trkpt lat="45.17676" lon="5.91996">
        <ele>1667</ele>
        <time>2019-01-20T13:07:48.000Z</time>
      </trkpt>
      <trkpt lat="45.17676" lon="5.91996">
        <ele>1667</ele>
        <time>2019-01-20T13:07:49.000Z</time>
      </trkpt>
      <trkpt lat="45.17676" lon="5.91996">
        <ele>1667</ele>
        <time>2019-01-20T13:07:50.000Z</time>
      </trkpt>
      <trkpt lat="45.17676" lon="5.91996">
        <ele>1667</ele>
        <time>2019-01-20T13:07:51.000Z</time>
      </trkpt>
      <trkpt lat="45.17677" lon="5.91995">
        <ele>1667</ele>
        <time>2019-01-20T13:07:52.000Z</time>
      </trkpt>
      <trkpt lat="45.17678" lon="5.91994">
        <ele>1667</ele>
        <time>2019-01-20T13:07:53.000Z</time>
      </trkpt>
      <trkpt lat="45.1768" lon="5.91993">
        <ele>1666</ele>
        <time>2019-01-20T13:07:54.000Z</time>
      </trkpt>
      <trkpt lat="45.17681" lon="5.91992">
        <ele>1666</ele>
        <time>2019-01-20T13:07:55.000Z</time>
      </trkpt>
      <trkpt lat="45.17682" lon="5.91991">
        <ele>1666</ele>
        <time>2019-01-20T13:07:56.000Z</time>
      </trkpt>
      <trkpt lat="45.17683" lon="5.9199">
        <ele>1666</ele>
        <time>2019-01-20T13:07:57.000Z</time>
      </trkpt>
      <trkpt lat="45.17683" lon="5.9199">
        <ele>1666</ele>
        <time>2019-01-20T13:07:58.000Z</time>
      </trkpt>
      <trkpt lat="45.17691" lon="5.91984">
        <ele>1666</ele>
        <time>2019-01-20T13:07:59.000Z</time>
      </trkpt>
      <trkpt lat="45.17691" lon="5.91984">
        <ele>1666</ele>
        <time>2019-01-20T13:08:00.000Z</time>
      </trkpt>
      <trkpt lat="45.17694" lon="5.91981">
        <ele>1666</ele>
        <time>2019-01-20T13:08:01.000Z</time>
      </trkpt>
      <trkpt lat="45.17694" lon="5.91981">
        <ele>1666</ele>
        <time>2019-01-20T13:08:02.000Z</time>
      </trkpt>
      <trkpt lat="45.17697" lon="5.91979">
        <ele>1665</ele>
        <time>2019-01-20T13:08:03.000Z</time>
      </trkpt>
      <trkpt lat="45.17698" lon="5.91976">
        <ele>1665</ele>
        <time>2019-01-20T13:08:04.000Z</time>
      </trkpt>
      <trkpt lat="45.17698" lon="5.91976">
        <ele>1665</ele>
        <time>2019-01-20T13:08:05.000Z</time>
      </trkpt>
      <trkpt lat="45.17701" lon="5.91973">
        <ele>1665</ele>
        <time>2019-01-20T13:08:06.000Z</time>
      </trkpt>
      <trkpt lat="45.17701" lon="5.91973">
        <ele>1665</ele>
        <time>2019-01-20T13:08:07.000Z</time>
      </trkpt>
      <trkpt lat="45.17702" lon="5.91969">
        <ele>1665</ele>
        <time>2019-01-20T13:08:08.000Z</time>
      </trkpt>
      <trkpt lat="45.17702" lon="5.91969">
        <ele>1665</ele>
        <time>2019-01-20T13:08:09.000Z</time>
      </trkpt>
      <trkpt lat="45.17703" lon="5.91966">
        <ele>1665</ele>
        <time>2019-01-20T13:08:10.000Z</time>
      </trkpt>
      <trkpt lat="45.17703" lon="5.91966">
        <ele>1665</ele>
        <time>2019-01-20T13:08:11.000Z</time>
      </trkpt>
      <trkpt lat="45.17703" lon="5.91966">
        <ele>1664</ele>
        <time>2019-01-20T13:08:12.000Z</time>
      </trkpt>
      <trkpt lat="45.17703" lon="5.91966">
        <ele>1663</ele>
        <time>2019-01-20T13:08:13.000Z</time>
      </trkpt>
      <trkpt lat="45.17704" lon="5.9196">
        <ele>1663</ele>
        <time>2019-01-20T13:08:14.000Z</time>
      </trkpt>
      <trkpt lat="45.17704" lon="5.9196">
        <ele>1663</ele>
        <time>2019-01-20T13:08:15.000Z</time>
      </trkpt>
      <trkpt lat="45.17704" lon="5.9196">
        <ele>1663</ele>
        <time>2019-01-20T13:08:16.000Z</time>
      </trkpt>
      <trkpt lat="45.17704" lon="5.9196">
        <ele>1662</ele>
        <time>2019-01-20T13:08:17.000Z</time>
      </trkpt>
      <trkpt lat="45.17704" lon="5.9196">
        <ele>1662</ele>
        <time>2019-01-20T13:08:18.000Z</time>
      </trkpt>
      <trkpt lat="45.17704" lon="5.9196">
        <ele>1661</ele>
        <time>2019-01-20T13:08:19.000Z</time>
      </trkpt>
      <trkpt lat="45.17705" lon="5.91947">
        <ele>1661</ele>
        <time>2019-01-20T13:08:20.000Z</time>
      </trkpt>
      <trkpt lat="45.17705" lon="5.91947">
        <ele>1661</ele>
        <time>2019-01-20T13:08:21.000Z</time>
      </trkpt>
      <trkpt lat="45.17705" lon="5.91947">
        <ele>1661</ele>
        <time>2019-01-20T13:08:22.000Z</time>
      </trkpt>
      <trkpt lat="45.17705" lon="5.91947">
        <ele>1661</ele>
        <time>2019-01-20T13:08:23.000Z</time>
      </trkpt>
      <trkpt lat="45.17705" lon="5.91945">
        <ele>1661</ele>
        <time>2019-01-20T13:08:24.000Z</time>
      </trkpt>
      <trkpt lat="45.17706" lon="5.91943">
        <ele>1661</ele>
        <time>2019-01-20T13:08:25.000Z</time>
      </trkpt>
      <trkpt lat="45.17706" lon="5.91941">
        <ele>1660</ele>
        <time>2019-01-20T13:08:26.000Z</time>
      </trkpt>
      <trkpt lat="45.17706" lon="5.91938">
        <ele>1660</ele>
        <time>2019-01-20T13:08:27.000Z</time>
      </trkpt>
      <trkpt lat="45.17706" lon="5.91936">
        <ele>1660</ele>
        <time>2019-01-20T13:08:28.000Z</time>
      </trkpt>
      <trkpt lat="45.17706" lon="5.91934">
        <ele>1660</ele>
        <time>2019-01-20T13:08:29.000Z</time>
      </trkpt>
      <trkpt lat="45.17706" lon="5.91934">
        <ele>1660</ele>
        <time>2019-01-20T13:08:30.000Z</time>
      </trkpt>
      <trkpt lat="45.17709" lon="5.9192">
        <ele>1659</ele>
        <time>2019-01-20T13:08:31.000Z</time>
      </trkpt>
      <trkpt lat="45.17709" lon="5.9192">
        <ele>1659</ele>
        <time>2019-01-20T13:08:32.000Z</time>
      </trkpt>
      <trkpt lat="45.17709" lon="5.9192">
        <ele>1659</ele>
        <time>2019-01-20T13:08:33.000Z</time>
      </trkpt>
      <trkpt lat="45.17709" lon="5.9192">
        <ele>1658</ele>
        <time>2019-01-20T13:08:35.000Z</time>
      </trkpt>
      <trkpt lat="45.17711" lon="5.91909">
        <ele>1657</ele>
        <time>2019-01-20T13:08:36.000Z</time>
      </trkpt>
      <trkpt lat="45.17711" lon="5.91909">
        <ele>1657</ele>
        <time>2019-01-20T13:08:37.000Z</time>
      </trkpt>
      <trkpt lat="45.17711" lon="5.91909">
        <ele>1656</ele>
        <time>2019-01-20T13:08:38.000Z</time>
      </trkpt>
      <trkpt lat="45.17711" lon="5.91906">
        <ele>1656</ele>
        <time>2019-01-20T13:08:39.000Z</time>
      </trkpt>
      <trkpt lat="45.17711" lon="5.91906">
        <ele>1655</ele>
        <time>2019-01-20T13:08:40.000Z</time>
      </trkpt>
      <trkpt lat="45.17711" lon="5.91906">
        <ele>1654</ele>
        <time>2019-01-20T13:08:41.000Z</time>
      </trkpt>
      <trkpt lat="45.17711" lon="5.91906">
        <ele>1654</ele>
        <time>2019-01-20T13:08:42.000Z</time>
      </trkpt>
      <trkpt lat="45.17711" lon="5.91906">
        <ele>1654</ele>
        <time>2019-01-20T13:08:43.000Z</time>
      </trkpt>
      <trkpt lat="45.17719" lon="5.91899">
        <ele>1652.4</ele>
        <time>2019-01-20T13:08:45.000Z</time>
      </trkpt>
      <trkpt lat="45.17719" lon="5.91898">
        <ele>1652</ele>
        <time>2019-01-20T13:08:46.000Z</time>
      </trkpt>
      <trkpt lat="45.1772" lon="5.91896">
        <ele>1652</ele>
        <time>2019-01-20T13:08:47.000Z</time>
      </trkpt>
      <trkpt lat="45.1772" lon="5.91895">
        <ele>1651</ele>
        <time>2019-01-20T13:08:48.000Z</time>
      </trkpt>
      <trkpt lat="45.17721" lon="5.91894">
        <ele>1651</ele>
        <time>2019-01-20T13:08:49.000Z</time>
      </trkpt>
      <trkpt lat="45.17721" lon="5.91892">
        <ele>1650</ele>
        <time>2019-01-20T13:08:50.000Z</time>
      </trkpt>
      <trkpt lat="45.17724" lon="5.91886">
        <ele>1650</ele>
        <time>2019-01-20T13:08:51.000Z</time>
      </trkpt>
      <trkpt lat="45.17724" lon="5.91886">
        <ele>1650</ele>
        <time>2019-01-20T13:08:52.000Z</time>
      </trkpt>
      <trkpt lat="45.17724" lon="5.91886">
        <ele>1649</ele>
        <time>2019-01-20T13:08:53.000Z</time>
      </trkpt>
      <trkpt lat="45.17728" lon="5.91882">
        <ele>1649</ele>
        <time>2019-01-20T13:08:54.000Z</time>
      </trkpt>
      <trkpt lat="45.17728" lon="5.91882">
        <ele>1648</ele>
        <time>2019-01-20T13:08:55.000Z</time>
      </trkpt>
      <trkpt lat="45.1773" lon="5.91881">
        <ele>1647</ele>
        <time>2019-01-20T13:08:56.000Z</time>
      </trkpt>
      <trkpt lat="45.1773" lon="5.91881">
        <ele>1647</ele>
        <time>2019-01-20T13:08:57.000Z</time>
      </trkpt>
      <trkpt lat="45.17732" lon="5.91877">
        <ele>1646</ele>
        <time>2019-01-20T13:08:58.000Z</time>
      </trkpt>
      <trkpt lat="45.17732" lon="5.91877">
        <ele>1646</ele>
        <time>2019-01-20T13:08:59.000Z</time>
      </trkpt>
      <trkpt lat="45.17732" lon="5.91877">
        <ele>1646</ele>
        <time>2019-01-20T13:09:00.000Z</time>
      </trkpt>
      <trkpt lat="45.17732" lon="5.91877">
        <ele>1645</ele>
        <time>2019-01-20T13:09:01.000Z</time>
      </trkpt>
      <trkpt lat="45.17735" lon="5.91868">
        <ele>1644</ele>
        <time>2019-01-20T13:09:02.000Z</time>
      </trkpt>
      <trkpt lat="45.17736" lon="5.91866">
        <ele>1644</ele>
        <time>2019-01-20T13:09:03.000Z</time>
      </trkpt>
      <trkpt lat="45.17736" lon="5.91866">
        <ele>1644</ele>
        <time>2019-01-20T13:09:04.000Z</time>
      </trkpt>
      <trkpt lat="45.17736" lon="5.91866">
        <ele>1644</ele>
        <time>2019-01-20T13:09:05.000Z</time>
      </trkpt>
      <trkpt lat="45.1774" lon="5.91858">
        <ele>1642.4</ele>
        <time>2019-01-20T13:09:07.000Z</time>
      </trkpt>
      <trkpt lat="45.17741" lon="5.91857">
        <ele>1641</ele>
        <time>2019-01-20T13:09:08.000Z</time>
      </trkpt>
      <trkpt lat="45.17741" lon="5.91856">
        <ele>1641</ele>
        <time>2019-01-20T13:09:09.000Z</time>
      </trkpt>
      <trkpt lat="45.17742" lon="5.91855">
        <ele>1640</ele>
        <time>2019-01-20T13:09:10.000Z</time>
      </trkpt>
      <trkpt lat="45.17742" lon="5.91853">
        <ele>1640</ele>
        <time>2019-01-20T13:09:11.000Z</time>
      </trkpt>
      <trkpt lat="45.17742" lon="5.91853">
        <ele>1639</ele>
        <time>2019-01-20T13:09:12.000Z</time>
      </trkpt>
      <trkpt lat="45.17743" lon="5.91853">
        <ele>1639</ele>
        <time>2019-01-20T13:09:13.000Z</time>
      </trkpt>
      <trkpt lat="45.17743" lon="5.91852">
        <ele>1638</ele>
        <time>2019-01-20T13:09:14.000Z</time>
      </trkpt>
      <trkpt lat="45.17743" lon="5.91852">
        <ele>1638</ele>
        <time>2019-01-20T13:09:15.000Z</time>
      </trkpt>
      <trkpt lat="45.17744" lon="5.91852">
        <ele>1638</ele>
        <time>2019-01-20T13:09:16.000Z</time>
      </trkpt>
      <trkpt lat="45.17744" lon="5.91852">
        <ele>1637</ele>
        <time>2019-01-20T13:09:17.000Z</time>
      </trkpt>
      <trkpt lat="45.17744" lon="5.91851">
        <ele>1637</ele>
        <time>2019-01-20T13:09:18.000Z</time>
      </trkpt>
      <trkpt lat="45.17746" lon="5.9185">
        <ele>1636</ele>
        <time>2019-01-20T13:09:19.000Z</time>
      </trkpt>
      <trkpt lat="45.17749" lon="5.91849">
        <ele>1636</ele>
        <time>2019-01-20T13:09:20.000Z</time>
      </trkpt>
      <trkpt lat="45.17751" lon="5.91848">
        <ele>1636</ele>
        <time>2019-01-20T13:09:21.000Z</time>
      </trkpt>
      <trkpt lat="45.17753" lon="5.91846">
        <ele>1636</ele>
        <time>2019-01-20T13:09:23.000Z</time>
      </trkpt>
      <trkpt lat="45.17755" lon="5.91845">
        <ele>1636</ele>
        <time>2019-01-20T13:09:24.000Z</time>
      </trkpt>
      <trkpt lat="45.17757" lon="5.91844">
        <ele>1635</ele>
        <time>2019-01-20T13:09:25.000Z</time>
      </trkpt>
      <trkpt lat="45.17762" lon="5.91843">
        <ele>1635</ele>
        <time>2019-01-20T13:09:26.000Z</time>
      </trkpt>
      <trkpt lat="45.17762" lon="5.91843">
        <ele>1634</ele>
        <time>2019-01-20T13:09:27.000Z</time>
      </trkpt>
      <trkpt lat="45.17762" lon="5.91843">
        <ele>1633</ele>
        <time>2019-01-20T13:09:28.000Z</time>
      </trkpt>
      <trkpt lat="45.17762" lon="5.91843">
        <ele>1632</ele>
        <time>2019-01-20T13:09:29.000Z</time>
      </trkpt>
      <trkpt lat="45.17762" lon="5.91843">
        <ele>1631</ele>
        <time>2019-01-20T13:09:30.000Z</time>
      </trkpt>
      <trkpt lat="45.17762" lon="5.91843">
        <ele>1631</ele>
        <time>2019-01-20T13:09:31.000Z</time>
      </trkpt>
      <trkpt lat="45.17762" lon="5.91843">
        <ele>1631</ele>
        <time>2019-01-20T13:09:32.000Z</time>
      </trkpt>
      <trkpt lat="45.17762" lon="5.91843">
        <ele>1631</ele>
        <time>2019-01-20T13:09:33.000Z</time>
      </trkpt>
      <trkpt lat="45.17763" lon="5.91833">
        <ele>1631</ele>
        <time>2019-01-20T13:09:34.000Z</time>
      </trkpt>
      <trkpt lat="45.17763" lon="5.91833">
        <ele>1630</ele>
        <time>2019-01-20T13:09:35.000Z</time>
      </trkpt>
      <trkpt lat="45.17763" lon="5.91833">
        <ele>1630</ele>
        <time>2019-01-20T13:09:36.000Z</time>
      </trkpt>
      <trkpt lat="45.17763" lon="5.91833">
        <ele>1630</ele>
        <time>2019-01-20T13:09:37.000Z</time>
      </trkpt>
      <trkpt lat="45.17763" lon="5.91833">
        <ele>1629</ele>
        <time>2019-01-20T13:09:38.000Z</time>
      </trkpt>
      <trkpt lat="45.17763" lon="5.91833">
        <ele>1628</ele>
        <time>2019-01-20T13:09:39.000Z</time>
      </trkpt>
      <trkpt lat="45.17763" lon="5.91833">
        <ele>1627</ele>
        <time>2019-01-20T13:09:40.000Z</time>
      </trkpt>
      <trkpt lat="45.17772" lon="5.91826">
        <ele>1627</ele>
        <time>2019-01-20T13:09:42.000Z</time>
      </trkpt>
      <trkpt lat="45.17772" lon="5.91826">
        <ele>1627</ele>
        <time>2019-01-20T13:09:43.000Z</time>
      </trkpt>
      <trkpt lat="45.17772" lon="5.91826">
        <ele>1626</ele>
        <time>2019-01-20T13:09:44.000Z</time>
      </trkpt>
      <trkpt lat="45.17774" lon="5.91828">
        <ele>1626</ele>
        <time>2019-01-20T13:09:45.000Z</time>
      </trkpt>
      <trkpt lat="45.17774" lon="5.91828">
        <ele>1625</ele>
        <time>2019-01-20T13:09:46.000Z</time>
      </trkpt>
      <trkpt lat="45.17774" lon="5.91828">
        <ele>1624</ele>
        <time>2019-01-20T13:09:47.000Z</time>
      </trkpt>
      <trkpt lat="45.17774" lon="5.91828">
        <ele>1624</ele>
        <time>2019-01-20T13:09:48.000Z</time>
      </trkpt>
      <trkpt lat="45.17774" lon="5.91828">
        <ele>1624</ele>
        <time>2019-01-20T13:09:49.000Z</time>
      </trkpt>
      <trkpt lat="45.17774" lon="5.91828">
        <ele>1624</ele>
        <time>2019-01-20T13:09:50.000Z</time>
      </trkpt>
      <trkpt lat="45.17774" lon="5.91828">
        <ele>1623</ele>
        <time>2019-01-20T13:09:51.000Z</time>
      </trkpt>
      <trkpt lat="45.17774" lon="5.91828">
        <ele>1622</ele>
        <time>2019-01-20T13:09:52.000Z</time>
      </trkpt>
      <trkpt lat="45.17782" lon="5.91822">
        <ele>1622</ele>
        <time>2019-01-20T13:09:54.000Z</time>
      </trkpt>
      <trkpt lat="45.17782" lon="5.91822">
        <ele>1622</ele>
        <time>2019-01-20T13:09:55.000Z</time>
      </trkpt>
      <trkpt lat="45.17782" lon="5.91822">
        <ele>1621</ele>
        <time>2019-01-20T13:09:56.000Z</time>
      </trkpt>
      <trkpt lat="45.17782" lon="5.91822">
        <ele>1621</ele>
        <time>2019-01-20T13:09:57.000Z</time>
      </trkpt>
      <trkpt lat="45.17782" lon="5.91822">
        <ele>1621</ele>
        <time>2019-01-20T13:09:58.000Z</time>
      </trkpt>
      <trkpt lat="45.17782" lon="5.91822">
        <ele>1621</ele>
        <time>2019-01-20T13:09:59.000Z</time>
      </trkpt>
      <trkpt lat="45.17782" lon="5.91822">
        <ele>1620</ele>
        <time>2019-01-20T13:10:01.000Z</time>
      </trkpt>
      <trkpt lat="45.17782" lon="5.91822">
        <ele>1620</ele>
        <time>2019-01-20T13:10:02.000Z</time>
      </trkpt>
      <trkpt lat="45.17782" lon="5.91822">
        <ele>1620</ele>
        <time>2019-01-20T13:10:03.000Z</time>
      </trkpt>
      <trkpt lat="45.17789" lon="5.91818">
        <ele>1620</ele>
        <time>2019-01-20T13:10:04.000Z</time>
      </trkpt>
      <trkpt lat="45.17789" lon="5.91818">
        <ele>1619</ele>
        <time>2019-01-20T13:10:05.000Z</time>
      </trkpt>
      <trkpt lat="45.17789" lon="5.91818">
        <ele>1619</ele>
        <time>2019-01-20T13:10:06.000Z</time>
      </trkpt>
      <trkpt lat="45.1779" lon="5.91814">
        <ele>1618</ele>
        <time>2019-01-20T13:10:07.000Z</time>
      </trkpt>
      <trkpt lat="45.1779" lon="5.91814">
        <ele>1617</ele>
        <time>2019-01-20T13:10:08.000Z</time>
      </trkpt>
      <trkpt lat="45.1779" lon="5.91811">
        <ele>1616</ele>
        <time>2019-01-20T13:10:09.000Z</time>
      </trkpt>
      <trkpt lat="45.1779" lon="5.91811">
        <ele>1616</ele>
        <time>2019-01-20T13:10:10.000Z</time>
      </trkpt>
      <trkpt lat="45.1779" lon="5.91809">
        <ele>1615</ele>
        <time>2019-01-20T13:10:11.000Z</time>
      </trkpt>
      <trkpt lat="45.1779" lon="5.91809">
        <ele>1615</ele>
        <time>2019-01-20T13:10:12.000Z</time>
      </trkpt>
      <trkpt lat="45.1779" lon="5.91809">
        <ele>1614</ele>
        <time>2019-01-20T13:10:13.000Z</time>
      </trkpt>
      <trkpt lat="45.17788" lon="5.91806">
        <ele>1613</ele>
        <time>2019-01-20T13:10:14.000Z</time>
      </trkpt>
      <trkpt lat="45.17788" lon="5.91806">
        <ele>1613</ele>
        <time>2019-01-20T13:10:15.000Z</time>
      </trkpt>
      <trkpt lat="45.17788" lon="5.91806">
        <ele>1613</ele>
        <time>2019-01-20T13:10:16.000Z</time>
      </trkpt>
      <trkpt lat="45.17788" lon="5.91805">
        <ele>1612</ele>
        <time>2019-01-20T13:10:17.000Z</time>
      </trkpt>
      <trkpt lat="45.17788" lon="5.91805">
        <ele>1611</ele>
        <time>2019-01-20T13:10:18.000Z</time>
      </trkpt>
      <trkpt lat="45.17788" lon="5.91805">
        <ele>1610.4</ele>
        <time>2019-01-20T13:10:20.000Z</time>
      </trkpt>
      <trkpt lat="45.17788" lon="5.91805">
        <ele>1610</ele>
        <time>2019-01-20T13:10:21.000Z</time>
      </trkpt>
      <trkpt lat="45.17788" lon="5.91804">
        <ele>1610</ele>
        <time>2019-01-20T13:10:22.000Z</time>
      </trkpt>
      <trkpt lat="45.17788" lon="5.91804">
        <ele>1609</ele>
        <time>2019-01-20T13:10:23.000Z</time>
      </trkpt>
      <trkpt lat="45.17788" lon="5.91804">
        <ele>1608</ele>
        <time>2019-01-20T13:10:24.000Z</time>
      </trkpt>
      <trkpt lat="45.17788" lon="5.91804">
        <ele>1608</ele>
        <time>2019-01-20T13:10:25.000Z</time>
      </trkpt>
      <trkpt lat="45.17791" lon="5.91794">
        <ele>1608</ele>
        <time>2019-01-20T13:10:26.000Z</time>
      </trkpt>
      <trkpt lat="45.17792" lon="5.91793">
        <ele>1607</ele>
        <time>2019-01-20T13:10:27.000Z</time>
      </trkpt>
      <trkpt lat="45.17792" lon="5.91793">
        <ele>1607</ele>
        <time>2019-01-20T13:10:28.000Z</time>
      </trkpt>
      <trkpt lat="45.17793" lon="5.91793">
        <ele>1607</ele>
        <time>2019-01-20T13:10:29.000Z</time>
      </trkpt>
      <trkpt lat="45.17794" lon="5.91793">
        <ele>1606</ele>
        <time>2019-01-20T13:10:30.000Z</time>
      </trkpt>
      <trkpt lat="45.17794" lon="5.91793">
        <ele>1606</ele>
        <time>2019-01-20T13:10:31.000Z</time>
      </trkpt>
      <trkpt lat="45.17795" lon="5.91792">
        <ele>1605</ele>
        <time>2019-01-20T13:10:32.000Z</time>
      </trkpt>
      <trkpt lat="45.17795" lon="5.91792">
        <ele>1605</ele>
        <time>2019-01-20T13:10:33.000Z</time>
      </trkpt>
      <trkpt lat="45.178" lon="5.91791">
        <ele>1605</ele>
        <time>2019-01-20T13:10:34.000Z</time>
      </trkpt>
      <trkpt lat="45.178" lon="5.91791">
        <ele>1604</ele>
        <time>2019-01-20T13:10:35.000Z</time>
      </trkpt>
      <trkpt lat="45.17804" lon="5.91789">
        <ele>1603</ele>
        <time>2019-01-20T13:10:36.000Z</time>
      </trkpt>
      <trkpt lat="45.17804" lon="5.91789">
        <ele>1603</ele>
        <time>2019-01-20T13:10:37.000Z</time>
      </trkpt>
      <trkpt lat="45.17806" lon="5.91785">
        <ele>1603</ele>
        <time>2019-01-20T13:10:39.000Z</time>
      </trkpt>
      <trkpt lat="45.17806" lon="5.91785">
        <ele>1603</ele>
        <time>2019-01-20T13:10:40.000Z</time>
      </trkpt>
      <trkpt lat="45.17805" lon="5.91782">
        <ele>1602</ele>
        <time>2019-01-20T13:10:41.000Z</time>
      </trkpt>
      <trkpt lat="45.17805" lon="5.91782">
        <ele>1601</ele>
        <time>2019-01-20T13:10:42.000Z</time>
      </trkpt>
      <trkpt lat="45.17802" lon="5.91779">
        <ele>1600</ele>
        <time>2019-01-20T13:10:43.000Z</time>
      </trkpt>
      <trkpt lat="45.17802" lon="5.91779">
        <ele>1600</ele>
        <time>2019-01-20T13:10:44.000Z</time>
      </trkpt>
      <trkpt lat="45.178" lon="5.91777">
        <ele>1600</ele>
        <time>2019-01-20T13:10:45.000Z</time>
      </trkpt>
      <trkpt lat="45.178" lon="5.91777">
        <ele>1599</ele>
        <time>2019-01-20T13:10:46.000Z</time>
      </trkpt>
      <trkpt lat="45.17798" lon="5.91775">
        <ele>1599</ele>
        <time>2019-01-20T13:10:47.000Z</time>
      </trkpt>
      <trkpt lat="45.17798" lon="5.91775">
        <ele>1598</ele>
        <time>2019-01-20T13:10:48.000Z</time>
      </trkpt>
      <trkpt lat="45.17795" lon="5.91773">
        <ele>1598</ele>
        <time>2019-01-20T13:10:49.000Z</time>
      </trkpt>
      <trkpt lat="45.17795" lon="5.91773">
        <ele>1598</ele>
        <time>2019-01-20T13:10:50.000Z</time>
      </trkpt>
      <trkpt lat="45.17793" lon="5.91771">
        <ele>1598</ele>
        <time>2019-01-20T13:10:51.000Z</time>
      </trkpt>
      <trkpt lat="45.17793" lon="5.91771">
        <ele>1598</ele>
        <time>2019-01-20T13:10:52.000Z</time>
      </trkpt>
      <trkpt lat="45.17791" lon="5.91769">
        <ele>1598</ele>
        <time>2019-01-20T13:10:53.000Z</time>
      </trkpt>
      <trkpt lat="45.17791" lon="5.91769">
        <ele>1597</ele>
        <time>2019-01-20T13:10:54.000Z</time>
      </trkpt>
      <trkpt lat="45.17788" lon="5.91765">
        <ele>1596</ele>
        <time>2019-01-20T13:10:55.000Z</time>
      </trkpt>
      <trkpt lat="45.17788" lon="5.91765">
        <ele>1596</ele>
        <time>2019-01-20T13:10:56.000Z</time>
      </trkpt>
      <trkpt lat="45.17785" lon="5.91765">
        <ele>1596</ele>
        <time>2019-01-20T13:10:57.000Z</time>
      </trkpt>
      <trkpt lat="45.17785" lon="5.91765">
        <ele>1595</ele>
        <time>2019-01-20T13:10:58.000Z</time>
      </trkpt>
      <trkpt lat="45.17782" lon="5.91763">
        <ele>1595</ele>
        <time>2019-01-20T13:10:59.000Z</time>
      </trkpt>
      <trkpt lat="45.17782" lon="5.91763">
        <ele>1594</ele>
        <time>2019-01-20T13:11:00.000Z</time>
      </trkpt>
      <trkpt lat="45.1778" lon="5.91762">
        <ele>1594</ele>
        <time>2019-01-20T13:11:01.000Z</time>
      </trkpt>
      <trkpt lat="45.1778" lon="5.91762">
        <ele>1594</ele>
        <time>2019-01-20T13:11:02.000Z</time>
      </trkpt>
      <trkpt lat="45.17777" lon="5.91761">
        <ele>1593</ele>
        <time>2019-01-20T13:11:03.000Z</time>
      </trkpt>
      <trkpt lat="45.17777" lon="5.91761">
        <ele>1593</ele>
        <time>2019-01-20T13:11:04.000Z</time>
      </trkpt>
      <trkpt lat="45.17774" lon="5.9176">
        <ele>1593</ele>
        <time>2019-01-20T13:11:05.000Z</time>
      </trkpt>
      <trkpt lat="45.17774" lon="5.9176">
        <ele>1593</ele>
        <time>2019-01-20T13:11:06.000Z</time>
      </trkpt>
      <trkpt lat="45.17772" lon="5.91758">
        <ele>1592</ele>
        <time>2019-01-20T13:11:07.000Z</time>
      </trkpt>
      <trkpt lat="45.17772" lon="5.91758">
        <ele>1592</ele>
        <time>2019-01-20T13:11:08.000Z</time>
      </trkpt>
      <trkpt lat="45.1777" lon="5.91758">
        <ele>1592</ele>
        <time>2019-01-20T13:11:09.000Z</time>
      </trkpt>
      <trkpt lat="45.1777" lon="5.91758">
        <ele>1592</ele>
        <time>2019-01-20T13:11:10.000Z</time>
      </trkpt>
      <trkpt lat="45.1777" lon="5.91758">
        <ele>1591</ele>
        <time>2019-01-20T13:11:11.000Z</time>
      </trkpt>
      <trkpt lat="45.17766" lon="5.91756">
        <ele>1591</ele>
        <time>2019-01-20T13:11:12.000Z</time>
      </trkpt>
      <trkpt lat="45.17764" lon="5.91753">
        <ele>1590.4</ele>
        <time>2019-01-20T13:11:14.000Z</time>
      </trkpt>
      <trkpt lat="45.17764" lon="5.91753">
        <ele>1590</ele>
        <time>2019-01-20T13:11:15.000Z</time>
      </trkpt>
      <trkpt lat="45.17764" lon="5.91753">
        <ele>1590</ele>
        <time>2019-01-20T13:11:17.000Z</time>
      </trkpt>
      <trkpt lat="45.17764" lon="5.91753">
        <ele>1590</ele>
        <time>2019-01-20T13:11:18.000Z</time>
      </trkpt>
      <trkpt lat="45.17764" lon="5.91753">
        <ele>1590</ele>
        <time>2019-01-20T13:11:19.000Z</time>
      </trkpt>
      <trkpt lat="45.17764" lon="5.91753">
        <ele>1590</ele>
        <time>2019-01-20T13:11:20.000Z</time>
      </trkpt>
      <trkpt lat="45.17764" lon="5.91753">
        <ele>1590</ele>
        <time>2019-01-20T13:11:21.000Z</time>
      </trkpt>
      <trkpt lat="45.17764" lon="5.91753">
        <ele>1590</ele>
        <time>2019-01-20T13:11:22.000Z</time>
      </trkpt>
      <trkpt lat="45.17764" lon="5.91753">
        <ele>1590</ele>
        <time>2019-01-20T13:11:23.000Z</time>
      </trkpt>
      <trkpt lat="45.17764" lon="5.91753">
        <ele>1590</ele>
        <time>2019-01-20T13:11:24.000Z</time>
      </trkpt>
      <trkpt lat="45.17764" lon="5.91753">
        <ele>1590</ele>
        <time>2019-01-20T13:11:25.000Z</time>
      </trkpt>
      <trkpt lat="45.17764" lon="5.91753">
        <ele>1590</ele>
        <time>2019-01-20T13:11:26.000Z</time>
      </trkpt>
      <trkpt lat="45.17763" lon="5.91752">
        <ele>1590</ele>
        <time>2019-01-20T13:11:27.000Z</time>
      </trkpt>
      <trkpt lat="45.17763" lon="5.91752">
        <ele>1590</ele>
        <time>2019-01-20T13:11:28.000Z</time>
      </trkpt>
      <trkpt lat="45.1776" lon="5.91751">
        <ele>1590</ele>
        <time>2019-01-20T13:11:29.000Z</time>
      </trkpt>
      <trkpt lat="45.1776" lon="5.91751">
        <ele>1589</ele>
        <time>2019-01-20T13:11:30.000Z</time>
      </trkpt>
      <trkpt lat="45.17757" lon="5.91749">
        <ele>1588</ele>
        <time>2019-01-20T13:11:31.000Z</time>
      </trkpt>
      <trkpt lat="45.17757" lon="5.91749">
        <ele>1587</ele>
        <time>2019-01-20T13:11:32.000Z</time>
      </trkpt>
      <trkpt lat="45.17755" lon="5.91747">
        <ele>1587</ele>
        <time>2019-01-20T13:11:33.000Z</time>
      </trkpt>
      <trkpt lat="45.17755" lon="5.91747">
        <ele>1587</ele>
        <time>2019-01-20T13:11:34.000Z</time>
      </trkpt>
      <trkpt lat="45.17752" lon="5.91745">
        <ele>1587</ele>
        <time>2019-01-20T13:11:35.000Z</time>
      </trkpt>
      <trkpt lat="45.17752" lon="5.91745">
        <ele>1586</ele>
        <time>2019-01-20T13:11:36.000Z</time>
      </trkpt>
      <trkpt lat="45.1775" lon="5.91745">
        <ele>1586</ele>
        <time>2019-01-20T13:11:37.000Z</time>
      </trkpt>
      <trkpt lat="45.1775" lon="5.91745">
        <ele>1586</ele>
        <time>2019-01-20T13:11:38.000Z</time>
      </trkpt>
      <trkpt lat="45.17748" lon="5.91744">
        <ele>1585</ele>
        <time>2019-01-20T13:11:39.000Z</time>
      </trkpt>
      <trkpt lat="45.17748" lon="5.91744">
        <ele>1585</ele>
        <time>2019-01-20T13:11:40.000Z</time>
      </trkpt>
      <trkpt lat="45.17745" lon="5.91742">
        <ele>1585</ele>
        <time>2019-01-20T13:11:41.000Z</time>
      </trkpt>
      <trkpt lat="45.17745" lon="5.91742">
        <ele>1584</ele>
        <time>2019-01-20T13:11:42.000Z</time>
      </trkpt>
      <trkpt lat="45.17745" lon="5.91738">
        <ele>1584</ele>
        <time>2019-01-20T13:11:43.000Z</time>
      </trkpt>
      <trkpt lat="45.17745" lon="5.91738">
        <ele>1584</ele>
        <time>2019-01-20T13:11:44.000Z</time>
      </trkpt>
      <trkpt lat="45.17747" lon="5.91735">
        <ele>1583</ele>
        <time>2019-01-20T13:11:45.000Z</time>
      </trkpt>
      <trkpt lat="45.17747" lon="5.91735">
        <ele>1583</ele>
        <time>2019-01-20T13:11:46.000Z</time>
      </trkpt>
      <trkpt lat="45.1775" lon="5.91734">
        <ele>1583</ele>
        <time>2019-01-20T13:11:47.000Z</time>
      </trkpt>
      <trkpt lat="45.1775" lon="5.91734">
        <ele>1583</ele>
        <time>2019-01-20T13:11:48.000Z</time>
      </trkpt>
      <trkpt lat="45.17752" lon="5.91733">
        <ele>1583</ele>
        <time>2019-01-20T13:11:49.000Z</time>
      </trkpt>
      <trkpt lat="45.17752" lon="5.91733">
        <ele>1583</ele>
        <time>2019-01-20T13:11:50.000Z</time>
      </trkpt>
      <trkpt lat="45.17754" lon="5.91731">
        <ele>1582</ele>
        <time>2019-01-20T13:11:51.000Z</time>
      </trkpt>
      <trkpt lat="45.17754" lon="5.91731">
        <ele>1582</ele>
        <time>2019-01-20T13:11:52.000Z</time>
      </trkpt>
      <trkpt lat="45.17756" lon="5.91728">
        <ele>1581</ele>
        <time>2019-01-20T13:11:53.000Z</time>
      </trkpt>
      <trkpt lat="45.17758" lon="5.91725">
        <ele>1581</ele>
        <time>2019-01-20T13:11:55.000Z</time>
      </trkpt>
      <trkpt lat="45.17758" lon="5.91725">
        <ele>1581</ele>
        <time>2019-01-20T13:11:56.000Z</time>
      </trkpt>
      <trkpt lat="45.17761" lon="5.91723">
        <ele>1581</ele>
        <time>2019-01-20T13:11:57.000Z</time>
      </trkpt>
      <trkpt lat="45.17761" lon="5.91723">
        <ele>1581</ele>
        <time>2019-01-20T13:11:58.000Z</time>
      </trkpt>
      <trkpt lat="45.17763" lon="5.91722">
        <ele>1580</ele>
        <time>2019-01-20T13:11:59.000Z</time>
      </trkpt>
      <trkpt lat="45.17763" lon="5.91722">
        <ele>1580</ele>
        <time>2019-01-20T13:12:00.000Z</time>
      </trkpt>
      <trkpt lat="45.17765" lon="5.91721">
        <ele>1579</ele>
        <time>2019-01-20T13:12:01.000Z</time>
      </trkpt>
      <trkpt lat="45.17768" lon="5.91719">
        <ele>1578</ele>
        <time>2019-01-20T13:12:03.000Z</time>
      </trkpt>
      <trkpt lat="45.17768" lon="5.91719">
        <ele>1577</ele>
        <time>2019-01-20T13:12:04.000Z</time>
      </trkpt>
      <trkpt lat="45.1777" lon="5.91717">
        <ele>1577</ele>
        <time>2019-01-20T13:12:05.000Z</time>
      </trkpt>
      <trkpt lat="45.17772" lon="5.91715">
        <ele>1577</ele>
        <time>2019-01-20T13:12:06.000Z</time>
      </trkpt>
      <trkpt lat="45.17772" lon="5.91715">
        <ele>1577</ele>
        <time>2019-01-20T13:12:07.000Z</time>
      </trkpt>
      <trkpt lat="45.17774" lon="5.91713">
        <ele>1577</ele>
        <time>2019-01-20T13:12:08.000Z</time>
      </trkpt>
      <trkpt lat="45.17774" lon="5.91713">
        <ele>1576</ele>
        <time>2019-01-20T13:12:09.000Z</time>
      </trkpt>
      <trkpt lat="45.17776" lon="5.91711">
        <ele>1576</ele>
        <time>2019-01-20T13:12:10.000Z</time>
      </trkpt>
      <trkpt lat="45.17776" lon="5.91711">
        <ele>1576</ele>
        <time>2019-01-20T13:12:11.000Z</time>
      </trkpt>
      <trkpt lat="45.17776" lon="5.91711">
        <ele>1576</ele>
        <time>2019-01-20T13:12:12.000Z</time>
      </trkpt>
      <trkpt lat="45.17776" lon="5.91711">
        <ele>1575</ele>
        <time>2019-01-20T13:12:14.000Z</time>
      </trkpt>
      <trkpt lat="45.17777" lon="5.9171">
        <ele>1575</ele>
        <time>2019-01-20T13:12:15.000Z</time>
      </trkpt>
      <trkpt lat="45.17779" lon="5.9171">
        <ele>1574</ele>
        <time>2019-01-20T13:12:16.000Z</time>
      </trkpt>
      <trkpt lat="45.1778" lon="5.9171">
        <ele>1574</ele>
        <time>2019-01-20T13:12:17.000Z</time>
      </trkpt>
      <trkpt lat="45.17781" lon="5.9171">
        <ele>1573</ele>
        <time>2019-01-20T13:12:18.000Z</time>
      </trkpt>
      <trkpt lat="45.17783" lon="5.91709">
        <ele>1573</ele>
        <time>2019-01-20T13:12:19.000Z</time>
      </trkpt>
      <trkpt lat="45.17784" lon="5.91709">
        <ele>1572</ele>
        <time>2019-01-20T13:12:20.000Z</time>
      </trkpt>
      <trkpt lat="45.17785" lon="5.91709">
        <ele>1572</ele>
        <time>2019-01-20T13:12:21.000Z</time>
      </trkpt>
      <trkpt lat="45.17795" lon="5.91706">
        <ele>1572</ele>
        <time>2019-01-20T13:12:22.000Z</time>
      </trkpt>
      <trkpt lat="45.17795" lon="5.91706">
        <ele>1572</ele>
        <time>2019-01-20T13:12:23.000Z</time>
      </trkpt>
      <trkpt lat="45.17796" lon="5.91705">
        <ele>1571</ele>
        <time>2019-01-20T13:12:24.000Z</time>
      </trkpt>
      <trkpt lat="45.17797" lon="5.91705">
        <ele>1571</ele>
        <time>2019-01-20T13:12:25.000Z</time>
      </trkpt>
      <trkpt lat="45.17798" lon="5.91704">
        <ele>1570</ele>
        <time>2019-01-20T13:12:26.000Z</time>
      </trkpt>
      <trkpt lat="45.17799" lon="5.91704">
        <ele>1570</ele>
        <time>2019-01-20T13:12:27.000Z</time>
      </trkpt>
      <trkpt lat="45.17803" lon="5.91702">
        <ele>1569</ele>
        <time>2019-01-20T13:12:28.000Z</time>
      </trkpt>
      <trkpt lat="45.17803" lon="5.91702">
        <ele>1568</ele>
        <time>2019-01-20T13:12:29.000Z</time>
      </trkpt>
      <trkpt lat="45.17806" lon="5.917">
        <ele>1568</ele>
        <time>2019-01-20T13:12:30.000Z</time>
      </trkpt>
      <trkpt lat="45.17808" lon="5.917">
        <ele>1568</ele>
        <time>2019-01-20T13:12:31.000Z</time>
      </trkpt>
      <trkpt lat="45.17808" lon="5.917">
        <ele>1567.6</ele>
        <time>2019-01-20T13:12:33.000Z</time>
      </trkpt>
      <trkpt lat="45.17808" lon="5.917">
        <ele>1567</ele>
        <time>2019-01-20T13:12:34.000Z</time>
      </trkpt>
      <trkpt lat="45.17808" lon="5.917">
        <ele>1567</ele>
        <time>2019-01-20T13:12:35.000Z</time>
      </trkpt>
      <trkpt lat="45.17808" lon="5.917">
        <ele>1567</ele>
        <time>2019-01-20T13:12:36.000Z</time>
      </trkpt>
      <trkpt lat="45.17818" lon="5.91697">
        <ele>1565.6</ele>
        <time>2019-01-20T13:12:38.000Z</time>
      </trkpt>
      <trkpt lat="45.17818" lon="5.91697">
        <ele>1565</ele>
        <time>2019-01-20T13:12:40.000Z</time>
      </trkpt>
      <trkpt lat="45.17823" lon="5.91695">
        <ele>1565</ele>
        <time>2019-01-20T13:12:41.000Z</time>
      </trkpt>
      <trkpt lat="45.17823" lon="5.91695">
        <ele>1564</ele>
        <time>2019-01-20T13:12:42.000Z</time>
      </trkpt>
      <trkpt lat="45.17823" lon="5.91695">
        <ele>1564</ele>
        <time>2019-01-20T13:12:43.000Z</time>
      </trkpt>
      <trkpt lat="45.17823" lon="5.91695">
        <ele>1564</ele>
        <time>2019-01-20T13:12:44.000Z</time>
      </trkpt>
      <trkpt lat="45.17823" lon="5.91695">
        <ele>1564</ele>
        <time>2019-01-20T13:12:45.000Z</time>
      </trkpt>
      <trkpt lat="45.17823" lon="5.91695">
        <ele>1564</ele>
        <time>2019-01-20T13:12:46.000Z</time>
      </trkpt>
      <trkpt lat="45.17825" lon="5.91695">
        <ele>1564</ele>
        <time>2019-01-20T13:12:47.000Z</time>
      </trkpt>
      <trkpt lat="45.17827" lon="5.91696">
        <ele>1563</ele>
        <time>2019-01-20T13:12:48.000Z</time>
      </trkpt>
      <trkpt lat="45.17828" lon="5.91696">
        <ele>1563</ele>
        <time>2019-01-20T13:12:49.000Z</time>
      </trkpt>
      <trkpt lat="45.1783" lon="5.91696">
        <ele>1562</ele>
        <time>2019-01-20T13:12:50.000Z</time>
      </trkpt>
      <trkpt lat="45.17831" lon="5.91696">
        <ele>1562</ele>
        <time>2019-01-20T13:12:52.000Z</time>
      </trkpt>
      <trkpt lat="45.17833" lon="5.91696">
        <ele>1561</ele>
        <time>2019-01-20T13:12:53.000Z</time>
      </trkpt>
      <trkpt lat="45.17833" lon="5.91696">
        <ele>1561</ele>
        <time>2019-01-20T13:12:54.000Z</time>
      </trkpt>
      <trkpt lat="45.1784" lon="5.91691">
        <ele>1560</ele>
        <time>2019-01-20T13:12:55.000Z</time>
      </trkpt>
      <trkpt lat="45.1784" lon="5.91691">
        <ele>1560</ele>
        <time>2019-01-20T13:12:56.000Z</time>
      </trkpt>
      <trkpt lat="45.1784" lon="5.91691">
        <ele>1560</ele>
        <time>2019-01-20T13:12:57.000Z</time>
      </trkpt>
      <trkpt lat="45.17837" lon="5.9169">
        <ele>1560</ele>
        <time>2019-01-20T13:12:58.000Z</time>
      </trkpt>
      <trkpt lat="45.17837" lon="5.9169">
        <ele>1559</ele>
        <time>2019-01-20T13:12:59.000Z</time>
      </trkpt>
      <trkpt lat="45.17834" lon="5.91689">
        <ele>1559</ele>
        <time>2019-01-20T13:13:00.000Z</time>
      </trkpt>
      <trkpt lat="45.17834" lon="5.91689">
        <ele>1559</ele>
        <time>2019-01-20T13:13:01.000Z</time>
      </trkpt>
      <trkpt lat="45.17831" lon="5.91687">
        <ele>1558</ele>
        <time>2019-01-20T13:13:02.000Z</time>
      </trkpt>
      <trkpt lat="45.17831" lon="5.91687">
        <ele>1558</ele>
        <time>2019-01-20T13:13:03.000Z</time>
      </trkpt>
      <trkpt lat="45.17831" lon="5.91687">
        <ele>1558</ele>
        <time>2019-01-20T13:13:04.000Z</time>
      </trkpt>
      <trkpt lat="45.1783" lon="5.91687">
        <ele>1558</ele>
        <time>2019-01-20T13:13:05.000Z</time>
      </trkpt>
      <trkpt lat="45.1783" lon="5.91687">
        <ele>1558</ele>
        <time>2019-01-20T13:13:06.000Z</time>
      </trkpt>
      <trkpt lat="45.1783" lon="5.91687">
        <ele>1558</ele>
        <time>2019-01-20T13:13:07.000Z</time>
      </trkpt>
      <trkpt lat="45.17829" lon="5.91687">
        <ele>1558</ele>
        <time>2019-01-20T13:13:08.000Z</time>
      </trkpt>
      <trkpt lat="45.17829" lon="5.91687">
        <ele>1558</ele>
        <time>2019-01-20T13:13:09.000Z</time>
      </trkpt>
      <trkpt lat="45.1782" lon="5.9168">
        <ele>1556.4</ele>
        <time>2019-01-20T13:13:11.000Z</time>
      </trkpt>
      <trkpt lat="45.1782" lon="5.9168">
        <ele>1556</ele>
        <time>2019-01-20T13:13:12.000Z</time>
      </trkpt>
      <trkpt lat="45.1782" lon="5.9168">
        <ele>1556</ele>
        <time>2019-01-20T13:13:13.000Z</time>
      </trkpt>
      <trkpt lat="45.1782" lon="5.9168">
        <ele>1556</ele>
        <time>2019-01-20T13:13:15.000Z</time>
      </trkpt>
      <trkpt lat="45.17815" lon="5.91679">
        <ele>1556</ele>
        <time>2019-01-20T13:13:16.000Z</time>
      </trkpt>
      <trkpt lat="45.17815" lon="5.91679">
        <ele>1555</ele>
        <time>2019-01-20T13:13:17.000Z</time>
      </trkpt>
      <trkpt lat="45.17812" lon="5.91677">
        <ele>1555</ele>
        <time>2019-01-20T13:13:18.000Z</time>
      </trkpt>
      <trkpt lat="45.17812" lon="5.91677">
        <ele>1555</ele>
        <time>2019-01-20T13:13:19.000Z</time>
      </trkpt>
      <trkpt lat="45.1781" lon="5.91675">
        <ele>1553</ele>
        <time>2019-01-20T13:13:20.000Z</time>
      </trkpt>
      <trkpt lat="45.1781" lon="5.91675">
        <ele>1553</ele>
        <time>2019-01-20T13:13:21.000Z</time>
      </trkpt>
      <trkpt lat="45.17808" lon="5.91672">
        <ele>1552</ele>
        <time>2019-01-20T13:13:22.000Z</time>
      </trkpt>
      <trkpt lat="45.17806" lon="5.91671">
        <ele>1552</ele>
        <time>2019-01-20T13:13:23.000Z</time>
      </trkpt>
      <trkpt lat="45.17806" lon="5.91671">
        <ele>1551</ele>
        <time>2019-01-20T13:13:24.000Z</time>
      </trkpt>
      <trkpt lat="45.17803" lon="5.91669">
        <ele>1551</ele>
        <time>2019-01-20T13:13:25.000Z</time>
      </trkpt>
      <trkpt lat="45.17803" lon="5.91669">
        <ele>1550</ele>
        <time>2019-01-20T13:13:26.000Z</time>
      </trkpt>
      <trkpt lat="45.178" lon="5.91667">
        <ele>1550</ele>
        <time>2019-01-20T13:13:27.000Z</time>
      </trkpt>
      <trkpt lat="45.178" lon="5.91667">
        <ele>1550</ele>
        <time>2019-01-20T13:13:28.000Z</time>
      </trkpt>
      <trkpt lat="45.17798" lon="5.91666">
        <ele>1550</ele>
        <time>2019-01-20T13:13:29.000Z</time>
      </trkpt>
      <trkpt lat="45.17798" lon="5.91666">
        <ele>1549.6</ele>
        <time>2019-01-20T13:13:30.000Z</time>
      </trkpt>
      <trkpt lat="45.17795" lon="5.91666">
        <ele>1549</ele>
        <time>2019-01-20T13:13:31.000Z</time>
      </trkpt>
      <trkpt lat="45.17795" lon="5.91666">
        <ele>1549</ele>
        <time>2019-01-20T13:13:32.000Z</time>
      </trkpt>
      <trkpt lat="45.17795" lon="5.91666">
        <ele>1548</ele>
        <time>2019-01-20T13:13:33.000Z</time>
      </trkpt>
      <trkpt lat="45.17795" lon="5.91666">
        <ele>1548</ele>
        <time>2019-01-20T13:13:34.000Z</time>
      </trkpt>
      <trkpt lat="45.17797" lon="5.91659">
        <ele>1547</ele>
        <time>2019-01-20T13:13:35.000Z</time>
      </trkpt>
      <trkpt lat="45.17797" lon="5.91659">
        <ele>1547</ele>
        <time>2019-01-20T13:13:36.000Z</time>
      </trkpt>
      <trkpt lat="45.17799" lon="5.91657">
        <ele>1546</ele>
        <time>2019-01-20T13:13:37.000Z</time>
      </trkpt>
      <trkpt lat="45.17799" lon="5.91657">
        <ele>1546</ele>
        <time>2019-01-20T13:13:38.000Z</time>
      </trkpt>
      <trkpt lat="45.17802" lon="5.91654">
        <ele>1546</ele>
        <time>2019-01-20T13:13:39.000Z</time>
      </trkpt>
      <trkpt lat="45.17802" lon="5.91654">
        <ele>1546</ele>
        <time>2019-01-20T13:13:40.000Z</time>
      </trkpt>
      <trkpt lat="45.17805" lon="5.91652">
        <ele>1546</ele>
        <time>2019-01-20T13:13:41.000Z</time>
      </trkpt>
      <trkpt lat="45.17805" lon="5.91652">
        <ele>1545</ele>
        <time>2019-01-20T13:13:42.000Z</time>
      </trkpt>
      <trkpt lat="45.17808" lon="5.9165">
        <ele>1545</ele>
        <time>2019-01-20T13:13:43.000Z</time>
      </trkpt>
      <trkpt lat="45.17808" lon="5.9165">
        <ele>1545</ele>
        <time>2019-01-20T13:13:44.000Z</time>
      </trkpt>
      <trkpt lat="45.17809" lon="5.91648">
        <ele>1545</ele>
        <time>2019-01-20T13:13:45.000Z</time>
      </trkpt>
      <trkpt lat="45.17809" lon="5.91648">
        <ele>1544</ele>
        <time>2019-01-20T13:13:46.000Z</time>
      </trkpt>
      <trkpt lat="45.17809" lon="5.91648">
        <ele>1544</ele>
        <time>2019-01-20T13:13:47.000Z</time>
      </trkpt>
      <trkpt lat="45.17809" lon="5.91648">
        <ele>1544</ele>
        <time>2019-01-20T13:13:49.000Z</time>
      </trkpt>
      <trkpt lat="45.17809" lon="5.91648">
        <ele>1544</ele>
        <time>2019-01-20T13:13:50.000Z</time>
      </trkpt>
      <trkpt lat="45.17809" lon="5.91648">
        <ele>1543</ele>
        <time>2019-01-20T13:13:51.000Z</time>
      </trkpt>
      <trkpt lat="45.17809" lon="5.91648">
        <ele>1543</ele>
        <time>2019-01-20T13:13:52.000Z</time>
      </trkpt>
      <trkpt lat="45.17809" lon="5.91648">
        <ele>1543</ele>
        <time>2019-01-20T13:13:53.000Z</time>
      </trkpt>
      <trkpt lat="45.17809" lon="5.91648">
        <ele>1543</ele>
        <time>2019-01-20T13:13:54.000Z</time>
      </trkpt>
      <trkpt lat="45.17809" lon="5.91648">
        <ele>1543</ele>
        <time>2019-01-20T13:13:55.000Z</time>
      </trkpt>
      <trkpt lat="45.17809" lon="5.91648">
        <ele>1543</ele>
        <time>2019-01-20T13:13:56.000Z</time>
      </trkpt>
      <trkpt lat="45.17808" lon="5.91651">
        <ele>1543</ele>
        <time>2019-01-20T13:13:57.000Z</time>
      </trkpt>
      <trkpt lat="45.17808" lon="5.91651">
        <ele>1543</ele>
        <time>2019-01-20T13:13:58.000Z</time>
      </trkpt>
      <trkpt lat="45.17808" lon="5.91651">
        <ele>1543</ele>
        <time>2019-01-20T13:13:59.000Z</time>
      </trkpt>
      <trkpt lat="45.17808" lon="5.91651">
        <ele>1543</ele>
        <time>2019-01-20T13:14:00.000Z</time>
      </trkpt>
      <trkpt lat="45.17808" lon="5.91651">
        <ele>1543</ele>
        <time>2019-01-20T13:14:01.000Z</time>
      </trkpt>
      <trkpt lat="45.17808" lon="5.91651">
        <ele>1543</ele>
        <time>2019-01-20T13:14:02.000Z</time>
      </trkpt>
      <trkpt lat="45.17809" lon="5.91649">
        <ele>1543</ele>
        <time>2019-01-20T13:14:04.000Z</time>
      </trkpt>
      <trkpt lat="45.17809" lon="5.91649">
        <ele>1543</ele>
        <time>2019-01-20T13:14:05.000Z</time>
      </trkpt>
      <trkpt lat="45.17809" lon="5.91649">
        <ele>1543</ele>
        <time>2019-01-20T13:14:06.000Z</time>
      </trkpt>
      <trkpt lat="45.17809" lon="5.91649">
        <ele>1543</ele>
        <time>2019-01-20T13:14:08.000Z</time>
      </trkpt>
      <trkpt lat="45.17809" lon="5.91649">
        <ele>1543</ele>
        <time>2019-01-20T13:14:09.000Z</time>
      </trkpt>
      <trkpt lat="45.17809" lon="5.91649">
        <ele>1543</ele>
        <time>2019-01-20T13:14:10.000Z</time>
      </trkpt>
      <trkpt lat="45.17809" lon="5.91649">
        <ele>1543</ele>
        <time>2019-01-20T13:14:11.000Z</time>
      </trkpt>
      <trkpt lat="45.17809" lon="5.91649">
        <ele>1543</ele>
        <time>2019-01-20T13:14:12.000Z</time>
      </trkpt>
      <trkpt lat="45.17809" lon="5.91644">
        <ele>1543</ele>
        <time>2019-01-20T13:14:13.000Z</time>
      </trkpt>
      <trkpt lat="45.17809" lon="5.91644">
        <ele>1543</ele>
        <time>2019-01-20T13:14:14.000Z</time>
      </trkpt>
      <trkpt lat="45.17809" lon="5.91644">
        <ele>1544</ele>
        <time>2019-01-20T13:14:15.000Z</time>
      </trkpt>
      <trkpt lat="45.17809" lon="5.91644">
        <ele>1544</ele>
        <time>2019-01-20T13:14:16.000Z</time>
      </trkpt>
      <trkpt lat="45.17811" lon="5.91645">
        <ele>1544</ele>
        <time>2019-01-20T13:14:17.000Z</time>
      </trkpt>
      <trkpt lat="45.17812" lon="5.91646">
        <ele>1544</ele>
        <time>2019-01-20T13:14:18.000Z</time>
      </trkpt>
      <trkpt lat="45.17812" lon="5.91646">
        <ele>1544</ele>
        <time>2019-01-20T13:14:19.000Z</time>
      </trkpt>
      <trkpt lat="45.17816" lon="5.91645">
        <ele>1544</ele>
        <time>2019-01-20T13:14:20.000Z</time>
      </trkpt>
      <trkpt lat="45.1782" lon="5.91642">
        <ele>1541</ele>
        <time>2019-01-20T13:14:21.000Z</time>
      </trkpt>
      <trkpt lat="45.17822" lon="5.9164">
        <ele>1541</ele>
        <time>2019-01-20T13:14:22.000Z</time>
      </trkpt>
      <trkpt lat="45.17824" lon="5.91639">
        <ele>1541</ele>
        <time>2019-01-20T13:14:23.000Z</time>
      </trkpt>
      <trkpt lat="45.1783" lon="5.91635">
        <ele>1540</ele>
        <time>2019-01-20T13:14:24.000Z</time>
      </trkpt>
      <trkpt lat="45.1783" lon="5.91635">
        <ele>1539</ele>
        <time>2019-01-20T13:14:25.000Z</time>
      </trkpt>
      <trkpt lat="45.17839" lon="5.91631">
        <ele>1539</ele>
        <time>2019-01-20T13:14:26.000Z</time>
      </trkpt>
      <trkpt lat="45.17839" lon="5.91631">
        <ele>1536</ele>
        <time>2019-01-20T13:14:27.000Z</time>
      </trkpt>
      <trkpt lat="45.17853" lon="5.9162">
        <ele>1535</ele>
        <time>2019-01-20T13:14:28.000Z</time>
      </trkpt>
      <trkpt lat="45.17859" lon="5.91616">
        <ele>1533</ele>
        <time>2019-01-20T13:14:30.000Z</time>
      </trkpt>
      <trkpt lat="45.17863" lon="5.91612">
        <ele>1532</ele>
        <time>2019-01-20T13:14:31.000Z</time>
      </trkpt>
      <trkpt lat="45.1787" lon="5.91605">
        <ele>1531</ele>
        <time>2019-01-20T13:14:32.000Z</time>
      </trkpt>
      <trkpt lat="45.17873" lon="5.91604">
        <ele>1530</ele>
        <time>2019-01-20T13:14:33.000Z</time>
      </trkpt>
      <trkpt lat="45.17876" lon="5.91603">
        <ele>1529</ele>
        <time>2019-01-20T13:14:34.000Z</time>
      </trkpt>
      <trkpt lat="45.17878" lon="5.91602">
        <ele>1527</ele>
        <time>2019-01-20T13:14:35.000Z</time>
      </trkpt>
      <trkpt lat="45.17889" lon="5.91598">
        <ele>1525</ele>
        <time>2019-01-20T13:14:36.000Z</time>
      </trkpt>
      <trkpt lat="45.17895" lon="5.91595">
        <ele>1525</ele>
        <time>2019-01-20T13:14:37.000Z</time>
      </trkpt>
      <trkpt lat="45.17901" lon="5.91592">
        <ele>1523.6</ele>
        <time>2019-01-20T13:14:38.000Z</time>
      </trkpt>
      <trkpt lat="45.1791" lon="5.91589">
        <ele>1521</ele>
        <time>2019-01-20T13:14:39.000Z</time>
      </trkpt>
      <trkpt lat="45.17912" lon="5.91589">
        <ele>1520</ele>
        <time>2019-01-20T13:14:40.000Z</time>
      </trkpt>
      <trkpt lat="45.17917" lon="5.91588">
        <ele>1519</ele>
        <time>2019-01-20T13:14:41.000Z</time>
      </trkpt>
      <trkpt lat="45.17921" lon="5.91587">
        <ele>1518</ele>
        <time>2019-01-20T13:14:42.000Z</time>
      </trkpt>
      <trkpt lat="45.17921" lon="5.91587">
        <ele>1518</ele>
        <time>2019-01-20T13:14:43.000Z</time>
      </trkpt>
      <trkpt lat="45.1793" lon="5.91586">
        <ele>1517</ele>
        <time>2019-01-20T13:14:44.000Z</time>
      </trkpt>
      <trkpt lat="45.17937" lon="5.91584">
        <ele>1517</ele>
        <time>2019-01-20T13:14:45.000Z</time>
      </trkpt>
      <trkpt lat="45.17939" lon="5.91583">
        <ele>1515.6</ele>
        <time>2019-01-20T13:14:46.000Z</time>
      </trkpt>
      <trkpt lat="45.17945" lon="5.91582">
        <ele>1515.6</ele>
        <time>2019-01-20T13:14:47.000Z</time>
      </trkpt>
      <trkpt lat="45.17947" lon="5.91582">
        <ele>1514.4</ele>
        <time>2019-01-20T13:14:48.000Z</time>
      </trkpt>
      <trkpt lat="45.17951" lon="5.91582">
        <ele>1513</ele>
        <time>2019-01-20T13:14:49.000Z</time>
      </trkpt>
      <trkpt lat="45.17956" lon="5.91582">
        <ele>1512</ele>
        <time>2019-01-20T13:14:50.000Z</time>
      </trkpt>
      <trkpt lat="45.17961" lon="5.91581">
        <ele>1509</ele>
        <time>2019-01-20T13:14:51.000Z</time>
      </trkpt>
      <trkpt lat="45.17968" lon="5.91581">
        <ele>1508</ele>
        <time>2019-01-20T13:14:52.000Z</time>
      </trkpt>
      <trkpt lat="45.17976" lon="5.9158">
        <ele>1506</ele>
        <time>2019-01-20T13:14:53.000Z</time>
      </trkpt>
      <trkpt lat="45.17988" lon="5.91578">
        <ele>1506</ele>
        <time>2019-01-20T13:14:54.000Z</time>
      </trkpt>
      <trkpt lat="45.17993" lon="5.91578">
        <ele>1501</ele>
        <time>2019-01-20T13:14:55.000Z</time>
      </trkpt>
      <trkpt lat="45.18002" lon="5.91577">
        <ele>1497</ele>
        <time>2019-01-20T13:14:56.000Z</time>
      </trkpt>
      <trkpt lat="45.18012" lon="5.91578">
        <ele>1498</ele>
        <time>2019-01-20T13:14:57.000Z</time>
      </trkpt>
      <trkpt lat="45.18022" lon="5.91579">
        <ele>1498</ele>
        <time>2019-01-20T13:14:58.000Z</time>
      </trkpt>
      <trkpt lat="45.18032" lon="5.91579">
        <ele>1497</ele>
        <time>2019-01-20T13:14:59.000Z</time>
      </trkpt>
      <trkpt lat="45.1805" lon="5.9158">
        <ele>1496</ele>
        <time>2019-01-20T13:15:00.000Z</time>
      </trkpt>
      <trkpt lat="45.18058" lon="5.9158">
        <ele>1495.6</ele>
        <time>2019-01-20T13:15:02.000Z</time>
      </trkpt>
      <trkpt lat="45.18065" lon="5.91578">
        <ele>1494</ele>
        <time>2019-01-20T13:15:03.000Z</time>
      </trkpt>
      <trkpt lat="45.18072" lon="5.91576">
        <ele>1494</ele>
        <time>2019-01-20T13:15:04.000Z</time>
      </trkpt>
      <trkpt lat="45.1808" lon="5.91574">
        <ele>1492.4</ele>
        <time>2019-01-20T13:15:05.000Z</time>
      </trkpt>
      <trkpt lat="45.18087" lon="5.91572">
        <ele>1492.4</ele>
        <time>2019-01-20T13:15:06.000Z</time>
      </trkpt>
      <trkpt lat="45.18087" lon="5.91572">
        <ele>1491.6</ele>
        <time>2019-01-20T13:15:07.000Z</time>
      </trkpt>
      <trkpt lat="45.181" lon="5.91568">
        <ele>1490</ele>
        <time>2019-01-20T13:15:08.000Z</time>
      </trkpt>
      <trkpt lat="45.18103" lon="5.91566">
        <ele>1489</ele>
        <time>2019-01-20T13:15:09.000Z</time>
      </trkpt>
      <trkpt lat="45.18112" lon="5.91558">
        <ele>1489</ele>
        <time>2019-01-20T13:15:10.000Z</time>
      </trkpt>
      <trkpt lat="45.18114" lon="5.91554">
        <ele>1488</ele>
        <time>2019-01-20T13:15:11.000Z</time>
      </trkpt>
      <trkpt lat="45.1812" lon="5.91539">
        <ele>1487</ele>
        <time>2019-01-20T13:15:12.000Z</time>
      </trkpt>
      <trkpt lat="45.18121" lon="5.91534">
        <ele>1486</ele>
        <time>2019-01-20T13:15:13.000Z</time>
      </trkpt>
      <trkpt lat="45.18123" lon="5.91513">
        <ele>1485</ele>
        <time>2019-01-20T13:15:14.000Z</time>
      </trkpt>
      <trkpt lat="45.18122" lon="5.91504">
        <ele>1484</ele>
        <time>2019-01-20T13:15:16.000Z</time>
      </trkpt>
      <trkpt lat="45.1812" lon="5.91495">
        <ele>1484</ele>
        <time>2019-01-20T13:15:17.000Z</time>
      </trkpt>
      <trkpt lat="45.18119" lon="5.91487">
        <ele>1483</ele>
        <time>2019-01-20T13:15:18.000Z</time>
      </trkpt>
      <trkpt lat="45.1812" lon="5.91476">
        <ele>1483</ele>
        <time>2019-01-20T13:15:19.000Z</time>
      </trkpt>
      <trkpt lat="45.18122" lon="5.91472">
        <ele>1481</ele>
        <time>2019-01-20T13:15:20.000Z</time>
      </trkpt>
      <trkpt lat="45.18128" lon="5.91463">
        <ele>1481</ele>
        <time>2019-01-20T13:15:21.000Z</time>
      </trkpt>
      <trkpt lat="45.18131" lon="5.91461">
        <ele>1479.6</ele>
        <time>2019-01-20T13:15:22.000Z</time>
      </trkpt>
      <trkpt lat="45.1814" lon="5.91456">
        <ele>1479.6</ele>
        <time>2019-01-20T13:15:23.000Z</time>
      </trkpt>
      <trkpt lat="45.18143" lon="5.91454">
        <ele>1477.6</ele>
        <time>2019-01-20T13:15:24.000Z</time>
      </trkpt>
      <trkpt lat="45.1815" lon="5.91451">
        <ele>1477</ele>
        <time>2019-01-20T13:15:25.000Z</time>
      </trkpt>
      <trkpt lat="45.18157" lon="5.91449">
        <ele>1474</ele>
        <time>2019-01-20T13:15:26.000Z</time>
      </trkpt>
      <trkpt lat="45.18174" lon="5.91447">
        <ele>1472</ele>
        <time>2019-01-20T13:15:27.000Z</time>
      </trkpt>
      <trkpt lat="45.18183" lon="5.91444">
        <ele>1470.4</ele>
        <time>2019-01-20T13:15:29.000Z</time>
      </trkpt>
      <trkpt lat="45.18186" lon="5.91442">
        <ele>1468</ele>
        <time>2019-01-20T13:15:30.000Z</time>
      </trkpt>
      <trkpt lat="45.18189" lon="5.9144">
        <ele>1466</ele>
        <time>2019-01-20T13:15:31.000Z</time>
      </trkpt>
      <trkpt lat="45.18198" lon="5.91434">
        <ele>1465</ele>
        <time>2019-01-20T13:15:32.000Z</time>
      </trkpt>
      <trkpt lat="45.18202" lon="5.91432">
        <ele>1464</ele>
        <time>2019-01-20T13:15:33.000Z</time>
      </trkpt>
      <trkpt lat="45.18214" lon="5.91424">
        <ele>1461</ele>
        <time>2019-01-20T13:15:34.000Z</time>
      </trkpt>
      <trkpt lat="45.1822" lon="5.91421">
        <ele>1461</ele>
        <time>2019-01-20T13:15:35.000Z</time>
      </trkpt>
      <trkpt lat="45.18227" lon="5.91417">
        <ele>1459.6</ele>
        <time>2019-01-20T13:15:36.000Z</time>
      </trkpt>
      <trkpt lat="45.18234" lon="5.91412">
        <ele>1457</ele>
        <time>2019-01-20T13:15:37.000Z</time>
      </trkpt>
      <trkpt lat="45.18236" lon="5.91411">
        <ele>1456</ele>
        <time>2019-01-20T13:15:38.000Z</time>
      </trkpt>
      <trkpt lat="45.18238" lon="5.9141">
        <ele>1455</ele>
        <time>2019-01-20T13:15:39.000Z</time>
      </trkpt>
      <trkpt lat="45.18247" lon="5.91406">
        <ele>1453</ele>
        <time>2019-01-20T13:15:40.000Z</time>
      </trkpt>
      <trkpt lat="45.1825" lon="5.91405">
        <ele>1452</ele>
        <time>2019-01-20T13:15:41.000Z</time>
      </trkpt>
      <trkpt lat="45.18259" lon="5.91403">
        <ele>1452</ele>
        <time>2019-01-20T13:15:42.000Z</time>
      </trkpt>
      <trkpt lat="45.18262" lon="5.91403">
        <ele>1448.4</ele>
        <time>2019-01-20T13:15:43.000Z</time>
      </trkpt>
      <trkpt lat="45.18273" lon="5.91401">
        <ele>1448</ele>
        <time>2019-01-20T13:15:44.000Z</time>
      </trkpt>
      <trkpt lat="45.18278" lon="5.91401">
        <ele>1446</ele>
        <time>2019-01-20T13:15:46.000Z</time>
      </trkpt>
      <trkpt lat="45.18281" lon="5.914">
        <ele>1444</ele>
        <time>2019-01-20T13:15:47.000Z</time>
      </trkpt>
      <trkpt lat="45.18283" lon="5.914">
        <ele>1443</ele>
        <time>2019-01-20T13:15:48.000Z</time>
      </trkpt>
      <trkpt lat="45.1829" lon="5.91399">
        <ele>1442</ele>
        <time>2019-01-20T13:15:49.000Z</time>
      </trkpt>
      <trkpt lat="45.18293" lon="5.91398">
        <ele>1441</ele>
        <time>2019-01-20T13:15:50.000Z</time>
      </trkpt>
      <trkpt lat="45.18301" lon="5.91397">
        <ele>1439</ele>
        <time>2019-01-20T13:15:51.000Z</time>
      </trkpt>
      <trkpt lat="45.18303" lon="5.91396">
        <ele>1437</ele>
        <time>2019-01-20T13:15:52.000Z</time>
      </trkpt>
      <trkpt lat="45.18309" lon="5.91394">
        <ele>1436</ele>
        <time>2019-01-20T13:15:53.000Z</time>
      </trkpt>
      <trkpt lat="45.18321" lon="5.9139">
        <ele>1434</ele>
        <time>2019-01-20T13:15:54.000Z</time>
      </trkpt>
      <trkpt lat="45.18321" lon="5.9139">
        <ele>1433.6</ele>
        <time>2019-01-20T13:15:56.000Z</time>
      </trkpt>
      <trkpt lat="45.18337" lon="5.91382">
        <ele>1432</ele>
        <time>2019-01-20T13:15:57.000Z</time>
      </trkpt>
      <trkpt lat="45.1834" lon="5.91382">
        <ele>1431</ele>
        <time>2019-01-20T13:15:58.000Z</time>
      </trkpt>
      <trkpt lat="45.18346" lon="5.91381">
        <ele>1430</ele>
        <time>2019-01-20T13:15:59.000Z</time>
      </trkpt>
      <trkpt lat="45.18346" lon="5.91381">
        <ele>1428</ele>
        <time>2019-01-20T13:16:00.000Z</time>
      </trkpt>
      <trkpt lat="45.18358" lon="5.91373">
        <ele>1428</ele>
        <time>2019-01-20T13:16:01.000Z</time>
      </trkpt>
      <trkpt lat="45.18361" lon="5.91372">
        <ele>1426</ele>
        <time>2019-01-20T13:16:02.000Z</time>
      </trkpt>
      <trkpt lat="45.18371" lon="5.91367">
        <ele>1425</ele>
        <time>2019-01-20T13:16:03.000Z</time>
      </trkpt>
      <trkpt lat="45.18376" lon="5.91364">
        <ele>1422.4</ele>
        <time>2019-01-20T13:16:05.000Z</time>
      </trkpt>
      <trkpt lat="45.18379" lon="5.91364">
        <ele>1420</ele>
        <time>2019-01-20T13:16:06.000Z</time>
      </trkpt>
      <trkpt lat="45.18381" lon="5.91363">
        <ele>1419</ele>
        <time>2019-01-20T13:16:07.000Z</time>
      </trkpt>
      <trkpt lat="45.18392" lon="5.9136">
        <ele>1418</ele>
        <time>2019-01-20T13:16:08.000Z</time>
      </trkpt>
      <trkpt lat="45.18398" lon="5.91359">
        <ele>1417</ele>
        <time>2019-01-20T13:16:09.000Z</time>
      </trkpt>
      <trkpt lat="45.184" lon="5.91359">
        <ele>1416</ele>
        <time>2019-01-20T13:16:10.000Z</time>
      </trkpt>
      <trkpt lat="45.18402" lon="5.91358">
        <ele>1415</ele>
        <time>2019-01-20T13:16:11.000Z</time>
      </trkpt>
      <trkpt lat="45.18413" lon="5.91358">
        <ele>1414</ele>
        <time>2019-01-20T13:16:12.000Z</time>
      </trkpt>
      <trkpt lat="45.18419" lon="5.91357">
        <ele>1414</ele>
        <time>2019-01-20T13:16:13.000Z</time>
      </trkpt>
      <trkpt lat="45.18425" lon="5.91357">
        <ele>1411.6</ele>
        <time>2019-01-20T13:16:14.000Z</time>
      </trkpt>
      <trkpt lat="45.18435" lon="5.91355">
        <ele>1409</ele>
        <time>2019-01-20T13:16:15.000Z</time>
      </trkpt>
      <trkpt lat="45.18439" lon="5.91355">
        <ele>1408</ele>
        <time>2019-01-20T13:16:16.000Z</time>
      </trkpt>
      <trkpt lat="45.18445" lon="5.91353">
        <ele>1406</ele>
        <time>2019-01-20T13:16:17.000Z</time>
      </trkpt>
      <trkpt lat="45.18457" lon="5.91352">
        <ele>1404</ele>
        <time>2019-01-20T13:16:18.000Z</time>
      </trkpt>
      <trkpt lat="45.1846" lon="5.91351">
        <ele>1402</ele>
        <time>2019-01-20T13:16:19.000Z</time>
      </trkpt>
      <trkpt lat="45.18468" lon="5.91352">
        <ele>1402</ele>
        <time>2019-01-20T13:16:20.000Z</time>
      </trkpt>
      <trkpt lat="45.1847" lon="5.91353">
        <ele>1400</ele>
        <time>2019-01-20T13:16:21.000Z</time>
      </trkpt>
      <trkpt lat="45.18471" lon="5.91354">
        <ele>1400</ele>
        <time>2019-01-20T13:16:22.000Z</time>
      </trkpt>
      <trkpt lat="45.18477" lon="5.91357">
        <ele>1398</ele>
        <time>2019-01-20T13:16:23.000Z</time>
      </trkpt>
      <trkpt lat="45.18477" lon="5.91357">
        <ele>1397</ele>
        <time>2019-01-20T13:16:24.000Z</time>
      </trkpt>
      <trkpt lat="45.18483" lon="5.91367">
        <ele>1397</ele>
        <time>2019-01-20T13:16:25.000Z</time>
      </trkpt>
      <trkpt lat="45.18483" lon="5.91367">
        <ele>1396</ele>
        <time>2019-01-20T13:16:26.000Z</time>
      </trkpt>
      <trkpt lat="45.18493" lon="5.91374">
        <ele>1396</ele>
        <time>2019-01-20T13:16:27.000Z</time>
      </trkpt>
      <trkpt lat="45.18495" lon="5.91374">
        <ele>1395</ele>
        <time>2019-01-20T13:16:28.000Z</time>
      </trkpt>
      <trkpt lat="45.18496" lon="5.91374">
        <ele>1394</ele>
        <time>2019-01-20T13:16:29.000Z</time>
      </trkpt>
      <trkpt lat="45.18502" lon="5.91373">
        <ele>1393</ele>
        <time>2019-01-20T13:16:30.000Z</time>
      </trkpt>
      <trkpt lat="45.18502" lon="5.91373">
        <ele>1392</ele>
        <time>2019-01-20T13:16:31.000Z</time>
      </trkpt>
      <trkpt lat="45.18502" lon="5.91373">
        <ele>1392</ele>
        <time>2019-01-20T13:16:32.000Z</time>
      </trkpt>
      <trkpt lat="45.18502" lon="5.91373">
        <ele>1392</ele>
        <time>2019-01-20T13:16:33.000Z</time>
      </trkpt>
      <trkpt lat="45.18502" lon="5.91373">
        <ele>1392</ele>
        <time>2019-01-20T13:16:34.000Z</time>
      </trkpt>
      <trkpt lat="45.18502" lon="5.91373">
        <ele>1392</ele>
        <time>2019-01-20T13:16:35.000Z</time>
      </trkpt>
      <trkpt lat="45.18502" lon="5.91373">
        <ele>1391</ele>
        <time>2019-01-20T13:16:36.000Z</time>
      </trkpt>
      <trkpt lat="45.18511" lon="5.91375">
        <ele>1391</ele>
        <time>2019-01-20T13:16:37.000Z</time>
      </trkpt>
      <trkpt lat="45.18511" lon="5.91375">
        <ele>1391</ele>
        <time>2019-01-20T13:16:38.000Z</time>
      </trkpt>
      <trkpt lat="45.18511" lon="5.91375">
        <ele>1390.4</ele>
        <time>2019-01-20T13:16:40.000Z</time>
      </trkpt>
      <trkpt lat="45.18511" lon="5.91375">
        <ele>1390</ele>
        <time>2019-01-20T13:16:41.000Z</time>
      </trkpt>
      <trkpt lat="45.18511" lon="5.91375">
        <ele>1390</ele>
        <time>2019-01-20T13:16:42.000Z</time>
      </trkpt>
      <trkpt lat="45.18511" lon="5.91375">
        <ele>1389</ele>
        <time>2019-01-20T13:16:43.000Z</time>
      </trkpt>
      <trkpt lat="45.18511" lon="5.91375">
        <ele>1389</ele>
        <time>2019-01-20T13:16:44.000Z</time>
      </trkpt>
      <trkpt lat="45.18511" lon="5.91375">
        <ele>1389</ele>
        <time>2019-01-20T13:16:45.000Z</time>
      </trkpt>
      <trkpt lat="45.18511" lon="5.91372">
        <ele>1389</ele>
        <time>2019-01-20T13:16:46.000Z</time>
      </trkpt>
      <trkpt lat="45.18511" lon="5.91372">
        <ele>1389</ele>
        <time>2019-01-20T13:16:47.000Z</time>
      </trkpt>
      <trkpt lat="45.18512" lon="5.91367">
        <ele>1388.4</ele>
        <time>2019-01-20T13:16:49.000Z</time>
      </trkpt>
      <trkpt lat="45.18515" lon="5.91363">
        <ele>1387</ele>
        <time>2019-01-20T13:16:50.000Z</time>
      </trkpt>
      <trkpt lat="45.18516" lon="5.91362">
        <ele>1386</ele>
        <time>2019-01-20T13:16:51.000Z</time>
      </trkpt>
      <trkpt lat="45.18517" lon="5.91361">
        <ele>1385</ele>
        <time>2019-01-20T13:16:52.000Z</time>
      </trkpt>
      <trkpt lat="45.18518" lon="5.91359">
        <ele>1385</ele>
        <time>2019-01-20T13:16:53.000Z</time>
      </trkpt>
      <trkpt lat="45.18519" lon="5.91358">
        <ele>1384</ele>
        <time>2019-01-20T13:16:54.000Z</time>
      </trkpt>
      <trkpt lat="45.1852" lon="5.91356">
        <ele>1383</ele>
        <time>2019-01-20T13:16:55.000Z</time>
      </trkpt>
      <trkpt lat="45.18521" lon="5.91355">
        <ele>1383</ele>
        <time>2019-01-20T13:16:56.000Z</time>
      </trkpt>
      <trkpt lat="45.18522" lon="5.91354">
        <ele>1383</ele>
        <time>2019-01-20T13:16:57.000Z</time>
      </trkpt>
      <trkpt lat="45.18531" lon="5.9135">
        <ele>1383</ele>
        <time>2019-01-20T13:16:59.000Z</time>
      </trkpt>
      <trkpt lat="45.18531" lon="5.9135">
        <ele>1383</ele>
        <time>2019-01-20T13:17:00.000Z</time>
      </trkpt>
      <trkpt lat="45.18531" lon="5.9135">
        <ele>1382</ele>
        <time>2019-01-20T13:17:01.000Z</time>
      </trkpt>
      <trkpt lat="45.18533" lon="5.91349">
        <ele>1382</ele>
        <time>2019-01-20T13:17:02.000Z</time>
      </trkpt>
      <trkpt lat="45.18536" lon="5.91348">
        <ele>1381</ele>
        <time>2019-01-20T13:17:03.000Z</time>
      </trkpt>
      <trkpt lat="45.18538" lon="5.91348">
        <ele>1380</ele>
        <time>2019-01-20T13:17:04.000Z</time>
      </trkpt>
      <trkpt lat="45.1854" lon="5.91347">
        <ele>1380</ele>
        <time>2019-01-20T13:17:05.000Z</time>
      </trkpt>
      <trkpt lat="45.18542" lon="5.91346">
        <ele>1379</ele>
        <time>2019-01-20T13:17:06.000Z</time>
      </trkpt>
      <trkpt lat="45.18542" lon="5.91346">
        <ele>1378</ele>
        <time>2019-01-20T13:17:07.000Z</time>
      </trkpt>
      <trkpt lat="45.1855" lon="5.91338">
        <ele>1378</ele>
        <time>2019-01-20T13:17:08.000Z</time>
      </trkpt>
      <trkpt lat="45.1855" lon="5.91338">
        <ele>1377</ele>
        <time>2019-01-20T13:17:10.000Z</time>
      </trkpt>
      <trkpt lat="45.1856" lon="5.91324">
        <ele>1376</ele>
        <time>2019-01-20T13:17:11.000Z</time>
      </trkpt>
      <trkpt lat="45.18561" lon="5.91322">
        <ele>1375</ele>
        <time>2019-01-20T13:17:12.000Z</time>
      </trkpt>
      <trkpt lat="45.18563" lon="5.91321">
        <ele>1373</ele>
        <time>2019-01-20T13:17:13.000Z</time>
      </trkpt>
      <trkpt lat="45.18567" lon="5.91315">
        <ele>1372</ele>
        <time>2019-01-20T13:17:14.000Z</time>
      </trkpt>
      <trkpt lat="45.18567" lon="5.91315">
        <ele>1372</ele>
        <time>2019-01-20T13:17:15.000Z</time>
      </trkpt>
      <trkpt lat="45.18575" lon="5.91307">
        <ele>1371</ele>
        <time>2019-01-20T13:17:16.000Z</time>
      </trkpt>
      <trkpt lat="45.18587" lon="5.91299">
        <ele>1369.6</ele>
        <time>2019-01-20T13:17:18.000Z</time>
      </trkpt>
      <trkpt lat="45.18597" lon="5.91293">
        <ele>1368.4</ele>
        <time>2019-01-20T13:17:20.000Z</time>
      </trkpt>
      <trkpt lat="45.18597" lon="5.91293">
        <ele>1368</ele>
        <time>2019-01-20T13:17:21.000Z</time>
      </trkpt>
      <trkpt lat="45.18607" lon="5.91293">
        <ele>1368</ele>
        <time>2019-01-20T13:17:22.000Z</time>
      </trkpt>
      <trkpt lat="45.18607" lon="5.91293">
        <ele>1367</ele>
        <time>2019-01-20T13:17:23.000Z</time>
      </trkpt>
      <trkpt lat="45.1862" lon="5.91294">
        <ele>1366</ele>
        <time>2019-01-20T13:17:24.000Z</time>
      </trkpt>
      <trkpt lat="45.18623" lon="5.91294">
        <ele>1366</ele>
        <time>2019-01-20T13:17:25.000Z</time>
      </trkpt>
      <trkpt lat="45.18632" lon="5.91294">
        <ele>1365</ele>
        <time>2019-01-20T13:17:26.000Z</time>
      </trkpt>
      <trkpt lat="45.18634" lon="5.91294">
        <ele>1365</ele>
        <time>2019-01-20T13:17:27.000Z</time>
      </trkpt>
      <trkpt lat="45.1864" lon="5.91295">
        <ele>1364</ele>
        <time>2019-01-20T13:17:28.000Z</time>
      </trkpt>
      <trkpt lat="45.1864" lon="5.91295">
        <ele>1363</ele>
        <time>2019-01-20T13:17:29.000Z</time>
      </trkpt>
      <trkpt lat="45.1864" lon="5.91295">
        <ele>1363</ele>
        <time>2019-01-20T13:17:30.000Z</time>
      </trkpt>
      <trkpt lat="45.1864" lon="5.91295">
        <ele>1363</ele>
        <time>2019-01-20T13:17:31.000Z</time>
      </trkpt>
      <trkpt lat="45.1864" lon="5.91295">
        <ele>1362</ele>
        <time>2019-01-20T13:17:32.000Z</time>
      </trkpt>
      <trkpt lat="45.18651" lon="5.91293">
        <ele>1361.6</ele>
        <time>2019-01-20T13:17:34.000Z</time>
      </trkpt>
      <trkpt lat="45.18651" lon="5.91293">
        <ele>1360</ele>
        <time>2019-01-20T13:17:35.000Z</time>
      </trkpt>
      <trkpt lat="45.18664" lon="5.91295">
        <ele>1359</ele>
        <time>2019-01-20T13:17:37.000Z</time>
      </trkpt>
      <trkpt lat="45.18668" lon="5.9129">
        <ele>1359</ele>
        <time>2019-01-20T13:17:38.000Z</time>
      </trkpt>
      <trkpt lat="45.18672" lon="5.91286">
        <ele>1358</ele>
        <time>2019-01-20T13:17:39.000Z</time>
      </trkpt>
      <trkpt lat="45.18672" lon="5.91286">
        <ele>1357</ele>
        <time>2019-01-20T13:17:40.000Z</time>
      </trkpt>
      <trkpt lat="45.18669" lon="5.91275">
        <ele>1356</ele>
        <time>2019-01-20T13:17:41.000Z</time>
      </trkpt>
      <trkpt lat="45.18666" lon="5.91271">
        <ele>1356</ele>
        <time>2019-01-20T13:17:42.000Z</time>
      </trkpt>
      <trkpt lat="45.18663" lon="5.91268">
        <ele>1355</ele>
        <time>2019-01-20T13:17:43.000Z</time>
      </trkpt>
      <trkpt lat="45.18661" lon="5.91266">
        <ele>1354</ele>
        <time>2019-01-20T13:17:44.000Z</time>
      </trkpt>
      <trkpt lat="45.18659" lon="5.91264">
        <ele>1354</ele>
        <time>2019-01-20T13:17:45.000Z</time>
      </trkpt>
      <trkpt lat="45.18655" lon="5.91262">
        <ele>1354</ele>
        <time>2019-01-20T13:17:46.000Z</time>
      </trkpt>
      <trkpt lat="45.18653" lon="5.9126">
        <ele>1354</ele>
        <time>2019-01-20T13:17:47.000Z</time>
      </trkpt>
      <trkpt lat="45.1865" lon="5.91259">
        <ele>1354</ele>
        <time>2019-01-20T13:17:48.000Z</time>
      </trkpt>
      <trkpt lat="45.18648" lon="5.91256">
        <ele>1353</ele>
        <time>2019-01-20T13:17:49.000Z</time>
      </trkpt>
      <trkpt lat="45.18646" lon="5.91254">
        <ele>1353</ele>
        <time>2019-01-20T13:17:50.000Z</time>
      </trkpt>
      <trkpt lat="45.18644" lon="5.91251">
        <ele>1353</ele>
        <time>2019-01-20T13:17:51.000Z</time>
      </trkpt>
      <trkpt lat="45.18642" lon="5.91247">
        <ele>1353</ele>
        <time>2019-01-20T13:17:52.000Z</time>
      </trkpt>
      <trkpt lat="45.18639" lon="5.91244">
        <ele>1353</ele>
        <time>2019-01-20T13:17:53.000Z</time>
      </trkpt>
      <trkpt lat="45.18639" lon="5.91244">
        <ele>1353</ele>
        <time>2019-01-20T13:17:54.000Z</time>
      </trkpt>
      <trkpt lat="45.18631" lon="5.91232">
        <ele>1352.4</ele>
        <time>2019-01-20T13:17:56.000Z</time>
      </trkpt>
      <trkpt lat="45.18631" lon="5.91232">
        <ele>1352</ele>
        <time>2019-01-20T13:17:57.000Z</time>
      </trkpt>
      <trkpt lat="45.18623" lon="5.91224">
        <ele>1352</ele>
        <time>2019-01-20T13:17:58.000Z</time>
      </trkpt>
      <trkpt lat="45.18623" lon="5.91224">
        <ele>1351</ele>
        <time>2019-01-20T13:17:59.000Z</time>
      </trkpt>
      <trkpt lat="45.18612" lon="5.91216">
        <ele>1350.4</ele>
        <time>2019-01-20T13:18:01.000Z</time>
      </trkpt>
      <trkpt lat="45.18612" lon="5.91216">
        <ele>1349</ele>
        <time>2019-01-20T13:18:02.000Z</time>
      </trkpt>
      <trkpt lat="45.18609" lon="5.91213">
        <ele>1349</ele>
        <time>2019-01-20T13:18:03.000Z</time>
      </trkpt>
      <trkpt lat="45.18605" lon="5.91211">
        <ele>1349</ele>
        <time>2019-01-20T13:18:04.000Z</time>
      </trkpt>
      <trkpt lat="45.18596" lon="5.91206">
        <ele>1348</ele>
        <time>2019-01-20T13:18:05.000Z</time>
      </trkpt>
      <trkpt lat="45.18593" lon="5.91205">
        <ele>1348</ele>
        <time>2019-01-20T13:18:06.000Z</time>
      </trkpt>
      <trkpt lat="45.18582" lon="5.91198">
        <ele>1348</ele>
        <time>2019-01-20T13:18:07.000Z</time>
      </trkpt>
      <trkpt lat="45.18577" lon="5.91195">
        <ele>1348</ele>
        <time>2019-01-20T13:18:08.000Z</time>
      </trkpt>
      <trkpt lat="45.18572" lon="5.91192">
        <ele>1347</ele>
        <time>2019-01-20T13:18:09.000Z</time>
      </trkpt>
      <trkpt lat="45.18566" lon="5.91188">
        <ele>1346</ele>
        <time>2019-01-20T13:18:10.000Z</time>
      </trkpt>
      <trkpt lat="45.18558" lon="5.91183">
        <ele>1345</ele>
        <time>2019-01-20T13:18:11.000Z</time>
      </trkpt>
      <trkpt lat="45.18555" lon="5.91182">
        <ele>1345</ele>
        <time>2019-01-20T13:18:12.000Z</time>
      </trkpt>
      <trkpt lat="45.1855" lon="5.91179">
        <ele>1344</ele>
        <time>2019-01-20T13:18:13.000Z</time>
      </trkpt>
      <trkpt lat="45.18539" lon="5.91174">
        <ele>1343.6</ele>
        <time>2019-01-20T13:18:15.000Z</time>
      </trkpt>
      <trkpt lat="45.18529" lon="5.91171">
        <ele>1343</ele>
        <time>2019-01-20T13:18:17.000Z</time>
      </trkpt>
      <trkpt lat="45.18529" lon="5.91171">
        <ele>1342</ele>
        <time>2019-01-20T13:18:18.000Z</time>
      </trkpt>
      <trkpt lat="45.18514" lon="5.91168">
        <ele>1342</ele>
        <time>2019-01-20T13:18:19.000Z</time>
      </trkpt>
      <trkpt lat="45.18511" lon="5.91168">
        <ele>1340</ele>
        <time>2019-01-20T13:18:20.000Z</time>
      </trkpt>
      <trkpt lat="45.18505" lon="5.91167">
        <ele>1340</ele>
        <time>2019-01-20T13:18:21.000Z</time>
      </trkpt>
      <trkpt lat="45.18499" lon="5.91166">
        <ele>1340</ele>
        <time>2019-01-20T13:18:22.000Z</time>
      </trkpt>
      <trkpt lat="45.18493" lon="5.91165">
        <ele>1340</ele>
        <time>2019-01-20T13:18:23.000Z</time>
      </trkpt>
      <trkpt lat="45.18487" lon="5.91164">
        <ele>1340</ele>
        <time>2019-01-20T13:18:24.000Z</time>
      </trkpt>
      <trkpt lat="45.18478" lon="5.91162">
        <ele>1340</ele>
        <time>2019-01-20T13:18:25.000Z</time>
      </trkpt>
      <trkpt lat="45.18475" lon="5.91162">
        <ele>1338.4</ele>
        <time>2019-01-20T13:18:26.000Z</time>
      </trkpt>
      <trkpt lat="45.1847" lon="5.91161">
        <ele>1338</ele>
        <time>2019-01-20T13:18:27.000Z</time>
      </trkpt>
      <trkpt lat="45.18464" lon="5.91161">
        <ele>1337</ele>
        <time>2019-01-20T13:18:28.000Z</time>
      </trkpt>
      <trkpt lat="45.18458" lon="5.91161">
        <ele>1337</ele>
        <time>2019-01-20T13:18:29.000Z</time>
      </trkpt>
      <trkpt lat="45.18452" lon="5.91163">
        <ele>1336</ele>
        <time>2019-01-20T13:18:30.000Z</time>
      </trkpt>
      <trkpt lat="45.18446" lon="5.91163">
        <ele>1335</ele>
        <time>2019-01-20T13:18:31.000Z</time>
      </trkpt>
      <trkpt lat="45.18437" lon="5.91163">
        <ele>1335</ele>
        <time>2019-01-20T13:18:32.000Z</time>
      </trkpt>
      <trkpt lat="45.18434" lon="5.91162">
        <ele>1335</ele>
        <time>2019-01-20T13:18:33.000Z</time>
      </trkpt>
      <trkpt lat="45.18428" lon="5.91161">
        <ele>1334</ele>
        <time>2019-01-20T13:18:34.000Z</time>
      </trkpt>
      <trkpt lat="45.18422" lon="5.91159">
        <ele>1334</ele>
        <time>2019-01-20T13:18:35.000Z</time>
      </trkpt>
      <trkpt lat="45.18416" lon="5.91158">
        <ele>1333</ele>
        <time>2019-01-20T13:18:36.000Z</time>
      </trkpt>
      <trkpt lat="45.18411" lon="5.91155">
        <ele>1332</ele>
        <time>2019-01-20T13:18:37.000Z</time>
      </trkpt>
      <trkpt lat="45.18405" lon="5.91152">
        <ele>1331</ele>
        <time>2019-01-20T13:18:38.000Z</time>
      </trkpt>
      <trkpt lat="45.184" lon="5.9115">
        <ele>1331</ele>
        <time>2019-01-20T13:18:39.000Z</time>
      </trkpt>
      <trkpt lat="45.18394" lon="5.91148">
        <ele>1330</ele>
        <time>2019-01-20T13:18:40.000Z</time>
      </trkpt>
      <trkpt lat="45.18386" lon="5.91144">
        <ele>1330</ele>
        <time>2019-01-20T13:18:41.000Z</time>
      </trkpt>
      <trkpt lat="45.18383" lon="5.91143">
        <ele>1328</ele>
        <time>2019-01-20T13:18:42.000Z</time>
      </trkpt>
      <trkpt lat="45.18378" lon="5.9114">
        <ele>1328</ele>
        <time>2019-01-20T13:18:43.000Z</time>
      </trkpt>
      <trkpt lat="45.18378" lon="5.9114">
        <ele>1328</ele>
        <time>2019-01-20T13:18:44.000Z</time>
      </trkpt>
      <trkpt lat="45.18367" lon="5.91135">
        <ele>1328</ele>
        <time>2019-01-20T13:18:45.000Z</time>
      </trkpt>
      <trkpt lat="45.18362" lon="5.91132">
        <ele>1328</ele>
        <time>2019-01-20T13:18:46.000Z</time>
      </trkpt>
      <trkpt lat="45.18357" lon="5.91129">
        <ele>1327</ele>
        <time>2019-01-20T13:18:47.000Z</time>
      </trkpt>
      <trkpt lat="45.18351" lon="5.91125">
        <ele>1326</ele>
        <time>2019-01-20T13:18:48.000Z</time>
      </trkpt>
      <trkpt lat="45.18347" lon="5.91121">
        <ele>1326</ele>
        <time>2019-01-20T13:18:49.000Z</time>
      </trkpt>
      <trkpt lat="45.1834" lon="5.91116">
        <ele>1326</ele>
        <time>2019-01-20T13:18:50.000Z</time>
      </trkpt>
      <trkpt lat="45.18337" lon="5.91115">
        <ele>1325</ele>
        <time>2019-01-20T13:18:51.000Z</time>
      </trkpt>
      <trkpt lat="45.18329" lon="5.91112">
        <ele>1325</ele>
        <time>2019-01-20T13:18:52.000Z</time>
      </trkpt>
      <trkpt lat="45.18327" lon="5.9111">
        <ele>1323.6</ele>
        <time>2019-01-20T13:18:53.000Z</time>
      </trkpt>
      <trkpt lat="45.18321" lon="5.91108">
        <ele>1323</ele>
        <time>2019-01-20T13:18:54.000Z</time>
      </trkpt>
      <trkpt lat="45.18316" lon="5.91107">
        <ele>1323</ele>
        <time>2019-01-20T13:18:55.000Z</time>
      </trkpt>
      <trkpt lat="45.1831" lon="5.91105">
        <ele>1322</ele>
        <time>2019-01-20T13:18:56.000Z</time>
      </trkpt>
      <trkpt lat="45.18305" lon="5.91102">
        <ele>1322</ele>
        <time>2019-01-20T13:18:57.000Z</time>
      </trkpt>
      <trkpt lat="45.183" lon="5.91099">
        <ele>1322</ele>
        <time>2019-01-20T13:18:58.000Z</time>
      </trkpt>
      <trkpt lat="45.18296" lon="5.91096">
        <ele>1321</ele>
        <time>2019-01-20T13:18:59.000Z</time>
      </trkpt>
      <trkpt lat="45.1829" lon="5.9109">
        <ele>1321</ele>
        <time>2019-01-20T13:19:00.000Z</time>
      </trkpt>
      <trkpt lat="45.18288" lon="5.91088">
        <ele>1321</ele>
        <time>2019-01-20T13:19:01.000Z</time>
      </trkpt>
      <trkpt lat="45.18283" lon="5.91085">
        <ele>1320</ele>
        <time>2019-01-20T13:19:02.000Z</time>
      </trkpt>
      <trkpt lat="45.18283" lon="5.91085">
        <ele>1319</ele>
        <time>2019-01-20T13:19:03.000Z</time>
      </trkpt>
      <trkpt lat="45.18274" lon="5.91075">
        <ele>1318</ele>
        <time>2019-01-20T13:19:04.000Z</time>
      </trkpt>
      <trkpt lat="45.18272" lon="5.91074">
        <ele>1318</ele>
        <time>2019-01-20T13:19:05.000Z</time>
      </trkpt>
      <trkpt lat="45.18271" lon="5.91073">
        <ele>1318</ele>
        <time>2019-01-20T13:19:06.000Z</time>
      </trkpt>
      <trkpt lat="45.18268" lon="5.9107">
        <ele>1318</ele>
        <time>2019-01-20T13:19:07.000Z</time>
      </trkpt>
      <trkpt lat="45.18265" lon="5.91067">
        <ele>1318</ele>
        <time>2019-01-20T13:19:08.000Z</time>
      </trkpt>
      <trkpt lat="45.18261" lon="5.91064">
        <ele>1317</ele>
        <time>2019-01-20T13:19:09.000Z</time>
      </trkpt>
      <trkpt lat="45.18258" lon="5.91058">
        <ele>1316</ele>
        <time>2019-01-20T13:19:10.000Z</time>
      </trkpt>
      <trkpt lat="45.18254" lon="5.91052">
        <ele>1316</ele>
        <time>2019-01-20T13:19:11.000Z</time>
      </trkpt>
      <trkpt lat="45.18251" lon="5.91046">
        <ele>1315.6</ele>
        <time>2019-01-20T13:19:12.000Z</time>
      </trkpt>
      <trkpt lat="45.18247" lon="5.9104">
        <ele>1315</ele>
        <time>2019-01-20T13:19:13.000Z</time>
      </trkpt>
      <trkpt lat="45.18245" lon="5.91037">
        <ele>1314</ele>
        <time>2019-01-20T13:19:14.000Z</time>
      </trkpt>
      <trkpt lat="45.18242" lon="5.91034">
        <ele>1313</ele>
        <time>2019-01-20T13:19:15.000Z</time>
      </trkpt>
      <trkpt lat="45.18234" lon="5.91027">
        <ele>1313</ele>
        <time>2019-01-20T13:19:16.000Z</time>
      </trkpt>
      <trkpt lat="45.18231" lon="5.91025">
        <ele>1313</ele>
        <time>2019-01-20T13:19:17.000Z</time>
      </trkpt>
      <trkpt lat="45.18219" lon="5.91015">
        <ele>1313</ele>
        <time>2019-01-20T13:19:18.000Z</time>
      </trkpt>
      <trkpt lat="45.18212" lon="5.91009">
        <ele>1312</ele>
        <time>2019-01-20T13:19:19.000Z</time>
      </trkpt>
      <trkpt lat="45.18205" lon="5.91003">
        <ele>1311</ele>
        <time>2019-01-20T13:19:21.000Z</time>
      </trkpt>
      <trkpt lat="45.18203" lon="5.91001">
        <ele>1311</ele>
        <time>2019-01-20T13:19:22.000Z</time>
      </trkpt>
      <trkpt lat="45.182" lon="5.90999">
        <ele>1310</ele>
        <time>2019-01-20T13:19:23.000Z</time>
      </trkpt>
      <trkpt lat="45.18193" lon="5.90993">
        <ele>1309</ele>
        <time>2019-01-20T13:19:24.000Z</time>
      </trkpt>
      <trkpt lat="45.18191" lon="5.90991">
        <ele>1309</ele>
        <time>2019-01-20T13:19:25.000Z</time>
      </trkpt>
      <trkpt lat="45.18185" lon="5.90987">
        <ele>1309</ele>
        <time>2019-01-20T13:19:26.000Z</time>
      </trkpt>
      <trkpt lat="45.18172" lon="5.9098">
        <ele>1309</ele>
        <time>2019-01-20T13:19:27.000Z</time>
      </trkpt>
      <trkpt lat="45.18169" lon="5.90978">
        <ele>1307.6</ele>
        <time>2019-01-20T13:19:28.000Z</time>
      </trkpt>
      <trkpt lat="45.18163" lon="5.90976">
        <ele>1306</ele>
        <time>2019-01-20T13:19:29.000Z</time>
      </trkpt>
      <trkpt lat="45.18155" lon="5.90973">
        <ele>1306</ele>
        <time>2019-01-20T13:19:30.000Z</time>
      </trkpt>
      <trkpt lat="45.18152" lon="5.90972">
        <ele>1306</ele>
        <time>2019-01-20T13:19:31.000Z</time>
      </trkpt>
      <trkpt lat="45.18146" lon="5.90969">
        <ele>1306</ele>
        <time>2019-01-20T13:19:32.000Z</time>
      </trkpt>
      <trkpt lat="45.18141" lon="5.90969">
        <ele>1306</ele>
        <time>2019-01-20T13:19:33.000Z</time>
      </trkpt>
      <trkpt lat="45.18135" lon="5.90967">
        <ele>1306</ele>
        <time>2019-01-20T13:19:34.000Z</time>
      </trkpt>
      <trkpt lat="45.18129" lon="5.90965">
        <ele>1305</ele>
        <time>2019-01-20T13:19:35.000Z</time>
      </trkpt>
      <trkpt lat="45.18124" lon="5.90963">
        <ele>1305</ele>
        <time>2019-01-20T13:19:36.000Z</time>
      </trkpt>
      <trkpt lat="45.18116" lon="5.90961">
        <ele>1305</ele>
        <time>2019-01-20T13:19:37.000Z</time>
      </trkpt>
      <trkpt lat="45.18113" lon="5.9096">
        <ele>1302.4</ele>
        <time>2019-01-20T13:19:38.000Z</time>
      </trkpt>
      <trkpt lat="45.18108" lon="5.90957">
        <ele>1302</ele>
        <time>2019-01-20T13:19:39.000Z</time>
      </trkpt>
      <trkpt lat="45.18104" lon="5.90955">
        <ele>1302</ele>
        <time>2019-01-20T13:19:40.000Z</time>
      </trkpt>
      <trkpt lat="45.18099" lon="5.90954">
        <ele>1302</ele>
        <time>2019-01-20T13:19:41.000Z</time>
      </trkpt>
      <trkpt lat="45.18094" lon="5.90952">
        <ele>1302</ele>
        <time>2019-01-20T13:19:42.000Z</time>
      </trkpt>
      <trkpt lat="45.18089" lon="5.90949">
        <ele>1302</ele>
        <time>2019-01-20T13:19:43.000Z</time>
      </trkpt>
      <trkpt lat="45.18084" lon="5.90946">
        <ele>1301</ele>
        <time>2019-01-20T13:19:44.000Z</time>
      </trkpt>
      <trkpt lat="45.18076" lon="5.90942">
        <ele>1301</ele>
        <time>2019-01-20T13:19:45.000Z</time>
      </trkpt>
      <trkpt lat="45.18073" lon="5.9094">
        <ele>1300</ele>
        <time>2019-01-20T13:19:46.000Z</time>
      </trkpt>
      <trkpt lat="45.18068" lon="5.90937">
        <ele>1299</ele>
        <time>2019-01-20T13:19:47.000Z</time>
      </trkpt>
      <trkpt lat="45.18062" lon="5.90935">
        <ele>1299</ele>
        <time>2019-01-20T13:19:48.000Z</time>
      </trkpt>
      <trkpt lat="45.18054" lon="5.90933">
        <ele>1299</ele>
        <time>2019-01-20T13:19:49.000Z</time>
      </trkpt>
      <trkpt lat="45.18051" lon="5.90933">
        <ele>1298</ele>
        <time>2019-01-20T13:19:50.000Z</time>
      </trkpt>
      <trkpt lat="45.18046" lon="5.90932">
        <ele>1298</ele>
        <time>2019-01-20T13:19:51.000Z</time>
      </trkpt>
      <trkpt lat="45.18046" lon="5.90932">
        <ele>1298</ele>
        <time>2019-01-20T13:19:52.000Z</time>
      </trkpt>
      <trkpt lat="45.18032" lon="5.90931">
        <ele>1297</ele>
        <time>2019-01-20T13:19:53.000Z</time>
      </trkpt>
      <trkpt lat="45.1803" lon="5.90932">
        <ele>1297</ele>
        <time>2019-01-20T13:19:54.000Z</time>
      </trkpt>
      <trkpt lat="45.18024" lon="5.90932">
        <ele>1296</ele>
        <time>2019-01-20T13:19:55.000Z</time>
      </trkpt>
      <trkpt lat="45.18014" lon="5.90929">
        <ele>1294.4</ele>
        <time>2019-01-20T13:19:57.000Z</time>
      </trkpt>
      <trkpt lat="45.1801" lon="5.90928">
        <ele>1293</ele>
        <time>2019-01-20T13:19:58.000Z</time>
      </trkpt>
      <trkpt lat="45.1801" lon="5.90928">
        <ele>1293</ele>
        <time>2019-01-20T13:19:59.000Z</time>
      </trkpt>
      <trkpt lat="45.18004" lon="5.90925">
        <ele>1293</ele>
        <time>2019-01-20T13:20:00.000Z</time>
      </trkpt>
      <trkpt lat="45.17998" lon="5.90923">
        <ele>1293</ele>
        <time>2019-01-20T13:20:01.000Z</time>
      </trkpt>
      <trkpt lat="45.17998" lon="5.90923">
        <ele>1292</ele>
        <time>2019-01-20T13:20:02.000Z</time>
      </trkpt>
      <trkpt lat="45.17986" lon="5.90923">
        <ele>1292</ele>
        <time>2019-01-20T13:20:03.000Z</time>
      </trkpt>
      <trkpt lat="45.17983" lon="5.90923">
        <ele>1291</ele>
        <time>2019-01-20T13:20:04.000Z</time>
      </trkpt>
      <trkpt lat="45.17978" lon="5.90923">
        <ele>1291</ele>
        <time>2019-01-20T13:20:05.000Z</time>
      </trkpt>
      <trkpt lat="45.17973" lon="5.90922">
        <ele>1291</ele>
        <time>2019-01-20T13:20:06.000Z</time>
      </trkpt>
      <trkpt lat="45.17967" lon="5.90922">
        <ele>1291</ele>
        <time>2019-01-20T13:20:07.000Z</time>
      </trkpt>
      <trkpt lat="45.17959" lon="5.90922">
        <ele>1291</ele>
        <time>2019-01-20T13:20:08.000Z</time>
      </trkpt>
      <trkpt lat="45.17956" lon="5.90922">
        <ele>1290</ele>
        <time>2019-01-20T13:20:09.000Z</time>
      </trkpt>
      <trkpt lat="45.17953" lon="5.90922">
        <ele>1290</ele>
        <time>2019-01-20T13:20:10.000Z</time>
      </trkpt>
      <trkpt lat="45.17942" lon="5.90921">
        <ele>1289</ele>
        <time>2019-01-20T13:20:11.000Z</time>
      </trkpt>
      <trkpt lat="45.1794" lon="5.9092">
        <ele>1288</ele>
        <time>2019-01-20T13:20:12.000Z</time>
      </trkpt>
      <trkpt lat="45.17934" lon="5.90919">
        <ele>1288</ele>
        <time>2019-01-20T13:20:13.000Z</time>
      </trkpt>
      <trkpt lat="45.17934" lon="5.90919">
        <ele>1287</ele>
        <time>2019-01-20T13:20:14.000Z</time>
      </trkpt>
      <trkpt lat="45.17921" lon="5.90922">
        <ele>1287</ele>
        <time>2019-01-20T13:20:15.000Z</time>
      </trkpt>
      <trkpt lat="45.17916" lon="5.90923">
        <ele>1286</ele>
        <time>2019-01-20T13:20:16.000Z</time>
      </trkpt>
      <trkpt lat="45.17912" lon="5.90925">
        <ele>1286</ele>
        <time>2019-01-20T13:20:18.000Z</time>
      </trkpt>
      <trkpt lat="45.17908" lon="5.90929">
        <ele>1285</ele>
        <time>2019-01-20T13:20:19.000Z</time>
      </trkpt>
      <trkpt lat="45.17904" lon="5.90932">
        <ele>1283</ele>
        <time>2019-01-20T13:20:20.000Z</time>
      </trkpt>
      <trkpt lat="45.179" lon="5.90936">
        <ele>1283</ele>
        <time>2019-01-20T13:20:21.000Z</time>
      </trkpt>
      <trkpt lat="45.17894" lon="5.90944">
        <ele>1282</ele>
        <time>2019-01-20T13:20:22.000Z</time>
      </trkpt>
      <trkpt lat="45.17891" lon="5.90948">
        <ele>1282</ele>
        <time>2019-01-20T13:20:23.000Z</time>
      </trkpt>
      <trkpt lat="45.17882" lon="5.90962">
        <ele>1281</ele>
        <time>2019-01-20T13:20:24.000Z</time>
      </trkpt>
      <trkpt lat="45.17878" lon="5.90968">
        <ele>1279.6</ele>
        <time>2019-01-20T13:20:26.000Z</time>
      </trkpt>
      <trkpt lat="45.17868" lon="5.90981">
        <ele>1277</ele>
        <time>2019-01-20T13:20:28.000Z</time>
      </trkpt>
      <trkpt lat="45.17863" lon="5.90981">
        <ele>1276</ele>
        <time>2019-01-20T13:20:29.000Z</time>
      </trkpt>
      <trkpt lat="45.1786" lon="5.90974">
        <ele>1275</ele>
        <time>2019-01-20T13:20:30.000Z</time>
      </trkpt>
      <trkpt lat="45.17861" lon="5.90966">
        <ele>1274</ele>
        <time>2019-01-20T13:20:31.000Z</time>
      </trkpt>
      <trkpt lat="45.17863" lon="5.90961">
        <ele>1273</ele>
        <time>2019-01-20T13:20:32.000Z</time>
      </trkpt>
      <trkpt lat="45.17867" lon="5.90953">
        <ele>1273</ele>
        <time>2019-01-20T13:20:33.000Z</time>
      </trkpt>
      <trkpt lat="45.17868" lon="5.9095">
        <ele>1272</ele>
        <time>2019-01-20T13:20:34.000Z</time>
      </trkpt>
      <trkpt lat="45.17871" lon="5.90944">
        <ele>1272</ele>
        <time>2019-01-20T13:20:35.000Z</time>
      </trkpt>
      <trkpt lat="45.17874" lon="5.90936">
        <ele>1272</ele>
        <time>2019-01-20T13:20:36.000Z</time>
      </trkpt>
      <trkpt lat="45.17876" lon="5.9093">
        <ele>1272</ele>
        <time>2019-01-20T13:20:37.000Z</time>
      </trkpt>
      <trkpt lat="45.17879" lon="5.90923">
        <ele>1271</ele>
        <time>2019-01-20T13:20:38.000Z</time>
      </trkpt>
      <trkpt lat="45.17882" lon="5.90916">
        <ele>1270</ele>
        <time>2019-01-20T13:20:39.000Z</time>
      </trkpt>
      <trkpt lat="45.17884" lon="5.90909">
        <ele>1270</ele>
        <time>2019-01-20T13:20:40.000Z</time>
      </trkpt>
      <trkpt lat="45.17886" lon="5.90901">
        <ele>1270</ele>
        <time>2019-01-20T13:20:41.000Z</time>
      </trkpt>
      <trkpt lat="45.17891" lon="5.9089">
        <ele>1270</ele>
        <time>2019-01-20T13:20:42.000Z</time>
      </trkpt>
      <trkpt lat="45.17892" lon="5.90887">
        <ele>1269.6</ele>
        <time>2019-01-20T13:20:43.000Z</time>
      </trkpt>
      <trkpt lat="45.17896" lon="5.9088">
        <ele>1269</ele>
        <time>2019-01-20T13:20:44.000Z</time>
      </trkpt>
      <trkpt lat="45.179" lon="5.90873">
        <ele>1268</ele>
        <time>2019-01-20T13:20:45.000Z</time>
      </trkpt>
      <trkpt lat="45.17907" lon="5.90864">
        <ele>1268</ele>
        <time>2019-01-20T13:20:46.000Z</time>
      </trkpt>
      <trkpt lat="45.17909" lon="5.9086">
        <ele>1266.4</ele>
        <time>2019-01-20T13:20:47.000Z</time>
      </trkpt>
      <trkpt lat="45.17914" lon="5.90853">
        <ele>1265</ele>
        <time>2019-01-20T13:20:48.000Z</time>
      </trkpt>
      <trkpt lat="45.17921" lon="5.90842">
        <ele>1265</ele>
        <time>2019-01-20T13:20:49.000Z</time>
      </trkpt>
      <trkpt lat="45.17923" lon="5.90839">
        <ele>1264</ele>
        <time>2019-01-20T13:20:50.000Z</time>
      </trkpt>
      <trkpt lat="45.17928" lon="5.90833">
        <ele>1263</ele>
        <time>2019-01-20T13:20:51.000Z</time>
      </trkpt>
      <trkpt lat="45.17934" lon="5.90828">
        <ele>1262</ele>
        <time>2019-01-20T13:20:52.000Z</time>
      </trkpt>
      <trkpt lat="45.17939" lon="5.90823">
        <ele>1261</ele>
        <time>2019-01-20T13:20:53.000Z</time>
      </trkpt>
      <trkpt lat="45.17949" lon="5.90816">
        <ele>1261</ele>
        <time>2019-01-20T13:20:54.000Z</time>
      </trkpt>
      <trkpt lat="45.17952" lon="5.90814">
        <ele>1260</ele>
        <time>2019-01-20T13:20:55.000Z</time>
      </trkpt>
      <trkpt lat="45.17965" lon="5.90807">
        <ele>1260</ele>
        <time>2019-01-20T13:20:56.000Z</time>
      </trkpt>
      <trkpt lat="45.17971" lon="5.90804">
        <ele>1259</ele>
        <time>2019-01-20T13:20:58.000Z</time>
      </trkpt>
      <trkpt lat="45.17974" lon="5.90802">
        <ele>1258</ele>
        <time>2019-01-20T13:20:59.000Z</time>
      </trkpt>
      <trkpt lat="45.17977" lon="5.908">
        <ele>1257</ele>
        <time>2019-01-20T13:21:00.000Z</time>
      </trkpt>
      <trkpt lat="45.17986" lon="5.90795">
        <ele>1257</ele>
        <time>2019-01-20T13:21:01.000Z</time>
      </trkpt>
      <trkpt lat="45.1799" lon="5.90794">
        <ele>1256</ele>
        <time>2019-01-20T13:21:02.000Z</time>
      </trkpt>
      <trkpt lat="45.18004" lon="5.90789">
        <ele>1255</ele>
        <time>2019-01-20T13:21:03.000Z</time>
      </trkpt>
      <trkpt lat="45.18011" lon="5.90788">
        <ele>1255</ele>
        <time>2019-01-20T13:21:04.000Z</time>
      </trkpt>
      <trkpt lat="45.18019" lon="5.90786">
        <ele>1254</ele>
        <time>2019-01-20T13:21:05.000Z</time>
      </trkpt>
      <trkpt lat="45.1803" lon="5.90783">
        <ele>1252.4</ele>
        <time>2019-01-20T13:21:06.000Z</time>
      </trkpt>
      <trkpt lat="45.18034" lon="5.90781">
        <ele>1251</ele>
        <time>2019-01-20T13:21:07.000Z</time>
      </trkpt>
      <trkpt lat="45.18045" lon="5.90777">
        <ele>1250</ele>
        <time>2019-01-20T13:21:08.000Z</time>
      </trkpt>
      <trkpt lat="45.18048" lon="5.90775">
        <ele>1250</ele>
        <time>2019-01-20T13:21:09.000Z</time>
      </trkpt>
      <trkpt lat="45.18061" lon="5.90768">
        <ele>1250</ele>
        <time>2019-01-20T13:21:10.000Z</time>
      </trkpt>
      <trkpt lat="45.18066" lon="5.90766">
        <ele>1248.4</ele>
        <time>2019-01-20T13:21:11.000Z</time>
      </trkpt>
      <trkpt lat="45.18077" lon="5.9076">
        <ele>1247</ele>
        <time>2019-01-20T13:21:12.000Z</time>
      </trkpt>
      <trkpt lat="45.18077" lon="5.9076">
        <ele>1246</ele>
        <time>2019-01-20T13:21:13.000Z</time>
      </trkpt>
      <trkpt lat="45.18091" lon="5.90751">
        <ele>1245</ele>
        <time>2019-01-20T13:21:14.000Z</time>
      </trkpt>
      <trkpt lat="45.181" lon="5.90744">
        <ele>1245</ele>
        <time>2019-01-20T13:21:15.000Z</time>
      </trkpt>
      <trkpt lat="45.18103" lon="5.90742">
        <ele>1244</ele>
        <time>2019-01-20T13:21:16.000Z</time>
      </trkpt>
      <trkpt lat="45.1811" lon="5.90735">
        <ele>1244</ele>
        <time>2019-01-20T13:21:17.000Z</time>
      </trkpt>
      <trkpt lat="45.18117" lon="5.90729">
        <ele>1243</ele>
        <time>2019-01-20T13:21:18.000Z</time>
      </trkpt>
      <trkpt lat="45.18127" lon="5.90722">
        <ele>1243</ele>
        <time>2019-01-20T13:21:19.000Z</time>
      </trkpt>
      <trkpt lat="45.1813" lon="5.9072">
        <ele>1241.6</ele>
        <time>2019-01-20T13:21:20.000Z</time>
      </trkpt>
      <trkpt lat="45.1814" lon="5.90714">
        <ele>1241</ele>
        <time>2019-01-20T13:21:21.000Z</time>
      </trkpt>
      <trkpt lat="45.18143" lon="5.90712">
        <ele>1240</ele>
        <time>2019-01-20T13:21:22.000Z</time>
      </trkpt>
      <trkpt lat="45.18149" lon="5.90708">
        <ele>1239</ele>
        <time>2019-01-20T13:21:23.000Z</time>
      </trkpt>
      <trkpt lat="45.18157" lon="5.90701">
        <ele>1239</ele>
        <time>2019-01-20T13:21:24.000Z</time>
      </trkpt>
      <trkpt lat="45.1816" lon="5.90698">
        <ele>1237.6</ele>
        <time>2019-01-20T13:21:25.000Z</time>
      </trkpt>
      <trkpt lat="45.18165" lon="5.90693">
        <ele>1237</ele>
        <time>2019-01-20T13:21:26.000Z</time>
      </trkpt>
      <trkpt lat="45.18172" lon="5.90687">
        <ele>1237</ele>
        <time>2019-01-20T13:21:27.000Z</time>
      </trkpt>
      <trkpt lat="45.18174" lon="5.90686">
        <ele>1236</ele>
        <time>2019-01-20T13:21:28.000Z</time>
      </trkpt>
      <trkpt lat="45.18178" lon="5.90684">
        <ele>1235</ele>
        <time>2019-01-20T13:21:29.000Z</time>
      </trkpt>
      <trkpt lat="45.1819" lon="5.90674">
        <ele>1235</ele>
        <time>2019-01-20T13:21:30.000Z</time>
      </trkpt>
      <trkpt lat="45.18193" lon="5.90672">
        <ele>1233.6</ele>
        <time>2019-01-20T13:21:31.000Z</time>
      </trkpt>
      <trkpt lat="45.18203" lon="5.90669">
        <ele>1232</ele>
        <time>2019-01-20T13:21:32.000Z</time>
      </trkpt>
      <trkpt lat="45.18207" lon="5.90668">
        <ele>1232</ele>
        <time>2019-01-20T13:21:33.000Z</time>
      </trkpt>
      <trkpt lat="45.18217" lon="5.90666">
        <ele>1231</ele>
        <time>2019-01-20T13:21:34.000Z</time>
      </trkpt>
      <trkpt lat="45.18221" lon="5.90665">
        <ele>1230</ele>
        <time>2019-01-20T13:21:35.000Z</time>
      </trkpt>
      <trkpt lat="45.18231" lon="5.90663">
        <ele>1229</ele>
        <time>2019-01-20T13:21:36.000Z</time>
      </trkpt>
      <trkpt lat="45.18235" lon="5.90662">
        <ele>1228</ele>
        <time>2019-01-20T13:21:37.000Z</time>
      </trkpt>
      <trkpt lat="45.18249" lon="5.9066">
        <ele>1228</ele>
        <time>2019-01-20T13:21:38.000Z</time>
      </trkpt>
      <trkpt lat="45.18256" lon="5.90659">
        <ele>1226.4</ele>
        <time>2019-01-20T13:21:40.000Z</time>
      </trkpt>
      <trkpt lat="45.18261" lon="5.90659">
        <ele>1225</ele>
        <time>2019-01-20T13:21:41.000Z</time>
      </trkpt>
      <trkpt lat="45.18265" lon="5.90658">
        <ele>1225</ele>
        <time>2019-01-20T13:21:42.000Z</time>
      </trkpt>
      <trkpt lat="45.18282" lon="5.90656">
        <ele>1223.6</ele>
        <time>2019-01-20T13:21:44.000Z</time>
      </trkpt>
      <trkpt lat="45.18287" lon="5.90656">
        <ele>1223</ele>
        <time>2019-01-20T13:21:45.000Z</time>
      </trkpt>
      <trkpt lat="45.18292" lon="5.90656">
        <ele>1223</ele>
        <time>2019-01-20T13:21:46.000Z</time>
      </trkpt>
      <trkpt lat="45.18297" lon="5.90656">
        <ele>1221.6</ele>
        <time>2019-01-20T13:21:47.000Z</time>
      </trkpt>
      <trkpt lat="45.18305" lon="5.90656">
        <ele>1220</ele>
        <time>2019-01-20T13:21:48.000Z</time>
      </trkpt>
      <trkpt lat="45.18308" lon="5.90655">
        <ele>1219</ele>
        <time>2019-01-20T13:21:49.000Z</time>
      </trkpt>
      <trkpt lat="45.18318" lon="5.90655">
        <ele>1218</ele>
        <time>2019-01-20T13:21:50.000Z</time>
      </trkpt>
      <trkpt lat="45.18322" lon="5.90655">
        <ele>1217</ele>
        <time>2019-01-20T13:21:51.000Z</time>
      </trkpt>
      <trkpt lat="45.18331" lon="5.90654">
        <ele>1216</ele>
        <time>2019-01-20T13:21:52.000Z</time>
      </trkpt>
      <trkpt lat="45.18346" lon="5.90652">
        <ele>1216</ele>
        <time>2019-01-20T13:21:53.000Z</time>
      </trkpt>
      <trkpt lat="45.1835" lon="5.9065">
        <ele>1215</ele>
        <time>2019-01-20T13:21:54.000Z</time>
      </trkpt>
      <trkpt lat="45.18359" lon="5.90646">
        <ele>1214</ele>
        <time>2019-01-20T13:21:55.000Z</time>
      </trkpt>
      <trkpt lat="45.18359" lon="5.90646">
        <ele>1213</ele>
        <time>2019-01-20T13:21:56.000Z</time>
      </trkpt>
      <trkpt lat="45.18367" lon="5.90626">
        <ele>1212</ele>
        <time>2019-01-20T13:21:57.000Z</time>
      </trkpt>
      <trkpt lat="45.18368" lon="5.90615">
        <ele>1212</ele>
        <time>2019-01-20T13:21:58.000Z</time>
      </trkpt>
      <trkpt lat="45.18367" lon="5.90601">
        <ele>1212</ele>
        <time>2019-01-20T13:21:59.000Z</time>
      </trkpt>
      <trkpt lat="45.18367" lon="5.90596">
        <ele>1211.6</ele>
        <time>2019-01-20T13:22:00.000Z</time>
      </trkpt>
      <trkpt lat="45.18368" lon="5.90589">
        <ele>1211</ele>
        <time>2019-01-20T13:22:01.000Z</time>
      </trkpt>
      <trkpt lat="45.18372" lon="5.90579">
        <ele>1211</ele>
        <time>2019-01-20T13:22:02.000Z</time>
      </trkpt>
      <trkpt lat="45.18375" lon="5.90576">
        <ele>1208.4</ele>
        <time>2019-01-20T13:22:03.000Z</time>
      </trkpt>
      <trkpt lat="45.18384" lon="5.90569">
        <ele>1207</ele>
        <time>2019-01-20T13:22:04.000Z</time>
      </trkpt>
      <trkpt lat="45.18388" lon="5.90569">
        <ele>1205</ele>
        <time>2019-01-20T13:22:05.000Z</time>
      </trkpt>
      <trkpt lat="45.18404" lon="5.90569">
        <ele>1205</ele>
        <time>2019-01-20T13:22:06.000Z</time>
      </trkpt>
      <trkpt lat="45.18413" lon="5.90569">
        <ele>1204.4</ele>
        <time>2019-01-20T13:22:08.000Z</time>
      </trkpt>
      <trkpt lat="45.18417" lon="5.90569">
        <ele>1204</ele>
        <time>2019-01-20T13:22:09.000Z</time>
      </trkpt>
      <trkpt lat="45.18421" lon="5.9057">
        <ele>1203</ele>
        <time>2019-01-20T13:22:10.000Z</time>
      </trkpt>
      <trkpt lat="45.18433" lon="5.9057">
        <ele>1202</ele>
        <time>2019-01-20T13:22:11.000Z</time>
      </trkpt>
      <trkpt lat="45.18436" lon="5.90569">
        <ele>1201</ele>
        <time>2019-01-20T13:22:12.000Z</time>
      </trkpt>
      <trkpt lat="45.18449" lon="5.90566">
        <ele>1200</ele>
        <time>2019-01-20T13:22:13.000Z</time>
      </trkpt>
      <trkpt lat="45.18456" lon="5.90564">
        <ele>1200</ele>
        <time>2019-01-20T13:22:14.000Z</time>
      </trkpt>
      <trkpt lat="45.18463" lon="5.90561">
        <ele>1199.6</ele>
        <time>2019-01-20T13:22:15.000Z</time>
      </trkpt>
      <trkpt lat="45.18473" lon="5.90557">
        <ele>1198</ele>
        <time>2019-01-20T13:22:16.000Z</time>
      </trkpt>
      <trkpt lat="45.18477" lon="5.90555">
        <ele>1197</ele>
        <time>2019-01-20T13:22:17.000Z</time>
      </trkpt>
      <trkpt lat="45.18486" lon="5.90551">
        <ele>1197</ele>
        <time>2019-01-20T13:22:18.000Z</time>
      </trkpt>
      <trkpt lat="45.18489" lon="5.90549">
        <ele>1196</ele>
        <time>2019-01-20T13:22:19.000Z</time>
      </trkpt>
      <trkpt lat="45.18503" lon="5.90542">
        <ele>1193</ele>
        <time>2019-01-20T13:22:20.000Z</time>
      </trkpt>
      <trkpt lat="45.18509" lon="5.90538">
        <ele>1193</ele>
        <time>2019-01-20T13:22:22.000Z</time>
      </trkpt>
      <trkpt lat="45.18521" lon="5.90533">
        <ele>1193</ele>
        <time>2019-01-20T13:22:23.000Z</time>
      </trkpt>
      <trkpt lat="45.18525" lon="5.90531">
        <ele>1191</ele>
        <time>2019-01-20T13:22:24.000Z</time>
      </trkpt>
      <trkpt lat="45.18533" lon="5.90528">
        <ele>1190</ele>
        <time>2019-01-20T13:22:25.000Z</time>
      </trkpt>
      <trkpt lat="45.1855" lon="5.90523">
        <ele>1190</ele>
        <time>2019-01-20T13:22:26.000Z</time>
      </trkpt>
      <trkpt lat="45.18555" lon="5.90521">
        <ele>1188.4</ele>
        <time>2019-01-20T13:22:27.000Z</time>
      </trkpt>
      <trkpt lat="45.18565" lon="5.90518">
        <ele>1187</ele>
        <time>2019-01-20T13:22:28.000Z</time>
      </trkpt>
      <trkpt lat="45.18573" lon="5.90514">
        <ele>1185</ele>
        <time>2019-01-20T13:22:29.000Z</time>
      </trkpt>
      <trkpt lat="45.1858" lon="5.90508">
        <ele>1184</ele>
        <time>2019-01-20T13:22:30.000Z</time>
      </trkpt>
      <trkpt lat="45.18588" lon="5.90499">
        <ele>1184</ele>
        <time>2019-01-20T13:22:31.000Z</time>
      </trkpt>
      <trkpt lat="45.1859" lon="5.90495">
        <ele>1182.4</ele>
        <time>2019-01-20T13:22:32.000Z</time>
      </trkpt>
      <trkpt lat="45.18592" lon="5.90485">
        <ele>1181</ele>
        <time>2019-01-20T13:22:33.000Z</time>
      </trkpt>
      <trkpt lat="45.18594" lon="5.90474">
        <ele>1180</ele>
        <time>2019-01-20T13:22:34.000Z</time>
      </trkpt>
      <trkpt lat="45.18594" lon="5.90463">
        <ele>1179</ele>
        <time>2019-01-20T13:22:35.000Z</time>
      </trkpt>
      <trkpt lat="45.18594" lon="5.90453">
        <ele>1178</ele>
        <time>2019-01-20T13:22:36.000Z</time>
      </trkpt>
      <trkpt lat="45.18595" lon="5.90445">
        <ele>1177</ele>
        <time>2019-01-20T13:22:37.000Z</time>
      </trkpt>
      <trkpt lat="45.18597" lon="5.90437">
        <ele>1176</ele>
        <time>2019-01-20T13:22:38.000Z</time>
      </trkpt>
      <trkpt lat="45.18601" lon="5.9043">
        <ele>1174</ele>
        <time>2019-01-20T13:22:39.000Z</time>
      </trkpt>
      <trkpt lat="45.18613" lon="5.90423">
        <ele>1172.4</ele>
        <time>2019-01-20T13:22:41.000Z</time>
      </trkpt>
      <trkpt lat="45.18613" lon="5.90423">
        <ele>1172</ele>
        <time>2019-01-20T13:22:42.000Z</time>
      </trkpt>
      <trkpt lat="45.18628" lon="5.90418">
        <ele>1171</ele>
        <time>2019-01-20T13:22:43.000Z</time>
      </trkpt>
      <trkpt lat="45.18628" lon="5.90418">
        <ele>1169</ele>
        <time>2019-01-20T13:22:44.000Z</time>
      </trkpt>
      <trkpt lat="45.18646" lon="5.90408">
        <ele>1169</ele>
        <time>2019-01-20T13:22:45.000Z</time>
      </trkpt>
      <trkpt lat="45.18648" lon="5.90404">
        <ele>1167.6</ele>
        <time>2019-01-20T13:22:46.000Z</time>
      </trkpt>
      <trkpt lat="45.18652" lon="5.90395">
        <ele>1166</ele>
        <time>2019-01-20T13:22:47.000Z</time>
      </trkpt>
      <trkpt lat="45.18654" lon="5.90385">
        <ele>1165</ele>
        <time>2019-01-20T13:22:48.000Z</time>
      </trkpt>
      <trkpt lat="45.18658" lon="5.9037">
        <ele>1163</ele>
        <time>2019-01-20T13:22:49.000Z</time>
      </trkpt>
      <trkpt lat="45.18661" lon="5.90365">
        <ele>1161</ele>
        <time>2019-01-20T13:22:50.000Z</time>
      </trkpt>
      <trkpt lat="45.1867" lon="5.90355">
        <ele>1158</ele>
        <time>2019-01-20T13:22:51.000Z</time>
      </trkpt>
      <trkpt lat="45.18674" lon="5.90354">
        <ele>1158</ele>
        <time>2019-01-20T13:22:52.000Z</time>
      </trkpt>
      <trkpt lat="45.18686" lon="5.90343">
        <ele>1158</ele>
        <time>2019-01-20T13:22:53.000Z</time>
      </trkpt>
      <trkpt lat="45.18691" lon="5.90336">
        <ele>1156.4</ele>
        <time>2019-01-20T13:22:55.000Z</time>
      </trkpt>
      <trkpt lat="45.1869" lon="5.90331">
        <ele>1154</ele>
        <time>2019-01-20T13:22:56.000Z</time>
      </trkpt>
      <trkpt lat="45.1869" lon="5.90326">
        <ele>1153</ele>
        <time>2019-01-20T13:22:57.000Z</time>
      </trkpt>
      <trkpt lat="45.18689" lon="5.90317">
        <ele>1152</ele>
        <time>2019-01-20T13:22:58.000Z</time>
      </trkpt>
      <trkpt lat="45.1868" lon="5.90302">
        <ele>1152</ele>
        <time>2019-01-20T13:22:59.000Z</time>
      </trkpt>
      <trkpt lat="45.18678" lon="5.903">
        <ele>1151</ele>
        <time>2019-01-20T13:23:00.000Z</time>
      </trkpt>
      <trkpt lat="45.18673" lon="5.90293">
        <ele>1150</ele>
        <time>2019-01-20T13:23:01.000Z</time>
      </trkpt>
      <trkpt lat="45.18668" lon="5.90286">
        <ele>1148</ele>
        <time>2019-01-20T13:23:02.000Z</time>
      </trkpt>
      <trkpt lat="45.18663" lon="5.90278">
        <ele>1146</ele>
        <time>2019-01-20T13:23:03.000Z</time>
      </trkpt>
      <trkpt lat="45.18658" lon="5.90268">
        <ele>1146</ele>
        <time>2019-01-20T13:23:04.000Z</time>
      </trkpt>
      <trkpt lat="45.18653" lon="5.90257">
        <ele>1145</ele>
        <time>2019-01-20T13:23:05.000Z</time>
      </trkpt>
      <trkpt lat="45.18648" lon="5.9024">
        <ele>1145</ele>
        <time>2019-01-20T13:23:06.000Z</time>
      </trkpt>
      <trkpt lat="45.18646" lon="5.90234">
        <ele>1143.6</ele>
        <time>2019-01-20T13:23:07.000Z</time>
      </trkpt>
      <trkpt lat="45.18643" lon="5.9022">
        <ele>1141</ele>
        <time>2019-01-20T13:23:08.000Z</time>
      </trkpt>
      <trkpt lat="45.18642" lon="5.90217">
        <ele>1140</ele>
        <time>2019-01-20T13:23:09.000Z</time>
      </trkpt>
      <trkpt lat="45.1864" lon="5.90205">
        <ele>1139</ele>
        <time>2019-01-20T13:23:10.000Z</time>
      </trkpt>
      <trkpt lat="45.1864" lon="5.902">
        <ele>1138</ele>
        <time>2019-01-20T13:23:11.000Z</time>
      </trkpt>
      <trkpt lat="45.18636" lon="5.90179">
        <ele>1137</ele>
        <time>2019-01-20T13:23:12.000Z</time>
      </trkpt>
      <trkpt lat="45.18634" lon="5.90168">
        <ele>1137</ele>
        <time>2019-01-20T13:23:13.000Z</time>
      </trkpt>
      <trkpt lat="45.18633" lon="5.90158">
        <ele>1135</ele>
        <time>2019-01-20T13:23:14.000Z</time>
      </trkpt>
      <trkpt lat="45.1863" lon="5.90144">
        <ele>1134</ele>
        <time>2019-01-20T13:23:15.000Z</time>
      </trkpt>
      <trkpt lat="45.18629" lon="5.9014">
        <ele>1133</ele>
        <time>2019-01-20T13:23:16.000Z</time>
      </trkpt>
      <trkpt lat="45.18628" lon="5.9013">
        <ele>1133</ele>
        <time>2019-01-20T13:23:17.000Z</time>
      </trkpt>
      <trkpt lat="45.18628" lon="5.90111">
        <ele>1132</ele>
        <time>2019-01-20T13:23:19.000Z</time>
      </trkpt>
      <trkpt lat="45.1863" lon="5.90108">
        <ele>1131</ele>
        <time>2019-01-20T13:23:20.000Z</time>
      </trkpt>
      <trkpt lat="45.18632" lon="5.90104">
        <ele>1129.6</ele>
        <time>2019-01-20T13:23:21.000Z</time>
      </trkpt>
      <trkpt lat="45.18635" lon="5.90097">
        <ele>1127</ele>
        <time>2019-01-20T13:23:22.000Z</time>
      </trkpt>
      <trkpt lat="45.18646" lon="5.9008">
        <ele>1126</ele>
        <time>2019-01-20T13:23:23.000Z</time>
      </trkpt>
      <trkpt lat="45.18648" lon="5.90077">
        <ele>1126</ele>
        <time>2019-01-20T13:23:24.000Z</time>
      </trkpt>
      <trkpt lat="45.18652" lon="5.90072">
        <ele>1125</ele>
        <time>2019-01-20T13:23:25.000Z</time>
      </trkpt>
      <trkpt lat="45.18656" lon="5.90067">
        <ele>1124</ele>
        <time>2019-01-20T13:23:26.000Z</time>
      </trkpt>
      <trkpt lat="45.18661" lon="5.90065">
        <ele>1124</ele>
        <time>2019-01-20T13:23:27.000Z</time>
      </trkpt>
      <trkpt lat="45.18661" lon="5.90065">
        <ele>1123</ele>
        <time>2019-01-20T13:23:28.000Z</time>
      </trkpt>
      <trkpt lat="45.1867" lon="5.90059">
        <ele>1123</ele>
        <time>2019-01-20T13:23:29.000Z</time>
      </trkpt>
      <trkpt lat="45.18678" lon="5.90049">
        <ele>1122</ele>
        <time>2019-01-20T13:23:31.000Z</time>
      </trkpt>
      <trkpt lat="45.1868" lon="5.90042">
        <ele>1121</ele>
        <time>2019-01-20T13:23:32.000Z</time>
      </trkpt>
      <trkpt lat="45.1868" lon="5.90042">
        <ele>1120</ele>
        <time>2019-01-20T13:23:33.000Z</time>
      </trkpt>
      <trkpt lat="45.1868" lon="5.90036">
        <ele>1120</ele>
        <time>2019-01-20T13:23:34.000Z</time>
      </trkpt>
      <trkpt lat="45.18681" lon="5.9003">
        <ele>1119</ele>
        <time>2019-01-20T13:23:35.000Z</time>
      </trkpt>
      <trkpt lat="45.18681" lon="5.90024">
        <ele>1119</ele>
        <time>2019-01-20T13:23:36.000Z</time>
      </trkpt>
      <trkpt lat="45.18684" lon="5.90012">
        <ele>1118</ele>
        <time>2019-01-20T13:23:38.000Z</time>
      </trkpt>
      <trkpt lat="45.18686" lon="5.90005">
        <ele>1118</ele>
        <time>2019-01-20T13:23:39.000Z</time>
      </trkpt>
      <trkpt lat="45.18687" lon="5.9">
        <ele>1118</ele>
        <time>2019-01-20T13:23:40.000Z</time>
      </trkpt>
      <trkpt lat="45.18688" lon="5.89995">
        <ele>1117</ele>
        <time>2019-01-20T13:23:41.000Z</time>
      </trkpt>
      <trkpt lat="45.18689" lon="5.89991">
        <ele>1117</ele>
        <time>2019-01-20T13:23:42.000Z</time>
      </trkpt>
      <trkpt lat="45.1869" lon="5.89986">
        <ele>1116</ele>
        <time>2019-01-20T13:23:43.000Z</time>
      </trkpt>
      <trkpt lat="45.1869" lon="5.89986">
        <ele>1116</ele>
        <time>2019-01-20T13:23:44.000Z</time>
      </trkpt>
      <trkpt lat="45.1869" lon="5.89977">
        <ele>1116</ele>
        <time>2019-01-20T13:23:45.000Z</time>
      </trkpt>
      <trkpt lat="45.18689" lon="5.89973">
        <ele>1116</ele>
        <time>2019-01-20T13:23:46.000Z</time>
      </trkpt>
      <trkpt lat="45.18688" lon="5.8997">
        <ele>1115</ele>
        <time>2019-01-20T13:23:47.000Z</time>
      </trkpt>
      <trkpt lat="45.18687" lon="5.89967">
        <ele>1114</ele>
        <time>2019-01-20T13:23:48.000Z</time>
      </trkpt>
      <trkpt lat="45.18687" lon="5.89967">
        <ele>1114</ele>
        <time>2019-01-20T13:23:49.000Z</time>
      </trkpt>
      <trkpt lat="45.18687" lon="5.89962">
        <ele>1114</ele>
        <time>2019-01-20T13:23:50.000Z</time>
      </trkpt>
      <trkpt lat="45.18687" lon="5.89962">
        <ele>1114</ele>
        <time>2019-01-20T13:23:51.000Z</time>
      </trkpt>
      <trkpt lat="45.18686" lon="5.89958">
        <ele>1114</ele>
        <time>2019-01-20T13:23:52.000Z</time>
      </trkpt>
      <trkpt lat="45.18686" lon="5.89955">
        <ele>1113</ele>
        <time>2019-01-20T13:23:53.000Z</time>
      </trkpt>
      <trkpt lat="45.18686" lon="5.89955">
        <ele>1113</ele>
        <time>2019-01-20T13:23:54.000Z</time>
      </trkpt>
      <trkpt lat="45.18686" lon="5.89955">
        <ele>1113</ele>
        <time>2019-01-20T13:23:55.000Z</time>
      </trkpt>
      <trkpt lat="45.18677" lon="5.89947">
        <ele>1112</ele>
        <time>2019-01-20T13:23:57.000Z</time>
      </trkpt>
      <trkpt lat="45.18677" lon="5.89947">
        <ele>1112</ele>
        <time>2019-01-20T13:23:58.000Z</time>
      </trkpt>
      <trkpt lat="45.18677" lon="5.89947">
        <ele>1112</ele>
        <time>2019-01-20T13:23:59.000Z</time>
      </trkpt>
      <trkpt lat="45.18673" lon="5.89943">
        <ele>1112.2</ele>
        <time>2019-01-20T13:24:01.000Z</time>
      </trkpt>
    </trkseg>
  </trk>
</gpx>